<?xml version="1.0" encoding="UTF-8" standalone="no" ?>
<gpx xmlns="http://www.topografix.com/GPX/1/1" xmlns:xsi="http://www.w3.org/2001/XMLSchema-instance" xsi:schemaLocation="http://www.topografix.com/GPX/1/1 http://www.topografix.com/GPX/1/1/gpx.xsd" version="1.1" creator="VisuGPX - https://www.visugpx.com">
  <metadata>
    <name>24-08-14</name>
    <desc><![CDATA[Dodécaudax 1/12]]></desc>
  </metadata>
  <trk>
    <name><![CDATA[24-08-14_1]]></name>
    <trkseg>
      <trkpt lat="46.87788" lon="3.09727">
        <ele>189.6</ele>
        <time>2024-08-14T03:47:16Z</time>
      </trkpt>
      <trkpt lat="46.87798" lon="3.09701">
        <ele>185.4</ele>
        <time>2024-08-14T03:47:21Z</time>
      </trkpt>
      <trkpt lat="46.87803" lon="3.09689">
        <ele>185.8</ele>
        <time>2024-08-14T03:47:23Z</time>
      </trkpt>
      <trkpt lat="46.87806" lon="3.09683">
        <ele>185.6</ele>
        <time>2024-08-14T03:47:24Z</time>
      </trkpt>
      <trkpt lat="46.87823" lon="3.09638">
        <ele>185.2</ele>
        <time>2024-08-14T03:47:31Z</time>
      </trkpt>
      <trkpt lat="46.87829" lon="3.09626">
        <ele>185</ele>
        <time>2024-08-14T03:47:33Z</time>
      </trkpt>
      <trkpt lat="46.87845" lon="3.09591">
        <ele>184.4</ele>
        <time>2024-08-14T03:47:38Z</time>
      </trkpt>
      <trkpt lat="46.87848" lon="3.09584">
        <ele>184.4</ele>
        <time>2024-08-14T03:47:39Z</time>
      </trkpt>
      <trkpt lat="46.87872" lon="3.09537">
        <ele>183.8</ele>
        <time>2024-08-14T03:47:45Z</time>
      </trkpt>
      <trkpt lat="46.87887" lon="3.09506">
        <ele>183.6</ele>
        <time>2024-08-14T03:47:49Z</time>
      </trkpt>
      <trkpt lat="46.87897" lon="3.09489">
        <ele>183.2</ele>
        <time>2024-08-14T03:47:51Z</time>
      </trkpt>
      <trkpt lat="46.87909" lon="3.09466">
        <ele>182.8</ele>
        <time>2024-08-14T03:47:54Z</time>
      </trkpt>
      <trkpt lat="46.87927" lon="3.09433">
        <ele>182.2</ele>
        <time>2024-08-14T03:47:58Z</time>
      </trkpt>
      <trkpt lat="46.87949" lon="3.09391">
        <ele>181.4</ele>
        <time>2024-08-14T03:48:03Z</time>
      </trkpt>
      <trkpt lat="46.87958" lon="3.09374">
        <ele>181</ele>
        <time>2024-08-14T03:48:05Z</time>
      </trkpt>
      <trkpt lat="46.87972" lon="3.09349">
        <ele>180.4</ele>
        <time>2024-08-14T03:48:08Z</time>
      </trkpt>
      <trkpt lat="46.87981" lon="3.09332">
        <ele>180</ele>
        <time>2024-08-14T03:48:10Z</time>
      </trkpt>
      <trkpt lat="46.87997" lon="3.09299">
        <ele>179.4</ele>
        <time>2024-08-14T03:48:14Z</time>
      </trkpt>
      <trkpt lat="46.88011" lon="3.09274">
        <ele>179</ele>
        <time>2024-08-14T03:48:17Z</time>
      </trkpt>
      <trkpt lat="46.88032" lon="3.09232">
        <ele>178.2</ele>
        <time>2024-08-14T03:48:22Z</time>
      </trkpt>
      <trkpt lat="46.88051" lon="3.092">
        <ele>177.8</ele>
        <time>2024-08-14T03:48:26Z</time>
      </trkpt>
      <trkpt lat="46.88064" lon="3.09176">
        <ele>177</ele>
        <time>2024-08-14T03:48:29Z</time>
      </trkpt>
      <trkpt lat="46.88068" lon="3.09168">
        <ele>177</ele>
        <time>2024-08-14T03:48:30Z</time>
      </trkpt>
      <trkpt lat="46.88077" lon="3.09152">
        <ele>176.8</ele>
        <time>2024-08-14T03:48:32Z</time>
      </trkpt>
      <trkpt lat="46.88103" lon="3.09106">
        <ele>176</ele>
        <time>2024-08-14T03:48:38Z</time>
      </trkpt>
      <trkpt lat="46.88114" lon="3.09096">
        <ele>175.8</ele>
        <time>2024-08-14T03:48:40Z</time>
      </trkpt>
      <trkpt lat="46.88126" lon="3.09088">
        <ele>175.8</ele>
        <time>2024-08-14T03:48:42Z</time>
      </trkpt>
      <trkpt lat="46.88132" lon="3.09083">
        <ele>175.6</ele>
        <time>2024-08-14T03:48:43Z</time>
      </trkpt>
      <trkpt lat="46.88155" lon="3.09061">
        <ele>175.4</ele>
        <time>2024-08-14T03:48:47Z</time>
      </trkpt>
      <trkpt lat="46.88185" lon="3.09038">
        <ele>175</ele>
        <time>2024-08-14T03:48:52Z</time>
      </trkpt>
      <trkpt lat="46.8821" lon="3.0902">
        <ele>175</ele>
        <time>2024-08-14T03:48:56Z</time>
      </trkpt>
      <trkpt lat="46.88261" lon="3.08988">
        <ele>174.8</ele>
        <time>2024-08-14T03:49:04Z</time>
      </trkpt>
      <trkpt lat="46.88299" lon="3.08961">
        <ele>174.8</ele>
        <time>2024-08-14T03:49:10Z</time>
      </trkpt>
      <trkpt lat="46.88323" lon="3.08925">
        <ele>174.8</ele>
        <time>2024-08-14T03:49:15Z</time>
      </trkpt>
      <trkpt lat="46.88328" lon="3.08918">
        <ele>174.6</ele>
        <time>2024-08-14T03:49:16Z</time>
      </trkpt>
      <trkpt lat="46.88339" lon="3.08905">
        <ele>174.6</ele>
        <time>2024-08-14T03:49:18Z</time>
      </trkpt>
      <trkpt lat="46.88351" lon="3.08894">
        <ele>174.2</ele>
        <time>2024-08-14T03:49:20Z</time>
      </trkpt>
      <trkpt lat="46.88357" lon="3.0889">
        <ele>174</ele>
        <time>2024-08-14T03:49:21Z</time>
      </trkpt>
      <trkpt lat="46.88371" lon="3.08886">
        <ele>173.6</ele>
        <time>2024-08-14T03:49:23Z</time>
      </trkpt>
      <trkpt lat="46.88378" lon="3.08885">
        <ele>173.6</ele>
        <time>2024-08-14T03:49:24Z</time>
      </trkpt>
      <trkpt lat="46.8842" lon="3.08885">
        <ele>173.2</ele>
        <time>2024-08-14T03:49:30Z</time>
      </trkpt>
      <trkpt lat="46.88474" lon="3.08879">
        <ele>173.2</ele>
        <time>2024-08-14T03:49:38Z</time>
      </trkpt>
      <trkpt lat="46.88529" lon="3.08864">
        <ele>173.2</ele>
        <time>2024-08-14T03:49:46Z</time>
      </trkpt>
      <trkpt lat="46.88542" lon="3.08858">
        <ele>173.2</ele>
        <time>2024-08-14T03:49:48Z</time>
      </trkpt>
      <trkpt lat="46.88573" lon="3.08835">
        <ele>172.8</ele>
        <time>2024-08-14T03:49:53Z</time>
      </trkpt>
      <trkpt lat="46.88579" lon="3.0883">
        <ele>172.8</ele>
        <time>2024-08-14T03:49:54Z</time>
      </trkpt>
      <trkpt lat="46.8863" lon="3.08789">
        <ele>173.4</ele>
        <time>2024-08-14T03:50:03Z</time>
      </trkpt>
      <trkpt lat="46.88675" lon="3.08747">
        <ele>173.6</ele>
        <time>2024-08-14T03:50:11Z</time>
      </trkpt>
      <trkpt lat="46.88722" lon="3.08705">
        <ele>173.2</ele>
        <time>2024-08-14T03:50:19Z</time>
      </trkpt>
      <trkpt lat="46.88773" lon="3.08675">
        <ele>173.2</ele>
        <time>2024-08-14T03:50:27Z</time>
      </trkpt>
      <trkpt lat="46.8879" lon="3.08668">
        <ele>173.2</ele>
        <time>2024-08-14T03:50:30Z</time>
      </trkpt>
      <trkpt lat="46.88842" lon="3.08648">
        <ele>173.4</ele>
        <time>2024-08-14T03:50:38Z</time>
      </trkpt>
      <trkpt lat="46.88894" lon="3.08629">
        <ele>173.6</ele>
        <time>2024-08-14T03:50:46Z</time>
      </trkpt>
      <trkpt lat="46.88945" lon="3.0861">
        <ele>173.6</ele>
        <time>2024-08-14T03:50:54Z</time>
      </trkpt>
      <trkpt lat="46.89003" lon="3.08589">
        <ele>173.6</ele>
        <time>2024-08-14T03:51:03Z</time>
      </trkpt>
      <trkpt lat="46.89009" lon="3.08587">
        <ele>173.6</ele>
        <time>2024-08-14T03:51:04Z</time>
      </trkpt>
      <trkpt lat="46.89067" lon="3.08564">
        <ele>174</ele>
        <time>2024-08-14T03:51:13Z</time>
      </trkpt>
      <trkpt lat="46.89073" lon="3.08561">
        <ele>174</ele>
        <time>2024-08-14T03:51:14Z</time>
      </trkpt>
      <trkpt lat="46.89121" lon="3.08528">
        <ele>174.2</ele>
        <time>2024-08-14T03:51:22Z</time>
      </trkpt>
      <trkpt lat="46.89166" lon="3.08475">
        <ele>174.6</ele>
        <time>2024-08-14T03:51:31Z</time>
      </trkpt>
      <trkpt lat="46.89203" lon="3.0844">
        <ele>174.8</ele>
        <time>2024-08-14T03:51:38Z</time>
      </trkpt>
      <trkpt lat="46.89209" lon="3.08435">
        <ele>174.8</ele>
        <time>2024-08-14T03:51:39Z</time>
      </trkpt>
      <trkpt lat="46.89245" lon="3.08413">
        <ele>175</ele>
        <time>2024-08-14T03:51:45Z</time>
      </trkpt>
      <trkpt lat="46.89293" lon="3.08385">
        <ele>175.2</ele>
        <time>2024-08-14T03:51:53Z</time>
      </trkpt>
      <trkpt lat="46.89305" lon="3.08386">
        <ele>175.2</ele>
        <time>2024-08-14T03:51:55Z</time>
      </trkpt>
      <trkpt lat="46.89311" lon="3.08388">
        <ele>175.4</ele>
        <time>2024-08-14T03:51:56Z</time>
      </trkpt>
      <trkpt lat="46.89316" lon="3.08392">
        <ele>175.2</ele>
        <time>2024-08-14T03:51:57Z</time>
      </trkpt>
      <trkpt lat="46.89328" lon="3.08399">
        <ele>175.4</ele>
        <time>2024-08-14T03:51:59Z</time>
      </trkpt>
      <trkpt lat="46.89335" lon="3.084">
        <ele>175.4</ele>
        <time>2024-08-14T03:52:00Z</time>
      </trkpt>
      <trkpt lat="46.89342" lon="3.084">
        <ele>175.2</ele>
        <time>2024-08-14T03:52:01Z</time>
      </trkpt>
      <trkpt lat="46.89354" lon="3.08395">
        <ele>175.2</ele>
        <time>2024-08-14T03:52:03Z</time>
      </trkpt>
      <trkpt lat="46.8936" lon="3.08391">
        <ele>175.2</ele>
        <time>2024-08-14T03:52:04Z</time>
      </trkpt>
      <trkpt lat="46.89365" lon="3.08385">
        <ele>175.2</ele>
        <time>2024-08-14T03:52:05Z</time>
      </trkpt>
      <trkpt lat="46.89378" lon="3.08363">
        <ele>175</ele>
        <time>2024-08-14T03:52:08Z</time>
      </trkpt>
      <trkpt lat="46.89413" lon="3.08298">
        <ele>175</ele>
        <time>2024-08-14T03:52:17Z</time>
      </trkpt>
      <trkpt lat="46.89418" lon="3.08292">
        <ele>175.2</ele>
        <time>2024-08-14T03:52:18Z</time>
      </trkpt>
      <trkpt lat="46.89434" lon="3.08279">
        <ele>175.4</ele>
        <time>2024-08-14T03:52:21Z</time>
      </trkpt>
      <trkpt lat="46.89446" lon="3.08272">
        <ele>175.8</ele>
        <time>2024-08-14T03:52:23Z</time>
      </trkpt>
      <trkpt lat="46.8947" lon="3.08261">
        <ele>176</ele>
        <time>2024-08-14T03:52:27Z</time>
      </trkpt>
      <trkpt lat="46.895" lon="3.08247">
        <ele>176.8</ele>
        <time>2024-08-14T03:52:32Z</time>
      </trkpt>
      <trkpt lat="46.89518" lon="3.08239">
        <ele>176.8</ele>
        <time>2024-08-14T03:52:35Z</time>
      </trkpt>
      <trkpt lat="46.89567" lon="3.08219">
        <ele>177</ele>
        <time>2024-08-14T03:52:43Z</time>
      </trkpt>
      <trkpt lat="46.89617" lon="3.08207">
        <ele>177.6</ele>
        <time>2024-08-14T03:52:51Z</time>
      </trkpt>
      <trkpt lat="46.8963" lon="3.08204">
        <ele>177.8</ele>
        <time>2024-08-14T03:52:53Z</time>
      </trkpt>
      <trkpt lat="46.89678" lon="3.08195">
        <ele>178.8</ele>
        <time>2024-08-14T03:53:01Z</time>
      </trkpt>
      <trkpt lat="46.89691" lon="3.08195">
        <ele>179</ele>
        <time>2024-08-14T03:53:03Z</time>
      </trkpt>
      <trkpt lat="46.89697" lon="3.08194">
        <ele>179</ele>
        <time>2024-08-14T03:53:04Z</time>
      </trkpt>
      <trkpt lat="46.89714" lon="3.08189">
        <ele>179.4</ele>
        <time>2024-08-14T03:53:07Z</time>
      </trkpt>
      <trkpt lat="46.89727" lon="3.08181">
        <ele>180</ele>
        <time>2024-08-14T03:53:10Z</time>
      </trkpt>
      <trkpt lat="46.89732" lon="3.08178">
        <ele>180.4</ele>
        <time>2024-08-14T03:53:11Z</time>
      </trkpt>
      <trkpt lat="46.89743" lon="3.0817">
        <ele>181.2</ele>
        <time>2024-08-14T03:53:14Z</time>
      </trkpt>
      <trkpt lat="46.89752" lon="3.08159">
        <ele>182</ele>
        <time>2024-08-14T03:53:17Z</time>
      </trkpt>
      <trkpt lat="46.89755" lon="3.08155">
        <ele>182.2</ele>
        <time>2024-08-14T03:53:18Z</time>
      </trkpt>
      <trkpt lat="46.89763" lon="3.08141">
        <ele>183.4</ele>
        <time>2024-08-14T03:53:21Z</time>
      </trkpt>
      <trkpt lat="46.89769" lon="3.08132">
        <ele>184</ele>
        <time>2024-08-14T03:53:23Z</time>
      </trkpt>
      <trkpt lat="46.89771" lon="3.08127">
        <ele>184.2</ele>
        <time>2024-08-14T03:53:24Z</time>
      </trkpt>
      <trkpt lat="46.89777" lon="3.08113">
        <ele>185</ele>
        <time>2024-08-14T03:53:27Z</time>
      </trkpt>
      <trkpt lat="46.89788" lon="3.08087">
        <ele>186.4</ele>
        <time>2024-08-14T03:53:32Z</time>
      </trkpt>
      <trkpt lat="46.89794" lon="3.08077">
        <ele>186.6</ele>
        <time>2024-08-14T03:53:34Z</time>
      </trkpt>
      <trkpt lat="46.89809" lon="3.08054">
        <ele>187.4</ele>
        <time>2024-08-14T03:53:39Z</time>
      </trkpt>
      <trkpt lat="46.89816" lon="3.08045">
        <ele>187.8</ele>
        <time>2024-08-14T03:53:41Z</time>
      </trkpt>
      <trkpt lat="46.89826" lon="3.08033">
        <ele>188.4</ele>
        <time>2024-08-14T03:53:44Z</time>
      </trkpt>
      <trkpt lat="46.89845" lon="3.0801">
        <ele>189.2</ele>
        <time>2024-08-14T03:53:49Z</time>
      </trkpt>
      <trkpt lat="46.89876" lon="3.07977">
        <ele>189.2</ele>
        <time>2024-08-14T03:53:55Z</time>
      </trkpt>
      <trkpt lat="46.89913" lon="3.07952">
        <ele>188</ele>
        <time>2024-08-14T03:54:01Z</time>
      </trkpt>
      <trkpt lat="46.89945" lon="3.0794">
        <ele>187.4</ele>
        <time>2024-08-14T03:54:06Z</time>
      </trkpt>
      <trkpt lat="46.89957" lon="3.07936">
        <ele>187</ele>
        <time>2024-08-14T03:54:08Z</time>
      </trkpt>
      <trkpt lat="46.89998" lon="3.07921">
        <ele>186.4</ele>
        <time>2024-08-14T03:54:15Z</time>
      </trkpt>
      <trkpt lat="46.90022" lon="3.07912">
        <ele>186.2</ele>
        <time>2024-08-14T03:54:19Z</time>
      </trkpt>
      <trkpt lat="46.90033" lon="3.07905">
        <ele>186.2</ele>
        <time>2024-08-14T03:54:21Z</time>
      </trkpt>
      <trkpt lat="46.90038" lon="3.07901">
        <ele>186</ele>
        <time>2024-08-14T03:54:22Z</time>
      </trkpt>
      <trkpt lat="46.90042" lon="3.07897">
        <ele>186</ele>
        <time>2024-08-14T03:54:23Z</time>
      </trkpt>
      <trkpt lat="46.90061" lon="3.0788">
        <ele>185.6</ele>
        <time>2024-08-14T03:54:27Z</time>
      </trkpt>
      <trkpt lat="46.9008" lon="3.07872">
        <ele>185.4</ele>
        <time>2024-08-14T03:54:30Z</time>
      </trkpt>
      <trkpt lat="46.90099" lon="3.07872">
        <ele>185.4</ele>
        <time>2024-08-14T03:54:33Z</time>
      </trkpt>
      <trkpt lat="46.90159" lon="3.07877">
        <ele>185.4</ele>
        <time>2024-08-14T03:54:42Z</time>
      </trkpt>
      <trkpt lat="46.90172" lon="3.07881">
        <ele>185.4</ele>
        <time>2024-08-14T03:54:44Z</time>
      </trkpt>
      <trkpt lat="46.90202" lon="3.07891">
        <ele>185.8</ele>
        <time>2024-08-14T03:54:49Z</time>
      </trkpt>
      <trkpt lat="46.90237" lon="3.07907">
        <ele>186.8</ele>
        <time>2024-08-14T03:54:55Z</time>
      </trkpt>
      <trkpt lat="46.90259" lon="3.07916">
        <ele>187.2</ele>
        <time>2024-08-14T03:54:59Z</time>
      </trkpt>
      <trkpt lat="46.90276" lon="3.07923">
        <ele>187.6</ele>
        <time>2024-08-14T03:55:02Z</time>
      </trkpt>
      <trkpt lat="46.90298" lon="3.07931">
        <ele>188.2</ele>
        <time>2024-08-14T03:55:06Z</time>
      </trkpt>
      <trkpt lat="46.90307" lon="3.07937">
        <ele>188.6</ele>
        <time>2024-08-14T03:55:08Z</time>
      </trkpt>
      <trkpt lat="46.90327" lon="3.07945">
        <ele>189.4</ele>
        <time>2024-08-14T03:55:12Z</time>
      </trkpt>
      <trkpt lat="46.9034" lon="3.07949">
        <ele>190</ele>
        <time>2024-08-14T03:55:15Z</time>
      </trkpt>
      <trkpt lat="46.90345" lon="3.0795">
        <ele>190.4</ele>
        <time>2024-08-14T03:55:16Z</time>
      </trkpt>
      <trkpt lat="46.90367" lon="3.07956">
        <ele>191.6</ele>
        <time>2024-08-14T03:55:21Z</time>
      </trkpt>
      <trkpt lat="46.9038" lon="3.0796">
        <ele>192.2</ele>
        <time>2024-08-14T03:55:24Z</time>
      </trkpt>
      <trkpt lat="46.90389" lon="3.07962">
        <ele>192.6</ele>
        <time>2024-08-14T03:55:26Z</time>
      </trkpt>
      <trkpt lat="46.90408" lon="3.07967">
        <ele>193.8</ele>
        <time>2024-08-14T03:55:30Z</time>
      </trkpt>
      <trkpt lat="46.90428" lon="3.07975">
        <ele>194.6</ele>
        <time>2024-08-14T03:55:34Z</time>
      </trkpt>
      <trkpt lat="46.90438" lon="3.07979">
        <ele>195.2</ele>
        <time>2024-08-14T03:55:36Z</time>
      </trkpt>
      <trkpt lat="46.90475" lon="3.07992">
        <ele>196</ele>
        <time>2024-08-14T03:55:43Z</time>
      </trkpt>
      <trkpt lat="46.90521" lon="3.08012">
        <ele>196</ele>
        <time>2024-08-14T03:55:51Z</time>
      </trkpt>
      <trkpt lat="46.90575" lon="3.08033">
        <ele>196</ele>
        <time>2024-08-14T03:56:00Z</time>
      </trkpt>
      <trkpt lat="46.90588" lon="3.08036">
        <ele>196</ele>
        <time>2024-08-14T03:56:02Z</time>
      </trkpt>
      <trkpt lat="46.90613" lon="3.08041">
        <ele>196.2</ele>
        <time>2024-08-14T03:56:06Z</time>
      </trkpt>
      <trkpt lat="46.90632" lon="3.08041">
        <ele>196.4</ele>
        <time>2024-08-14T03:56:09Z</time>
      </trkpt>
      <trkpt lat="46.90689" lon="3.08044">
        <ele>196.4</ele>
        <time>2024-08-14T03:56:18Z</time>
      </trkpt>
      <trkpt lat="46.90735" lon="3.08053">
        <ele>196.4</ele>
        <time>2024-08-14T03:56:25Z</time>
      </trkpt>
      <trkpt lat="46.90778" lon="3.08058">
        <ele>197</ele>
        <time>2024-08-14T03:56:32Z</time>
      </trkpt>
      <trkpt lat="46.90784" lon="3.08058">
        <ele>197.2</ele>
        <time>2024-08-14T03:56:33Z</time>
      </trkpt>
      <trkpt lat="46.9082" lon="3.0806">
        <ele>197.8</ele>
        <time>2024-08-14T03:56:39Z</time>
      </trkpt>
      <trkpt lat="46.90849" lon="3.08061">
        <ele>198</ele>
        <time>2024-08-14T03:56:44Z</time>
      </trkpt>
      <trkpt lat="46.90861" lon="3.08061">
        <ele>198</ele>
        <time>2024-08-14T03:56:46Z</time>
      </trkpt>
      <trkpt lat="46.90874" lon="3.08062">
        <ele>198</ele>
        <time>2024-08-14T03:56:48Z</time>
      </trkpt>
      <trkpt lat="46.9092" lon="3.08064">
        <ele>198.6</ele>
        <time>2024-08-14T03:56:55Z</time>
      </trkpt>
      <trkpt lat="46.9096" lon="3.08064">
        <ele>199</ele>
        <time>2024-08-14T03:57:01Z</time>
      </trkpt>
      <trkpt lat="46.91011" lon="3.08055">
        <ele>199.4</ele>
        <time>2024-08-14T03:57:08Z</time>
      </trkpt>
      <trkpt lat="46.91052" lon="3.08047">
        <ele>199.6</ele>
        <time>2024-08-14T03:57:14Z</time>
      </trkpt>
      <trkpt lat="46.91112" lon="3.08032">
        <ele>199.6</ele>
        <time>2024-08-14T03:57:23Z</time>
      </trkpt>
      <trkpt lat="46.91165" lon="3.08019">
        <ele>198.8</ele>
        <time>2024-08-14T03:57:30Z</time>
      </trkpt>
      <trkpt lat="46.91211" lon="3.08012">
        <ele>198.8</ele>
        <time>2024-08-14T03:57:36Z</time>
      </trkpt>
      <trkpt lat="46.91269" lon="3.08018">
        <ele>198.2</ele>
        <time>2024-08-14T03:57:44Z</time>
      </trkpt>
      <trkpt lat="46.91323" lon="3.08027">
        <ele>198.4</ele>
        <time>2024-08-14T03:57:52Z</time>
      </trkpt>
      <trkpt lat="46.9133" lon="3.08029">
        <ele>198.4</ele>
        <time>2024-08-14T03:57:53Z</time>
      </trkpt>
      <trkpt lat="46.91387" lon="3.08049">
        <ele>198.2</ele>
        <time>2024-08-14T03:58:01Z</time>
      </trkpt>
      <trkpt lat="46.91402" lon="3.08053">
        <ele>198</ele>
        <time>2024-08-14T03:58:03Z</time>
      </trkpt>
      <trkpt lat="46.91461" lon="3.08072">
        <ele>197.6</ele>
        <time>2024-08-14T03:58:11Z</time>
      </trkpt>
      <trkpt lat="46.91518" lon="3.08095">
        <ele>197.4</ele>
        <time>2024-08-14T03:58:19Z</time>
      </trkpt>
      <trkpt lat="46.91532" lon="3.08101">
        <ele>197.4</ele>
        <time>2024-08-14T03:58:21Z</time>
      </trkpt>
      <trkpt lat="46.91589" lon="3.08125">
        <ele>197</ele>
        <time>2024-08-14T03:58:29Z</time>
      </trkpt>
      <trkpt lat="46.91611" lon="3.08132">
        <ele>196.8</ele>
        <time>2024-08-14T03:58:32Z</time>
      </trkpt>
      <trkpt lat="46.91669" lon="3.08149">
        <ele>196</ele>
        <time>2024-08-14T03:58:40Z</time>
      </trkpt>
      <trkpt lat="46.91676" lon="3.08151">
        <ele>196</ele>
        <time>2024-08-14T03:58:41Z</time>
      </trkpt>
      <trkpt lat="46.91712" lon="3.08161">
        <ele>195.8</ele>
        <time>2024-08-14T03:58:46Z</time>
      </trkpt>
      <trkpt lat="46.91741" lon="3.08166">
        <ele>195.8</ele>
        <time>2024-08-14T03:58:50Z</time>
      </trkpt>
      <trkpt lat="46.91792" lon="3.08167">
        <ele>195.6</ele>
        <time>2024-08-14T03:58:57Z</time>
      </trkpt>
      <trkpt lat="46.91853" lon="3.08165">
        <ele>195.4</ele>
        <time>2024-08-14T03:59:05Z</time>
      </trkpt>
      <trkpt lat="46.9186" lon="3.08165">
        <ele>195.2</ele>
        <time>2024-08-14T03:59:06Z</time>
      </trkpt>
      <trkpt lat="46.91905" lon="3.08164">
        <ele>194.8</ele>
        <time>2024-08-14T03:59:12Z</time>
      </trkpt>
      <trkpt lat="46.91925" lon="3.08163">
        <ele>194.8</ele>
        <time>2024-08-14T03:59:15Z</time>
      </trkpt>
      <trkpt lat="46.91957" lon="3.08163">
        <ele>195.2</ele>
        <time>2024-08-14T03:59:21Z</time>
      </trkpt>
      <trkpt lat="46.91966" lon="3.08163">
        <ele>196</ele>
        <time>2024-08-14T03:59:23Z</time>
      </trkpt>
      <trkpt lat="46.91971" lon="3.08164">
        <ele>196.2</ele>
        <time>2024-08-14T03:59:24Z</time>
      </trkpt>
      <trkpt lat="46.91984" lon="3.08167">
        <ele>196.8</ele>
        <time>2024-08-14T03:59:27Z</time>
      </trkpt>
      <trkpt lat="46.91988" lon="3.08168">
        <ele>197</ele>
        <time>2024-08-14T03:59:28Z</time>
      </trkpt>
      <trkpt lat="46.92" lon="3.08171">
        <ele>197.6</ele>
        <time>2024-08-14T03:59:31Z</time>
      </trkpt>
      <trkpt lat="46.92008" lon="3.08176">
        <ele>198.2</ele>
        <time>2024-08-14T03:59:33Z</time>
      </trkpt>
      <trkpt lat="46.92023" lon="3.08186">
        <ele>199.6</ele>
        <time>2024-08-14T03:59:37Z</time>
      </trkpt>
      <trkpt lat="46.92036" lon="3.08198">
        <ele>200.8</ele>
        <time>2024-08-14T03:59:41Z</time>
      </trkpt>
      <trkpt lat="46.92049" lon="3.08211">
        <ele>202</ele>
        <time>2024-08-14T03:59:45Z</time>
      </trkpt>
      <trkpt lat="46.92059" lon="3.0822">
        <ele>203</ele>
        <time>2024-08-14T03:59:49Z</time>
      </trkpt>
      <trkpt lat="46.92065" lon="3.08225">
        <ele>203.2</ele>
        <time>2024-08-14T03:59:50Z</time>
      </trkpt>
      <trkpt lat="46.92073" lon="3.08234">
        <ele>204.2</ele>
        <time>2024-08-14T03:59:53Z</time>
      </trkpt>
      <trkpt lat="46.92082" lon="3.08243">
        <ele>205.2</ele>
        <time>2024-08-14T03:59:56Z</time>
      </trkpt>
      <trkpt lat="46.9209" lon="3.08252">
        <ele>205.8</ele>
        <time>2024-08-14T03:59:59Z</time>
      </trkpt>
      <trkpt lat="46.92096" lon="3.08258">
        <ele>206.2</ele>
        <time>2024-08-14T04:00:01Z</time>
      </trkpt>
      <trkpt lat="46.92109" lon="3.08274">
        <ele>207.4</ele>
        <time>2024-08-14T04:00:06Z</time>
      </trkpt>
      <trkpt lat="46.9212" lon="3.08288">
        <ele>208.2</ele>
        <time>2024-08-14T04:00:10Z</time>
      </trkpt>
      <trkpt lat="46.92122" lon="3.08291">
        <ele>208.6</ele>
        <time>2024-08-14T04:00:11Z</time>
      </trkpt>
      <trkpt lat="46.92134" lon="3.08304">
        <ele>209.8</ele>
        <time>2024-08-14T04:00:15Z</time>
      </trkpt>
      <trkpt lat="46.92148" lon="3.08318">
        <ele>210.8</ele>
        <time>2024-08-14T04:00:20Z</time>
      </trkpt>
      <trkpt lat="46.92154" lon="3.08324">
        <ele>211.2</ele>
        <time>2024-08-14T04:00:22Z</time>
      </trkpt>
      <trkpt lat="46.92163" lon="3.08334">
        <ele>212.2</ele>
        <time>2024-08-14T04:00:25Z</time>
      </trkpt>
      <trkpt lat="46.92174" lon="3.08348">
        <ele>213.2</ele>
        <time>2024-08-14T04:00:29Z</time>
      </trkpt>
      <trkpt lat="46.92179" lon="3.08354">
        <ele>213.6</ele>
        <time>2024-08-14T04:00:31Z</time>
      </trkpt>
      <trkpt lat="46.92188" lon="3.08365">
        <ele>214.4</ele>
        <time>2024-08-14T04:00:34Z</time>
      </trkpt>
      <trkpt lat="46.922" lon="3.08376">
        <ele>215.6</ele>
        <time>2024-08-14T04:00:38Z</time>
      </trkpt>
      <trkpt lat="46.92217" lon="3.08387">
        <ele>216.6</ele>
        <time>2024-08-14T04:00:43Z</time>
      </trkpt>
      <trkpt lat="46.92224" lon="3.0839">
        <ele>217</ele>
        <time>2024-08-14T04:00:45Z</time>
      </trkpt>
      <trkpt lat="46.92231" lon="3.08394">
        <ele>217.6</ele>
        <time>2024-08-14T04:00:47Z</time>
      </trkpt>
      <trkpt lat="46.92245" lon="3.08403">
        <ele>218.4</ele>
        <time>2024-08-14T04:00:51Z</time>
      </trkpt>
      <trkpt lat="46.92248" lon="3.08405">
        <ele>218.6</ele>
        <time>2024-08-14T04:00:52Z</time>
      </trkpt>
      <trkpt lat="46.92262" lon="3.08412">
        <ele>219.8</ele>
        <time>2024-08-14T04:00:56Z</time>
      </trkpt>
      <trkpt lat="46.92269" lon="3.08414">
        <ele>220</ele>
        <time>2024-08-14T04:00:58Z</time>
      </trkpt>
      <trkpt lat="46.92281" lon="3.08418">
        <ele>220.8</ele>
        <time>2024-08-14T04:01:01Z</time>
      </trkpt>
      <trkpt lat="46.92294" lon="3.08422">
        <ele>221.2</ele>
        <time>2024-08-14T04:01:04Z</time>
      </trkpt>
      <trkpt lat="46.92303" lon="3.08424">
        <ele>221.8</ele>
        <time>2024-08-14T04:01:06Z</time>
      </trkpt>
      <trkpt lat="46.92334" lon="3.08431">
        <ele>222.2</ele>
        <time>2024-08-14T04:01:12Z</time>
      </trkpt>
      <trkpt lat="46.9237" lon="3.08436">
        <ele>222</ele>
        <time>2024-08-14T04:01:18Z</time>
      </trkpt>
      <trkpt lat="46.92417" lon="3.08445">
        <ele>221</ele>
        <time>2024-08-14T04:01:25Z</time>
      </trkpt>
      <trkpt lat="46.92438" lon="3.0845">
        <ele>220.8</ele>
        <time>2024-08-14T04:01:28Z</time>
      </trkpt>
      <trkpt lat="46.92467" lon="3.08455">
        <ele>220.6</ele>
        <time>2024-08-14T04:01:32Z</time>
      </trkpt>
      <trkpt lat="46.92524" lon="3.08467">
        <ele>220</ele>
        <time>2024-08-14T04:01:40Z</time>
      </trkpt>
      <trkpt lat="46.92546" lon="3.08473">
        <ele>219.6</ele>
        <time>2024-08-14T04:01:43Z</time>
      </trkpt>
      <trkpt lat="46.92602" lon="3.0849">
        <ele>218.6</ele>
        <time>2024-08-14T04:01:51Z</time>
      </trkpt>
      <trkpt lat="46.92609" lon="3.08492">
        <ele>218.6</ele>
        <time>2024-08-14T04:01:52Z</time>
      </trkpt>
      <trkpt lat="46.92668" lon="3.0851">
        <ele>217.8</ele>
        <time>2024-08-14T04:02:00Z</time>
      </trkpt>
      <trkpt lat="46.92675" lon="3.08512">
        <ele>217.4</ele>
        <time>2024-08-14T04:02:01Z</time>
      </trkpt>
      <trkpt lat="46.92734" lon="3.08532">
        <ele>217</ele>
        <time>2024-08-14T04:02:09Z</time>
      </trkpt>
      <trkpt lat="46.92785" lon="3.0855">
        <ele>216.4</ele>
        <time>2024-08-14T04:02:16Z</time>
      </trkpt>
      <trkpt lat="46.928" lon="3.08554">
        <ele>216</ele>
        <time>2024-08-14T04:02:18Z</time>
      </trkpt>
      <trkpt lat="46.92852" lon="3.08572">
        <ele>215.4</ele>
        <time>2024-08-14T04:02:25Z</time>
      </trkpt>
      <trkpt lat="46.92859" lon="3.08575">
        <ele>215.4</ele>
        <time>2024-08-14T04:02:26Z</time>
      </trkpt>
      <trkpt lat="46.92913" lon="3.08592">
        <ele>214.6</ele>
        <time>2024-08-14T04:02:33Z</time>
      </trkpt>
      <trkpt lat="46.92945" lon="3.08601">
        <ele>214.4</ele>
        <time>2024-08-14T04:02:37Z</time>
      </trkpt>
      <trkpt lat="46.92969" lon="3.08607">
        <ele>214</ele>
        <time>2024-08-14T04:02:40Z</time>
      </trkpt>
      <trkpt lat="46.93019" lon="3.08618">
        <ele>213.4</ele>
        <time>2024-08-14T04:02:46Z</time>
      </trkpt>
      <trkpt lat="46.93036" lon="3.08623">
        <ele>212.8</ele>
        <time>2024-08-14T04:02:48Z</time>
      </trkpt>
      <trkpt lat="46.93062" lon="3.0863">
        <ele>212.2</ele>
        <time>2024-08-14T04:02:51Z</time>
      </trkpt>
      <trkpt lat="46.93105" lon="3.08646">
        <ele>211.2</ele>
        <time>2024-08-14T04:02:56Z</time>
      </trkpt>
      <trkpt lat="46.93114" lon="3.08649">
        <ele>211</ele>
        <time>2024-08-14T04:02:57Z</time>
      </trkpt>
      <trkpt lat="46.9315" lon="3.08662">
        <ele>210.2</ele>
        <time>2024-08-14T04:03:01Z</time>
      </trkpt>
      <trkpt lat="46.93195" lon="3.08678">
        <ele>208.8</ele>
        <time>2024-08-14T04:03:06Z</time>
      </trkpt>
      <trkpt lat="46.93204" lon="3.0868">
        <ele>208.6</ele>
        <time>2024-08-14T04:03:07Z</time>
      </trkpt>
      <trkpt lat="46.93249" lon="3.08691">
        <ele>207.6</ele>
        <time>2024-08-14T04:03:12Z</time>
      </trkpt>
      <trkpt lat="46.93267" lon="3.08693">
        <ele>207.6</ele>
        <time>2024-08-14T04:03:14Z</time>
      </trkpt>
      <trkpt lat="46.93315" lon="3.08696">
        <ele>206.6</ele>
        <time>2024-08-14T04:03:19Z</time>
      </trkpt>
      <trkpt lat="46.93352" lon="3.08699">
        <ele>205.6</ele>
        <time>2024-08-14T04:03:23Z</time>
      </trkpt>
      <trkpt lat="46.93361" lon="3.087">
        <ele>205.4</ele>
        <time>2024-08-14T04:03:24Z</time>
      </trkpt>
      <trkpt lat="46.93405" lon="3.08709">
        <ele>204.4</ele>
        <time>2024-08-14T04:03:29Z</time>
      </trkpt>
      <trkpt lat="46.93413" lon="3.08712">
        <ele>204</ele>
        <time>2024-08-14T04:03:30Z</time>
      </trkpt>
      <trkpt lat="46.9342" lon="3.08717">
        <ele>203.8</ele>
        <time>2024-08-14T04:03:31Z</time>
      </trkpt>
      <trkpt lat="46.93442" lon="3.08734">
        <ele>203.2</ele>
        <time>2024-08-14T04:03:34Z</time>
      </trkpt>
      <trkpt lat="46.93448" lon="3.08741">
        <ele>203.2</ele>
        <time>2024-08-14T04:03:35Z</time>
      </trkpt>
      <trkpt lat="46.93464" lon="3.08765">
        <ele>202</ele>
        <time>2024-08-14T04:03:38Z</time>
      </trkpt>
      <trkpt lat="46.93473" lon="3.0878">
        <ele>201.4</ele>
        <time>2024-08-14T04:03:40Z</time>
      </trkpt>
      <trkpt lat="46.93486" lon="3.0879">
        <ele>200.8</ele>
        <time>2024-08-14T04:03:42Z</time>
      </trkpt>
      <trkpt lat="46.93509" lon="3.08791">
        <ele>199.4</ele>
        <time>2024-08-14T04:03:45Z</time>
      </trkpt>
      <trkpt lat="46.93516" lon="3.08791">
        <ele>198.8</ele>
        <time>2024-08-14T04:03:46Z</time>
      </trkpt>
      <trkpt lat="46.93531" lon="3.0879">
        <ele>198.4</ele>
        <time>2024-08-14T04:03:48Z</time>
      </trkpt>
      <trkpt lat="46.93579" lon="3.08783">
        <ele>197.4</ele>
        <time>2024-08-14T04:03:55Z</time>
      </trkpt>
      <trkpt lat="46.93587" lon="3.08782">
        <ele>197.2</ele>
        <time>2024-08-14T04:03:56Z</time>
      </trkpt>
      <trkpt lat="46.93639" lon="3.08769">
        <ele>196.6</ele>
        <time>2024-08-14T04:04:03Z</time>
      </trkpt>
      <trkpt lat="46.93664" lon="3.08763">
        <ele>196.2</ele>
        <time>2024-08-14T04:04:06Z</time>
      </trkpt>
      <trkpt lat="46.93681" lon="3.08757">
        <ele>196</ele>
        <time>2024-08-14T04:04:08Z</time>
      </trkpt>
      <trkpt lat="46.93721" lon="3.08736">
        <ele>195</ele>
        <time>2024-08-14T04:04:13Z</time>
      </trkpt>
      <trkpt lat="46.93729" lon="3.08732">
        <ele>194.6</ele>
        <time>2024-08-14T04:04:14Z</time>
      </trkpt>
      <trkpt lat="46.93751" lon="3.08717">
        <ele>193.8</ele>
        <time>2024-08-14T04:04:17Z</time>
      </trkpt>
      <trkpt lat="46.93773" lon="3.08702">
        <ele>192.6</ele>
        <time>2024-08-14T04:04:20Z</time>
      </trkpt>
      <trkpt lat="46.93795" lon="3.08688">
        <ele>192.2</ele>
        <time>2024-08-14T04:04:23Z</time>
      </trkpt>
      <trkpt lat="46.93831" lon="3.08662">
        <ele>191.6</ele>
        <time>2024-08-14T04:04:28Z</time>
      </trkpt>
      <trkpt lat="46.93859" lon="3.08639">
        <ele>191.2</ele>
        <time>2024-08-14T04:04:32Z</time>
      </trkpt>
      <trkpt lat="46.93908" lon="3.08601">
        <ele>190.4</ele>
        <time>2024-08-14T04:04:39Z</time>
      </trkpt>
      <trkpt lat="46.93915" lon="3.08596">
        <ele>190.4</ele>
        <time>2024-08-14T04:04:40Z</time>
      </trkpt>
      <trkpt lat="46.93962" lon="3.08575">
        <ele>189.6</ele>
        <time>2024-08-14T04:04:46Z</time>
      </trkpt>
      <trkpt lat="46.93971" lon="3.08574">
        <ele>189.6</ele>
        <time>2024-08-14T04:04:47Z</time>
      </trkpt>
      <trkpt lat="46.93988" lon="3.08575">
        <ele>189.4</ele>
        <time>2024-08-14T04:04:49Z</time>
      </trkpt>
      <trkpt lat="46.93997" lon="3.08577">
        <ele>189</ele>
        <time>2024-08-14T04:04:50Z</time>
      </trkpt>
      <trkpt lat="46.94014" lon="3.08582">
        <ele>188.2</ele>
        <time>2024-08-14T04:04:52Z</time>
      </trkpt>
      <trkpt lat="46.9404" lon="3.08587">
        <ele>187.4</ele>
        <time>2024-08-14T04:04:55Z</time>
      </trkpt>
      <trkpt lat="46.94049" lon="3.08587">
        <ele>187.2</ele>
        <time>2024-08-14T04:04:56Z</time>
      </trkpt>
      <trkpt lat="46.94083" lon="3.08583">
        <ele>186.6</ele>
        <time>2024-08-14T04:05:00Z</time>
      </trkpt>
      <trkpt lat="46.94115" lon="3.08579">
        <ele>186</ele>
        <time>2024-08-14T04:05:04Z</time>
      </trkpt>
      <trkpt lat="46.9413" lon="3.08578">
        <ele>185.2</ele>
        <time>2024-08-14T04:05:06Z</time>
      </trkpt>
      <trkpt lat="46.94137" lon="3.08579">
        <ele>184.8</ele>
        <time>2024-08-14T04:05:07Z</time>
      </trkpt>
      <trkpt lat="46.94169" lon="3.08585">
        <ele>184.2</ele>
        <time>2024-08-14T04:05:11Z</time>
      </trkpt>
      <trkpt lat="46.94186" lon="3.08585">
        <ele>184</ele>
        <time>2024-08-14T04:05:13Z</time>
      </trkpt>
      <trkpt lat="46.94194" lon="3.08583">
        <ele>183.6</ele>
        <time>2024-08-14T04:05:14Z</time>
      </trkpt>
      <trkpt lat="46.94202" lon="3.0858">
        <ele>183.4</ele>
        <time>2024-08-14T04:05:15Z</time>
      </trkpt>
      <trkpt lat="46.94225" lon="3.08565">
        <ele>183</ele>
        <time>2024-08-14T04:05:18Z</time>
      </trkpt>
      <trkpt lat="46.94231" lon="3.08559">
        <ele>182.4</ele>
        <time>2024-08-14T04:05:19Z</time>
      </trkpt>
      <trkpt lat="46.94237" lon="3.0855">
        <ele>181.8</ele>
        <time>2024-08-14T04:05:20Z</time>
      </trkpt>
      <trkpt lat="46.94246" lon="3.08532">
        <ele>181.4</ele>
        <time>2024-08-14T04:05:22Z</time>
      </trkpt>
      <trkpt lat="46.94249" lon="3.08522">
        <ele>181.2</ele>
        <time>2024-08-14T04:05:23Z</time>
      </trkpt>
      <trkpt lat="46.94251" lon="3.08513">
        <ele>181</ele>
        <time>2024-08-14T04:05:24Z</time>
      </trkpt>
      <trkpt lat="46.94255" lon="3.08496">
        <ele>180.2</ele>
        <time>2024-08-14T04:05:26Z</time>
      </trkpt>
      <trkpt lat="46.94258" lon="3.08487">
        <ele>179.6</ele>
        <time>2024-08-14T04:05:27Z</time>
      </trkpt>
      <trkpt lat="46.94265" lon="3.08472">
        <ele>179</ele>
        <time>2024-08-14T04:05:29Z</time>
      </trkpt>
      <trkpt lat="46.94276" lon="3.08458">
        <ele>178.2</ele>
        <time>2024-08-14T04:05:31Z</time>
      </trkpt>
      <trkpt lat="46.94282" lon="3.08453">
        <ele>177.6</ele>
        <time>2024-08-14T04:05:32Z</time>
      </trkpt>
      <trkpt lat="46.94288" lon="3.08449">
        <ele>177.4</ele>
        <time>2024-08-14T04:05:33Z</time>
      </trkpt>
      <trkpt lat="46.94295" lon="3.08447">
        <ele>177</ele>
        <time>2024-08-14T04:05:34Z</time>
      </trkpt>
      <trkpt lat="46.94302" lon="3.08446">
        <ele>177</ele>
        <time>2024-08-14T04:05:35Z</time>
      </trkpt>
      <trkpt lat="46.94315" lon="3.08447">
        <ele>176.6</ele>
        <time>2024-08-14T04:05:37Z</time>
      </trkpt>
      <trkpt lat="46.94322" lon="3.08447">
        <ele>176.6</ele>
        <time>2024-08-14T04:05:38Z</time>
      </trkpt>
      <trkpt lat="46.94339" lon="3.08448">
        <ele>176.4</ele>
        <time>2024-08-14T04:05:41Z</time>
      </trkpt>
      <trkpt lat="46.94344" lon="3.08446">
        <ele>176.2</ele>
        <time>2024-08-14T04:05:42Z</time>
      </trkpt>
      <trkpt lat="46.94347" lon="3.0844">
        <ele>176.2</ele>
        <time>2024-08-14T04:05:43Z</time>
      </trkpt>
      <trkpt lat="46.94348" lon="3.08433">
        <ele>176</ele>
        <time>2024-08-14T04:05:44Z</time>
      </trkpt>
      <trkpt lat="46.94348" lon="3.08425">
        <ele>176</ele>
        <time>2024-08-14T04:05:45Z</time>
      </trkpt>
      <trkpt lat="46.94346" lon="3.08399">
        <ele>175.8</ele>
        <time>2024-08-14T04:05:48Z</time>
      </trkpt>
      <trkpt lat="46.94344" lon="3.08389">
        <ele>175.6</ele>
        <time>2024-08-14T04:05:49Z</time>
      </trkpt>
      <trkpt lat="46.9434" lon="3.08351">
        <ele>175.4</ele>
        <time>2024-08-14T04:05:53Z</time>
      </trkpt>
      <trkpt lat="46.94335" lon="3.08332">
        <ele>175.4</ele>
        <time>2024-08-14T04:05:55Z</time>
      </trkpt>
      <trkpt lat="46.94324" lon="3.08305">
        <ele>175</ele>
        <time>2024-08-14T04:05:58Z</time>
      </trkpt>
      <trkpt lat="46.94308" lon="3.08272">
        <ele>174.6</ele>
        <time>2024-08-14T04:06:02Z</time>
      </trkpt>
      <trkpt lat="46.94293" lon="3.0824">
        <ele>174.4</ele>
        <time>2024-08-14T04:06:06Z</time>
      </trkpt>
      <trkpt lat="46.94261" lon="3.08176">
        <ele>174.4</ele>
        <time>2024-08-14T04:06:14Z</time>
      </trkpt>
      <trkpt lat="46.94257" lon="3.08168">
        <ele>174.4</ele>
        <time>2024-08-14T04:06:15Z</time>
      </trkpt>
      <trkpt lat="46.94226" lon="3.08103">
        <ele>174.2</ele>
        <time>2024-08-14T04:06:23Z</time>
      </trkpt>
      <trkpt lat="46.94201" lon="3.08036">
        <ele>174.2</ele>
        <time>2024-08-14T04:06:31Z</time>
      </trkpt>
      <trkpt lat="46.94187" lon="3.08004">
        <ele>174.2</ele>
        <time>2024-08-14T04:06:35Z</time>
      </trkpt>
      <trkpt lat="46.94175" lon="3.07983">
        <ele>174.2</ele>
        <time>2024-08-14T04:06:38Z</time>
      </trkpt>
      <trkpt lat="46.94172" lon="3.07975">
        <ele>174.2</ele>
        <time>2024-08-14T04:06:39Z</time>
      </trkpt>
      <trkpt lat="46.94167" lon="3.07959">
        <ele>174.2</ele>
        <time>2024-08-14T04:06:41Z</time>
      </trkpt>
      <trkpt lat="46.94165" lon="3.0795">
        <ele>174.2</ele>
        <time>2024-08-14T04:06:42Z</time>
      </trkpt>
      <trkpt lat="46.94165" lon="3.07932">
        <ele>174.2</ele>
        <time>2024-08-14T04:06:44Z</time>
      </trkpt>
      <trkpt lat="46.94169" lon="3.07916">
        <ele>174.2</ele>
        <time>2024-08-14T04:06:46Z</time>
      </trkpt>
      <trkpt lat="46.9418" lon="3.07898">
        <ele>174.2</ele>
        <time>2024-08-14T04:06:49Z</time>
      </trkpt>
      <trkpt lat="46.94189" lon="3.07889">
        <ele>174.2</ele>
        <time>2024-08-14T04:06:51Z</time>
      </trkpt>
      <trkpt lat="46.94199" lon="3.07884">
        <ele>174.2</ele>
        <time>2024-08-14T04:06:53Z</time>
      </trkpt>
      <trkpt lat="46.94208" lon="3.07883">
        <ele>174.4</ele>
        <time>2024-08-14T04:06:55Z</time>
      </trkpt>
      <trkpt lat="46.94212" lon="3.07883">
        <ele>174.6</ele>
        <time>2024-08-14T04:06:56Z</time>
      </trkpt>
      <trkpt lat="46.94223" lon="3.07888">
        <ele>175.2</ele>
        <time>2024-08-14T04:06:59Z</time>
      </trkpt>
      <trkpt lat="46.94226" lon="3.07892">
        <ele>175.6</ele>
        <time>2024-08-14T04:07:00Z</time>
      </trkpt>
      <trkpt lat="46.94236" lon="3.07901">
        <ele>176.2</ele>
        <time>2024-08-14T04:07:03Z</time>
      </trkpt>
      <trkpt lat="46.94239" lon="3.079">
        <ele>176.4</ele>
        <time>2024-08-14T04:07:04Z</time>
      </trkpt>
      <trkpt lat="46.94244" lon="3.07893">
        <ele>176.4</ele>
        <time>2024-08-14T04:07:06Z</time>
      </trkpt>
      <trkpt lat="46.94246" lon="3.07886">
        <ele>176.4</ele>
        <time>2024-08-14T04:07:07Z</time>
      </trkpt>
      <trkpt lat="46.94258" lon="3.07852">
        <ele>176.4</ele>
        <time>2024-08-14T04:07:11Z</time>
      </trkpt>
      <trkpt lat="46.94283" lon="3.07803">
        <ele>174.4</ele>
        <time>2024-08-14T04:07:17Z</time>
      </trkpt>
      <trkpt lat="46.94287" lon="3.07796">
        <ele>174.2</ele>
        <time>2024-08-14T04:07:18Z</time>
      </trkpt>
      <trkpt lat="46.94314" lon="3.07741">
        <ele>173.8</ele>
        <time>2024-08-14T04:07:25Z</time>
      </trkpt>
      <trkpt lat="46.94336" lon="3.07694">
        <ele>173.4</ele>
        <time>2024-08-14T04:07:31Z</time>
      </trkpt>
      <trkpt lat="46.9434" lon="3.07687">
        <ele>173.4</ele>
        <time>2024-08-14T04:07:32Z</time>
      </trkpt>
      <trkpt lat="46.94344" lon="3.07679">
        <ele>173.4</ele>
        <time>2024-08-14T04:07:33Z</time>
      </trkpt>
      <trkpt lat="46.94352" lon="3.07665">
        <ele>173.4</ele>
        <time>2024-08-14T04:07:35Z</time>
      </trkpt>
      <trkpt lat="46.94355" lon="3.07657">
        <ele>173.4</ele>
        <time>2024-08-14T04:07:36Z</time>
      </trkpt>
      <trkpt lat="46.9437" lon="3.07624">
        <ele>173.4</ele>
        <time>2024-08-14T04:07:40Z</time>
      </trkpt>
      <trkpt lat="46.94373" lon="3.07617">
        <ele>173.4</ele>
        <time>2024-08-14T04:07:41Z</time>
      </trkpt>
      <trkpt lat="46.94382" lon="3.07602">
        <ele>173.4</ele>
        <time>2024-08-14T04:07:43Z</time>
      </trkpt>
      <trkpt lat="46.94393" lon="3.0758">
        <ele>173.6</ele>
        <time>2024-08-14T04:07:46Z</time>
      </trkpt>
      <trkpt lat="46.94419" lon="3.07522">
        <ele>173.6</ele>
        <time>2024-08-14T04:07:53Z</time>
      </trkpt>
      <trkpt lat="46.94434" lon="3.07489">
        <ele>173.6</ele>
        <time>2024-08-14T04:07:57Z</time>
      </trkpt>
      <trkpt lat="46.9444" lon="3.07477">
        <ele>173.6</ele>
        <time>2024-08-14T04:07:59Z</time>
      </trkpt>
      <trkpt lat="46.94448" lon="3.07454">
        <ele>173.4</ele>
        <time>2024-08-14T04:08:02Z</time>
      </trkpt>
      <trkpt lat="46.94454" lon="3.07431">
        <ele>173.4</ele>
        <time>2024-08-14T04:08:06Z</time>
      </trkpt>
      <trkpt lat="46.94476" lon="3.0739">
        <ele>173.4</ele>
        <time>2024-08-14T04:08:14Z</time>
      </trkpt>
      <trkpt lat="46.94479" lon="3.07384">
        <ele>173.4</ele>
        <time>2024-08-14T04:08:15Z</time>
      </trkpt>
      <trkpt lat="46.94488" lon="3.0737">
        <ele>173.4</ele>
        <time>2024-08-14T04:08:18Z</time>
      </trkpt>
      <trkpt lat="46.94491" lon="3.07364">
        <ele>173.4</ele>
        <time>2024-08-14T04:08:19Z</time>
      </trkpt>
      <trkpt lat="46.94517" lon="3.07309">
        <ele>173.6</ele>
        <time>2024-08-14T04:08:28Z</time>
      </trkpt>
      <trkpt lat="46.94544" lon="3.07254">
        <ele>173.4</ele>
        <time>2024-08-14T04:08:37Z</time>
      </trkpt>
      <trkpt lat="46.94577" lon="3.07186">
        <ele>173.6</ele>
        <time>2024-08-14T04:08:48Z</time>
      </trkpt>
      <trkpt lat="46.94604" lon="3.07131">
        <ele>173.2</ele>
        <time>2024-08-14T04:08:57Z</time>
      </trkpt>
      <trkpt lat="46.94632" lon="3.07072">
        <ele>173</ele>
        <time>2024-08-14T04:09:07Z</time>
      </trkpt>
      <trkpt lat="46.94636" lon="3.07065">
        <ele>173</ele>
        <time>2024-08-14T04:09:09Z</time>
      </trkpt>
      <trkpt lat="46.9464" lon="3.0706">
        <ele>173.2</ele>
        <time>2024-08-14T04:09:11Z</time>
      </trkpt>
      <trkpt lat="46.9465" lon="3.07039">
        <ele>173.2</ele>
        <time>2024-08-14T04:09:16Z</time>
      </trkpt>
      <trkpt lat="46.9467" lon="3.07">
        <ele>173</ele>
        <time>2024-08-14T04:09:24Z</time>
      </trkpt>
      <trkpt lat="46.9468" lon="3.06978">
        <ele>172.8</ele>
        <time>2024-08-14T04:09:29Z</time>
      </trkpt>
      <trkpt lat="46.94682" lon="3.06973">
        <ele>172.8</ele>
        <time>2024-08-14T04:09:30Z</time>
      </trkpt>
      <trkpt lat="46.9469" lon="3.06957">
        <ele>172.2</ele>
        <time>2024-08-14T04:09:34Z</time>
      </trkpt>
      <trkpt lat="46.94692" lon="3.06956">
        <ele>171.4</ele>
        <time>2024-08-14T04:09:35Z</time>
      </trkpt>
      <trkpt lat="46.947" lon="3.06951">
        <ele>169.8</ele>
        <time>2024-08-14T04:09:38Z</time>
      </trkpt>
      <trkpt lat="46.94708" lon="3.06937">
        <ele>168.8</ele>
        <time>2024-08-14T04:09:42Z</time>
      </trkpt>
      <trkpt lat="46.94709" lon="3.06933">
        <ele>168.6</ele>
        <time>2024-08-14T04:09:43Z</time>
      </trkpt>
      <trkpt lat="46.94715" lon="3.06921">
        <ele>168.4</ele>
        <time>2024-08-14T04:09:45Z</time>
      </trkpt>
      <trkpt lat="46.94723" lon="3.06907">
        <ele>168</ele>
        <time>2024-08-14T04:09:47Z</time>
      </trkpt>
      <trkpt lat="46.94731" lon="3.06892">
        <ele>167.8</ele>
        <time>2024-08-14T04:09:49Z</time>
      </trkpt>
      <trkpt lat="46.94748" lon="3.06857">
        <ele>167</ele>
        <time>2024-08-14T04:09:53Z</time>
      </trkpt>
      <trkpt lat="46.94753" lon="3.06846">
        <ele>166.8</ele>
        <time>2024-08-14T04:09:54Z</time>
      </trkpt>
      <trkpt lat="46.94776" lon="3.06802">
        <ele>166</ele>
        <time>2024-08-14T04:09:59Z</time>
      </trkpt>
      <trkpt lat="46.94805" lon="3.06741">
        <ele>165.8</ele>
        <time>2024-08-14T04:10:06Z</time>
      </trkpt>
      <trkpt lat="46.94818" lon="3.06714">
        <ele>165.6</ele>
        <time>2024-08-14T04:10:09Z</time>
      </trkpt>
      <trkpt lat="46.94853" lon="3.06644">
        <ele>165.6</ele>
        <time>2024-08-14T04:10:17Z</time>
      </trkpt>
      <trkpt lat="46.94856" lon="3.06635">
        <ele>165.6</ele>
        <time>2024-08-14T04:10:18Z</time>
      </trkpt>
      <trkpt lat="46.94863" lon="3.06619">
        <ele>165.6</ele>
        <time>2024-08-14T04:10:20Z</time>
      </trkpt>
      <trkpt lat="46.94868" lon="3.06612">
        <ele>165.6</ele>
        <time>2024-08-14T04:10:21Z</time>
      </trkpt>
      <trkpt lat="46.94877" lon="3.06596">
        <ele>165.4</ele>
        <time>2024-08-14T04:10:23Z</time>
      </trkpt>
      <trkpt lat="46.94891" lon="3.06572">
        <ele>165.4</ele>
        <time>2024-08-14T04:10:26Z</time>
      </trkpt>
      <trkpt lat="46.94906" lon="3.06537">
        <ele>165.4</ele>
        <time>2024-08-14T04:10:30Z</time>
      </trkpt>
      <trkpt lat="46.94911" lon="3.06529">
        <ele>165.4</ele>
        <time>2024-08-14T04:10:31Z</time>
      </trkpt>
      <trkpt lat="46.94941" lon="3.06465">
        <ele>165.6</ele>
        <time>2024-08-14T04:10:38Z</time>
      </trkpt>
      <trkpt lat="46.94944" lon="3.06458">
        <ele>165.6</ele>
        <time>2024-08-14T04:10:39Z</time>
      </trkpt>
      <trkpt lat="46.9496" lon="3.06423">
        <ele>165.6</ele>
        <time>2024-08-14T04:10:43Z</time>
      </trkpt>
      <trkpt lat="46.94993" lon="3.06356">
        <ele>165.4</ele>
        <time>2024-08-14T04:10:51Z</time>
      </trkpt>
      <trkpt lat="46.95025" lon="3.06286">
        <ele>165.6</ele>
        <time>2024-08-14T04:10:59Z</time>
      </trkpt>
      <trkpt lat="46.95057" lon="3.06217">
        <ele>165.6</ele>
        <time>2024-08-14T04:11:07Z</time>
      </trkpt>
      <trkpt lat="46.9506" lon="3.06208">
        <ele>165.6</ele>
        <time>2024-08-14T04:11:08Z</time>
      </trkpt>
      <trkpt lat="46.95084" lon="3.06157">
        <ele>165.6</ele>
        <time>2024-08-14T04:11:14Z</time>
      </trkpt>
      <trkpt lat="46.95114" lon="3.06088">
        <ele>165.4</ele>
        <time>2024-08-14T04:11:22Z</time>
      </trkpt>
      <trkpt lat="46.95125" lon="3.06072">
        <ele>165.4</ele>
        <time>2024-08-14T04:11:24Z</time>
      </trkpt>
      <trkpt lat="46.95136" lon="3.06048">
        <ele>165.4</ele>
        <time>2024-08-14T04:11:27Z</time>
      </trkpt>
      <trkpt lat="46.95145" lon="3.06034">
        <ele>165.4</ele>
        <time>2024-08-14T04:11:29Z</time>
      </trkpt>
      <trkpt lat="46.95152" lon="3.06021">
        <ele>165.4</ele>
        <time>2024-08-14T04:11:31Z</time>
      </trkpt>
      <trkpt lat="46.9517" lon="3.05992">
        <ele>165.4</ele>
        <time>2024-08-14T04:11:36Z</time>
      </trkpt>
      <trkpt lat="46.95172" lon="3.05987">
        <ele>165.4</ele>
        <time>2024-08-14T04:11:37Z</time>
      </trkpt>
      <trkpt lat="46.95179" lon="3.05976">
        <ele>165.6</ele>
        <time>2024-08-14T04:11:40Z</time>
      </trkpt>
      <trkpt lat="46.9518" lon="3.05972">
        <ele>166.6</ele>
        <time>2024-08-14T04:11:43Z</time>
      </trkpt>
      <trkpt lat="46.9518" lon="3.05972">
        <ele>167.2</ele>
        <time>2024-08-14T04:11:44Z</time>
      </trkpt>
      <trkpt lat="46.95178" lon="3.05967">
        <ele>167.6</ele>
        <time>2024-08-14T04:11:54Z</time>
      </trkpt>
      <trkpt lat="46.95175" lon="3.05963">
        <ele>167.6</ele>
        <time>2024-08-14T04:11:56Z</time>
      </trkpt>
      <trkpt lat="46.95164" lon="3.0595">
        <ele>167.8</ele>
        <time>2024-08-14T04:12:02Z</time>
      </trkpt>
      <trkpt lat="46.95155" lon="3.05939">
        <ele>167.8</ele>
        <time>2024-08-14T04:12:09Z</time>
      </trkpt>
      <trkpt lat="46.95155" lon="3.05939">
        <ele>167.8</ele>
        <time>2024-08-14T04:12:11Z</time>
      </trkpt>
      <trkpt lat="46.95159" lon="3.05944">
        <ele>167.6</ele>
        <time>2024-08-14T04:13:38Z</time>
      </trkpt>
      <trkpt lat="46.95161" lon="3.05946">
        <ele>167.6</ele>
        <time>2024-08-14T04:13:39Z</time>
      </trkpt>
      <trkpt lat="46.95162" lon="3.05947">
        <ele>167.6</ele>
        <time>2024-08-14T04:13:42Z</time>
      </trkpt>
      <trkpt lat="46.95164" lon="3.0595">
        <ele>167.8</ele>
        <time>2024-08-14T04:13:53Z</time>
      </trkpt>
      <trkpt lat="46.95177" lon="3.05967">
        <ele>167.8</ele>
        <time>2024-08-14T04:13:58Z</time>
      </trkpt>
      <trkpt lat="46.95184" lon="3.05972">
        <ele>168</ele>
        <time>2024-08-14T04:14:00Z</time>
      </trkpt>
      <trkpt lat="46.9519" lon="3.05969">
        <ele>168</ele>
        <time>2024-08-14T04:14:02Z</time>
      </trkpt>
      <trkpt lat="46.95201" lon="3.05956">
        <ele>167.8</ele>
        <time>2024-08-14T04:14:07Z</time>
      </trkpt>
      <trkpt lat="46.95204" lon="3.05955">
        <ele>167.4</ele>
        <time>2024-08-14T04:14:08Z</time>
      </trkpt>
      <trkpt lat="46.9521" lon="3.05951">
        <ele>166.4</ele>
        <time>2024-08-14T04:14:10Z</time>
      </trkpt>
      <trkpt lat="46.95214" lon="3.05948">
        <ele>166.4</ele>
        <time>2024-08-14T04:14:11Z</time>
      </trkpt>
      <trkpt lat="46.95218" lon="3.05946">
        <ele>165.8</ele>
        <time>2024-08-14T04:14:12Z</time>
      </trkpt>
      <trkpt lat="46.95223" lon="3.05944">
        <ele>165.4</ele>
        <time>2024-08-14T04:14:13Z</time>
      </trkpt>
      <trkpt lat="46.95227" lon="3.05943">
        <ele>165.4</ele>
        <time>2024-08-14T04:14:14Z</time>
      </trkpt>
      <trkpt lat="46.95231" lon="3.05942">
        <ele>165.4</ele>
        <time>2024-08-14T04:14:15Z</time>
      </trkpt>
      <trkpt lat="46.95244" lon="3.05938">
        <ele>165.2</ele>
        <time>2024-08-14T04:14:18Z</time>
      </trkpt>
      <trkpt lat="46.95259" lon="3.05938">
        <ele>165</ele>
        <time>2024-08-14T04:14:22Z</time>
      </trkpt>
      <trkpt lat="46.9527" lon="3.05933">
        <ele>165</ele>
        <time>2024-08-14T04:14:26Z</time>
      </trkpt>
      <trkpt lat="46.95288" lon="3.05929">
        <ele>165</ele>
        <time>2024-08-14T04:14:31Z</time>
      </trkpt>
      <trkpt lat="46.95308" lon="3.05926">
        <ele>165</ele>
        <time>2024-08-14T04:14:37Z</time>
      </trkpt>
      <trkpt lat="46.95329" lon="3.05924">
        <ele>164.8</ele>
        <time>2024-08-14T04:14:43Z</time>
      </trkpt>
      <trkpt lat="46.95355" lon="3.05921">
        <ele>165</ele>
        <time>2024-08-14T04:14:50Z</time>
      </trkpt>
      <trkpt lat="46.95392" lon="3.05917">
        <ele>165.2</ele>
        <time>2024-08-14T04:14:59Z</time>
      </trkpt>
      <trkpt lat="46.95409" lon="3.05915">
        <ele>165.2</ele>
        <time>2024-08-14T04:15:03Z</time>
      </trkpt>
      <trkpt lat="46.95426" lon="3.05915">
        <ele>165.4</ele>
        <time>2024-08-14T04:15:07Z</time>
      </trkpt>
      <trkpt lat="46.95457" lon="3.05914">
        <ele>165.4</ele>
        <time>2024-08-14T04:15:14Z</time>
      </trkpt>
      <trkpt lat="46.95491" lon="3.05908">
        <ele>165</ele>
        <time>2024-08-14T04:15:22Z</time>
      </trkpt>
      <trkpt lat="46.95511" lon="3.05903">
        <ele>165.6</ele>
        <time>2024-08-14T04:15:28Z</time>
      </trkpt>
      <trkpt lat="46.95512" lon="3.059">
        <ele>165.8</ele>
        <time>2024-08-14T04:15:29Z</time>
      </trkpt>
      <trkpt lat="46.95512" lon="3.05892">
        <ele>166</ele>
        <time>2024-08-14T04:15:31Z</time>
      </trkpt>
      <trkpt lat="46.95511" lon="3.05879">
        <ele>166.6</ele>
        <time>2024-08-14T04:15:34Z</time>
      </trkpt>
      <trkpt lat="46.95509" lon="3.05852">
        <ele>167.2</ele>
        <time>2024-08-14T04:15:38Z</time>
      </trkpt>
      <trkpt lat="46.95507" lon="3.05803">
        <ele>167</ele>
        <time>2024-08-14T04:15:43Z</time>
      </trkpt>
      <trkpt lat="46.95504" lon="3.05739">
        <ele>166</ele>
        <time>2024-08-14T04:15:50Z</time>
      </trkpt>
      <trkpt lat="46.95501" lon="3.0568">
        <ele>166.4</ele>
        <time>2024-08-14T04:15:57Z</time>
      </trkpt>
      <trkpt lat="46.955" lon="3.0564">
        <ele>167.6</ele>
        <time>2024-08-14T04:16:02Z</time>
      </trkpt>
      <trkpt lat="46.955" lon="3.05619">
        <ele>168.4</ele>
        <time>2024-08-14T04:16:05Z</time>
      </trkpt>
      <trkpt lat="46.95499" lon="3.05612">
        <ele>168.6</ele>
        <time>2024-08-14T04:16:06Z</time>
      </trkpt>
      <trkpt lat="46.95498" lon="3.05586">
        <ele>169.6</ele>
        <time>2024-08-14T04:16:10Z</time>
      </trkpt>
      <trkpt lat="46.95497" lon="3.05579">
        <ele>169.8</ele>
        <time>2024-08-14T04:16:11Z</time>
      </trkpt>
      <trkpt lat="46.95496" lon="3.05564">
        <ele>170.6</ele>
        <time>2024-08-14T04:16:14Z</time>
      </trkpt>
      <trkpt lat="46.95495" lon="3.05558">
        <ele>170.8</ele>
        <time>2024-08-14T04:16:15Z</time>
      </trkpt>
      <trkpt lat="46.95493" lon="3.05553">
        <ele>171</ele>
        <time>2024-08-14T04:16:16Z</time>
      </trkpt>
      <trkpt lat="46.9549" lon="3.05543">
        <ele>171.6</ele>
        <time>2024-08-14T04:16:18Z</time>
      </trkpt>
      <trkpt lat="46.95491" lon="3.05538">
        <ele>172.2</ele>
        <time>2024-08-14T04:16:19Z</time>
      </trkpt>
      <trkpt lat="46.95493" lon="3.05532">
        <ele>172.8</ele>
        <time>2024-08-14T04:16:20Z</time>
      </trkpt>
      <trkpt lat="46.95501" lon="3.05524">
        <ele>173.4</ele>
        <time>2024-08-14T04:16:22Z</time>
      </trkpt>
      <trkpt lat="46.95525" lon="3.05514">
        <ele>174.2</ele>
        <time>2024-08-14T04:16:27Z</time>
      </trkpt>
      <trkpt lat="46.95546" lon="3.0551">
        <ele>174.6</ele>
        <time>2024-08-14T04:16:31Z</time>
      </trkpt>
      <trkpt lat="46.95567" lon="3.05507">
        <ele>175.2</ele>
        <time>2024-08-14T04:16:35Z</time>
      </trkpt>
      <trkpt lat="46.95589" lon="3.05499">
        <ele>175.8</ele>
        <time>2024-08-14T04:16:39Z</time>
      </trkpt>
      <trkpt lat="46.9561" lon="3.05489">
        <ele>176.2</ele>
        <time>2024-08-14T04:16:43Z</time>
      </trkpt>
      <trkpt lat="46.95634" lon="3.05469">
        <ele>176.6</ele>
        <time>2024-08-14T04:16:48Z</time>
      </trkpt>
      <trkpt lat="46.95642" lon="3.0546">
        <ele>176.8</ele>
        <time>2024-08-14T04:16:50Z</time>
      </trkpt>
      <trkpt lat="46.95656" lon="3.05447">
        <ele>177.6</ele>
        <time>2024-08-14T04:16:53Z</time>
      </trkpt>
      <trkpt lat="46.9566" lon="3.05443">
        <ele>177.6</ele>
        <time>2024-08-14T04:16:54Z</time>
      </trkpt>
      <trkpt lat="46.95669" lon="3.05435">
        <ele>178</ele>
        <time>2024-08-14T04:16:56Z</time>
      </trkpt>
      <trkpt lat="46.95687" lon="3.05421">
        <ele>178.8</ele>
        <time>2024-08-14T04:17:00Z</time>
      </trkpt>
      <trkpt lat="46.95711" lon="3.05401">
        <ele>179.6</ele>
        <time>2024-08-14T04:17:05Z</time>
      </trkpt>
      <trkpt lat="46.95721" lon="3.05394">
        <ele>180</ele>
        <time>2024-08-14T04:17:07Z</time>
      </trkpt>
      <trkpt lat="46.95726" lon="3.0539">
        <ele>180</ele>
        <time>2024-08-14T04:17:08Z</time>
      </trkpt>
      <trkpt lat="46.95737" lon="3.05386">
        <ele>180.2</ele>
        <time>2024-08-14T04:17:10Z</time>
      </trkpt>
      <trkpt lat="46.95743" lon="3.05385">
        <ele>180.2</ele>
        <time>2024-08-14T04:17:11Z</time>
      </trkpt>
      <trkpt lat="46.95783" lon="3.05386">
        <ele>181.6</ele>
        <time>2024-08-14T04:17:17Z</time>
      </trkpt>
      <trkpt lat="46.95812" lon="3.05385">
        <ele>179.6</ele>
        <time>2024-08-14T04:17:21Z</time>
      </trkpt>
      <trkpt lat="46.95826" lon="3.0538">
        <ele>179.4</ele>
        <time>2024-08-14T04:17:23Z</time>
      </trkpt>
      <trkpt lat="46.95846" lon="3.05368">
        <ele>178.8</ele>
        <time>2024-08-14T04:17:26Z</time>
      </trkpt>
      <trkpt lat="46.95857" lon="3.05359">
        <ele>178.6</ele>
        <time>2024-08-14T04:17:28Z</time>
      </trkpt>
      <trkpt lat="46.95898" lon="3.05334">
        <ele>178.6</ele>
        <time>2024-08-14T04:17:35Z</time>
      </trkpt>
      <trkpt lat="46.9592" lon="3.05327">
        <ele>178.8</ele>
        <time>2024-08-14T04:17:39Z</time>
      </trkpt>
      <trkpt lat="46.95931" lon="3.05326">
        <ele>179.2</ele>
        <time>2024-08-14T04:17:41Z</time>
      </trkpt>
      <trkpt lat="46.95954" lon="3.05319">
        <ele>180</ele>
        <time>2024-08-14T04:17:45Z</time>
      </trkpt>
      <trkpt lat="46.95971" lon="3.05311">
        <ele>180.8</ele>
        <time>2024-08-14T04:17:48Z</time>
      </trkpt>
      <trkpt lat="46.95989" lon="3.05302">
        <ele>181</ele>
        <time>2024-08-14T04:17:51Z</time>
      </trkpt>
      <trkpt lat="46.96027" lon="3.05283">
        <ele>181.4</ele>
        <time>2024-08-14T04:17:57Z</time>
      </trkpt>
      <trkpt lat="46.96071" lon="3.05262">
        <ele>181</ele>
        <time>2024-08-14T04:18:03Z</time>
      </trkpt>
      <trkpt lat="46.96115" lon="3.0524">
        <ele>179.8</ele>
        <time>2024-08-14T04:18:09Z</time>
      </trkpt>
      <trkpt lat="46.96122" lon="3.05237">
        <ele>179.6</ele>
        <time>2024-08-14T04:18:10Z</time>
      </trkpt>
      <trkpt lat="46.96172" lon="3.05214">
        <ele>179.4</ele>
        <time>2024-08-14T04:18:17Z</time>
      </trkpt>
      <trkpt lat="46.96212" lon="3.052">
        <ele>179.8</ele>
        <time>2024-08-14T04:18:23Z</time>
      </trkpt>
      <trkpt lat="46.96252" lon="3.05183">
        <ele>180.4</ele>
        <time>2024-08-14T04:18:29Z</time>
      </trkpt>
      <trkpt lat="46.96258" lon="3.05178">
        <ele>180.4</ele>
        <time>2024-08-14T04:18:30Z</time>
      </trkpt>
      <trkpt lat="46.96264" lon="3.05172">
        <ele>180.4</ele>
        <time>2024-08-14T04:18:31Z</time>
      </trkpt>
      <trkpt lat="46.96276" lon="3.05161">
        <ele>180.4</ele>
        <time>2024-08-14T04:18:33Z</time>
      </trkpt>
      <trkpt lat="46.96283" lon="3.05157">
        <ele>180.4</ele>
        <time>2024-08-14T04:18:34Z</time>
      </trkpt>
      <trkpt lat="46.9629" lon="3.05154">
        <ele>180.4</ele>
        <time>2024-08-14T04:18:35Z</time>
      </trkpt>
      <trkpt lat="46.9632" lon="3.05149">
        <ele>180.4</ele>
        <time>2024-08-14T04:18:39Z</time>
      </trkpt>
      <trkpt lat="46.96356" lon="3.05135">
        <ele>180.2</ele>
        <time>2024-08-14T04:18:44Z</time>
      </trkpt>
      <trkpt lat="46.96412" lon="3.05102">
        <ele>179.8</ele>
        <time>2024-08-14T04:18:52Z</time>
      </trkpt>
      <trkpt lat="46.96427" lon="3.05094">
        <ele>179.6</ele>
        <time>2024-08-14T04:18:54Z</time>
      </trkpt>
      <trkpt lat="46.96466" lon="3.0508">
        <ele>180</ele>
        <time>2024-08-14T04:19:00Z</time>
      </trkpt>
      <trkpt lat="46.96486" lon="3.05074">
        <ele>180</ele>
        <time>2024-08-14T04:19:03Z</time>
      </trkpt>
      <trkpt lat="46.96505" lon="3.05067">
        <ele>180.4</ele>
        <time>2024-08-14T04:19:06Z</time>
      </trkpt>
      <trkpt lat="46.9655" lon="3.05057">
        <ele>180.4</ele>
        <time>2024-08-14T04:19:12Z</time>
      </trkpt>
      <trkpt lat="46.96601" lon="3.05042">
        <ele>180.2</ele>
        <time>2024-08-14T04:19:19Z</time>
      </trkpt>
      <trkpt lat="46.96637" lon="3.05023">
        <ele>179.8</ele>
        <time>2024-08-14T04:19:24Z</time>
      </trkpt>
      <trkpt lat="46.96643" lon="3.05017">
        <ele>180</ele>
        <time>2024-08-14T04:19:25Z</time>
      </trkpt>
      <trkpt lat="46.96649" lon="3.05011">
        <ele>180</ele>
        <time>2024-08-14T04:19:26Z</time>
      </trkpt>
      <trkpt lat="46.9667" lon="3.04982">
        <ele>180</ele>
        <time>2024-08-14T04:19:30Z</time>
      </trkpt>
      <trkpt lat="46.96697" lon="3.04938">
        <ele>180</ele>
        <time>2024-08-14T04:19:36Z</time>
      </trkpt>
      <trkpt lat="46.96702" lon="3.04932">
        <ele>180</ele>
        <time>2024-08-14T04:19:37Z</time>
      </trkpt>
      <trkpt lat="46.96731" lon="3.04891">
        <ele>180.6</ele>
        <time>2024-08-14T04:19:43Z</time>
      </trkpt>
      <trkpt lat="46.96736" lon="3.04886">
        <ele>180.6</ele>
        <time>2024-08-14T04:19:44Z</time>
      </trkpt>
      <trkpt lat="46.96742" lon="3.04881">
        <ele>180.8</ele>
        <time>2024-08-14T04:19:45Z</time>
      </trkpt>
      <trkpt lat="46.96747" lon="3.04877">
        <ele>181</ele>
        <time>2024-08-14T04:19:46Z</time>
      </trkpt>
      <trkpt lat="46.96753" lon="3.04874">
        <ele>181.2</ele>
        <time>2024-08-14T04:19:47Z</time>
      </trkpt>
      <trkpt lat="46.96759" lon="3.04871">
        <ele>181.2</ele>
        <time>2024-08-14T04:19:48Z</time>
      </trkpt>
      <trkpt lat="46.96786" lon="3.04865">
        <ele>181.8</ele>
        <time>2024-08-14T04:19:52Z</time>
      </trkpt>
      <trkpt lat="46.96833" lon="3.04854">
        <ele>181.6</ele>
        <time>2024-08-14T04:19:58Z</time>
      </trkpt>
      <trkpt lat="46.9688" lon="3.0484">
        <ele>180.4</ele>
        <time>2024-08-14T04:20:03Z</time>
      </trkpt>
      <trkpt lat="46.96901" lon="3.04833">
        <ele>179.6</ele>
        <time>2024-08-14T04:20:05Z</time>
      </trkpt>
      <trkpt lat="46.96923" lon="3.04825">
        <ele>178.2</ele>
        <time>2024-08-14T04:20:07Z</time>
      </trkpt>
      <trkpt lat="46.96934" lon="3.04822">
        <ele>177.6</ele>
        <time>2024-08-14T04:20:08Z</time>
      </trkpt>
      <trkpt lat="46.96946" lon="3.04818">
        <ele>176.6</ele>
        <time>2024-08-14T04:20:09Z</time>
      </trkpt>
      <trkpt lat="46.96968" lon="3.0481">
        <ele>175.2</ele>
        <time>2024-08-14T04:20:11Z</time>
      </trkpt>
      <trkpt lat="46.96989" lon="3.04803">
        <ele>173.8</ele>
        <time>2024-08-14T04:20:13Z</time>
      </trkpt>
      <trkpt lat="46.97009" lon="3.04796">
        <ele>172.4</ele>
        <time>2024-08-14T04:20:15Z</time>
      </trkpt>
      <trkpt lat="46.97018" lon="3.04792">
        <ele>172</ele>
        <time>2024-08-14T04:20:16Z</time>
      </trkpt>
      <trkpt lat="46.97074" lon="3.04777">
        <ele>171.6</ele>
        <time>2024-08-14T04:20:22Z</time>
      </trkpt>
      <trkpt lat="46.97083" lon="3.04776">
        <ele>171.4</ele>
        <time>2024-08-14T04:20:23Z</time>
      </trkpt>
      <trkpt lat="46.97129" lon="3.04773">
        <ele>171</ele>
        <time>2024-08-14T04:20:28Z</time>
      </trkpt>
      <trkpt lat="46.97158" lon="3.04765">
        <ele>171</ele>
        <time>2024-08-14T04:20:32Z</time>
      </trkpt>
      <trkpt lat="46.97175" lon="3.04757">
        <ele>171.4</ele>
        <time>2024-08-14T04:20:35Z</time>
      </trkpt>
      <trkpt lat="46.9718" lon="3.04753">
        <ele>172</ele>
        <time>2024-08-14T04:20:36Z</time>
      </trkpt>
      <trkpt lat="46.9719" lon="3.04746">
        <ele>172.6</ele>
        <time>2024-08-14T04:20:38Z</time>
      </trkpt>
      <trkpt lat="46.97204" lon="3.04737">
        <ele>173.8</ele>
        <time>2024-08-14T04:20:41Z</time>
      </trkpt>
      <trkpt lat="46.97209" lon="3.04733">
        <ele>174.4</ele>
        <time>2024-08-14T04:20:42Z</time>
      </trkpt>
      <trkpt lat="46.97217" lon="3.04727">
        <ele>175</ele>
        <time>2024-08-14T04:20:44Z</time>
      </trkpt>
      <trkpt lat="46.97229" lon="3.04717">
        <ele>176</ele>
        <time>2024-08-14T04:20:47Z</time>
      </trkpt>
      <trkpt lat="46.97237" lon="3.0471">
        <ele>176.4</ele>
        <time>2024-08-14T04:20:49Z</time>
      </trkpt>
      <trkpt lat="46.97241" lon="3.04707">
        <ele>177.2</ele>
        <time>2024-08-14T04:20:50Z</time>
      </trkpt>
      <trkpt lat="46.97252" lon="3.04699">
        <ele>178.4</ele>
        <time>2024-08-14T04:20:53Z</time>
      </trkpt>
      <trkpt lat="46.97255" lon="3.04695">
        <ele>179</ele>
        <time>2024-08-14T04:20:54Z</time>
      </trkpt>
      <trkpt lat="46.9726" lon="3.04689">
        <ele>179.6</ele>
        <time>2024-08-14T04:20:56Z</time>
      </trkpt>
      <trkpt lat="46.97271" lon="3.04678">
        <ele>180.8</ele>
        <time>2024-08-14T04:21:00Z</time>
      </trkpt>
      <trkpt lat="46.97282" lon="3.04666">
        <ele>182</ele>
        <time>2024-08-14T04:21:04Z</time>
      </trkpt>
      <trkpt lat="46.9729" lon="3.04657">
        <ele>183</ele>
        <time>2024-08-14T04:21:07Z</time>
      </trkpt>
      <trkpt lat="46.97296" lon="3.04652">
        <ele>184</ele>
        <time>2024-08-14T04:21:09Z</time>
      </trkpt>
      <trkpt lat="46.97299" lon="3.04649">
        <ele>184.2</ele>
        <time>2024-08-14T04:21:10Z</time>
      </trkpt>
      <trkpt lat="46.9731" lon="3.04635">
        <ele>185.6</ele>
        <time>2024-08-14T04:21:14Z</time>
      </trkpt>
      <trkpt lat="46.97322" lon="3.04619">
        <ele>186.2</ele>
        <time>2024-08-14T04:21:18Z</time>
      </trkpt>
      <trkpt lat="46.97324" lon="3.04616">
        <ele>186.8</ele>
        <time>2024-08-14T04:21:19Z</time>
      </trkpt>
      <trkpt lat="46.97335" lon="3.0459">
        <ele>187.8</ele>
        <time>2024-08-14T04:21:24Z</time>
      </trkpt>
      <trkpt lat="46.97349" lon="3.04554">
        <ele>188.6</ele>
        <time>2024-08-14T04:21:30Z</time>
      </trkpt>
      <trkpt lat="46.97358" lon="3.04527">
        <ele>188.8</ele>
        <time>2024-08-14T04:21:34Z</time>
      </trkpt>
      <trkpt lat="46.97368" lon="3.045">
        <ele>189.2</ele>
        <time>2024-08-14T04:21:38Z</time>
      </trkpt>
      <trkpt lat="46.97371" lon="3.04493">
        <ele>189.2</ele>
        <time>2024-08-14T04:21:39Z</time>
      </trkpt>
      <trkpt lat="46.97389" lon="3.04461">
        <ele>189.6</ele>
        <time>2024-08-14T04:21:44Z</time>
      </trkpt>
      <trkpt lat="46.97426" lon="3.04401">
        <ele>189.8</ele>
        <time>2024-08-14T04:21:53Z</time>
      </trkpt>
      <trkpt lat="46.97431" lon="3.04393">
        <ele>189.8</ele>
        <time>2024-08-14T04:21:54Z</time>
      </trkpt>
      <trkpt lat="46.9745" lon="3.0437">
        <ele>189.6</ele>
        <time>2024-08-14T04:21:58Z</time>
      </trkpt>
      <trkpt lat="46.97458" lon="3.04366">
        <ele>189.6</ele>
        <time>2024-08-14T04:21:59Z</time>
      </trkpt>
      <trkpt lat="46.97489" lon="3.04356">
        <ele>189.6</ele>
        <time>2024-08-14T04:22:04Z</time>
      </trkpt>
      <trkpt lat="46.97516" lon="3.04354">
        <ele>189.6</ele>
        <time>2024-08-14T04:22:08Z</time>
      </trkpt>
      <trkpt lat="46.97535" lon="3.04358">
        <ele>190</ele>
        <time>2024-08-14T04:22:11Z</time>
      </trkpt>
      <trkpt lat="46.97561" lon="3.0437">
        <ele>190.4</ele>
        <time>2024-08-14T04:22:15Z</time>
      </trkpt>
      <trkpt lat="46.97571" lon="3.04377">
        <ele>190.6</ele>
        <time>2024-08-14T04:22:17Z</time>
      </trkpt>
      <trkpt lat="46.9761" lon="3.04416">
        <ele>191</ele>
        <time>2024-08-14T04:22:24Z</time>
      </trkpt>
      <trkpt lat="46.97646" lon="3.04444">
        <ele>191</ele>
        <time>2024-08-14T04:22:30Z</time>
      </trkpt>
      <trkpt lat="46.97695" lon="3.04478">
        <ele>190.4</ele>
        <time>2024-08-14T04:22:37Z</time>
      </trkpt>
      <trkpt lat="46.97737" lon="3.045">
        <ele>190</ele>
        <time>2024-08-14T04:22:43Z</time>
      </trkpt>
      <trkpt lat="46.97759" lon="3.04508">
        <ele>189.8</ele>
        <time>2024-08-14T04:22:46Z</time>
      </trkpt>
      <trkpt lat="46.97818" lon="3.04532">
        <ele>189.4</ele>
        <time>2024-08-14T04:22:54Z</time>
      </trkpt>
      <trkpt lat="46.97827" lon="3.04535">
        <ele>189.2</ele>
        <time>2024-08-14T04:22:55Z</time>
      </trkpt>
      <trkpt lat="46.97857" lon="3.04544">
        <ele>188.6</ele>
        <time>2024-08-14T04:22:59Z</time>
      </trkpt>
      <trkpt lat="46.97882" lon="3.0455">
        <ele>188.2</ele>
        <time>2024-08-14T04:23:02Z</time>
      </trkpt>
      <trkpt lat="46.97901" lon="3.04551">
        <ele>187.6</ele>
        <time>2024-08-14T04:23:04Z</time>
      </trkpt>
      <trkpt lat="46.97935" lon="3.04552">
        <ele>186.8</ele>
        <time>2024-08-14T04:23:08Z</time>
      </trkpt>
      <trkpt lat="46.97945" lon="3.04552">
        <ele>186.6</ele>
        <time>2024-08-14T04:23:09Z</time>
      </trkpt>
      <trkpt lat="46.97964" lon="3.0455">
        <ele>185.2</ele>
        <time>2024-08-14T04:23:11Z</time>
      </trkpt>
      <trkpt lat="46.97984" lon="3.04545">
        <ele>184.6</ele>
        <time>2024-08-14T04:23:13Z</time>
      </trkpt>
      <trkpt lat="46.98003" lon="3.04539">
        <ele>184</ele>
        <time>2024-08-14T04:23:15Z</time>
      </trkpt>
      <trkpt lat="46.98041" lon="3.04526">
        <ele>183</ele>
        <time>2024-08-14T04:23:19Z</time>
      </trkpt>
      <trkpt lat="46.98069" lon="3.04516">
        <ele>182</ele>
        <time>2024-08-14T04:23:22Z</time>
      </trkpt>
      <trkpt lat="46.98076" lon="3.04513">
        <ele>181.8</ele>
        <time>2024-08-14T04:23:23Z</time>
      </trkpt>
      <trkpt lat="46.98122" lon="3.04498">
        <ele>181</ele>
        <time>2024-08-14T04:23:28Z</time>
      </trkpt>
      <trkpt lat="46.9813" lon="3.04495">
        <ele>180.6</ele>
        <time>2024-08-14T04:23:29Z</time>
      </trkpt>
      <trkpt lat="46.98169" lon="3.04481">
        <ele>179.4</ele>
        <time>2024-08-14T04:23:33Z</time>
      </trkpt>
      <trkpt lat="46.98187" lon="3.04473">
        <ele>178.8</ele>
        <time>2024-08-14T04:23:35Z</time>
      </trkpt>
      <trkpt lat="46.98199" lon="3.04469">
        <ele>178.4</ele>
        <time>2024-08-14T04:23:36Z</time>
      </trkpt>
      <trkpt lat="46.98216" lon="3.04463">
        <ele>177</ele>
        <time>2024-08-14T04:23:38Z</time>
      </trkpt>
      <trkpt lat="46.98235" lon="3.04458">
        <ele>176.6</ele>
        <time>2024-08-14T04:23:40Z</time>
      </trkpt>
      <trkpt lat="46.98244" lon="3.04458">
        <ele>176.4</ele>
        <time>2024-08-14T04:23:41Z</time>
      </trkpt>
      <trkpt lat="46.98255" lon="3.04459">
        <ele>176.2</ele>
        <time>2024-08-14T04:23:42Z</time>
      </trkpt>
      <trkpt lat="46.98269" lon="3.04465">
        <ele>176.2</ele>
        <time>2024-08-14T04:23:44Z</time>
      </trkpt>
      <trkpt lat="46.98278" lon="3.0447">
        <ele>176.2</ele>
        <time>2024-08-14T04:23:45Z</time>
      </trkpt>
      <trkpt lat="46.98291" lon="3.0448">
        <ele>176.4</ele>
        <time>2024-08-14T04:23:47Z</time>
      </trkpt>
      <trkpt lat="46.98296" lon="3.04487">
        <ele>176.4</ele>
        <time>2024-08-14T04:23:48Z</time>
      </trkpt>
      <trkpt lat="46.98321" lon="3.04528">
        <ele>177.2</ele>
        <time>2024-08-14T04:23:53Z</time>
      </trkpt>
      <trkpt lat="46.98332" lon="3.04546">
        <ele>177.4</ele>
        <time>2024-08-14T04:23:55Z</time>
      </trkpt>
      <trkpt lat="46.98344" lon="3.04561">
        <ele>177.8</ele>
        <time>2024-08-14T04:23:57Z</time>
      </trkpt>
      <trkpt lat="46.98359" lon="3.04574">
        <ele>177.8</ele>
        <time>2024-08-14T04:23:59Z</time>
      </trkpt>
      <trkpt lat="46.98374" lon="3.04581">
        <ele>177.8</ele>
        <time>2024-08-14T04:24:01Z</time>
      </trkpt>
      <trkpt lat="46.98418" lon="3.04592">
        <ele>176.6</ele>
        <time>2024-08-14T04:24:06Z</time>
      </trkpt>
      <trkpt lat="46.98445" lon="3.04595">
        <ele>176</ele>
        <time>2024-08-14T04:24:09Z</time>
      </trkpt>
      <trkpt lat="46.9848" lon="3.046">
        <ele>175.6</ele>
        <time>2024-08-14T04:24:13Z</time>
      </trkpt>
      <trkpt lat="46.98513" lon="3.04603">
        <ele>175.8</ele>
        <time>2024-08-14T04:24:18Z</time>
      </trkpt>
      <trkpt lat="46.98553" lon="3.0461">
        <ele>176.8</ele>
        <time>2024-08-14T04:24:24Z</time>
      </trkpt>
      <trkpt lat="46.98567" lon="3.04612">
        <ele>177</ele>
        <time>2024-08-14T04:24:26Z</time>
      </trkpt>
      <trkpt lat="46.98626" lon="3.04621">
        <ele>177.4</ele>
        <time>2024-08-14T04:24:34Z</time>
      </trkpt>
      <trkpt lat="46.98684" lon="3.04629">
        <ele>176.8</ele>
        <time>2024-08-14T04:24:42Z</time>
      </trkpt>
      <trkpt lat="46.98738" lon="3.04638">
        <ele>176.4</ele>
        <time>2024-08-14T04:24:49Z</time>
      </trkpt>
      <trkpt lat="46.98762" lon="3.04642">
        <ele>175.8</ele>
        <time>2024-08-14T04:24:52Z</time>
      </trkpt>
      <trkpt lat="46.98823" lon="3.04651">
        <ele>175</ele>
        <time>2024-08-14T04:25:00Z</time>
      </trkpt>
      <trkpt lat="46.98838" lon="3.04654">
        <ele>174.8</ele>
        <time>2024-08-14T04:25:02Z</time>
      </trkpt>
      <trkpt lat="46.98893" lon="3.04662">
        <ele>174</ele>
        <time>2024-08-14T04:25:09Z</time>
      </trkpt>
      <trkpt lat="46.98909" lon="3.04665">
        <ele>173.8</ele>
        <time>2024-08-14T04:25:11Z</time>
      </trkpt>
      <trkpt lat="46.98918" lon="3.04667">
        <ele>173.6</ele>
        <time>2024-08-14T04:25:12Z</time>
      </trkpt>
      <trkpt lat="46.98968" lon="3.04675">
        <ele>172.4</ele>
        <time>2024-08-14T04:25:18Z</time>
      </trkpt>
      <trkpt lat="46.98977" lon="3.04676">
        <ele>172.2</ele>
        <time>2024-08-14T04:25:19Z</time>
      </trkpt>
      <trkpt lat="46.9903" lon="3.04686">
        <ele>171.6</ele>
        <time>2024-08-14T04:25:26Z</time>
      </trkpt>
      <trkpt lat="46.9908" lon="3.04694">
        <ele>172</ele>
        <time>2024-08-14T04:25:33Z</time>
      </trkpt>
      <trkpt lat="46.9914" lon="3.04704">
        <ele>172.4</ele>
        <time>2024-08-14T04:25:41Z</time>
      </trkpt>
      <trkpt lat="46.99147" lon="3.04706">
        <ele>172.4</ele>
        <time>2024-08-14T04:25:42Z</time>
      </trkpt>
      <trkpt lat="46.99208" lon="3.04715">
        <ele>172.2</ele>
        <time>2024-08-14T04:25:50Z</time>
      </trkpt>
      <trkpt lat="46.99222" lon="3.04717">
        <ele>172.2</ele>
        <time>2024-08-14T04:25:52Z</time>
      </trkpt>
      <trkpt lat="46.99279" lon="3.04726">
        <ele>172.2</ele>
        <time>2024-08-14T04:26:00Z</time>
      </trkpt>
      <trkpt lat="46.99319" lon="3.04733">
        <ele>172.8</ele>
        <time>2024-08-14T04:26:06Z</time>
      </trkpt>
      <trkpt lat="46.99345" lon="3.04734">
        <ele>173</ele>
        <time>2024-08-14T04:26:10Z</time>
      </trkpt>
      <trkpt lat="46.99358" lon="3.0473">
        <ele>173.2</ele>
        <time>2024-08-14T04:26:12Z</time>
      </trkpt>
      <trkpt lat="46.99364" lon="3.04727">
        <ele>173.6</ele>
        <time>2024-08-14T04:26:13Z</time>
      </trkpt>
      <trkpt lat="46.99377" lon="3.04721">
        <ele>174</ele>
        <time>2024-08-14T04:26:15Z</time>
      </trkpt>
      <trkpt lat="46.99389" lon="3.04712">
        <ele>174.2</ele>
        <time>2024-08-14T04:26:17Z</time>
      </trkpt>
      <trkpt lat="46.99432" lon="3.04662">
        <ele>174.6</ele>
        <time>2024-08-14T04:26:25Z</time>
      </trkpt>
      <trkpt lat="46.99476" lon="3.04609">
        <ele>174.4</ele>
        <time>2024-08-14T04:26:33Z</time>
      </trkpt>
      <trkpt lat="46.99482" lon="3.04602">
        <ele>174.4</ele>
        <time>2024-08-14T04:26:34Z</time>
      </trkpt>
      <trkpt lat="46.99528" lon="3.04548">
        <ele>174.2</ele>
        <time>2024-08-14T04:26:42Z</time>
      </trkpt>
      <trkpt lat="46.99533" lon="3.04542">
        <ele>174.2</ele>
        <time>2024-08-14T04:26:43Z</time>
      </trkpt>
      <trkpt lat="46.9958" lon="3.04488">
        <ele>174</ele>
        <time>2024-08-14T04:26:51Z</time>
      </trkpt>
      <trkpt lat="46.99591" lon="3.04475">
        <ele>174</ele>
        <time>2024-08-14T04:26:53Z</time>
      </trkpt>
      <trkpt lat="46.99635" lon="3.04421">
        <ele>174.2</ele>
        <time>2024-08-14T04:27:01Z</time>
      </trkpt>
      <trkpt lat="46.9965" lon="3.04398">
        <ele>174.4</ele>
        <time>2024-08-14T04:27:04Z</time>
      </trkpt>
      <trkpt lat="46.99679" lon="3.04345">
        <ele>174.2</ele>
        <time>2024-08-14T04:27:10Z</time>
      </trkpt>
      <trkpt lat="46.99694" lon="3.04316">
        <ele>173.6</ele>
        <time>2024-08-14T04:27:13Z</time>
      </trkpt>
      <trkpt lat="46.99722" lon="3.04258">
        <ele>172.4</ele>
        <time>2024-08-14T04:27:19Z</time>
      </trkpt>
      <trkpt lat="46.99745" lon="3.04218">
        <ele>172</ele>
        <time>2024-08-14T04:27:24Z</time>
      </trkpt>
      <trkpt lat="46.99777" lon="3.0418">
        <ele>172.4</ele>
        <time>2024-08-14T04:27:30Z</time>
      </trkpt>
      <trkpt lat="46.99789" lon="3.04169">
        <ele>172.6</ele>
        <time>2024-08-14T04:27:32Z</time>
      </trkpt>
      <trkpt lat="46.99815" lon="3.0415">
        <ele>173</ele>
        <time>2024-08-14T04:27:36Z</time>
      </trkpt>
      <trkpt lat="46.99834" lon="3.04137">
        <ele>173.6</ele>
        <time>2024-08-14T04:27:39Z</time>
      </trkpt>
      <trkpt lat="46.99873" lon="3.0411">
        <ele>173.8</ele>
        <time>2024-08-14T04:27:45Z</time>
      </trkpt>
      <trkpt lat="46.99924" lon="3.04074">
        <ele>174.2</ele>
        <time>2024-08-14T04:27:53Z</time>
      </trkpt>
      <trkpt lat="46.99957" lon="3.04051">
        <ele>174.2</ele>
        <time>2024-08-14T04:27:58Z</time>
      </trkpt>
      <trkpt lat="47.00007" lon="3.04015">
        <ele>174.2</ele>
        <time>2024-08-14T04:28:06Z</time>
      </trkpt>
      <trkpt lat="47.00013" lon="3.04011">
        <ele>174.2</ele>
        <time>2024-08-14T04:28:07Z</time>
      </trkpt>
      <trkpt lat="47.00037" lon="3.03993">
        <ele>174.6</ele>
        <time>2024-08-14T04:28:11Z</time>
      </trkpt>
      <trkpt lat="47.00067" lon="3.03972">
        <ele>175</ele>
        <time>2024-08-14T04:28:16Z</time>
      </trkpt>
      <trkpt lat="47.0012" lon="3.03932">
        <ele>175.6</ele>
        <time>2024-08-14T04:28:25Z</time>
      </trkpt>
      <trkpt lat="47.00125" lon="3.03928">
        <ele>175.6</ele>
        <time>2024-08-14T04:28:26Z</time>
      </trkpt>
      <trkpt lat="47.00173" lon="3.03898">
        <ele>176</ele>
        <time>2024-08-14T04:28:34Z</time>
      </trkpt>
      <trkpt lat="47.00228" lon="3.03885">
        <ele>176</ele>
        <time>2024-08-14T04:28:42Z</time>
      </trkpt>
      <trkpt lat="47.00277" lon="3.03865">
        <ele>175.8</ele>
        <time>2024-08-14T04:28:49Z</time>
      </trkpt>
      <trkpt lat="47.00332" lon="3.03839">
        <ele>175.2</ele>
        <time>2024-08-14T04:28:57Z</time>
      </trkpt>
      <trkpt lat="47.00353" lon="3.0383">
        <ele>174.8</ele>
        <time>2024-08-14T04:29:00Z</time>
      </trkpt>
      <trkpt lat="47.00383" lon="3.03825">
        <ele>174.6</ele>
        <time>2024-08-14T04:29:04Z</time>
      </trkpt>
      <trkpt lat="47.004" lon="3.03825">
        <ele>174.2</ele>
        <time>2024-08-14T04:29:06Z</time>
      </trkpt>
      <trkpt lat="47.00433" lon="3.03829">
        <ele>173.4</ele>
        <time>2024-08-14T04:29:10Z</time>
      </trkpt>
      <trkpt lat="47.00464" lon="3.03833">
        <ele>172.4</ele>
        <time>2024-08-14T04:29:14Z</time>
      </trkpt>
      <trkpt lat="47.00497" lon="3.03839">
        <ele>172.4</ele>
        <time>2024-08-14T04:29:19Z</time>
      </trkpt>
      <trkpt lat="47.00531" lon="3.03843">
        <ele>173.8</ele>
        <time>2024-08-14T04:29:25Z</time>
      </trkpt>
      <trkpt lat="47.00548" lon="3.03844">
        <ele>174.2</ele>
        <time>2024-08-14T04:29:28Z</time>
      </trkpt>
      <trkpt lat="47.00572" lon="3.03844">
        <ele>174.6</ele>
        <time>2024-08-14T04:29:32Z</time>
      </trkpt>
      <trkpt lat="47.00591" lon="3.03841">
        <ele>174.8</ele>
        <time>2024-08-14T04:29:35Z</time>
      </trkpt>
      <trkpt lat="47.00603" lon="3.03839">
        <ele>175</ele>
        <time>2024-08-14T04:29:37Z</time>
      </trkpt>
      <trkpt lat="47.00638" lon="3.03827">
        <ele>175.2</ele>
        <time>2024-08-14T04:29:43Z</time>
      </trkpt>
      <trkpt lat="47.00645" lon="3.03824">
        <ele>175.4</ele>
        <time>2024-08-14T04:29:44Z</time>
      </trkpt>
      <trkpt lat="47.00664" lon="3.03815">
        <ele>175.4</ele>
        <time>2024-08-14T04:29:47Z</time>
      </trkpt>
      <trkpt lat="47.00678" lon="3.03807">
        <ele>175.4</ele>
        <time>2024-08-14T04:29:49Z</time>
      </trkpt>
      <trkpt lat="47.00691" lon="3.03798">
        <ele>175.6</ele>
        <time>2024-08-14T04:29:51Z</time>
      </trkpt>
      <trkpt lat="47.00733" lon="3.03757">
        <ele>175.4</ele>
        <time>2024-08-14T04:29:58Z</time>
      </trkpt>
      <trkpt lat="47.00745" lon="3.03748">
        <ele>175.6</ele>
        <time>2024-08-14T04:30:00Z</time>
      </trkpt>
      <trkpt lat="47.00758" lon="3.03742">
        <ele>175.4</ele>
        <time>2024-08-14T04:30:02Z</time>
      </trkpt>
      <trkpt lat="47.00797" lon="3.03741">
        <ele>174.8</ele>
        <time>2024-08-14T04:30:07Z</time>
      </trkpt>
      <trkpt lat="47.00857" lon="3.03742">
        <ele>174.2</ele>
        <time>2024-08-14T04:30:15Z</time>
      </trkpt>
      <trkpt lat="47.00912" lon="3.03743">
        <ele>173.6</ele>
        <time>2024-08-14T04:30:22Z</time>
      </trkpt>
      <trkpt lat="47.00925" lon="3.03744">
        <ele>173.4</ele>
        <time>2024-08-14T04:30:24Z</time>
      </trkpt>
      <trkpt lat="47.00983" lon="3.03745">
        <ele>173.8</ele>
        <time>2024-08-14T04:30:32Z</time>
      </trkpt>
      <trkpt lat="47.00988" lon="3.03745">
        <ele>173.8</ele>
        <time>2024-08-14T04:30:33Z</time>
      </trkpt>
      <trkpt lat="47.01045" lon="3.03745">
        <ele>174</ele>
        <time>2024-08-14T04:30:41Z</time>
      </trkpt>
      <trkpt lat="47.01058" lon="3.03745">
        <ele>174</ele>
        <time>2024-08-14T04:30:43Z</time>
      </trkpt>
      <trkpt lat="47.01116" lon="3.03744">
        <ele>173.4</ele>
        <time>2024-08-14T04:30:51Z</time>
      </trkpt>
      <trkpt lat="47.01121" lon="3.03744">
        <ele>173.4</ele>
        <time>2024-08-14T04:30:52Z</time>
      </trkpt>
      <trkpt lat="47.01137" lon="3.03744">
        <ele>172.8</ele>
        <time>2024-08-14T04:30:54Z</time>
      </trkpt>
      <trkpt lat="47.01151" lon="3.03747">
        <ele>172.4</ele>
        <time>2024-08-14T04:30:56Z</time>
      </trkpt>
      <trkpt lat="47.01158" lon="3.0375">
        <ele>172.4</ele>
        <time>2024-08-14T04:30:57Z</time>
      </trkpt>
      <trkpt lat="47.01172" lon="3.03761">
        <ele>172</ele>
        <time>2024-08-14T04:30:59Z</time>
      </trkpt>
      <trkpt lat="47.01179" lon="3.03763">
        <ele>171.8</ele>
        <time>2024-08-14T04:31:00Z</time>
      </trkpt>
      <trkpt lat="47.01185" lon="3.03761">
        <ele>171.6</ele>
        <time>2024-08-14T04:31:01Z</time>
      </trkpt>
      <trkpt lat="47.012" lon="3.03754">
        <ele>171.4</ele>
        <time>2024-08-14T04:31:03Z</time>
      </trkpt>
      <trkpt lat="47.01231" lon="3.03751">
        <ele>170.8</ele>
        <time>2024-08-14T04:31:07Z</time>
      </trkpt>
      <trkpt lat="47.01238" lon="3.0375">
        <ele>170.8</ele>
        <time>2024-08-14T04:31:08Z</time>
      </trkpt>
      <trkpt lat="47.01286" lon="3.03748">
        <ele>169.8</ele>
        <time>2024-08-14T04:31:14Z</time>
      </trkpt>
      <trkpt lat="47.01295" lon="3.03746">
        <ele>169.6</ele>
        <time>2024-08-14T04:31:15Z</time>
      </trkpt>
      <trkpt lat="47.01305" lon="3.03743">
        <ele>169.4</ele>
        <time>2024-08-14T04:31:16Z</time>
      </trkpt>
      <trkpt lat="47.01321" lon="3.03736">
        <ele>168.8</ele>
        <time>2024-08-14T04:31:18Z</time>
      </trkpt>
      <trkpt lat="47.0133" lon="3.0373">
        <ele>168.4</ele>
        <time>2024-08-14T04:31:19Z</time>
      </trkpt>
      <trkpt lat="47.01356" lon="3.03708">
        <ele>167.4</ele>
        <time>2024-08-14T04:31:22Z</time>
      </trkpt>
      <trkpt lat="47.01364" lon="3.03701">
        <ele>167</ele>
        <time>2024-08-14T04:31:23Z</time>
      </trkpt>
      <trkpt lat="47.01387" lon="3.03681">
        <ele>166</ele>
        <time>2024-08-14T04:31:26Z</time>
      </trkpt>
      <trkpt lat="47.01417" lon="3.03659">
        <ele>165.2</ele>
        <time>2024-08-14T04:31:30Z</time>
      </trkpt>
      <trkpt lat="47.01451" lon="3.03643">
        <ele>165.6</ele>
        <time>2024-08-14T04:31:35Z</time>
      </trkpt>
      <trkpt lat="47.01476" lon="3.03632">
        <ele>166.8</ele>
        <time>2024-08-14T04:31:40Z</time>
      </trkpt>
      <trkpt lat="47.01481" lon="3.0363">
        <ele>167.4</ele>
        <time>2024-08-14T04:31:41Z</time>
      </trkpt>
      <trkpt lat="47.01495" lon="3.03623">
        <ele>168.6</ele>
        <time>2024-08-14T04:31:44Z</time>
      </trkpt>
      <trkpt lat="47.01499" lon="3.0362">
        <ele>168.8</ele>
        <time>2024-08-14T04:31:45Z</time>
      </trkpt>
      <trkpt lat="47.01508" lon="3.03614">
        <ele>169.4</ele>
        <time>2024-08-14T04:31:47Z</time>
      </trkpt>
      <trkpt lat="47.01514" lon="3.03609">
        <ele>170</ele>
        <time>2024-08-14T04:31:48Z</time>
      </trkpt>
      <trkpt lat="47.01524" lon="3.036">
        <ele>170.6</ele>
        <time>2024-08-14T04:31:50Z</time>
      </trkpt>
      <trkpt lat="47.01533" lon="3.03593">
        <ele>171</ele>
        <time>2024-08-14T04:31:52Z</time>
      </trkpt>
      <trkpt lat="47.01555" lon="3.03574">
        <ele>171.4</ele>
        <time>2024-08-14T04:31:56Z</time>
      </trkpt>
      <trkpt lat="47.01594" lon="3.03539">
        <ele>171.2</ele>
        <time>2024-08-14T04:32:02Z</time>
      </trkpt>
      <trkpt lat="47.01642" lon="3.03498">
        <ele>170</ele>
        <time>2024-08-14T04:32:08Z</time>
      </trkpt>
      <trkpt lat="47.01649" lon="3.03492">
        <ele>169.8</ele>
        <time>2024-08-14T04:32:09Z</time>
      </trkpt>
      <trkpt lat="47.01676" lon="3.03469">
        <ele>168.4</ele>
        <time>2024-08-14T04:32:12Z</time>
      </trkpt>
      <trkpt lat="47.017" lon="3.03449">
        <ele>167.2</ele>
        <time>2024-08-14T04:32:15Z</time>
      </trkpt>
      <trkpt lat="47.01736" lon="3.0342">
        <ele>166.4</ele>
        <time>2024-08-14T04:32:20Z</time>
      </trkpt>
      <trkpt lat="47.01764" lon="3.03395">
        <ele>166.8</ele>
        <time>2024-08-14T04:32:25Z</time>
      </trkpt>
      <trkpt lat="47.01789" lon="3.03376">
        <ele>168.2</ele>
        <time>2024-08-14T04:32:30Z</time>
      </trkpt>
      <trkpt lat="47.01813" lon="3.03356">
        <ele>169.2</ele>
        <time>2024-08-14T04:32:35Z</time>
      </trkpt>
      <trkpt lat="47.01817" lon="3.03353">
        <ele>169.4</ele>
        <time>2024-08-14T04:32:36Z</time>
      </trkpt>
      <trkpt lat="47.01839" lon="3.03333">
        <ele>170.4</ele>
        <time>2024-08-14T04:32:41Z</time>
      </trkpt>
      <trkpt lat="47.01858" lon="3.03317">
        <ele>171.2</ele>
        <time>2024-08-14T04:32:45Z</time>
      </trkpt>
      <trkpt lat="47.01873" lon="3.03307">
        <ele>171.6</ele>
        <time>2024-08-14T04:32:48Z</time>
      </trkpt>
      <trkpt lat="47.01892" lon="3.03292">
        <ele>172.2</ele>
        <time>2024-08-14T04:32:52Z</time>
      </trkpt>
      <trkpt lat="47.01896" lon="3.03288">
        <ele>172.4</ele>
        <time>2024-08-14T04:32:53Z</time>
      </trkpt>
      <trkpt lat="47.019" lon="3.03284">
        <ele>172.6</ele>
        <time>2024-08-14T04:32:54Z</time>
      </trkpt>
      <trkpt lat="47.01936" lon="3.03252">
        <ele>173.6</ele>
        <time>2024-08-14T04:33:01Z</time>
      </trkpt>
      <trkpt lat="47.01951" lon="3.0324">
        <ele>174</ele>
        <time>2024-08-14T04:33:04Z</time>
      </trkpt>
      <trkpt lat="47.01998" lon="3.03201">
        <ele>174.2</ele>
        <time>2024-08-14T04:33:13Z</time>
      </trkpt>
      <trkpt lat="47.02046" lon="3.0316">
        <ele>174.4</ele>
        <time>2024-08-14T04:33:22Z</time>
      </trkpt>
      <trkpt lat="47.02052" lon="3.03154">
        <ele>174.6</ele>
        <time>2024-08-14T04:33:23Z</time>
      </trkpt>
      <trkpt lat="47.02083" lon="3.03132">
        <ele>174.6</ele>
        <time>2024-08-14T04:33:28Z</time>
      </trkpt>
      <trkpt lat="47.02119" lon="3.0312">
        <ele>173.8</ele>
        <time>2024-08-14T04:33:32Z</time>
      </trkpt>
      <trkpt lat="47.02141" lon="3.0312">
        <ele>173</ele>
        <time>2024-08-14T04:33:34Z</time>
      </trkpt>
      <trkpt lat="47.0216" lon="3.03123">
        <ele>172</ele>
        <time>2024-08-14T04:33:36Z</time>
      </trkpt>
      <trkpt lat="47.02172" lon="3.03125">
        <ele>171.4</ele>
        <time>2024-08-14T04:33:37Z</time>
      </trkpt>
      <trkpt lat="47.02191" lon="3.0313">
        <ele>170.2</ele>
        <time>2024-08-14T04:33:39Z</time>
      </trkpt>
      <trkpt lat="47.02206" lon="3.03135">
        <ele>169.8</ele>
        <time>2024-08-14T04:33:41Z</time>
      </trkpt>
      <trkpt lat="47.02234" lon="3.03142">
        <ele>169.6</ele>
        <time>2024-08-14T04:33:45Z</time>
      </trkpt>
      <trkpt lat="47.0226" lon="3.03148">
        <ele>170.8</ele>
        <time>2024-08-14T04:33:50Z</time>
      </trkpt>
      <trkpt lat="47.02266" lon="3.03149">
        <ele>171.4</ele>
        <time>2024-08-14T04:33:51Z</time>
      </trkpt>
      <trkpt lat="47.02287" lon="3.03151">
        <ele>172.6</ele>
        <time>2024-08-14T04:33:55Z</time>
      </trkpt>
      <trkpt lat="47.02299" lon="3.03152">
        <ele>173.4</ele>
        <time>2024-08-14T04:33:57Z</time>
      </trkpt>
      <trkpt lat="47.02305" lon="3.03152">
        <ele>173.8</ele>
        <time>2024-08-14T04:33:58Z</time>
      </trkpt>
      <trkpt lat="47.02345" lon="3.03149">
        <ele>174.2</ele>
        <time>2024-08-14T04:34:04Z</time>
      </trkpt>
      <trkpt lat="47.02395" lon="3.03144">
        <ele>173.6</ele>
        <time>2024-08-14T04:34:11Z</time>
      </trkpt>
      <trkpt lat="47.02439" lon="3.0314">
        <ele>172.6</ele>
        <time>2024-08-14T04:34:17Z</time>
      </trkpt>
      <trkpt lat="47.02446" lon="3.03139">
        <ele>172.4</ele>
        <time>2024-08-14T04:34:18Z</time>
      </trkpt>
      <trkpt lat="47.02464" lon="3.03146">
        <ele>171.6</ele>
        <time>2024-08-14T04:34:21Z</time>
      </trkpt>
      <trkpt lat="47.0247" lon="3.03145">
        <ele>171.4</ele>
        <time>2024-08-14T04:34:22Z</time>
      </trkpt>
      <trkpt lat="47.02483" lon="3.03139">
        <ele>171.2</ele>
        <time>2024-08-14T04:34:24Z</time>
      </trkpt>
      <trkpt lat="47.0251" lon="3.03139">
        <ele>170.8</ele>
        <time>2024-08-14T04:34:29Z</time>
      </trkpt>
      <trkpt lat="47.02541" lon="3.03145">
        <ele>171.6</ele>
        <time>2024-08-14T04:34:35Z</time>
      </trkpt>
      <trkpt lat="47.02561" lon="3.03149">
        <ele>172.6</ele>
        <time>2024-08-14T04:34:39Z</time>
      </trkpt>
      <trkpt lat="47.02584" lon="3.03157">
        <ele>173.2</ele>
        <time>2024-08-14T04:34:43Z</time>
      </trkpt>
      <trkpt lat="47.02621" lon="3.03171">
        <ele>173.6</ele>
        <time>2024-08-14T04:34:49Z</time>
      </trkpt>
      <trkpt lat="47.02665" lon="3.03184">
        <ele>173</ele>
        <time>2024-08-14T04:34:55Z</time>
      </trkpt>
      <trkpt lat="47.02681" lon="3.03183">
        <ele>172.6</ele>
        <time>2024-08-14T04:34:57Z</time>
      </trkpt>
      <trkpt lat="47.02698" lon="3.03178">
        <ele>172</ele>
        <time>2024-08-14T04:34:59Z</time>
      </trkpt>
      <trkpt lat="47.02706" lon="3.03174">
        <ele>171.6</ele>
        <time>2024-08-14T04:35:00Z</time>
      </trkpt>
      <trkpt lat="47.02721" lon="3.03161">
        <ele>171</ele>
        <time>2024-08-14T04:35:02Z</time>
      </trkpt>
      <trkpt lat="47.02741" lon="3.03134">
        <ele>170.2</ele>
        <time>2024-08-14T04:35:05Z</time>
      </trkpt>
      <trkpt lat="47.02754" lon="3.03116">
        <ele>169.4</ele>
        <time>2024-08-14T04:35:07Z</time>
      </trkpt>
      <trkpt lat="47.02759" lon="3.03107">
        <ele>168.6</ele>
        <time>2024-08-14T04:35:08Z</time>
      </trkpt>
      <trkpt lat="47.02782" lon="3.03074">
        <ele>167.4</ele>
        <time>2024-08-14T04:35:12Z</time>
      </trkpt>
      <trkpt lat="47.02788" lon="3.03066">
        <ele>167.2</ele>
        <time>2024-08-14T04:35:13Z</time>
      </trkpt>
      <trkpt lat="47.02817" lon="3.03026">
        <ele>167.2</ele>
        <time>2024-08-14T04:35:19Z</time>
      </trkpt>
      <trkpt lat="47.02827" lon="3.03009">
        <ele>167.8</ele>
        <time>2024-08-14T04:35:22Z</time>
      </trkpt>
      <trkpt lat="47.02836" lon="3.03002">
        <ele>168.2</ele>
        <time>2024-08-14T04:35:24Z</time>
      </trkpt>
      <trkpt lat="47.02841" lon="3.03002">
        <ele>168.4</ele>
        <time>2024-08-14T04:35:25Z</time>
      </trkpt>
      <trkpt lat="47.02847" lon="3.03002">
        <ele>168.8</ele>
        <time>2024-08-14T04:35:26Z</time>
      </trkpt>
      <trkpt lat="47.02859" lon="3.03005">
        <ele>169.2</ele>
        <time>2024-08-14T04:35:28Z</time>
      </trkpt>
      <trkpt lat="47.02871" lon="3.03004">
        <ele>169.6</ele>
        <time>2024-08-14T04:35:30Z</time>
      </trkpt>
      <trkpt lat="47.02883" lon="3.03003">
        <ele>170</ele>
        <time>2024-08-14T04:35:32Z</time>
      </trkpt>
      <trkpt lat="47.02889" lon="3.03003">
        <ele>170</ele>
        <time>2024-08-14T04:35:33Z</time>
      </trkpt>
      <trkpt lat="47.02921" lon="3.03001">
        <ele>170.6</ele>
        <time>2024-08-14T04:35:38Z</time>
      </trkpt>
      <trkpt lat="47.02939" lon="3.03">
        <ele>171</ele>
        <time>2024-08-14T04:35:41Z</time>
      </trkpt>
      <trkpt lat="47.0299" lon="3.02996">
        <ele>171.8</ele>
        <time>2024-08-14T04:35:49Z</time>
      </trkpt>
      <trkpt lat="47.02994" lon="3.02996">
        <ele>172</ele>
        <time>2024-08-14T04:35:50Z</time>
      </trkpt>
      <trkpt lat="47.03053" lon="3.02993">
        <ele>172.4</ele>
        <time>2024-08-14T04:35:59Z</time>
      </trkpt>
      <trkpt lat="47.03109" lon="3.02987">
        <ele>172.2</ele>
        <time>2024-08-14T04:36:07Z</time>
      </trkpt>
      <trkpt lat="47.03129" lon="3.02984">
        <ele>172.2</ele>
        <time>2024-08-14T04:36:10Z</time>
      </trkpt>
      <trkpt lat="47.0315" lon="3.02986">
        <ele>172.2</ele>
        <time>2024-08-14T04:36:13Z</time>
      </trkpt>
      <trkpt lat="47.03197" lon="3.02983">
        <ele>171.8</ele>
        <time>2024-08-14T04:36:19Z</time>
      </trkpt>
      <trkpt lat="47.03252" lon="3.0298">
        <ele>171</ele>
        <time>2024-08-14T04:36:26Z</time>
      </trkpt>
      <trkpt lat="47.03266" lon="3.0298">
        <ele>170.8</ele>
        <time>2024-08-14T04:36:28Z</time>
      </trkpt>
      <trkpt lat="47.03276" lon="3.02979">
        <ele>170.6</ele>
        <time>2024-08-14T04:36:29Z</time>
      </trkpt>
      <trkpt lat="47.03326" lon="3.02977">
        <ele>170.4</ele>
        <time>2024-08-14T04:36:36Z</time>
      </trkpt>
      <trkpt lat="47.03381" lon="3.02984">
        <ele>171</ele>
        <time>2024-08-14T04:36:44Z</time>
      </trkpt>
      <trkpt lat="47.03388" lon="3.02986">
        <ele>171.4</ele>
        <time>2024-08-14T04:36:45Z</time>
      </trkpt>
      <trkpt lat="47.03417" lon="3.02995">
        <ele>171.6</ele>
        <time>2024-08-14T04:36:49Z</time>
      </trkpt>
      <trkpt lat="47.03443" lon="3.03008">
        <ele>171.6</ele>
        <time>2024-08-14T04:36:53Z</time>
      </trkpt>
      <trkpt lat="47.03497" lon="3.03041">
        <ele>171.6</ele>
        <time>2024-08-14T04:37:01Z</time>
      </trkpt>
      <trkpt lat="47.03504" lon="3.03046">
        <ele>171.6</ele>
        <time>2024-08-14T04:37:02Z</time>
      </trkpt>
      <trkpt lat="47.03551" lon="3.03086">
        <ele>171.2</ele>
        <time>2024-08-14T04:37:09Z</time>
      </trkpt>
      <trkpt lat="47.03572" lon="3.03105">
        <ele>171</ele>
        <time>2024-08-14T04:37:12Z</time>
      </trkpt>
      <trkpt lat="47.03607" lon="3.03132">
        <ele>170.4</ele>
        <time>2024-08-14T04:37:17Z</time>
      </trkpt>
      <trkpt lat="47.03626" lon="3.03145">
        <ele>170.4</ele>
        <time>2024-08-14T04:37:20Z</time>
      </trkpt>
      <trkpt lat="47.03678" lon="3.03171">
        <ele>170</ele>
        <time>2024-08-14T04:37:27Z</time>
      </trkpt>
      <trkpt lat="47.03691" lon="3.03176">
        <ele>170</ele>
        <time>2024-08-14T04:37:29Z</time>
      </trkpt>
      <trkpt lat="47.03749" lon="3.03189">
        <ele>170.2</ele>
        <time>2024-08-14T04:37:37Z</time>
      </trkpt>
      <trkpt lat="47.03806" lon="3.03192">
        <ele>170.2</ele>
        <time>2024-08-14T04:37:45Z</time>
      </trkpt>
      <trkpt lat="47.03867" lon="3.03196">
        <ele>169.8</ele>
        <time>2024-08-14T04:37:53Z</time>
      </trkpt>
      <trkpt lat="47.03892" lon="3.03198">
        <ele>169.4</ele>
        <time>2024-08-14T04:37:56Z</time>
      </trkpt>
      <trkpt lat="47.039" lon="3.03198">
        <ele>169.4</ele>
        <time>2024-08-14T04:37:57Z</time>
      </trkpt>
      <trkpt lat="47.03961" lon="3.03195">
        <ele>168.2</ele>
        <time>2024-08-14T04:38:04Z</time>
      </trkpt>
      <trkpt lat="47.03988" lon="3.03188">
        <ele>167</ele>
        <time>2024-08-14T04:38:07Z</time>
      </trkpt>
      <trkpt lat="47.04025" lon="3.03178">
        <ele>165.8</ele>
        <time>2024-08-14T04:38:11Z</time>
      </trkpt>
      <trkpt lat="47.04044" lon="3.03173">
        <ele>165.2</ele>
        <time>2024-08-14T04:38:13Z</time>
      </trkpt>
      <trkpt lat="47.04053" lon="3.0317">
        <ele>164.6</ele>
        <time>2024-08-14T04:38:14Z</time>
      </trkpt>
      <trkpt lat="47.04093" lon="3.03151">
        <ele>163.8</ele>
        <time>2024-08-14T04:38:19Z</time>
      </trkpt>
      <trkpt lat="47.04121" lon="3.03127">
        <ele>163.6</ele>
        <time>2024-08-14T04:38:23Z</time>
      </trkpt>
      <trkpt lat="47.04128" lon="3.0312">
        <ele>163.4</ele>
        <time>2024-08-14T04:38:24Z</time>
      </trkpt>
      <trkpt lat="47.04172" lon="3.03074">
        <ele>163.4</ele>
        <time>2024-08-14T04:38:31Z</time>
      </trkpt>
      <trkpt lat="47.04184" lon="3.03061">
        <ele>163.4</ele>
        <time>2024-08-14T04:38:33Z</time>
      </trkpt>
      <trkpt lat="47.04234" lon="3.03019">
        <ele>163.6</ele>
        <time>2024-08-14T04:38:41Z</time>
      </trkpt>
      <trkpt lat="47.0424" lon="3.03014">
        <ele>163.6</ele>
        <time>2024-08-14T04:38:42Z</time>
      </trkpt>
      <trkpt lat="47.04293" lon="3.02982">
        <ele>164</ele>
        <time>2024-08-14T04:38:50Z</time>
      </trkpt>
      <trkpt lat="47.04307" lon="3.02973">
        <ele>164</ele>
        <time>2024-08-14T04:38:52Z</time>
      </trkpt>
      <trkpt lat="47.04361" lon="3.02942">
        <ele>163.8</ele>
        <time>2024-08-14T04:39:00Z</time>
      </trkpt>
      <trkpt lat="47.04383" lon="3.02933">
        <ele>163.6</ele>
        <time>2024-08-14T04:39:03Z</time>
      </trkpt>
      <trkpt lat="47.04424" lon="3.02918">
        <ele>163.6</ele>
        <time>2024-08-14T04:39:09Z</time>
      </trkpt>
      <trkpt lat="47.04481" lon="3.02901">
        <ele>163.2</ele>
        <time>2024-08-14T04:39:17Z</time>
      </trkpt>
      <trkpt lat="47.04516" lon="3.02889">
        <ele>163.6</ele>
        <time>2024-08-14T04:39:23Z</time>
      </trkpt>
      <trkpt lat="47.04545" lon="3.0288">
        <ele>164.8</ele>
        <time>2024-08-14T04:39:28Z</time>
      </trkpt>
      <trkpt lat="47.04562" lon="3.02875">
        <ele>165.4</ele>
        <time>2024-08-14T04:39:31Z</time>
      </trkpt>
      <trkpt lat="47.04567" lon="3.02874">
        <ele>165.8</ele>
        <time>2024-08-14T04:39:32Z</time>
      </trkpt>
      <trkpt lat="47.04608" lon="3.0286">
        <ele>166.8</ele>
        <time>2024-08-14T04:39:39Z</time>
      </trkpt>
      <trkpt lat="47.04621" lon="3.02857">
        <ele>167</ele>
        <time>2024-08-14T04:39:41Z</time>
      </trkpt>
      <trkpt lat="47.04676" lon="3.02839">
        <ele>167.2</ele>
        <time>2024-08-14T04:39:49Z</time>
      </trkpt>
      <trkpt lat="47.04683" lon="3.02837">
        <ele>167.2</ele>
        <time>2024-08-14T04:39:50Z</time>
      </trkpt>
      <trkpt lat="47.04737" lon="3.02821">
        <ele>167.4</ele>
        <time>2024-08-14T04:39:58Z</time>
      </trkpt>
      <trkpt lat="47.04743" lon="3.0282">
        <ele>167.4</ele>
        <time>2024-08-14T04:39:59Z</time>
      </trkpt>
      <trkpt lat="47.04798" lon="3.02802">
        <ele>167.4</ele>
        <time>2024-08-14T04:40:07Z</time>
      </trkpt>
      <trkpt lat="47.04819" lon="3.02795">
        <ele>167.2</ele>
        <time>2024-08-14T04:40:10Z</time>
      </trkpt>
      <trkpt lat="47.04872" lon="3.0277">
        <ele>167.2</ele>
        <time>2024-08-14T04:40:18Z</time>
      </trkpt>
      <trkpt lat="47.04887" lon="3.02761">
        <ele>167</ele>
        <time>2024-08-14T04:40:20Z</time>
      </trkpt>
      <trkpt lat="47.04931" lon="3.0273">
        <ele>167</ele>
        <time>2024-08-14T04:40:27Z</time>
      </trkpt>
      <trkpt lat="47.04982" lon="3.02691">
        <ele>167</ele>
        <time>2024-08-14T04:40:35Z</time>
      </trkpt>
      <trkpt lat="47.04993" lon="3.02682">
        <ele>167</ele>
        <time>2024-08-14T04:40:37Z</time>
      </trkpt>
      <trkpt lat="47.05046" lon="3.02646">
        <ele>167</ele>
        <time>2024-08-14T04:40:45Z</time>
      </trkpt>
      <trkpt lat="47.05098" lon="3.02615">
        <ele>167</ele>
        <time>2024-08-14T04:40:53Z</time>
      </trkpt>
      <trkpt lat="47.05106" lon="3.0261">
        <ele>167</ele>
        <time>2024-08-14T04:40:54Z</time>
      </trkpt>
      <trkpt lat="47.05158" lon="3.02578">
        <ele>167</ele>
        <time>2024-08-14T04:41:02Z</time>
      </trkpt>
      <trkpt lat="47.05173" lon="3.02569">
        <ele>167</ele>
        <time>2024-08-14T04:41:04Z</time>
      </trkpt>
      <trkpt lat="47.05216" lon="3.02536">
        <ele>166.4</ele>
        <time>2024-08-14T04:41:11Z</time>
      </trkpt>
      <trkpt lat="47.05255" lon="3.02489">
        <ele>165.8</ele>
        <time>2024-08-14T04:41:18Z</time>
      </trkpt>
      <trkpt lat="47.0526" lon="3.02481">
        <ele>165.6</ele>
        <time>2024-08-14T04:41:19Z</time>
      </trkpt>
      <trkpt lat="47.05282" lon="3.02437">
        <ele>165.2</ele>
        <time>2024-08-14T04:41:24Z</time>
      </trkpt>
      <trkpt lat="47.05304" lon="3.02379">
        <ele>164.6</ele>
        <time>2024-08-14T04:41:30Z</time>
      </trkpt>
      <trkpt lat="47.05311" lon="3.0236">
        <ele>164.4</ele>
        <time>2024-08-14T04:41:32Z</time>
      </trkpt>
      <trkpt lat="47.05339" lon="3.02284">
        <ele>163.8</ele>
        <time>2024-08-14T04:41:40Z</time>
      </trkpt>
      <trkpt lat="47.05355" lon="3.02248">
        <ele>163.8</ele>
        <time>2024-08-14T04:41:44Z</time>
      </trkpt>
      <trkpt lat="47.05378" lon="3.02207">
        <ele>163.6</ele>
        <time>2024-08-14T04:41:49Z</time>
      </trkpt>
      <trkpt lat="47.05383" lon="3.02199">
        <ele>163.6</ele>
        <time>2024-08-14T04:41:50Z</time>
      </trkpt>
      <trkpt lat="47.05423" lon="3.02153">
        <ele>163.4</ele>
        <time>2024-08-14T04:41:57Z</time>
      </trkpt>
      <trkpt lat="47.05464" lon="3.02126">
        <ele>163.2</ele>
        <time>2024-08-14T04:42:03Z</time>
      </trkpt>
      <trkpt lat="47.05521" lon="3.02105">
        <ele>162.6</ele>
        <time>2024-08-14T04:42:11Z</time>
      </trkpt>
      <trkpt lat="47.05528" lon="3.02102">
        <ele>162.6</ele>
        <time>2024-08-14T04:42:12Z</time>
      </trkpt>
      <trkpt lat="47.05581" lon="3.02079">
        <ele>162</ele>
        <time>2024-08-14T04:42:19Z</time>
      </trkpt>
      <trkpt lat="47.05586" lon="3.02076">
        <ele>162</ele>
        <time>2024-08-14T04:42:20Z</time>
      </trkpt>
      <trkpt lat="47.05616" lon="3.02043">
        <ele>161.6</ele>
        <time>2024-08-14T04:42:25Z</time>
      </trkpt>
      <trkpt lat="47.05622" lon="3.02036">
        <ele>161.4</ele>
        <time>2024-08-14T04:42:26Z</time>
      </trkpt>
      <trkpt lat="47.05647" lon="3.02004">
        <ele>161.4</ele>
        <time>2024-08-14T04:42:31Z</time>
      </trkpt>
      <trkpt lat="47.05664" lon="3.01986">
        <ele>161.4</ele>
        <time>2024-08-14T04:42:35Z</time>
      </trkpt>
      <trkpt lat="47.05668" lon="3.01984">
        <ele>161.4</ele>
        <time>2024-08-14T04:42:36Z</time>
      </trkpt>
      <trkpt lat="47.05673" lon="3.01981">
        <ele>161.6</ele>
        <time>2024-08-14T04:42:37Z</time>
      </trkpt>
      <trkpt lat="47.05678" lon="3.01972">
        <ele>161.8</ele>
        <time>2024-08-14T04:42:39Z</time>
      </trkpt>
      <trkpt lat="47.05678" lon="3.01958">
        <ele>162.2</ele>
        <time>2024-08-14T04:42:41Z</time>
      </trkpt>
      <trkpt lat="47.05677" lon="3.01949">
        <ele>162.4</ele>
        <time>2024-08-14T04:42:42Z</time>
      </trkpt>
      <trkpt lat="47.05676" lon="3.01942">
        <ele>162.6</ele>
        <time>2024-08-14T04:42:43Z</time>
      </trkpt>
      <trkpt lat="47.0567" lon="3.0191">
        <ele>163</ele>
        <time>2024-08-14T04:42:47Z</time>
      </trkpt>
      <trkpt lat="47.05664" lon="3.01876">
        <ele>163.4</ele>
        <time>2024-08-14T04:42:51Z</time>
      </trkpt>
      <trkpt lat="47.05664" lon="3.0187">
        <ele>163.4</ele>
        <time>2024-08-14T04:42:52Z</time>
      </trkpt>
      <trkpt lat="47.05666" lon="3.01862">
        <ele>163.6</ele>
        <time>2024-08-14T04:42:53Z</time>
      </trkpt>
      <trkpt lat="47.0567" lon="3.01855">
        <ele>163.8</ele>
        <time>2024-08-14T04:42:54Z</time>
      </trkpt>
      <trkpt lat="47.05674" lon="3.01852">
        <ele>163.8</ele>
        <time>2024-08-14T04:42:55Z</time>
      </trkpt>
      <trkpt lat="47.05696" lon="3.01839">
        <ele>164.2</ele>
        <time>2024-08-14T04:42:59Z</time>
      </trkpt>
      <trkpt lat="47.05701" lon="3.01836">
        <ele>164.2</ele>
        <time>2024-08-14T04:43:00Z</time>
      </trkpt>
      <trkpt lat="47.05744" lon="3.01816">
        <ele>164.6</ele>
        <time>2024-08-14T04:43:07Z</time>
      </trkpt>
      <trkpt lat="47.05752" lon="3.01812">
        <ele>164.8</ele>
        <time>2024-08-14T04:43:08Z</time>
      </trkpt>
      <trkpt lat="47.05808" lon="3.01784">
        <ele>165</ele>
        <time>2024-08-14T04:43:17Z</time>
      </trkpt>
      <trkpt lat="47.05861" lon="3.01756">
        <ele>165</ele>
        <time>2024-08-14T04:43:25Z</time>
      </trkpt>
      <trkpt lat="47.05868" lon="3.01753">
        <ele>164.8</ele>
        <time>2024-08-14T04:43:26Z</time>
      </trkpt>
      <trkpt lat="47.05923" lon="3.01722">
        <ele>164.6</ele>
        <time>2024-08-14T04:43:34Z</time>
      </trkpt>
      <trkpt lat="47.0598" lon="3.01691">
        <ele>163.8</ele>
        <time>2024-08-14T04:43:42Z</time>
      </trkpt>
      <trkpt lat="47.05985" lon="3.01688">
        <ele>163.8</ele>
        <time>2024-08-14T04:43:43Z</time>
      </trkpt>
      <trkpt lat="47.06007" lon="3.01675">
        <ele>163.4</ele>
        <time>2024-08-14T04:43:46Z</time>
      </trkpt>
      <trkpt lat="47.06013" lon="3.01673">
        <ele>163.2</ele>
        <time>2024-08-14T04:43:47Z</time>
      </trkpt>
      <trkpt lat="47.06048" lon="3.01653">
        <ele>163.2</ele>
        <time>2024-08-14T04:43:52Z</time>
      </trkpt>
      <trkpt lat="47.06099" lon="3.01626">
        <ele>163.4</ele>
        <time>2024-08-14T04:44:00Z</time>
      </trkpt>
      <trkpt lat="47.06124" lon="3.01615">
        <ele>163.6</ele>
        <time>2024-08-14T04:44:04Z</time>
      </trkpt>
      <trkpt lat="47.06132" lon="3.01614">
        <ele>163.6</ele>
        <time>2024-08-14T04:44:05Z</time>
      </trkpt>
      <trkpt lat="47.06154" lon="3.01618">
        <ele>163.8</ele>
        <time>2024-08-14T04:44:08Z</time>
      </trkpt>
      <trkpt lat="47.06168" lon="3.01624">
        <ele>163.8</ele>
        <time>2024-08-14T04:44:10Z</time>
      </trkpt>
      <trkpt lat="47.06215" lon="3.01653">
        <ele>163.4</ele>
        <time>2024-08-14T04:44:17Z</time>
      </trkpt>
      <trkpt lat="47.06224" lon="3.01656">
        <ele>163.2</ele>
        <time>2024-08-14T04:44:18Z</time>
      </trkpt>
      <trkpt lat="47.06245" lon="3.01659">
        <ele>162.8</ele>
        <time>2024-08-14T04:44:21Z</time>
      </trkpt>
      <trkpt lat="47.06261" lon="3.01658">
        <ele>162.6</ele>
        <time>2024-08-14T04:44:23Z</time>
      </trkpt>
      <trkpt lat="47.0628" lon="3.01655">
        <ele>162.6</ele>
        <time>2024-08-14T04:44:26Z</time>
      </trkpt>
      <trkpt lat="47.06312" lon="3.01647">
        <ele>163</ele>
        <time>2024-08-14T04:44:31Z</time>
      </trkpt>
      <trkpt lat="47.06356" lon="3.01623">
        <ele>163.4</ele>
        <time>2024-08-14T04:44:38Z</time>
      </trkpt>
      <trkpt lat="47.06367" lon="3.01615">
        <ele>163.8</ele>
        <time>2024-08-14T04:44:40Z</time>
      </trkpt>
      <trkpt lat="47.06381" lon="3.01607">
        <ele>163.8</ele>
        <time>2024-08-14T04:44:42Z</time>
      </trkpt>
      <trkpt lat="47.06399" lon="3.01593">
        <ele>163.8</ele>
        <time>2024-08-14T04:44:45Z</time>
      </trkpt>
      <trkpt lat="47.06434" lon="3.01569">
        <ele>164.2</ele>
        <time>2024-08-14T04:44:51Z</time>
      </trkpt>
      <trkpt lat="47.06482" lon="3.01538">
        <ele>164.6</ele>
        <time>2024-08-14T04:44:59Z</time>
      </trkpt>
      <trkpt lat="47.06511" lon="3.01523">
        <ele>164.8</ele>
        <time>2024-08-14T04:45:04Z</time>
      </trkpt>
      <trkpt lat="47.06528" lon="3.01513">
        <ele>165</ele>
        <time>2024-08-14T04:45:07Z</time>
      </trkpt>
      <trkpt lat="47.06582" lon="3.01479">
        <ele>165</ele>
        <time>2024-08-14T04:45:16Z</time>
      </trkpt>
      <trkpt lat="47.06636" lon="3.01451">
        <ele>165</ele>
        <time>2024-08-14T04:45:25Z</time>
      </trkpt>
      <trkpt lat="47.06688" lon="3.01433">
        <ele>165</ele>
        <time>2024-08-14T04:45:33Z</time>
      </trkpt>
      <trkpt lat="47.06736" lon="3.01407">
        <ele>165</ele>
        <time>2024-08-14T04:45:41Z</time>
      </trkpt>
      <trkpt lat="47.06742" lon="3.01403">
        <ele>165</ele>
        <time>2024-08-14T04:45:42Z</time>
      </trkpt>
      <trkpt lat="47.06765" lon="3.01389">
        <ele>165</ele>
        <time>2024-08-14T04:45:46Z</time>
      </trkpt>
      <trkpt lat="47.06799" lon="3.01364">
        <ele>164.8</ele>
        <time>2024-08-14T04:45:52Z</time>
      </trkpt>
      <trkpt lat="47.06804" lon="3.0136">
        <ele>164.6</ele>
        <time>2024-08-14T04:45:53Z</time>
      </trkpt>
      <trkpt lat="47.06809" lon="3.01359">
        <ele>164.6</ele>
        <time>2024-08-14T04:45:54Z</time>
      </trkpt>
      <trkpt lat="47.06813" lon="3.01362">
        <ele>164.6</ele>
        <time>2024-08-14T04:45:55Z</time>
      </trkpt>
      <trkpt lat="47.06817" lon="3.01367">
        <ele>164.6</ele>
        <time>2024-08-14T04:45:56Z</time>
      </trkpt>
      <trkpt lat="47.06824" lon="3.01386">
        <ele>164.4</ele>
        <time>2024-08-14T04:45:59Z</time>
      </trkpt>
      <trkpt lat="47.06829" lon="3.01398">
        <ele>164.2</ele>
        <time>2024-08-14T04:46:01Z</time>
      </trkpt>
      <trkpt lat="47.06836" lon="3.01405">
        <ele>164.2</ele>
        <time>2024-08-14T04:46:03Z</time>
      </trkpt>
      <trkpt lat="47.06845" lon="3.01403">
        <ele>164.2</ele>
        <time>2024-08-14T04:46:05Z</time>
      </trkpt>
      <trkpt lat="47.06849" lon="3.01401">
        <ele>164.2</ele>
        <time>2024-08-14T04:46:06Z</time>
      </trkpt>
      <trkpt lat="47.06872" lon="3.01391">
        <ele>163.8</ele>
        <time>2024-08-14T04:46:10Z</time>
      </trkpt>
      <trkpt lat="47.06878" lon="3.01387">
        <ele>163.4</ele>
        <time>2024-08-14T04:46:11Z</time>
      </trkpt>
      <trkpt lat="47.06897" lon="3.01376">
        <ele>162.6</ele>
        <time>2024-08-14T04:46:14Z</time>
      </trkpt>
      <trkpt lat="47.06906" lon="3.01372">
        <ele>162</ele>
        <time>2024-08-14T04:46:16Z</time>
      </trkpt>
      <trkpt lat="47.06912" lon="3.0137">
        <ele>161.4</ele>
        <time>2024-08-14T04:46:17Z</time>
      </trkpt>
      <trkpt lat="47.06924" lon="3.01367">
        <ele>160.4</ele>
        <time>2024-08-14T04:46:19Z</time>
      </trkpt>
      <trkpt lat="47.06928" lon="3.01364">
        <ele>160</ele>
        <time>2024-08-14T04:46:20Z</time>
      </trkpt>
      <trkpt lat="47.06948" lon="3.01353">
        <ele>159</ele>
        <time>2024-08-14T04:46:23Z</time>
      </trkpt>
      <trkpt lat="47.06954" lon="3.0135">
        <ele>158.8</ele>
        <time>2024-08-14T04:46:24Z</time>
      </trkpt>
      <trkpt lat="47.06971" lon="3.01343">
        <ele>158.6</ele>
        <time>2024-08-14T04:46:27Z</time>
      </trkpt>
      <trkpt lat="47.07003" lon="3.01333">
        <ele>158.8</ele>
        <time>2024-08-14T04:46:32Z</time>
      </trkpt>
      <trkpt lat="47.07014" lon="3.01331">
        <ele>158.8</ele>
        <time>2024-08-14T04:46:34Z</time>
      </trkpt>
      <trkpt lat="47.07055" lon="3.0132">
        <ele>159.4</ele>
        <time>2024-08-14T04:46:40Z</time>
      </trkpt>
      <trkpt lat="47.071" lon="3.01292">
        <ele>159.4</ele>
        <time>2024-08-14T04:46:47Z</time>
      </trkpt>
      <trkpt lat="47.07146" lon="3.01263">
        <ele>158.6</ele>
        <time>2024-08-14T04:46:54Z</time>
      </trkpt>
      <trkpt lat="47.07198" lon="3.01231">
        <ele>158.4</ele>
        <time>2024-08-14T04:47:02Z</time>
      </trkpt>
      <trkpt lat="47.07238" lon="3.01204">
        <ele>158.4</ele>
        <time>2024-08-14T04:47:08Z</time>
      </trkpt>
      <trkpt lat="47.07295" lon="3.01176">
        <ele>158.4</ele>
        <time>2024-08-14T04:47:16Z</time>
      </trkpt>
      <trkpt lat="47.07342" lon="3.01164">
        <ele>157.8</ele>
        <time>2024-08-14T04:47:22Z</time>
      </trkpt>
      <trkpt lat="47.07378" lon="3.01155">
        <ele>157.4</ele>
        <time>2024-08-14T04:47:27Z</time>
      </trkpt>
      <trkpt lat="47.07435" lon="3.01142">
        <ele>157.6</ele>
        <time>2024-08-14T04:47:35Z</time>
      </trkpt>
      <trkpt lat="47.07443" lon="3.01139">
        <ele>157.8</ele>
        <time>2024-08-14T04:47:36Z</time>
      </trkpt>
      <trkpt lat="47.07497" lon="3.01119">
        <ele>158</ele>
        <time>2024-08-14T04:47:44Z</time>
      </trkpt>
      <trkpt lat="47.07511" lon="3.01112">
        <ele>158</ele>
        <time>2024-08-14T04:47:46Z</time>
      </trkpt>
      <trkpt lat="47.07564" lon="3.01083">
        <ele>157.8</ele>
        <time>2024-08-14T04:47:54Z</time>
      </trkpt>
      <trkpt lat="47.0757" lon="3.01079">
        <ele>157.8</ele>
        <time>2024-08-14T04:47:55Z</time>
      </trkpt>
      <trkpt lat="47.0762" lon="3.01039">
        <ele>157.6</ele>
        <time>2024-08-14T04:48:03Z</time>
      </trkpt>
      <trkpt lat="47.07665" lon="3.00988">
        <ele>157.6</ele>
        <time>2024-08-14T04:48:11Z</time>
      </trkpt>
      <trkpt lat="47.07709" lon="3.00936">
        <ele>157.4</ele>
        <time>2024-08-14T04:48:19Z</time>
      </trkpt>
      <trkpt lat="47.07731" lon="3.0091">
        <ele>157.4</ele>
        <time>2024-08-14T04:48:23Z</time>
      </trkpt>
      <trkpt lat="47.07775" lon="3.00859">
        <ele>157.4</ele>
        <time>2024-08-14T04:48:31Z</time>
      </trkpt>
      <trkpt lat="47.07797" lon="3.00833">
        <ele>157.2</ele>
        <time>2024-08-14T04:48:35Z</time>
      </trkpt>
      <trkpt lat="47.07839" lon="3.00783">
        <ele>157.2</ele>
        <time>2024-08-14T04:48:43Z</time>
      </trkpt>
      <trkpt lat="47.07855" lon="3.00763">
        <ele>157.2</ele>
        <time>2024-08-14T04:48:46Z</time>
      </trkpt>
      <trkpt lat="47.079" lon="3.00709">
        <ele>157.4</ele>
        <time>2024-08-14T04:48:54Z</time>
      </trkpt>
      <trkpt lat="47.0791" lon="3.00697">
        <ele>157.4</ele>
        <time>2024-08-14T04:48:56Z</time>
      </trkpt>
      <trkpt lat="47.07959" lon="3.00646">
        <ele>157.4</ele>
        <time>2024-08-14T04:49:04Z</time>
      </trkpt>
      <trkpt lat="47.0797" lon="3.00637">
        <ele>157.4</ele>
        <time>2024-08-14T04:49:06Z</time>
      </trkpt>
      <trkpt lat="47.08022" lon="3.00598">
        <ele>157.6</ele>
        <time>2024-08-14T04:49:14Z</time>
      </trkpt>
      <trkpt lat="47.0807" lon="3.00571">
        <ele>157.4</ele>
        <time>2024-08-14T04:49:21Z</time>
      </trkpt>
      <trkpt lat="47.08126" lon="3.00552">
        <ele>157.4</ele>
        <time>2024-08-14T04:49:29Z</time>
      </trkpt>
      <trkpt lat="47.08184" lon="3.00537">
        <ele>157.4</ele>
        <time>2024-08-14T04:49:37Z</time>
      </trkpt>
      <trkpt lat="47.08205" lon="3.0053">
        <ele>157.6</ele>
        <time>2024-08-14T04:49:40Z</time>
      </trkpt>
      <trkpt lat="47.08262" lon="3.00515">
        <ele>157.4</ele>
        <time>2024-08-14T04:49:48Z</time>
      </trkpt>
      <trkpt lat="47.08297" lon="3.00506">
        <ele>157.2</ele>
        <time>2024-08-14T04:49:53Z</time>
      </trkpt>
      <trkpt lat="47.08354" lon="3.00491">
        <ele>157.2</ele>
        <time>2024-08-14T04:50:01Z</time>
      </trkpt>
      <trkpt lat="47.08383" lon="3.00484">
        <ele>157</ele>
        <time>2024-08-14T04:50:05Z</time>
      </trkpt>
      <trkpt lat="47.08437" lon="3.00469">
        <ele>157</ele>
        <time>2024-08-14T04:50:13Z</time>
      </trkpt>
      <trkpt lat="47.08452" lon="3.00465">
        <ele>157</ele>
        <time>2024-08-14T04:50:15Z</time>
      </trkpt>
      <trkpt lat="47.08506" lon="3.0045">
        <ele>157</ele>
        <time>2024-08-14T04:50:23Z</time>
      </trkpt>
      <trkpt lat="47.08521" lon="3.00446">
        <ele>157</ele>
        <time>2024-08-14T04:50:25Z</time>
      </trkpt>
      <trkpt lat="47.08549" lon="3.00439">
        <ele>156.8</ele>
        <time>2024-08-14T04:50:29Z</time>
      </trkpt>
      <trkpt lat="47.08591" lon="3.00434">
        <ele>156.6</ele>
        <time>2024-08-14T04:50:35Z</time>
      </trkpt>
      <trkpt lat="47.08633" lon="3.00439">
        <ele>156.6</ele>
        <time>2024-08-14T04:50:41Z</time>
      </trkpt>
      <trkpt lat="47.08677" lon="3.00455">
        <ele>156.6</ele>
        <time>2024-08-14T04:50:47Z</time>
      </trkpt>
      <trkpt lat="47.08727" lon="3.00471">
        <ele>156.8</ele>
        <time>2024-08-14T04:50:54Z</time>
      </trkpt>
      <trkpt lat="47.08784" lon="3.00485">
        <ele>156.6</ele>
        <time>2024-08-14T04:51:02Z</time>
      </trkpt>
      <trkpt lat="47.08819" lon="3.00497">
        <ele>156.4</ele>
        <time>2024-08-14T04:51:07Z</time>
      </trkpt>
      <trkpt lat="47.08826" lon="3.00502">
        <ele>156.4</ele>
        <time>2024-08-14T04:51:08Z</time>
      </trkpt>
      <trkpt lat="47.08838" lon="3.00514">
        <ele>156.4</ele>
        <time>2024-08-14T04:51:10Z</time>
      </trkpt>
      <trkpt lat="47.08854" lon="3.00534">
        <ele>156.4</ele>
        <time>2024-08-14T04:51:13Z</time>
      </trkpt>
      <trkpt lat="47.08877" lon="3.0057">
        <ele>156.6</ele>
        <time>2024-08-14T04:51:18Z</time>
      </trkpt>
      <trkpt lat="47.08889" lon="3.00586">
        <ele>156.6</ele>
        <time>2024-08-14T04:51:20Z</time>
      </trkpt>
      <trkpt lat="47.08901" lon="3.00597">
        <ele>156.8</ele>
        <time>2024-08-14T04:51:22Z</time>
      </trkpt>
      <trkpt lat="47.08942" lon="3.00618">
        <ele>157</ele>
        <time>2024-08-14T04:51:28Z</time>
      </trkpt>
      <trkpt lat="47.08983" lon="3.00637">
        <ele>156.4</ele>
        <time>2024-08-14T04:51:34Z</time>
      </trkpt>
      <trkpt lat="47.0903" lon="3.00659">
        <ele>156.4</ele>
        <time>2024-08-14T04:51:41Z</time>
      </trkpt>
      <trkpt lat="47.09081" lon="3.00685">
        <ele>156.6</ele>
        <time>2024-08-14T04:51:49Z</time>
      </trkpt>
      <trkpt lat="47.09096" lon="3.00691">
        <ele>156.4</ele>
        <time>2024-08-14T04:51:51Z</time>
      </trkpt>
      <trkpt lat="47.09132" lon="3.00695">
        <ele>156.4</ele>
        <time>2024-08-14T04:51:56Z</time>
      </trkpt>
      <trkpt lat="47.09182" lon="3.00686">
        <ele>156.2</ele>
        <time>2024-08-14T04:52:03Z</time>
      </trkpt>
      <trkpt lat="47.09232" lon="3.00678">
        <ele>156</ele>
        <time>2024-08-14T04:52:10Z</time>
      </trkpt>
      <trkpt lat="47.09287" lon="3.00671">
        <ele>156.4</ele>
        <time>2024-08-14T04:52:18Z</time>
      </trkpt>
      <trkpt lat="47.09307" lon="3.00669">
        <ele>156.2</ele>
        <time>2024-08-14T04:52:21Z</time>
      </trkpt>
      <trkpt lat="47.09351" lon="3.00663">
        <ele>155.8</ele>
        <time>2024-08-14T04:52:27Z</time>
      </trkpt>
      <trkpt lat="47.09357" lon="3.00659">
        <ele>155.6</ele>
        <time>2024-08-14T04:52:28Z</time>
      </trkpt>
      <trkpt lat="47.09363" lon="3.00654">
        <ele>155.6</ele>
        <time>2024-08-14T04:52:29Z</time>
      </trkpt>
      <trkpt lat="47.09371" lon="3.0064">
        <ele>155.6</ele>
        <time>2024-08-14T04:52:31Z</time>
      </trkpt>
      <trkpt lat="47.0938" lon="3.00609">
        <ele>155.8</ele>
        <time>2024-08-14T04:52:35Z</time>
      </trkpt>
      <trkpt lat="47.09381" lon="3.00604">
        <ele>156</ele>
        <time>2024-08-14T04:52:36Z</time>
      </trkpt>
      <trkpt lat="47.09386" lon="3.00598">
        <ele>156</ele>
        <time>2024-08-14T04:52:38Z</time>
      </trkpt>
      <trkpt lat="47.09391" lon="3.00601">
        <ele>156.8</ele>
        <time>2024-08-14T04:52:40Z</time>
      </trkpt>
      <trkpt lat="47.09402" lon="3.0061">
        <ele>157.2</ele>
        <time>2024-08-14T04:52:42Z</time>
      </trkpt>
      <trkpt lat="47.09429" lon="3.00628">
        <ele>157.2</ele>
        <time>2024-08-14T04:52:46Z</time>
      </trkpt>
      <trkpt lat="47.09481" lon="3.00665">
        <ele>156.6</ele>
        <time>2024-08-14T04:52:54Z</time>
      </trkpt>
      <trkpt lat="47.09489" lon="3.00671">
        <ele>156.6</ele>
        <time>2024-08-14T04:52:55Z</time>
      </trkpt>
      <trkpt lat="47.09543" lon="3.00707">
        <ele>156.4</ele>
        <time>2024-08-14T04:53:03Z</time>
      </trkpt>
      <trkpt lat="47.09558" lon="3.00718">
        <ele>156.4</ele>
        <time>2024-08-14T04:53:05Z</time>
      </trkpt>
      <trkpt lat="47.09612" lon="3.00757">
        <ele>155.8</ele>
        <time>2024-08-14T04:53:13Z</time>
      </trkpt>
      <trkpt lat="47.09617" lon="3.00761">
        <ele>155.8</ele>
        <time>2024-08-14T04:53:14Z</time>
      </trkpt>
      <trkpt lat="47.09625" lon="3.00766">
        <ele>155.8</ele>
        <time>2024-08-14T04:53:15Z</time>
      </trkpt>
      <trkpt lat="47.09671" lon="3.008">
        <ele>155.4</ele>
        <time>2024-08-14T04:53:22Z</time>
      </trkpt>
      <trkpt lat="47.09722" lon="3.00841">
        <ele>155.6</ele>
        <time>2024-08-14T04:53:30Z</time>
      </trkpt>
      <trkpt lat="47.09766" lon="3.00878">
        <ele>155.8</ele>
        <time>2024-08-14T04:53:37Z</time>
      </trkpt>
      <trkpt lat="47.09818" lon="3.00919">
        <ele>155.6</ele>
        <time>2024-08-14T04:53:45Z</time>
      </trkpt>
      <trkpt lat="47.09823" lon="3.00923">
        <ele>155.6</ele>
        <time>2024-08-14T04:53:46Z</time>
      </trkpt>
      <trkpt lat="47.09874" lon="3.00963">
        <ele>155.6</ele>
        <time>2024-08-14T04:53:54Z</time>
      </trkpt>
      <trkpt lat="47.0988" lon="3.00968">
        <ele>155.6</ele>
        <time>2024-08-14T04:53:55Z</time>
      </trkpt>
      <trkpt lat="47.0993" lon="3.01005">
        <ele>155.6</ele>
        <time>2024-08-14T04:54:03Z</time>
      </trkpt>
      <trkpt lat="47.09937" lon="3.01008">
        <ele>155.6</ele>
        <time>2024-08-14T04:54:04Z</time>
      </trkpt>
      <trkpt lat="47.09986" lon="3.01028">
        <ele>155.6</ele>
        <time>2024-08-14T04:54:11Z</time>
      </trkpt>
      <trkpt lat="47.10045" lon="3.01038">
        <ele>155.4</ele>
        <time>2024-08-14T04:54:19Z</time>
      </trkpt>
      <trkpt lat="47.10091" lon="3.01035">
        <ele>155.6</ele>
        <time>2024-08-14T04:54:25Z</time>
      </trkpt>
      <trkpt lat="47.10149" lon="3.01018">
        <ele>155.6</ele>
        <time>2024-08-14T04:54:33Z</time>
      </trkpt>
      <trkpt lat="47.10191" lon="3.01002">
        <ele>155.6</ele>
        <time>2024-08-14T04:54:39Z</time>
      </trkpt>
      <trkpt lat="47.10248" lon="3.00983">
        <ele>155.6</ele>
        <time>2024-08-14T04:54:47Z</time>
      </trkpt>
      <trkpt lat="47.10304" lon="3.00966">
        <ele>155.4</ele>
        <time>2024-08-14T04:54:55Z</time>
      </trkpt>
      <trkpt lat="47.10319" lon="3.00961">
        <ele>155.4</ele>
        <time>2024-08-14T04:54:57Z</time>
      </trkpt>
      <trkpt lat="47.10377" lon="3.00953">
        <ele>155.4</ele>
        <time>2024-08-14T04:55:05Z</time>
      </trkpt>
      <trkpt lat="47.10436" lon="3.00951">
        <ele>155.4</ele>
        <time>2024-08-14T04:55:13Z</time>
      </trkpt>
      <trkpt lat="47.10451" lon="3.00951">
        <ele>155.6</ele>
        <time>2024-08-14T04:55:15Z</time>
      </trkpt>
      <trkpt lat="47.1051" lon="3.00951">
        <ele>155.6</ele>
        <time>2024-08-14T04:55:23Z</time>
      </trkpt>
      <trkpt lat="47.10525" lon="3.00951">
        <ele>155.6</ele>
        <time>2024-08-14T04:55:25Z</time>
      </trkpt>
      <trkpt lat="47.10583" lon="3.00951">
        <ele>155.6</ele>
        <time>2024-08-14T04:55:33Z</time>
      </trkpt>
      <trkpt lat="47.1059" lon="3.00951">
        <ele>155.6</ele>
        <time>2024-08-14T04:55:34Z</time>
      </trkpt>
      <trkpt lat="47.10626" lon="3.00951">
        <ele>155.6</ele>
        <time>2024-08-14T04:55:39Z</time>
      </trkpt>
      <trkpt lat="47.1067" lon="3.00949">
        <ele>155.4</ele>
        <time>2024-08-14T04:55:45Z</time>
      </trkpt>
      <trkpt lat="47.10678" lon="3.00949">
        <ele>155.4</ele>
        <time>2024-08-14T04:55:46Z</time>
      </trkpt>
      <trkpt lat="47.10721" lon="3.00947">
        <ele>155.4</ele>
        <time>2024-08-14T04:55:52Z</time>
      </trkpt>
      <trkpt lat="47.10756" lon="3.00946">
        <ele>155.4</ele>
        <time>2024-08-14T04:55:57Z</time>
      </trkpt>
      <trkpt lat="47.10762" lon="3.00946">
        <ele>155.6</ele>
        <time>2024-08-14T04:55:58Z</time>
      </trkpt>
      <trkpt lat="47.10781" lon="3.00946">
        <ele>156.2</ele>
        <time>2024-08-14T04:56:02Z</time>
      </trkpt>
      <trkpt lat="47.10784" lon="3.00946">
        <ele>156.4</ele>
        <time>2024-08-14T04:56:03Z</time>
      </trkpt>
      <trkpt lat="47.10796" lon="3.00945">
        <ele>156.8</ele>
        <time>2024-08-14T04:56:05Z</time>
      </trkpt>
      <trkpt lat="47.10803" lon="3.00944">
        <ele>157.2</ele>
        <time>2024-08-14T04:56:06Z</time>
      </trkpt>
      <trkpt lat="47.10846" lon="3.00938">
        <ele>157.4</ele>
        <time>2024-08-14T04:56:11Z</time>
      </trkpt>
      <trkpt lat="47.10902" lon="3.00933">
        <ele>156.2</ele>
        <time>2024-08-14T04:56:18Z</time>
      </trkpt>
      <trkpt lat="47.10962" lon="3.00928">
        <ele>155.8</ele>
        <time>2024-08-14T04:56:26Z</time>
      </trkpt>
      <trkpt lat="47.10977" lon="3.00927">
        <ele>155.8</ele>
        <time>2024-08-14T04:56:28Z</time>
      </trkpt>
      <trkpt lat="47.11037" lon="3.00923">
        <ele>156</ele>
        <time>2024-08-14T04:56:36Z</time>
      </trkpt>
      <trkpt lat="47.11052" lon="3.00922">
        <ele>156</ele>
        <time>2024-08-14T04:56:38Z</time>
      </trkpt>
      <trkpt lat="47.11111" lon="3.00918">
        <ele>155.8</ele>
        <time>2024-08-14T04:56:46Z</time>
      </trkpt>
      <trkpt lat="47.11126" lon="3.00916">
        <ele>155.6</ele>
        <time>2024-08-14T04:56:48Z</time>
      </trkpt>
      <trkpt lat="47.11179" lon="3.00911">
        <ele>155.6</ele>
        <time>2024-08-14T04:56:55Z</time>
      </trkpt>
      <trkpt lat="47.11238" lon="3.00907">
        <ele>155.6</ele>
        <time>2024-08-14T04:57:03Z</time>
      </trkpt>
      <trkpt lat="47.11246" lon="3.00906">
        <ele>155.6</ele>
        <time>2024-08-14T04:57:04Z</time>
      </trkpt>
      <trkpt lat="47.11306" lon="3.00902">
        <ele>155.6</ele>
        <time>2024-08-14T04:57:12Z</time>
      </trkpt>
      <trkpt lat="47.11313" lon="3.00901">
        <ele>155.6</ele>
        <time>2024-08-14T04:57:13Z</time>
      </trkpt>
      <trkpt lat="47.11372" lon="3.009">
        <ele>155.8</ele>
        <time>2024-08-14T04:57:21Z</time>
      </trkpt>
      <trkpt lat="47.11394" lon="3.00901">
        <ele>155.8</ele>
        <time>2024-08-14T04:57:24Z</time>
      </trkpt>
      <trkpt lat="47.11452" lon="3.00905">
        <ele>155.8</ele>
        <time>2024-08-14T04:57:32Z</time>
      </trkpt>
      <trkpt lat="47.11459" lon="3.00905">
        <ele>155.8</ele>
        <time>2024-08-14T04:57:33Z</time>
      </trkpt>
      <trkpt lat="47.11519" lon="3.00908">
        <ele>155.8</ele>
        <time>2024-08-14T04:57:41Z</time>
      </trkpt>
      <trkpt lat="47.11526" lon="3.00909">
        <ele>155.8</ele>
        <time>2024-08-14T04:57:42Z</time>
      </trkpt>
      <trkpt lat="47.11571" lon="3.00909">
        <ele>155.8</ele>
        <time>2024-08-14T04:57:48Z</time>
      </trkpt>
      <trkpt lat="47.1163" lon="3.0091">
        <ele>155.8</ele>
        <time>2024-08-14T04:57:56Z</time>
      </trkpt>
      <trkpt lat="47.11638" lon="3.0091">
        <ele>155.8</ele>
        <time>2024-08-14T04:57:57Z</time>
      </trkpt>
      <trkpt lat="47.11696" lon="3.00909">
        <ele>155.8</ele>
        <time>2024-08-14T04:58:05Z</time>
      </trkpt>
      <trkpt lat="47.11703" lon="3.00908">
        <ele>155.8</ele>
        <time>2024-08-14T04:58:06Z</time>
      </trkpt>
      <trkpt lat="47.11762" lon="3.00903">
        <ele>155.6</ele>
        <time>2024-08-14T04:58:14Z</time>
      </trkpt>
      <trkpt lat="47.11776" lon="3.00901">
        <ele>155.6</ele>
        <time>2024-08-14T04:58:16Z</time>
      </trkpt>
      <trkpt lat="47.11835" lon="3.00896">
        <ele>155.8</ele>
        <time>2024-08-14T04:58:24Z</time>
      </trkpt>
      <trkpt lat="47.1185" lon="3.00894">
        <ele>155.8</ele>
        <time>2024-08-14T04:58:26Z</time>
      </trkpt>
      <trkpt lat="47.11911" lon="3.0089">
        <ele>155.8</ele>
        <time>2024-08-14T04:58:34Z</time>
      </trkpt>
      <trkpt lat="47.11931" lon="3.00887">
        <ele>155.6</ele>
        <time>2024-08-14T04:58:37Z</time>
      </trkpt>
      <trkpt lat="47.1199" lon="3.00877">
        <ele>155.6</ele>
        <time>2024-08-14T04:58:45Z</time>
      </trkpt>
      <trkpt lat="47.11997" lon="3.00875">
        <ele>155.6</ele>
        <time>2024-08-14T04:58:46Z</time>
      </trkpt>
      <trkpt lat="47.12055" lon="3.00862">
        <ele>155.8</ele>
        <time>2024-08-14T04:58:54Z</time>
      </trkpt>
      <trkpt lat="47.12076" lon="3.00859">
        <ele>156</ele>
        <time>2024-08-14T04:58:57Z</time>
      </trkpt>
      <trkpt lat="47.12102" lon="3.00856">
        <ele>156.4</ele>
        <time>2024-08-14T04:59:02Z</time>
      </trkpt>
      <trkpt lat="47.1211" lon="3.00854">
        <ele>157.2</ele>
        <time>2024-08-14T04:59:05Z</time>
      </trkpt>
      <trkpt lat="47.12117" lon="3.00852">
        <ele>157.8</ele>
        <time>2024-08-14T04:59:07Z</time>
      </trkpt>
      <trkpt lat="47.12135" lon="3.00847">
        <ele>158</ele>
        <time>2024-08-14T04:59:10Z</time>
      </trkpt>
      <trkpt lat="47.12173" lon="3.00837">
        <ele>157.2</ele>
        <time>2024-08-14T04:59:15Z</time>
      </trkpt>
      <trkpt lat="47.12196" lon="3.00832">
        <ele>156</ele>
        <time>2024-08-14T04:59:18Z</time>
      </trkpt>
      <trkpt lat="47.12239" lon="3.00821">
        <ele>155.8</ele>
        <time>2024-08-14T04:59:24Z</time>
      </trkpt>
      <trkpt lat="47.12296" lon="3.00809">
        <ele>155.8</ele>
        <time>2024-08-14T04:59:32Z</time>
      </trkpt>
      <trkpt lat="47.12302" lon="3.00808">
        <ele>155.8</ele>
        <time>2024-08-14T04:59:33Z</time>
      </trkpt>
      <trkpt lat="47.12358" lon="3.00794">
        <ele>155.6</ele>
        <time>2024-08-14T04:59:41Z</time>
      </trkpt>
      <trkpt lat="47.12373" lon="3.00791">
        <ele>155.6</ele>
        <time>2024-08-14T04:59:43Z</time>
      </trkpt>
      <trkpt lat="47.12431" lon="3.00779">
        <ele>155.6</ele>
        <time>2024-08-14T04:59:51Z</time>
      </trkpt>
      <trkpt lat="47.12446" lon="3.00776">
        <ele>155.6</ele>
        <time>2024-08-14T04:59:53Z</time>
      </trkpt>
      <trkpt lat="47.12503" lon="3.00763">
        <ele>155.6</ele>
        <time>2024-08-14T05:00:01Z</time>
      </trkpt>
      <trkpt lat="47.12512" lon="3.00761">
        <ele>155.6</ele>
        <time>2024-08-14T05:00:02Z</time>
      </trkpt>
      <trkpt lat="47.12567" lon="3.00748">
        <ele>155.6</ele>
        <time>2024-08-14T05:00:10Z</time>
      </trkpt>
      <trkpt lat="47.12596" lon="3.00742">
        <ele>155.6</ele>
        <time>2024-08-14T05:00:14Z</time>
      </trkpt>
      <trkpt lat="47.12654" lon="3.00729">
        <ele>155.6</ele>
        <time>2024-08-14T05:00:22Z</time>
      </trkpt>
      <trkpt lat="47.12661" lon="3.00727">
        <ele>155.8</ele>
        <time>2024-08-14T05:00:23Z</time>
      </trkpt>
      <trkpt lat="47.12719" lon="3.00714">
        <ele>156</ele>
        <time>2024-08-14T05:00:31Z</time>
      </trkpt>
      <trkpt lat="47.12733" lon="3.00711">
        <ele>156</ele>
        <time>2024-08-14T05:00:33Z</time>
      </trkpt>
      <trkpt lat="47.1279" lon="3.00697">
        <ele>155.8</ele>
        <time>2024-08-14T05:00:41Z</time>
      </trkpt>
      <trkpt lat="47.12818" lon="3.00689">
        <ele>155.8</ele>
        <time>2024-08-14T05:00:45Z</time>
      </trkpt>
      <trkpt lat="47.12875" lon="3.00673">
        <ele>155.6</ele>
        <time>2024-08-14T05:00:53Z</time>
      </trkpt>
      <trkpt lat="47.12882" lon="3.00671">
        <ele>155.6</ele>
        <time>2024-08-14T05:00:54Z</time>
      </trkpt>
      <trkpt lat="47.12938" lon="3.00653">
        <ele>156</ele>
        <time>2024-08-14T05:01:02Z</time>
      </trkpt>
      <trkpt lat="47.12996" lon="3.00635">
        <ele>155.8</ele>
        <time>2024-08-14T05:01:10Z</time>
      </trkpt>
      <trkpt lat="47.13003" lon="3.00633">
        <ele>155.8</ele>
        <time>2024-08-14T05:01:11Z</time>
      </trkpt>
      <trkpt lat="47.13061" lon="3.00616">
        <ele>155.8</ele>
        <time>2024-08-14T05:01:19Z</time>
      </trkpt>
      <trkpt lat="47.13069" lon="3.00614">
        <ele>155.8</ele>
        <time>2024-08-14T05:01:20Z</time>
      </trkpt>
      <trkpt lat="47.13126" lon="3.00597">
        <ele>156</ele>
        <time>2024-08-14T05:01:28Z</time>
      </trkpt>
      <trkpt lat="47.13148" lon="3.0059">
        <ele>156</ele>
        <time>2024-08-14T05:01:31Z</time>
      </trkpt>
      <trkpt lat="47.13207" lon="3.00574">
        <ele>155.8</ele>
        <time>2024-08-14T05:01:39Z</time>
      </trkpt>
      <trkpt lat="47.13213" lon="3.00572">
        <ele>155.8</ele>
        <time>2024-08-14T05:01:40Z</time>
      </trkpt>
      <trkpt lat="47.13268" lon="3.00555">
        <ele>155.6</ele>
        <time>2024-08-14T05:01:48Z</time>
      </trkpt>
      <trkpt lat="47.13275" lon="3.00553">
        <ele>155.6</ele>
        <time>2024-08-14T05:01:49Z</time>
      </trkpt>
      <trkpt lat="47.13325" lon="3.00538">
        <ele>155.8</ele>
        <time>2024-08-14T05:01:56Z</time>
      </trkpt>
      <trkpt lat="47.1338" lon="3.00521">
        <ele>155.8</ele>
        <time>2024-08-14T05:02:04Z</time>
      </trkpt>
      <trkpt lat="47.13386" lon="3.00519">
        <ele>155.8</ele>
        <time>2024-08-14T05:02:05Z</time>
      </trkpt>
      <trkpt lat="47.13426" lon="3.00506">
        <ele>155.6</ele>
        <time>2024-08-14T05:02:11Z</time>
      </trkpt>
      <trkpt lat="47.1346" lon="3.00494">
        <ele>155.8</ele>
        <time>2024-08-14T05:02:17Z</time>
      </trkpt>
      <trkpt lat="47.13465" lon="3.00493">
        <ele>155.8</ele>
        <time>2024-08-14T05:02:18Z</time>
      </trkpt>
      <trkpt lat="47.1347" lon="3.00494">
        <ele>155.8</ele>
        <time>2024-08-14T05:02:19Z</time>
      </trkpt>
      <trkpt lat="47.13477" lon="3.00496">
        <ele>155.8</ele>
        <time>2024-08-14T05:02:21Z</time>
      </trkpt>
      <trkpt lat="47.13479" lon="3.00495">
        <ele>156</ele>
        <time>2024-08-14T05:02:22Z</time>
      </trkpt>
      <trkpt lat="47.1348" lon="3.00492">
        <ele>156</ele>
        <time>2024-08-14T05:02:23Z</time>
      </trkpt>
      <trkpt lat="47.13479" lon="3.00483">
        <ele>156.4</ele>
        <time>2024-08-14T05:02:25Z</time>
      </trkpt>
      <trkpt lat="47.13476" lon="3.00463">
        <ele>156.6</ele>
        <time>2024-08-14T05:02:29Z</time>
      </trkpt>
      <trkpt lat="47.13483" lon="3.00455">
        <ele>156.6</ele>
        <time>2024-08-14T05:02:31Z</time>
      </trkpt>
      <trkpt lat="47.13489" lon="3.00454">
        <ele>156.6</ele>
        <time>2024-08-14T05:02:32Z</time>
      </trkpt>
      <trkpt lat="47.13523" lon="3.00444">
        <ele>156.4</ele>
        <time>2024-08-14T05:02:37Z</time>
      </trkpt>
      <trkpt lat="47.13566" lon="3.0043">
        <ele>156</ele>
        <time>2024-08-14T05:02:43Z</time>
      </trkpt>
      <trkpt lat="47.13624" lon="3.00415">
        <ele>155.8</ele>
        <time>2024-08-14T05:02:51Z</time>
      </trkpt>
      <trkpt lat="47.13631" lon="3.00414">
        <ele>155.8</ele>
        <time>2024-08-14T05:02:52Z</time>
      </trkpt>
      <trkpt lat="47.13691" lon="3.00406">
        <ele>155.8</ele>
        <time>2024-08-14T05:03:00Z</time>
      </trkpt>
      <trkpt lat="47.13752" lon="3.004">
        <ele>155.8</ele>
        <time>2024-08-14T05:03:08Z</time>
      </trkpt>
      <trkpt lat="47.13767" lon="3.00399">
        <ele>155.6</ele>
        <time>2024-08-14T05:03:10Z</time>
      </trkpt>
      <trkpt lat="47.13828" lon="3.00392">
        <ele>155.4</ele>
        <time>2024-08-14T05:03:18Z</time>
      </trkpt>
      <trkpt lat="47.13843" lon="3.00387">
        <ele>155.4</ele>
        <time>2024-08-14T05:03:20Z</time>
      </trkpt>
      <trkpt lat="47.13866" lon="3.0038">
        <ele>155.4</ele>
        <time>2024-08-14T05:03:23Z</time>
      </trkpt>
      <trkpt lat="47.1388" lon="3.00368">
        <ele>155.4</ele>
        <time>2024-08-14T05:03:25Z</time>
      </trkpt>
      <trkpt lat="47.1389" lon="3.0035">
        <ele>155.2</ele>
        <time>2024-08-14T05:03:27Z</time>
      </trkpt>
      <trkpt lat="47.13896" lon="3.00342">
        <ele>155.2</ele>
        <time>2024-08-14T05:03:28Z</time>
      </trkpt>
      <trkpt lat="47.13903" lon="3.00335">
        <ele>155.2</ele>
        <time>2024-08-14T05:03:29Z</time>
      </trkpt>
      <trkpt lat="47.13911" lon="3.0033">
        <ele>155</ele>
        <time>2024-08-14T05:03:30Z</time>
      </trkpt>
      <trkpt lat="47.13934" lon="3.00319">
        <ele>154.6</ele>
        <time>2024-08-14T05:03:33Z</time>
      </trkpt>
      <trkpt lat="47.13957" lon="3.00309">
        <ele>154.2</ele>
        <time>2024-08-14T05:03:36Z</time>
      </trkpt>
      <trkpt lat="47.14007" lon="3.00287">
        <ele>153.8</ele>
        <time>2024-08-14T05:03:43Z</time>
      </trkpt>
      <trkpt lat="47.14064" lon="3.00262">
        <ele>153.4</ele>
        <time>2024-08-14T05:03:51Z</time>
      </trkpt>
      <trkpt lat="47.1407" lon="3.00259">
        <ele>153.4</ele>
        <time>2024-08-14T05:03:52Z</time>
      </trkpt>
      <trkpt lat="47.14119" lon="3.00227">
        <ele>153.4</ele>
        <time>2024-08-14T05:03:59Z</time>
      </trkpt>
      <trkpt lat="47.14161" lon="3.00182">
        <ele>153.2</ele>
        <time>2024-08-14T05:04:06Z</time>
      </trkpt>
      <trkpt lat="47.14208" lon="3.00128">
        <ele>153.2</ele>
        <time>2024-08-14T05:04:14Z</time>
      </trkpt>
      <trkpt lat="47.14214" lon="3.00121">
        <ele>153.2</ele>
        <time>2024-08-14T05:04:15Z</time>
      </trkpt>
      <trkpt lat="47.14261" lon="3.00069">
        <ele>153.4</ele>
        <time>2024-08-14T05:04:23Z</time>
      </trkpt>
      <trkpt lat="47.14299" lon="3.00042">
        <ele>153.4</ele>
        <time>2024-08-14T05:04:29Z</time>
      </trkpt>
      <trkpt lat="47.14353" lon="3.00018">
        <ele>153.2</ele>
        <time>2024-08-14T05:04:37Z</time>
      </trkpt>
      <trkpt lat="47.14407" lon="2.99994">
        <ele>153.4</ele>
        <time>2024-08-14T05:04:45Z</time>
      </trkpt>
      <trkpt lat="47.14427" lon="2.99985">
        <ele>153.6</ele>
        <time>2024-08-14T05:04:48Z</time>
      </trkpt>
      <trkpt lat="47.14463" lon="2.99957">
        <ele>154</ele>
        <time>2024-08-14T05:04:54Z</time>
      </trkpt>
      <trkpt lat="47.14473" lon="2.99943">
        <ele>154</ele>
        <time>2024-08-14T05:04:56Z</time>
      </trkpt>
      <trkpt lat="47.14485" lon="2.99918">
        <ele>154.4</ele>
        <time>2024-08-14T05:04:59Z</time>
      </trkpt>
      <trkpt lat="47.14513" lon="2.99845">
        <ele>154.8</ele>
        <time>2024-08-14T05:05:08Z</time>
      </trkpt>
      <trkpt lat="47.14517" lon="2.99838">
        <ele>155</ele>
        <time>2024-08-14T05:05:09Z</time>
      </trkpt>
      <trkpt lat="47.14534" lon="2.99814">
        <ele>155.2</ele>
        <time>2024-08-14T05:05:13Z</time>
      </trkpt>
      <trkpt lat="47.14543" lon="2.99804">
        <ele>155.4</ele>
        <time>2024-08-14T05:05:15Z</time>
      </trkpt>
      <trkpt lat="47.14554" lon="2.99798">
        <ele>155.6</ele>
        <time>2024-08-14T05:05:17Z</time>
      </trkpt>
      <trkpt lat="47.14575" lon="2.99787">
        <ele>156.4</ele>
        <time>2024-08-14T05:05:21Z</time>
      </trkpt>
      <trkpt lat="47.14592" lon="2.99782">
        <ele>157</ele>
        <time>2024-08-14T05:05:24Z</time>
      </trkpt>
      <trkpt lat="47.14608" lon="2.99778">
        <ele>157.6</ele>
        <time>2024-08-14T05:05:27Z</time>
      </trkpt>
      <trkpt lat="47.14635" lon="2.99765">
        <ele>158.4</ele>
        <time>2024-08-14T05:05:32Z</time>
      </trkpt>
      <trkpt lat="47.14641" lon="2.99762">
        <ele>158.6</ele>
        <time>2024-08-14T05:05:33Z</time>
      </trkpt>
      <trkpt lat="47.14671" lon="2.99738">
        <ele>159.6</ele>
        <time>2024-08-14T05:05:39Z</time>
      </trkpt>
      <trkpt lat="47.14697" lon="2.9971">
        <ele>160.6</ele>
        <time>2024-08-14T05:05:45Z</time>
      </trkpt>
      <trkpt lat="47.14705" lon="2.99698">
        <ele>161</ele>
        <time>2024-08-14T05:05:47Z</time>
      </trkpt>
      <trkpt lat="47.14721" lon="2.99658">
        <ele>161.8</ele>
        <time>2024-08-14T05:05:53Z</time>
      </trkpt>
      <trkpt lat="47.1474" lon="2.996">
        <ele>162.8</ele>
        <time>2024-08-14T05:06:01Z</time>
      </trkpt>
      <trkpt lat="47.14743" lon="2.99593">
        <ele>163.2</ele>
        <time>2024-08-14T05:06:02Z</time>
      </trkpt>
      <trkpt lat="47.14753" lon="2.99574">
        <ele>163.6</ele>
        <time>2024-08-14T05:06:05Z</time>
      </trkpt>
      <trkpt lat="47.14765" lon="2.99558">
        <ele>163.8</ele>
        <time>2024-08-14T05:06:08Z</time>
      </trkpt>
      <trkpt lat="47.14783" lon="2.9954">
        <ele>164.2</ele>
        <time>2024-08-14T05:06:12Z</time>
      </trkpt>
      <trkpt lat="47.14802" lon="2.99522">
        <ele>164.4</ele>
        <time>2024-08-14T05:06:16Z</time>
      </trkpt>
      <trkpt lat="47.14828" lon="2.99495">
        <ele>165.2</ele>
        <time>2024-08-14T05:06:22Z</time>
      </trkpt>
      <trkpt lat="47.14836" lon="2.99485">
        <ele>165.4</ele>
        <time>2024-08-14T05:06:24Z</time>
      </trkpt>
      <trkpt lat="47.14869" lon="2.99433">
        <ele>166.4</ele>
        <time>2024-08-14T05:06:33Z</time>
      </trkpt>
      <trkpt lat="47.14898" lon="2.994">
        <ele>167.4</ele>
        <time>2024-08-14T05:06:40Z</time>
      </trkpt>
      <trkpt lat="47.14908" lon="2.99393">
        <ele>167.4</ele>
        <time>2024-08-14T05:06:42Z</time>
      </trkpt>
      <trkpt lat="47.14937" lon="2.9938">
        <ele>167.8</ele>
        <time>2024-08-14T05:06:47Z</time>
      </trkpt>
      <trkpt lat="47.14981" lon="2.99363">
        <ele>168</ele>
        <time>2024-08-14T05:06:54Z</time>
      </trkpt>
      <trkpt lat="47.15035" lon="2.99344">
        <ele>167.8</ele>
        <time>2024-08-14T05:07:02Z</time>
      </trkpt>
      <trkpt lat="47.15042" lon="2.99342">
        <ele>167.8</ele>
        <time>2024-08-14T05:07:03Z</time>
      </trkpt>
      <trkpt lat="47.15094" lon="2.99321">
        <ele>167.8</ele>
        <time>2024-08-14T05:07:11Z</time>
      </trkpt>
      <trkpt lat="47.15123" lon="2.99305">
        <ele>168.2</ele>
        <time>2024-08-14T05:07:16Z</time>
      </trkpt>
      <trkpt lat="47.15128" lon="2.99302">
        <ele>168.4</ele>
        <time>2024-08-14T05:07:17Z</time>
      </trkpt>
      <trkpt lat="47.15156" lon="2.99289">
        <ele>169</ele>
        <time>2024-08-14T05:07:22Z</time>
      </trkpt>
      <trkpt lat="47.15173" lon="2.99282">
        <ele>169.4</ele>
        <time>2024-08-14T05:07:25Z</time>
      </trkpt>
      <trkpt lat="47.15204" lon="2.99271">
        <ele>170.2</ele>
        <time>2024-08-14T05:07:30Z</time>
      </trkpt>
      <trkpt lat="47.15221" lon="2.99263">
        <ele>170.6</ele>
        <time>2024-08-14T05:07:33Z</time>
      </trkpt>
      <trkpt lat="47.15251" lon="2.99252">
        <ele>171.4</ele>
        <time>2024-08-14T05:07:38Z</time>
      </trkpt>
      <trkpt lat="47.15262" lon="2.99248">
        <ele>171.6</ele>
        <time>2024-08-14T05:07:40Z</time>
      </trkpt>
      <trkpt lat="47.15291" lon="2.99236">
        <ele>172</ele>
        <time>2024-08-14T05:07:45Z</time>
      </trkpt>
      <trkpt lat="47.15346" lon="2.99219">
        <ele>172.4</ele>
        <time>2024-08-14T05:07:54Z</time>
      </trkpt>
      <trkpt lat="47.15364" lon="2.99213">
        <ele>172.6</ele>
        <time>2024-08-14T05:07:57Z</time>
      </trkpt>
      <trkpt lat="47.15378" lon="2.9921">
        <ele>172.8</ele>
        <time>2024-08-14T05:07:59Z</time>
      </trkpt>
      <trkpt lat="47.1541" lon="2.99201">
        <ele>172.8</ele>
        <time>2024-08-14T05:08:04Z</time>
      </trkpt>
      <trkpt lat="47.15469" lon="2.99186">
        <ele>173.2</ele>
        <time>2024-08-14T05:08:13Z</time>
      </trkpt>
      <trkpt lat="47.15476" lon="2.99185">
        <ele>173.2</ele>
        <time>2024-08-14T05:08:14Z</time>
      </trkpt>
      <trkpt lat="47.15505" lon="2.99184">
        <ele>172.8</ele>
        <time>2024-08-14T05:08:18Z</time>
      </trkpt>
      <trkpt lat="47.15519" lon="2.99189">
        <ele>172.8</ele>
        <time>2024-08-14T05:08:20Z</time>
      </trkpt>
      <trkpt lat="47.15567" lon="2.99212">
        <ele>172.4</ele>
        <time>2024-08-14T05:08:27Z</time>
      </trkpt>
      <trkpt lat="47.15605" lon="2.99218">
        <ele>172.2</ele>
        <time>2024-08-14T05:08:32Z</time>
      </trkpt>
      <trkpt lat="47.15665" lon="2.99215">
        <ele>172.4</ele>
        <time>2024-08-14T05:08:40Z</time>
      </trkpt>
      <trkpt lat="47.15724" lon="2.99206">
        <ele>172.2</ele>
        <time>2024-08-14T05:08:48Z</time>
      </trkpt>
      <trkpt lat="47.15731" lon="2.99205">
        <ele>172.2</ele>
        <time>2024-08-14T05:08:49Z</time>
      </trkpt>
      <trkpt lat="47.15792" lon="2.99197">
        <ele>171.6</ele>
        <time>2024-08-14T05:08:57Z</time>
      </trkpt>
      <trkpt lat="47.158" lon="2.99196">
        <ele>171.4</ele>
        <time>2024-08-14T05:08:58Z</time>
      </trkpt>
      <trkpt lat="47.15807" lon="2.99195">
        <ele>171.4</ele>
        <time>2024-08-14T05:08:59Z</time>
      </trkpt>
      <trkpt lat="47.15862" lon="2.99187">
        <ele>170.8</ele>
        <time>2024-08-14T05:09:06Z</time>
      </trkpt>
      <trkpt lat="47.15868" lon="2.99186">
        <ele>170.8</ele>
        <time>2024-08-14T05:09:07Z</time>
      </trkpt>
      <trkpt lat="47.15907" lon="2.99181">
        <ele>170.4</ele>
        <time>2024-08-14T05:09:12Z</time>
      </trkpt>
      <trkpt lat="47.15937" lon="2.99171">
        <ele>170</ele>
        <time>2024-08-14T05:09:16Z</time>
      </trkpt>
      <trkpt lat="47.15984" lon="2.99147">
        <ele>169.4</ele>
        <time>2024-08-14T05:09:22Z</time>
      </trkpt>
      <trkpt lat="47.15995" lon="2.99142">
        <ele>169.4</ele>
        <time>2024-08-14T05:09:23Z</time>
      </trkpt>
      <trkpt lat="47.16038" lon="2.9912">
        <ele>168</ele>
        <time>2024-08-14T05:09:28Z</time>
      </trkpt>
      <trkpt lat="47.16066" lon="2.99106">
        <ele>167</ele>
        <time>2024-08-14T05:09:31Z</time>
      </trkpt>
      <trkpt lat="47.16075" lon="2.99101">
        <ele>166.8</ele>
        <time>2024-08-14T05:09:32Z</time>
      </trkpt>
      <trkpt lat="47.16095" lon="2.99091">
        <ele>165.2</ele>
        <time>2024-08-14T05:09:34Z</time>
      </trkpt>
      <trkpt lat="47.16124" lon="2.99075">
        <ele>164.2</ele>
        <time>2024-08-14T05:09:37Z</time>
      </trkpt>
      <trkpt lat="47.16143" lon="2.99065">
        <ele>163.2</ele>
        <time>2024-08-14T05:09:39Z</time>
      </trkpt>
      <trkpt lat="47.16171" lon="2.99051">
        <ele>162</ele>
        <time>2024-08-14T05:09:42Z</time>
      </trkpt>
      <trkpt lat="47.16198" lon="2.99038">
        <ele>161.4</ele>
        <time>2024-08-14T05:09:45Z</time>
      </trkpt>
      <trkpt lat="47.16243" lon="2.99016">
        <ele>161.2</ele>
        <time>2024-08-14T05:09:51Z</time>
      </trkpt>
      <trkpt lat="47.16273" lon="2.99">
        <ele>161.6</ele>
        <time>2024-08-14T05:09:56Z</time>
      </trkpt>
      <trkpt lat="47.16299" lon="2.98989">
        <ele>163.2</ele>
        <time>2024-08-14T05:10:01Z</time>
      </trkpt>
      <trkpt lat="47.1631" lon="2.98983">
        <ele>163.6</ele>
        <time>2024-08-14T05:10:03Z</time>
      </trkpt>
      <trkpt lat="47.16319" lon="2.98979">
        <ele>164.6</ele>
        <time>2024-08-14T05:10:05Z</time>
      </trkpt>
      <trkpt lat="47.16338" lon="2.9897">
        <ele>165.6</ele>
        <time>2024-08-14T05:10:09Z</time>
      </trkpt>
      <trkpt lat="47.16343" lon="2.98968">
        <ele>166</ele>
        <time>2024-08-14T05:10:10Z</time>
      </trkpt>
      <trkpt lat="47.16357" lon="2.98962">
        <ele>166.6</ele>
        <time>2024-08-14T05:10:13Z</time>
      </trkpt>
      <trkpt lat="47.16381" lon="2.98953">
        <ele>167.8</ele>
        <time>2024-08-14T05:10:18Z</time>
      </trkpt>
      <trkpt lat="47.16386" lon="2.98952">
        <ele>168</ele>
        <time>2024-08-14T05:10:19Z</time>
      </trkpt>
      <trkpt lat="47.16406" lon="2.98946">
        <ele>169</ele>
        <time>2024-08-14T05:10:23Z</time>
      </trkpt>
      <trkpt lat="47.16438" lon="2.98938">
        <ele>170.2</ele>
        <time>2024-08-14T05:10:29Z</time>
      </trkpt>
      <trkpt lat="47.16444" lon="2.98937">
        <ele>170.2</ele>
        <time>2024-08-14T05:10:30Z</time>
      </trkpt>
      <trkpt lat="47.16501" lon="2.98923">
        <ele>170.8</ele>
        <time>2024-08-14T05:10:40Z</time>
      </trkpt>
      <trkpt lat="47.16507" lon="2.98921">
        <ele>170.8</ele>
        <time>2024-08-14T05:10:41Z</time>
      </trkpt>
      <trkpt lat="47.16559" lon="2.98907">
        <ele>170.8</ele>
        <time>2024-08-14T05:10:49Z</time>
      </trkpt>
      <trkpt lat="47.16593" lon="2.98899">
        <ele>170.4</ele>
        <time>2024-08-14T05:10:54Z</time>
      </trkpt>
      <trkpt lat="47.16608" lon="2.98899">
        <ele>170.2</ele>
        <time>2024-08-14T05:10:56Z</time>
      </trkpt>
      <trkpt lat="47.16616" lon="2.98901">
        <ele>170</ele>
        <time>2024-08-14T05:10:57Z</time>
      </trkpt>
      <trkpt lat="47.1663" lon="2.98907">
        <ele>169.8</ele>
        <time>2024-08-14T05:10:59Z</time>
      </trkpt>
      <trkpt lat="47.16638" lon="2.98911">
        <ele>169.6</ele>
        <time>2024-08-14T05:11:00Z</time>
      </trkpt>
      <trkpt lat="47.16652" lon="2.98922">
        <ele>169.2</ele>
        <time>2024-08-14T05:11:02Z</time>
      </trkpt>
      <trkpt lat="47.16674" lon="2.9894">
        <ele>168.4</ele>
        <time>2024-08-14T05:11:05Z</time>
      </trkpt>
      <trkpt lat="47.1669" lon="2.98953">
        <ele>167.2</ele>
        <time>2024-08-14T05:11:07Z</time>
      </trkpt>
      <trkpt lat="47.16707" lon="2.98967">
        <ele>166</ele>
        <time>2024-08-14T05:11:09Z</time>
      </trkpt>
      <trkpt lat="47.16716" lon="2.98974">
        <ele>165.8</ele>
        <time>2024-08-14T05:11:10Z</time>
      </trkpt>
      <trkpt lat="47.16733" lon="2.98987">
        <ele>164.8</ele>
        <time>2024-08-14T05:11:12Z</time>
      </trkpt>
      <trkpt lat="47.16756" lon="2.99005">
        <ele>163.6</ele>
        <time>2024-08-14T05:11:15Z</time>
      </trkpt>
      <trkpt lat="47.16762" lon="2.9901">
        <ele>162.8</ele>
        <time>2024-08-14T05:11:16Z</time>
      </trkpt>
      <trkpt lat="47.16768" lon="2.99015">
        <ele>162.2</ele>
        <time>2024-08-14T05:11:17Z</time>
      </trkpt>
      <trkpt lat="47.16777" lon="2.99028">
        <ele>161.4</ele>
        <time>2024-08-14T05:11:19Z</time>
      </trkpt>
      <trkpt lat="47.16783" lon="2.99046">
        <ele>160.4</ele>
        <time>2024-08-14T05:11:21Z</time>
      </trkpt>
      <trkpt lat="47.16788" lon="2.99068">
        <ele>159.8</ele>
        <time>2024-08-14T05:11:23Z</time>
      </trkpt>
      <trkpt lat="47.16791" lon="2.99079">
        <ele>159.4</ele>
        <time>2024-08-14T05:11:24Z</time>
      </trkpt>
      <trkpt lat="47.16797" lon="2.99099">
        <ele>158.8</ele>
        <time>2024-08-14T05:11:26Z</time>
      </trkpt>
      <trkpt lat="47.16802" lon="2.99107">
        <ele>158.6</ele>
        <time>2024-08-14T05:11:27Z</time>
      </trkpt>
      <trkpt lat="47.16809" lon="2.99111">
        <ele>158</ele>
        <time>2024-08-14T05:11:28Z</time>
      </trkpt>
      <trkpt lat="47.16817" lon="2.9911">
        <ele>157.6</ele>
        <time>2024-08-14T05:11:29Z</time>
      </trkpt>
      <trkpt lat="47.16826" lon="2.99107">
        <ele>157.4</ele>
        <time>2024-08-14T05:11:30Z</time>
      </trkpt>
      <trkpt lat="47.16834" lon="2.99102">
        <ele>156.8</ele>
        <time>2024-08-14T05:11:31Z</time>
      </trkpt>
      <trkpt lat="47.16851" lon="2.99092">
        <ele>155.6</ele>
        <time>2024-08-14T05:11:33Z</time>
      </trkpt>
      <trkpt lat="47.16878" lon="2.99077">
        <ele>153.8</ele>
        <time>2024-08-14T05:11:36Z</time>
      </trkpt>
      <trkpt lat="47.16904" lon="2.99064">
        <ele>152.6</ele>
        <time>2024-08-14T05:11:39Z</time>
      </trkpt>
      <trkpt lat="47.1692" lon="2.99053">
        <ele>152</ele>
        <time>2024-08-14T05:11:41Z</time>
      </trkpt>
      <trkpt lat="47.16945" lon="2.99041">
        <ele>151.6</ele>
        <time>2024-08-14T05:11:44Z</time>
      </trkpt>
      <trkpt lat="47.16994" lon="2.99024">
        <ele>151</ele>
        <time>2024-08-14T05:11:50Z</time>
      </trkpt>
      <trkpt lat="47.17042" lon="2.9901">
        <ele>151</ele>
        <time>2024-08-14T05:11:56Z</time>
      </trkpt>
      <trkpt lat="47.17102" lon="2.98991">
        <ele>150.8</ele>
        <time>2024-08-14T05:12:04Z</time>
      </trkpt>
      <trkpt lat="47.17109" lon="2.98989">
        <ele>150.8</ele>
        <time>2024-08-14T05:12:05Z</time>
      </trkpt>
      <trkpt lat="47.17166" lon="2.9897">
        <ele>150.8</ele>
        <time>2024-08-14T05:12:13Z</time>
      </trkpt>
      <trkpt lat="47.17182" lon="2.98965">
        <ele>150.6</ele>
        <time>2024-08-14T05:12:15Z</time>
      </trkpt>
      <trkpt lat="47.17189" lon="2.98963">
        <ele>150.6</ele>
        <time>2024-08-14T05:12:16Z</time>
      </trkpt>
      <trkpt lat="47.17247" lon="2.98953">
        <ele>150.4</ele>
        <time>2024-08-14T05:12:24Z</time>
      </trkpt>
      <trkpt lat="47.17296" lon="2.98945">
        <ele>150.6</ele>
        <time>2024-08-14T05:12:31Z</time>
      </trkpt>
      <trkpt lat="47.17303" lon="2.98943">
        <ele>150.6</ele>
        <time>2024-08-14T05:12:32Z</time>
      </trkpt>
      <trkpt lat="47.17316" lon="2.98934">
        <ele>150.8</ele>
        <time>2024-08-14T05:12:34Z</time>
      </trkpt>
      <trkpt lat="47.17321" lon="2.98928">
        <ele>150.8</ele>
        <time>2024-08-14T05:12:35Z</time>
      </trkpt>
      <trkpt lat="47.17349" lon="2.98884">
        <ele>151</ele>
        <time>2024-08-14T05:12:41Z</time>
      </trkpt>
      <trkpt lat="47.17355" lon="2.98878">
        <ele>151.2</ele>
        <time>2024-08-14T05:12:42Z</time>
      </trkpt>
      <trkpt lat="47.17373" lon="2.98864">
        <ele>151.2</ele>
        <time>2024-08-14T05:12:45Z</time>
      </trkpt>
      <trkpt lat="47.1742" lon="2.98845">
        <ele>151.4</ele>
        <time>2024-08-14T05:12:52Z</time>
      </trkpt>
      <trkpt lat="47.17474" lon="2.98826">
        <ele>151.4</ele>
        <time>2024-08-14T05:13:00Z</time>
      </trkpt>
      <trkpt lat="47.17501" lon="2.98817">
        <ele>151.4</ele>
        <time>2024-08-14T05:13:04Z</time>
      </trkpt>
      <trkpt lat="47.17528" lon="2.98808">
        <ele>151.4</ele>
        <time>2024-08-14T05:13:08Z</time>
      </trkpt>
      <trkpt lat="47.17555" lon="2.98798">
        <ele>151.8</ele>
        <time>2024-08-14T05:13:12Z</time>
      </trkpt>
      <trkpt lat="47.17609" lon="2.98778">
        <ele>151.2</ele>
        <time>2024-08-14T05:13:20Z</time>
      </trkpt>
      <trkpt lat="47.17629" lon="2.9877">
        <ele>151.2</ele>
        <time>2024-08-14T05:13:23Z</time>
      </trkpt>
      <trkpt lat="47.17684" lon="2.98754">
        <ele>151.4</ele>
        <time>2024-08-14T05:13:31Z</time>
      </trkpt>
      <trkpt lat="47.17726" lon="2.98755">
        <ele>151.4</ele>
        <time>2024-08-14T05:13:37Z</time>
      </trkpt>
      <trkpt lat="47.1777" lon="2.98757">
        <ele>151.4</ele>
        <time>2024-08-14T05:13:43Z</time>
      </trkpt>
      <trkpt lat="47.17778" lon="2.98755">
        <ele>151.4</ele>
        <time>2024-08-14T05:13:44Z</time>
      </trkpt>
      <trkpt lat="47.17805" lon="2.98744">
        <ele>151.6</ele>
        <time>2024-08-14T05:13:48Z</time>
      </trkpt>
      <trkpt lat="47.17845" lon="2.98728">
        <ele>151.8</ele>
        <time>2024-08-14T05:13:54Z</time>
      </trkpt>
      <trkpt lat="47.17898" lon="2.98706">
        <ele>152.2</ele>
        <time>2024-08-14T05:14:02Z</time>
      </trkpt>
      <trkpt lat="47.17929" lon="2.98694">
        <ele>152.6</ele>
        <time>2024-08-14T05:14:07Z</time>
      </trkpt>
      <trkpt lat="47.1794" lon="2.98688">
        <ele>152.6</ele>
        <time>2024-08-14T05:14:09Z</time>
      </trkpt>
      <trkpt lat="47.17972" lon="2.98679">
        <ele>153</ele>
        <time>2024-08-14T05:14:14Z</time>
      </trkpt>
      <trkpt lat="47.18024" lon="2.98667">
        <ele>153</ele>
        <time>2024-08-14T05:14:21Z</time>
      </trkpt>
      <trkpt lat="47.18081" lon="2.98647">
        <ele>152.4</ele>
        <time>2024-08-14T05:14:29Z</time>
      </trkpt>
      <trkpt lat="47.18102" lon="2.9864">
        <ele>152.4</ele>
        <time>2024-08-14T05:14:32Z</time>
      </trkpt>
      <trkpt lat="47.18159" lon="2.9862">
        <ele>152.4</ele>
        <time>2024-08-14T05:14:40Z</time>
      </trkpt>
      <trkpt lat="47.18166" lon="2.98618">
        <ele>152.4</ele>
        <time>2024-08-14T05:14:41Z</time>
      </trkpt>
      <trkpt lat="47.18214" lon="2.98597">
        <ele>152.2</ele>
        <time>2024-08-14T05:14:48Z</time>
      </trkpt>
      <trkpt lat="47.1827" lon="2.9857">
        <ele>152.2</ele>
        <time>2024-08-14T05:14:56Z</time>
      </trkpt>
      <trkpt lat="47.18284" lon="2.98563">
        <ele>152.2</ele>
        <time>2024-08-14T05:14:58Z</time>
      </trkpt>
      <trkpt lat="47.1834" lon="2.98546">
        <ele>152.4</ele>
        <time>2024-08-14T05:15:06Z</time>
      </trkpt>
      <trkpt lat="47.18347" lon="2.98544">
        <ele>152.6</ele>
        <time>2024-08-14T05:15:07Z</time>
      </trkpt>
      <trkpt lat="47.18403" lon="2.98532">
        <ele>152.4</ele>
        <time>2024-08-14T05:15:15Z</time>
      </trkpt>
      <trkpt lat="47.18424" lon="2.98527">
        <ele>152.2</ele>
        <time>2024-08-14T05:15:18Z</time>
      </trkpt>
      <trkpt lat="47.18483" lon="2.98514">
        <ele>152</ele>
        <time>2024-08-14T05:15:26Z</time>
      </trkpt>
      <trkpt lat="47.18497" lon="2.9851">
        <ele>152</ele>
        <time>2024-08-14T05:15:28Z</time>
      </trkpt>
      <trkpt lat="47.18554" lon="2.98492">
        <ele>152</ele>
        <time>2024-08-14T05:15:36Z</time>
      </trkpt>
      <trkpt lat="47.18569" lon="2.98484">
        <ele>152</ele>
        <time>2024-08-14T05:15:38Z</time>
      </trkpt>
      <trkpt lat="47.18583" lon="2.98474">
        <ele>152</ele>
        <time>2024-08-14T05:15:40Z</time>
      </trkpt>
      <trkpt lat="47.18618" lon="2.98433">
        <ele>151.6</ele>
        <time>2024-08-14T05:15:46Z</time>
      </trkpt>
      <trkpt lat="47.18631" lon="2.98417">
        <ele>151.4</ele>
        <time>2024-08-14T05:15:48Z</time>
      </trkpt>
      <trkpt lat="47.18665" lon="2.98376">
        <ele>151</ele>
        <time>2024-08-14T05:15:54Z</time>
      </trkpt>
      <trkpt lat="47.18708" lon="2.98321">
        <ele>151</ele>
        <time>2024-08-14T05:16:02Z</time>
      </trkpt>
      <trkpt lat="47.1874" lon="2.98282">
        <ele>151.2</ele>
        <time>2024-08-14T05:16:08Z</time>
      </trkpt>
      <trkpt lat="47.18746" lon="2.98276">
        <ele>151.4</ele>
        <time>2024-08-14T05:16:09Z</time>
      </trkpt>
      <trkpt lat="47.18758" lon="2.98266">
        <ele>151.6</ele>
        <time>2024-08-14T05:16:11Z</time>
      </trkpt>
      <trkpt lat="47.18779" lon="2.98256">
        <ele>152</ele>
        <time>2024-08-14T05:16:14Z</time>
      </trkpt>
      <trkpt lat="47.18834" lon="2.98237">
        <ele>152</ele>
        <time>2024-08-14T05:16:22Z</time>
      </trkpt>
      <trkpt lat="47.18855" lon="2.98232">
        <ele>152</ele>
        <time>2024-08-14T05:16:25Z</time>
      </trkpt>
      <trkpt lat="47.18889" lon="2.9822">
        <ele>152</ele>
        <time>2024-08-14T05:16:30Z</time>
      </trkpt>
      <trkpt lat="47.18945" lon="2.98193">
        <ele>152.2</ele>
        <time>2024-08-14T05:16:38Z</time>
      </trkpt>
      <trkpt lat="47.19004" lon="2.98172">
        <ele>151.8</ele>
        <time>2024-08-14T05:16:46Z</time>
      </trkpt>
      <trkpt lat="47.19011" lon="2.9817">
        <ele>151.8</ele>
        <time>2024-08-14T05:16:47Z</time>
      </trkpt>
      <trkpt lat="47.1907" lon="2.98152">
        <ele>151.2</ele>
        <time>2024-08-14T05:16:55Z</time>
      </trkpt>
      <trkpt lat="47.19077" lon="2.98149">
        <ele>151.2</ele>
        <time>2024-08-14T05:16:56Z</time>
      </trkpt>
      <trkpt lat="47.19137" lon="2.98135">
        <ele>151.2</ele>
        <time>2024-08-14T05:17:04Z</time>
      </trkpt>
      <trkpt lat="47.19144" lon="2.98133">
        <ele>151.2</ele>
        <time>2024-08-14T05:17:05Z</time>
      </trkpt>
      <trkpt lat="47.19201" lon="2.98115">
        <ele>150.8</ele>
        <time>2024-08-14T05:17:13Z</time>
      </trkpt>
      <trkpt lat="47.19208" lon="2.98112">
        <ele>150.8</ele>
        <time>2024-08-14T05:17:14Z</time>
      </trkpt>
      <trkpt lat="47.19263" lon="2.98089">
        <ele>151</ele>
        <time>2024-08-14T05:17:22Z</time>
      </trkpt>
      <trkpt lat="47.19316" lon="2.98071">
        <ele>151.6</ele>
        <time>2024-08-14T05:17:30Z</time>
      </trkpt>
      <trkpt lat="47.19323" lon="2.98069">
        <ele>151.6</ele>
        <time>2024-08-14T05:17:31Z</time>
      </trkpt>
      <trkpt lat="47.19379" lon="2.98047">
        <ele>151.8</ele>
        <time>2024-08-14T05:17:39Z</time>
      </trkpt>
      <trkpt lat="47.19435" lon="2.98023">
        <ele>151.2</ele>
        <time>2024-08-14T05:17:47Z</time>
      </trkpt>
      <trkpt lat="47.19442" lon="2.9802">
        <ele>151.2</ele>
        <time>2024-08-14T05:17:48Z</time>
      </trkpt>
      <trkpt lat="47.19496" lon="2.97989">
        <ele>151.4</ele>
        <time>2024-08-14T05:17:56Z</time>
      </trkpt>
      <trkpt lat="47.19509" lon="2.9798">
        <ele>151.4</ele>
        <time>2024-08-14T05:17:58Z</time>
      </trkpt>
      <trkpt lat="47.19561" lon="2.97942">
        <ele>151.6</ele>
        <time>2024-08-14T05:18:06Z</time>
      </trkpt>
      <trkpt lat="47.19579" lon="2.9793">
        <ele>151.4</ele>
        <time>2024-08-14T05:18:09Z</time>
      </trkpt>
      <trkpt lat="47.19631" lon="2.97891">
        <ele>151.4</ele>
        <time>2024-08-14T05:18:17Z</time>
      </trkpt>
      <trkpt lat="47.19644" lon="2.97882">
        <ele>151.2</ele>
        <time>2024-08-14T05:18:19Z</time>
      </trkpt>
      <trkpt lat="47.19684" lon="2.97852">
        <ele>151.2</ele>
        <time>2024-08-14T05:18:25Z</time>
      </trkpt>
      <trkpt lat="47.19736" lon="2.97815">
        <ele>151.2</ele>
        <time>2024-08-14T05:18:33Z</time>
      </trkpt>
      <trkpt lat="47.19749" lon="2.97805">
        <ele>151.2</ele>
        <time>2024-08-14T05:18:35Z</time>
      </trkpt>
      <trkpt lat="47.19801" lon="2.97767">
        <ele>151.4</ele>
        <time>2024-08-14T05:18:43Z</time>
      </trkpt>
      <trkpt lat="47.19814" lon="2.97758">
        <ele>151.2</ele>
        <time>2024-08-14T05:18:45Z</time>
      </trkpt>
      <trkpt lat="47.19866" lon="2.97719">
        <ele>151.2</ele>
        <time>2024-08-14T05:18:53Z</time>
      </trkpt>
      <trkpt lat="47.19872" lon="2.97715">
        <ele>151.2</ele>
        <time>2024-08-14T05:18:54Z</time>
      </trkpt>
      <trkpt lat="47.19926" lon="2.97679">
        <ele>151.2</ele>
        <time>2024-08-14T05:19:02Z</time>
      </trkpt>
      <trkpt lat="47.19932" lon="2.97675">
        <ele>151.2</ele>
        <time>2024-08-14T05:19:03Z</time>
      </trkpt>
      <trkpt lat="47.19974" lon="2.97644">
        <ele>151.2</ele>
        <time>2024-08-14T05:19:10Z</time>
      </trkpt>
      <trkpt lat="47.19998" lon="2.97627">
        <ele>152</ele>
        <time>2024-08-14T05:19:15Z</time>
      </trkpt>
      <trkpt lat="47.20004" lon="2.97623">
        <ele>152.6</ele>
        <time>2024-08-14T05:19:17Z</time>
      </trkpt>
      <trkpt lat="47.20008" lon="2.9762">
        <ele>152.8</ele>
        <time>2024-08-14T05:19:19Z</time>
      </trkpt>
      <trkpt lat="47.20009" lon="2.97618">
        <ele>153</ele>
        <time>2024-08-14T05:19:20Z</time>
      </trkpt>
      <trkpt lat="47.20009" lon="2.97614">
        <ele>153.6</ele>
        <time>2024-08-14T05:19:22Z</time>
      </trkpt>
      <trkpt lat="47.20009" lon="2.97611">
        <ele>153.8</ele>
        <time>2024-08-14T05:19:23Z</time>
      </trkpt>
      <trkpt lat="47.20006" lon="2.97604">
        <ele>153.8</ele>
        <time>2024-08-14T05:19:26Z</time>
      </trkpt>
      <trkpt lat="47.20006" lon="2.97602">
        <ele>154</ele>
        <time>2024-08-14T05:19:28Z</time>
      </trkpt>
      <trkpt lat="47.20006" lon="2.97602">
        <ele>153.8</ele>
        <time>2024-08-14T05:19:30Z</time>
      </trkpt>
      <trkpt lat="47.20012" lon="2.9761">
        <ele>153.8</ele>
        <time>2024-08-14T05:22:53Z</time>
      </trkpt>
      <trkpt lat="47.20015" lon="2.9761">
        <ele>153.8</ele>
        <time>2024-08-14T05:22:54Z</time>
      </trkpt>
      <trkpt lat="47.20032" lon="2.97605">
        <ele>153.8</ele>
        <time>2024-08-14T05:22:58Z</time>
      </trkpt>
      <trkpt lat="47.20057" lon="2.97591">
        <ele>153.4</ele>
        <time>2024-08-14T05:23:02Z</time>
      </trkpt>
      <trkpt lat="47.20085" lon="2.97575">
        <ele>152.6</ele>
        <time>2024-08-14T05:23:06Z</time>
      </trkpt>
      <trkpt lat="47.20106" lon="2.97561">
        <ele>152.2</ele>
        <time>2024-08-14T05:23:09Z</time>
      </trkpt>
      <trkpt lat="47.2016" lon="2.97526">
        <ele>151.6</ele>
        <time>2024-08-14T05:23:17Z</time>
      </trkpt>
      <trkpt lat="47.20167" lon="2.97521">
        <ele>151.6</ele>
        <time>2024-08-14T05:23:18Z</time>
      </trkpt>
      <trkpt lat="47.2022" lon="2.97486">
        <ele>151.4</ele>
        <time>2024-08-14T05:23:26Z</time>
      </trkpt>
      <trkpt lat="47.20233" lon="2.97478">
        <ele>151.2</ele>
        <time>2024-08-14T05:23:28Z</time>
      </trkpt>
      <trkpt lat="47.20286" lon="2.97439">
        <ele>151.2</ele>
        <time>2024-08-14T05:23:36Z</time>
      </trkpt>
      <trkpt lat="47.20298" lon="2.97428">
        <ele>151.2</ele>
        <time>2024-08-14T05:23:38Z</time>
      </trkpt>
      <trkpt lat="47.20347" lon="2.97379">
        <ele>151.4</ele>
        <time>2024-08-14T05:23:46Z</time>
      </trkpt>
      <trkpt lat="47.20358" lon="2.97365">
        <ele>151.4</ele>
        <time>2024-08-14T05:23:48Z</time>
      </trkpt>
      <trkpt lat="47.204" lon="2.97305">
        <ele>151.6</ele>
        <time>2024-08-14T05:23:56Z</time>
      </trkpt>
      <trkpt lat="47.20405" lon="2.97298">
        <ele>151.6</ele>
        <time>2024-08-14T05:23:57Z</time>
      </trkpt>
      <trkpt lat="47.20445" lon="2.97235">
        <ele>151.6</ele>
        <time>2024-08-14T05:24:05Z</time>
      </trkpt>
      <trkpt lat="47.20465" lon="2.97204">
        <ele>151.6</ele>
        <time>2024-08-14T05:24:09Z</time>
      </trkpt>
      <trkpt lat="47.20501" lon="2.97149">
        <ele>151.6</ele>
        <time>2024-08-14T05:24:16Z</time>
      </trkpt>
      <trkpt lat="47.20545" lon="2.97092">
        <ele>151.4</ele>
        <time>2024-08-14T05:24:24Z</time>
      </trkpt>
      <trkpt lat="47.20551" lon="2.97085">
        <ele>151.4</ele>
        <time>2024-08-14T05:24:25Z</time>
      </trkpt>
      <trkpt lat="47.20595" lon="2.9703">
        <ele>151.4</ele>
        <time>2024-08-14T05:24:33Z</time>
      </trkpt>
      <trkpt lat="47.20611" lon="2.97008">
        <ele>151.4</ele>
        <time>2024-08-14T05:24:36Z</time>
      </trkpt>
      <trkpt lat="47.20636" lon="2.96953">
        <ele>151.4</ele>
        <time>2024-08-14T05:24:42Z</time>
      </trkpt>
      <trkpt lat="47.20669" lon="2.96878">
        <ele>151</ele>
        <time>2024-08-14T05:24:50Z</time>
      </trkpt>
      <trkpt lat="47.20702" lon="2.9682">
        <ele>151</ele>
        <time>2024-08-14T05:24:57Z</time>
      </trkpt>
      <trkpt lat="47.2074" lon="2.96757">
        <ele>151.4</ele>
        <time>2024-08-14T05:25:05Z</time>
      </trkpt>
      <trkpt lat="47.20778" lon="2.96695">
        <ele>151.6</ele>
        <time>2024-08-14T05:25:13Z</time>
      </trkpt>
      <trkpt lat="47.20783" lon="2.96687">
        <ele>151.6</ele>
        <time>2024-08-14T05:25:14Z</time>
      </trkpt>
      <trkpt lat="47.20818" lon="2.96622">
        <ele>151.8</ele>
        <time>2024-08-14T05:25:22Z</time>
      </trkpt>
      <trkpt lat="47.20823" lon="2.96613">
        <ele>151.8</ele>
        <time>2024-08-14T05:25:23Z</time>
      </trkpt>
      <trkpt lat="47.20856" lon="2.96545">
        <ele>151.8</ele>
        <time>2024-08-14T05:25:31Z</time>
      </trkpt>
      <trkpt lat="47.20888" lon="2.96478">
        <ele>152</ele>
        <time>2024-08-14T05:25:39Z</time>
      </trkpt>
      <trkpt lat="47.20917" lon="2.96421">
        <ele>152</ele>
        <time>2024-08-14T05:25:46Z</time>
      </trkpt>
      <trkpt lat="47.20954" lon="2.96358">
        <ele>152.6</ele>
        <time>2024-08-14T05:25:54Z</time>
      </trkpt>
      <trkpt lat="47.20959" lon="2.9635">
        <ele>152.6</ele>
        <time>2024-08-14T05:25:55Z</time>
      </trkpt>
      <trkpt lat="47.20963" lon="2.96342">
        <ele>152.6</ele>
        <time>2024-08-14T05:25:56Z</time>
      </trkpt>
      <trkpt lat="47.20998" lon="2.96286">
        <ele>152.8</ele>
        <time>2024-08-14T05:26:03Z</time>
      </trkpt>
      <trkpt lat="47.21037" lon="2.9622">
        <ele>152.2</ele>
        <time>2024-08-14T05:26:11Z</time>
      </trkpt>
      <trkpt lat="47.21042" lon="2.96212">
        <ele>152.4</ele>
        <time>2024-08-14T05:26:12Z</time>
      </trkpt>
      <trkpt lat="47.2108" lon="2.96151">
        <ele>152.2</ele>
        <time>2024-08-14T05:26:20Z</time>
      </trkpt>
      <trkpt lat="47.21084" lon="2.96143">
        <ele>152.2</ele>
        <time>2024-08-14T05:26:21Z</time>
      </trkpt>
      <trkpt lat="47.21121" lon="2.96083">
        <ele>152.8</ele>
        <time>2024-08-14T05:26:29Z</time>
      </trkpt>
      <trkpt lat="47.21158" lon="2.96022">
        <ele>153.2</ele>
        <time>2024-08-14T05:26:37Z</time>
      </trkpt>
      <trkpt lat="47.21173" lon="2.95999">
        <ele>153.4</ele>
        <time>2024-08-14T05:26:40Z</time>
      </trkpt>
      <trkpt lat="47.21204" lon="2.95958">
        <ele>153.8</ele>
        <time>2024-08-14T05:26:46Z</time>
      </trkpt>
      <trkpt lat="47.2125" lon="2.95907">
        <ele>154.2</ele>
        <time>2024-08-14T05:26:54Z</time>
      </trkpt>
      <trkpt lat="47.21272" lon="2.95882">
        <ele>154.2</ele>
        <time>2024-08-14T05:26:58Z</time>
      </trkpt>
      <trkpt lat="47.21294" lon="2.95857">
        <ele>154.4</ele>
        <time>2024-08-14T05:27:02Z</time>
      </trkpt>
      <trkpt lat="47.21323" lon="2.95825">
        <ele>154.6</ele>
        <time>2024-08-14T05:27:07Z</time>
      </trkpt>
      <trkpt lat="47.21361" lon="2.95783">
        <ele>154.2</ele>
        <time>2024-08-14T05:27:13Z</time>
      </trkpt>
      <trkpt lat="47.21389" lon="2.95752">
        <ele>153.4</ele>
        <time>2024-08-14T05:27:17Z</time>
      </trkpt>
      <trkpt lat="47.2141" lon="2.95728">
        <ele>152.8</ele>
        <time>2024-08-14T05:27:20Z</time>
      </trkpt>
      <trkpt lat="47.21424" lon="2.95712">
        <ele>152.2</ele>
        <time>2024-08-14T05:27:22Z</time>
      </trkpt>
      <trkpt lat="47.21451" lon="2.95683">
        <ele>151.4</ele>
        <time>2024-08-14T05:27:26Z</time>
      </trkpt>
      <trkpt lat="47.21464" lon="2.95668">
        <ele>151.2</ele>
        <time>2024-08-14T05:27:28Z</time>
      </trkpt>
      <trkpt lat="47.21483" lon="2.95646">
        <ele>150.8</ele>
        <time>2024-08-14T05:27:31Z</time>
      </trkpt>
      <trkpt lat="47.21527" lon="2.95604">
        <ele>150.6</ele>
        <time>2024-08-14T05:27:38Z</time>
      </trkpt>
      <trkpt lat="47.21571" lon="2.95578">
        <ele>150.6</ele>
        <time>2024-08-14T05:27:44Z</time>
      </trkpt>
      <trkpt lat="47.21603" lon="2.95552">
        <ele>150.6</ele>
        <time>2024-08-14T05:27:49Z</time>
      </trkpt>
      <trkpt lat="47.21639" lon="2.95515">
        <ele>150.8</ele>
        <time>2024-08-14T05:27:55Z</time>
      </trkpt>
      <trkpt lat="47.21643" lon="2.95507">
        <ele>151</ele>
        <time>2024-08-14T05:27:56Z</time>
      </trkpt>
      <trkpt lat="47.21655" lon="2.95481">
        <ele>151.2</ele>
        <time>2024-08-14T05:27:59Z</time>
      </trkpt>
      <trkpt lat="47.21666" lon="2.95456">
        <ele>151.4</ele>
        <time>2024-08-14T05:28:02Z</time>
      </trkpt>
      <trkpt lat="47.21672" lon="2.9544">
        <ele>151.6</ele>
        <time>2024-08-14T05:28:04Z</time>
      </trkpt>
      <trkpt lat="47.21679" lon="2.9541">
        <ele>152.2</ele>
        <time>2024-08-14T05:28:08Z</time>
      </trkpt>
      <trkpt lat="47.21681" lon="2.95401">
        <ele>152.6</ele>
        <time>2024-08-14T05:28:09Z</time>
      </trkpt>
      <trkpt lat="47.21684" lon="2.95395">
        <ele>152.8</ele>
        <time>2024-08-14T05:28:10Z</time>
      </trkpt>
      <trkpt lat="47.21688" lon="2.9539">
        <ele>152.8</ele>
        <time>2024-08-14T05:28:11Z</time>
      </trkpt>
      <trkpt lat="47.21697" lon="2.95381">
        <ele>153.4</ele>
        <time>2024-08-14T05:28:13Z</time>
      </trkpt>
      <trkpt lat="47.21703" lon="2.95377">
        <ele>153.8</ele>
        <time>2024-08-14T05:28:14Z</time>
      </trkpt>
      <trkpt lat="47.21737" lon="2.95346">
        <ele>154.4</ele>
        <time>2024-08-14T05:28:20Z</time>
      </trkpt>
      <trkpt lat="47.21783" lon="2.95303">
        <ele>154.6</ele>
        <time>2024-08-14T05:28:28Z</time>
      </trkpt>
      <trkpt lat="47.21814" lon="2.95273">
        <ele>154.6</ele>
        <time>2024-08-14T05:28:33Z</time>
      </trkpt>
      <trkpt lat="47.21859" lon="2.95226">
        <ele>153.4</ele>
        <time>2024-08-14T05:28:40Z</time>
      </trkpt>
      <trkpt lat="47.21866" lon="2.95219">
        <ele>153.2</ele>
        <time>2024-08-14T05:28:41Z</time>
      </trkpt>
      <trkpt lat="47.219" lon="2.95186">
        <ele>152.2</ele>
        <time>2024-08-14T05:28:46Z</time>
      </trkpt>
      <trkpt lat="47.2193" lon="2.95159">
        <ele>152</ele>
        <time>2024-08-14T05:28:51Z</time>
      </trkpt>
      <trkpt lat="47.21934" lon="2.95154">
        <ele>152</ele>
        <time>2024-08-14T05:28:52Z</time>
      </trkpt>
      <trkpt lat="47.21957" lon="2.95134">
        <ele>153.2</ele>
        <time>2024-08-14T05:28:57Z</time>
      </trkpt>
      <trkpt lat="47.21962" lon="2.95131">
        <ele>154</ele>
        <time>2024-08-14T05:28:58Z</time>
      </trkpt>
      <trkpt lat="47.21966" lon="2.95127">
        <ele>154.2</ele>
        <time>2024-08-14T05:28:59Z</time>
      </trkpt>
      <trkpt lat="47.21979" lon="2.95116">
        <ele>155.2</ele>
        <time>2024-08-14T05:29:02Z</time>
      </trkpt>
      <trkpt lat="47.21984" lon="2.95111">
        <ele>155.4</ele>
        <time>2024-08-14T05:29:03Z</time>
      </trkpt>
      <trkpt lat="47.2202" lon="2.95073">
        <ele>156.2</ele>
        <time>2024-08-14T05:29:10Z</time>
      </trkpt>
      <trkpt lat="47.22025" lon="2.95068">
        <ele>156.2</ele>
        <time>2024-08-14T05:29:11Z</time>
      </trkpt>
      <trkpt lat="47.2207" lon="2.95023">
        <ele>157.2</ele>
        <time>2024-08-14T05:29:20Z</time>
      </trkpt>
      <trkpt lat="47.22081" lon="2.95013">
        <ele>157.2</ele>
        <time>2024-08-14T05:29:22Z</time>
      </trkpt>
      <trkpt lat="47.22107" lon="2.94986">
        <ele>157.6</ele>
        <time>2024-08-14T05:29:27Z</time>
      </trkpt>
      <trkpt lat="47.22148" lon="2.94947">
        <ele>157.6</ele>
        <time>2024-08-14T05:29:34Z</time>
      </trkpt>
      <trkpt lat="47.22185" lon="2.94922">
        <ele>157</ele>
        <time>2024-08-14T05:29:39Z</time>
      </trkpt>
      <trkpt lat="47.22223" lon="2.94905">
        <ele>156.2</ele>
        <time>2024-08-14T05:29:44Z</time>
      </trkpt>
      <trkpt lat="47.22231" lon="2.94901">
        <ele>156</ele>
        <time>2024-08-14T05:29:45Z</time>
      </trkpt>
      <trkpt lat="47.22286" lon="2.94872">
        <ele>155</ele>
        <time>2024-08-14T05:29:52Z</time>
      </trkpt>
      <trkpt lat="47.22294" lon="2.94867">
        <ele>154.8</ele>
        <time>2024-08-14T05:29:53Z</time>
      </trkpt>
      <trkpt lat="47.22329" lon="2.94843">
        <ele>154</ele>
        <time>2024-08-14T05:29:58Z</time>
      </trkpt>
      <trkpt lat="47.22336" lon="2.94837">
        <ele>153.8</ele>
        <time>2024-08-14T05:29:59Z</time>
      </trkpt>
      <trkpt lat="47.22379" lon="2.94805">
        <ele>153.2</ele>
        <time>2024-08-14T05:30:05Z</time>
      </trkpt>
      <trkpt lat="47.22434" lon="2.94767">
        <ele>153.2</ele>
        <time>2024-08-14T05:30:13Z</time>
      </trkpt>
      <trkpt lat="47.22483" lon="2.94732">
        <ele>153.2</ele>
        <time>2024-08-14T05:30:20Z</time>
      </trkpt>
      <trkpt lat="47.22497" lon="2.94722">
        <ele>153.2</ele>
        <time>2024-08-14T05:30:22Z</time>
      </trkpt>
      <trkpt lat="47.2255" lon="2.94684">
        <ele>153.2</ele>
        <time>2024-08-14T05:30:30Z</time>
      </trkpt>
      <trkpt lat="47.22571" lon="2.94669">
        <ele>153.2</ele>
        <time>2024-08-14T05:30:33Z</time>
      </trkpt>
      <trkpt lat="47.226" lon="2.94648">
        <ele>153</ele>
        <time>2024-08-14T05:30:37Z</time>
      </trkpt>
      <trkpt lat="47.22627" lon="2.94631">
        <ele>152.6</ele>
        <time>2024-08-14T05:30:41Z</time>
      </trkpt>
      <trkpt lat="47.22651" lon="2.94614">
        <ele>152.6</ele>
        <time>2024-08-14T05:30:45Z</time>
      </trkpt>
      <trkpt lat="47.22678" lon="2.94598">
        <ele>154.2</ele>
        <time>2024-08-14T05:30:50Z</time>
      </trkpt>
      <trkpt lat="47.22684" lon="2.94595">
        <ele>154.6</ele>
        <time>2024-08-14T05:30:51Z</time>
      </trkpt>
      <trkpt lat="47.22695" lon="2.9459">
        <ele>155.4</ele>
        <time>2024-08-14T05:30:53Z</time>
      </trkpt>
      <trkpt lat="47.22719" lon="2.94577">
        <ele>156.4</ele>
        <time>2024-08-14T05:30:57Z</time>
      </trkpt>
      <trkpt lat="47.22725" lon="2.94574">
        <ele>156.6</ele>
        <time>2024-08-14T05:30:58Z</time>
      </trkpt>
      <trkpt lat="47.22737" lon="2.94566">
        <ele>156.6</ele>
        <time>2024-08-14T05:31:00Z</time>
      </trkpt>
      <trkpt lat="47.22753" lon="2.9455">
        <ele>156.8</ele>
        <time>2024-08-14T05:31:03Z</time>
      </trkpt>
      <trkpt lat="47.22763" lon="2.94538">
        <ele>157</ele>
        <time>2024-08-14T05:31:05Z</time>
      </trkpt>
      <trkpt lat="47.22775" lon="2.94516">
        <ele>157.4</ele>
        <time>2024-08-14T05:31:08Z</time>
      </trkpt>
      <trkpt lat="47.22793" lon="2.94468">
        <ele>157.8</ele>
        <time>2024-08-14T05:31:14Z</time>
      </trkpt>
      <trkpt lat="47.22796" lon="2.9446">
        <ele>157.8</ele>
        <time>2024-08-14T05:31:15Z</time>
      </trkpt>
      <trkpt lat="47.22818" lon="2.94413">
        <ele>158</ele>
        <time>2024-08-14T05:31:21Z</time>
      </trkpt>
      <trkpt lat="47.22845" lon="2.9436">
        <ele>158.4</ele>
        <time>2024-08-14T05:31:28Z</time>
      </trkpt>
      <trkpt lat="47.22866" lon="2.94323">
        <ele>158.8</ele>
        <time>2024-08-14T05:31:33Z</time>
      </trkpt>
      <trkpt lat="47.22881" lon="2.943">
        <ele>158.8</ele>
        <time>2024-08-14T05:31:36Z</time>
      </trkpt>
      <trkpt lat="47.22918" lon="2.94251">
        <ele>157.8</ele>
        <time>2024-08-14T05:31:42Z</time>
      </trkpt>
      <trkpt lat="47.22926" lon="2.94242">
        <ele>157.2</ele>
        <time>2024-08-14T05:31:43Z</time>
      </trkpt>
      <trkpt lat="47.22954" lon="2.94205">
        <ele>155.8</ele>
        <time>2024-08-14T05:31:47Z</time>
      </trkpt>
      <trkpt lat="47.22973" lon="2.9418">
        <ele>155</ele>
        <time>2024-08-14T05:31:50Z</time>
      </trkpt>
      <trkpt lat="47.23001" lon="2.94145">
        <ele>155</ele>
        <time>2024-08-14T05:31:55Z</time>
      </trkpt>
      <trkpt lat="47.2303" lon="2.94113">
        <ele>156.4</ele>
        <time>2024-08-14T05:32:01Z</time>
      </trkpt>
      <trkpt lat="47.2304" lon="2.94105">
        <ele>157</ele>
        <time>2024-08-14T05:32:03Z</time>
      </trkpt>
      <trkpt lat="47.23062" lon="2.94084">
        <ele>158.2</ele>
        <time>2024-08-14T05:32:08Z</time>
      </trkpt>
      <trkpt lat="47.23067" lon="2.94078">
        <ele>158.6</ele>
        <time>2024-08-14T05:32:09Z</time>
      </trkpt>
      <trkpt lat="47.23079" lon="2.94056">
        <ele>159</ele>
        <time>2024-08-14T05:32:12Z</time>
      </trkpt>
      <trkpt lat="47.23089" lon="2.94029">
        <ele>159</ele>
        <time>2024-08-14T05:32:15Z</time>
      </trkpt>
      <trkpt lat="47.23092" lon="2.94019">
        <ele>158.8</ele>
        <time>2024-08-14T05:32:16Z</time>
      </trkpt>
      <trkpt lat="47.23108" lon="2.93969">
        <ele>158.2</ele>
        <time>2024-08-14T05:32:21Z</time>
      </trkpt>
      <trkpt lat="47.23118" lon="2.93952">
        <ele>158</ele>
        <time>2024-08-14T05:32:23Z</time>
      </trkpt>
      <trkpt lat="47.2313" lon="2.9394">
        <ele>158</ele>
        <time>2024-08-14T05:32:25Z</time>
      </trkpt>
      <trkpt lat="47.23178" lon="2.93905">
        <ele>158</ele>
        <time>2024-08-14T05:32:32Z</time>
      </trkpt>
      <trkpt lat="47.23219" lon="2.93891">
        <ele>157</ele>
        <time>2024-08-14T05:32:37Z</time>
      </trkpt>
      <trkpt lat="47.23228" lon="2.93888">
        <ele>156.6</ele>
        <time>2024-08-14T05:32:38Z</time>
      </trkpt>
      <trkpt lat="47.23246" lon="2.93883">
        <ele>156</ele>
        <time>2024-08-14T05:32:40Z</time>
      </trkpt>
      <trkpt lat="47.23298" lon="2.93868">
        <ele>155</ele>
        <time>2024-08-14T05:32:46Z</time>
      </trkpt>
      <trkpt lat="47.23306" lon="2.93865">
        <ele>154.8</ele>
        <time>2024-08-14T05:32:47Z</time>
      </trkpt>
      <trkpt lat="47.2335" lon="2.93858">
        <ele>154.8</ele>
        <time>2024-08-14T05:32:53Z</time>
      </trkpt>
      <trkpt lat="47.23357" lon="2.93858">
        <ele>155.2</ele>
        <time>2024-08-14T05:32:54Z</time>
      </trkpt>
      <trkpt lat="47.2337" lon="2.93858">
        <ele>155.4</ele>
        <time>2024-08-14T05:32:56Z</time>
      </trkpt>
      <trkpt lat="47.23382" lon="2.93858">
        <ele>155.8</ele>
        <time>2024-08-14T05:32:58Z</time>
      </trkpt>
      <trkpt lat="47.23388" lon="2.93859">
        <ele>156.2</ele>
        <time>2024-08-14T05:32:59Z</time>
      </trkpt>
      <trkpt lat="47.23412" lon="2.93863">
        <ele>157.4</ele>
        <time>2024-08-14T05:33:03Z</time>
      </trkpt>
      <trkpt lat="47.23427" lon="2.93863">
        <ele>158.6</ele>
        <time>2024-08-14T05:33:06Z</time>
      </trkpt>
      <trkpt lat="47.23454" lon="2.93864">
        <ele>159.6</ele>
        <time>2024-08-14T05:33:11Z</time>
      </trkpt>
      <trkpt lat="47.23505" lon="2.93866">
        <ele>160.6</ele>
        <time>2024-08-14T05:33:19Z</time>
      </trkpt>
      <trkpt lat="47.23547" lon="2.93865">
        <ele>160.6</ele>
        <time>2024-08-14T05:33:25Z</time>
      </trkpt>
      <trkpt lat="47.23604" lon="2.93855">
        <ele>160.2</ele>
        <time>2024-08-14T05:33:33Z</time>
      </trkpt>
      <trkpt lat="47.23658" lon="2.93836">
        <ele>160.2</ele>
        <time>2024-08-14T05:33:41Z</time>
      </trkpt>
      <trkpt lat="47.23666" lon="2.93833">
        <ele>160.2</ele>
        <time>2024-08-14T05:33:42Z</time>
      </trkpt>
      <trkpt lat="47.23722" lon="2.93809">
        <ele>160</ele>
        <time>2024-08-14T05:33:50Z</time>
      </trkpt>
      <trkpt lat="47.23754" lon="2.93781">
        <ele>159.8</ele>
        <time>2024-08-14T05:33:55Z</time>
      </trkpt>
      <trkpt lat="47.23785" lon="2.93739">
        <ele>160</ele>
        <time>2024-08-14T05:34:01Z</time>
      </trkpt>
      <trkpt lat="47.23816" lon="2.93704">
        <ele>160.4</ele>
        <time>2024-08-14T05:34:07Z</time>
      </trkpt>
      <trkpt lat="47.23861" lon="2.93661">
        <ele>161</ele>
        <time>2024-08-14T05:34:15Z</time>
      </trkpt>
      <trkpt lat="47.23904" lon="2.9362">
        <ele>161</ele>
        <time>2024-08-14T05:34:22Z</time>
      </trkpt>
      <trkpt lat="47.23941" lon="2.93565">
        <ele>160.4</ele>
        <time>2024-08-14T05:34:29Z</time>
      </trkpt>
      <trkpt lat="47.23977" lon="2.93497">
        <ele>160</ele>
        <time>2024-08-14T05:34:37Z</time>
      </trkpt>
      <trkpt lat="47.23982" lon="2.93488">
        <ele>160</ele>
        <time>2024-08-14T05:34:38Z</time>
      </trkpt>
      <trkpt lat="47.24023" lon="2.93429">
        <ele>159.8</ele>
        <time>2024-08-14T05:34:46Z</time>
      </trkpt>
      <trkpt lat="47.24033" lon="2.93415">
        <ele>159.8</ele>
        <time>2024-08-14T05:34:48Z</time>
      </trkpt>
      <trkpt lat="47.24047" lon="2.93395">
        <ele>159.8</ele>
        <time>2024-08-14T05:34:51Z</time>
      </trkpt>
      <trkpt lat="47.24065" lon="2.93366">
        <ele>160.2</ele>
        <time>2024-08-14T05:34:55Z</time>
      </trkpt>
      <trkpt lat="47.24078" lon="2.93345">
        <ele>160.4</ele>
        <time>2024-08-14T05:34:58Z</time>
      </trkpt>
      <trkpt lat="47.24089" lon="2.93323">
        <ele>160.6</ele>
        <time>2024-08-14T05:35:01Z</time>
      </trkpt>
      <trkpt lat="47.24118" lon="2.93265">
        <ele>161.4</ele>
        <time>2024-08-14T05:35:09Z</time>
      </trkpt>
      <trkpt lat="47.24133" lon="2.93234">
        <ele>161.8</ele>
        <time>2024-08-14T05:35:13Z</time>
      </trkpt>
      <trkpt lat="47.24149" lon="2.93204">
        <ele>162.2</ele>
        <time>2024-08-14T05:35:17Z</time>
      </trkpt>
      <trkpt lat="47.24166" lon="2.9316">
        <ele>162.4</ele>
        <time>2024-08-14T05:35:22Z</time>
      </trkpt>
      <trkpt lat="47.24171" lon="2.93137">
        <ele>162.4</ele>
        <time>2024-08-14T05:35:24Z</time>
      </trkpt>
      <trkpt lat="47.24174" lon="2.93082">
        <ele>161.6</ele>
        <time>2024-08-14T05:35:29Z</time>
      </trkpt>
      <trkpt lat="47.24174" lon="2.92999">
        <ele>160.8</ele>
        <time>2024-08-14T05:35:37Z</time>
      </trkpt>
      <trkpt lat="47.24173" lon="2.92989">
        <ele>160.8</ele>
        <time>2024-08-14T05:35:38Z</time>
      </trkpt>
      <trkpt lat="47.24172" lon="2.9292">
        <ele>160.8</ele>
        <time>2024-08-14T05:35:45Z</time>
      </trkpt>
      <trkpt lat="47.24176" lon="2.92863">
        <ele>161</ele>
        <time>2024-08-14T05:35:51Z</time>
      </trkpt>
      <trkpt lat="47.24192" lon="2.92783">
        <ele>161</ele>
        <time>2024-08-14T05:35:59Z</time>
      </trkpt>
      <trkpt lat="47.24195" lon="2.92774">
        <ele>161.2</ele>
        <time>2024-08-14T05:36:00Z</time>
      </trkpt>
      <trkpt lat="47.24218" lon="2.92725">
        <ele>161.4</ele>
        <time>2024-08-14T05:36:06Z</time>
      </trkpt>
      <trkpt lat="47.24246" lon="2.92679">
        <ele>162</ele>
        <time>2024-08-14T05:36:13Z</time>
      </trkpt>
      <trkpt lat="47.24259" lon="2.92657">
        <ele>162.8</ele>
        <time>2024-08-14T05:36:17Z</time>
      </trkpt>
      <trkpt lat="47.24266" lon="2.92646">
        <ele>163.2</ele>
        <time>2024-08-14T05:36:19Z</time>
      </trkpt>
      <trkpt lat="47.24276" lon="2.92631">
        <ele>164</ele>
        <time>2024-08-14T05:36:22Z</time>
      </trkpt>
      <trkpt lat="47.24284" lon="2.92622">
        <ele>164.6</ele>
        <time>2024-08-14T05:36:24Z</time>
      </trkpt>
      <trkpt lat="47.24291" lon="2.92615">
        <ele>165.2</ele>
        <time>2024-08-14T05:36:26Z</time>
      </trkpt>
      <trkpt lat="47.24307" lon="2.92601">
        <ele>166.2</ele>
        <time>2024-08-14T05:36:30Z</time>
      </trkpt>
      <trkpt lat="47.24324" lon="2.92585">
        <ele>167.2</ele>
        <time>2024-08-14T05:36:34Z</time>
      </trkpt>
      <trkpt lat="47.24328" lon="2.92581">
        <ele>167.4</ele>
        <time>2024-08-14T05:36:35Z</time>
      </trkpt>
      <trkpt lat="47.24347" lon="2.92563">
        <ele>168.4</ele>
        <time>2024-08-14T05:36:39Z</time>
      </trkpt>
      <trkpt lat="47.2436" lon="2.92551">
        <ele>168.8</ele>
        <time>2024-08-14T05:36:42Z</time>
      </trkpt>
      <trkpt lat="47.24398" lon="2.92521">
        <ele>169</ele>
        <time>2024-08-14T05:36:49Z</time>
      </trkpt>
      <trkpt lat="47.24439" lon="2.92489">
        <ele>168.8</ele>
        <time>2024-08-14T05:36:56Z</time>
      </trkpt>
      <trkpt lat="47.24477" lon="2.92447">
        <ele>168.6</ele>
        <time>2024-08-14T05:37:03Z</time>
      </trkpt>
      <trkpt lat="47.24481" lon="2.9244">
        <ele>168.6</ele>
        <time>2024-08-14T05:37:04Z</time>
      </trkpt>
      <trkpt lat="47.24492" lon="2.92414">
        <ele>168.6</ele>
        <time>2024-08-14T05:37:07Z</time>
      </trkpt>
      <trkpt lat="47.24494" lon="2.92407">
        <ele>168.6</ele>
        <time>2024-08-14T05:37:08Z</time>
      </trkpt>
      <trkpt lat="47.24507" lon="2.9236">
        <ele>169.6</ele>
        <time>2024-08-14T05:37:14Z</time>
      </trkpt>
      <trkpt lat="47.2451" lon="2.92351">
        <ele>169.6</ele>
        <time>2024-08-14T05:37:15Z</time>
      </trkpt>
      <trkpt lat="47.2452" lon="2.92311">
        <ele>170</ele>
        <time>2024-08-14T05:37:20Z</time>
      </trkpt>
      <trkpt lat="47.24526" lon="2.92281">
        <ele>170.8</ele>
        <time>2024-08-14T05:37:24Z</time>
      </trkpt>
      <trkpt lat="47.24533" lon="2.92244">
        <ele>171.2</ele>
        <time>2024-08-14T05:37:28Z</time>
      </trkpt>
      <trkpt lat="47.2454" lon="2.9219">
        <ele>171.8</ele>
        <time>2024-08-14T05:37:34Z</time>
      </trkpt>
      <trkpt lat="47.24542" lon="2.9217">
        <ele>172</ele>
        <time>2024-08-14T05:37:36Z</time>
      </trkpt>
      <trkpt lat="47.24551" lon="2.92109">
        <ele>172.6</ele>
        <time>2024-08-14T05:37:43Z</time>
      </trkpt>
      <trkpt lat="47.24557" lon="2.92056">
        <ele>172.8</ele>
        <time>2024-08-14T05:37:49Z</time>
      </trkpt>
      <trkpt lat="47.24559" lon="2.92037">
        <ele>173.4</ele>
        <time>2024-08-14T05:37:51Z</time>
      </trkpt>
      <trkpt lat="47.24566" lon="2.91985">
        <ele>174</ele>
        <time>2024-08-14T05:37:57Z</time>
      </trkpt>
      <trkpt lat="47.24571" lon="2.91956">
        <ele>174</ele>
        <time>2024-08-14T05:38:00Z</time>
      </trkpt>
      <trkpt lat="47.24579" lon="2.91934">
        <ele>174.2</ele>
        <time>2024-08-14T05:38:03Z</time>
      </trkpt>
      <trkpt lat="47.24589" lon="2.91919">
        <ele>174.2</ele>
        <time>2024-08-14T05:38:05Z</time>
      </trkpt>
      <trkpt lat="47.24634" lon="2.91863">
        <ele>174.6</ele>
        <time>2024-08-14T05:38:14Z</time>
      </trkpt>
      <trkpt lat="47.24644" lon="2.91852">
        <ele>174.6</ele>
        <time>2024-08-14T05:38:16Z</time>
      </trkpt>
      <trkpt lat="47.24686" lon="2.91798">
        <ele>174.8</ele>
        <time>2024-08-14T05:38:24Z</time>
      </trkpt>
      <trkpt lat="47.24692" lon="2.91791">
        <ele>174.8</ele>
        <time>2024-08-14T05:38:25Z</time>
      </trkpt>
      <trkpt lat="47.24735" lon="2.91736">
        <ele>174.6</ele>
        <time>2024-08-14T05:38:33Z</time>
      </trkpt>
      <trkpt lat="47.24751" lon="2.91715">
        <ele>174.4</ele>
        <time>2024-08-14T05:38:36Z</time>
      </trkpt>
      <trkpt lat="47.24796" lon="2.91658">
        <ele>174.2</ele>
        <time>2024-08-14T05:38:44Z</time>
      </trkpt>
      <trkpt lat="47.24802" lon="2.91651">
        <ele>174</ele>
        <time>2024-08-14T05:38:45Z</time>
      </trkpt>
      <trkpt lat="47.24846" lon="2.91595">
        <ele>173.8</ele>
        <time>2024-08-14T05:38:53Z</time>
      </trkpt>
      <trkpt lat="47.24873" lon="2.91561">
        <ele>173.8</ele>
        <time>2024-08-14T05:38:58Z</time>
      </trkpt>
      <trkpt lat="47.2491" lon="2.91515">
        <ele>174.4</ele>
        <time>2024-08-14T05:39:05Z</time>
      </trkpt>
      <trkpt lat="47.24942" lon="2.91475">
        <ele>174.4</ele>
        <time>2024-08-14T05:39:11Z</time>
      </trkpt>
      <trkpt lat="47.24984" lon="2.91421">
        <ele>174.6</ele>
        <time>2024-08-14T05:39:19Z</time>
      </trkpt>
      <trkpt lat="47.2499" lon="2.91414">
        <ele>174.6</ele>
        <time>2024-08-14T05:39:20Z</time>
      </trkpt>
      <trkpt lat="47.25034" lon="2.91357">
        <ele>174.4</ele>
        <time>2024-08-14T05:39:28Z</time>
      </trkpt>
      <trkpt lat="47.25073" lon="2.91305">
        <ele>173.8</ele>
        <time>2024-08-14T05:39:35Z</time>
      </trkpt>
      <trkpt lat="47.25114" lon="2.91254">
        <ele>173.4</ele>
        <time>2024-08-14T05:39:42Z</time>
      </trkpt>
      <trkpt lat="47.25144" lon="2.91215">
        <ele>173</ele>
        <time>2024-08-14T05:39:47Z</time>
      </trkpt>
      <trkpt lat="47.2515" lon="2.91208">
        <ele>172.8</ele>
        <time>2024-08-14T05:39:48Z</time>
      </trkpt>
      <trkpt lat="47.25185" lon="2.91165">
        <ele>172.4</ele>
        <time>2024-08-14T05:39:54Z</time>
      </trkpt>
      <trkpt lat="47.25218" lon="2.91125">
        <ele>172.4</ele>
        <time>2024-08-14T05:40:00Z</time>
      </trkpt>
      <trkpt lat="47.2525" lon="2.91087">
        <ele>173</ele>
        <time>2024-08-14T05:40:06Z</time>
      </trkpt>
      <trkpt lat="47.25272" lon="2.91061">
        <ele>173.2</ele>
        <time>2024-08-14T05:40:10Z</time>
      </trkpt>
      <trkpt lat="47.25277" lon="2.91054">
        <ele>173.2</ele>
        <time>2024-08-14T05:40:11Z</time>
      </trkpt>
      <trkpt lat="47.25308" lon="2.91012">
        <ele>173.2</ele>
        <time>2024-08-14T05:40:17Z</time>
      </trkpt>
      <trkpt lat="47.2534" lon="2.90985">
        <ele>173.2</ele>
        <time>2024-08-14T05:40:22Z</time>
      </trkpt>
      <trkpt lat="47.25388" lon="2.90965">
        <ele>173.2</ele>
        <time>2024-08-14T05:40:29Z</time>
      </trkpt>
      <trkpt lat="47.25416" lon="2.90951">
        <ele>173.4</ele>
        <time>2024-08-14T05:40:33Z</time>
      </trkpt>
      <trkpt lat="47.25422" lon="2.90945">
        <ele>173.4</ele>
        <time>2024-08-14T05:40:34Z</time>
      </trkpt>
      <trkpt lat="47.25427" lon="2.90938">
        <ele>173.6</ele>
        <time>2024-08-14T05:40:35Z</time>
      </trkpt>
      <trkpt lat="47.25441" lon="2.90914">
        <ele>173.8</ele>
        <time>2024-08-14T05:40:38Z</time>
      </trkpt>
      <trkpt lat="47.25453" lon="2.90889">
        <ele>174</ele>
        <time>2024-08-14T05:40:41Z</time>
      </trkpt>
      <trkpt lat="47.25484" lon="2.90829">
        <ele>174.2</ele>
        <time>2024-08-14T05:40:48Z</time>
      </trkpt>
      <trkpt lat="47.25522" lon="2.90774">
        <ele>174.2</ele>
        <time>2024-08-14T05:40:55Z</time>
      </trkpt>
      <trkpt lat="47.25569" lon="2.90734">
        <ele>173.8</ele>
        <time>2024-08-14T05:41:02Z</time>
      </trkpt>
      <trkpt lat="47.25576" lon="2.90729">
        <ele>173.8</ele>
        <time>2024-08-14T05:41:03Z</time>
      </trkpt>
      <trkpt lat="47.25591" lon="2.90723">
        <ele>173.6</ele>
        <time>2024-08-14T05:41:05Z</time>
      </trkpt>
      <trkpt lat="47.25607" lon="2.90721">
        <ele>173.6</ele>
        <time>2024-08-14T05:41:07Z</time>
      </trkpt>
      <trkpt lat="47.25653" lon="2.90726">
        <ele>173.2</ele>
        <time>2024-08-14T05:41:13Z</time>
      </trkpt>
      <trkpt lat="47.25713" lon="2.90734">
        <ele>173.2</ele>
        <time>2024-08-14T05:41:21Z</time>
      </trkpt>
      <trkpt lat="47.2572" lon="2.90733">
        <ele>173.2</ele>
        <time>2024-08-14T05:41:22Z</time>
      </trkpt>
      <trkpt lat="47.25749" lon="2.90725">
        <ele>173</ele>
        <time>2024-08-14T05:41:26Z</time>
      </trkpt>
      <trkpt lat="47.25801" lon="2.90706">
        <ele>173</ele>
        <time>2024-08-14T05:41:33Z</time>
      </trkpt>
      <trkpt lat="47.25808" lon="2.90703">
        <ele>172.8</ele>
        <time>2024-08-14T05:41:34Z</time>
      </trkpt>
      <trkpt lat="47.25865" lon="2.9068">
        <ele>172.4</ele>
        <time>2024-08-14T05:41:42Z</time>
      </trkpt>
      <trkpt lat="47.2588" lon="2.90675">
        <ele>172.4</ele>
        <time>2024-08-14T05:41:44Z</time>
      </trkpt>
      <trkpt lat="47.25933" lon="2.90654">
        <ele>172.8</ele>
        <time>2024-08-14T05:41:52Z</time>
      </trkpt>
      <trkpt lat="47.25987" lon="2.90632">
        <ele>173.2</ele>
        <time>2024-08-14T05:42:00Z</time>
      </trkpt>
      <trkpt lat="47.25994" lon="2.9063">
        <ele>173.2</ele>
        <time>2024-08-14T05:42:01Z</time>
      </trkpt>
      <trkpt lat="47.26052" lon="2.90607">
        <ele>173.2</ele>
        <time>2024-08-14T05:42:09Z</time>
      </trkpt>
      <trkpt lat="47.26073" lon="2.90599">
        <ele>173.2</ele>
        <time>2024-08-14T05:42:12Z</time>
      </trkpt>
      <trkpt lat="47.2613" lon="2.9058">
        <ele>173</ele>
        <time>2024-08-14T05:42:20Z</time>
      </trkpt>
      <trkpt lat="47.26137" lon="2.90578">
        <ele>173</ele>
        <time>2024-08-14T05:42:21Z</time>
      </trkpt>
      <trkpt lat="47.26188" lon="2.9057">
        <ele>172.6</ele>
        <time>2024-08-14T05:42:28Z</time>
      </trkpt>
      <trkpt lat="47.26233" lon="2.90583">
        <ele>172.2</ele>
        <time>2024-08-14T05:42:34Z</time>
      </trkpt>
      <trkpt lat="47.2624" lon="2.90587">
        <ele>171.8</ele>
        <time>2024-08-14T05:42:35Z</time>
      </trkpt>
      <trkpt lat="47.26286" lon="2.90619">
        <ele>171</ele>
        <time>2024-08-14T05:42:41Z</time>
      </trkpt>
      <trkpt lat="47.26301" lon="2.9063">
        <ele>170.8</ele>
        <time>2024-08-14T05:42:43Z</time>
      </trkpt>
      <trkpt lat="47.26352" lon="2.90669">
        <ele>170.2</ele>
        <time>2024-08-14T05:42:50Z</time>
      </trkpt>
      <trkpt lat="47.2636" lon="2.90673">
        <ele>170.2</ele>
        <time>2024-08-14T05:42:51Z</time>
      </trkpt>
      <trkpt lat="47.26367" lon="2.90677">
        <ele>170.2</ele>
        <time>2024-08-14T05:42:52Z</time>
      </trkpt>
      <trkpt lat="47.26384" lon="2.90679">
        <ele>170</ele>
        <time>2024-08-14T05:42:54Z</time>
      </trkpt>
      <trkpt lat="47.264" lon="2.90673">
        <ele>169.8</ele>
        <time>2024-08-14T05:42:56Z</time>
      </trkpt>
      <trkpt lat="47.26408" lon="2.90668">
        <ele>169.8</ele>
        <time>2024-08-14T05:42:57Z</time>
      </trkpt>
      <trkpt lat="47.26416" lon="2.90662">
        <ele>169.6</ele>
        <time>2024-08-14T05:42:58Z</time>
      </trkpt>
      <trkpt lat="47.26451" lon="2.90636">
        <ele>168.4</ele>
        <time>2024-08-14T05:43:02Z</time>
      </trkpt>
      <trkpt lat="47.26479" lon="2.90612">
        <ele>167.4</ele>
        <time>2024-08-14T05:43:04Z</time>
      </trkpt>
      <trkpt lat="47.26506" lon="2.90588">
        <ele>166</ele>
        <time>2024-08-14T05:43:07Z</time>
      </trkpt>
      <trkpt lat="47.26515" lon="2.9058">
        <ele>165.2</ele>
        <time>2024-08-14T05:43:08Z</time>
      </trkpt>
      <trkpt lat="47.26534" lon="2.90564">
        <ele>164.4</ele>
        <time>2024-08-14T05:43:10Z</time>
      </trkpt>
      <trkpt lat="47.26554" lon="2.90547">
        <ele>163.4</ele>
        <time>2024-08-14T05:43:12Z</time>
      </trkpt>
      <trkpt lat="47.26573" lon="2.90531">
        <ele>162.2</ele>
        <time>2024-08-14T05:43:14Z</time>
      </trkpt>
      <trkpt lat="47.26582" lon="2.90523">
        <ele>160.4</ele>
        <time>2024-08-14T05:43:16Z</time>
      </trkpt>
      <trkpt lat="47.26618" lon="2.9049">
        <ele>159.4</ele>
        <time>2024-08-14T05:43:19Z</time>
      </trkpt>
      <trkpt lat="47.26626" lon="2.90481">
        <ele>158.8</ele>
        <time>2024-08-14T05:43:20Z</time>
      </trkpt>
      <trkpt lat="47.26633" lon="2.90471">
        <ele>158.6</ele>
        <time>2024-08-14T05:43:21Z</time>
      </trkpt>
      <trkpt lat="47.26633" lon="2.90471">
        <ele>158.2</ele>
        <time>2024-08-14T05:43:22Z</time>
      </trkpt>
      <trkpt lat="47.2666" lon="2.90426">
        <ele>157.2</ele>
        <time>2024-08-14T05:43:26Z</time>
      </trkpt>
      <trkpt lat="47.26678" lon="2.90393">
        <ele>156.2</ele>
        <time>2024-08-14T05:43:29Z</time>
      </trkpt>
      <trkpt lat="47.26685" lon="2.90382">
        <ele>155.6</ele>
        <time>2024-08-14T05:43:30Z</time>
      </trkpt>
      <trkpt lat="47.26715" lon="2.90328">
        <ele>154.4</ele>
        <time>2024-08-14T05:43:35Z</time>
      </trkpt>
      <trkpt lat="47.26752" lon="2.90262">
        <ele>154.6</ele>
        <time>2024-08-14T05:43:41Z</time>
      </trkpt>
      <trkpt lat="47.26774" lon="2.90222">
        <ele>155</ele>
        <time>2024-08-14T05:43:47Z</time>
      </trkpt>
      <trkpt lat="47.26792" lon="2.90194">
        <ele>155.8</ele>
        <time>2024-08-14T05:43:51Z</time>
      </trkpt>
      <trkpt lat="47.268" lon="2.9018">
        <ele>156.2</ele>
        <time>2024-08-14T05:43:53Z</time>
      </trkpt>
      <trkpt lat="47.26811" lon="2.90159">
        <ele>156.6</ele>
        <time>2024-08-14T05:43:55Z</time>
      </trkpt>
      <trkpt lat="47.2682" lon="2.90148">
        <ele>156.8</ele>
        <time>2024-08-14T05:43:58Z</time>
      </trkpt>
      <trkpt lat="47.26828" lon="2.90134">
        <ele>157.2</ele>
        <time>2024-08-14T05:43:59Z</time>
      </trkpt>
      <trkpt lat="47.26842" lon="2.90114">
        <ele>157.8</ele>
        <time>2024-08-14T05:44:02Z</time>
      </trkpt>
      <trkpt lat="47.26851" lon="2.90104">
        <ele>158</ele>
        <time>2024-08-14T05:44:04Z</time>
      </trkpt>
      <trkpt lat="47.26865" lon="2.90087">
        <ele>158.2</ele>
        <time>2024-08-14T05:44:07Z</time>
      </trkpt>
      <trkpt lat="47.2687" lon="2.90082">
        <ele>158.2</ele>
        <time>2024-08-14T05:44:08Z</time>
      </trkpt>
      <trkpt lat="47.26877" lon="2.90078">
        <ele>158.2</ele>
        <time>2024-08-14T05:44:09Z</time>
      </trkpt>
      <trkpt lat="47.26882" lon="2.90073">
        <ele>158.2</ele>
        <time>2024-08-14T05:44:10Z</time>
      </trkpt>
      <trkpt lat="47.26892" lon="2.90065">
        <ele>158.4</ele>
        <time>2024-08-14T05:44:12Z</time>
      </trkpt>
      <trkpt lat="47.26938" lon="2.90033">
        <ele>158.8</ele>
        <time>2024-08-14T05:44:20Z</time>
      </trkpt>
      <trkpt lat="47.26976" lon="2.90013">
        <ele>158.8</ele>
        <time>2024-08-14T05:44:27Z</time>
      </trkpt>
      <trkpt lat="47.27019" lon="2.89989">
        <ele>158</ele>
        <time>2024-08-14T05:44:33Z</time>
      </trkpt>
      <trkpt lat="47.27055" lon="2.89965">
        <ele>157</ele>
        <time>2024-08-14T05:44:37Z</time>
      </trkpt>
      <trkpt lat="47.27062" lon="2.89959">
        <ele>156.8</ele>
        <time>2024-08-14T05:44:39Z</time>
      </trkpt>
      <trkpt lat="47.27091" lon="2.89935">
        <ele>156</ele>
        <time>2024-08-14T05:44:43Z</time>
      </trkpt>
      <trkpt lat="47.27125" lon="2.89909">
        <ele>155.4</ele>
        <time>2024-08-14T05:44:48Z</time>
      </trkpt>
      <trkpt lat="47.27161" lon="2.89879">
        <ele>155.4</ele>
        <time>2024-08-14T05:44:53Z</time>
      </trkpt>
      <trkpt lat="47.27212" lon="2.8984">
        <ele>155.6</ele>
        <time>2024-08-14T05:45:01Z</time>
      </trkpt>
      <trkpt lat="47.27236" lon="2.8982">
        <ele>155.8</ele>
        <time>2024-08-14T05:45:06Z</time>
      </trkpt>
      <trkpt lat="47.27285" lon="2.89781">
        <ele>156</ele>
        <time>2024-08-14T05:45:13Z</time>
      </trkpt>
      <trkpt lat="47.27291" lon="2.89777">
        <ele>156</ele>
        <time>2024-08-14T05:45:14Z</time>
      </trkpt>
      <trkpt lat="47.27344" lon="2.89735">
        <ele>155.8</ele>
        <time>2024-08-14T05:45:22Z</time>
      </trkpt>
      <trkpt lat="47.27387" lon="2.89695">
        <ele>154.8</ele>
        <time>2024-08-14T05:45:28Z</time>
      </trkpt>
      <trkpt lat="47.27428" lon="2.89645">
        <ele>153.8</ele>
        <time>2024-08-14T05:45:34Z</time>
      </trkpt>
      <trkpt lat="47.27435" lon="2.89637">
        <ele>153.8</ele>
        <time>2024-08-14T05:45:35Z</time>
      </trkpt>
      <trkpt lat="47.27483" lon="2.89577">
        <ele>152.8</ele>
        <time>2024-08-14T05:45:43Z</time>
      </trkpt>
      <trkpt lat="47.27521" lon="2.89531">
        <ele>153.2</ele>
        <time>2024-08-14T05:45:50Z</time>
      </trkpt>
      <trkpt lat="47.2755" lon="2.89489">
        <ele>153.6</ele>
        <time>2024-08-14T05:45:56Z</time>
      </trkpt>
      <trkpt lat="47.27573" lon="2.89439">
        <ele>154</ele>
        <time>2024-08-14T05:46:02Z</time>
      </trkpt>
      <trkpt lat="47.27595" lon="2.89358">
        <ele>154.8</ele>
        <time>2024-08-14T05:46:11Z</time>
      </trkpt>
      <trkpt lat="47.27601" lon="2.89341">
        <ele>155</ele>
        <time>2024-08-14T05:46:13Z</time>
      </trkpt>
      <trkpt lat="47.27617" lon="2.89303">
        <ele>155.6</ele>
        <time>2024-08-14T05:46:18Z</time>
      </trkpt>
      <trkpt lat="47.27621" lon="2.89296">
        <ele>155.8</ele>
        <time>2024-08-14T05:46:19Z</time>
      </trkpt>
      <trkpt lat="47.2764" lon="2.8927">
        <ele>156</ele>
        <time>2024-08-14T05:46:23Z</time>
      </trkpt>
      <trkpt lat="47.27656" lon="2.8925">
        <ele>156.4</ele>
        <time>2024-08-14T05:46:26Z</time>
      </trkpt>
      <trkpt lat="47.27699" lon="2.89197">
        <ele>156</ele>
        <time>2024-08-14T05:46:33Z</time>
      </trkpt>
      <trkpt lat="47.2774" lon="2.8915">
        <ele>155</ele>
        <time>2024-08-14T05:46:39Z</time>
      </trkpt>
      <trkpt lat="47.27747" lon="2.89142">
        <ele>155</ele>
        <time>2024-08-14T05:46:40Z</time>
      </trkpt>
      <trkpt lat="47.27776" lon="2.89111">
        <ele>153.8</ele>
        <time>2024-08-14T05:46:44Z</time>
      </trkpt>
      <trkpt lat="47.27798" lon="2.89087">
        <ele>153.2</ele>
        <time>2024-08-14T05:46:47Z</time>
      </trkpt>
      <trkpt lat="47.27813" lon="2.89069">
        <ele>152.2</ele>
        <time>2024-08-14T05:46:50Z</time>
      </trkpt>
      <trkpt lat="47.27842" lon="2.89031">
        <ele>150.8</ele>
        <time>2024-08-14T05:46:53Z</time>
      </trkpt>
      <trkpt lat="47.27848" lon="2.89021">
        <ele>150.6</ele>
        <time>2024-08-14T05:46:54Z</time>
      </trkpt>
      <trkpt lat="47.2786" lon="2.89001">
        <ele>149.8</ele>
        <time>2024-08-14T05:46:56Z</time>
      </trkpt>
      <trkpt lat="47.27882" lon="2.88961">
        <ele>149</ele>
        <time>2024-08-14T05:47:00Z</time>
      </trkpt>
      <trkpt lat="47.27899" lon="2.88932">
        <ele>148.6</ele>
        <time>2024-08-14T05:47:03Z</time>
      </trkpt>
      <trkpt lat="47.27926" lon="2.88894">
        <ele>148.4</ele>
        <time>2024-08-14T05:47:07Z</time>
      </trkpt>
      <trkpt lat="47.27947" lon="2.88871">
        <ele>147.4</ele>
        <time>2024-08-14T05:47:10Z</time>
      </trkpt>
      <trkpt lat="47.27962" lon="2.88859">
        <ele>147.2</ele>
        <time>2024-08-14T05:47:12Z</time>
      </trkpt>
      <trkpt lat="47.28004" lon="2.88824">
        <ele>146.8</ele>
        <time>2024-08-14T05:47:18Z</time>
      </trkpt>
      <trkpt lat="47.2805" lon="2.88784">
        <ele>146.8</ele>
        <time>2024-08-14T05:47:25Z</time>
      </trkpt>
      <trkpt lat="47.281" lon="2.8874">
        <ele>147</ele>
        <time>2024-08-14T05:47:33Z</time>
      </trkpt>
      <trkpt lat="47.28125" lon="2.88718">
        <ele>147</ele>
        <time>2024-08-14T05:47:37Z</time>
      </trkpt>
      <trkpt lat="47.28173" lon="2.88675">
        <ele>147</ele>
        <time>2024-08-14T05:47:45Z</time>
      </trkpt>
      <trkpt lat="47.28185" lon="2.88665">
        <ele>147</ele>
        <time>2024-08-14T05:47:47Z</time>
      </trkpt>
      <trkpt lat="47.28234" lon="2.88623">
        <ele>147.2</ele>
        <time>2024-08-14T05:47:55Z</time>
      </trkpt>
      <trkpt lat="47.28279" lon="2.88588">
        <ele>147.2</ele>
        <time>2024-08-14T05:48:02Z</time>
      </trkpt>
      <trkpt lat="47.28322" lon="2.88574">
        <ele>147</ele>
        <time>2024-08-14T05:48:08Z</time>
      </trkpt>
      <trkpt lat="47.28371" lon="2.88566">
        <ele>146.8</ele>
        <time>2024-08-14T05:48:15Z</time>
      </trkpt>
      <trkpt lat="47.28432" lon="2.88555">
        <ele>147.6</ele>
        <time>2024-08-14T05:48:24Z</time>
      </trkpt>
      <trkpt lat="47.28439" lon="2.88553">
        <ele>147.6</ele>
        <time>2024-08-14T05:48:25Z</time>
      </trkpt>
      <trkpt lat="47.28462" lon="2.88547">
        <ele>148</ele>
        <time>2024-08-14T05:48:29Z</time>
      </trkpt>
      <trkpt lat="47.2848" lon="2.88538">
        <ele>148</ele>
        <time>2024-08-14T05:48:32Z</time>
      </trkpt>
      <trkpt lat="47.2849" lon="2.88531">
        <ele>148.4</ele>
        <time>2024-08-14T05:48:34Z</time>
      </trkpt>
      <trkpt lat="47.28494" lon="2.88526">
        <ele>148.6</ele>
        <time>2024-08-14T05:48:35Z</time>
      </trkpt>
      <trkpt lat="47.28503" lon="2.88516">
        <ele>149.2</ele>
        <time>2024-08-14T05:48:37Z</time>
      </trkpt>
      <trkpt lat="47.28507" lon="2.88511">
        <ele>149.6</ele>
        <time>2024-08-14T05:48:38Z</time>
      </trkpt>
      <trkpt lat="47.28518" lon="2.88496">
        <ele>150.4</ele>
        <time>2024-08-14T05:48:41Z</time>
      </trkpt>
      <trkpt lat="47.28524" lon="2.88484">
        <ele>150.6</ele>
        <time>2024-08-14T05:48:43Z</time>
      </trkpt>
      <trkpt lat="47.28538" lon="2.88466">
        <ele>151.4</ele>
        <time>2024-08-14T05:48:47Z</time>
      </trkpt>
      <trkpt lat="47.28542" lon="2.88462">
        <ele>152.2</ele>
        <time>2024-08-14T05:48:48Z</time>
      </trkpt>
      <trkpt lat="47.28546" lon="2.88459">
        <ele>152.4</ele>
        <time>2024-08-14T05:48:49Z</time>
      </trkpt>
      <trkpt lat="47.28554" lon="2.88451">
        <ele>153.2</ele>
        <time>2024-08-14T05:48:51Z</time>
      </trkpt>
      <trkpt lat="47.28566" lon="2.88441">
        <ele>154.4</ele>
        <time>2024-08-14T05:48:54Z</time>
      </trkpt>
      <trkpt lat="47.28574" lon="2.88434">
        <ele>155</ele>
        <time>2024-08-14T05:48:56Z</time>
      </trkpt>
      <trkpt lat="47.28578" lon="2.8843">
        <ele>155.4</ele>
        <time>2024-08-14T05:48:57Z</time>
      </trkpt>
      <trkpt lat="47.28594" lon="2.88416">
        <ele>156.6</ele>
        <time>2024-08-14T05:49:01Z</time>
      </trkpt>
      <trkpt lat="47.28615" lon="2.88397">
        <ele>158</ele>
        <time>2024-08-14T05:49:06Z</time>
      </trkpt>
      <trkpt lat="47.28624" lon="2.88389">
        <ele>158.4</ele>
        <time>2024-08-14T05:49:08Z</time>
      </trkpt>
      <trkpt lat="47.28633" lon="2.88381">
        <ele>159</ele>
        <time>2024-08-14T05:49:10Z</time>
      </trkpt>
      <trkpt lat="47.28654" lon="2.8836">
        <ele>160</ele>
        <time>2024-08-14T05:49:15Z</time>
      </trkpt>
      <trkpt lat="47.28658" lon="2.88357">
        <ele>160</ele>
        <time>2024-08-14T05:49:16Z</time>
      </trkpt>
      <trkpt lat="47.28683" lon="2.88334">
        <ele>161.2</ele>
        <time>2024-08-14T05:49:22Z</time>
      </trkpt>
      <trkpt lat="47.28691" lon="2.88327">
        <ele>161.6</ele>
        <time>2024-08-14T05:49:24Z</time>
      </trkpt>
      <trkpt lat="47.28707" lon="2.88314">
        <ele>162.4</ele>
        <time>2024-08-14T05:49:28Z</time>
      </trkpt>
      <trkpt lat="47.28721" lon="2.88304">
        <ele>163.2</ele>
        <time>2024-08-14T05:49:31Z</time>
      </trkpt>
      <trkpt lat="47.28731" lon="2.88298">
        <ele>163.6</ele>
        <time>2024-08-14T05:49:33Z</time>
      </trkpt>
      <trkpt lat="47.28767" lon="2.88277">
        <ele>164.2</ele>
        <time>2024-08-14T05:49:40Z</time>
      </trkpt>
      <trkpt lat="47.28807" lon="2.88254">
        <ele>164.2</ele>
        <time>2024-08-14T05:49:47Z</time>
      </trkpt>
      <trkpt lat="47.28858" lon="2.88224">
        <ele>164</ele>
        <time>2024-08-14T05:49:55Z</time>
      </trkpt>
      <trkpt lat="47.28865" lon="2.8822">
        <ele>164</ele>
        <time>2024-08-14T05:49:56Z</time>
      </trkpt>
      <trkpt lat="47.28919" lon="2.88184">
        <ele>163.4</ele>
        <time>2024-08-14T05:50:04Z</time>
      </trkpt>
      <trkpt lat="47.28954" lon="2.88159">
        <ele>162.4</ele>
        <time>2024-08-14T05:50:09Z</time>
      </trkpt>
      <trkpt lat="47.28983" lon="2.88137">
        <ele>161.6</ele>
        <time>2024-08-14T05:50:13Z</time>
      </trkpt>
      <trkpt lat="47.2899" lon="2.88132">
        <ele>161.4</ele>
        <time>2024-08-14T05:50:14Z</time>
      </trkpt>
      <trkpt lat="47.29043" lon="2.88097">
        <ele>160.2</ele>
        <time>2024-08-14T05:50:21Z</time>
      </trkpt>
      <trkpt lat="47.29051" lon="2.88093">
        <ele>160.2</ele>
        <time>2024-08-14T05:50:22Z</time>
      </trkpt>
      <trkpt lat="47.29106" lon="2.88068">
        <ele>159.4</ele>
        <time>2024-08-14T05:50:29Z</time>
      </trkpt>
      <trkpt lat="47.29114" lon="2.88065">
        <ele>159.2</ele>
        <time>2024-08-14T05:50:30Z</time>
      </trkpt>
      <trkpt lat="47.29122" lon="2.88062">
        <ele>159.2</ele>
        <time>2024-08-14T05:50:31Z</time>
      </trkpt>
      <trkpt lat="47.29175" lon="2.88041">
        <ele>158.8</ele>
        <time>2024-08-14T05:50:38Z</time>
      </trkpt>
      <trkpt lat="47.29205" lon="2.8803">
        <ele>158.6</ele>
        <time>2024-08-14T05:50:42Z</time>
      </trkpt>
      <trkpt lat="47.29264" lon="2.88007">
        <ele>158.4</ele>
        <time>2024-08-14T05:50:49Z</time>
      </trkpt>
      <trkpt lat="47.29283" lon="2.88">
        <ele>158</ele>
        <time>2024-08-14T05:50:51Z</time>
      </trkpt>
      <trkpt lat="47.29311" lon="2.8799">
        <ele>157</ele>
        <time>2024-08-14T05:50:54Z</time>
      </trkpt>
      <trkpt lat="47.29329" lon="2.87983">
        <ele>156.2</ele>
        <time>2024-08-14T05:50:56Z</time>
      </trkpt>
      <trkpt lat="47.29338" lon="2.8798">
        <ele>155.8</ele>
        <time>2024-08-14T05:50:57Z</time>
      </trkpt>
      <trkpt lat="47.2938" lon="2.87967">
        <ele>154.8</ele>
        <time>2024-08-14T05:51:02Z</time>
      </trkpt>
      <trkpt lat="47.29387" lon="2.87965">
        <ele>154.6</ele>
        <time>2024-08-14T05:51:03Z</time>
      </trkpt>
      <trkpt lat="47.29415" lon="2.87957">
        <ele>154.6</ele>
        <time>2024-08-14T05:51:07Z</time>
      </trkpt>
      <trkpt lat="47.29458" lon="2.87945">
        <ele>155.4</ele>
        <time>2024-08-14T05:51:13Z</time>
      </trkpt>
      <trkpt lat="47.29472" lon="2.87941">
        <ele>155.6</ele>
        <time>2024-08-14T05:51:15Z</time>
      </trkpt>
      <trkpt lat="47.29531" lon="2.87925">
        <ele>156</ele>
        <time>2024-08-14T05:51:23Z</time>
      </trkpt>
      <trkpt lat="47.29539" lon="2.87923">
        <ele>155.8</ele>
        <time>2024-08-14T05:51:24Z</time>
      </trkpt>
      <trkpt lat="47.29593" lon="2.87907">
        <ele>155.4</ele>
        <time>2024-08-14T05:51:31Z</time>
      </trkpt>
      <trkpt lat="47.29602" lon="2.87905">
        <ele>155.2</ele>
        <time>2024-08-14T05:51:32Z</time>
      </trkpt>
      <trkpt lat="47.29657" lon="2.87889">
        <ele>154.6</ele>
        <time>2024-08-14T05:51:39Z</time>
      </trkpt>
      <trkpt lat="47.29673" lon="2.87885">
        <ele>154.2</ele>
        <time>2024-08-14T05:51:41Z</time>
      </trkpt>
      <trkpt lat="47.2973" lon="2.87867">
        <ele>153.8</ele>
        <time>2024-08-14T05:51:48Z</time>
      </trkpt>
      <trkpt lat="47.29747" lon="2.8786">
        <ele>153.6</ele>
        <time>2024-08-14T05:51:50Z</time>
      </trkpt>
      <trkpt lat="47.29755" lon="2.87856">
        <ele>153.4</ele>
        <time>2024-08-14T05:51:51Z</time>
      </trkpt>
      <trkpt lat="47.29794" lon="2.87831">
        <ele>152.4</ele>
        <time>2024-08-14T05:51:56Z</time>
      </trkpt>
      <trkpt lat="47.29802" lon="2.87825">
        <ele>152.4</ele>
        <time>2024-08-14T05:51:57Z</time>
      </trkpt>
      <trkpt lat="47.2985" lon="2.87778">
        <ele>151.6</ele>
        <time>2024-08-14T05:52:04Z</time>
      </trkpt>
      <trkpt lat="47.29862" lon="2.87763">
        <ele>151.4</ele>
        <time>2024-08-14T05:52:06Z</time>
      </trkpt>
      <trkpt lat="47.29885" lon="2.87732">
        <ele>151.4</ele>
        <time>2024-08-14T05:52:10Z</time>
      </trkpt>
      <trkpt lat="47.29907" lon="2.87699">
        <ele>151.4</ele>
        <time>2024-08-14T05:52:14Z</time>
      </trkpt>
      <trkpt lat="47.29947" lon="2.8764">
        <ele>151.6</ele>
        <time>2024-08-14T05:52:21Z</time>
      </trkpt>
      <trkpt lat="47.29976" lon="2.87598">
        <ele>151.4</ele>
        <time>2024-08-14T05:52:26Z</time>
      </trkpt>
      <trkpt lat="47.30016" lon="2.87538">
        <ele>150.8</ele>
        <time>2024-08-14T05:52:33Z</time>
      </trkpt>
      <trkpt lat="47.30028" lon="2.87521">
        <ele>150.6</ele>
        <time>2024-08-14T05:52:35Z</time>
      </trkpt>
      <trkpt lat="47.30045" lon="2.87495">
        <ele>150.4</ele>
        <time>2024-08-14T05:52:38Z</time>
      </trkpt>
      <trkpt lat="47.30079" lon="2.87444">
        <ele>150.2</ele>
        <time>2024-08-14T05:52:44Z</time>
      </trkpt>
      <trkpt lat="47.30121" lon="2.87383">
        <ele>150</ele>
        <time>2024-08-14T05:52:51Z</time>
      </trkpt>
      <trkpt lat="47.30127" lon="2.87374">
        <ele>150</ele>
        <time>2024-08-14T05:52:52Z</time>
      </trkpt>
      <trkpt lat="47.30167" lon="2.87316">
        <ele>150</ele>
        <time>2024-08-14T05:52:59Z</time>
      </trkpt>
      <trkpt lat="47.3019" lon="2.87283">
        <ele>150</ele>
        <time>2024-08-14T05:53:03Z</time>
      </trkpt>
      <trkpt lat="47.30232" lon="2.87221">
        <ele>149.6</ele>
        <time>2024-08-14T05:53:11Z</time>
      </trkpt>
      <trkpt lat="47.30259" lon="2.87182">
        <ele>149.4</ele>
        <time>2024-08-14T05:53:16Z</time>
      </trkpt>
      <trkpt lat="47.30302" lon="2.87119">
        <ele>148.8</ele>
        <time>2024-08-14T05:53:24Z</time>
      </trkpt>
      <trkpt lat="47.30307" lon="2.87111">
        <ele>148.6</ele>
        <time>2024-08-14T05:53:25Z</time>
      </trkpt>
      <trkpt lat="47.30328" lon="2.87079">
        <ele>148.2</ele>
        <time>2024-08-14T05:53:29Z</time>
      </trkpt>
      <trkpt lat="47.30365" lon="2.87025">
        <ele>148.2</ele>
        <time>2024-08-14T05:53:36Z</time>
      </trkpt>
      <trkpt lat="47.30411" lon="2.86974">
        <ele>148</ele>
        <time>2024-08-14T05:53:44Z</time>
      </trkpt>
      <trkpt lat="47.30461" lon="2.8693">
        <ele>148</ele>
        <time>2024-08-14T05:53:52Z</time>
      </trkpt>
      <trkpt lat="47.30467" lon="2.86925">
        <ele>148</ele>
        <time>2024-08-14T05:53:53Z</time>
      </trkpt>
      <trkpt lat="47.30516" lon="2.86898">
        <ele>148</ele>
        <time>2024-08-14T05:54:00Z</time>
      </trkpt>
      <trkpt lat="47.30531" lon="2.86892">
        <ele>148.4</ele>
        <time>2024-08-14T05:54:02Z</time>
      </trkpt>
      <trkpt lat="47.30546" lon="2.8688">
        <ele>148</ele>
        <time>2024-08-14T05:54:04Z</time>
      </trkpt>
      <trkpt lat="47.30583" lon="2.86841">
        <ele>147.4</ele>
        <time>2024-08-14T05:54:09Z</time>
      </trkpt>
      <trkpt lat="47.3059" lon="2.86834">
        <ele>147.2</ele>
        <time>2024-08-14T05:54:10Z</time>
      </trkpt>
      <trkpt lat="47.30627" lon="2.86794">
        <ele>146.2</ele>
        <time>2024-08-14T05:54:15Z</time>
      </trkpt>
      <trkpt lat="47.30662" lon="2.86756">
        <ele>145.4</ele>
        <time>2024-08-14T05:54:20Z</time>
      </trkpt>
      <trkpt lat="47.30706" lon="2.867">
        <ele>145.2</ele>
        <time>2024-08-14T05:54:27Z</time>
      </trkpt>
      <trkpt lat="47.30718" lon="2.86684">
        <ele>145.2</ele>
        <time>2024-08-14T05:54:29Z</time>
      </trkpt>
      <trkpt lat="47.30735" lon="2.86661">
        <ele>145.2</ele>
        <time>2024-08-14T05:54:32Z</time>
      </trkpt>
      <trkpt lat="47.30764" lon="2.86627">
        <ele>144.8</ele>
        <time>2024-08-14T05:54:37Z</time>
      </trkpt>
      <trkpt lat="47.3077" lon="2.86622">
        <ele>144.8</ele>
        <time>2024-08-14T05:54:38Z</time>
      </trkpt>
      <trkpt lat="47.30788" lon="2.86611">
        <ele>145.4</ele>
        <time>2024-08-14T05:54:41Z</time>
      </trkpt>
      <trkpt lat="47.30825" lon="2.86597">
        <ele>146.2</ele>
        <time>2024-08-14T05:54:47Z</time>
      </trkpt>
      <trkpt lat="47.30832" lon="2.86596">
        <ele>146.2</ele>
        <time>2024-08-14T05:54:48Z</time>
      </trkpt>
      <trkpt lat="47.30872" lon="2.86584">
        <ele>147.2</ele>
        <time>2024-08-14T05:54:54Z</time>
      </trkpt>
      <trkpt lat="47.30885" lon="2.8658">
        <ele>147.4</ele>
        <time>2024-08-14T05:54:56Z</time>
      </trkpt>
      <trkpt lat="47.3093" lon="2.86562">
        <ele>147.4</ele>
        <time>2024-08-14T05:55:03Z</time>
      </trkpt>
      <trkpt lat="47.30955" lon="2.8655">
        <ele>147.4</ele>
        <time>2024-08-14T05:55:07Z</time>
      </trkpt>
      <trkpt lat="47.30991" lon="2.86528">
        <ele>148</ele>
        <time>2024-08-14T05:55:13Z</time>
      </trkpt>
      <trkpt lat="47.30997" lon="2.86523">
        <ele>148</ele>
        <time>2024-08-14T05:55:14Z</time>
      </trkpt>
      <trkpt lat="47.31012" lon="2.86505">
        <ele>148.4</ele>
        <time>2024-08-14T05:55:17Z</time>
      </trkpt>
      <trkpt lat="47.3105" lon="2.86449">
        <ele>148.8</ele>
        <time>2024-08-14T05:55:25Z</time>
      </trkpt>
      <trkpt lat="47.31087" lon="2.8639">
        <ele>148.8</ele>
        <time>2024-08-14T05:55:33Z</time>
      </trkpt>
      <trkpt lat="47.31095" lon="2.86375">
        <ele>148.6</ele>
        <time>2024-08-14T05:55:35Z</time>
      </trkpt>
      <trkpt lat="47.31128" lon="2.86323">
        <ele>147.8</ele>
        <time>2024-08-14T05:55:43Z</time>
      </trkpt>
      <trkpt lat="47.31139" lon="2.86309">
        <ele>147.4</ele>
        <time>2024-08-14T05:55:47Z</time>
      </trkpt>
      <trkpt lat="47.31142" lon="2.86306">
        <ele>147</ele>
        <time>2024-08-14T05:55:48Z</time>
      </trkpt>
      <trkpt lat="47.31154" lon="2.86289">
        <ele>146.4</ele>
        <time>2024-08-14T05:55:54Z</time>
      </trkpt>
      <trkpt lat="47.31159" lon="2.86283">
        <ele>146</ele>
        <time>2024-08-14T05:55:59Z</time>
      </trkpt>
      <trkpt lat="47.31162" lon="2.86279">
        <ele>145.8</ele>
        <time>2024-08-14T05:56:02Z</time>
      </trkpt>
      <trkpt lat="47.31163" lon="2.86277">
        <ele>145.6</ele>
        <time>2024-08-14T05:56:04Z</time>
      </trkpt>
      <trkpt lat="47.31171" lon="2.86266">
        <ele>145.6</ele>
        <time>2024-08-14T05:56:10Z</time>
      </trkpt>
      <trkpt lat="47.31186" lon="2.86247">
        <ele>145.6</ele>
        <time>2024-08-14T05:56:14Z</time>
      </trkpt>
      <trkpt lat="47.31209" lon="2.86215">
        <ele>145.4</ele>
        <time>2024-08-14T05:56:19Z</time>
      </trkpt>
      <trkpt lat="47.31248" lon="2.86168">
        <ele>145.2</ele>
        <time>2024-08-14T05:56:26Z</time>
      </trkpt>
      <trkpt lat="47.3129" lon="2.86117">
        <ele>145</ele>
        <time>2024-08-14T05:56:33Z</time>
      </trkpt>
      <trkpt lat="47.31303" lon="2.861">
        <ele>145</ele>
        <time>2024-08-14T05:56:35Z</time>
      </trkpt>
      <trkpt lat="47.3131" lon="2.86092">
        <ele>145</ele>
        <time>2024-08-14T05:56:36Z</time>
      </trkpt>
      <trkpt lat="47.31345" lon="2.86051">
        <ele>143.8</ele>
        <time>2024-08-14T05:56:41Z</time>
      </trkpt>
      <trkpt lat="47.31352" lon="2.86043">
        <ele>143.4</ele>
        <time>2024-08-14T05:56:42Z</time>
      </trkpt>
      <trkpt lat="47.31385" lon="2.86004">
        <ele>142.6</ele>
        <time>2024-08-14T05:56:47Z</time>
      </trkpt>
      <trkpt lat="47.31418" lon="2.85967">
        <ele>142.4</ele>
        <time>2024-08-14T05:56:52Z</time>
      </trkpt>
      <trkpt lat="47.31462" lon="2.85917">
        <ele>142.6</ele>
        <time>2024-08-14T05:56:59Z</time>
      </trkpt>
      <trkpt lat="47.31468" lon="2.8591">
        <ele>142.6</ele>
        <time>2024-08-14T05:57:00Z</time>
      </trkpt>
      <trkpt lat="47.31512" lon="2.85861">
        <ele>142.6</ele>
        <time>2024-08-14T05:57:07Z</time>
      </trkpt>
      <trkpt lat="47.31544" lon="2.85828">
        <ele>142.4</ele>
        <time>2024-08-14T05:57:12Z</time>
      </trkpt>
      <trkpt lat="47.31597" lon="2.85782">
        <ele>142.2</ele>
        <time>2024-08-14T05:57:20Z</time>
      </trkpt>
      <trkpt lat="47.31618" lon="2.85767">
        <ele>142.2</ele>
        <time>2024-08-14T05:57:23Z</time>
      </trkpt>
      <trkpt lat="47.31661" lon="2.85741">
        <ele>142</ele>
        <time>2024-08-14T05:57:29Z</time>
      </trkpt>
      <trkpt lat="47.31669" lon="2.85739">
        <ele>142.2</ele>
        <time>2024-08-14T05:57:30Z</time>
      </trkpt>
      <trkpt lat="47.31677" lon="2.85739">
        <ele>142.2</ele>
        <time>2024-08-14T05:57:31Z</time>
      </trkpt>
      <trkpt lat="47.31701" lon="2.85736">
        <ele>142</ele>
        <time>2024-08-14T05:57:34Z</time>
      </trkpt>
      <trkpt lat="47.31757" lon="2.85726">
        <ele>142.2</ele>
        <time>2024-08-14T05:57:42Z</time>
      </trkpt>
      <trkpt lat="47.31793" lon="2.85722">
        <ele>143</ele>
        <time>2024-08-14T05:57:48Z</time>
      </trkpt>
      <trkpt lat="47.31829" lon="2.85717">
        <ele>143.4</ele>
        <time>2024-08-14T05:57:53Z</time>
      </trkpt>
      <trkpt lat="47.31874" lon="2.85721">
        <ele>142.6</ele>
        <time>2024-08-14T05:57:59Z</time>
      </trkpt>
      <trkpt lat="47.31895" lon="2.85729">
        <ele>142.2</ele>
        <time>2024-08-14T05:58:02Z</time>
      </trkpt>
      <trkpt lat="47.3191" lon="2.85732">
        <ele>142.2</ele>
        <time>2024-08-14T05:58:04Z</time>
      </trkpt>
      <trkpt lat="47.3196" lon="2.85732">
        <ele>142.4</ele>
        <time>2024-08-14T05:58:11Z</time>
      </trkpt>
      <trkpt lat="47.31995" lon="2.85727">
        <ele>142.4</ele>
        <time>2024-08-14T05:58:16Z</time>
      </trkpt>
      <trkpt lat="47.32002" lon="2.85724">
        <ele>142.4</ele>
        <time>2024-08-14T05:58:17Z</time>
      </trkpt>
      <trkpt lat="47.32042" lon="2.857">
        <ele>142.4</ele>
        <time>2024-08-14T05:58:23Z</time>
      </trkpt>
      <trkpt lat="47.32093" lon="2.85663">
        <ele>142.4</ele>
        <time>2024-08-14T05:58:31Z</time>
      </trkpt>
      <trkpt lat="47.32113" lon="2.85648">
        <ele>142.6</ele>
        <time>2024-08-14T05:58:34Z</time>
      </trkpt>
      <trkpt lat="47.32165" lon="2.85611">
        <ele>143</ele>
        <time>2024-08-14T05:58:42Z</time>
      </trkpt>
      <trkpt lat="47.32178" lon="2.85602">
        <ele>143</ele>
        <time>2024-08-14T05:58:44Z</time>
      </trkpt>
      <trkpt lat="47.32231" lon="2.85573">
        <ele>143</ele>
        <time>2024-08-14T05:58:52Z</time>
      </trkpt>
      <trkpt lat="47.32237" lon="2.8557">
        <ele>143.2</ele>
        <time>2024-08-14T05:58:53Z</time>
      </trkpt>
      <trkpt lat="47.32292" lon="2.85549">
        <ele>143.6</ele>
        <time>2024-08-14T05:59:01Z</time>
      </trkpt>
      <trkpt lat="47.32306" lon="2.85546">
        <ele>143.8</ele>
        <time>2024-08-14T05:59:03Z</time>
      </trkpt>
      <trkpt lat="47.32341" lon="2.85539">
        <ele>143.8</ele>
        <time>2024-08-14T05:59:08Z</time>
      </trkpt>
      <trkpt lat="47.32397" lon="2.85532">
        <ele>143.8</ele>
        <time>2024-08-14T05:59:16Z</time>
      </trkpt>
      <trkpt lat="47.32411" lon="2.8553">
        <ele>143.8</ele>
        <time>2024-08-14T05:59:18Z</time>
      </trkpt>
      <trkpt lat="47.32469" lon="2.85524">
        <ele>144</ele>
        <time>2024-08-14T05:59:26Z</time>
      </trkpt>
      <trkpt lat="47.32483" lon="2.85522">
        <ele>144</ele>
        <time>2024-08-14T05:59:28Z</time>
      </trkpt>
      <trkpt lat="47.32542" lon="2.85516">
        <ele>144</ele>
        <time>2024-08-14T05:59:36Z</time>
      </trkpt>
      <trkpt lat="47.32579" lon="2.85512">
        <ele>144</ele>
        <time>2024-08-14T05:59:41Z</time>
      </trkpt>
      <trkpt lat="47.32638" lon="2.85506">
        <ele>143.8</ele>
        <time>2024-08-14T05:59:49Z</time>
      </trkpt>
      <trkpt lat="47.32667" lon="2.85502">
        <ele>143.8</ele>
        <time>2024-08-14T05:59:53Z</time>
      </trkpt>
      <trkpt lat="47.32726" lon="2.85496">
        <ele>143.6</ele>
        <time>2024-08-14T06:00:01Z</time>
      </trkpt>
      <trkpt lat="47.32748" lon="2.85493">
        <ele>143.6</ele>
        <time>2024-08-14T06:00:04Z</time>
      </trkpt>
      <trkpt lat="47.32807" lon="2.85487">
        <ele>143.4</ele>
        <time>2024-08-14T06:00:12Z</time>
      </trkpt>
      <trkpt lat="47.32822" lon="2.85485">
        <ele>143.4</ele>
        <time>2024-08-14T06:00:14Z</time>
      </trkpt>
      <trkpt lat="47.32886" lon="2.85478">
        <ele>143.2</ele>
        <time>2024-08-14T06:00:23Z</time>
      </trkpt>
      <trkpt lat="47.32909" lon="2.85475">
        <ele>143</ele>
        <time>2024-08-14T06:00:26Z</time>
      </trkpt>
      <trkpt lat="47.32968" lon="2.85469">
        <ele>142.8</ele>
        <time>2024-08-14T06:00:34Z</time>
      </trkpt>
      <trkpt lat="47.33004" lon="2.85465">
        <ele>142.8</ele>
        <time>2024-08-14T06:00:39Z</time>
      </trkpt>
      <trkpt lat="47.33012" lon="2.85464">
        <ele>142.6</ele>
        <time>2024-08-14T06:00:40Z</time>
      </trkpt>
      <trkpt lat="47.33057" lon="2.85458">
        <ele>142.6</ele>
        <time>2024-08-14T06:00:46Z</time>
      </trkpt>
      <trkpt lat="47.33123" lon="2.85455">
        <ele>142.6</ele>
        <time>2024-08-14T06:00:55Z</time>
      </trkpt>
      <trkpt lat="47.33181" lon="2.85466">
        <ele>142.8</ele>
        <time>2024-08-14T06:01:03Z</time>
      </trkpt>
      <trkpt lat="47.33238" lon="2.8549">
        <ele>142.6</ele>
        <time>2024-08-14T06:01:11Z</time>
      </trkpt>
      <trkpt lat="47.33284" lon="2.85523">
        <ele>142.8</ele>
        <time>2024-08-14T06:01:18Z</time>
      </trkpt>
      <trkpt lat="47.33304" lon="2.8554">
        <ele>142.8</ele>
        <time>2024-08-14T06:01:21Z</time>
      </trkpt>
      <trkpt lat="47.33334" lon="2.85572">
        <ele>142.6</ele>
        <time>2024-08-14T06:01:26Z</time>
      </trkpt>
      <trkpt lat="47.33378" lon="2.85629">
        <ele>142.4</ele>
        <time>2024-08-14T06:01:34Z</time>
      </trkpt>
      <trkpt lat="47.33394" lon="2.85651">
        <ele>142.4</ele>
        <time>2024-08-14T06:01:37Z</time>
      </trkpt>
      <trkpt lat="47.33438" lon="2.85709">
        <ele>142.2</ele>
        <time>2024-08-14T06:01:45Z</time>
      </trkpt>
      <trkpt lat="47.33461" lon="2.85738">
        <ele>142</ele>
        <time>2024-08-14T06:01:49Z</time>
      </trkpt>
      <trkpt lat="47.33509" lon="2.85787">
        <ele>142</ele>
        <time>2024-08-14T06:01:57Z</time>
      </trkpt>
      <trkpt lat="47.33556" lon="2.85819">
        <ele>142</ele>
        <time>2024-08-14T06:02:04Z</time>
      </trkpt>
      <trkpt lat="47.33605" lon="2.85836">
        <ele>142</ele>
        <time>2024-08-14T06:02:11Z</time>
      </trkpt>
      <trkpt lat="47.33628" lon="2.85836">
        <ele>141.8</ele>
        <time>2024-08-14T06:02:14Z</time>
      </trkpt>
      <trkpt lat="47.33635" lon="2.85834">
        <ele>141.8</ele>
        <time>2024-08-14T06:02:15Z</time>
      </trkpt>
      <trkpt lat="47.33676" lon="2.85812">
        <ele>142</ele>
        <time>2024-08-14T06:02:21Z</time>
      </trkpt>
      <trkpt lat="47.33683" lon="2.85809">
        <ele>142</ele>
        <time>2024-08-14T06:02:22Z</time>
      </trkpt>
      <trkpt lat="47.33698" lon="2.85805">
        <ele>141.8</ele>
        <time>2024-08-14T06:02:24Z</time>
      </trkpt>
      <trkpt lat="47.33705" lon="2.85804">
        <ele>141.8</ele>
        <time>2024-08-14T06:02:25Z</time>
      </trkpt>
      <trkpt lat="47.33765" lon="2.85808">
        <ele>141.8</ele>
        <time>2024-08-14T06:02:33Z</time>
      </trkpt>
      <trkpt lat="47.33772" lon="2.85809">
        <ele>141.8</ele>
        <time>2024-08-14T06:02:34Z</time>
      </trkpt>
      <trkpt lat="47.33786" lon="2.85811">
        <ele>141.6</ele>
        <time>2024-08-14T06:02:36Z</time>
      </trkpt>
      <trkpt lat="47.33829" lon="2.85815">
        <ele>141.6</ele>
        <time>2024-08-14T06:02:42Z</time>
      </trkpt>
      <trkpt lat="47.3386" lon="2.85817">
        <ele>141.8</ele>
        <time>2024-08-14T06:02:47Z</time>
      </trkpt>
      <trkpt lat="47.33869" lon="2.8582">
        <ele>142</ele>
        <time>2024-08-14T06:02:49Z</time>
      </trkpt>
      <trkpt lat="47.33871" lon="2.85825">
        <ele>142</ele>
        <time>2024-08-14T06:02:50Z</time>
      </trkpt>
      <trkpt lat="47.33873" lon="2.85831">
        <ele>142</ele>
        <time>2024-08-14T06:02:51Z</time>
      </trkpt>
      <trkpt lat="47.33873" lon="2.85838">
        <ele>142.2</ele>
        <time>2024-08-14T06:02:53Z</time>
      </trkpt>
      <trkpt lat="47.33869" lon="2.85875">
        <ele>142.6</ele>
        <time>2024-08-14T06:02:57Z</time>
      </trkpt>
      <trkpt lat="47.33869" lon="2.85883">
        <ele>142.8</ele>
        <time>2024-08-14T06:02:58Z</time>
      </trkpt>
      <trkpt lat="47.33867" lon="2.85906">
        <ele>143.8</ele>
        <time>2024-08-14T06:03:01Z</time>
      </trkpt>
      <trkpt lat="47.33866" lon="2.85919">
        <ele>144.4</ele>
        <time>2024-08-14T06:03:03Z</time>
      </trkpt>
      <trkpt lat="47.33871" lon="2.85931">
        <ele>144.8</ele>
        <time>2024-08-14T06:03:05Z</time>
      </trkpt>
      <trkpt lat="47.33876" lon="2.85933">
        <ele>145</ele>
        <time>2024-08-14T06:03:06Z</time>
      </trkpt>
      <trkpt lat="47.33882" lon="2.85933">
        <ele>145</ele>
        <time>2024-08-14T06:03:07Z</time>
      </trkpt>
      <trkpt lat="47.33888" lon="2.85932">
        <ele>145</ele>
        <time>2024-08-14T06:03:08Z</time>
      </trkpt>
      <trkpt lat="47.33925" lon="2.85935">
        <ele>145</ele>
        <time>2024-08-14T06:03:14Z</time>
      </trkpt>
      <trkpt lat="47.33959" lon="2.85939">
        <ele>144.8</ele>
        <time>2024-08-14T06:03:20Z</time>
      </trkpt>
      <trkpt lat="47.33997" lon="2.85944">
        <ele>144.6</ele>
        <time>2024-08-14T06:03:26Z</time>
      </trkpt>
      <trkpt lat="47.34003" lon="2.85944">
        <ele>144.4</ele>
        <time>2024-08-14T06:03:27Z</time>
      </trkpt>
      <trkpt lat="47.34015" lon="2.8594">
        <ele>144.2</ele>
        <time>2024-08-14T06:03:29Z</time>
      </trkpt>
      <trkpt lat="47.34021" lon="2.85938">
        <ele>144.2</ele>
        <time>2024-08-14T06:03:30Z</time>
      </trkpt>
      <trkpt lat="47.34036" lon="2.85935">
        <ele>143.8</ele>
        <time>2024-08-14T06:03:32Z</time>
      </trkpt>
      <trkpt lat="47.34044" lon="2.85932">
        <ele>143.8</ele>
        <time>2024-08-14T06:03:33Z</time>
      </trkpt>
      <trkpt lat="47.34071" lon="2.8592">
        <ele>142.6</ele>
        <time>2024-08-14T06:03:37Z</time>
      </trkpt>
      <trkpt lat="47.34078" lon="2.85918">
        <ele>142.6</ele>
        <time>2024-08-14T06:03:38Z</time>
      </trkpt>
      <trkpt lat="47.34126" lon="2.85924">
        <ele>141.6</ele>
        <time>2024-08-14T06:03:45Z</time>
      </trkpt>
      <trkpt lat="47.34133" lon="2.85924">
        <ele>141.6</ele>
        <time>2024-08-14T06:03:46Z</time>
      </trkpt>
      <trkpt lat="47.34183" lon="2.8593">
        <ele>141.6</ele>
        <time>2024-08-14T06:03:53Z</time>
      </trkpt>
      <trkpt lat="47.3424" lon="2.85936">
        <ele>141.8</ele>
        <time>2024-08-14T06:04:01Z</time>
      </trkpt>
      <trkpt lat="47.34275" lon="2.8594">
        <ele>141.6</ele>
        <time>2024-08-14T06:04:06Z</time>
      </trkpt>
      <trkpt lat="47.34332" lon="2.85945">
        <ele>141.4</ele>
        <time>2024-08-14T06:04:14Z</time>
      </trkpt>
      <trkpt lat="47.34339" lon="2.85946">
        <ele>141.4</ele>
        <time>2024-08-14T06:04:15Z</time>
      </trkpt>
      <trkpt lat="47.34381" lon="2.85946">
        <ele>141.4</ele>
        <time>2024-08-14T06:04:21Z</time>
      </trkpt>
      <trkpt lat="47.34388" lon="2.85948">
        <ele>141.4</ele>
        <time>2024-08-14T06:04:22Z</time>
      </trkpt>
      <trkpt lat="47.34436" lon="2.85959">
        <ele>141.8</ele>
        <time>2024-08-14T06:04:29Z</time>
      </trkpt>
      <trkpt lat="47.34491" lon="2.8597">
        <ele>142</ele>
        <time>2024-08-14T06:04:37Z</time>
      </trkpt>
      <trkpt lat="47.34546" lon="2.85987">
        <ele>141.8</ele>
        <time>2024-08-14T06:04:45Z</time>
      </trkpt>
      <trkpt lat="47.34553" lon="2.8599">
        <ele>141.8</ele>
        <time>2024-08-14T06:04:46Z</time>
      </trkpt>
      <trkpt lat="47.34604" lon="2.86019">
        <ele>141.6</ele>
        <time>2024-08-14T06:04:54Z</time>
      </trkpt>
      <trkpt lat="47.34611" lon="2.86022">
        <ele>141.6</ele>
        <time>2024-08-14T06:04:55Z</time>
      </trkpt>
      <trkpt lat="47.34664" lon="2.86051">
        <ele>142</ele>
        <time>2024-08-14T06:05:03Z</time>
      </trkpt>
      <trkpt lat="47.34697" lon="2.8607">
        <ele>142</ele>
        <time>2024-08-14T06:05:08Z</time>
      </trkpt>
      <trkpt lat="47.3475" lon="2.86099">
        <ele>142</ele>
        <time>2024-08-14T06:05:16Z</time>
      </trkpt>
      <trkpt lat="47.34802" lon="2.86129">
        <ele>141.8</ele>
        <time>2024-08-14T06:05:24Z</time>
      </trkpt>
      <trkpt lat="47.34809" lon="2.86133">
        <ele>141.8</ele>
        <time>2024-08-14T06:05:25Z</time>
      </trkpt>
      <trkpt lat="47.34861" lon="2.86164">
        <ele>141.6</ele>
        <time>2024-08-14T06:05:33Z</time>
      </trkpt>
      <trkpt lat="47.34868" lon="2.86168">
        <ele>141.6</ele>
        <time>2024-08-14T06:05:34Z</time>
      </trkpt>
      <trkpt lat="47.3492" lon="2.86198">
        <ele>141.6</ele>
        <time>2024-08-14T06:05:42Z</time>
      </trkpt>
      <trkpt lat="47.34926" lon="2.86202">
        <ele>141.8</ele>
        <time>2024-08-14T06:05:43Z</time>
      </trkpt>
      <trkpt lat="47.34977" lon="2.8623">
        <ele>141.8</ele>
        <time>2024-08-14T06:05:51Z</time>
      </trkpt>
      <trkpt lat="47.34996" lon="2.8624">
        <ele>141.8</ele>
        <time>2024-08-14T06:05:54Z</time>
      </trkpt>
      <trkpt lat="47.35047" lon="2.8627">
        <ele>141.6</ele>
        <time>2024-08-14T06:06:02Z</time>
      </trkpt>
      <trkpt lat="47.35099" lon="2.863">
        <ele>141.6</ele>
        <time>2024-08-14T06:06:10Z</time>
      </trkpt>
      <trkpt lat="47.35106" lon="2.86303">
        <ele>141.6</ele>
        <time>2024-08-14T06:06:11Z</time>
      </trkpt>
      <trkpt lat="47.35125" lon="2.86315">
        <ele>141.6</ele>
        <time>2024-08-14T06:06:14Z</time>
      </trkpt>
      <trkpt lat="47.35149" lon="2.86335">
        <ele>141.6</ele>
        <time>2024-08-14T06:06:18Z</time>
      </trkpt>
      <trkpt lat="47.35175" lon="2.86361">
        <ele>141.4</ele>
        <time>2024-08-14T06:06:23Z</time>
      </trkpt>
      <trkpt lat="47.35189" lon="2.86376">
        <ele>141.6</ele>
        <time>2024-08-14T06:06:26Z</time>
      </trkpt>
      <trkpt lat="47.35196" lon="2.86386">
        <ele>141.8</ele>
        <time>2024-08-14T06:06:28Z</time>
      </trkpt>
      <trkpt lat="47.35209" lon="2.86396">
        <ele>142.6</ele>
        <time>2024-08-14T06:06:31Z</time>
      </trkpt>
      <trkpt lat="47.35215" lon="2.86401">
        <ele>142.8</ele>
        <time>2024-08-14T06:06:32Z</time>
      </trkpt>
      <trkpt lat="47.35244" lon="2.8643">
        <ele>143.2</ele>
        <time>2024-08-14T06:06:37Z</time>
      </trkpt>
      <trkpt lat="47.35285" lon="2.86484">
        <ele>142.2</ele>
        <time>2024-08-14T06:06:44Z</time>
      </trkpt>
      <trkpt lat="47.35291" lon="2.86491">
        <ele>142</ele>
        <time>2024-08-14T06:06:45Z</time>
      </trkpt>
      <trkpt lat="47.35325" lon="2.86542">
        <ele>141.6</ele>
        <time>2024-08-14T06:06:52Z</time>
      </trkpt>
      <trkpt lat="47.35329" lon="2.8655">
        <ele>141.6</ele>
        <time>2024-08-14T06:06:53Z</time>
      </trkpt>
      <trkpt lat="47.35341" lon="2.86574">
        <ele>141.8</ele>
        <time>2024-08-14T06:06:56Z</time>
      </trkpt>
      <trkpt lat="47.35373" lon="2.86634">
        <ele>141.6</ele>
        <time>2024-08-14T06:07:03Z</time>
      </trkpt>
      <trkpt lat="47.35391" lon="2.86667">
        <ele>141.8</ele>
        <time>2024-08-14T06:07:07Z</time>
      </trkpt>
      <trkpt lat="47.35396" lon="2.86674">
        <ele>141.8</ele>
        <time>2024-08-14T06:07:08Z</time>
      </trkpt>
      <trkpt lat="47.35425" lon="2.86706">
        <ele>141.6</ele>
        <time>2024-08-14T06:07:13Z</time>
      </trkpt>
      <trkpt lat="47.35431" lon="2.86711">
        <ele>141.6</ele>
        <time>2024-08-14T06:07:14Z</time>
      </trkpt>
      <trkpt lat="47.35457" lon="2.86729">
        <ele>141.6</ele>
        <time>2024-08-14T06:07:18Z</time>
      </trkpt>
      <trkpt lat="47.3547" lon="2.86735">
        <ele>141.6</ele>
        <time>2024-08-14T06:07:20Z</time>
      </trkpt>
      <trkpt lat="47.35493" lon="2.86748">
        <ele>141.6</ele>
        <time>2024-08-14T06:07:24Z</time>
      </trkpt>
      <trkpt lat="47.35537" lon="2.86773">
        <ele>141.6</ele>
        <time>2024-08-14T06:07:31Z</time>
      </trkpt>
      <trkpt lat="47.35549" lon="2.86782">
        <ele>141.4</ele>
        <time>2024-08-14T06:07:33Z</time>
      </trkpt>
      <trkpt lat="47.35576" lon="2.86798">
        <ele>141.4</ele>
        <time>2024-08-14T06:07:37Z</time>
      </trkpt>
      <trkpt lat="47.35618" lon="2.86826">
        <ele>141.4</ele>
        <time>2024-08-14T06:07:43Z</time>
      </trkpt>
      <trkpt lat="47.35671" lon="2.86867">
        <ele>141.4</ele>
        <time>2024-08-14T06:07:51Z</time>
      </trkpt>
      <trkpt lat="47.35678" lon="2.86874">
        <ele>141.2</ele>
        <time>2024-08-14T06:07:52Z</time>
      </trkpt>
      <trkpt lat="47.35697" lon="2.86893">
        <ele>141.4</ele>
        <time>2024-08-14T06:07:55Z</time>
      </trkpt>
      <trkpt lat="47.35742" lon="2.86935">
        <ele>141.4</ele>
        <time>2024-08-14T06:08:02Z</time>
      </trkpt>
      <trkpt lat="47.3579" lon="2.86983">
        <ele>141.2</ele>
        <time>2024-08-14T06:08:10Z</time>
      </trkpt>
      <trkpt lat="47.35831" lon="2.87025">
        <ele>141.2</ele>
        <time>2024-08-14T06:08:17Z</time>
      </trkpt>
      <trkpt lat="47.35874" lon="2.8706">
        <ele>141.4</ele>
        <time>2024-08-14T06:08:24Z</time>
      </trkpt>
      <trkpt lat="47.35911" lon="2.87083">
        <ele>141.4</ele>
        <time>2024-08-14T06:08:30Z</time>
      </trkpt>
      <trkpt lat="47.35946" lon="2.87105">
        <ele>141.4</ele>
        <time>2024-08-14T06:08:36Z</time>
      </trkpt>
      <trkpt lat="47.35994" lon="2.8713">
        <ele>141.4</ele>
        <time>2024-08-14T06:08:43Z</time>
      </trkpt>
      <trkpt lat="47.36035" lon="2.87154">
        <ele>141.4</ele>
        <time>2024-08-14T06:08:49Z</time>
      </trkpt>
      <trkpt lat="47.36083" lon="2.87179">
        <ele>141.2</ele>
        <time>2024-08-14T06:08:56Z</time>
      </trkpt>
      <trkpt lat="47.36133" lon="2.87199">
        <ele>140.8</ele>
        <time>2024-08-14T06:09:03Z</time>
      </trkpt>
      <trkpt lat="47.36154" lon="2.87209">
        <ele>140.8</ele>
        <time>2024-08-14T06:09:06Z</time>
      </trkpt>
      <trkpt lat="47.36167" lon="2.87218">
        <ele>140.8</ele>
        <time>2024-08-14T06:09:08Z</time>
      </trkpt>
      <trkpt lat="47.36174" lon="2.87222">
        <ele>140.8</ele>
        <time>2024-08-14T06:09:09Z</time>
      </trkpt>
      <trkpt lat="47.36205" lon="2.87244">
        <ele>141</ele>
        <time>2024-08-14T06:09:14Z</time>
      </trkpt>
      <trkpt lat="47.36217" lon="2.87257">
        <ele>141</ele>
        <time>2024-08-14T06:09:16Z</time>
      </trkpt>
      <trkpt lat="47.36252" lon="2.87285">
        <ele>141</ele>
        <time>2024-08-14T06:09:21Z</time>
      </trkpt>
      <trkpt lat="47.36303" lon="2.87322">
        <ele>141.2</ele>
        <time>2024-08-14T06:09:29Z</time>
      </trkpt>
      <trkpt lat="47.36346" lon="2.87347">
        <ele>141.4</ele>
        <time>2024-08-14T06:09:36Z</time>
      </trkpt>
      <trkpt lat="47.36387" lon="2.87371">
        <ele>141.2</ele>
        <time>2024-08-14T06:09:43Z</time>
      </trkpt>
      <trkpt lat="47.36406" lon="2.87383">
        <ele>141.2</ele>
        <time>2024-08-14T06:09:46Z</time>
      </trkpt>
      <trkpt lat="47.36433" lon="2.87401">
        <ele>141.2</ele>
        <time>2024-08-14T06:09:50Z</time>
      </trkpt>
      <trkpt lat="47.36446" lon="2.87408">
        <ele>141.2</ele>
        <time>2024-08-14T06:09:52Z</time>
      </trkpt>
      <trkpt lat="47.36465" lon="2.87421">
        <ele>141.2</ele>
        <time>2024-08-14T06:09:55Z</time>
      </trkpt>
      <trkpt lat="47.36509" lon="2.87449">
        <ele>141</ele>
        <time>2024-08-14T06:10:02Z</time>
      </trkpt>
      <trkpt lat="47.36529" lon="2.87461">
        <ele>141</ele>
        <time>2024-08-14T06:10:04Z</time>
      </trkpt>
      <trkpt lat="47.36541" lon="2.87469">
        <ele>141</ele>
        <time>2024-08-14T06:10:06Z</time>
      </trkpt>
      <trkpt lat="47.36552" lon="2.87476">
        <ele>141</ele>
        <time>2024-08-14T06:10:08Z</time>
      </trkpt>
      <trkpt lat="47.36569" lon="2.87488">
        <ele>140.8</ele>
        <time>2024-08-14T06:10:11Z</time>
      </trkpt>
      <trkpt lat="47.36592" lon="2.8751">
        <ele>140.8</ele>
        <time>2024-08-14T06:10:15Z</time>
      </trkpt>
      <trkpt lat="47.36603" lon="2.87523">
        <ele>140.8</ele>
        <time>2024-08-14T06:10:17Z</time>
      </trkpt>
      <trkpt lat="47.36615" lon="2.87536">
        <ele>140.8</ele>
        <time>2024-08-14T06:10:19Z</time>
      </trkpt>
      <trkpt lat="47.36636" lon="2.87555">
        <ele>140.8</ele>
        <time>2024-08-14T06:10:22Z</time>
      </trkpt>
      <trkpt lat="47.3668" lon="2.87594">
        <ele>140.8</ele>
        <time>2024-08-14T06:10:29Z</time>
      </trkpt>
      <trkpt lat="47.36726" lon="2.87621">
        <ele>140.8</ele>
        <time>2024-08-14T06:10:36Z</time>
      </trkpt>
      <trkpt lat="47.36765" lon="2.8764">
        <ele>140.8</ele>
        <time>2024-08-14T06:10:42Z</time>
      </trkpt>
      <trkpt lat="47.36806" lon="2.8766">
        <ele>140.8</ele>
        <time>2024-08-14T06:10:48Z</time>
      </trkpt>
      <trkpt lat="47.3686" lon="2.87686">
        <ele>140.6</ele>
        <time>2024-08-14T06:10:56Z</time>
      </trkpt>
      <trkpt lat="47.36899" lon="2.87708">
        <ele>140.6</ele>
        <time>2024-08-14T06:11:02Z</time>
      </trkpt>
      <trkpt lat="47.36905" lon="2.87711">
        <ele>140.6</ele>
        <time>2024-08-14T06:11:03Z</time>
      </trkpt>
      <trkpt lat="47.36919" lon="2.87721">
        <ele>140.8</ele>
        <time>2024-08-14T06:11:06Z</time>
      </trkpt>
      <trkpt lat="47.36927" lon="2.87726">
        <ele>140.8</ele>
        <time>2024-08-14T06:11:08Z</time>
      </trkpt>
      <trkpt lat="47.36938" lon="2.8773">
        <ele>141.4</ele>
        <time>2024-08-14T06:11:10Z</time>
      </trkpt>
      <trkpt lat="47.36967" lon="2.87741">
        <ele>141.6</ele>
        <time>2024-08-14T06:11:14Z</time>
      </trkpt>
      <trkpt lat="47.37006" lon="2.87751">
        <ele>141.2</ele>
        <time>2024-08-14T06:11:19Z</time>
      </trkpt>
      <trkpt lat="47.37058" lon="2.87755">
        <ele>140.6</ele>
        <time>2024-08-14T06:11:26Z</time>
      </trkpt>
      <trkpt lat="47.37073" lon="2.87755">
        <ele>140.4</ele>
        <time>2024-08-14T06:11:28Z</time>
      </trkpt>
      <trkpt lat="47.37087" lon="2.87755">
        <ele>140.4</ele>
        <time>2024-08-14T06:11:30Z</time>
      </trkpt>
      <trkpt lat="47.37095" lon="2.87755">
        <ele>140.4</ele>
        <time>2024-08-14T06:11:31Z</time>
      </trkpt>
      <trkpt lat="47.37139" lon="2.87762">
        <ele>140</ele>
        <time>2024-08-14T06:11:37Z</time>
      </trkpt>
      <trkpt lat="47.37146" lon="2.87765">
        <ele>140</ele>
        <time>2024-08-14T06:11:38Z</time>
      </trkpt>
      <trkpt lat="47.37182" lon="2.87777">
        <ele>140</ele>
        <time>2024-08-14T06:11:43Z</time>
      </trkpt>
      <trkpt lat="47.37204" lon="2.87785">
        <ele>140.2</ele>
        <time>2024-08-14T06:11:46Z</time>
      </trkpt>
      <trkpt lat="47.37217" lon="2.87793">
        <ele>140.2</ele>
        <time>2024-08-14T06:11:48Z</time>
      </trkpt>
      <trkpt lat="47.37231" lon="2.87798">
        <ele>140.2</ele>
        <time>2024-08-14T06:11:50Z</time>
      </trkpt>
      <trkpt lat="47.37279" lon="2.87816">
        <ele>140.2</ele>
        <time>2024-08-14T06:11:57Z</time>
      </trkpt>
      <trkpt lat="47.37336" lon="2.8783">
        <ele>139.8</ele>
        <time>2024-08-14T06:12:05Z</time>
      </trkpt>
      <trkpt lat="47.37385" lon="2.87843">
        <ele>140</ele>
        <time>2024-08-14T06:12:12Z</time>
      </trkpt>
      <trkpt lat="47.37438" lon="2.87859">
        <ele>140</ele>
        <time>2024-08-14T06:12:19Z</time>
      </trkpt>
      <trkpt lat="47.37445" lon="2.87861">
        <ele>140</ele>
        <time>2024-08-14T06:12:20Z</time>
      </trkpt>
      <trkpt lat="47.37503" lon="2.87887">
        <ele>139.8</ele>
        <time>2024-08-14T06:12:28Z</time>
      </trkpt>
      <trkpt lat="47.37556" lon="2.87916">
        <ele>139.6</ele>
        <time>2024-08-14T06:12:36Z</time>
      </trkpt>
      <trkpt lat="47.37563" lon="2.87921">
        <ele>139.6</ele>
        <time>2024-08-14T06:12:37Z</time>
      </trkpt>
      <trkpt lat="47.37587" lon="2.87944">
        <ele>139.8</ele>
        <time>2024-08-14T06:12:41Z</time>
      </trkpt>
      <trkpt lat="47.37592" lon="2.87951">
        <ele>139.8</ele>
        <time>2024-08-14T06:12:42Z</time>
      </trkpt>
      <trkpt lat="47.37626" lon="2.87993">
        <ele>140</ele>
        <time>2024-08-14T06:12:48Z</time>
      </trkpt>
      <trkpt lat="47.37631" lon="2.87998">
        <ele>140</ele>
        <time>2024-08-14T06:12:49Z</time>
      </trkpt>
      <trkpt lat="47.37671" lon="2.88026">
        <ele>140</ele>
        <time>2024-08-14T06:12:55Z</time>
      </trkpt>
      <trkpt lat="47.37723" lon="2.88062">
        <ele>140</ele>
        <time>2024-08-14T06:13:03Z</time>
      </trkpt>
      <trkpt lat="47.37729" lon="2.88067">
        <ele>140</ele>
        <time>2024-08-14T06:13:04Z</time>
      </trkpt>
      <trkpt lat="47.37768" lon="2.88093">
        <ele>139.8</ele>
        <time>2024-08-14T06:13:10Z</time>
      </trkpt>
      <trkpt lat="47.37815" lon="2.8812">
        <ele>139.8</ele>
        <time>2024-08-14T06:13:17Z</time>
      </trkpt>
      <trkpt lat="47.37856" lon="2.88134">
        <ele>139.8</ele>
        <time>2024-08-14T06:13:23Z</time>
      </trkpt>
      <trkpt lat="47.37912" lon="2.88154">
        <ele>139.6</ele>
        <time>2024-08-14T06:13:31Z</time>
      </trkpt>
      <trkpt lat="47.37934" lon="2.88165">
        <ele>139.6</ele>
        <time>2024-08-14T06:13:35Z</time>
      </trkpt>
      <trkpt lat="47.37938" lon="2.88168">
        <ele>139.6</ele>
        <time>2024-08-14T06:13:36Z</time>
      </trkpt>
      <trkpt lat="47.37943" lon="2.88171">
        <ele>139.8</ele>
        <time>2024-08-14T06:13:38Z</time>
      </trkpt>
      <trkpt lat="47.37946" lon="2.8817">
        <ele>140</ele>
        <time>2024-08-14T06:13:39Z</time>
      </trkpt>
      <trkpt lat="47.37951" lon="2.88154">
        <ele>141</ele>
        <time>2024-08-14T06:13:43Z</time>
      </trkpt>
      <trkpt lat="47.37957" lon="2.88135">
        <ele>142</ele>
        <time>2024-08-14T06:13:47Z</time>
      </trkpt>
      <trkpt lat="47.37961" lon="2.88134">
        <ele>142.2</ele>
        <time>2024-08-14T06:13:48Z</time>
      </trkpt>
      <trkpt lat="47.3797" lon="2.88135">
        <ele>142.6</ele>
        <time>2024-08-14T06:13:50Z</time>
      </trkpt>
      <trkpt lat="47.37981" lon="2.88139">
        <ele>142.6</ele>
        <time>2024-08-14T06:13:52Z</time>
      </trkpt>
      <trkpt lat="47.37999" lon="2.88144">
        <ele>142.4</ele>
        <time>2024-08-14T06:13:55Z</time>
      </trkpt>
      <trkpt lat="47.38018" lon="2.88154">
        <ele>141.8</ele>
        <time>2024-08-14T06:13:58Z</time>
      </trkpt>
      <trkpt lat="47.38062" lon="2.88183">
        <ele>141.4</ele>
        <time>2024-08-14T06:14:05Z</time>
      </trkpt>
      <trkpt lat="47.38113" lon="2.88215">
        <ele>141.6</ele>
        <time>2024-08-14T06:14:13Z</time>
      </trkpt>
      <trkpt lat="47.38125" lon="2.88224">
        <ele>141.6</ele>
        <time>2024-08-14T06:14:15Z</time>
      </trkpt>
      <trkpt lat="47.38177" lon="2.88256">
        <ele>142.2</ele>
        <time>2024-08-14T06:14:23Z</time>
      </trkpt>
      <trkpt lat="47.3819" lon="2.88264">
        <ele>142.4</ele>
        <time>2024-08-14T06:14:25Z</time>
      </trkpt>
      <trkpt lat="47.38246" lon="2.88301">
        <ele>142.4</ele>
        <time>2024-08-14T06:14:33Z</time>
      </trkpt>
      <trkpt lat="47.38254" lon="2.88306">
        <ele>142.4</ele>
        <time>2024-08-14T06:14:34Z</time>
      </trkpt>
      <trkpt lat="47.38308" lon="2.88345">
        <ele>141.2</ele>
        <time>2024-08-14T06:14:41Z</time>
      </trkpt>
      <trkpt lat="47.38315" lon="2.88351">
        <ele>141</ele>
        <time>2024-08-14T06:14:42Z</time>
      </trkpt>
      <trkpt lat="47.38351" lon="2.88381">
        <ele>139.8</ele>
        <time>2024-08-14T06:14:47Z</time>
      </trkpt>
      <trkpt lat="47.38378" lon="2.88405">
        <ele>139.2</ele>
        <time>2024-08-14T06:14:51Z</time>
      </trkpt>
      <trkpt lat="47.38429" lon="2.88445">
        <ele>139.4</ele>
        <time>2024-08-14T06:14:59Z</time>
      </trkpt>
      <trkpt lat="47.38475" lon="2.88486">
        <ele>139.8</ele>
        <time>2024-08-14T06:15:07Z</time>
      </trkpt>
      <trkpt lat="47.38524" lon="2.88526">
        <ele>140.4</ele>
        <time>2024-08-14T06:15:15Z</time>
      </trkpt>
      <trkpt lat="47.38557" lon="2.88549">
        <ele>140.6</ele>
        <time>2024-08-14T06:15:20Z</time>
      </trkpt>
      <trkpt lat="47.38597" lon="2.88566">
        <ele>140.8</ele>
        <time>2024-08-14T06:15:26Z</time>
      </trkpt>
      <trkpt lat="47.38643" lon="2.88572">
        <ele>141.2</ele>
        <time>2024-08-14T06:15:33Z</time>
      </trkpt>
      <trkpt lat="47.38664" lon="2.88576">
        <ele>141.4</ele>
        <time>2024-08-14T06:15:37Z</time>
      </trkpt>
      <trkpt lat="47.38675" lon="2.88577">
        <ele>141.6</ele>
        <time>2024-08-14T06:15:39Z</time>
      </trkpt>
      <trkpt lat="47.38692" lon="2.88579">
        <ele>142</ele>
        <time>2024-08-14T06:15:42Z</time>
      </trkpt>
      <trkpt lat="47.38715" lon="2.88582">
        <ele>142.8</ele>
        <time>2024-08-14T06:15:46Z</time>
      </trkpt>
      <trkpt lat="47.38734" lon="2.88585">
        <ele>143.4</ele>
        <time>2024-08-14T06:15:49Z</time>
      </trkpt>
      <trkpt lat="47.38785" lon="2.88601">
        <ele>143.6</ele>
        <time>2024-08-14T06:15:57Z</time>
      </trkpt>
      <trkpt lat="47.38833" lon="2.88624">
        <ele>143.8</ele>
        <time>2024-08-14T06:16:05Z</time>
      </trkpt>
      <trkpt lat="47.38839" lon="2.88627">
        <ele>144</ele>
        <time>2024-08-14T06:16:06Z</time>
      </trkpt>
      <trkpt lat="47.38898" lon="2.88653">
        <ele>144</ele>
        <time>2024-08-14T06:16:15Z</time>
      </trkpt>
      <trkpt lat="47.38939" lon="2.88679">
        <ele>143.4</ele>
        <time>2024-08-14T06:16:21Z</time>
      </trkpt>
      <trkpt lat="47.38953" lon="2.88691">
        <ele>143.2</ele>
        <time>2024-08-14T06:16:23Z</time>
      </trkpt>
      <trkpt lat="47.38968" lon="2.88695">
        <ele>142.8</ele>
        <time>2024-08-14T06:16:25Z</time>
      </trkpt>
      <trkpt lat="47.38973" lon="2.88694">
        <ele>142.8</ele>
        <time>2024-08-14T06:16:26Z</time>
      </trkpt>
      <trkpt lat="47.38987" lon="2.88686">
        <ele>142.4</ele>
        <time>2024-08-14T06:16:28Z</time>
      </trkpt>
      <trkpt lat="47.39016" lon="2.88681">
        <ele>142.2</ele>
        <time>2024-08-14T06:16:33Z</time>
      </trkpt>
      <trkpt lat="47.39052" lon="2.8868">
        <ele>143.4</ele>
        <time>2024-08-14T06:16:40Z</time>
      </trkpt>
      <trkpt lat="47.39061" lon="2.88677">
        <ele>143.8</ele>
        <time>2024-08-14T06:16:42Z</time>
      </trkpt>
      <trkpt lat="47.39061" lon="2.88677">
        <ele>144.2</ele>
        <time>2024-08-14T06:16:43Z</time>
      </trkpt>
      <trkpt lat="47.39065" lon="2.88681">
        <ele>144.4</ele>
        <time>2024-08-14T06:16:44Z</time>
      </trkpt>
      <trkpt lat="47.39067" lon="2.88685">
        <ele>144.4</ele>
        <time>2024-08-14T06:16:45Z</time>
      </trkpt>
      <trkpt lat="47.3907" lon="2.88689">
        <ele>144.6</ele>
        <time>2024-08-14T06:16:46Z</time>
      </trkpt>
      <trkpt lat="47.39084" lon="2.88699">
        <ele>144.6</ele>
        <time>2024-08-14T06:16:49Z</time>
      </trkpt>
      <trkpt lat="47.3911" lon="2.88718">
        <ele>144.8</ele>
        <time>2024-08-14T06:16:54Z</time>
      </trkpt>
      <trkpt lat="47.39115" lon="2.88721">
        <ele>145</ele>
        <time>2024-08-14T06:16:55Z</time>
      </trkpt>
      <trkpt lat="47.39131" lon="2.88733">
        <ele>145.4</ele>
        <time>2024-08-14T06:16:58Z</time>
      </trkpt>
      <trkpt lat="47.39141" lon="2.8874">
        <ele>145.6</ele>
        <time>2024-08-14T06:17:00Z</time>
      </trkpt>
      <trkpt lat="47.39159" lon="2.88745">
        <ele>145.8</ele>
        <time>2024-08-14T06:17:03Z</time>
      </trkpt>
      <trkpt lat="47.39163" lon="2.88745">
        <ele>146</ele>
        <time>2024-08-14T06:17:04Z</time>
      </trkpt>
      <trkpt lat="47.39185" lon="2.88741">
        <ele>146.6</ele>
        <time>2024-08-14T06:17:09Z</time>
      </trkpt>
      <trkpt lat="47.3919" lon="2.88739">
        <ele>146.8</ele>
        <time>2024-08-14T06:17:13Z</time>
      </trkpt>
      <trkpt lat="47.39191" lon="2.88739">
        <ele>147</ele>
        <time>2024-08-14T06:17:14Z</time>
      </trkpt>
      <trkpt lat="47.39191" lon="2.88739">
        <ele>147.8</ele>
        <time>2024-08-14T06:17:17Z</time>
      </trkpt>
      <trkpt lat="47.3921" lon="2.88728">
        <ele>148.2</ele>
        <time>2024-08-14T06:17:48Z</time>
      </trkpt>
      <trkpt lat="47.39213" lon="2.88727">
        <ele>148.2</ele>
        <time>2024-08-14T06:17:49Z</time>
      </trkpt>
      <trkpt lat="47.39234" lon="2.88723">
        <ele>148.2</ele>
        <time>2024-08-14T06:17:54Z</time>
      </trkpt>
      <trkpt lat="47.39267" lon="2.8872">
        <ele>148</ele>
        <time>2024-08-14T06:18:00Z</time>
      </trkpt>
      <trkpt lat="47.39313" lon="2.88716">
        <ele>149.2</ele>
        <time>2024-08-14T06:18:08Z</time>
      </trkpt>
      <trkpt lat="47.39321" lon="2.88715">
        <ele>149.4</ele>
        <time>2024-08-14T06:18:09Z</time>
      </trkpt>
      <trkpt lat="47.39343" lon="2.88715">
        <ele>150.2</ele>
        <time>2024-08-14T06:18:13Z</time>
      </trkpt>
      <trkpt lat="47.3935" lon="2.88718">
        <ele>150.4</ele>
        <time>2024-08-14T06:18:14Z</time>
      </trkpt>
      <trkpt lat="47.39376" lon="2.8873">
        <ele>151.2</ele>
        <time>2024-08-14T06:18:19Z</time>
      </trkpt>
      <trkpt lat="47.39381" lon="2.88733">
        <ele>151.2</ele>
        <time>2024-08-14T06:18:20Z</time>
      </trkpt>
      <trkpt lat="47.39402" lon="2.88747">
        <ele>151.8</ele>
        <time>2024-08-14T06:18:25Z</time>
      </trkpt>
      <trkpt lat="47.39402" lon="2.88747">
        <ele>152</ele>
        <time>2024-08-14T06:18:26Z</time>
      </trkpt>
      <trkpt lat="47.3941" lon="2.88753">
        <ele>152.2</ele>
        <time>2024-08-14T06:18:27Z</time>
      </trkpt>
      <trkpt lat="47.39415" lon="2.88755">
        <ele>152.6</ele>
        <time>2024-08-14T06:18:28Z</time>
      </trkpt>
      <trkpt lat="47.3942" lon="2.88758">
        <ele>152.8</ele>
        <time>2024-08-14T06:18:29Z</time>
      </trkpt>
      <trkpt lat="47.39425" lon="2.8876">
        <ele>153.2</ele>
        <time>2024-08-14T06:18:30Z</time>
      </trkpt>
      <trkpt lat="47.39439" lon="2.88768">
        <ele>153.8</ele>
        <time>2024-08-14T06:18:33Z</time>
      </trkpt>
      <trkpt lat="47.3945" lon="2.88774">
        <ele>154</ele>
        <time>2024-08-14T06:18:35Z</time>
      </trkpt>
      <trkpt lat="47.39459" lon="2.88778">
        <ele>154.4</ele>
        <time>2024-08-14T06:18:37Z</time>
      </trkpt>
      <trkpt lat="47.39477" lon="2.88782">
        <ele>155</ele>
        <time>2024-08-14T06:18:40Z</time>
      </trkpt>
      <trkpt lat="47.39495" lon="2.88783">
        <ele>155.2</ele>
        <time>2024-08-14T06:18:43Z</time>
      </trkpt>
      <trkpt lat="47.39533" lon="2.88779">
        <ele>155.2</ele>
        <time>2024-08-14T06:18:49Z</time>
      </trkpt>
      <trkpt lat="47.3959" lon="2.8877">
        <ele>155.8</ele>
        <time>2024-08-14T06:18:58Z</time>
      </trkpt>
      <trkpt lat="47.3961" lon="2.8877">
        <ele>156</ele>
        <time>2024-08-14T06:19:01Z</time>
      </trkpt>
      <trkpt lat="47.39641" lon="2.88768">
        <ele>156</ele>
        <time>2024-08-14T06:19:06Z</time>
      </trkpt>
      <trkpt lat="47.39687" lon="2.88775">
        <ele>155.8</ele>
        <time>2024-08-14T06:19:13Z</time>
      </trkpt>
      <trkpt lat="47.39715" lon="2.88774">
        <ele>155.4</ele>
        <time>2024-08-14T06:19:17Z</time>
      </trkpt>
      <trkpt lat="47.39724" lon="2.88773">
        <ele>155.4</ele>
        <time>2024-08-14T06:19:18Z</time>
      </trkpt>
      <trkpt lat="47.39729" lon="2.88771">
        <ele>155.2</ele>
        <time>2024-08-14T06:19:19Z</time>
      </trkpt>
      <trkpt lat="47.3974" lon="2.8877">
        <ele>154.6</ele>
        <time>2024-08-14T06:19:21Z</time>
      </trkpt>
      <trkpt lat="47.39747" lon="2.88768">
        <ele>154.4</ele>
        <time>2024-08-14T06:19:22Z</time>
      </trkpt>
      <trkpt lat="47.39761" lon="2.88756">
        <ele>153.4</ele>
        <time>2024-08-14T06:19:24Z</time>
      </trkpt>
      <trkpt lat="47.39775" lon="2.88745">
        <ele>151.8</ele>
        <time>2024-08-14T06:19:26Z</time>
      </trkpt>
      <trkpt lat="47.39781" lon="2.88743">
        <ele>151</ele>
        <time>2024-08-14T06:19:27Z</time>
      </trkpt>
      <trkpt lat="47.39787" lon="2.88744">
        <ele>150.2</ele>
        <time>2024-08-14T06:19:28Z</time>
      </trkpt>
      <trkpt lat="47.39792" lon="2.88748">
        <ele>150</ele>
        <time>2024-08-14T06:19:29Z</time>
      </trkpt>
      <trkpt lat="47.39805" lon="2.88762">
        <ele>149.4</ele>
        <time>2024-08-14T06:19:31Z</time>
      </trkpt>
      <trkpt lat="47.3981" lon="2.88769">
        <ele>149.2</ele>
        <time>2024-08-14T06:19:32Z</time>
      </trkpt>
      <trkpt lat="47.39814" lon="2.88775">
        <ele>149</ele>
        <time>2024-08-14T06:19:33Z</time>
      </trkpt>
      <trkpt lat="47.39831" lon="2.88797">
        <ele>149.2</ele>
        <time>2024-08-14T06:19:37Z</time>
      </trkpt>
      <trkpt lat="47.39843" lon="2.88809">
        <ele>150.2</ele>
        <time>2024-08-14T06:19:40Z</time>
      </trkpt>
      <trkpt lat="47.3985" lon="2.88815">
        <ele>151</ele>
        <time>2024-08-14T06:19:42Z</time>
      </trkpt>
      <trkpt lat="47.39854" lon="2.88819">
        <ele>151.2</ele>
        <time>2024-08-14T06:19:43Z</time>
      </trkpt>
      <trkpt lat="47.39866" lon="2.8883">
        <ele>152.6</ele>
        <time>2024-08-14T06:19:46Z</time>
      </trkpt>
      <trkpt lat="47.39878" lon="2.88842">
        <ele>153.6</ele>
        <time>2024-08-14T06:19:49Z</time>
      </trkpt>
      <trkpt lat="47.39883" lon="2.88847">
        <ele>153.8</ele>
        <time>2024-08-14T06:19:50Z</time>
      </trkpt>
      <trkpt lat="47.39896" lon="2.88859">
        <ele>154.6</ele>
        <time>2024-08-14T06:19:53Z</time>
      </trkpt>
      <trkpt lat="47.3991" lon="2.88871">
        <ele>155.2</ele>
        <time>2024-08-14T06:19:56Z</time>
      </trkpt>
      <trkpt lat="47.39914" lon="2.88875">
        <ele>155</ele>
        <time>2024-08-14T06:19:57Z</time>
      </trkpt>
      <trkpt lat="47.39929" lon="2.88889">
        <ele>155.6</ele>
        <time>2024-08-14T06:20:00Z</time>
      </trkpt>
      <trkpt lat="47.39943" lon="2.88901">
        <ele>156</ele>
        <time>2024-08-14T06:20:03Z</time>
      </trkpt>
      <trkpt lat="47.39979" lon="2.88923">
        <ele>156.6</ele>
        <time>2024-08-14T06:20:09Z</time>
      </trkpt>
      <trkpt lat="47.39992" lon="2.88927">
        <ele>156.8</ele>
        <time>2024-08-14T06:20:11Z</time>
      </trkpt>
      <trkpt lat="47.40031" lon="2.88936">
        <ele>156.6</ele>
        <time>2024-08-14T06:20:17Z</time>
      </trkpt>
      <trkpt lat="47.40085" lon="2.88944">
        <ele>156.6</ele>
        <time>2024-08-14T06:20:25Z</time>
      </trkpt>
      <trkpt lat="47.40136" lon="2.8895">
        <ele>156.2</ele>
        <time>2024-08-14T06:20:33Z</time>
      </trkpt>
      <trkpt lat="47.40152" lon="2.88952">
        <ele>156.2</ele>
        <time>2024-08-14T06:20:34Z</time>
      </trkpt>
      <trkpt lat="47.40172" lon="2.88958">
        <ele>155.6</ele>
        <time>2024-08-14T06:20:37Z</time>
      </trkpt>
      <trkpt lat="47.40215" lon="2.88977">
        <ele>154.6</ele>
        <time>2024-08-14T06:20:41Z</time>
      </trkpt>
      <trkpt lat="47.40229" lon="2.88983">
        <ele>154.2</ele>
        <time>2024-08-14T06:20:43Z</time>
      </trkpt>
      <trkpt lat="47.40254" lon="2.88994">
        <ele>154</ele>
        <time>2024-08-14T06:20:47Z</time>
      </trkpt>
      <trkpt lat="47.40265" lon="2.88996">
        <ele>154.2</ele>
        <time>2024-08-14T06:20:49Z</time>
      </trkpt>
      <trkpt lat="47.40283" lon="2.88996">
        <ele>154.4</ele>
        <time>2024-08-14T06:20:52Z</time>
      </trkpt>
      <trkpt lat="47.40306" lon="2.88998">
        <ele>154.8</ele>
        <time>2024-08-14T06:20:57Z</time>
      </trkpt>
      <trkpt lat="47.40319" lon="2.88999">
        <ele>155</ele>
        <time>2024-08-14T06:20:59Z</time>
      </trkpt>
      <trkpt lat="47.40327" lon="2.89001">
        <ele>155.2</ele>
        <time>2024-08-14T06:21:00Z</time>
      </trkpt>
      <trkpt lat="47.40347" lon="2.89007">
        <ele>155.6</ele>
        <time>2024-08-14T06:21:03Z</time>
      </trkpt>
      <trkpt lat="47.40353" lon="2.89011">
        <ele>155.6</ele>
        <time>2024-08-14T06:21:04Z</time>
      </trkpt>
      <trkpt lat="47.4036" lon="2.89016">
        <ele>155.8</ele>
        <time>2024-08-14T06:21:05Z</time>
      </trkpt>
      <trkpt lat="47.40365" lon="2.89022">
        <ele>155.8</ele>
        <time>2024-08-14T06:21:06Z</time>
      </trkpt>
      <trkpt lat="47.40374" lon="2.89032">
        <ele>155.8</ele>
        <time>2024-08-14T06:21:08Z</time>
      </trkpt>
      <trkpt lat="47.40377" lon="2.89036">
        <ele>155.8</ele>
        <time>2024-08-14T06:21:09Z</time>
      </trkpt>
      <trkpt lat="47.40382" lon="2.8904">
        <ele>155.8</ele>
        <time>2024-08-14T06:21:10Z</time>
      </trkpt>
      <trkpt lat="47.40395" lon="2.89048">
        <ele>155.2</ele>
        <time>2024-08-14T06:21:13Z</time>
      </trkpt>
      <trkpt lat="47.40404" lon="2.89053">
        <ele>154.4</ele>
        <time>2024-08-14T06:21:15Z</time>
      </trkpt>
      <trkpt lat="47.40421" lon="2.89064">
        <ele>154.2</ele>
        <time>2024-08-14T06:21:19Z</time>
      </trkpt>
      <trkpt lat="47.40432" lon="2.89069">
        <ele>154.2</ele>
        <time>2024-08-14T06:21:21Z</time>
      </trkpt>
      <trkpt lat="47.40464" lon="2.8909">
        <ele>154.6</ele>
        <time>2024-08-14T06:21:27Z</time>
      </trkpt>
      <trkpt lat="47.40505" lon="2.89123">
        <ele>154.4</ele>
        <time>2024-08-14T06:21:34Z</time>
      </trkpt>
      <trkpt lat="47.40539" lon="2.89157">
        <ele>154.4</ele>
        <time>2024-08-14T06:21:40Z</time>
      </trkpt>
      <trkpt lat="47.40564" lon="2.89189">
        <ele>154.2</ele>
        <time>2024-08-14T06:21:45Z</time>
      </trkpt>
      <trkpt lat="47.4057" lon="2.89195">
        <ele>154.2</ele>
        <time>2024-08-14T06:21:46Z</time>
      </trkpt>
      <trkpt lat="47.40606" lon="2.89232">
        <ele>154.2</ele>
        <time>2024-08-14T06:21:53Z</time>
      </trkpt>
      <trkpt lat="47.40623" lon="2.89246">
        <ele>154.6</ele>
        <time>2024-08-14T06:21:56Z</time>
      </trkpt>
      <trkpt lat="47.40638" lon="2.89259">
        <ele>155</ele>
        <time>2024-08-14T06:21:59Z</time>
      </trkpt>
      <trkpt lat="47.40675" lon="2.89286">
        <ele>155.2</ele>
        <time>2024-08-14T06:22:05Z</time>
      </trkpt>
      <trkpt lat="47.40686" lon="2.89293">
        <ele>155.2</ele>
        <time>2024-08-14T06:22:07Z</time>
      </trkpt>
      <trkpt lat="47.40727" lon="2.89313">
        <ele>155.6</ele>
        <time>2024-08-14T06:22:14Z</time>
      </trkpt>
      <trkpt lat="47.4075" lon="2.89322">
        <ele>156</ele>
        <time>2024-08-14T06:22:18Z</time>
      </trkpt>
      <trkpt lat="47.40761" lon="2.8933">
        <ele>156.2</ele>
        <time>2024-08-14T06:22:20Z</time>
      </trkpt>
      <trkpt lat="47.40784" lon="2.89346">
        <ele>156.2</ele>
        <time>2024-08-14T06:22:24Z</time>
      </trkpt>
      <trkpt lat="47.40795" lon="2.89354">
        <ele>156.4</ele>
        <time>2024-08-14T06:22:27Z</time>
      </trkpt>
      <trkpt lat="47.40829" lon="2.89375">
        <ele>156.2</ele>
        <time>2024-08-14T06:22:32Z</time>
      </trkpt>
      <trkpt lat="47.40835" lon="2.89377">
        <ele>156.2</ele>
        <time>2024-08-14T06:22:33Z</time>
      </trkpt>
      <trkpt lat="47.40883" lon="2.89384">
        <ele>155.8</ele>
        <time>2024-08-14T06:22:40Z</time>
      </trkpt>
      <trkpt lat="47.40923" lon="2.89383">
        <ele>155</ele>
        <time>2024-08-14T06:22:45Z</time>
      </trkpt>
      <trkpt lat="47.4093" lon="2.89383">
        <ele>154.6</ele>
        <time>2024-08-14T06:22:46Z</time>
      </trkpt>
      <trkpt lat="47.40949" lon="2.89383">
        <ele>153.8</ele>
        <time>2024-08-14T06:22:48Z</time>
      </trkpt>
      <trkpt lat="47.40978" lon="2.89385">
        <ele>152.4</ele>
        <time>2024-08-14T06:22:51Z</time>
      </trkpt>
      <trkpt lat="47.40985" lon="2.89387">
        <ele>151.4</ele>
        <time>2024-08-14T06:22:52Z</time>
      </trkpt>
      <trkpt lat="47.41" lon="2.89392">
        <ele>150.2</ele>
        <time>2024-08-14T06:22:54Z</time>
      </trkpt>
      <trkpt lat="47.41014" lon="2.89397">
        <ele>149.4</ele>
        <time>2024-08-14T06:22:56Z</time>
      </trkpt>
      <trkpt lat="47.41014" lon="2.89397">
        <ele>148.8</ele>
        <time>2024-08-14T06:22:57Z</time>
      </trkpt>
      <trkpt lat="47.41024" lon="2.89403">
        <ele>148.4</ele>
        <time>2024-08-14T06:22:58Z</time>
      </trkpt>
      <trkpt lat="47.41031" lon="2.89406">
        <ele>147.8</ele>
        <time>2024-08-14T06:22:59Z</time>
      </trkpt>
      <trkpt lat="47.41036" lon="2.89408">
        <ele>147</ele>
        <time>2024-08-14T06:23:00Z</time>
      </trkpt>
      <trkpt lat="47.4104" lon="2.8941">
        <ele>146.2</ele>
        <time>2024-08-14T06:23:01Z</time>
      </trkpt>
      <trkpt lat="47.41048" lon="2.89413">
        <ele>145.2</ele>
        <time>2024-08-14T06:23:03Z</time>
      </trkpt>
      <trkpt lat="47.41052" lon="2.89414">
        <ele>144.6</ele>
        <time>2024-08-14T06:23:04Z</time>
      </trkpt>
      <trkpt lat="47.41056" lon="2.89414">
        <ele>143.6</ele>
        <time>2024-08-14T06:23:06Z</time>
      </trkpt>
      <trkpt lat="47.41064" lon="2.89412">
        <ele>142</ele>
        <time>2024-08-14T06:23:08Z</time>
      </trkpt>
      <trkpt lat="47.41067" lon="2.89413">
        <ele>140.8</ele>
        <time>2024-08-14T06:23:09Z</time>
      </trkpt>
      <trkpt lat="47.41074" lon="2.89415">
        <ele>139.6</ele>
        <time>2024-08-14T06:23:11Z</time>
      </trkpt>
      <trkpt lat="47.41079" lon="2.89414">
        <ele>139</ele>
        <time>2024-08-14T06:23:12Z</time>
      </trkpt>
      <trkpt lat="47.41107" lon="2.89407">
        <ele>138.2</ele>
        <time>2024-08-14T06:23:16Z</time>
      </trkpt>
      <trkpt lat="47.4112" lon="2.89403">
        <ele>138</ele>
        <time>2024-08-14T06:23:18Z</time>
      </trkpt>
      <trkpt lat="47.41133" lon="2.894">
        <ele>137.2</ele>
        <time>2024-08-14T06:23:20Z</time>
      </trkpt>
      <trkpt lat="47.41138" lon="2.89401">
        <ele>136.8</ele>
        <time>2024-08-14T06:23:21Z</time>
      </trkpt>
      <trkpt lat="47.41143" lon="2.89404">
        <ele>136</ele>
        <time>2024-08-14T06:23:23Z</time>
      </trkpt>
      <trkpt lat="47.41146" lon="2.89404">
        <ele>135.6</ele>
        <time>2024-08-14T06:23:24Z</time>
      </trkpt>
      <trkpt lat="47.4115" lon="2.89403">
        <ele>135.4</ele>
        <time>2024-08-14T06:23:25Z</time>
      </trkpt>
      <trkpt lat="47.41161" lon="2.89393">
        <ele>135.4</ele>
        <time>2024-08-14T06:23:28Z</time>
      </trkpt>
      <trkpt lat="47.41171" lon="2.89388">
        <ele>135.2</ele>
        <time>2024-08-14T06:23:30Z</time>
      </trkpt>
      <trkpt lat="47.41182" lon="2.89388">
        <ele>135.2</ele>
        <time>2024-08-14T06:23:32Z</time>
      </trkpt>
      <trkpt lat="47.41206" lon="2.89396">
        <ele>135.6</ele>
        <time>2024-08-14T06:23:37Z</time>
      </trkpt>
      <trkpt lat="47.41216" lon="2.89398">
        <ele>136</ele>
        <time>2024-08-14T06:23:39Z</time>
      </trkpt>
      <trkpt lat="47.41224" lon="2.89397">
        <ele>136.8</ele>
        <time>2024-08-14T06:23:41Z</time>
      </trkpt>
      <trkpt lat="47.41229" lon="2.89397">
        <ele>137</ele>
        <time>2024-08-14T06:23:42Z</time>
      </trkpt>
      <trkpt lat="47.41233" lon="2.89396">
        <ele>137.4</ele>
        <time>2024-08-14T06:23:43Z</time>
      </trkpt>
      <trkpt lat="47.41242" lon="2.89394">
        <ele>138</ele>
        <time>2024-08-14T06:23:45Z</time>
      </trkpt>
      <trkpt lat="47.41259" lon="2.89393">
        <ele>139</ele>
        <time>2024-08-14T06:23:49Z</time>
      </trkpt>
      <trkpt lat="47.41264" lon="2.89393">
        <ele>139.2</ele>
        <time>2024-08-14T06:23:50Z</time>
      </trkpt>
      <trkpt lat="47.41281" lon="2.89391">
        <ele>140.4</ele>
        <time>2024-08-14T06:23:54Z</time>
      </trkpt>
      <trkpt lat="47.41284" lon="2.8939">
        <ele>140.4</ele>
        <time>2024-08-14T06:23:55Z</time>
      </trkpt>
      <trkpt lat="47.41292" lon="2.89386">
        <ele>141.2</ele>
        <time>2024-08-14T06:23:57Z</time>
      </trkpt>
      <trkpt lat="47.41296" lon="2.89385">
        <ele>141.4</ele>
        <time>2024-08-14T06:23:58Z</time>
      </trkpt>
      <trkpt lat="47.41306" lon="2.89378">
        <ele>142.6</ele>
        <time>2024-08-14T06:24:01Z</time>
      </trkpt>
      <trkpt lat="47.41309" lon="2.89375">
        <ele>143.2</ele>
        <time>2024-08-14T06:24:02Z</time>
      </trkpt>
      <trkpt lat="47.41314" lon="2.8937">
        <ele>143.8</ele>
        <time>2024-08-14T06:24:04Z</time>
      </trkpt>
      <trkpt lat="47.41325" lon="2.89359">
        <ele>144.8</ele>
        <time>2024-08-14T06:24:08Z</time>
      </trkpt>
      <trkpt lat="47.4134" lon="2.8935">
        <ele>146.2</ele>
        <time>2024-08-14T06:24:13Z</time>
      </trkpt>
      <trkpt lat="47.41359" lon="2.89332">
        <ele>147.2</ele>
        <time>2024-08-14T06:24:18Z</time>
      </trkpt>
      <trkpt lat="47.41363" lon="2.89324">
        <ele>148</ele>
        <time>2024-08-14T06:24:20Z</time>
      </trkpt>
      <trkpt lat="47.41367" lon="2.89317">
        <ele>148.4</ele>
        <time>2024-08-14T06:24:22Z</time>
      </trkpt>
      <trkpt lat="47.41375" lon="2.89303">
        <ele>149.4</ele>
        <time>2024-08-14T06:24:26Z</time>
      </trkpt>
      <trkpt lat="47.41377" lon="2.893">
        <ele>149.8</ele>
        <time>2024-08-14T06:24:27Z</time>
      </trkpt>
      <trkpt lat="47.41383" lon="2.89287">
        <ele>150.8</ele>
        <time>2024-08-14T06:24:30Z</time>
      </trkpt>
      <trkpt lat="47.41386" lon="2.89272">
        <ele>151.6</ele>
        <time>2024-08-14T06:24:33Z</time>
      </trkpt>
      <trkpt lat="47.41389" lon="2.89261">
        <ele>151.8</ele>
        <time>2024-08-14T06:24:35Z</time>
      </trkpt>
      <trkpt lat="47.41393" lon="2.8924">
        <ele>152.8</ele>
        <time>2024-08-14T06:24:39Z</time>
      </trkpt>
      <trkpt lat="47.41396" lon="2.89229">
        <ele>153.2</ele>
        <time>2024-08-14T06:24:41Z</time>
      </trkpt>
      <trkpt lat="47.41399" lon="2.89207">
        <ele>153.8</ele>
        <time>2024-08-14T06:24:45Z</time>
      </trkpt>
      <trkpt lat="47.41398" lon="2.89189">
        <ele>154.2</ele>
        <time>2024-08-14T06:24:48Z</time>
      </trkpt>
      <trkpt lat="47.41398" lon="2.89146">
        <ele>154.4</ele>
        <time>2024-08-14T06:24:55Z</time>
      </trkpt>
      <trkpt lat="47.41398" lon="2.89138">
        <ele>154.4</ele>
        <time>2024-08-14T06:24:56Z</time>
      </trkpt>
      <trkpt lat="47.41398" lon="2.89116">
        <ele>154.6</ele>
        <time>2024-08-14T06:24:59Z</time>
      </trkpt>
      <trkpt lat="47.41401" lon="2.89103">
        <ele>154.8</ele>
        <time>2024-08-14T06:25:01Z</time>
      </trkpt>
      <trkpt lat="47.41404" lon="2.89097">
        <ele>154.8</ele>
        <time>2024-08-14T06:25:02Z</time>
      </trkpt>
      <trkpt lat="47.41407" lon="2.89091">
        <ele>155.2</ele>
        <time>2024-08-14T06:25:03Z</time>
      </trkpt>
      <trkpt lat="47.41414" lon="2.89083">
        <ele>155.4</ele>
        <time>2024-08-14T06:25:05Z</time>
      </trkpt>
      <trkpt lat="47.41419" lon="2.89081">
        <ele>155.8</ele>
        <time>2024-08-14T06:25:06Z</time>
      </trkpt>
      <trkpt lat="47.41432" lon="2.89076">
        <ele>156.2</ele>
        <time>2024-08-14T06:25:09Z</time>
      </trkpt>
      <trkpt lat="47.41441" lon="2.89069">
        <ele>156.6</ele>
        <time>2024-08-14T06:25:11Z</time>
      </trkpt>
      <trkpt lat="47.41443" lon="2.89063">
        <ele>156.6</ele>
        <time>2024-08-14T06:25:12Z</time>
      </trkpt>
      <trkpt lat="47.41444" lon="2.89056">
        <ele>157</ele>
        <time>2024-08-14T06:25:13Z</time>
      </trkpt>
      <trkpt lat="47.41447" lon="2.89034">
        <ele>158</ele>
        <time>2024-08-14T06:25:17Z</time>
      </trkpt>
      <trkpt lat="47.41449" lon="2.89021">
        <ele>158.2</ele>
        <time>2024-08-14T06:25:18Z</time>
      </trkpt>
      <trkpt lat="47.41457" lon="2.88966">
        <ele>158.8</ele>
        <time>2024-08-14T06:25:25Z</time>
      </trkpt>
      <trkpt lat="47.41468" lon="2.88897">
        <ele>159.2</ele>
        <time>2024-08-14T06:25:33Z</time>
      </trkpt>
      <trkpt lat="47.4147" lon="2.88882">
        <ele>159.4</ele>
        <time>2024-08-14T06:25:35Z</time>
      </trkpt>
      <trkpt lat="47.41476" lon="2.88813">
        <ele>160</ele>
        <time>2024-08-14T06:25:44Z</time>
      </trkpt>
      <trkpt lat="47.41478" lon="2.88764">
        <ele>160.2</ele>
        <time>2024-08-14T06:25:49Z</time>
      </trkpt>
      <trkpt lat="47.4148" lon="2.88727">
        <ele>160.4</ele>
        <time>2024-08-14T06:25:53Z</time>
      </trkpt>
      <trkpt lat="47.41481" lon="2.88668">
        <ele>160.2</ele>
        <time>2024-08-14T06:26:00Z</time>
      </trkpt>
      <trkpt lat="47.41484" lon="2.88576">
        <ele>159.6</ele>
        <time>2024-08-14T06:26:08Z</time>
      </trkpt>
      <trkpt lat="47.41484" lon="2.88576">
        <ele>159.6</ele>
        <time>2024-08-14T06:26:09Z</time>
      </trkpt>
      <trkpt lat="47.41486" lon="2.88535">
        <ele>159.2</ele>
        <time>2024-08-14T06:26:12Z</time>
      </trkpt>
      <trkpt lat="47.41489" lon="2.88473">
        <ele>158.8</ele>
        <time>2024-08-14T06:26:18Z</time>
      </trkpt>
      <trkpt lat="47.41489" lon="2.88473">
        <ele>158.8</ele>
        <time>2024-08-14T06:26:19Z</time>
      </trkpt>
      <trkpt lat="47.41491" lon="2.88463">
        <ele>158.6</ele>
        <time>2024-08-14T06:26:20Z</time>
      </trkpt>
      <trkpt lat="47.41498" lon="2.88444">
        <ele>158.6</ele>
        <time>2024-08-14T06:26:22Z</time>
      </trkpt>
      <trkpt lat="47.41502" lon="2.88437">
        <ele>158.6</ele>
        <time>2024-08-14T06:26:23Z</time>
      </trkpt>
      <trkpt lat="47.41508" lon="2.8843">
        <ele>158.6</ele>
        <time>2024-08-14T06:26:24Z</time>
      </trkpt>
      <trkpt lat="47.41521" lon="2.8842">
        <ele>158.4</ele>
        <time>2024-08-14T06:26:26Z</time>
      </trkpt>
      <trkpt lat="47.41544" lon="2.88412">
        <ele>158.2</ele>
        <time>2024-08-14T06:26:28Z</time>
      </trkpt>
      <trkpt lat="47.41568" lon="2.88404">
        <ele>157.6</ele>
        <time>2024-08-14T06:26:32Z</time>
      </trkpt>
      <trkpt lat="47.41594" lon="2.88395">
        <ele>157</ele>
        <time>2024-08-14T06:26:35Z</time>
      </trkpt>
      <trkpt lat="47.41623" lon="2.88385">
        <ele>156.2</ele>
        <time>2024-08-14T06:26:38Z</time>
      </trkpt>
      <trkpt lat="47.41633" lon="2.88382">
        <ele>155.6</ele>
        <time>2024-08-14T06:26:39Z</time>
      </trkpt>
      <trkpt lat="47.41676" lon="2.88367">
        <ele>154.2</ele>
        <time>2024-08-14T06:26:42Z</time>
      </trkpt>
      <trkpt lat="47.41687" lon="2.88364">
        <ele>153</ele>
        <time>2024-08-14T06:26:44Z</time>
      </trkpt>
      <trkpt lat="47.41709" lon="2.88357">
        <ele>151.2</ele>
        <time>2024-08-14T06:26:46Z</time>
      </trkpt>
      <trkpt lat="47.41742" lon="2.88343">
        <ele>150</ele>
        <time>2024-08-14T06:26:48Z</time>
      </trkpt>
      <trkpt lat="47.41752" lon="2.88336">
        <ele>148.4</ele>
        <time>2024-08-14T06:26:50Z</time>
      </trkpt>
      <trkpt lat="47.4179" lon="2.88306">
        <ele>147.2</ele>
        <time>2024-08-14T06:26:53Z</time>
      </trkpt>
      <trkpt lat="47.41799" lon="2.88299">
        <ele>146.2</ele>
        <time>2024-08-14T06:26:55Z</time>
      </trkpt>
      <trkpt lat="47.41846" lon="2.88258">
        <ele>145.6</ele>
        <time>2024-08-14T06:27:01Z</time>
      </trkpt>
      <trkpt lat="47.41859" lon="2.88243">
        <ele>145.6</ele>
        <time>2024-08-14T06:27:03Z</time>
      </trkpt>
      <trkpt lat="47.4187" lon="2.88225">
        <ele>145.6</ele>
        <time>2024-08-14T06:27:05Z</time>
      </trkpt>
      <trkpt lat="47.41874" lon="2.88215">
        <ele>145.6</ele>
        <time>2024-08-14T06:27:06Z</time>
      </trkpt>
      <trkpt lat="47.41884" lon="2.88183">
        <ele>145.6</ele>
        <time>2024-08-14T06:27:09Z</time>
      </trkpt>
      <trkpt lat="47.41901" lon="2.88129">
        <ele>145.6</ele>
        <time>2024-08-14T06:27:14Z</time>
      </trkpt>
      <trkpt lat="47.41913" lon="2.88114">
        <ele>145.8</ele>
        <time>2024-08-14T06:27:16Z</time>
      </trkpt>
      <trkpt lat="47.41927" lon="2.88104">
        <ele>145.8</ele>
        <time>2024-08-14T06:27:17Z</time>
      </trkpt>
      <trkpt lat="47.41982" lon="2.88071">
        <ele>146.2</ele>
        <time>2024-08-14T06:27:26Z</time>
      </trkpt>
      <trkpt lat="47.41989" lon="2.88066">
        <ele>146.2</ele>
        <time>2024-08-14T06:27:27Z</time>
      </trkpt>
      <trkpt lat="47.41994" lon="2.8806">
        <ele>146.2</ele>
        <time>2024-08-14T06:27:28Z</time>
      </trkpt>
      <trkpt lat="47.42009" lon="2.88041">
        <ele>146.4</ele>
        <time>2024-08-14T06:27:31Z</time>
      </trkpt>
      <trkpt lat="47.42025" lon="2.87997">
        <ele>146.8</ele>
        <time>2024-08-14T06:27:36Z</time>
      </trkpt>
      <trkpt lat="47.42034" lon="2.87971">
        <ele>147</ele>
        <time>2024-08-14T06:27:39Z</time>
      </trkpt>
      <trkpt lat="47.42048" lon="2.87936">
        <ele>147.2</ele>
        <time>2024-08-14T06:27:43Z</time>
      </trkpt>
      <trkpt lat="47.42069" lon="2.87897">
        <ele>147.4</ele>
        <time>2024-08-14T06:27:48Z</time>
      </trkpt>
      <trkpt lat="47.4209" lon="2.87873">
        <ele>147.8</ele>
        <time>2024-08-14T06:27:52Z</time>
      </trkpt>
      <trkpt lat="47.42101" lon="2.87865">
        <ele>148</ele>
        <time>2024-08-14T06:27:54Z</time>
      </trkpt>
      <trkpt lat="47.42137" lon="2.87836">
        <ele>148.8</ele>
        <time>2024-08-14T06:28:01Z</time>
      </trkpt>
      <trkpt lat="47.42142" lon="2.87832">
        <ele>149</ele>
        <time>2024-08-14T06:28:02Z</time>
      </trkpt>
      <trkpt lat="47.42169" lon="2.87811">
        <ele>150.2</ele>
        <time>2024-08-14T06:28:08Z</time>
      </trkpt>
      <trkpt lat="47.42177" lon="2.87804">
        <ele>150.6</ele>
        <time>2024-08-14T06:28:10Z</time>
      </trkpt>
      <trkpt lat="47.42193" lon="2.8779">
        <ele>151.2</ele>
        <time>2024-08-14T06:28:14Z</time>
      </trkpt>
      <trkpt lat="47.42206" lon="2.87781">
        <ele>151.8</ele>
        <time>2024-08-14T06:28:17Z</time>
      </trkpt>
      <trkpt lat="47.42219" lon="2.8777">
        <ele>152.4</ele>
        <time>2024-08-14T06:28:19Z</time>
      </trkpt>
      <trkpt lat="47.42237" lon="2.87756">
        <ele>153.6</ele>
        <time>2024-08-14T06:28:25Z</time>
      </trkpt>
      <trkpt lat="47.42244" lon="2.87751">
        <ele>154</ele>
        <time>2024-08-14T06:28:27Z</time>
      </trkpt>
      <trkpt lat="47.42254" lon="2.87743">
        <ele>154.4</ele>
        <time>2024-08-14T06:28:29Z</time>
      </trkpt>
      <trkpt lat="47.42254" lon="2.87743">
        <ele>154.6</ele>
        <time>2024-08-14T06:28:30Z</time>
      </trkpt>
      <trkpt lat="47.42264" lon="2.87735">
        <ele>155.4</ele>
        <time>2024-08-14T06:28:33Z</time>
      </trkpt>
      <trkpt lat="47.42271" lon="2.87733">
        <ele>155.8</ele>
        <time>2024-08-14T06:28:35Z</time>
      </trkpt>
      <trkpt lat="47.42278" lon="2.87734">
        <ele>156</ele>
        <time>2024-08-14T06:28:37Z</time>
      </trkpt>
      <trkpt lat="47.42286" lon="2.87739">
        <ele>156.8</ele>
        <time>2024-08-14T06:28:39Z</time>
      </trkpt>
      <trkpt lat="47.42288" lon="2.87742">
        <ele>157.4</ele>
        <time>2024-08-14T06:28:41Z</time>
      </trkpt>
      <trkpt lat="47.4229" lon="2.87743">
        <ele>157.8</ele>
        <time>2024-08-14T06:28:42Z</time>
      </trkpt>
      <trkpt lat="47.42298" lon="2.87736">
        <ele>158.2</ele>
        <time>2024-08-14T06:28:44Z</time>
      </trkpt>
      <trkpt lat="47.42304" lon="2.87718">
        <ele>159</ele>
        <time>2024-08-14T06:28:47Z</time>
      </trkpt>
      <trkpt lat="47.42309" lon="2.87704">
        <ele>159.2</ele>
        <time>2024-08-14T06:28:49Z</time>
      </trkpt>
      <trkpt lat="47.42326" lon="2.87649">
        <ele>160</ele>
        <time>2024-08-14T06:28:58Z</time>
      </trkpt>
      <trkpt lat="47.42338" lon="2.87584">
        <ele>160.2</ele>
        <time>2024-08-14T06:29:06Z</time>
      </trkpt>
      <trkpt lat="47.42353" lon="2.87504">
        <ele>160.6</ele>
        <time>2024-08-14T06:29:14Z</time>
      </trkpt>
      <trkpt lat="47.42356" lon="2.87486">
        <ele>160.6</ele>
        <time>2024-08-14T06:29:16Z</time>
      </trkpt>
      <trkpt lat="47.42365" lon="2.87436">
        <ele>160.6</ele>
        <time>2024-08-14T06:29:22Z</time>
      </trkpt>
      <trkpt lat="47.42368" lon="2.87428">
        <ele>160.6</ele>
        <time>2024-08-14T06:29:23Z</time>
      </trkpt>
      <trkpt lat="47.42371" lon="2.87421">
        <ele>160.6</ele>
        <time>2024-08-14T06:29:24Z</time>
      </trkpt>
      <trkpt lat="47.42385" lon="2.87394">
        <ele>160.6</ele>
        <time>2024-08-14T06:29:28Z</time>
      </trkpt>
      <trkpt lat="47.42406" lon="2.87352">
        <ele>160.6</ele>
        <time>2024-08-14T06:29:34Z</time>
      </trkpt>
      <trkpt lat="47.42415" lon="2.87342">
        <ele>160.6</ele>
        <time>2024-08-14T06:29:36Z</time>
      </trkpt>
      <trkpt lat="47.42422" lon="2.87332">
        <ele>160.4</ele>
        <time>2024-08-14T06:29:38Z</time>
      </trkpt>
      <trkpt lat="47.42423" lon="2.87326">
        <ele>160.2</ele>
        <time>2024-08-14T06:29:39Z</time>
      </trkpt>
      <trkpt lat="47.42422" lon="2.87321">
        <ele>160</ele>
        <time>2024-08-14T06:29:40Z</time>
      </trkpt>
      <trkpt lat="47.42419" lon="2.87317">
        <ele>159.8</ele>
        <time>2024-08-14T06:29:41Z</time>
      </trkpt>
      <trkpt lat="47.42414" lon="2.8731">
        <ele>159.4</ele>
        <time>2024-08-14T06:29:44Z</time>
      </trkpt>
      <trkpt lat="47.42414" lon="2.87305">
        <ele>159.2</ele>
        <time>2024-08-14T06:29:46Z</time>
      </trkpt>
      <trkpt lat="47.42416" lon="2.873">
        <ele>158.6</ele>
        <time>2024-08-14T06:29:49Z</time>
      </trkpt>
      <trkpt lat="47.42416" lon="2.873">
        <ele>158.4</ele>
        <time>2024-08-14T06:29:51Z</time>
      </trkpt>
      <trkpt lat="47.42416" lon="2.87304">
        <ele>158.6</ele>
        <time>2024-08-14T06:31:49Z</time>
      </trkpt>
      <trkpt lat="47.42417" lon="2.87304">
        <ele>158.8</ele>
        <time>2024-08-14T06:31:50Z</time>
      </trkpt>
      <trkpt lat="47.42418" lon="2.87305">
        <ele>158.8</ele>
        <time>2024-08-14T06:31:54Z</time>
      </trkpt>
      <trkpt lat="47.42423" lon="2.87304">
        <ele>158.6</ele>
        <time>2024-08-14T06:32:01Z</time>
      </trkpt>
      <trkpt lat="47.42424" lon="2.87302">
        <ele>158.6</ele>
        <time>2024-08-14T06:32:02Z</time>
      </trkpt>
      <trkpt lat="47.42429" lon="2.87292">
        <ele>158.4</ele>
        <time>2024-08-14T06:32:05Z</time>
      </trkpt>
      <trkpt lat="47.42438" lon="2.8727">
        <ele>158.6</ele>
        <time>2024-08-14T06:32:09Z</time>
      </trkpt>
      <trkpt lat="47.4245" lon="2.87231">
        <ele>159.2</ele>
        <time>2024-08-14T06:32:15Z</time>
      </trkpt>
      <trkpt lat="47.42452" lon="2.87225">
        <ele>159.4</ele>
        <time>2024-08-14T06:32:16Z</time>
      </trkpt>
      <trkpt lat="47.42454" lon="2.87219">
        <ele>159.4</ele>
        <time>2024-08-14T06:32:17Z</time>
      </trkpt>
      <trkpt lat="47.42459" lon="2.87201">
        <ele>159.6</ele>
        <time>2024-08-14T06:32:20Z</time>
      </trkpt>
      <trkpt lat="47.42463" lon="2.87189">
        <ele>160</ele>
        <time>2024-08-14T06:32:22Z</time>
      </trkpt>
      <trkpt lat="47.42469" lon="2.8717">
        <ele>160.4</ele>
        <time>2024-08-14T06:32:25Z</time>
      </trkpt>
      <trkpt lat="47.42478" lon="2.87138">
        <ele>161.4</ele>
        <time>2024-08-14T06:32:30Z</time>
      </trkpt>
      <trkpt lat="47.42484" lon="2.87118">
        <ele>161.8</ele>
        <time>2024-08-14T06:32:33Z</time>
      </trkpt>
      <trkpt lat="47.42492" lon="2.87085">
        <ele>162.6</ele>
        <time>2024-08-14T06:32:38Z</time>
      </trkpt>
      <trkpt lat="47.42497" lon="2.87059">
        <ele>163.4</ele>
        <time>2024-08-14T06:32:42Z</time>
      </trkpt>
      <trkpt lat="47.42501" lon="2.87045">
        <ele>163.8</ele>
        <time>2024-08-14T06:32:44Z</time>
      </trkpt>
      <trkpt lat="47.42504" lon="2.87032">
        <ele>164</ele>
        <time>2024-08-14T06:32:46Z</time>
      </trkpt>
      <trkpt lat="47.4251" lon="2.87013">
        <ele>164.6</ele>
        <time>2024-08-14T06:32:49Z</time>
      </trkpt>
      <trkpt lat="47.42512" lon="2.87007">
        <ele>165</ele>
        <time>2024-08-14T06:32:50Z</time>
      </trkpt>
      <trkpt lat="47.42515" lon="2.86994">
        <ele>165.2</ele>
        <time>2024-08-14T06:32:52Z</time>
      </trkpt>
      <trkpt lat="47.42519" lon="2.86982">
        <ele>165.4</ele>
        <time>2024-08-14T06:32:54Z</time>
      </trkpt>
      <trkpt lat="47.42522" lon="2.86968">
        <ele>165.8</ele>
        <time>2024-08-14T06:32:56Z</time>
      </trkpt>
      <trkpt lat="47.42523" lon="2.86962">
        <ele>166</ele>
        <time>2024-08-14T06:32:57Z</time>
      </trkpt>
      <trkpt lat="47.42535" lon="2.86924">
        <ele>167</ele>
        <time>2024-08-14T06:33:03Z</time>
      </trkpt>
      <trkpt lat="47.42543" lon="2.86904">
        <ele>167.6</ele>
        <time>2024-08-14T06:33:06Z</time>
      </trkpt>
      <trkpt lat="47.42561" lon="2.86872">
        <ele>168.2</ele>
        <time>2024-08-14T06:33:11Z</time>
      </trkpt>
      <trkpt lat="47.42569" lon="2.86858">
        <ele>168.4</ele>
        <time>2024-08-14T06:33:13Z</time>
      </trkpt>
      <trkpt lat="47.42603" lon="2.86812">
        <ele>168.2</ele>
        <time>2024-08-14T06:33:20Z</time>
      </trkpt>
      <trkpt lat="47.42632" lon="2.86775">
        <ele>167.2</ele>
        <time>2024-08-14T06:33:25Z</time>
      </trkpt>
      <trkpt lat="47.42638" lon="2.86768">
        <ele>166.8</ele>
        <time>2024-08-14T06:33:26Z</time>
      </trkpt>
      <trkpt lat="47.42673" lon="2.86724">
        <ele>166</ele>
        <time>2024-08-14T06:33:32Z</time>
      </trkpt>
      <trkpt lat="47.42693" lon="2.86682">
        <ele>165.4</ele>
        <time>2024-08-14T06:33:37Z</time>
      </trkpt>
      <trkpt lat="47.4272" lon="2.86616">
        <ele>165.4</ele>
        <time>2024-08-14T06:33:45Z</time>
      </trkpt>
      <trkpt lat="47.42742" lon="2.86567">
        <ele>165.8</ele>
        <time>2024-08-14T06:33:52Z</time>
      </trkpt>
      <trkpt lat="47.42764" lon="2.86513">
        <ele>166.8</ele>
        <time>2024-08-14T06:34:00Z</time>
      </trkpt>
      <trkpt lat="47.42767" lon="2.86507">
        <ele>167.2</ele>
        <time>2024-08-14T06:34:01Z</time>
      </trkpt>
      <trkpt lat="47.42783" lon="2.86476">
        <ele>168</ele>
        <time>2024-08-14T06:34:06Z</time>
      </trkpt>
      <trkpt lat="47.42793" lon="2.86458">
        <ele>168.4</ele>
        <time>2024-08-14T06:34:09Z</time>
      </trkpt>
      <trkpt lat="47.42809" lon="2.86425">
        <ele>169.2</ele>
        <time>2024-08-14T06:34:14Z</time>
      </trkpt>
      <trkpt lat="47.42816" lon="2.8641">
        <ele>169.4</ele>
        <time>2024-08-14T06:34:16Z</time>
      </trkpt>
      <trkpt lat="47.42841" lon="2.86361">
        <ele>169.8</ele>
        <time>2024-08-14T06:34:23Z</time>
      </trkpt>
      <trkpt lat="47.42871" lon="2.8629">
        <ele>169.4</ele>
        <time>2024-08-14T06:34:32Z</time>
      </trkpt>
      <trkpt lat="47.429" lon="2.86221">
        <ele>168.4</ele>
        <time>2024-08-14T06:34:40Z</time>
      </trkpt>
      <trkpt lat="47.42908" lon="2.86204">
        <ele>168.2</ele>
        <time>2024-08-14T06:34:42Z</time>
      </trkpt>
      <trkpt lat="47.42938" lon="2.86159">
        <ele>167.6</ele>
        <time>2024-08-14T06:34:48Z</time>
      </trkpt>
      <trkpt lat="47.42949" lon="2.86145">
        <ele>167</ele>
        <time>2024-08-14T06:34:50Z</time>
      </trkpt>
      <trkpt lat="47.42983" lon="2.86104">
        <ele>166</ele>
        <time>2024-08-14T06:34:56Z</time>
      </trkpt>
      <trkpt lat="47.43001" lon="2.86082">
        <ele>165.8</ele>
        <time>2024-08-14T06:34:59Z</time>
      </trkpt>
      <trkpt lat="47.43026" lon="2.86051">
        <ele>165</ele>
        <time>2024-08-14T06:35:03Z</time>
      </trkpt>
      <trkpt lat="47.43057" lon="2.86012">
        <ele>163.8</ele>
        <time>2024-08-14T06:35:08Z</time>
      </trkpt>
      <trkpt lat="47.43095" lon="2.85953">
        <ele>163</ele>
        <time>2024-08-14T06:35:15Z</time>
      </trkpt>
      <trkpt lat="47.43117" lon="2.85912">
        <ele>163</ele>
        <time>2024-08-14T06:35:20Z</time>
      </trkpt>
      <trkpt lat="47.43144" lon="2.85853">
        <ele>163.2</ele>
        <time>2024-08-14T06:35:27Z</time>
      </trkpt>
      <trkpt lat="47.43163" lon="2.85793">
        <ele>163.2</ele>
        <time>2024-08-14T06:35:34Z</time>
      </trkpt>
      <trkpt lat="47.43172" lon="2.85757">
        <ele>163</ele>
        <time>2024-08-14T06:35:38Z</time>
      </trkpt>
      <trkpt lat="47.43176" lon="2.85739">
        <ele>163</ele>
        <time>2024-08-14T06:35:40Z</time>
      </trkpt>
      <trkpt lat="47.43181" lon="2.85709">
        <ele>163.2</ele>
        <time>2024-08-14T06:35:43Z</time>
      </trkpt>
      <trkpt lat="47.43187" lon="2.8568">
        <ele>163.2</ele>
        <time>2024-08-14T06:35:46Z</time>
      </trkpt>
      <trkpt lat="47.43196" lon="2.85637">
        <ele>162.8</ele>
        <time>2024-08-14T06:35:50Z</time>
      </trkpt>
      <trkpt lat="47.4321" lon="2.85564">
        <ele>162.4</ele>
        <time>2024-08-14T06:35:58Z</time>
      </trkpt>
      <trkpt lat="47.43215" lon="2.85539">
        <ele>162.2</ele>
        <time>2024-08-14T06:36:01Z</time>
      </trkpt>
      <trkpt lat="47.43217" lon="2.85528">
        <ele>162.2</ele>
        <time>2024-08-14T06:36:02Z</time>
      </trkpt>
      <trkpt lat="47.43219" lon="2.85518">
        <ele>162.2</ele>
        <time>2024-08-14T06:36:03Z</time>
      </trkpt>
      <trkpt lat="47.43221" lon="2.85497">
        <ele>162.4</ele>
        <time>2024-08-14T06:36:06Z</time>
      </trkpt>
      <trkpt lat="47.43222" lon="2.85489">
        <ele>162.4</ele>
        <time>2024-08-14T06:36:07Z</time>
      </trkpt>
      <trkpt lat="47.43226" lon="2.85451">
        <ele>163</ele>
        <time>2024-08-14T06:36:10Z</time>
      </trkpt>
      <trkpt lat="47.43227" lon="2.85442">
        <ele>163.2</ele>
        <time>2024-08-14T06:36:11Z</time>
      </trkpt>
      <trkpt lat="47.43227" lon="2.85399">
        <ele>163.6</ele>
        <time>2024-08-14T06:36:15Z</time>
      </trkpt>
      <trkpt lat="47.43232" lon="2.85349">
        <ele>163.8</ele>
        <time>2024-08-14T06:36:20Z</time>
      </trkpt>
      <trkpt lat="47.43239" lon="2.85275">
        <ele>163.6</ele>
        <time>2024-08-14T06:36:28Z</time>
      </trkpt>
      <trkpt lat="47.43248" lon="2.85214">
        <ele>164</ele>
        <time>2024-08-14T06:36:35Z</time>
      </trkpt>
      <trkpt lat="47.43252" lon="2.85189">
        <ele>164.2</ele>
        <time>2024-08-14T06:36:38Z</time>
      </trkpt>
      <trkpt lat="47.43254" lon="2.85178">
        <ele>164.2</ele>
        <time>2024-08-14T06:36:40Z</time>
      </trkpt>
      <trkpt lat="47.43258" lon="2.85163">
        <ele>164.2</ele>
        <time>2024-08-14T06:36:42Z</time>
      </trkpt>
      <trkpt lat="47.43259" lon="2.85155">
        <ele>164.2</ele>
        <time>2024-08-14T06:36:43Z</time>
      </trkpt>
      <trkpt lat="47.43265" lon="2.85111">
        <ele>164.4</ele>
        <time>2024-08-14T06:36:48Z</time>
      </trkpt>
      <trkpt lat="47.43266" lon="2.85102">
        <ele>164.4</ele>
        <time>2024-08-14T06:36:49Z</time>
      </trkpt>
      <trkpt lat="47.43269" lon="2.85075">
        <ele>164.4</ele>
        <time>2024-08-14T06:36:52Z</time>
      </trkpt>
      <trkpt lat="47.43269" lon="2.85055">
        <ele>164.6</ele>
        <time>2024-08-14T06:36:54Z</time>
      </trkpt>
      <trkpt lat="47.4327" lon="2.85046">
        <ele>164.6</ele>
        <time>2024-08-14T06:36:55Z</time>
      </trkpt>
      <trkpt lat="47.43271" lon="2.85038">
        <ele>164.8</ele>
        <time>2024-08-14T06:36:56Z</time>
      </trkpt>
      <trkpt lat="47.43272" lon="2.8502">
        <ele>164.8</ele>
        <time>2024-08-14T06:36:58Z</time>
      </trkpt>
      <trkpt lat="47.43274" lon="2.85002">
        <ele>165</ele>
        <time>2024-08-14T06:37:00Z</time>
      </trkpt>
      <trkpt lat="47.43277" lon="2.84987">
        <ele>165.2</ele>
        <time>2024-08-14T06:37:02Z</time>
      </trkpt>
      <trkpt lat="47.4328" lon="2.84981">
        <ele>165.6</ele>
        <time>2024-08-14T06:37:03Z</time>
      </trkpt>
      <trkpt lat="47.43283" lon="2.84953">
        <ele>166.6</ele>
        <time>2024-08-14T06:37:07Z</time>
      </trkpt>
      <trkpt lat="47.43285" lon="2.84926">
        <ele>167.6</ele>
        <time>2024-08-14T06:37:11Z</time>
      </trkpt>
      <trkpt lat="47.43286" lon="2.84917">
        <ele>167.8</ele>
        <time>2024-08-14T06:37:12Z</time>
      </trkpt>
      <trkpt lat="47.43291" lon="2.8489">
        <ele>169</ele>
        <time>2024-08-14T06:37:16Z</time>
      </trkpt>
      <trkpt lat="47.4329" lon="2.84869">
        <ele>170</ele>
        <time>2024-08-14T06:37:19Z</time>
      </trkpt>
      <trkpt lat="47.4329" lon="2.84847">
        <ele>171.2</ele>
        <time>2024-08-14T06:37:22Z</time>
      </trkpt>
      <trkpt lat="47.4329" lon="2.84827">
        <ele>172.6</ele>
        <time>2024-08-14T06:37:26Z</time>
      </trkpt>
      <trkpt lat="47.4329" lon="2.84821">
        <ele>173.2</ele>
        <time>2024-08-14T06:37:27Z</time>
      </trkpt>
      <trkpt lat="47.43291" lon="2.84809">
        <ele>173.6</ele>
        <time>2024-08-14T06:37:29Z</time>
      </trkpt>
      <trkpt lat="47.43289" lon="2.84793">
        <ele>174.2</ele>
        <time>2024-08-14T06:37:31Z</time>
      </trkpt>
      <trkpt lat="47.43287" lon="2.84778">
        <ele>174.6</ele>
        <time>2024-08-14T06:37:33Z</time>
      </trkpt>
      <trkpt lat="47.43288" lon="2.84766">
        <ele>174.8</ele>
        <time>2024-08-14T06:37:35Z</time>
      </trkpt>
      <trkpt lat="47.4329" lon="2.84738">
        <ele>175.4</ele>
        <time>2024-08-14T06:37:39Z</time>
      </trkpt>
      <trkpt lat="47.43289" lon="2.84731">
        <ele>175.6</ele>
        <time>2024-08-14T06:37:40Z</time>
      </trkpt>
      <trkpt lat="47.4329" lon="2.84703">
        <ele>176.2</ele>
        <time>2024-08-14T06:37:44Z</time>
      </trkpt>
      <trkpt lat="47.43289" lon="2.8468">
        <ele>176.6</ele>
        <time>2024-08-14T06:37:47Z</time>
      </trkpt>
      <trkpt lat="47.43291" lon="2.84659">
        <ele>177</ele>
        <time>2024-08-14T06:37:50Z</time>
      </trkpt>
      <trkpt lat="47.43291" lon="2.8464">
        <ele>177.8</ele>
        <time>2024-08-14T06:37:53Z</time>
      </trkpt>
      <trkpt lat="47.43293" lon="2.84621">
        <ele>178.2</ele>
        <time>2024-08-14T06:37:56Z</time>
      </trkpt>
      <trkpt lat="47.43293" lon="2.84598">
        <ele>179.2</ele>
        <time>2024-08-14T06:38:00Z</time>
      </trkpt>
      <trkpt lat="47.43294" lon="2.84592">
        <ele>179.4</ele>
        <time>2024-08-14T06:38:01Z</time>
      </trkpt>
      <trkpt lat="47.43294" lon="2.84578">
        <ele>180</ele>
        <time>2024-08-14T06:38:03Z</time>
      </trkpt>
      <trkpt lat="47.43296" lon="2.84561">
        <ele>180.8</ele>
        <time>2024-08-14T06:38:05Z</time>
      </trkpt>
      <trkpt lat="47.43296" lon="2.84553">
        <ele>180.8</ele>
        <time>2024-08-14T06:38:06Z</time>
      </trkpt>
      <trkpt lat="47.43295" lon="2.84545">
        <ele>181</ele>
        <time>2024-08-14T06:38:07Z</time>
      </trkpt>
      <trkpt lat="47.43294" lon="2.84529">
        <ele>181.4</ele>
        <time>2024-08-14T06:38:09Z</time>
      </trkpt>
      <trkpt lat="47.43293" lon="2.84515">
        <ele>181.8</ele>
        <time>2024-08-14T06:38:11Z</time>
      </trkpt>
      <trkpt lat="47.43299" lon="2.8447">
        <ele>182.4</ele>
        <time>2024-08-14T06:38:17Z</time>
      </trkpt>
      <trkpt lat="47.433" lon="2.84462">
        <ele>182.4</ele>
        <time>2024-08-14T06:38:18Z</time>
      </trkpt>
      <trkpt lat="47.43299" lon="2.84446">
        <ele>182.6</ele>
        <time>2024-08-14T06:38:20Z</time>
      </trkpt>
      <trkpt lat="47.43299" lon="2.84432">
        <ele>182.8</ele>
        <time>2024-08-14T06:38:22Z</time>
      </trkpt>
      <trkpt lat="47.43297" lon="2.84425">
        <ele>183</ele>
        <time>2024-08-14T06:38:23Z</time>
      </trkpt>
      <trkpt lat="47.43295" lon="2.84403">
        <ele>183.4</ele>
        <time>2024-08-14T06:38:26Z</time>
      </trkpt>
      <trkpt lat="47.43291" lon="2.84385">
        <ele>183.6</ele>
        <time>2024-08-14T06:38:28Z</time>
      </trkpt>
      <trkpt lat="47.43287" lon="2.84362">
        <ele>183.8</ele>
        <time>2024-08-14T06:38:31Z</time>
      </trkpt>
      <trkpt lat="47.43282" lon="2.84326">
        <ele>184.4</ele>
        <time>2024-08-14T06:38:35Z</time>
      </trkpt>
      <trkpt lat="47.4328" lon="2.84291">
        <ele>184.8</ele>
        <time>2024-08-14T06:38:39Z</time>
      </trkpt>
      <trkpt lat="47.4328" lon="2.84283">
        <ele>184.8</ele>
        <time>2024-08-14T06:38:40Z</time>
      </trkpt>
      <trkpt lat="47.43282" lon="2.84268">
        <ele>185</ele>
        <time>2024-08-14T06:38:42Z</time>
      </trkpt>
      <trkpt lat="47.43282" lon="2.84253">
        <ele>185.2</ele>
        <time>2024-08-14T06:38:44Z</time>
      </trkpt>
      <trkpt lat="47.43285" lon="2.84235">
        <ele>185.4</ele>
        <time>2024-08-14T06:38:46Z</time>
      </trkpt>
      <trkpt lat="47.43284" lon="2.84218">
        <ele>185.4</ele>
        <time>2024-08-14T06:38:48Z</time>
      </trkpt>
      <trkpt lat="47.43285" lon="2.84209">
        <ele>185.4</ele>
        <time>2024-08-14T06:38:49Z</time>
      </trkpt>
      <trkpt lat="47.43291" lon="2.84167">
        <ele>184.8</ele>
        <time>2024-08-14T06:38:54Z</time>
      </trkpt>
      <trkpt lat="47.43294" lon="2.84158">
        <ele>184.8</ele>
        <time>2024-08-14T06:38:55Z</time>
      </trkpt>
      <trkpt lat="47.43296" lon="2.8414">
        <ele>184.8</ele>
        <time>2024-08-14T06:38:57Z</time>
      </trkpt>
      <trkpt lat="47.43299" lon="2.84115">
        <ele>184.8</ele>
        <time>2024-08-14T06:39:00Z</time>
      </trkpt>
      <trkpt lat="47.43299" lon="2.84115">
        <ele>184.8</ele>
        <time>2024-08-14T06:39:01Z</time>
      </trkpt>
      <trkpt lat="47.43302" lon="2.84098">
        <ele>185</ele>
        <time>2024-08-14T06:39:02Z</time>
      </trkpt>
      <trkpt lat="47.4331" lon="2.84056">
        <ele>185</ele>
        <time>2024-08-14T06:39:07Z</time>
      </trkpt>
      <trkpt lat="47.43317" lon="2.83994">
        <ele>185</ele>
        <time>2024-08-14T06:39:14Z</time>
      </trkpt>
      <trkpt lat="47.43318" lon="2.83939">
        <ele>184.8</ele>
        <time>2024-08-14T06:39:20Z</time>
      </trkpt>
      <trkpt lat="47.43318" lon="2.8393">
        <ele>184.8</ele>
        <time>2024-08-14T06:39:21Z</time>
      </trkpt>
      <trkpt lat="47.43325" lon="2.83874">
        <ele>185</ele>
        <time>2024-08-14T06:39:27Z</time>
      </trkpt>
      <trkpt lat="47.43327" lon="2.83866">
        <ele>185</ele>
        <time>2024-08-14T06:39:28Z</time>
      </trkpt>
      <trkpt lat="47.43345" lon="2.83821">
        <ele>185.2</ele>
        <time>2024-08-14T06:39:34Z</time>
      </trkpt>
      <trkpt lat="47.43364" lon="2.83786">
        <ele>185.2</ele>
        <time>2024-08-14T06:39:39Z</time>
      </trkpt>
      <trkpt lat="47.43375" lon="2.83764">
        <ele>185</ele>
        <time>2024-08-14T06:39:42Z</time>
      </trkpt>
      <trkpt lat="47.43384" lon="2.83748">
        <ele>185</ele>
        <time>2024-08-14T06:39:44Z</time>
      </trkpt>
      <trkpt lat="47.43413" lon="2.83693">
        <ele>184.8</ele>
        <time>2024-08-14T06:39:50Z</time>
      </trkpt>
      <trkpt lat="47.4344" lon="2.83638">
        <ele>184.8</ele>
        <time>2024-08-14T06:39:56Z</time>
      </trkpt>
      <trkpt lat="47.43471" lon="2.83591">
        <ele>184.6</ele>
        <time>2024-08-14T06:40:02Z</time>
      </trkpt>
      <trkpt lat="47.43513" lon="2.83534">
        <ele>184.6</ele>
        <time>2024-08-14T06:40:10Z</time>
      </trkpt>
      <trkpt lat="47.43517" lon="2.83527">
        <ele>184.6</ele>
        <time>2024-08-14T06:40:11Z</time>
      </trkpt>
      <trkpt lat="47.43543" lon="2.83484">
        <ele>185</ele>
        <time>2024-08-14T06:40:17Z</time>
      </trkpt>
      <trkpt lat="47.43547" lon="2.83475">
        <ele>185</ele>
        <time>2024-08-14T06:40:18Z</time>
      </trkpt>
      <trkpt lat="47.43557" lon="2.8344">
        <ele>185.2</ele>
        <time>2024-08-14T06:40:22Z</time>
      </trkpt>
      <trkpt lat="47.43564" lon="2.83423">
        <ele>185.2</ele>
        <time>2024-08-14T06:40:24Z</time>
      </trkpt>
      <trkpt lat="47.43577" lon="2.83401">
        <ele>185.6</ele>
        <time>2024-08-14T06:40:27Z</time>
      </trkpt>
      <trkpt lat="47.43582" lon="2.83394">
        <ele>185.8</ele>
        <time>2024-08-14T06:40:28Z</time>
      </trkpt>
      <trkpt lat="47.43604" lon="2.83373">
        <ele>186</ele>
        <time>2024-08-14T06:40:32Z</time>
      </trkpt>
      <trkpt lat="47.4361" lon="2.83368">
        <ele>186.2</ele>
        <time>2024-08-14T06:40:33Z</time>
      </trkpt>
      <trkpt lat="47.43658" lon="2.83329">
        <ele>186.6</ele>
        <time>2024-08-14T06:40:41Z</time>
      </trkpt>
      <trkpt lat="47.4367" lon="2.83318">
        <ele>186.4</ele>
        <time>2024-08-14T06:40:43Z</time>
      </trkpt>
      <trkpt lat="47.43715" lon="2.8327">
        <ele>186.2</ele>
        <time>2024-08-14T06:40:51Z</time>
      </trkpt>
      <trkpt lat="47.4372" lon="2.83263">
        <ele>186</ele>
        <time>2024-08-14T06:40:52Z</time>
      </trkpt>
      <trkpt lat="47.43741" lon="2.83222">
        <ele>186</ele>
        <time>2024-08-14T06:40:57Z</time>
      </trkpt>
      <trkpt lat="47.43745" lon="2.83211">
        <ele>186</ele>
        <time>2024-08-14T06:40:58Z</time>
      </trkpt>
      <trkpt lat="47.43754" lon="2.83174">
        <ele>186</ele>
        <time>2024-08-14T06:41:02Z</time>
      </trkpt>
      <trkpt lat="47.43772" lon="2.83098">
        <ele>185.6</ele>
        <time>2024-08-14T06:41:10Z</time>
      </trkpt>
      <trkpt lat="47.43775" lon="2.83089">
        <ele>185.6</ele>
        <time>2024-08-14T06:41:11Z</time>
      </trkpt>
      <trkpt lat="47.43783" lon="2.83075">
        <ele>185.8</ele>
        <time>2024-08-14T06:41:13Z</time>
      </trkpt>
      <trkpt lat="47.43792" lon="2.83064">
        <ele>186</ele>
        <time>2024-08-14T06:41:15Z</time>
      </trkpt>
      <trkpt lat="47.43816" lon="2.83041">
        <ele>186.8</ele>
        <time>2024-08-14T06:41:20Z</time>
      </trkpt>
      <trkpt lat="47.43836" lon="2.83028">
        <ele>187.6</ele>
        <time>2024-08-14T06:41:24Z</time>
      </trkpt>
      <trkpt lat="47.43846" lon="2.83021">
        <ele>188.2</ele>
        <time>2024-08-14T06:41:26Z</time>
      </trkpt>
      <trkpt lat="47.43855" lon="2.83016">
        <ele>188.6</ele>
        <time>2024-08-14T06:41:28Z</time>
      </trkpt>
      <trkpt lat="47.43879" lon="2.82998">
        <ele>189</ele>
        <time>2024-08-14T06:41:33Z</time>
      </trkpt>
      <trkpt lat="47.43896" lon="2.82983">
        <ele>189.6</ele>
        <time>2024-08-14T06:41:37Z</time>
      </trkpt>
      <trkpt lat="47.43904" lon="2.82976">
        <ele>190</ele>
        <time>2024-08-14T06:41:39Z</time>
      </trkpt>
      <trkpt lat="47.43936" lon="2.82949">
        <ele>190.6</ele>
        <time>2024-08-14T06:41:46Z</time>
      </trkpt>
      <trkpt lat="47.4394" lon="2.82944">
        <ele>190.8</ele>
        <time>2024-08-14T06:41:47Z</time>
      </trkpt>
      <trkpt lat="47.43943" lon="2.82938">
        <ele>190.8</ele>
        <time>2024-08-14T06:41:48Z</time>
      </trkpt>
      <trkpt lat="47.43959" lon="2.82906">
        <ele>191.8</ele>
        <time>2024-08-14T06:41:53Z</time>
      </trkpt>
      <trkpt lat="47.43962" lon="2.82898">
        <ele>192</ele>
        <time>2024-08-14T06:41:54Z</time>
      </trkpt>
      <trkpt lat="47.43979" lon="2.82849">
        <ele>192.8</ele>
        <time>2024-08-14T06:42:01Z</time>
      </trkpt>
      <trkpt lat="47.43981" lon="2.82842">
        <ele>193</ele>
        <time>2024-08-14T06:42:02Z</time>
      </trkpt>
      <trkpt lat="47.43997" lon="2.82794">
        <ele>194</ele>
        <time>2024-08-14T06:42:09Z</time>
      </trkpt>
      <trkpt lat="47.44002" lon="2.8278">
        <ele>194.4</ele>
        <time>2024-08-14T06:42:11Z</time>
      </trkpt>
      <trkpt lat="47.44016" lon="2.8274">
        <ele>195</ele>
        <time>2024-08-14T06:42:17Z</time>
      </trkpt>
      <trkpt lat="47.44024" lon="2.82719">
        <ele>195.4</ele>
        <time>2024-08-14T06:42:20Z</time>
      </trkpt>
      <trkpt lat="47.44051" lon="2.82643">
        <ele>196.2</ele>
        <time>2024-08-14T06:42:31Z</time>
      </trkpt>
      <trkpt lat="47.4407" lon="2.82589">
        <ele>197</ele>
        <time>2024-08-14T06:42:39Z</time>
      </trkpt>
      <trkpt lat="47.44077" lon="2.8257">
        <ele>197.2</ele>
        <time>2024-08-14T06:42:42Z</time>
      </trkpt>
      <trkpt lat="47.44087" lon="2.82546">
        <ele>197.6</ele>
        <time>2024-08-14T06:42:46Z</time>
      </trkpt>
      <trkpt lat="47.44098" lon="2.82521">
        <ele>198.2</ele>
        <time>2024-08-14T06:42:50Z</time>
      </trkpt>
      <trkpt lat="47.441" lon="2.82516">
        <ele>198.4</ele>
        <time>2024-08-14T06:42:51Z</time>
      </trkpt>
      <trkpt lat="47.44105" lon="2.82503">
        <ele>198.6</ele>
        <time>2024-08-14T06:42:53Z</time>
      </trkpt>
      <trkpt lat="47.44115" lon="2.82471">
        <ele>199.4</ele>
        <time>2024-08-14T06:42:58Z</time>
      </trkpt>
      <trkpt lat="47.4412" lon="2.82458">
        <ele>199.8</ele>
        <time>2024-08-14T06:43:00Z</time>
      </trkpt>
      <trkpt lat="47.4414" lon="2.82414">
        <ele>200.6</ele>
        <time>2024-08-14T06:43:07Z</time>
      </trkpt>
      <trkpt lat="47.44146" lon="2.82402">
        <ele>200.8</ele>
        <time>2024-08-14T06:43:09Z</time>
      </trkpt>
      <trkpt lat="47.44171" lon="2.8236">
        <ele>201.6</ele>
        <time>2024-08-14T06:43:16Z</time>
      </trkpt>
      <trkpt lat="47.44175" lon="2.82354">
        <ele>201.6</ele>
        <time>2024-08-14T06:43:17Z</time>
      </trkpt>
      <trkpt lat="47.442" lon="2.82317">
        <ele>202</ele>
        <time>2024-08-14T06:43:23Z</time>
      </trkpt>
      <trkpt lat="47.44224" lon="2.82271">
        <ele>202.6</ele>
        <time>2024-08-14T06:43:30Z</time>
      </trkpt>
      <trkpt lat="47.44246" lon="2.82225">
        <ele>203.4</ele>
        <time>2024-08-14T06:43:37Z</time>
      </trkpt>
      <trkpt lat="47.4425" lon="2.82219">
        <ele>203.6</ele>
        <time>2024-08-14T06:43:38Z</time>
      </trkpt>
      <trkpt lat="47.44269" lon="2.82181">
        <ele>204.6</ele>
        <time>2024-08-14T06:43:44Z</time>
      </trkpt>
      <trkpt lat="47.44272" lon="2.82174">
        <ele>204.8</ele>
        <time>2024-08-14T06:43:45Z</time>
      </trkpt>
      <trkpt lat="47.443" lon="2.82119">
        <ele>205.6</ele>
        <time>2024-08-14T06:43:53Z</time>
      </trkpt>
      <trkpt lat="47.44324" lon="2.82057">
        <ele>205.2</ele>
        <time>2024-08-14T06:44:00Z</time>
      </trkpt>
      <trkpt lat="47.44341" lon="2.81997">
        <ele>204</ele>
        <time>2024-08-14T06:44:06Z</time>
      </trkpt>
      <trkpt lat="47.44342" lon="2.81986">
        <ele>203.8</ele>
        <time>2024-08-14T06:44:07Z</time>
      </trkpt>
      <trkpt lat="47.44343" lon="2.81975">
        <ele>203.8</ele>
        <time>2024-08-14T06:44:08Z</time>
      </trkpt>
      <trkpt lat="47.44344" lon="2.81964">
        <ele>203.4</ele>
        <time>2024-08-14T06:44:09Z</time>
      </trkpt>
      <trkpt lat="47.44342" lon="2.81942">
        <ele>203</ele>
        <time>2024-08-14T06:44:11Z</time>
      </trkpt>
      <trkpt lat="47.44337" lon="2.81909">
        <ele>202.2</ele>
        <time>2024-08-14T06:44:14Z</time>
      </trkpt>
      <trkpt lat="47.44332" lon="2.81865">
        <ele>201.6</ele>
        <time>2024-08-14T06:44:18Z</time>
      </trkpt>
      <trkpt lat="47.44328" lon="2.81832">
        <ele>201.2</ele>
        <time>2024-08-14T06:44:21Z</time>
      </trkpt>
      <trkpt lat="47.44327" lon="2.81786">
        <ele>200.6</ele>
        <time>2024-08-14T06:44:25Z</time>
      </trkpt>
      <trkpt lat="47.44331" lon="2.81749">
        <ele>200</ele>
        <time>2024-08-14T06:44:28Z</time>
      </trkpt>
      <trkpt lat="47.44333" lon="2.81723">
        <ele>199.2</ele>
        <time>2024-08-14T06:44:30Z</time>
      </trkpt>
      <trkpt lat="47.44333" lon="2.8171">
        <ele>198.8</ele>
        <time>2024-08-14T06:44:31Z</time>
      </trkpt>
      <trkpt lat="47.4433" lon="2.81671">
        <ele>198</ele>
        <time>2024-08-14T06:44:34Z</time>
      </trkpt>
      <trkpt lat="47.44328" lon="2.81658">
        <ele>197.6</ele>
        <time>2024-08-14T06:44:35Z</time>
      </trkpt>
      <trkpt lat="47.44322" lon="2.81623">
        <ele>196.4</ele>
        <time>2024-08-14T06:44:38Z</time>
      </trkpt>
      <trkpt lat="47.44315" lon="2.81589">
        <ele>196</ele>
        <time>2024-08-14T06:44:41Z</time>
      </trkpt>
      <trkpt lat="47.44303" lon="2.81535">
        <ele>195.6</ele>
        <time>2024-08-14T06:44:46Z</time>
      </trkpt>
      <trkpt lat="47.44293" lon="2.81495">
        <ele>195.4</ele>
        <time>2024-08-14T06:44:50Z</time>
      </trkpt>
      <trkpt lat="47.44284" lon="2.81454">
        <ele>195.4</ele>
        <time>2024-08-14T06:44:54Z</time>
      </trkpt>
      <trkpt lat="47.44273" lon="2.81406">
        <ele>195.2</ele>
        <time>2024-08-14T06:44:59Z</time>
      </trkpt>
      <trkpt lat="47.44269" lon="2.81398">
        <ele>195.2</ele>
        <time>2024-08-14T06:45:00Z</time>
      </trkpt>
      <trkpt lat="47.44262" lon="2.81382">
        <ele>195.2</ele>
        <time>2024-08-14T06:45:02Z</time>
      </trkpt>
      <trkpt lat="47.44244" lon="2.81352">
        <ele>195.2</ele>
        <time>2024-08-14T06:45:06Z</time>
      </trkpt>
      <trkpt lat="47.44206" lon="2.81294">
        <ele>195.4</ele>
        <time>2024-08-14T06:45:15Z</time>
      </trkpt>
      <trkpt lat="47.44203" lon="2.81287">
        <ele>195.4</ele>
        <time>2024-08-14T06:45:16Z</time>
      </trkpt>
      <trkpt lat="47.44194" lon="2.81268">
        <ele>195.8</ele>
        <time>2024-08-14T06:45:19Z</time>
      </trkpt>
      <trkpt lat="47.44192" lon="2.81262">
        <ele>196</ele>
        <time>2024-08-14T06:45:20Z</time>
      </trkpt>
      <trkpt lat="47.44185" lon="2.81242">
        <ele>196.6</ele>
        <time>2024-08-14T06:45:23Z</time>
      </trkpt>
      <trkpt lat="47.44179" lon="2.81223">
        <ele>197.2</ele>
        <time>2024-08-14T06:45:26Z</time>
      </trkpt>
      <trkpt lat="47.44175" lon="2.8121">
        <ele>197.8</ele>
        <time>2024-08-14T06:45:28Z</time>
      </trkpt>
      <trkpt lat="47.44171" lon="2.81197">
        <ele>198.2</ele>
        <time>2024-08-14T06:45:30Z</time>
      </trkpt>
      <trkpt lat="47.44166" lon="2.81183">
        <ele>198.6</ele>
        <time>2024-08-14T06:45:32Z</time>
      </trkpt>
      <trkpt lat="47.44162" lon="2.81176">
        <ele>198.8</ele>
        <time>2024-08-14T06:45:33Z</time>
      </trkpt>
      <trkpt lat="47.44133" lon="2.81126">
        <ele>199.4</ele>
        <time>2024-08-14T06:45:41Z</time>
      </trkpt>
      <trkpt lat="47.44126" lon="2.81114">
        <ele>199.4</ele>
        <time>2024-08-14T06:45:43Z</time>
      </trkpt>
      <trkpt lat="47.44121" lon="2.81099">
        <ele>199.4</ele>
        <time>2024-08-14T06:45:45Z</time>
      </trkpt>
      <trkpt lat="47.4412" lon="2.81091">
        <ele>199.4</ele>
        <time>2024-08-14T06:45:46Z</time>
      </trkpt>
      <trkpt lat="47.44121" lon="2.81082">
        <ele>199.4</ele>
        <time>2024-08-14T06:45:47Z</time>
      </trkpt>
      <trkpt lat="47.44128" lon="2.8107">
        <ele>199.4</ele>
        <time>2024-08-14T06:45:49Z</time>
      </trkpt>
      <trkpt lat="47.44154" lon="2.81046">
        <ele>199.2</ele>
        <time>2024-08-14T06:45:54Z</time>
      </trkpt>
      <trkpt lat="47.44191" lon="2.81015">
        <ele>199</ele>
        <time>2024-08-14T06:46:01Z</time>
      </trkpt>
      <trkpt lat="47.44196" lon="2.81011">
        <ele>199</ele>
        <time>2024-08-14T06:46:02Z</time>
      </trkpt>
      <trkpt lat="47.44202" lon="2.81001">
        <ele>199</ele>
        <time>2024-08-14T06:46:04Z</time>
      </trkpt>
      <trkpt lat="47.44204" lon="2.80992">
        <ele>199</ele>
        <time>2024-08-14T06:46:05Z</time>
      </trkpt>
      <trkpt lat="47.44203" lon="2.80985">
        <ele>199.2</ele>
        <time>2024-08-14T06:46:06Z</time>
      </trkpt>
      <trkpt lat="47.442" lon="2.80965">
        <ele>199.6</ele>
        <time>2024-08-14T06:46:09Z</time>
      </trkpt>
      <trkpt lat="47.44198" lon="2.80957">
        <ele>199.8</ele>
        <time>2024-08-14T06:46:10Z</time>
      </trkpt>
      <trkpt lat="47.44194" lon="2.8093">
        <ele>200.2</ele>
        <time>2024-08-14T06:46:14Z</time>
      </trkpt>
      <trkpt lat="47.44196" lon="2.80918">
        <ele>200.8</ele>
        <time>2024-08-14T06:46:16Z</time>
      </trkpt>
      <trkpt lat="47.44199" lon="2.80913">
        <ele>200.8</ele>
        <time>2024-08-14T06:46:17Z</time>
      </trkpt>
      <trkpt lat="47.44214" lon="2.80899">
        <ele>201.4</ele>
        <time>2024-08-14T06:46:20Z</time>
      </trkpt>
      <trkpt lat="47.4422" lon="2.80887">
        <ele>201.6</ele>
        <time>2024-08-14T06:46:22Z</time>
      </trkpt>
      <trkpt lat="47.44229" lon="2.80835">
        <ele>201.6</ele>
        <time>2024-08-14T06:46:28Z</time>
      </trkpt>
      <trkpt lat="47.44228" lon="2.80794">
        <ele>201.4</ele>
        <time>2024-08-14T06:46:32Z</time>
      </trkpt>
      <trkpt lat="47.44229" lon="2.80784">
        <ele>201.2</ele>
        <time>2024-08-14T06:46:33Z</time>
      </trkpt>
      <trkpt lat="47.4423" lon="2.80773">
        <ele>201.2</ele>
        <time>2024-08-14T06:46:34Z</time>
      </trkpt>
      <trkpt lat="47.44236" lon="2.8074">
        <ele>201</ele>
        <time>2024-08-14T06:46:37Z</time>
      </trkpt>
      <trkpt lat="47.44245" lon="2.80697">
        <ele>200.4</ele>
        <time>2024-08-14T06:46:41Z</time>
      </trkpt>
      <trkpt lat="47.44251" lon="2.80677">
        <ele>200.2</ele>
        <time>2024-08-14T06:46:43Z</time>
      </trkpt>
      <trkpt lat="47.44273" lon="2.80626">
        <ele>200</ele>
        <time>2024-08-14T06:46:49Z</time>
      </trkpt>
      <trkpt lat="47.44301" lon="2.80562">
        <ele>200</ele>
        <time>2024-08-14T06:46:56Z</time>
      </trkpt>
      <trkpt lat="47.44333" lon="2.80496">
        <ele>200</ele>
        <time>2024-08-14T06:47:04Z</time>
      </trkpt>
      <trkpt lat="47.44369" lon="2.80428">
        <ele>200.2</ele>
        <time>2024-08-14T06:47:13Z</time>
      </trkpt>
      <trkpt lat="47.44402" lon="2.80364">
        <ele>200.8</ele>
        <time>2024-08-14T06:47:22Z</time>
      </trkpt>
      <trkpt lat="47.44407" lon="2.80356">
        <ele>200.8</ele>
        <time>2024-08-14T06:47:23Z</time>
      </trkpt>
      <trkpt lat="47.44441" lon="2.80294">
        <ele>201.4</ele>
        <time>2024-08-14T06:47:32Z</time>
      </trkpt>
      <trkpt lat="47.44445" lon="2.80288">
        <ele>201.6</ele>
        <time>2024-08-14T06:47:33Z</time>
      </trkpt>
      <trkpt lat="47.44454" lon="2.80276">
        <ele>201.8</ele>
        <time>2024-08-14T06:47:35Z</time>
      </trkpt>
      <trkpt lat="47.4448" lon="2.80244">
        <ele>202.8</ele>
        <time>2024-08-14T06:47:41Z</time>
      </trkpt>
      <trkpt lat="47.44513" lon="2.80213">
        <ele>203.8</ele>
        <time>2024-08-14T06:47:48Z</time>
      </trkpt>
      <trkpt lat="47.44562" lon="2.80167">
        <ele>204.6</ele>
        <time>2024-08-14T06:47:58Z</time>
      </trkpt>
      <trkpt lat="47.44582" lon="2.80149">
        <ele>205</ele>
        <time>2024-08-14T06:48:02Z</time>
      </trkpt>
      <trkpt lat="47.44606" lon="2.80127">
        <ele>205.4</ele>
        <time>2024-08-14T06:48:07Z</time>
      </trkpt>
      <trkpt lat="47.44635" lon="2.80101">
        <ele>206.2</ele>
        <time>2024-08-14T06:48:13Z</time>
      </trkpt>
      <trkpt lat="47.4466" lon="2.80078">
        <ele>206.6</ele>
        <time>2024-08-14T06:48:18Z</time>
      </trkpt>
      <trkpt lat="47.44691" lon="2.8005">
        <ele>207.4</ele>
        <time>2024-08-14T06:48:25Z</time>
      </trkpt>
      <trkpt lat="47.44695" lon="2.80046">
        <ele>207.6</ele>
        <time>2024-08-14T06:48:26Z</time>
      </trkpt>
      <trkpt lat="47.44718" lon="2.80025">
        <ele>208.4</ele>
        <time>2024-08-14T06:48:31Z</time>
      </trkpt>
      <trkpt lat="47.44728" lon="2.80017">
        <ele>208.4</ele>
        <time>2024-08-14T06:48:33Z</time>
      </trkpt>
      <trkpt lat="47.44732" lon="2.80013">
        <ele>208.6</ele>
        <time>2024-08-14T06:48:34Z</time>
      </trkpt>
      <trkpt lat="47.4476" lon="2.79986">
        <ele>209.4</ele>
        <time>2024-08-14T06:48:41Z</time>
      </trkpt>
      <trkpt lat="47.44777" lon="2.79971">
        <ele>210.4</ele>
        <time>2024-08-14T06:48:45Z</time>
      </trkpt>
      <trkpt lat="47.44799" lon="2.79953">
        <ele>211.6</ele>
        <time>2024-08-14T06:48:50Z</time>
      </trkpt>
      <trkpt lat="47.44804" lon="2.79949">
        <ele>211.8</ele>
        <time>2024-08-14T06:48:51Z</time>
      </trkpt>
      <trkpt lat="47.44811" lon="2.79942">
        <ele>212.2</ele>
        <time>2024-08-14T06:48:53Z</time>
      </trkpt>
      <trkpt lat="47.44815" lon="2.79938">
        <ele>212.6</ele>
        <time>2024-08-14T06:48:54Z</time>
      </trkpt>
      <trkpt lat="47.44818" lon="2.79933">
        <ele>213</ele>
        <time>2024-08-14T06:48:55Z</time>
      </trkpt>
      <trkpt lat="47.44821" lon="2.79921">
        <ele>213.4</ele>
        <time>2024-08-14T06:48:57Z</time>
      </trkpt>
      <trkpt lat="47.44821" lon="2.79915">
        <ele>213.6</ele>
        <time>2024-08-14T06:48:58Z</time>
      </trkpt>
      <trkpt lat="47.44821" lon="2.79909">
        <ele>213.8</ele>
        <time>2024-08-14T06:48:59Z</time>
      </trkpt>
      <trkpt lat="47.44821" lon="2.79895">
        <ele>214.4</ele>
        <time>2024-08-14T06:49:01Z</time>
      </trkpt>
      <trkpt lat="47.44821" lon="2.79889">
        <ele>214.8</ele>
        <time>2024-08-14T06:49:02Z</time>
      </trkpt>
      <trkpt lat="47.44823" lon="2.79882">
        <ele>215</ele>
        <time>2024-08-14T06:49:03Z</time>
      </trkpt>
      <trkpt lat="47.44823" lon="2.79855">
        <ele>215.8</ele>
        <time>2024-08-14T06:49:07Z</time>
      </trkpt>
      <trkpt lat="47.44823" lon="2.79841">
        <ele>216.4</ele>
        <time>2024-08-14T06:49:09Z</time>
      </trkpt>
      <trkpt lat="47.44823" lon="2.79819">
        <ele>217</ele>
        <time>2024-08-14T06:49:12Z</time>
      </trkpt>
      <trkpt lat="47.44822" lon="2.7979">
        <ele>217.8</ele>
        <time>2024-08-14T06:49:16Z</time>
      </trkpt>
      <trkpt lat="47.44821" lon="2.79776">
        <ele>218.2</ele>
        <time>2024-08-14T06:49:18Z</time>
      </trkpt>
      <trkpt lat="47.44822" lon="2.79734">
        <ele>219.4</ele>
        <time>2024-08-14T06:49:24Z</time>
      </trkpt>
      <trkpt lat="47.44822" lon="2.79713">
        <ele>219.6</ele>
        <time>2024-08-14T06:49:27Z</time>
      </trkpt>
      <trkpt lat="47.44823" lon="2.79671">
        <ele>220.6</ele>
        <time>2024-08-14T06:49:33Z</time>
      </trkpt>
      <trkpt lat="47.44823" lon="2.7965">
        <ele>221</ele>
        <time>2024-08-14T06:49:36Z</time>
      </trkpt>
      <trkpt lat="47.44823" lon="2.79615">
        <ele>221.8</ele>
        <time>2024-08-14T06:49:41Z</time>
      </trkpt>
      <trkpt lat="47.44822" lon="2.79579">
        <ele>222.6</ele>
        <time>2024-08-14T06:49:46Z</time>
      </trkpt>
      <trkpt lat="47.44822" lon="2.79564">
        <ele>223</ele>
        <time>2024-08-14T06:49:48Z</time>
      </trkpt>
      <trkpt lat="47.44822" lon="2.79514">
        <ele>224.4</ele>
        <time>2024-08-14T06:49:55Z</time>
      </trkpt>
      <trkpt lat="47.4482" lon="2.79465">
        <ele>225.4</ele>
        <time>2024-08-14T06:50:02Z</time>
      </trkpt>
      <trkpt lat="47.4482" lon="2.79458">
        <ele>225.4</ele>
        <time>2024-08-14T06:50:03Z</time>
      </trkpt>
      <trkpt lat="47.44816" lon="2.79406">
        <ele>226.2</ele>
        <time>2024-08-14T06:50:10Z</time>
      </trkpt>
      <trkpt lat="47.44815" lon="2.79391">
        <ele>226.6</ele>
        <time>2024-08-14T06:50:12Z</time>
      </trkpt>
      <trkpt lat="47.44812" lon="2.79353">
        <ele>226.8</ele>
        <time>2024-08-14T06:50:17Z</time>
      </trkpt>
      <trkpt lat="47.44812" lon="2.79338">
        <ele>227.2</ele>
        <time>2024-08-14T06:50:19Z</time>
      </trkpt>
      <trkpt lat="47.44809" lon="2.79307">
        <ele>227.6</ele>
        <time>2024-08-14T06:50:23Z</time>
      </trkpt>
      <trkpt lat="47.44806" lon="2.79266">
        <ele>228</ele>
        <time>2024-08-14T06:50:28Z</time>
      </trkpt>
      <trkpt lat="47.44799" lon="2.79211">
        <ele>228.8</ele>
        <time>2024-08-14T06:50:35Z</time>
      </trkpt>
      <trkpt lat="47.44798" lon="2.79203">
        <ele>228.8</ele>
        <time>2024-08-14T06:50:36Z</time>
      </trkpt>
      <trkpt lat="47.44779" lon="2.79125">
        <ele>229.4</ele>
        <time>2024-08-14T06:50:46Z</time>
      </trkpt>
      <trkpt lat="47.44775" lon="2.79103">
        <ele>229.8</ele>
        <time>2024-08-14T06:50:49Z</time>
      </trkpt>
      <trkpt lat="47.44764" lon="2.79043">
        <ele>230.2</ele>
        <time>2024-08-14T06:50:57Z</time>
      </trkpt>
      <trkpt lat="47.44763" lon="2.79027">
        <ele>230.6</ele>
        <time>2024-08-14T06:50:59Z</time>
      </trkpt>
      <trkpt lat="47.44761" lon="2.78981">
        <ele>231.6</ele>
        <time>2024-08-14T06:51:05Z</time>
      </trkpt>
      <trkpt lat="47.44762" lon="2.78974">
        <ele>231.6</ele>
        <time>2024-08-14T06:51:06Z</time>
      </trkpt>
      <trkpt lat="47.44764" lon="2.78923">
        <ele>232.6</ele>
        <time>2024-08-14T06:51:13Z</time>
      </trkpt>
      <trkpt lat="47.44767" lon="2.78876">
        <ele>233.8</ele>
        <time>2024-08-14T06:51:20Z</time>
      </trkpt>
      <trkpt lat="47.4477" lon="2.78838">
        <ele>234.8</ele>
        <time>2024-08-14T06:51:26Z</time>
      </trkpt>
      <trkpt lat="47.44773" lon="2.78812">
        <ele>235.4</ele>
        <time>2024-08-14T06:51:30Z</time>
      </trkpt>
      <trkpt lat="47.44774" lon="2.78798">
        <ele>235.8</ele>
        <time>2024-08-14T06:51:32Z</time>
      </trkpt>
      <trkpt lat="47.44778" lon="2.78755">
        <ele>237</ele>
        <time>2024-08-14T06:51:38Z</time>
      </trkpt>
      <trkpt lat="47.44778" lon="2.78749">
        <ele>237.2</ele>
        <time>2024-08-14T06:51:39Z</time>
      </trkpt>
      <trkpt lat="47.4478" lon="2.78723">
        <ele>238</ele>
        <time>2024-08-14T06:51:43Z</time>
      </trkpt>
      <trkpt lat="47.44784" lon="2.78699">
        <ele>238.8</ele>
        <time>2024-08-14T06:51:47Z</time>
      </trkpt>
      <trkpt lat="47.44785" lon="2.78686">
        <ele>239.2</ele>
        <time>2024-08-14T06:51:49Z</time>
      </trkpt>
      <trkpt lat="47.44786" lon="2.78662">
        <ele>240.2</ele>
        <time>2024-08-14T06:51:53Z</time>
      </trkpt>
      <trkpt lat="47.44787" lon="2.78656">
        <ele>240.6</ele>
        <time>2024-08-14T06:51:54Z</time>
      </trkpt>
      <trkpt lat="47.44788" lon="2.78643">
        <ele>241</ele>
        <time>2024-08-14T06:51:56Z</time>
      </trkpt>
      <trkpt lat="47.44789" lon="2.78631">
        <ele>241.4</ele>
        <time>2024-08-14T06:51:58Z</time>
      </trkpt>
      <trkpt lat="47.44791" lon="2.78619">
        <ele>241.6</ele>
        <time>2024-08-14T06:52:00Z</time>
      </trkpt>
      <trkpt lat="47.44792" lon="2.78607">
        <ele>242.2</ele>
        <time>2024-08-14T06:52:02Z</time>
      </trkpt>
      <trkpt lat="47.44793" lon="2.78593">
        <ele>242.4</ele>
        <time>2024-08-14T06:52:04Z</time>
      </trkpt>
      <trkpt lat="47.44794" lon="2.78576">
        <ele>242.8</ele>
        <time>2024-08-14T06:52:07Z</time>
      </trkpt>
      <trkpt lat="47.44796" lon="2.7855">
        <ele>243.6</ele>
        <time>2024-08-14T06:52:11Z</time>
      </trkpt>
      <trkpt lat="47.44797" lon="2.78525">
        <ele>244</ele>
        <time>2024-08-14T06:52:15Z</time>
      </trkpt>
      <trkpt lat="47.44798" lon="2.78504">
        <ele>244.6</ele>
        <time>2024-08-14T06:52:18Z</time>
      </trkpt>
      <trkpt lat="47.44798" lon="2.78463">
        <ele>245.6</ele>
        <time>2024-08-14T06:52:24Z</time>
      </trkpt>
      <trkpt lat="47.44788" lon="2.78413">
        <ele>246</ele>
        <time>2024-08-14T06:52:31Z</time>
      </trkpt>
      <trkpt lat="47.44765" lon="2.78353">
        <ele>246.4</ele>
        <time>2024-08-14T06:52:39Z</time>
      </trkpt>
      <trkpt lat="47.44741" lon="2.78282">
        <ele>246.2</ele>
        <time>2024-08-14T06:52:48Z</time>
      </trkpt>
      <trkpt lat="47.44725" lon="2.78218">
        <ele>246.4</ele>
        <time>2024-08-14T06:52:56Z</time>
      </trkpt>
      <trkpt lat="47.44723" lon="2.7821">
        <ele>246.4</ele>
        <time>2024-08-14T06:52:57Z</time>
      </trkpt>
      <trkpt lat="47.44712" lon="2.78155">
        <ele>246.6</ele>
        <time>2024-08-14T06:53:04Z</time>
      </trkpt>
      <trkpt lat="47.44705" lon="2.78126">
        <ele>247.2</ele>
        <time>2024-08-14T06:53:08Z</time>
      </trkpt>
      <trkpt lat="47.44702" lon="2.78106">
        <ele>247.6</ele>
        <time>2024-08-14T06:53:11Z</time>
      </trkpt>
      <trkpt lat="47.44695" lon="2.78071">
        <ele>247.8</ele>
        <time>2024-08-14T06:53:16Z</time>
      </trkpt>
      <trkpt lat="47.44693" lon="2.7806">
        <ele>248</ele>
        <time>2024-08-14T06:53:18Z</time>
      </trkpt>
      <trkpt lat="47.4469" lon="2.78049">
        <ele>248.8</ele>
        <time>2024-08-14T06:53:20Z</time>
      </trkpt>
      <trkpt lat="47.44685" lon="2.78032">
        <ele>249.4</ele>
        <time>2024-08-14T06:53:23Z</time>
      </trkpt>
      <trkpt lat="47.44683" lon="2.78022">
        <ele>250.2</ele>
        <time>2024-08-14T06:53:25Z</time>
      </trkpt>
      <trkpt lat="47.44677" lon="2.77995">
        <ele>251.4</ele>
        <time>2024-08-14T06:53:30Z</time>
      </trkpt>
      <trkpt lat="47.4467" lon="2.77965">
        <ele>252.4</ele>
        <time>2024-08-14T06:53:36Z</time>
      </trkpt>
      <trkpt lat="47.44665" lon="2.77939">
        <ele>253.6</ele>
        <time>2024-08-14T06:53:41Z</time>
      </trkpt>
      <trkpt lat="47.44663" lon="2.77929">
        <ele>253.8</ele>
        <time>2024-08-14T06:53:43Z</time>
      </trkpt>
      <trkpt lat="47.44661" lon="2.77919">
        <ele>254.4</ele>
        <time>2024-08-14T06:53:45Z</time>
      </trkpt>
      <trkpt lat="47.44655" lon="2.77899">
        <ele>255.4</ele>
        <time>2024-08-14T06:53:49Z</time>
      </trkpt>
      <trkpt lat="47.4465" lon="2.77878">
        <ele>256.4</ele>
        <time>2024-08-14T06:53:53Z</time>
      </trkpt>
      <trkpt lat="47.44648" lon="2.77873">
        <ele>256.6</ele>
        <time>2024-08-14T06:53:54Z</time>
      </trkpt>
      <trkpt lat="47.4464" lon="2.77854">
        <ele>257.8</ele>
        <time>2024-08-14T06:53:58Z</time>
      </trkpt>
      <trkpt lat="47.44635" lon="2.77845">
        <ele>258</ele>
        <time>2024-08-14T06:54:00Z</time>
      </trkpt>
      <trkpt lat="47.44625" lon="2.77826">
        <ele>258.6</ele>
        <time>2024-08-14T06:54:04Z</time>
      </trkpt>
      <trkpt lat="47.44613" lon="2.77807">
        <ele>259.4</ele>
        <time>2024-08-14T06:54:08Z</time>
      </trkpt>
      <trkpt lat="47.44601" lon="2.77789">
        <ele>259.8</ele>
        <time>2024-08-14T06:54:12Z</time>
      </trkpt>
      <trkpt lat="47.44599" lon="2.77784">
        <ele>260</ele>
        <time>2024-08-14T06:54:13Z</time>
      </trkpt>
      <trkpt lat="47.44594" lon="2.77775">
        <ele>260.2</ele>
        <time>2024-08-14T06:54:15Z</time>
      </trkpt>
      <trkpt lat="47.44581" lon="2.7775">
        <ele>260.8</ele>
        <time>2024-08-14T06:54:20Z</time>
      </trkpt>
      <trkpt lat="47.44563" lon="2.7772">
        <ele>262</ele>
        <time>2024-08-14T06:54:26Z</time>
      </trkpt>
      <trkpt lat="47.44559" lon="2.77711">
        <ele>262.4</ele>
        <time>2024-08-14T06:54:28Z</time>
      </trkpt>
      <trkpt lat="47.4455" lon="2.77695">
        <ele>263</ele>
        <time>2024-08-14T06:54:31Z</time>
      </trkpt>
      <trkpt lat="47.44541" lon="2.77679">
        <ele>263.8</ele>
        <time>2024-08-14T06:54:34Z</time>
      </trkpt>
      <trkpt lat="47.44535" lon="2.77669">
        <ele>264</ele>
        <time>2024-08-14T06:54:36Z</time>
      </trkpt>
      <trkpt lat="47.44519" lon="2.77644">
        <ele>265.2</ele>
        <time>2024-08-14T06:54:41Z</time>
      </trkpt>
      <trkpt lat="47.44503" lon="2.77616">
        <ele>266.4</ele>
        <time>2024-08-14T06:54:46Z</time>
      </trkpt>
      <trkpt lat="47.44486" lon="2.7759">
        <ele>267.6</ele>
        <time>2024-08-14T06:54:51Z</time>
      </trkpt>
      <trkpt lat="47.44483" lon="2.77586">
        <ele>267.8</ele>
        <time>2024-08-14T06:54:52Z</time>
      </trkpt>
      <trkpt lat="47.4447" lon="2.77568">
        <ele>268.6</ele>
        <time>2024-08-14T06:54:56Z</time>
      </trkpt>
      <trkpt lat="47.44459" lon="2.77549">
        <ele>269.6</ele>
        <time>2024-08-14T06:55:00Z</time>
      </trkpt>
      <trkpt lat="47.44456" lon="2.77544">
        <ele>269.8</ele>
        <time>2024-08-14T06:55:01Z</time>
      </trkpt>
      <trkpt lat="47.44451" lon="2.77535">
        <ele>270.4</ele>
        <time>2024-08-14T06:55:03Z</time>
      </trkpt>
      <trkpt lat="47.44443" lon="2.77522">
        <ele>270.8</ele>
        <time>2024-08-14T06:55:06Z</time>
      </trkpt>
      <trkpt lat="47.44441" lon="2.77517">
        <ele>271</ele>
        <time>2024-08-14T06:55:07Z</time>
      </trkpt>
      <trkpt lat="47.44433" lon="2.775">
        <ele>271.8</ele>
        <time>2024-08-14T06:55:10Z</time>
      </trkpt>
      <trkpt lat="47.44418" lon="2.77471">
        <ele>273</ele>
        <time>2024-08-14T06:55:15Z</time>
      </trkpt>
      <trkpt lat="47.44395" lon="2.77423">
        <ele>273.8</ele>
        <time>2024-08-14T06:55:22Z</time>
      </trkpt>
      <trkpt lat="47.44368" lon="2.77371">
        <ele>273.8</ele>
        <time>2024-08-14T06:55:29Z</time>
      </trkpt>
      <trkpt lat="47.44329" lon="2.77304">
        <ele>273.4</ele>
        <time>2024-08-14T06:55:38Z</time>
      </trkpt>
      <trkpt lat="47.44294" lon="2.77244">
        <ele>273.2</ele>
        <time>2024-08-14T06:55:46Z</time>
      </trkpt>
      <trkpt lat="47.44261" lon="2.77181">
        <ele>273</ele>
        <time>2024-08-14T06:55:54Z</time>
      </trkpt>
      <trkpt lat="47.44257" lon="2.77173">
        <ele>273</ele>
        <time>2024-08-14T06:55:55Z</time>
      </trkpt>
      <trkpt lat="47.44243" lon="2.77131">
        <ele>273</ele>
        <time>2024-08-14T06:56:00Z</time>
      </trkpt>
      <trkpt lat="47.44225" lon="2.77074">
        <ele>273.4</ele>
        <time>2024-08-14T06:56:07Z</time>
      </trkpt>
      <trkpt lat="47.44212" lon="2.77045">
        <ele>273.6</ele>
        <time>2024-08-14T06:56:11Z</time>
      </trkpt>
      <trkpt lat="47.44208" lon="2.7704">
        <ele>273.8</ele>
        <time>2024-08-14T06:56:12Z</time>
      </trkpt>
      <trkpt lat="47.44204" lon="2.77034">
        <ele>273.8</ele>
        <time>2024-08-14T06:56:13Z</time>
      </trkpt>
      <trkpt lat="47.44184" lon="2.77016">
        <ele>275</ele>
        <time>2024-08-14T06:56:17Z</time>
      </trkpt>
      <trkpt lat="47.44179" lon="2.77012">
        <ele>275</ele>
        <time>2024-08-14T06:56:18Z</time>
      </trkpt>
      <trkpt lat="47.44174" lon="2.77009">
        <ele>275.4</ele>
        <time>2024-08-14T06:56:19Z</time>
      </trkpt>
      <trkpt lat="47.44153" lon="2.77001">
        <ele>276</ele>
        <time>2024-08-14T06:56:23Z</time>
      </trkpt>
      <trkpt lat="47.44148" lon="2.76998">
        <ele>276</ele>
        <time>2024-08-14T06:56:24Z</time>
      </trkpt>
      <trkpt lat="47.44123" lon="2.76983">
        <ele>276.6</ele>
        <time>2024-08-14T06:56:29Z</time>
      </trkpt>
      <trkpt lat="47.44119" lon="2.7698">
        <ele>276.6</ele>
        <time>2024-08-14T06:56:30Z</time>
      </trkpt>
      <trkpt lat="47.44111" lon="2.76973">
        <ele>276.8</ele>
        <time>2024-08-14T06:56:32Z</time>
      </trkpt>
      <trkpt lat="47.44107" lon="2.76969">
        <ele>277</ele>
        <time>2024-08-14T06:56:33Z</time>
      </trkpt>
      <trkpt lat="47.44098" lon="2.76958">
        <ele>277.8</ele>
        <time>2024-08-14T06:56:36Z</time>
      </trkpt>
      <trkpt lat="47.44092" lon="2.76951">
        <ele>278</ele>
        <time>2024-08-14T06:56:38Z</time>
      </trkpt>
      <trkpt lat="47.44085" lon="2.76939">
        <ele>278.6</ele>
        <time>2024-08-14T06:56:41Z</time>
      </trkpt>
      <trkpt lat="47.4408" lon="2.76929">
        <ele>279.2</ele>
        <time>2024-08-14T06:56:43Z</time>
      </trkpt>
      <trkpt lat="47.44073" lon="2.76911">
        <ele>280.4</ele>
        <time>2024-08-14T06:56:47Z</time>
      </trkpt>
      <trkpt lat="47.4407" lon="2.76902">
        <ele>281</ele>
        <time>2024-08-14T06:56:49Z</time>
      </trkpt>
      <trkpt lat="47.44067" lon="2.76894">
        <ele>281.4</ele>
        <time>2024-08-14T06:56:51Z</time>
      </trkpt>
      <trkpt lat="47.44061" lon="2.76873">
        <ele>282.6</ele>
        <time>2024-08-14T06:56:55Z</time>
      </trkpt>
      <trkpt lat="47.44058" lon="2.76845">
        <ele>283.8</ele>
        <time>2024-08-14T06:57:00Z</time>
      </trkpt>
      <trkpt lat="47.44059" lon="2.76822">
        <ele>285</ele>
        <time>2024-08-14T06:57:04Z</time>
      </trkpt>
      <trkpt lat="47.4406" lon="2.76816">
        <ele>285</ele>
        <time>2024-08-14T06:57:05Z</time>
      </trkpt>
      <trkpt lat="47.44061" lon="2.7679">
        <ele>286</ele>
        <time>2024-08-14T06:57:10Z</time>
      </trkpt>
      <trkpt lat="47.44062" lon="2.76766">
        <ele>287.2</ele>
        <time>2024-08-14T06:57:14Z</time>
      </trkpt>
      <trkpt lat="47.44062" lon="2.76756">
        <ele>287.8</ele>
        <time>2024-08-14T06:57:16Z</time>
      </trkpt>
      <trkpt lat="47.44065" lon="2.76745">
        <ele>288.2</ele>
        <time>2024-08-14T06:57:18Z</time>
      </trkpt>
      <trkpt lat="47.44066" lon="2.76716">
        <ele>289.4</ele>
        <time>2024-08-14T06:57:23Z</time>
      </trkpt>
      <trkpt lat="47.44065" lon="2.7671">
        <ele>289.6</ele>
        <time>2024-08-14T06:57:24Z</time>
      </trkpt>
      <trkpt lat="47.44063" lon="2.7669">
        <ele>290.6</ele>
        <time>2024-08-14T06:57:28Z</time>
      </trkpt>
      <trkpt lat="47.44062" lon="2.7667">
        <ele>291.2</ele>
        <time>2024-08-14T06:57:32Z</time>
      </trkpt>
      <trkpt lat="47.44062" lon="2.76659">
        <ele>291.6</ele>
        <time>2024-08-14T06:57:34Z</time>
      </trkpt>
      <trkpt lat="47.44059" lon="2.76639">
        <ele>292.8</ele>
        <time>2024-08-14T06:57:38Z</time>
      </trkpt>
      <trkpt lat="47.44057" lon="2.76624">
        <ele>293.4</ele>
        <time>2024-08-14T06:57:41Z</time>
      </trkpt>
      <trkpt lat="47.44055" lon="2.76608">
        <ele>294</ele>
        <time>2024-08-14T06:57:44Z</time>
      </trkpt>
      <trkpt lat="47.44051" lon="2.76581">
        <ele>295</ele>
        <time>2024-08-14T06:57:49Z</time>
      </trkpt>
      <trkpt lat="47.4405" lon="2.76576">
        <ele>295.2</ele>
        <time>2024-08-14T06:57:50Z</time>
      </trkpt>
      <trkpt lat="47.44047" lon="2.76556">
        <ele>296.2</ele>
        <time>2024-08-14T06:57:54Z</time>
      </trkpt>
      <trkpt lat="47.44051" lon="2.76551">
        <ele>296.6</ele>
        <time>2024-08-14T06:57:56Z</time>
      </trkpt>
      <trkpt lat="47.44053" lon="2.7655">
        <ele>296.8</ele>
        <time>2024-08-14T06:58:00Z</time>
      </trkpt>
      <trkpt lat="47.44046" lon="2.76541">
        <ele>296.2</ele>
        <time>2024-08-14T07:03:49Z</time>
      </trkpt>
      <trkpt lat="47.44042" lon="2.76534">
        <ele>296.6</ele>
        <time>2024-08-14T07:03:52Z</time>
      </trkpt>
      <trkpt lat="47.44041" lon="2.76532">
        <ele>296.8</ele>
        <time>2024-08-14T07:03:53Z</time>
      </trkpt>
      <trkpt lat="47.44037" lon="2.76511">
        <ele>297.6</ele>
        <time>2024-08-14T07:03:58Z</time>
      </trkpt>
      <trkpt lat="47.44036" lon="2.76502">
        <ele>297.8</ele>
        <time>2024-08-14T07:04:00Z</time>
      </trkpt>
      <trkpt lat="47.44031" lon="2.7648">
        <ele>298.8</ele>
        <time>2024-08-14T07:04:05Z</time>
      </trkpt>
      <trkpt lat="47.44029" lon="2.7647">
        <ele>299</ele>
        <time>2024-08-14T07:04:07Z</time>
      </trkpt>
      <trkpt lat="47.44023" lon="2.76442">
        <ele>300.2</ele>
        <time>2024-08-14T07:04:13Z</time>
      </trkpt>
      <trkpt lat="47.44015" lon="2.76425">
        <ele>301.4</ele>
        <time>2024-08-14T07:04:17Z</time>
      </trkpt>
      <trkpt lat="47.44008" lon="2.76414">
        <ele>301.8</ele>
        <time>2024-08-14T07:04:20Z</time>
      </trkpt>
      <trkpt lat="47.44" lon="2.76403">
        <ele>302.4</ele>
        <time>2024-08-14T07:04:23Z</time>
      </trkpt>
      <trkpt lat="47.43987" lon="2.76388">
        <ele>303.6</ele>
        <time>2024-08-14T07:04:28Z</time>
      </trkpt>
      <trkpt lat="47.43981" lon="2.76383">
        <ele>304</ele>
        <time>2024-08-14T07:04:30Z</time>
      </trkpt>
      <trkpt lat="47.43964" lon="2.76373">
        <ele>304.8</ele>
        <time>2024-08-14T07:04:35Z</time>
      </trkpt>
      <trkpt lat="47.4396" lon="2.76371">
        <ele>305</ele>
        <time>2024-08-14T07:04:36Z</time>
      </trkpt>
      <trkpt lat="47.43932" lon="2.76363">
        <ele>306</ele>
        <time>2024-08-14T07:04:43Z</time>
      </trkpt>
      <trkpt lat="47.43927" lon="2.76362">
        <ele>306</ele>
        <time>2024-08-14T07:04:44Z</time>
      </trkpt>
      <trkpt lat="47.43913" lon="2.76358">
        <ele>306</ele>
        <time>2024-08-14T07:04:47Z</time>
      </trkpt>
      <trkpt lat="47.43901" lon="2.76355">
        <ele>306</ele>
        <time>2024-08-14T07:04:49Z</time>
      </trkpt>
      <trkpt lat="47.43868" lon="2.7635">
        <ele>305.6</ele>
        <time>2024-08-14T07:04:54Z</time>
      </trkpt>
      <trkpt lat="47.43862" lon="2.7635">
        <ele>305.4</ele>
        <time>2024-08-14T07:04:55Z</time>
      </trkpt>
      <trkpt lat="47.43855" lon="2.76351">
        <ele>305.2</ele>
        <time>2024-08-14T07:04:56Z</time>
      </trkpt>
      <trkpt lat="47.43832" lon="2.76359">
        <ele>304.8</ele>
        <time>2024-08-14T07:04:59Z</time>
      </trkpt>
      <trkpt lat="47.43793" lon="2.76378">
        <ele>303.8</ele>
        <time>2024-08-14T07:05:04Z</time>
      </trkpt>
      <trkpt lat="47.43769" lon="2.7639">
        <ele>303.2</ele>
        <time>2024-08-14T07:05:07Z</time>
      </trkpt>
      <trkpt lat="47.43752" lon="2.76398">
        <ele>302.4</ele>
        <time>2024-08-14T07:05:09Z</time>
      </trkpt>
      <trkpt lat="47.43708" lon="2.76415">
        <ele>301.6</ele>
        <time>2024-08-14T07:05:14Z</time>
      </trkpt>
      <trkpt lat="47.43701" lon="2.76416">
        <ele>301.4</ele>
        <time>2024-08-14T07:05:15Z</time>
      </trkpt>
      <trkpt lat="47.43673" lon="2.76414">
        <ele>300.8</ele>
        <time>2024-08-14T07:05:18Z</time>
      </trkpt>
      <trkpt lat="47.43655" lon="2.76407">
        <ele>300.2</ele>
        <time>2024-08-14T07:05:20Z</time>
      </trkpt>
      <trkpt lat="47.43621" lon="2.76393">
        <ele>299.2</ele>
        <time>2024-08-14T07:05:24Z</time>
      </trkpt>
      <trkpt lat="47.43572" lon="2.76367">
        <ele>298</ele>
        <time>2024-08-14T07:05:30Z</time>
      </trkpt>
      <trkpt lat="47.43564" lon="2.76362">
        <ele>297.8</ele>
        <time>2024-08-14T07:05:31Z</time>
      </trkpt>
      <trkpt lat="47.43512" lon="2.76328">
        <ele>297</ele>
        <time>2024-08-14T07:05:38Z</time>
      </trkpt>
      <trkpt lat="47.43505" lon="2.76323">
        <ele>297</ele>
        <time>2024-08-14T07:05:39Z</time>
      </trkpt>
      <trkpt lat="47.43465" lon="2.76289">
        <ele>297</ele>
        <time>2024-08-14T07:05:45Z</time>
      </trkpt>
      <trkpt lat="47.43436" lon="2.76253">
        <ele>297.2</ele>
        <time>2024-08-14T07:05:50Z</time>
      </trkpt>
      <trkpt lat="47.43392" lon="2.76205">
        <ele>297.6</ele>
        <time>2024-08-14T07:05:58Z</time>
      </trkpt>
      <trkpt lat="47.43386" lon="2.76198">
        <ele>297.6</ele>
        <time>2024-08-14T07:05:59Z</time>
      </trkpt>
      <trkpt lat="47.43351" lon="2.76157">
        <ele>297.8</ele>
        <time>2024-08-14T07:06:06Z</time>
      </trkpt>
      <trkpt lat="47.43341" lon="2.76146">
        <ele>298</ele>
        <time>2024-08-14T07:06:08Z</time>
      </trkpt>
      <trkpt lat="47.43336" lon="2.7614">
        <ele>298.2</ele>
        <time>2024-08-14T07:06:09Z</time>
      </trkpt>
      <trkpt lat="47.4331" lon="2.76102">
        <ele>299</ele>
        <time>2024-08-14T07:06:15Z</time>
      </trkpt>
      <trkpt lat="47.43292" lon="2.76075">
        <ele>299</ele>
        <time>2024-08-14T07:06:19Z</time>
      </trkpt>
      <trkpt lat="47.43272" lon="2.76048">
        <ele>299</ele>
        <time>2024-08-14T07:06:23Z</time>
      </trkpt>
      <trkpt lat="47.43232" lon="2.76011">
        <ele>298.4</ele>
        <time>2024-08-14T07:06:29Z</time>
      </trkpt>
      <trkpt lat="47.43215" lon="2.76002">
        <ele>298.2</ele>
        <time>2024-08-14T07:06:31Z</time>
      </trkpt>
      <trkpt lat="47.43206" lon="2.76">
        <ele>298</ele>
        <time>2024-08-14T07:06:32Z</time>
      </trkpt>
      <trkpt lat="47.43194" lon="2.76">
        <ele>297.8</ele>
        <time>2024-08-14T07:06:33Z</time>
      </trkpt>
      <trkpt lat="47.43166" lon="2.76011">
        <ele>296.4</ele>
        <time>2024-08-14T07:06:36Z</time>
      </trkpt>
      <trkpt lat="47.43148" lon="2.76024">
        <ele>295.2</ele>
        <time>2024-08-14T07:06:38Z</time>
      </trkpt>
      <trkpt lat="47.4312" lon="2.76045">
        <ele>293.8</ele>
        <time>2024-08-14T07:06:41Z</time>
      </trkpt>
      <trkpt lat="47.43111" lon="2.76051">
        <ele>293.2</ele>
        <time>2024-08-14T07:06:42Z</time>
      </trkpt>
      <trkpt lat="47.43101" lon="2.76056">
        <ele>292.2</ele>
        <time>2024-08-14T07:06:43Z</time>
      </trkpt>
      <trkpt lat="47.43091" lon="2.76058">
        <ele>291.6</ele>
        <time>2024-08-14T07:06:44Z</time>
      </trkpt>
      <trkpt lat="47.43071" lon="2.76056">
        <ele>290.4</ele>
        <time>2024-08-14T07:06:46Z</time>
      </trkpt>
      <trkpt lat="47.43061" lon="2.76052">
        <ele>290</ele>
        <time>2024-08-14T07:06:47Z</time>
      </trkpt>
      <trkpt lat="47.43046" lon="2.76036">
        <ele>289.2</ele>
        <time>2024-08-14T07:06:49Z</time>
      </trkpt>
      <trkpt lat="47.43034" lon="2.76008">
        <ele>288.2</ele>
        <time>2024-08-14T07:06:51Z</time>
      </trkpt>
      <trkpt lat="47.43029" lon="2.75994">
        <ele>287.8</ele>
        <time>2024-08-14T07:06:52Z</time>
      </trkpt>
      <trkpt lat="47.43025" lon="2.75983">
        <ele>287</ele>
        <time>2024-08-14T07:06:53Z</time>
      </trkpt>
      <trkpt lat="47.43005" lon="2.75929">
        <ele>285.4</ele>
        <time>2024-08-14T07:06:57Z</time>
      </trkpt>
      <trkpt lat="47.42991" lon="2.75893">
        <ele>283.8</ele>
        <time>2024-08-14T07:07:00Z</time>
      </trkpt>
      <trkpt lat="47.42971" lon="2.75844">
        <ele>282.8</ele>
        <time>2024-08-14T07:07:04Z</time>
      </trkpt>
      <trkpt lat="47.42966" lon="2.75831">
        <ele>282.4</ele>
        <time>2024-08-14T07:07:05Z</time>
      </trkpt>
      <trkpt lat="47.42957" lon="2.75808">
        <ele>282</ele>
        <time>2024-08-14T07:07:07Z</time>
      </trkpt>
      <trkpt lat="47.42952" lon="2.75794">
        <ele>281.4</ele>
        <time>2024-08-14T07:07:08Z</time>
      </trkpt>
      <trkpt lat="47.4294" lon="2.75765">
        <ele>280</ele>
        <time>2024-08-14T07:07:10Z</time>
      </trkpt>
      <trkpt lat="47.42931" lon="2.75741">
        <ele>279</ele>
        <time>2024-08-14T07:07:12Z</time>
      </trkpt>
      <trkpt lat="47.42919" lon="2.75711">
        <ele>278.2</ele>
        <time>2024-08-14T07:07:14Z</time>
      </trkpt>
      <trkpt lat="47.4291" lon="2.75687">
        <ele>277.2</ele>
        <time>2024-08-14T07:07:16Z</time>
      </trkpt>
      <trkpt lat="47.42893" lon="2.75643">
        <ele>275.2</ele>
        <time>2024-08-14T07:07:19Z</time>
      </trkpt>
      <trkpt lat="47.42883" lon="2.75618">
        <ele>274.2</ele>
        <time>2024-08-14T07:07:21Z</time>
      </trkpt>
      <trkpt lat="47.42873" lon="2.75591">
        <ele>272.8</ele>
        <time>2024-08-14T07:07:23Z</time>
      </trkpt>
      <trkpt lat="47.42866" lon="2.75575">
        <ele>271.6</ele>
        <time>2024-08-14T07:07:24Z</time>
      </trkpt>
      <trkpt lat="47.42857" lon="2.75552">
        <ele>270.4</ele>
        <time>2024-08-14T07:07:26Z</time>
      </trkpt>
      <trkpt lat="47.42842" lon="2.75513">
        <ele>269.2</ele>
        <time>2024-08-14T07:07:29Z</time>
      </trkpt>
      <trkpt lat="47.42837" lon="2.755">
        <ele>268.6</ele>
        <time>2024-08-14T07:07:30Z</time>
      </trkpt>
      <trkpt lat="47.42832" lon="2.75487">
        <ele>268.2</ele>
        <time>2024-08-14T07:07:31Z</time>
      </trkpt>
      <trkpt lat="47.42822" lon="2.75461">
        <ele>266.8</ele>
        <time>2024-08-14T07:07:33Z</time>
      </trkpt>
      <trkpt lat="47.42813" lon="2.75442">
        <ele>266.2</ele>
        <time>2024-08-14T07:07:35Z</time>
      </trkpt>
      <trkpt lat="47.4281" lon="2.75428">
        <ele>265.6</ele>
        <time>2024-08-14T07:07:36Z</time>
      </trkpt>
      <trkpt lat="47.4281" lon="2.75416">
        <ele>265.4</ele>
        <time>2024-08-14T07:07:37Z</time>
      </trkpt>
      <trkpt lat="47.42809" lon="2.75393">
        <ele>264.4</ele>
        <time>2024-08-14T07:07:39Z</time>
      </trkpt>
      <trkpt lat="47.42809" lon="2.75379">
        <ele>263.6</ele>
        <time>2024-08-14T07:07:40Z</time>
      </trkpt>
      <trkpt lat="47.42808" lon="2.75363">
        <ele>263.2</ele>
        <time>2024-08-14T07:07:41Z</time>
      </trkpt>
      <trkpt lat="47.42805" lon="2.75322">
        <ele>262.2</ele>
        <time>2024-08-14T07:07:44Z</time>
      </trkpt>
      <trkpt lat="47.42805" lon="2.75306">
        <ele>261.6</ele>
        <time>2024-08-14T07:07:45Z</time>
      </trkpt>
      <trkpt lat="47.42806" lon="2.75273">
        <ele>260.2</ele>
        <time>2024-08-14T07:07:47Z</time>
      </trkpt>
      <trkpt lat="47.4281" lon="2.75261">
        <ele>258.8</ele>
        <time>2024-08-14T07:07:48Z</time>
      </trkpt>
      <trkpt lat="47.42815" lon="2.75247">
        <ele>258.4</ele>
        <time>2024-08-14T07:07:49Z</time>
      </trkpt>
      <trkpt lat="47.42823" lon="2.75231">
        <ele>257.4</ele>
        <time>2024-08-14T07:07:50Z</time>
      </trkpt>
      <trkpt lat="47.42829" lon="2.75217">
        <ele>256.8</ele>
        <time>2024-08-14T07:07:51Z</time>
      </trkpt>
      <trkpt lat="47.42834" lon="2.75201">
        <ele>256</ele>
        <time>2024-08-14T07:07:52Z</time>
      </trkpt>
      <trkpt lat="47.42841" lon="2.75172">
        <ele>254.2</ele>
        <time>2024-08-14T07:07:54Z</time>
      </trkpt>
      <trkpt lat="47.42845" lon="2.75155">
        <ele>253.2</ele>
        <time>2024-08-14T07:07:55Z</time>
      </trkpt>
      <trkpt lat="47.42848" lon="2.75134">
        <ele>252.8</ele>
        <time>2024-08-14T07:07:56Z</time>
      </trkpt>
      <trkpt lat="47.4285" lon="2.7512">
        <ele>251.6</ele>
        <time>2024-08-14T07:07:57Z</time>
      </trkpt>
      <trkpt lat="47.4285" lon="2.75102">
        <ele>251.2</ele>
        <time>2024-08-14T07:07:58Z</time>
      </trkpt>
      <trkpt lat="47.42848" lon="2.75082">
        <ele>249.6</ele>
        <time>2024-08-14T07:07:59Z</time>
      </trkpt>
      <trkpt lat="47.42845" lon="2.75068">
        <ele>248.4</ele>
        <time>2024-08-14T07:08:00Z</time>
      </trkpt>
      <trkpt lat="47.42834" lon="2.75037">
        <ele>246.2</ele>
        <time>2024-08-14T07:08:02Z</time>
      </trkpt>
      <trkpt lat="47.42823" lon="2.75005">
        <ele>244</ele>
        <time>2024-08-14T07:08:04Z</time>
      </trkpt>
      <trkpt lat="47.42809" lon="2.74971">
        <ele>242</ele>
        <time>2024-08-14T07:08:06Z</time>
      </trkpt>
      <trkpt lat="47.42804" lon="2.74958">
        <ele>240.8</ele>
        <time>2024-08-14T07:08:07Z</time>
      </trkpt>
      <trkpt lat="47.42789" lon="2.74924">
        <ele>238.8</ele>
        <time>2024-08-14T07:08:09Z</time>
      </trkpt>
      <trkpt lat="47.42777" lon="2.74897">
        <ele>237</ele>
        <time>2024-08-14T07:08:11Z</time>
      </trkpt>
      <trkpt lat="47.42761" lon="2.74866">
        <ele>235.2</ele>
        <time>2024-08-14T07:08:13Z</time>
      </trkpt>
      <trkpt lat="47.42745" lon="2.74842">
        <ele>233.4</ele>
        <time>2024-08-14T07:08:15Z</time>
      </trkpt>
      <trkpt lat="47.42736" lon="2.7483">
        <ele>232</ele>
        <time>2024-08-14T07:08:16Z</time>
      </trkpt>
      <trkpt lat="47.42717" lon="2.74803">
        <ele>230.6</ele>
        <time>2024-08-14T07:08:18Z</time>
      </trkpt>
      <trkpt lat="47.42701" lon="2.74782">
        <ele>229.2</ele>
        <time>2024-08-14T07:08:20Z</time>
      </trkpt>
      <trkpt lat="47.42681" lon="2.74756">
        <ele>228.2</ele>
        <time>2024-08-14T07:08:22Z</time>
      </trkpt>
      <trkpt lat="47.42672" lon="2.74744">
        <ele>227</ele>
        <time>2024-08-14T07:08:23Z</time>
      </trkpt>
      <trkpt lat="47.42658" lon="2.74724">
        <ele>225.6</ele>
        <time>2024-08-14T07:08:25Z</time>
      </trkpt>
      <trkpt lat="47.42633" lon="2.7469">
        <ele>224.6</ele>
        <time>2024-08-14T07:08:28Z</time>
      </trkpt>
      <trkpt lat="47.42595" lon="2.74646">
        <ele>223.4</ele>
        <time>2024-08-14T07:08:33Z</time>
      </trkpt>
      <trkpt lat="47.42581" lon="2.74637">
        <ele>223.2</ele>
        <time>2024-08-14T07:08:35Z</time>
      </trkpt>
      <trkpt lat="47.42563" lon="2.74629">
        <ele>223.2</ele>
        <time>2024-08-14T07:08:37Z</time>
      </trkpt>
      <trkpt lat="47.42525" lon="2.74622">
        <ele>223.2</ele>
        <time>2024-08-14T07:08:42Z</time>
      </trkpt>
      <trkpt lat="47.42485" lon="2.74614">
        <ele>224.2</ele>
        <time>2024-08-14T07:08:48Z</time>
      </trkpt>
      <trkpt lat="47.42479" lon="2.74613">
        <ele>224.4</ele>
        <time>2024-08-14T07:08:49Z</time>
      </trkpt>
      <trkpt lat="47.42451" lon="2.74608">
        <ele>225.6</ele>
        <time>2024-08-14T07:08:54Z</time>
      </trkpt>
      <trkpt lat="47.4243" lon="2.74603">
        <ele>226.4</ele>
        <time>2024-08-14T07:08:58Z</time>
      </trkpt>
      <trkpt lat="47.42423" lon="2.74602">
        <ele>226.6</ele>
        <time>2024-08-14T07:08:59Z</time>
      </trkpt>
      <trkpt lat="47.42419" lon="2.74602">
        <ele>226.8</ele>
        <time>2024-08-14T07:09:00Z</time>
      </trkpt>
      <trkpt lat="47.42403" lon="2.74599">
        <ele>227.8</ele>
        <time>2024-08-14T07:09:03Z</time>
      </trkpt>
      <trkpt lat="47.42376" lon="2.74594">
        <ele>229</ele>
        <time>2024-08-14T07:09:08Z</time>
      </trkpt>
      <trkpt lat="47.4234" lon="2.74585">
        <ele>230</ele>
        <time>2024-08-14T07:09:15Z</time>
      </trkpt>
      <trkpt lat="47.42336" lon="2.74584">
        <ele>230.4</ele>
        <time>2024-08-14T07:09:16Z</time>
      </trkpt>
      <trkpt lat="47.42325" lon="2.74581">
        <ele>231</ele>
        <time>2024-08-14T07:09:18Z</time>
      </trkpt>
      <trkpt lat="47.42317" lon="2.74579">
        <ele>231.4</ele>
        <time>2024-08-14T07:09:20Z</time>
      </trkpt>
      <trkpt lat="47.42308" lon="2.74575">
        <ele>232</ele>
        <time>2024-08-14T07:09:22Z</time>
      </trkpt>
      <trkpt lat="47.42303" lon="2.74574">
        <ele>232.2</ele>
        <time>2024-08-14T07:09:23Z</time>
      </trkpt>
      <trkpt lat="47.42288" lon="2.74572">
        <ele>233</ele>
        <time>2024-08-14T07:09:26Z</time>
      </trkpt>
      <trkpt lat="47.42283" lon="2.74571">
        <ele>233.2</ele>
        <time>2024-08-14T07:09:27Z</time>
      </trkpt>
      <trkpt lat="47.42278" lon="2.7457">
        <ele>233.4</ele>
        <time>2024-08-14T07:09:28Z</time>
      </trkpt>
      <trkpt lat="47.42257" lon="2.74566">
        <ele>234.6</ele>
        <time>2024-08-14T07:09:32Z</time>
      </trkpt>
      <trkpt lat="47.4225" lon="2.74563">
        <ele>234.6</ele>
        <time>2024-08-14T07:09:33Z</time>
      </trkpt>
      <trkpt lat="47.4224" lon="2.74558">
        <ele>234.8</ele>
        <time>2024-08-14T07:09:35Z</time>
      </trkpt>
      <trkpt lat="47.42235" lon="2.74554">
        <ele>234.8</ele>
        <time>2024-08-14T07:09:36Z</time>
      </trkpt>
      <trkpt lat="47.42217" lon="2.74532">
        <ele>235</ele>
        <time>2024-08-14T07:09:40Z</time>
      </trkpt>
      <trkpt lat="47.42212" lon="2.74524">
        <ele>235</ele>
        <time>2024-08-14T07:09:41Z</time>
      </trkpt>
      <trkpt lat="47.42188" lon="2.74476">
        <ele>234.6</ele>
        <time>2024-08-14T07:09:47Z</time>
      </trkpt>
      <trkpt lat="47.42163" lon="2.7442">
        <ele>234</ele>
        <time>2024-08-14T07:09:53Z</time>
      </trkpt>
      <trkpt lat="47.42145" lon="2.74375">
        <ele>233.4</ele>
        <time>2024-08-14T07:09:58Z</time>
      </trkpt>
      <trkpt lat="47.42131" lon="2.7434">
        <ele>233.2</ele>
        <time>2024-08-14T07:10:02Z</time>
      </trkpt>
      <trkpt lat="47.42101" lon="2.74271">
        <ele>232.6</ele>
        <time>2024-08-14T07:10:09Z</time>
      </trkpt>
      <trkpt lat="47.42096" lon="2.74259">
        <ele>232.4</ele>
        <time>2024-08-14T07:10:10Z</time>
      </trkpt>
      <trkpt lat="47.42091" lon="2.74248">
        <ele>232.2</ele>
        <time>2024-08-14T07:10:11Z</time>
      </trkpt>
      <trkpt lat="47.42073" lon="2.74207">
        <ele>230.8</ele>
        <time>2024-08-14T07:10:15Z</time>
      </trkpt>
      <trkpt lat="47.42064" lon="2.74185">
        <ele>230.4</ele>
        <time>2024-08-14T07:10:17Z</time>
      </trkpt>
      <trkpt lat="47.4205" lon="2.7415">
        <ele>229.8</ele>
        <time>2024-08-14T07:10:20Z</time>
      </trkpt>
      <trkpt lat="47.42029" lon="2.74099">
        <ele>228.8</ele>
        <time>2024-08-14T07:10:25Z</time>
      </trkpt>
      <trkpt lat="47.42024" lon="2.74088">
        <ele>228.8</ele>
        <time>2024-08-14T07:10:26Z</time>
      </trkpt>
      <trkpt lat="47.41999" lon="2.74029">
        <ele>228</ele>
        <time>2024-08-14T07:10:32Z</time>
      </trkpt>
      <trkpt lat="47.41978" lon="2.73979">
        <ele>227.8</ele>
        <time>2024-08-14T07:10:37Z</time>
      </trkpt>
      <trkpt lat="47.41961" lon="2.73936">
        <ele>227.8</ele>
        <time>2024-08-14T07:10:42Z</time>
      </trkpt>
      <trkpt lat="47.41947" lon="2.739">
        <ele>227.6</ele>
        <time>2024-08-14T07:10:46Z</time>
      </trkpt>
      <trkpt lat="47.41932" lon="2.73865">
        <ele>226.8</ele>
        <time>2024-08-14T07:10:51Z</time>
      </trkpt>
      <trkpt lat="47.41928" lon="2.73858">
        <ele>226.4</ele>
        <time>2024-08-14T07:10:53Z</time>
      </trkpt>
      <trkpt lat="47.41926" lon="2.73858">
        <ele>226.4</ele>
        <time>2024-08-14T07:10:54Z</time>
      </trkpt>
      <trkpt lat="47.41923" lon="2.73861">
        <ele>226.2</ele>
        <time>2024-08-14T07:10:55Z</time>
      </trkpt>
      <trkpt lat="47.4192" lon="2.73872">
        <ele>226</ele>
        <time>2024-08-14T07:10:57Z</time>
      </trkpt>
      <trkpt lat="47.41909" lon="2.73906">
        <ele>225.4</ele>
        <time>2024-08-14T07:11:02Z</time>
      </trkpt>
      <trkpt lat="47.41907" lon="2.73914">
        <ele>225.4</ele>
        <time>2024-08-14T07:11:03Z</time>
      </trkpt>
      <trkpt lat="47.41889" lon="2.73977">
        <ele>225.8</ele>
        <time>2024-08-14T07:11:11Z</time>
      </trkpt>
      <trkpt lat="47.4187" lon="2.74036">
        <ele>226.4</ele>
        <time>2024-08-14T07:11:18Z</time>
      </trkpt>
      <trkpt lat="47.41849" lon="2.74088">
        <ele>226.4</ele>
        <time>2024-08-14T07:11:23Z</time>
      </trkpt>
      <trkpt lat="47.41831" lon="2.74122">
        <ele>226</ele>
        <time>2024-08-14T07:11:26Z</time>
      </trkpt>
      <trkpt lat="47.41824" lon="2.74133">
        <ele>225.4</ele>
        <time>2024-08-14T07:11:27Z</time>
      </trkpt>
      <trkpt lat="47.41806" lon="2.74152">
        <ele>224.2</ele>
        <time>2024-08-14T07:11:29Z</time>
      </trkpt>
      <trkpt lat="47.41789" lon="2.7417">
        <ele>222.8</ele>
        <time>2024-08-14T07:11:31Z</time>
      </trkpt>
      <trkpt lat="47.41781" lon="2.7418">
        <ele>222.4</ele>
        <time>2024-08-14T07:11:32Z</time>
      </trkpt>
      <trkpt lat="47.41767" lon="2.74202">
        <ele>221.2</ele>
        <time>2024-08-14T07:11:34Z</time>
      </trkpt>
      <trkpt lat="47.41761" lon="2.74213">
        <ele>221</ele>
        <time>2024-08-14T07:11:35Z</time>
      </trkpt>
      <trkpt lat="47.41735" lon="2.74271">
        <ele>220</ele>
        <time>2024-08-14T07:11:40Z</time>
      </trkpt>
      <trkpt lat="47.41731" lon="2.74283">
        <ele>219.8</ele>
        <time>2024-08-14T07:11:41Z</time>
      </trkpt>
      <trkpt lat="47.41711" lon="2.74352">
        <ele>219.4</ele>
        <time>2024-08-14T07:11:47Z</time>
      </trkpt>
      <trkpt lat="47.417" lon="2.74418">
        <ele>219.6</ele>
        <time>2024-08-14T07:11:53Z</time>
      </trkpt>
      <trkpt lat="47.41695" lon="2.7445">
        <ele>219.8</ele>
        <time>2024-08-14T07:11:56Z</time>
      </trkpt>
      <trkpt lat="47.41693" lon="2.74467">
        <ele>220</ele>
        <time>2024-08-14T07:11:58Z</time>
      </trkpt>
      <trkpt lat="47.41691" lon="2.74495">
        <ele>220.6</ele>
        <time>2024-08-14T07:12:01Z</time>
      </trkpt>
      <trkpt lat="47.4169" lon="2.74502">
        <ele>220.8</ele>
        <time>2024-08-14T07:12:02Z</time>
      </trkpt>
      <trkpt lat="47.41683" lon="2.74548">
        <ele>221.2</ele>
        <time>2024-08-14T07:12:07Z</time>
      </trkpt>
      <trkpt lat="47.41682" lon="2.74559">
        <ele>221.2</ele>
        <time>2024-08-14T07:12:08Z</time>
      </trkpt>
      <trkpt lat="47.41666" lon="2.74638">
        <ele>221.4</ele>
        <time>2024-08-14T07:12:16Z</time>
      </trkpt>
      <trkpt lat="47.41647" lon="2.74686">
        <ele>221.2</ele>
        <time>2024-08-14T07:12:21Z</time>
      </trkpt>
      <trkpt lat="47.4162" lon="2.74742">
        <ele>221</ele>
        <time>2024-08-14T07:12:28Z</time>
      </trkpt>
      <trkpt lat="47.416" lon="2.74788">
        <ele>222</ele>
        <time>2024-08-14T07:12:35Z</time>
      </trkpt>
      <trkpt lat="47.41594" lon="2.74801">
        <ele>222.4</ele>
        <time>2024-08-14T07:12:37Z</time>
      </trkpt>
      <trkpt lat="47.41584" lon="2.74817">
        <ele>222.8</ele>
        <time>2024-08-14T07:12:40Z</time>
      </trkpt>
      <trkpt lat="47.41576" lon="2.74828">
        <ele>223.4</ele>
        <time>2024-08-14T07:12:42Z</time>
      </trkpt>
      <trkpt lat="47.41565" lon="2.74839">
        <ele>224.2</ele>
        <time>2024-08-14T07:12:45Z</time>
      </trkpt>
      <trkpt lat="47.41561" lon="2.74843">
        <ele>224.2</ele>
        <time>2024-08-14T07:12:46Z</time>
      </trkpt>
      <trkpt lat="47.41549" lon="2.74851">
        <ele>225.2</ele>
        <time>2024-08-14T07:12:49Z</time>
      </trkpt>
      <trkpt lat="47.41545" lon="2.74853">
        <ele>225.6</ele>
        <time>2024-08-14T07:12:50Z</time>
      </trkpt>
      <trkpt lat="47.41541" lon="2.74855">
        <ele>225.8</ele>
        <time>2024-08-14T07:12:51Z</time>
      </trkpt>
      <trkpt lat="47.41536" lon="2.74856">
        <ele>226.2</ele>
        <time>2024-08-14T07:12:52Z</time>
      </trkpt>
      <trkpt lat="47.41532" lon="2.74857">
        <ele>226.4</ele>
        <time>2024-08-14T07:12:53Z</time>
      </trkpt>
      <trkpt lat="47.4152" lon="2.74861">
        <ele>227.4</ele>
        <time>2024-08-14T07:12:56Z</time>
      </trkpt>
      <trkpt lat="47.41507" lon="2.74866">
        <ele>228.4</ele>
        <time>2024-08-14T07:12:59Z</time>
      </trkpt>
      <trkpt lat="47.41486" lon="2.74874">
        <ele>229.8</ele>
        <time>2024-08-14T07:13:04Z</time>
      </trkpt>
      <trkpt lat="47.41481" lon="2.74876">
        <ele>230</ele>
        <time>2024-08-14T07:13:05Z</time>
      </trkpt>
      <trkpt lat="47.41469" lon="2.74882">
        <ele>230.6</ele>
        <time>2024-08-14T07:13:08Z</time>
      </trkpt>
      <trkpt lat="47.41464" lon="2.74883">
        <ele>230.8</ele>
        <time>2024-08-14T07:13:09Z</time>
      </trkpt>
      <trkpt lat="47.41458" lon="2.74886">
        <ele>231</ele>
        <time>2024-08-14T07:13:10Z</time>
      </trkpt>
      <trkpt lat="47.41449" lon="2.74889">
        <ele>231.4</ele>
        <time>2024-08-14T07:13:12Z</time>
      </trkpt>
      <trkpt lat="47.41446" lon="2.74891">
        <ele>231.8</ele>
        <time>2024-08-14T07:13:13Z</time>
      </trkpt>
      <trkpt lat="47.41422" lon="2.74899">
        <ele>233</ele>
        <time>2024-08-14T07:13:18Z</time>
      </trkpt>
      <trkpt lat="47.41405" lon="2.74905">
        <ele>233.4</ele>
        <time>2024-08-14T07:13:21Z</time>
      </trkpt>
      <trkpt lat="47.41389" lon="2.74908">
        <ele>233.6</ele>
        <time>2024-08-14T07:13:24Z</time>
      </trkpt>
      <trkpt lat="47.41373" lon="2.74912">
        <ele>233.6</ele>
        <time>2024-08-14T07:13:27Z</time>
      </trkpt>
      <trkpt lat="47.41357" lon="2.74918">
        <ele>233.6</ele>
        <time>2024-08-14T07:13:30Z</time>
      </trkpt>
      <trkpt lat="47.41353" lon="2.7492">
        <ele>233.6</ele>
        <time>2024-08-14T07:13:31Z</time>
      </trkpt>
      <trkpt lat="47.41328" lon="2.74929">
        <ele>233.4</ele>
        <time>2024-08-14T07:13:35Z</time>
      </trkpt>
      <trkpt lat="47.41317" lon="2.74935">
        <ele>233.2</ele>
        <time>2024-08-14T07:13:37Z</time>
      </trkpt>
      <trkpt lat="47.41296" lon="2.74944">
        <ele>233</ele>
        <time>2024-08-14T07:13:40Z</time>
      </trkpt>
      <trkpt lat="47.41259" lon="2.7496">
        <ele>232.4</ele>
        <time>2024-08-14T07:13:45Z</time>
      </trkpt>
      <trkpt lat="47.41224" lon="2.74969">
        <ele>232.2</ele>
        <time>2024-08-14T07:13:50Z</time>
      </trkpt>
      <trkpt lat="47.4119" lon="2.74977">
        <ele>233.2</ele>
        <time>2024-08-14T07:13:56Z</time>
      </trkpt>
      <trkpt lat="47.41165" lon="2.74986">
        <ele>234.2</ele>
        <time>2024-08-14T07:14:01Z</time>
      </trkpt>
      <trkpt lat="47.41151" lon="2.74991">
        <ele>234.8</ele>
        <time>2024-08-14T07:14:04Z</time>
      </trkpt>
      <trkpt lat="47.41142" lon="2.74994">
        <ele>235.4</ele>
        <time>2024-08-14T07:14:06Z</time>
      </trkpt>
      <trkpt lat="47.41124" lon="2.75001">
        <ele>236.4</ele>
        <time>2024-08-14T07:14:10Z</time>
      </trkpt>
      <trkpt lat="47.4112" lon="2.75004">
        <ele>236.6</ele>
        <time>2024-08-14T07:14:11Z</time>
      </trkpt>
      <trkpt lat="47.41115" lon="2.75007">
        <ele>236.8</ele>
        <time>2024-08-14T07:14:12Z</time>
      </trkpt>
      <trkpt lat="47.41092" lon="2.75027">
        <ele>237.4</ele>
        <time>2024-08-14T07:14:17Z</time>
      </trkpt>
      <trkpt lat="47.41082" lon="2.75036">
        <ele>237.6</ele>
        <time>2024-08-14T07:14:19Z</time>
      </trkpt>
      <trkpt lat="47.41047" lon="2.75071">
        <ele>237</ele>
        <time>2024-08-14T07:14:25Z</time>
      </trkpt>
      <trkpt lat="47.41014" lon="2.75103">
        <ele>236.4</ele>
        <time>2024-08-14T07:14:30Z</time>
      </trkpt>
      <trkpt lat="47.40995" lon="2.75121">
        <ele>235.8</ele>
        <time>2024-08-14T07:14:33Z</time>
      </trkpt>
      <trkpt lat="47.40982" lon="2.75132">
        <ele>235.6</ele>
        <time>2024-08-14T07:14:35Z</time>
      </trkpt>
      <trkpt lat="47.40961" lon="2.75142">
        <ele>235.4</ele>
        <time>2024-08-14T07:14:38Z</time>
      </trkpt>
      <trkpt lat="47.40914" lon="2.75156">
        <ele>235.6</ele>
        <time>2024-08-14T07:14:45Z</time>
      </trkpt>
      <trkpt lat="47.40863" lon="2.75169">
        <ele>236.8</ele>
        <time>2024-08-14T07:14:53Z</time>
      </trkpt>
      <trkpt lat="47.40807" lon="2.75181">
        <ele>237.4</ele>
        <time>2024-08-14T07:15:02Z</time>
      </trkpt>
      <trkpt lat="47.4076" lon="2.75192">
        <ele>238.4</ele>
        <time>2024-08-14T07:15:10Z</time>
      </trkpt>
      <trkpt lat="47.40726" lon="2.75201">
        <ele>239.4</ele>
        <time>2024-08-14T07:15:16Z</time>
      </trkpt>
      <trkpt lat="47.4072" lon="2.75202">
        <ele>239.4</ele>
        <time>2024-08-14T07:15:17Z</time>
      </trkpt>
      <trkpt lat="47.40715" lon="2.75204">
        <ele>239.4</ele>
        <time>2024-08-14T07:15:18Z</time>
      </trkpt>
      <trkpt lat="47.40684" lon="2.75214">
        <ele>240.6</ele>
        <time>2024-08-14T07:15:24Z</time>
      </trkpt>
      <trkpt lat="47.40679" lon="2.75216">
        <ele>240.8</ele>
        <time>2024-08-14T07:15:25Z</time>
      </trkpt>
      <trkpt lat="47.40653" lon="2.75225">
        <ele>241.6</ele>
        <time>2024-08-14T07:15:30Z</time>
      </trkpt>
      <trkpt lat="47.40643" lon="2.75229">
        <ele>242.2</ele>
        <time>2024-08-14T07:15:32Z</time>
      </trkpt>
      <trkpt lat="47.40622" lon="2.75238">
        <ele>242.8</ele>
        <time>2024-08-14T07:15:36Z</time>
      </trkpt>
      <trkpt lat="47.40606" lon="2.75247">
        <ele>243.2</ele>
        <time>2024-08-14T07:15:39Z</time>
      </trkpt>
      <trkpt lat="47.40576" lon="2.75267">
        <ele>243.2</ele>
        <time>2024-08-14T07:15:44Z</time>
      </trkpt>
      <trkpt lat="47.40531" lon="2.75295">
        <ele>241.8</ele>
        <time>2024-08-14T07:15:50Z</time>
      </trkpt>
      <trkpt lat="47.40506" lon="2.75312">
        <ele>240.6</ele>
        <time>2024-08-14T07:15:53Z</time>
      </trkpt>
      <trkpt lat="47.40472" lon="2.75341">
        <ele>239.6</ele>
        <time>2024-08-14T07:15:57Z</time>
      </trkpt>
      <trkpt lat="47.40456" lon="2.75358">
        <ele>238.8</ele>
        <time>2024-08-14T07:15:59Z</time>
      </trkpt>
      <trkpt lat="47.40448" lon="2.75367">
        <ele>238</ele>
        <time>2024-08-14T07:16:00Z</time>
      </trkpt>
      <trkpt lat="47.4044" lon="2.75376">
        <ele>237.4</ele>
        <time>2024-08-14T07:16:01Z</time>
      </trkpt>
      <trkpt lat="47.40432" lon="2.75386">
        <ele>236.8</ele>
        <time>2024-08-14T07:16:02Z</time>
      </trkpt>
      <trkpt lat="47.40419" lon="2.75409">
        <ele>235.8</ele>
        <time>2024-08-14T07:16:04Z</time>
      </trkpt>
      <trkpt lat="47.40413" lon="2.75422">
        <ele>234.8</ele>
        <time>2024-08-14T07:16:05Z</time>
      </trkpt>
      <trkpt lat="47.40401" lon="2.75446">
        <ele>233.6</ele>
        <time>2024-08-14T07:16:07Z</time>
      </trkpt>
      <trkpt lat="47.40378" lon="2.75492">
        <ele>232.2</ele>
        <time>2024-08-14T07:16:11Z</time>
      </trkpt>
      <trkpt lat="47.40365" lon="2.75512">
        <ele>231.2</ele>
        <time>2024-08-14T07:16:13Z</time>
      </trkpt>
      <trkpt lat="47.40351" lon="2.7553">
        <ele>230.2</ele>
        <time>2024-08-14T07:16:15Z</time>
      </trkpt>
      <trkpt lat="47.40343" lon="2.75537">
        <ele>229.4</ele>
        <time>2024-08-14T07:16:16Z</time>
      </trkpt>
      <trkpt lat="47.40335" lon="2.75544">
        <ele>228.4</ele>
        <time>2024-08-14T07:16:17Z</time>
      </trkpt>
      <trkpt lat="47.40326" lon="2.75549">
        <ele>227.8</ele>
        <time>2024-08-14T07:16:18Z</time>
      </trkpt>
      <trkpt lat="47.40318" lon="2.75553">
        <ele>227.2</ele>
        <time>2024-08-14T07:16:19Z</time>
      </trkpt>
      <trkpt lat="47.40299" lon="2.75562">
        <ele>225.8</ele>
        <time>2024-08-14T07:16:21Z</time>
      </trkpt>
      <trkpt lat="47.40281" lon="2.75571">
        <ele>224.6</ele>
        <time>2024-08-14T07:16:23Z</time>
      </trkpt>
      <trkpt lat="47.40265" lon="2.75578">
        <ele>223.4</ele>
        <time>2024-08-14T07:16:25Z</time>
      </trkpt>
      <trkpt lat="47.40253" lon="2.75583">
        <ele>222.4</ele>
        <time>2024-08-14T07:16:27Z</time>
      </trkpt>
      <trkpt lat="47.40249" lon="2.7558">
        <ele>221.8</ele>
        <time>2024-08-14T07:16:28Z</time>
      </trkpt>
      <trkpt lat="47.40243" lon="2.75567">
        <ele>220.8</ele>
        <time>2024-08-14T07:16:30Z</time>
      </trkpt>
      <trkpt lat="47.40242" lon="2.75559">
        <ele>220.2</ele>
        <time>2024-08-14T07:16:31Z</time>
      </trkpt>
      <trkpt lat="47.40242" lon="2.75542">
        <ele>219.8</ele>
        <time>2024-08-14T07:16:33Z</time>
      </trkpt>
      <trkpt lat="47.40241" lon="2.75505">
        <ele>219.6</ele>
        <time>2024-08-14T07:16:37Z</time>
      </trkpt>
      <trkpt lat="47.40242" lon="2.75494">
        <ele>219.6</ele>
        <time>2024-08-14T07:16:38Z</time>
      </trkpt>
      <trkpt lat="47.40246" lon="2.75478">
        <ele>219.8</ele>
        <time>2024-08-14T07:16:40Z</time>
      </trkpt>
      <trkpt lat="47.40251" lon="2.7545">
        <ele>220</ele>
        <time>2024-08-14T07:16:43Z</time>
      </trkpt>
      <trkpt lat="47.40251" lon="2.75424">
        <ele>220</ele>
        <time>2024-08-14T07:16:46Z</time>
      </trkpt>
      <trkpt lat="47.40249" lon="2.75404">
        <ele>220</ele>
        <time>2024-08-14T07:16:48Z</time>
      </trkpt>
      <trkpt lat="47.40239" lon="2.75343">
        <ele>220</ele>
        <time>2024-08-14T07:16:54Z</time>
      </trkpt>
      <trkpt lat="47.40229" lon="2.75331">
        <ele>219.8</ele>
        <time>2024-08-14T07:16:56Z</time>
      </trkpt>
      <trkpt lat="47.40223" lon="2.75331">
        <ele>219.4</ele>
        <time>2024-08-14T07:16:57Z</time>
      </trkpt>
      <trkpt lat="47.40217" lon="2.75333">
        <ele>219.4</ele>
        <time>2024-08-14T07:16:58Z</time>
      </trkpt>
      <trkpt lat="47.40189" lon="2.75342">
        <ele>219</ele>
        <time>2024-08-14T07:17:02Z</time>
      </trkpt>
      <trkpt lat="47.40167" lon="2.75344">
        <ele>218.8</ele>
        <time>2024-08-14T07:17:05Z</time>
      </trkpt>
      <trkpt lat="47.40161" lon="2.75343">
        <ele>218.6</ele>
        <time>2024-08-14T07:17:06Z</time>
      </trkpt>
      <trkpt lat="47.40154" lon="2.75342">
        <ele>218.4</ele>
        <time>2024-08-14T07:17:07Z</time>
      </trkpt>
      <trkpt lat="47.40099" lon="2.75326">
        <ele>218.2</ele>
        <time>2024-08-14T07:17:15Z</time>
      </trkpt>
      <trkpt lat="47.40092" lon="2.75323">
        <ele>218.2</ele>
        <time>2024-08-14T07:17:16Z</time>
      </trkpt>
      <trkpt lat="47.40072" lon="2.75315">
        <ele>218.2</ele>
        <time>2024-08-14T07:17:19Z</time>
      </trkpt>
      <trkpt lat="47.40058" lon="2.75318">
        <ele>218.2</ele>
        <time>2024-08-14T07:17:21Z</time>
      </trkpt>
      <trkpt lat="47.40048" lon="2.75331">
        <ele>218.2</ele>
        <time>2024-08-14T07:17:23Z</time>
      </trkpt>
      <trkpt lat="47.40045" lon="2.75339">
        <ele>218.2</ele>
        <time>2024-08-14T07:17:24Z</time>
      </trkpt>
      <trkpt lat="47.40042" lon="2.75348">
        <ele>218.2</ele>
        <time>2024-08-14T07:17:25Z</time>
      </trkpt>
      <trkpt lat="47.40032" lon="2.75381">
        <ele>218.2</ele>
        <time>2024-08-14T07:17:29Z</time>
      </trkpt>
      <trkpt lat="47.40025" lon="2.75404">
        <ele>218.8</ele>
        <time>2024-08-14T07:17:32Z</time>
      </trkpt>
      <trkpt lat="47.40019" lon="2.75417">
        <ele>219</ele>
        <time>2024-08-14T07:17:34Z</time>
      </trkpt>
      <trkpt lat="47.40012" lon="2.75428">
        <ele>219.2</ele>
        <time>2024-08-14T07:17:36Z</time>
      </trkpt>
      <trkpt lat="47.40003" lon="2.75437">
        <ele>219.6</ele>
        <time>2024-08-14T07:17:38Z</time>
      </trkpt>
      <trkpt lat="47.39999" lon="2.7544">
        <ele>219.8</ele>
        <time>2024-08-14T07:17:39Z</time>
      </trkpt>
      <trkpt lat="47.39986" lon="2.75447">
        <ele>220.2</ele>
        <time>2024-08-14T07:17:42Z</time>
      </trkpt>
      <trkpt lat="47.39978" lon="2.75451">
        <ele>221</ele>
        <time>2024-08-14T07:17:44Z</time>
      </trkpt>
      <trkpt lat="47.39973" lon="2.75453">
        <ele>221.2</ele>
        <time>2024-08-14T07:17:45Z</time>
      </trkpt>
      <trkpt lat="47.39964" lon="2.75454">
        <ele>221.8</ele>
        <time>2024-08-14T07:17:47Z</time>
      </trkpt>
      <trkpt lat="47.3996" lon="2.75455">
        <ele>222</ele>
        <time>2024-08-14T07:17:48Z</time>
      </trkpt>
      <trkpt lat="47.39955" lon="2.75455">
        <ele>222.2</ele>
        <time>2024-08-14T07:17:49Z</time>
      </trkpt>
      <trkpt lat="47.39947" lon="2.75456">
        <ele>222.4</ele>
        <time>2024-08-14T07:17:51Z</time>
      </trkpt>
      <trkpt lat="47.39943" lon="2.75456">
        <ele>222.8</ele>
        <time>2024-08-14T07:17:52Z</time>
      </trkpt>
      <trkpt lat="47.39938" lon="2.75456">
        <ele>223</ele>
        <time>2024-08-14T07:17:53Z</time>
      </trkpt>
      <trkpt lat="47.3992" lon="2.75456">
        <ele>223.8</ele>
        <time>2024-08-14T07:17:57Z</time>
      </trkpt>
      <trkpt lat="47.3991" lon="2.75456">
        <ele>224.2</ele>
        <time>2024-08-14T07:17:59Z</time>
      </trkpt>
      <trkpt lat="47.3989" lon="2.75454">
        <ele>225.6</ele>
        <time>2024-08-14T07:18:03Z</time>
      </trkpt>
      <trkpt lat="47.39885" lon="2.75454">
        <ele>225.8</ele>
        <time>2024-08-14T07:18:04Z</time>
      </trkpt>
      <trkpt lat="47.39864" lon="2.75452">
        <ele>226.6</ele>
        <time>2024-08-14T07:18:08Z</time>
      </trkpt>
      <trkpt lat="47.39843" lon="2.7545">
        <ele>227.4</ele>
        <time>2024-08-14T07:18:12Z</time>
      </trkpt>
      <trkpt lat="47.39832" lon="2.75449">
        <ele>227.6</ele>
        <time>2024-08-14T07:18:14Z</time>
      </trkpt>
      <trkpt lat="47.39799" lon="2.75449">
        <ele>228</ele>
        <time>2024-08-14T07:18:20Z</time>
      </trkpt>
      <trkpt lat="47.39781" lon="2.75453">
        <ele>227.8</ele>
        <time>2024-08-14T07:18:23Z</time>
      </trkpt>
      <trkpt lat="47.39769" lon="2.75455">
        <ele>227.8</ele>
        <time>2024-08-14T07:18:25Z</time>
      </trkpt>
      <trkpt lat="47.39726" lon="2.75466">
        <ele>227.2</ele>
        <time>2024-08-14T07:18:32Z</time>
      </trkpt>
      <trkpt lat="47.39669" lon="2.75491">
        <ele>226.6</ele>
        <time>2024-08-14T07:18:41Z</time>
      </trkpt>
      <trkpt lat="47.39625" lon="2.75518">
        <ele>226.4</ele>
        <time>2024-08-14T07:18:48Z</time>
      </trkpt>
      <trkpt lat="47.39619" lon="2.75522">
        <ele>226.2</ele>
        <time>2024-08-14T07:18:49Z</time>
      </trkpt>
      <trkpt lat="47.39565" lon="2.75553">
        <ele>226</ele>
        <time>2024-08-14T07:18:57Z</time>
      </trkpt>
      <trkpt lat="47.39513" lon="2.7558">
        <ele>225.6</ele>
        <time>2024-08-14T07:19:04Z</time>
      </trkpt>
      <trkpt lat="47.39505" lon="2.75583">
        <ele>225.6</ele>
        <time>2024-08-14T07:19:05Z</time>
      </trkpt>
      <trkpt lat="47.39483" lon="2.75594">
        <ele>225.4</ele>
        <time>2024-08-14T07:19:08Z</time>
      </trkpt>
      <trkpt lat="47.39453" lon="2.75608">
        <ele>224.8</ele>
        <time>2024-08-14T07:19:12Z</time>
      </trkpt>
      <trkpt lat="47.39402" lon="2.75631">
        <ele>224.6</ele>
        <time>2024-08-14T07:19:19Z</time>
      </trkpt>
      <trkpt lat="47.39344" lon="2.7565">
        <ele>224.6</ele>
        <time>2024-08-14T07:19:27Z</time>
      </trkpt>
      <trkpt lat="47.39337" lon="2.75652">
        <ele>224.8</ele>
        <time>2024-08-14T07:19:28Z</time>
      </trkpt>
      <trkpt lat="47.39288" lon="2.75661">
        <ele>225</ele>
        <time>2024-08-14T07:19:35Z</time>
      </trkpt>
      <trkpt lat="47.3926" lon="2.75662">
        <ele>225.6</ele>
        <time>2024-08-14T07:19:39Z</time>
      </trkpt>
      <trkpt lat="47.39247" lon="2.75664">
        <ele>225.8</ele>
        <time>2024-08-14T07:19:41Z</time>
      </trkpt>
      <trkpt lat="47.39205" lon="2.75667">
        <ele>226.4</ele>
        <time>2024-08-14T07:19:48Z</time>
      </trkpt>
      <trkpt lat="47.39199" lon="2.75667">
        <ele>226.4</ele>
        <time>2024-08-14T07:19:49Z</time>
      </trkpt>
      <trkpt lat="47.39157" lon="2.75671">
        <ele>227.4</ele>
        <time>2024-08-14T07:19:56Z</time>
      </trkpt>
      <trkpt lat="47.39146" lon="2.75673">
        <ele>227.8</ele>
        <time>2024-08-14T07:19:58Z</time>
      </trkpt>
      <trkpt lat="47.39122" lon="2.75675">
        <ele>228.6</ele>
        <time>2024-08-14T07:20:02Z</time>
      </trkpt>
      <trkpt lat="47.39092" lon="2.75679">
        <ele>229.4</ele>
        <time>2024-08-14T07:20:07Z</time>
      </trkpt>
      <trkpt lat="47.39075" lon="2.7568">
        <ele>229.6</ele>
        <time>2024-08-14T07:20:10Z</time>
      </trkpt>
      <trkpt lat="47.3904" lon="2.75682">
        <ele>230.2</ele>
        <time>2024-08-14T07:20:16Z</time>
      </trkpt>
      <trkpt lat="47.38991" lon="2.75676">
        <ele>230.4</ele>
        <time>2024-08-14T07:20:24Z</time>
      </trkpt>
      <trkpt lat="47.38953" lon="2.75665">
        <ele>230.6</ele>
        <time>2024-08-14T07:20:30Z</time>
      </trkpt>
      <trkpt lat="47.38921" lon="2.75654">
        <ele>230.8</ele>
        <time>2024-08-14T07:20:35Z</time>
      </trkpt>
      <trkpt lat="47.38902" lon="2.75648">
        <ele>230.8</ele>
        <time>2024-08-14T07:20:38Z</time>
      </trkpt>
      <trkpt lat="47.38851" lon="2.75632">
        <ele>231</ele>
        <time>2024-08-14T07:20:46Z</time>
      </trkpt>
      <trkpt lat="47.38797" lon="2.75614">
        <ele>231.4</ele>
        <time>2024-08-14T07:20:54Z</time>
      </trkpt>
      <trkpt lat="47.3879" lon="2.75612">
        <ele>231.4</ele>
        <time>2024-08-14T07:20:55Z</time>
      </trkpt>
      <trkpt lat="47.38737" lon="2.7559">
        <ele>231.6</ele>
        <time>2024-08-14T07:21:03Z</time>
      </trkpt>
      <trkpt lat="47.38719" lon="2.7558">
        <ele>231.6</ele>
        <time>2024-08-14T07:21:06Z</time>
      </trkpt>
      <trkpt lat="47.38689" lon="2.75563">
        <ele>231.6</ele>
        <time>2024-08-14T07:21:11Z</time>
      </trkpt>
      <trkpt lat="47.38676" lon="2.75557">
        <ele>231.8</ele>
        <time>2024-08-14T07:21:13Z</time>
      </trkpt>
      <trkpt lat="47.38629" lon="2.7553">
        <ele>232.6</ele>
        <time>2024-08-14T07:21:21Z</time>
      </trkpt>
      <trkpt lat="47.38623" lon="2.75527">
        <ele>232.6</ele>
        <time>2024-08-14T07:21:22Z</time>
      </trkpt>
      <trkpt lat="47.38585" lon="2.75502">
        <ele>233.4</ele>
        <time>2024-08-14T07:21:29Z</time>
      </trkpt>
      <trkpt lat="47.38579" lon="2.75498">
        <ele>233.6</ele>
        <time>2024-08-14T07:21:30Z</time>
      </trkpt>
      <trkpt lat="47.38549" lon="2.75471">
        <ele>234.4</ele>
        <time>2024-08-14T07:21:36Z</time>
      </trkpt>
      <trkpt lat="47.38539" lon="2.75461">
        <ele>234.8</ele>
        <time>2024-08-14T07:21:38Z</time>
      </trkpt>
      <trkpt lat="47.38521" lon="2.75445">
        <ele>235.8</ele>
        <time>2024-08-14T07:21:42Z</time>
      </trkpt>
      <trkpt lat="47.38518" lon="2.75442">
        <ele>235.8</ele>
        <time>2024-08-14T07:21:43Z</time>
      </trkpt>
      <trkpt lat="47.38495" lon="2.75414">
        <ele>236.8</ele>
        <time>2024-08-14T07:21:49Z</time>
      </trkpt>
      <trkpt lat="47.38491" lon="2.75409">
        <ele>237</ele>
        <time>2024-08-14T07:21:50Z</time>
      </trkpt>
      <trkpt lat="47.38481" lon="2.75396">
        <ele>237.6</ele>
        <time>2024-08-14T07:21:53Z</time>
      </trkpt>
      <trkpt lat="47.38478" lon="2.75392">
        <ele>238</ele>
        <time>2024-08-14T07:21:54Z</time>
      </trkpt>
      <trkpt lat="47.38462" lon="2.75378">
        <ele>238.8</ele>
        <time>2024-08-14T07:21:58Z</time>
      </trkpt>
      <trkpt lat="47.38454" lon="2.75372">
        <ele>239.2</ele>
        <time>2024-08-14T07:22:00Z</time>
      </trkpt>
      <trkpt lat="47.38449" lon="2.75369">
        <ele>239.6</ele>
        <time>2024-08-14T07:22:01Z</time>
      </trkpt>
      <trkpt lat="47.38437" lon="2.7536">
        <ele>240.2</ele>
        <time>2024-08-14T07:22:04Z</time>
      </trkpt>
      <trkpt lat="47.3842" lon="2.75347">
        <ele>241.2</ele>
        <time>2024-08-14T07:22:08Z</time>
      </trkpt>
      <trkpt lat="47.38414" lon="2.75345">
        <ele>241.2</ele>
        <time>2024-08-14T07:22:09Z</time>
      </trkpt>
      <trkpt lat="47.38385" lon="2.75336">
        <ele>241.8</ele>
        <time>2024-08-14T07:22:14Z</time>
      </trkpt>
      <trkpt lat="47.38373" lon="2.75333">
        <ele>242</ele>
        <time>2024-08-14T07:22:16Z</time>
      </trkpt>
      <trkpt lat="47.38349" lon="2.75333">
        <ele>242.2</ele>
        <time>2024-08-14T07:22:20Z</time>
      </trkpt>
      <trkpt lat="47.38337" lon="2.75333">
        <ele>242.4</ele>
        <time>2024-08-14T07:22:22Z</time>
      </trkpt>
      <trkpt lat="47.38332" lon="2.75334">
        <ele>242.4</ele>
        <time>2024-08-14T07:22:23Z</time>
      </trkpt>
      <trkpt lat="47.38327" lon="2.75335">
        <ele>242.4</ele>
        <time>2024-08-14T07:22:24Z</time>
      </trkpt>
      <trkpt lat="47.38315" lon="2.75336">
        <ele>242.6</ele>
        <time>2024-08-14T07:22:26Z</time>
      </trkpt>
      <trkpt lat="47.38277" lon="2.75338">
        <ele>242.8</ele>
        <time>2024-08-14T07:22:32Z</time>
      </trkpt>
      <trkpt lat="47.38271" lon="2.75337">
        <ele>242.8</ele>
        <time>2024-08-14T07:22:33Z</time>
      </trkpt>
      <trkpt lat="47.3824" lon="2.7533">
        <ele>243.2</ele>
        <time>2024-08-14T07:22:38Z</time>
      </trkpt>
      <trkpt lat="47.38234" lon="2.75327">
        <ele>243.2</ele>
        <time>2024-08-14T07:22:39Z</time>
      </trkpt>
      <trkpt lat="47.38203" lon="2.75307">
        <ele>243.4</ele>
        <time>2024-08-14T07:22:45Z</time>
      </trkpt>
      <trkpt lat="47.38168" lon="2.75279">
        <ele>244.2</ele>
        <time>2024-08-14T07:22:52Z</time>
      </trkpt>
      <trkpt lat="47.38157" lon="2.75271">
        <ele>244.2</ele>
        <time>2024-08-14T07:22:54Z</time>
      </trkpt>
      <trkpt lat="47.38126" lon="2.75248">
        <ele>245</ele>
        <time>2024-08-14T07:23:00Z</time>
      </trkpt>
      <trkpt lat="47.38116" lon="2.75242">
        <ele>245.2</ele>
        <time>2024-08-14T07:23:02Z</time>
      </trkpt>
      <trkpt lat="47.38094" lon="2.75235">
        <ele>245.4</ele>
        <time>2024-08-14T07:23:06Z</time>
      </trkpt>
      <trkpt lat="47.38069" lon="2.75228">
        <ele>246.2</ele>
        <time>2024-08-14T07:23:11Z</time>
      </trkpt>
      <trkpt lat="47.38064" lon="2.75227">
        <ele>246.6</ele>
        <time>2024-08-14T07:23:12Z</time>
      </trkpt>
      <trkpt lat="47.38037" lon="2.75223">
        <ele>247.4</ele>
        <time>2024-08-14T07:23:17Z</time>
      </trkpt>
      <trkpt lat="47.38031" lon="2.75222">
        <ele>247.6</ele>
        <time>2024-08-14T07:23:18Z</time>
      </trkpt>
      <trkpt lat="47.38005" lon="2.75218">
        <ele>248.6</ele>
        <time>2024-08-14T07:23:23Z</time>
      </trkpt>
      <trkpt lat="47.3799" lon="2.75216">
        <ele>249.4</ele>
        <time>2024-08-14T07:23:26Z</time>
      </trkpt>
      <trkpt lat="47.3798" lon="2.75215">
        <ele>249.8</ele>
        <time>2024-08-14T07:23:28Z</time>
      </trkpt>
      <trkpt lat="47.37958" lon="2.75209">
        <ele>250.8</ele>
        <time>2024-08-14T07:23:32Z</time>
      </trkpt>
      <trkpt lat="47.37912" lon="2.75199">
        <ele>251.2</ele>
        <time>2024-08-14T07:23:40Z</time>
      </trkpt>
      <trkpt lat="47.37862" lon="2.75189">
        <ele>251</ele>
        <time>2024-08-14T07:23:47Z</time>
      </trkpt>
      <trkpt lat="47.3782" lon="2.7518">
        <ele>249.4</ele>
        <time>2024-08-14T07:23:52Z</time>
      </trkpt>
      <trkpt lat="47.37811" lon="2.75178">
        <ele>249.4</ele>
        <time>2024-08-14T07:23:53Z</time>
      </trkpt>
      <trkpt lat="47.37794" lon="2.75174">
        <ele>248.4</ele>
        <time>2024-08-14T07:23:55Z</time>
      </trkpt>
      <trkpt lat="47.3775" lon="2.75164">
        <ele>247.4</ele>
        <time>2024-08-14T07:24:00Z</time>
      </trkpt>
      <trkpt lat="47.37742" lon="2.75163">
        <ele>247</ele>
        <time>2024-08-14T07:24:01Z</time>
      </trkpt>
      <trkpt lat="47.37709" lon="2.75165">
        <ele>246.6</ele>
        <time>2024-08-14T07:24:05Z</time>
      </trkpt>
      <trkpt lat="47.37701" lon="2.75168">
        <ele>246.6</ele>
        <time>2024-08-14T07:24:06Z</time>
      </trkpt>
      <trkpt lat="47.37689" lon="2.75176">
        <ele>246.4</ele>
        <time>2024-08-14T07:24:08Z</time>
      </trkpt>
      <trkpt lat="47.37682" lon="2.75183">
        <ele>246.6</ele>
        <time>2024-08-14T07:24:09Z</time>
      </trkpt>
      <trkpt lat="47.37655" lon="2.75218">
        <ele>246.6</ele>
        <time>2024-08-14T07:24:14Z</time>
      </trkpt>
      <trkpt lat="47.37617" lon="2.7527">
        <ele>247.4</ele>
        <time>2024-08-14T07:24:22Z</time>
      </trkpt>
      <trkpt lat="47.37583" lon="2.75319">
        <ele>248</ele>
        <time>2024-08-14T07:24:29Z</time>
      </trkpt>
      <trkpt lat="47.3754" lon="2.75376">
        <ele>247.6</ele>
        <time>2024-08-14T07:24:37Z</time>
      </trkpt>
      <trkpt lat="47.37498" lon="2.75436">
        <ele>246.8</ele>
        <time>2024-08-14T07:24:45Z</time>
      </trkpt>
      <trkpt lat="47.37462" lon="2.7548">
        <ele>246.2</ele>
        <time>2024-08-14T07:24:51Z</time>
      </trkpt>
      <trkpt lat="47.37449" lon="2.7549">
        <ele>246.2</ele>
        <time>2024-08-14T07:24:53Z</time>
      </trkpt>
      <trkpt lat="47.374" lon="2.75519">
        <ele>245.8</ele>
        <time>2024-08-14T07:25:00Z</time>
      </trkpt>
      <trkpt lat="47.37345" lon="2.75549">
        <ele>245.2</ele>
        <time>2024-08-14T07:25:08Z</time>
      </trkpt>
      <trkpt lat="47.37338" lon="2.75553">
        <ele>245.2</ele>
        <time>2024-08-14T07:25:09Z</time>
      </trkpt>
      <trkpt lat="47.3729" lon="2.7558">
        <ele>244.8</ele>
        <time>2024-08-14T07:25:16Z</time>
      </trkpt>
      <trkpt lat="47.37261" lon="2.75604">
        <ele>245</ele>
        <time>2024-08-14T07:25:21Z</time>
      </trkpt>
      <trkpt lat="47.3723" lon="2.75634">
        <ele>245.6</ele>
        <time>2024-08-14T07:25:27Z</time>
      </trkpt>
      <trkpt lat="47.37206" lon="2.7566">
        <ele>246.2</ele>
        <time>2024-08-14T07:25:32Z</time>
      </trkpt>
      <trkpt lat="47.37192" lon="2.75676">
        <ele>247</ele>
        <time>2024-08-14T07:25:35Z</time>
      </trkpt>
      <trkpt lat="47.37187" lon="2.75681">
        <ele>247.2</ele>
        <time>2024-08-14T07:25:36Z</time>
      </trkpt>
      <trkpt lat="47.37153" lon="2.75712">
        <ele>248</ele>
        <time>2024-08-14T07:25:43Z</time>
      </trkpt>
      <trkpt lat="47.37148" lon="2.75715">
        <ele>248</ele>
        <time>2024-08-14T07:25:44Z</time>
      </trkpt>
      <trkpt lat="47.3713" lon="2.75731">
        <ele>248.4</ele>
        <time>2024-08-14T07:25:48Z</time>
      </trkpt>
      <trkpt lat="47.3712" lon="2.7574">
        <ele>248.6</ele>
        <time>2024-08-14T07:25:50Z</time>
      </trkpt>
      <trkpt lat="47.37106" lon="2.75754">
        <ele>249.4</ele>
        <time>2024-08-14T07:25:53Z</time>
      </trkpt>
      <trkpt lat="47.37092" lon="2.75768">
        <ele>249.6</ele>
        <time>2024-08-14T07:25:56Z</time>
      </trkpt>
      <trkpt lat="47.37082" lon="2.75777">
        <ele>249.6</ele>
        <time>2024-08-14T07:25:58Z</time>
      </trkpt>
      <trkpt lat="47.37057" lon="2.758">
        <ele>250</ele>
        <time>2024-08-14T07:26:03Z</time>
      </trkpt>
      <trkpt lat="47.37047" lon="2.75806">
        <ele>250</ele>
        <time>2024-08-14T07:26:05Z</time>
      </trkpt>
      <trkpt lat="47.37026" lon="2.75821">
        <ele>250.2</ele>
        <time>2024-08-14T07:26:09Z</time>
      </trkpt>
      <trkpt lat="47.37021" lon="2.75825">
        <ele>250.2</ele>
        <time>2024-08-14T07:26:10Z</time>
      </trkpt>
      <trkpt lat="47.37006" lon="2.75839">
        <ele>250.4</ele>
        <time>2024-08-14T07:26:13Z</time>
      </trkpt>
      <trkpt lat="47.36993" lon="2.75855">
        <ele>250.6</ele>
        <time>2024-08-14T07:26:16Z</time>
      </trkpt>
      <trkpt lat="47.36982" lon="2.75877">
        <ele>250.8</ele>
        <time>2024-08-14T07:26:19Z</time>
      </trkpt>
      <trkpt lat="47.36975" lon="2.75892">
        <ele>251</ele>
        <time>2024-08-14T07:26:21Z</time>
      </trkpt>
      <trkpt lat="47.36962" lon="2.75933">
        <ele>251.6</ele>
        <time>2024-08-14T07:26:26Z</time>
      </trkpt>
      <trkpt lat="47.36956" lon="2.7595">
        <ele>251.6</ele>
        <time>2024-08-14T07:26:28Z</time>
      </trkpt>
      <trkpt lat="47.36939" lon="2.76001">
        <ele>252</ele>
        <time>2024-08-14T07:26:34Z</time>
      </trkpt>
      <trkpt lat="47.36914" lon="2.76048">
        <ele>252.4</ele>
        <time>2024-08-14T07:26:40Z</time>
      </trkpt>
      <trkpt lat="47.36905" lon="2.76063">
        <ele>252.6</ele>
        <time>2024-08-14T07:26:42Z</time>
      </trkpt>
      <trkpt lat="47.36878" lon="2.76105">
        <ele>253.2</ele>
        <time>2024-08-14T07:26:48Z</time>
      </trkpt>
      <trkpt lat="47.36852" lon="2.76144">
        <ele>253.2</ele>
        <time>2024-08-14T07:26:54Z</time>
      </trkpt>
      <trkpt lat="47.36829" lon="2.76175">
        <ele>253.6</ele>
        <time>2024-08-14T07:26:59Z</time>
      </trkpt>
      <trkpt lat="47.36814" lon="2.76192">
        <ele>254</ele>
        <time>2024-08-14T07:27:02Z</time>
      </trkpt>
      <trkpt lat="47.36785" lon="2.76228">
        <ele>254.8</ele>
        <time>2024-08-14T07:27:08Z</time>
      </trkpt>
      <trkpt lat="47.3678" lon="2.76235">
        <ele>254.6</ele>
        <time>2024-08-14T07:27:09Z</time>
      </trkpt>
      <trkpt lat="47.36737" lon="2.7629">
        <ele>255.4</ele>
        <time>2024-08-14T07:27:18Z</time>
      </trkpt>
      <trkpt lat="47.36727" lon="2.76303">
        <ele>255.6</ele>
        <time>2024-08-14T07:27:20Z</time>
      </trkpt>
      <trkpt lat="47.36693" lon="2.76344">
        <ele>256.6</ele>
        <time>2024-08-14T07:27:27Z</time>
      </trkpt>
      <trkpt lat="47.36683" lon="2.76353">
        <ele>256.8</ele>
        <time>2024-08-14T07:27:29Z</time>
      </trkpt>
      <trkpt lat="47.36672" lon="2.76361">
        <ele>257.2</ele>
        <time>2024-08-14T07:27:31Z</time>
      </trkpt>
      <trkpt lat="47.36654" lon="2.76367">
        <ele>257.4</ele>
        <time>2024-08-14T07:27:34Z</time>
      </trkpt>
      <trkpt lat="47.36626" lon="2.76374">
        <ele>257.6</ele>
        <time>2024-08-14T07:27:39Z</time>
      </trkpt>
      <trkpt lat="47.36603" lon="2.76377">
        <ele>257.8</ele>
        <time>2024-08-14T07:27:43Z</time>
      </trkpt>
      <trkpt lat="47.36559" lon="2.76387">
        <ele>258.8</ele>
        <time>2024-08-14T07:27:51Z</time>
      </trkpt>
      <trkpt lat="47.36526" lon="2.76394">
        <ele>259.8</ele>
        <time>2024-08-14T07:27:57Z</time>
      </trkpt>
      <trkpt lat="47.3651" lon="2.76397">
        <ele>260.6</ele>
        <time>2024-08-14T07:28:00Z</time>
      </trkpt>
      <trkpt lat="47.365" lon="2.76399">
        <ele>261</ele>
        <time>2024-08-14T07:28:02Z</time>
      </trkpt>
      <trkpt lat="47.36464" lon="2.76403">
        <ele>262</ele>
        <time>2024-08-14T07:28:09Z</time>
      </trkpt>
      <trkpt lat="47.36459" lon="2.76403">
        <ele>262.2</ele>
        <time>2024-08-14T07:28:10Z</time>
      </trkpt>
      <trkpt lat="47.3643" lon="2.76396">
        <ele>263.2</ele>
        <time>2024-08-14T07:28:16Z</time>
      </trkpt>
      <trkpt lat="47.36425" lon="2.76394">
        <ele>263.4</ele>
        <time>2024-08-14T07:28:17Z</time>
      </trkpt>
      <trkpt lat="47.36406" lon="2.76388">
        <ele>264.4</ele>
        <time>2024-08-14T07:28:21Z</time>
      </trkpt>
      <trkpt lat="47.36383" lon="2.7638">
        <ele>265.2</ele>
        <time>2024-08-14T07:28:26Z</time>
      </trkpt>
      <trkpt lat="47.36378" lon="2.76378">
        <ele>265.4</ele>
        <time>2024-08-14T07:28:27Z</time>
      </trkpt>
      <trkpt lat="47.36351" lon="2.76368">
        <ele>266.4</ele>
        <time>2024-08-14T07:28:33Z</time>
      </trkpt>
      <trkpt lat="47.36339" lon="2.76363">
        <ele>266.8</ele>
        <time>2024-08-14T07:28:36Z</time>
      </trkpt>
      <trkpt lat="47.3633" lon="2.7636">
        <ele>267.4</ele>
        <time>2024-08-14T07:28:38Z</time>
      </trkpt>
      <trkpt lat="47.36305" lon="2.76349">
        <ele>268.4</ele>
        <time>2024-08-14T07:28:44Z</time>
      </trkpt>
      <trkpt lat="47.363" lon="2.76347">
        <ele>268.8</ele>
        <time>2024-08-14T07:28:45Z</time>
      </trkpt>
      <trkpt lat="47.36277" lon="2.76339">
        <ele>269.6</ele>
        <time>2024-08-14T07:28:50Z</time>
      </trkpt>
      <trkpt lat="47.36268" lon="2.76336">
        <ele>269.8</ele>
        <time>2024-08-14T07:28:52Z</time>
      </trkpt>
      <trkpt lat="47.36243" lon="2.76328">
        <ele>270.8</ele>
        <time>2024-08-14T07:28:57Z</time>
      </trkpt>
      <trkpt lat="47.36224" lon="2.76324">
        <ele>271.4</ele>
        <time>2024-08-14T07:29:01Z</time>
      </trkpt>
      <trkpt lat="47.36209" lon="2.76325">
        <ele>272</ele>
        <time>2024-08-14T07:29:04Z</time>
      </trkpt>
      <trkpt lat="47.36194" lon="2.76329">
        <ele>272.2</ele>
        <time>2024-08-14T07:29:07Z</time>
      </trkpt>
      <trkpt lat="47.36185" lon="2.76333">
        <ele>272.4</ele>
        <time>2024-08-14T07:29:09Z</time>
      </trkpt>
      <trkpt lat="47.36167" lon="2.76345">
        <ele>273</ele>
        <time>2024-08-14T07:29:13Z</time>
      </trkpt>
      <trkpt lat="47.36162" lon="2.76348">
        <ele>273</ele>
        <time>2024-08-14T07:29:14Z</time>
      </trkpt>
      <trkpt lat="47.36132" lon="2.76374">
        <ele>273.6</ele>
        <time>2024-08-14T07:29:21Z</time>
      </trkpt>
      <trkpt lat="47.36127" lon="2.76377">
        <ele>274</ele>
        <time>2024-08-14T07:29:22Z</time>
      </trkpt>
      <trkpt lat="47.3611" lon="2.76389">
        <ele>274.6</ele>
        <time>2024-08-14T07:29:26Z</time>
      </trkpt>
      <trkpt lat="47.36106" lon="2.76392">
        <ele>274.8</ele>
        <time>2024-08-14T07:29:27Z</time>
      </trkpt>
      <trkpt lat="47.36102" lon="2.76395">
        <ele>275</ele>
        <time>2024-08-14T07:29:28Z</time>
      </trkpt>
      <trkpt lat="47.36072" lon="2.76416">
        <ele>276</ele>
        <time>2024-08-14T07:29:35Z</time>
      </trkpt>
      <trkpt lat="47.36067" lon="2.7642">
        <ele>276.2</ele>
        <time>2024-08-14T07:29:36Z</time>
      </trkpt>
      <trkpt lat="47.36037" lon="2.76449">
        <ele>277.4</ele>
        <time>2024-08-14T07:29:43Z</time>
      </trkpt>
      <trkpt lat="47.36033" lon="2.76453">
        <ele>277.6</ele>
        <time>2024-08-14T07:29:44Z</time>
      </trkpt>
      <trkpt lat="47.36024" lon="2.76462">
        <ele>277.8</ele>
        <time>2024-08-14T07:29:46Z</time>
      </trkpt>
      <trkpt lat="47.36001" lon="2.7648">
        <ele>278.2</ele>
        <time>2024-08-14T07:29:51Z</time>
      </trkpt>
      <trkpt lat="47.35997" lon="2.76483">
        <ele>278.2</ele>
        <time>2024-08-14T07:29:52Z</time>
      </trkpt>
      <trkpt lat="47.35988" lon="2.76489">
        <ele>278.4</ele>
        <time>2024-08-14T07:29:54Z</time>
      </trkpt>
      <trkpt lat="47.35979" lon="2.76495">
        <ele>278.8</ele>
        <time>2024-08-14T07:29:56Z</time>
      </trkpt>
      <trkpt lat="47.35961" lon="2.7651">
        <ele>279</ele>
        <time>2024-08-14T07:30:00Z</time>
      </trkpt>
      <trkpt lat="47.35957" lon="2.76514">
        <ele>279</ele>
        <time>2024-08-14T07:30:01Z</time>
      </trkpt>
      <trkpt lat="47.35952" lon="2.76518">
        <ele>279.2</ele>
        <time>2024-08-14T07:30:02Z</time>
      </trkpt>
      <trkpt lat="47.35943" lon="2.76528">
        <ele>279.2</ele>
        <time>2024-08-14T07:30:04Z</time>
      </trkpt>
      <trkpt lat="47.35934" lon="2.76538">
        <ele>279.4</ele>
        <time>2024-08-14T07:30:06Z</time>
      </trkpt>
      <trkpt lat="47.3593" lon="2.76543">
        <ele>279.6</ele>
        <time>2024-08-14T07:30:07Z</time>
      </trkpt>
      <trkpt lat="47.35922" lon="2.7655">
        <ele>279.6</ele>
        <time>2024-08-14T07:30:09Z</time>
      </trkpt>
      <trkpt lat="47.35917" lon="2.76554">
        <ele>279.8</ele>
        <time>2024-08-14T07:30:10Z</time>
      </trkpt>
      <trkpt lat="47.3591" lon="2.76551">
        <ele>280</ele>
        <time>2024-08-14T07:30:12Z</time>
      </trkpt>
      <trkpt lat="47.35904" lon="2.76542">
        <ele>280.2</ele>
        <time>2024-08-14T07:30:14Z</time>
      </trkpt>
      <trkpt lat="47.35899" lon="2.7653">
        <ele>280.4</ele>
        <time>2024-08-14T07:30:16Z</time>
      </trkpt>
      <trkpt lat="47.35896" lon="2.76524">
        <ele>280.6</ele>
        <time>2024-08-14T07:30:17Z</time>
      </trkpt>
      <trkpt lat="47.35881" lon="2.76483">
        <ele>281.6</ele>
        <time>2024-08-14T07:30:24Z</time>
      </trkpt>
      <trkpt lat="47.35878" lon="2.76477">
        <ele>281.4</ele>
        <time>2024-08-14T07:30:25Z</time>
      </trkpt>
      <trkpt lat="47.35865" lon="2.76448">
        <ele>282.6</ele>
        <time>2024-08-14T07:30:30Z</time>
      </trkpt>
      <trkpt lat="47.35855" lon="2.76425">
        <ele>283.6</ele>
        <time>2024-08-14T07:30:34Z</time>
      </trkpt>
      <trkpt lat="47.35853" lon="2.76419">
        <ele>284</ele>
        <time>2024-08-14T07:30:35Z</time>
      </trkpt>
      <trkpt lat="47.35841" lon="2.76392">
        <ele>285</ele>
        <time>2024-08-14T07:30:40Z</time>
      </trkpt>
      <trkpt lat="47.35832" lon="2.7637">
        <ele>285.8</ele>
        <time>2024-08-14T07:30:44Z</time>
      </trkpt>
      <trkpt lat="47.35827" lon="2.76359">
        <ele>286.2</ele>
        <time>2024-08-14T07:30:46Z</time>
      </trkpt>
      <trkpt lat="47.35817" lon="2.76337">
        <ele>287.4</ele>
        <time>2024-08-14T07:30:50Z</time>
      </trkpt>
      <trkpt lat="47.35807" lon="2.76313">
        <ele>288.4</ele>
        <time>2024-08-14T07:30:54Z</time>
      </trkpt>
      <trkpt lat="47.35802" lon="2.76301">
        <ele>288.8</ele>
        <time>2024-08-14T07:30:56Z</time>
      </trkpt>
      <trkpt lat="47.35788" lon="2.7626">
        <ele>289.8</ele>
        <time>2024-08-14T07:31:02Z</time>
      </trkpt>
      <trkpt lat="47.35773" lon="2.76209">
        <ele>290.2</ele>
        <time>2024-08-14T07:31:09Z</time>
      </trkpt>
      <trkpt lat="47.35752" lon="2.76151">
        <ele>290.6</ele>
        <time>2024-08-14T07:31:17Z</time>
      </trkpt>
      <trkpt lat="47.3575" lon="2.76146">
        <ele>291</ele>
        <time>2024-08-14T07:31:18Z</time>
      </trkpt>
      <trkpt lat="47.35734" lon="2.76111">
        <ele>291.6</ele>
        <time>2024-08-14T07:31:24Z</time>
      </trkpt>
      <trkpt lat="47.35731" lon="2.76106">
        <ele>292</ele>
        <time>2024-08-14T07:31:25Z</time>
      </trkpt>
      <trkpt lat="47.35714" lon="2.7607">
        <ele>293.2</ele>
        <time>2024-08-14T07:31:31Z</time>
      </trkpt>
      <trkpt lat="47.35711" lon="2.76064">
        <ele>293.2</ele>
        <time>2024-08-14T07:31:32Z</time>
      </trkpt>
      <trkpt lat="47.35693" lon="2.7603">
        <ele>294.2</ele>
        <time>2024-08-14T07:31:38Z</time>
      </trkpt>
      <trkpt lat="47.35686" lon="2.76019">
        <ele>294.4</ele>
        <time>2024-08-14T07:31:40Z</time>
      </trkpt>
      <trkpt lat="47.35673" lon="2.75996">
        <ele>295.2</ele>
        <time>2024-08-14T07:31:44Z</time>
      </trkpt>
      <trkpt lat="47.35655" lon="2.75971">
        <ele>296</ele>
        <time>2024-08-14T07:31:49Z</time>
      </trkpt>
      <trkpt lat="47.35645" lon="2.75958">
        <ele>296.2</ele>
        <time>2024-08-14T07:31:52Z</time>
      </trkpt>
      <trkpt lat="47.35626" lon="2.75935">
        <ele>296.8</ele>
        <time>2024-08-14T07:31:57Z</time>
      </trkpt>
      <trkpt lat="47.35612" lon="2.75921">
        <ele>297.2</ele>
        <time>2024-08-14T07:32:00Z</time>
      </trkpt>
      <trkpt lat="47.35606" lon="2.75918">
        <ele>297.4</ele>
        <time>2024-08-14T07:32:01Z</time>
      </trkpt>
      <trkpt lat="47.35595" lon="2.75914">
        <ele>297.4</ele>
        <time>2024-08-14T07:32:03Z</time>
      </trkpt>
      <trkpt lat="47.35576" lon="2.75912">
        <ele>297.4</ele>
        <time>2024-08-14T07:32:06Z</time>
      </trkpt>
      <trkpt lat="47.35529" lon="2.75906">
        <ele>296.8</ele>
        <time>2024-08-14T07:32:13Z</time>
      </trkpt>
      <trkpt lat="47.35502" lon="2.75889">
        <ele>296.4</ele>
        <time>2024-08-14T07:32:17Z</time>
      </trkpt>
      <trkpt lat="47.35488" lon="2.75877">
        <ele>296</ele>
        <time>2024-08-14T07:32:19Z</time>
      </trkpt>
      <trkpt lat="47.35453" lon="2.75845">
        <ele>295.4</ele>
        <time>2024-08-14T07:32:24Z</time>
      </trkpt>
      <trkpt lat="47.35421" lon="2.75819">
        <ele>294.8</ele>
        <time>2024-08-14T07:32:28Z</time>
      </trkpt>
      <trkpt lat="47.35396" lon="2.75802">
        <ele>293.8</ele>
        <time>2024-08-14T07:32:31Z</time>
      </trkpt>
      <trkpt lat="47.35387" lon="2.75796">
        <ele>293.4</ele>
        <time>2024-08-14T07:32:32Z</time>
      </trkpt>
      <trkpt lat="47.35361" lon="2.75779">
        <ele>292.2</ele>
        <time>2024-08-14T07:32:35Z</time>
      </trkpt>
      <trkpt lat="47.35343" lon="2.75767">
        <ele>291</ele>
        <time>2024-08-14T07:32:37Z</time>
      </trkpt>
      <trkpt lat="47.35319" lon="2.75749">
        <ele>289.8</ele>
        <time>2024-08-14T07:32:40Z</time>
      </trkpt>
      <trkpt lat="47.35297" lon="2.75732">
        <ele>289.4</ele>
        <time>2024-08-14T07:32:43Z</time>
      </trkpt>
      <trkpt lat="47.35256" lon="2.75695">
        <ele>289.4</ele>
        <time>2024-08-14T07:32:49Z</time>
      </trkpt>
      <trkpt lat="47.3522" lon="2.75658">
        <ele>289.2</ele>
        <time>2024-08-14T07:32:55Z</time>
      </trkpt>
      <trkpt lat="47.35193" lon="2.75615">
        <ele>289.2</ele>
        <time>2024-08-14T07:33:01Z</time>
      </trkpt>
      <trkpt lat="47.35178" lon="2.75586">
        <ele>289.4</ele>
        <time>2024-08-14T07:33:05Z</time>
      </trkpt>
      <trkpt lat="47.35175" lon="2.75578">
        <ele>289.4</ele>
        <time>2024-08-14T07:33:06Z</time>
      </trkpt>
      <trkpt lat="47.35169" lon="2.75554">
        <ele>289.8</ele>
        <time>2024-08-14T07:33:09Z</time>
      </trkpt>
      <trkpt lat="47.35166" lon="2.75539">
        <ele>290</ele>
        <time>2024-08-14T07:33:11Z</time>
      </trkpt>
      <trkpt lat="47.35164" lon="2.75532">
        <ele>290</ele>
        <time>2024-08-14T07:33:12Z</time>
      </trkpt>
      <trkpt lat="47.35162" lon="2.75525">
        <ele>290.2</ele>
        <time>2024-08-14T07:33:13Z</time>
      </trkpt>
      <trkpt lat="47.35157" lon="2.75513">
        <ele>290.6</ele>
        <time>2024-08-14T07:33:15Z</time>
      </trkpt>
      <trkpt lat="47.35152" lon="2.75508">
        <ele>290.8</ele>
        <time>2024-08-14T07:33:16Z</time>
      </trkpt>
      <trkpt lat="47.35147" lon="2.75506">
        <ele>290.8</ele>
        <time>2024-08-14T07:33:17Z</time>
      </trkpt>
      <trkpt lat="47.35142" lon="2.75505">
        <ele>291</ele>
        <time>2024-08-14T07:33:18Z</time>
      </trkpt>
      <trkpt lat="47.35136" lon="2.75504">
        <ele>291</ele>
        <time>2024-08-14T07:33:19Z</time>
      </trkpt>
      <trkpt lat="47.35109" lon="2.75496">
        <ele>291.6</ele>
        <time>2024-08-14T07:33:24Z</time>
      </trkpt>
      <trkpt lat="47.35103" lon="2.75494">
        <ele>292</ele>
        <time>2024-08-14T07:33:25Z</time>
      </trkpt>
      <trkpt lat="47.35098" lon="2.75493">
        <ele>292</ele>
        <time>2024-08-14T07:33:26Z</time>
      </trkpt>
      <trkpt lat="47.3508" lon="2.75489">
        <ele>291.6</ele>
        <time>2024-08-14T07:33:31Z</time>
      </trkpt>
      <trkpt lat="47.35064" lon="2.75488">
        <ele>291.4</ele>
        <time>2024-08-14T07:33:36Z</time>
      </trkpt>
      <trkpt lat="47.3504" lon="2.75484">
        <ele>291.2</ele>
        <time>2024-08-14T07:33:40Z</time>
      </trkpt>
      <trkpt lat="47.35033" lon="2.75484">
        <ele>291</ele>
        <time>2024-08-14T07:33:41Z</time>
      </trkpt>
      <trkpt lat="47.35019" lon="2.75483">
        <ele>290.8</ele>
        <time>2024-08-14T07:33:43Z</time>
      </trkpt>
      <trkpt lat="47.34995" lon="2.75479">
        <ele>290.2</ele>
        <time>2024-08-14T07:33:46Z</time>
      </trkpt>
      <trkpt lat="47.34979" lon="2.75472">
        <ele>289.6</ele>
        <time>2024-08-14T07:33:48Z</time>
      </trkpt>
      <trkpt lat="47.34953" lon="2.7546">
        <ele>288.2</ele>
        <time>2024-08-14T07:33:51Z</time>
      </trkpt>
      <trkpt lat="47.34919" lon="2.7544">
        <ele>287.2</ele>
        <time>2024-08-14T07:33:55Z</time>
      </trkpt>
      <trkpt lat="47.34901" lon="2.75431">
        <ele>286.4</ele>
        <time>2024-08-14T07:33:57Z</time>
      </trkpt>
      <trkpt lat="47.34892" lon="2.75426">
        <ele>285.6</ele>
        <time>2024-08-14T07:33:58Z</time>
      </trkpt>
      <trkpt lat="47.34869" lon="2.75414">
        <ele>284.6</ele>
        <time>2024-08-14T07:34:01Z</time>
      </trkpt>
      <trkpt lat="47.34863" lon="2.75409">
        <ele>284.2</ele>
        <time>2024-08-14T07:34:02Z</time>
      </trkpt>
      <trkpt lat="47.3485" lon="2.75399">
        <ele>283</ele>
        <time>2024-08-14T07:34:04Z</time>
      </trkpt>
      <trkpt lat="47.34838" lon="2.75384">
        <ele>282</ele>
        <time>2024-08-14T07:34:06Z</time>
      </trkpt>
      <trkpt lat="47.34828" lon="2.75363">
        <ele>281.4</ele>
        <time>2024-08-14T07:34:08Z</time>
      </trkpt>
      <trkpt lat="47.34819" lon="2.7534">
        <ele>280.8</ele>
        <time>2024-08-14T07:34:10Z</time>
      </trkpt>
      <trkpt lat="47.34808" lon="2.75319">
        <ele>279.6</ele>
        <time>2024-08-14T07:34:12Z</time>
      </trkpt>
      <trkpt lat="47.34796" lon="2.75298">
        <ele>278.4</ele>
        <time>2024-08-14T07:34:14Z</time>
      </trkpt>
      <trkpt lat="47.34789" lon="2.75288">
        <ele>278</ele>
        <time>2024-08-14T07:34:15Z</time>
      </trkpt>
      <trkpt lat="47.34776" lon="2.75267">
        <ele>277.4</ele>
        <time>2024-08-14T07:34:17Z</time>
      </trkpt>
      <trkpt lat="47.34754" lon="2.75236">
        <ele>276</ele>
        <time>2024-08-14T07:34:20Z</time>
      </trkpt>
      <trkpt lat="47.34747" lon="2.75225">
        <ele>275.4</ele>
        <time>2024-08-14T07:34:21Z</time>
      </trkpt>
      <trkpt lat="47.3474" lon="2.75215">
        <ele>275</ele>
        <time>2024-08-14T07:34:22Z</time>
      </trkpt>
      <trkpt lat="47.34713" lon="2.75174">
        <ele>273.8</ele>
        <time>2024-08-14T07:34:26Z</time>
      </trkpt>
      <trkpt lat="47.34695" lon="2.75145">
        <ele>273.2</ele>
        <time>2024-08-14T07:34:29Z</time>
      </trkpt>
      <trkpt lat="47.34662" lon="2.75093">
        <ele>273</ele>
        <time>2024-08-14T07:34:35Z</time>
      </trkpt>
      <trkpt lat="47.34648" lon="2.75073">
        <ele>273.2</ele>
        <time>2024-08-14T07:34:38Z</time>
      </trkpt>
      <trkpt lat="47.34638" lon="2.75061">
        <ele>273.4</ele>
        <time>2024-08-14T07:34:40Z</time>
      </trkpt>
      <trkpt lat="47.34619" lon="2.75033">
        <ele>275</ele>
        <time>2024-08-14T07:34:45Z</time>
      </trkpt>
      <trkpt lat="47.34615" lon="2.75029">
        <ele>275.2</ele>
        <time>2024-08-14T07:34:46Z</time>
      </trkpt>
      <trkpt lat="47.346" lon="2.7501">
        <ele>276.4</ele>
        <time>2024-08-14T07:34:50Z</time>
      </trkpt>
      <trkpt lat="47.34586" lon="2.7499">
        <ele>277.6</ele>
        <time>2024-08-14T07:34:54Z</time>
      </trkpt>
      <trkpt lat="47.34583" lon="2.74985">
        <ele>277.8</ele>
        <time>2024-08-14T07:34:55Z</time>
      </trkpt>
      <trkpt lat="47.34574" lon="2.7497">
        <ele>278.6</ele>
        <time>2024-08-14T07:34:58Z</time>
      </trkpt>
      <trkpt lat="47.34561" lon="2.74951">
        <ele>279.8</ele>
        <time>2024-08-14T07:35:02Z</time>
      </trkpt>
      <trkpt lat="47.3455" lon="2.74936">
        <ele>280.6</ele>
        <time>2024-08-14T07:35:05Z</time>
      </trkpt>
      <trkpt lat="47.34547" lon="2.74932">
        <ele>281</ele>
        <time>2024-08-14T07:35:06Z</time>
      </trkpt>
      <trkpt lat="47.34535" lon="2.74918">
        <ele>282.2</ele>
        <time>2024-08-14T07:35:09Z</time>
      </trkpt>
      <trkpt lat="47.34521" lon="2.749">
        <ele>283.6</ele>
        <time>2024-08-14T07:35:13Z</time>
      </trkpt>
      <trkpt lat="47.34515" lon="2.74891">
        <ele>284.2</ele>
        <time>2024-08-14T07:35:15Z</time>
      </trkpt>
      <trkpt lat="47.34511" lon="2.74886">
        <ele>284.6</ele>
        <time>2024-08-14T07:35:16Z</time>
      </trkpt>
      <trkpt lat="47.34494" lon="2.74865">
        <ele>286</ele>
        <time>2024-08-14T07:35:21Z</time>
      </trkpt>
      <trkpt lat="47.34483" lon="2.74852">
        <ele>286.6</ele>
        <time>2024-08-14T07:35:24Z</time>
      </trkpt>
      <trkpt lat="47.34475" lon="2.74845">
        <ele>287</ele>
        <time>2024-08-14T07:35:26Z</time>
      </trkpt>
      <trkpt lat="47.34452" lon="2.7483">
        <ele>287.4</ele>
        <time>2024-08-14T07:35:31Z</time>
      </trkpt>
      <trkpt lat="47.34421" lon="2.74807">
        <ele>287.2</ele>
        <time>2024-08-14T07:35:36Z</time>
      </trkpt>
      <trkpt lat="47.34388" lon="2.74771">
        <ele>286</ele>
        <time>2024-08-14T07:35:41Z</time>
      </trkpt>
      <trkpt lat="47.34381" lon="2.74763">
        <ele>285.6</ele>
        <time>2024-08-14T07:35:42Z</time>
      </trkpt>
      <trkpt lat="47.34367" lon="2.74746">
        <ele>284.6</ele>
        <time>2024-08-14T07:35:44Z</time>
      </trkpt>
      <trkpt lat="47.34347" lon="2.74718">
        <ele>283.2</ele>
        <time>2024-08-14T07:35:47Z</time>
      </trkpt>
      <trkpt lat="47.34318" lon="2.74679">
        <ele>282</ele>
        <time>2024-08-14T07:35:51Z</time>
      </trkpt>
      <trkpt lat="47.34303" lon="2.74658">
        <ele>280.8</ele>
        <time>2024-08-14T07:35:53Z</time>
      </trkpt>
      <trkpt lat="47.34295" lon="2.74648">
        <ele>280</ele>
        <time>2024-08-14T07:35:54Z</time>
      </trkpt>
      <trkpt lat="47.34288" lon="2.74637">
        <ele>279.8</ele>
        <time>2024-08-14T07:35:55Z</time>
      </trkpt>
      <trkpt lat="47.34275" lon="2.74614">
        <ele>279.2</ele>
        <time>2024-08-14T07:35:57Z</time>
      </trkpt>
      <trkpt lat="47.34269" lon="2.74601">
        <ele>278.2</ele>
        <time>2024-08-14T07:35:58Z</time>
      </trkpt>
      <trkpt lat="47.34258" lon="2.74574">
        <ele>276.8</ele>
        <time>2024-08-14T07:36:00Z</time>
      </trkpt>
      <trkpt lat="47.34245" lon="2.74531">
        <ele>275</ele>
        <time>2024-08-14T07:36:03Z</time>
      </trkpt>
      <trkpt lat="47.34237" lon="2.74503">
        <ele>273.8</ele>
        <time>2024-08-14T07:36:05Z</time>
      </trkpt>
      <trkpt lat="47.34229" lon="2.74474">
        <ele>272.4</ele>
        <time>2024-08-14T07:36:07Z</time>
      </trkpt>
      <trkpt lat="47.34221" lon="2.74446">
        <ele>271.4</ele>
        <time>2024-08-14T07:36:09Z</time>
      </trkpt>
      <trkpt lat="47.34208" lon="2.74407">
        <ele>270</ele>
        <time>2024-08-14T07:36:12Z</time>
      </trkpt>
      <trkpt lat="47.34204" lon="2.74395">
        <ele>269.8</ele>
        <time>2024-08-14T07:36:13Z</time>
      </trkpt>
      <trkpt lat="47.34183" lon="2.74347">
        <ele>268.6</ele>
        <time>2024-08-14T07:36:17Z</time>
      </trkpt>
      <trkpt lat="47.34162" lon="2.74299">
        <ele>267.6</ele>
        <time>2024-08-14T07:36:21Z</time>
      </trkpt>
      <trkpt lat="47.34156" lon="2.74287">
        <ele>267</ele>
        <time>2024-08-14T07:36:22Z</time>
      </trkpt>
      <trkpt lat="47.3413" lon="2.74227">
        <ele>266</ele>
        <time>2024-08-14T07:36:27Z</time>
      </trkpt>
      <trkpt lat="47.34109" lon="2.74181">
        <ele>264.6</ele>
        <time>2024-08-14T07:36:31Z</time>
      </trkpt>
      <trkpt lat="47.34104" lon="2.74168">
        <ele>264.4</ele>
        <time>2024-08-14T07:36:32Z</time>
      </trkpt>
      <trkpt lat="47.34093" lon="2.74144">
        <ele>263.2</ele>
        <time>2024-08-14T07:36:34Z</time>
      </trkpt>
      <trkpt lat="47.34081" lon="2.74119">
        <ele>262.2</ele>
        <time>2024-08-14T07:36:36Z</time>
      </trkpt>
      <trkpt lat="47.34059" lon="2.74068">
        <ele>260.4</ele>
        <time>2024-08-14T07:36:40Z</time>
      </trkpt>
      <trkpt lat="47.34053" lon="2.74054">
        <ele>259.8</ele>
        <time>2024-08-14T07:36:41Z</time>
      </trkpt>
      <trkpt lat="47.34049" lon="2.74041">
        <ele>259.2</ele>
        <time>2024-08-14T07:36:42Z</time>
      </trkpt>
      <trkpt lat="47.34041" lon="2.74012">
        <ele>258</ele>
        <time>2024-08-14T07:36:44Z</time>
      </trkpt>
      <trkpt lat="47.34038" lon="2.73998">
        <ele>257.6</ele>
        <time>2024-08-14T07:36:45Z</time>
      </trkpt>
      <trkpt lat="47.34035" lon="2.73983">
        <ele>257</ele>
        <time>2024-08-14T07:36:46Z</time>
      </trkpt>
      <trkpt lat="47.34024" lon="2.73923">
        <ele>255</ele>
        <time>2024-08-14T07:36:50Z</time>
      </trkpt>
      <trkpt lat="47.34016" lon="2.73894">
        <ele>253.8</ele>
        <time>2024-08-14T07:36:52Z</time>
      </trkpt>
      <trkpt lat="47.34002" lon="2.73852">
        <ele>252.2</ele>
        <time>2024-08-14T07:36:55Z</time>
      </trkpt>
      <trkpt lat="47.33997" lon="2.73839">
        <ele>251.8</ele>
        <time>2024-08-14T07:36:56Z</time>
      </trkpt>
      <trkpt lat="47.33987" lon="2.73813">
        <ele>251</ele>
        <time>2024-08-14T07:36:58Z</time>
      </trkpt>
      <trkpt lat="47.33977" lon="2.73787">
        <ele>249.4</ele>
        <time>2024-08-14T07:37:00Z</time>
      </trkpt>
      <trkpt lat="47.33959" lon="2.7375">
        <ele>248.2</ele>
        <time>2024-08-14T07:37:03Z</time>
      </trkpt>
      <trkpt lat="47.33939" lon="2.73714">
        <ele>247</ele>
        <time>2024-08-14T07:37:06Z</time>
      </trkpt>
      <trkpt lat="47.33925" lon="2.73691">
        <ele>245.8</ele>
        <time>2024-08-14T07:37:08Z</time>
      </trkpt>
      <trkpt lat="47.33911" lon="2.73667">
        <ele>244.8</ele>
        <time>2024-08-14T07:37:10Z</time>
      </trkpt>
      <trkpt lat="47.33891" lon="2.73633">
        <ele>243.6</ele>
        <time>2024-08-14T07:37:13Z</time>
      </trkpt>
      <trkpt lat="47.33865" lon="2.73589">
        <ele>242.6</ele>
        <time>2024-08-14T07:37:17Z</time>
      </trkpt>
      <trkpt lat="47.33858" lon="2.73579">
        <ele>242.2</ele>
        <time>2024-08-14T07:37:18Z</time>
      </trkpt>
      <trkpt lat="47.33842" lon="2.73546">
        <ele>241.4</ele>
        <time>2024-08-14T07:37:21Z</time>
      </trkpt>
      <trkpt lat="47.33837" lon="2.73536">
        <ele>241.4</ele>
        <time>2024-08-14T07:37:22Z</time>
      </trkpt>
      <trkpt lat="47.3381" lon="2.73489">
        <ele>241</ele>
        <time>2024-08-14T07:37:27Z</time>
      </trkpt>
      <trkpt lat="47.33788" lon="2.73449">
        <ele>241.4</ele>
        <time>2024-08-14T07:37:32Z</time>
      </trkpt>
      <trkpt lat="47.33771" lon="2.73417">
        <ele>242.6</ele>
        <time>2024-08-14T07:37:37Z</time>
      </trkpt>
      <trkpt lat="47.33768" lon="2.73411">
        <ele>242.8</ele>
        <time>2024-08-14T07:37:38Z</time>
      </trkpt>
      <trkpt lat="47.33753" lon="2.73387">
        <ele>243.6</ele>
        <time>2024-08-14T07:37:43Z</time>
      </trkpt>
      <trkpt lat="47.33751" lon="2.73383">
        <ele>243.8</ele>
        <time>2024-08-14T07:37:44Z</time>
      </trkpt>
      <trkpt lat="47.33741" lon="2.73365">
        <ele>245</ele>
        <time>2024-08-14T07:37:48Z</time>
      </trkpt>
      <trkpt lat="47.33738" lon="2.7336">
        <ele>245.2</ele>
        <time>2024-08-14T07:37:49Z</time>
      </trkpt>
      <trkpt lat="47.33729" lon="2.73347">
        <ele>246</ele>
        <time>2024-08-14T07:37:52Z</time>
      </trkpt>
      <trkpt lat="47.33718" lon="2.73336">
        <ele>246.4</ele>
        <time>2024-08-14T07:37:55Z</time>
      </trkpt>
      <trkpt lat="47.33709" lon="2.73326">
        <ele>247</ele>
        <time>2024-08-14T07:37:58Z</time>
      </trkpt>
      <trkpt lat="47.33689" lon="2.73308">
        <ele>248</ele>
        <time>2024-08-14T07:38:04Z</time>
      </trkpt>
      <trkpt lat="47.33675" lon="2.73295">
        <ele>249.2</ele>
        <time>2024-08-14T07:38:08Z</time>
      </trkpt>
      <trkpt lat="47.3366" lon="2.73281">
        <ele>249.8</ele>
        <time>2024-08-14T07:38:13Z</time>
      </trkpt>
      <trkpt lat="47.33653" lon="2.73275">
        <ele>250.4</ele>
        <time>2024-08-14T07:38:15Z</time>
      </trkpt>
      <trkpt lat="47.33638" lon="2.73263">
        <ele>251.4</ele>
        <time>2024-08-14T07:38:20Z</time>
      </trkpt>
      <trkpt lat="47.33635" lon="2.7326">
        <ele>251.6</ele>
        <time>2024-08-14T07:38:21Z</time>
      </trkpt>
      <trkpt lat="47.33621" lon="2.73246">
        <ele>252.6</ele>
        <time>2024-08-14T07:38:26Z</time>
      </trkpt>
      <trkpt lat="47.33612" lon="2.73238">
        <ele>253.2</ele>
        <time>2024-08-14T07:38:29Z</time>
      </trkpt>
      <trkpt lat="47.33606" lon="2.73232">
        <ele>253.8</ele>
        <time>2024-08-14T07:38:31Z</time>
      </trkpt>
      <trkpt lat="47.33595" lon="2.73221">
        <ele>254.8</ele>
        <time>2024-08-14T07:38:35Z</time>
      </trkpt>
      <trkpt lat="47.33593" lon="2.73218">
        <ele>255</ele>
        <time>2024-08-14T07:38:36Z</time>
      </trkpt>
      <trkpt lat="47.33579" lon="2.73198">
        <ele>256.2</ele>
        <time>2024-08-14T07:38:42Z</time>
      </trkpt>
      <trkpt lat="47.33577" lon="2.73195">
        <ele>256.4</ele>
        <time>2024-08-14T07:38:43Z</time>
      </trkpt>
      <trkpt lat="47.33569" lon="2.73186">
        <ele>257.4</ele>
        <time>2024-08-14T07:38:46Z</time>
      </trkpt>
      <trkpt lat="47.33558" lon="2.73175">
        <ele>258.6</ele>
        <time>2024-08-14T07:38:50Z</time>
      </trkpt>
      <trkpt lat="47.33551" lon="2.73165">
        <ele>259.2</ele>
        <time>2024-08-14T07:38:53Z</time>
      </trkpt>
      <trkpt lat="47.33546" lon="2.73159">
        <ele>259.8</ele>
        <time>2024-08-14T07:38:55Z</time>
      </trkpt>
      <trkpt lat="47.33535" lon="2.73146">
        <ele>260.8</ele>
        <time>2024-08-14T07:38:59Z</time>
      </trkpt>
      <trkpt lat="47.33532" lon="2.73142">
        <ele>261.2</ele>
        <time>2024-08-14T07:39:00Z</time>
      </trkpt>
      <trkpt lat="47.33522" lon="2.73129">
        <ele>262</ele>
        <time>2024-08-14T07:39:04Z</time>
      </trkpt>
      <trkpt lat="47.33511" lon="2.73117">
        <ele>263</ele>
        <time>2024-08-14T07:39:08Z</time>
      </trkpt>
      <trkpt lat="47.33498" lon="2.73102">
        <ele>264</ele>
        <time>2024-08-14T07:39:13Z</time>
      </trkpt>
      <trkpt lat="47.33492" lon="2.73096">
        <ele>264.4</ele>
        <time>2024-08-14T07:39:15Z</time>
      </trkpt>
      <trkpt lat="47.33487" lon="2.73089">
        <ele>265</ele>
        <time>2024-08-14T07:39:17Z</time>
      </trkpt>
      <trkpt lat="47.33476" lon="2.73071">
        <ele>266</ele>
        <time>2024-08-14T07:39:22Z</time>
      </trkpt>
      <trkpt lat="47.33474" lon="2.73068">
        <ele>266.2</ele>
        <time>2024-08-14T07:39:23Z</time>
      </trkpt>
      <trkpt lat="47.33461" lon="2.73045">
        <ele>267.4</ele>
        <time>2024-08-14T07:39:29Z</time>
      </trkpt>
      <trkpt lat="47.33459" lon="2.73041">
        <ele>267.8</ele>
        <time>2024-08-14T07:39:30Z</time>
      </trkpt>
      <trkpt lat="47.33453" lon="2.73028">
        <ele>268.6</ele>
        <time>2024-08-14T07:39:33Z</time>
      </trkpt>
      <trkpt lat="47.33441" lon="2.73006">
        <ele>269.8</ele>
        <time>2024-08-14T07:39:38Z</time>
      </trkpt>
      <trkpt lat="47.33425" lon="2.72974">
        <ele>271</ele>
        <time>2024-08-14T07:39:45Z</time>
      </trkpt>
      <trkpt lat="47.33419" lon="2.72962">
        <ele>271.4</ele>
        <time>2024-08-14T07:39:48Z</time>
      </trkpt>
      <trkpt lat="47.33414" lon="2.72953">
        <ele>272.2</ele>
        <time>2024-08-14T07:39:50Z</time>
      </trkpt>
      <trkpt lat="47.33395" lon="2.72921">
        <ele>272.8</ele>
        <time>2024-08-14T07:39:57Z</time>
      </trkpt>
      <trkpt lat="47.33382" lon="2.72904">
        <ele>273.4</ele>
        <time>2024-08-14T07:40:01Z</time>
      </trkpt>
      <trkpt lat="47.3337" lon="2.72888">
        <ele>274.2</ele>
        <time>2024-08-14T07:40:05Z</time>
      </trkpt>
      <trkpt lat="47.33355" lon="2.7287">
        <ele>274.6</ele>
        <time>2024-08-14T07:40:10Z</time>
      </trkpt>
      <trkpt lat="47.33341" lon="2.72855">
        <ele>275.2</ele>
        <time>2024-08-14T07:40:14Z</time>
      </trkpt>
      <trkpt lat="47.33332" lon="2.72843">
        <ele>275.6</ele>
        <time>2024-08-14T07:40:17Z</time>
      </trkpt>
      <trkpt lat="47.33315" lon="2.72824">
        <ele>276.8</ele>
        <time>2024-08-14T07:40:22Z</time>
      </trkpt>
      <trkpt lat="47.33309" lon="2.72817">
        <ele>276.8</ele>
        <time>2024-08-14T07:40:24Z</time>
      </trkpt>
      <trkpt lat="47.33293" lon="2.72798">
        <ele>278</ele>
        <time>2024-08-14T07:40:29Z</time>
      </trkpt>
      <trkpt lat="47.33277" lon="2.7278">
        <ele>278.6</ele>
        <time>2024-08-14T07:40:34Z</time>
      </trkpt>
      <trkpt lat="47.3327" lon="2.72773">
        <ele>279</ele>
        <time>2024-08-14T07:40:36Z</time>
      </trkpt>
      <trkpt lat="47.33267" lon="2.72769">
        <ele>279.4</ele>
        <time>2024-08-14T07:40:37Z</time>
      </trkpt>
      <trkpt lat="47.33255" lon="2.72754">
        <ele>280.2</ele>
        <time>2024-08-14T07:40:41Z</time>
      </trkpt>
      <trkpt lat="47.33247" lon="2.72748">
        <ele>280.4</ele>
        <time>2024-08-14T07:40:43Z</time>
      </trkpt>
      <trkpt lat="47.33234" lon="2.72734">
        <ele>281.2</ele>
        <time>2024-08-14T07:40:47Z</time>
      </trkpt>
      <trkpt lat="47.3323" lon="2.72731">
        <ele>281.6</ele>
        <time>2024-08-14T07:40:48Z</time>
      </trkpt>
      <trkpt lat="47.33223" lon="2.72724">
        <ele>282</ele>
        <time>2024-08-14T07:40:50Z</time>
      </trkpt>
      <trkpt lat="47.33219" lon="2.7272">
        <ele>282.4</ele>
        <time>2024-08-14T07:40:51Z</time>
      </trkpt>
      <trkpt lat="47.33202" lon="2.72705">
        <ele>283.4</ele>
        <time>2024-08-14T07:40:56Z</time>
      </trkpt>
      <trkpt lat="47.33188" lon="2.72691">
        <ele>283.8</ele>
        <time>2024-08-14T07:41:00Z</time>
      </trkpt>
      <trkpt lat="47.33178" lon="2.72679">
        <ele>284.6</ele>
        <time>2024-08-14T07:41:03Z</time>
      </trkpt>
      <trkpt lat="47.33159" lon="2.72655">
        <ele>285.2</ele>
        <time>2024-08-14T07:41:09Z</time>
      </trkpt>
      <trkpt lat="47.33156" lon="2.7265">
        <ele>285.4</ele>
        <time>2024-08-14T07:41:10Z</time>
      </trkpt>
      <trkpt lat="47.3315" lon="2.7264">
        <ele>285.8</ele>
        <time>2024-08-14T07:41:12Z</time>
      </trkpt>
      <trkpt lat="47.33129" lon="2.72605">
        <ele>286.2</ele>
        <time>2024-08-14T07:41:18Z</time>
      </trkpt>
      <trkpt lat="47.33102" lon="2.72545">
        <ele>286</ele>
        <time>2024-08-14T07:41:26Z</time>
      </trkpt>
      <trkpt lat="47.33072" lon="2.72476">
        <ele>285.2</ele>
        <time>2024-08-14T07:41:34Z</time>
      </trkpt>
      <trkpt lat="47.33065" lon="2.72456">
        <ele>284.8</ele>
        <time>2024-08-14T07:41:36Z</time>
      </trkpt>
      <trkpt lat="47.33062" lon="2.72446">
        <ele>284.8</ele>
        <time>2024-08-14T07:41:37Z</time>
      </trkpt>
      <trkpt lat="47.33059" lon="2.72435">
        <ele>284.6</ele>
        <time>2024-08-14T07:41:38Z</time>
      </trkpt>
      <trkpt lat="47.33057" lon="2.72423">
        <ele>284.6</ele>
        <time>2024-08-14T07:41:39Z</time>
      </trkpt>
      <trkpt lat="47.33056" lon="2.7239">
        <ele>284</ele>
        <time>2024-08-14T07:41:42Z</time>
      </trkpt>
      <trkpt lat="47.33056" lon="2.72367">
        <ele>283.8</ele>
        <time>2024-08-14T07:41:44Z</time>
      </trkpt>
      <trkpt lat="47.33057" lon="2.72309">
        <ele>283</ele>
        <time>2024-08-14T07:41:49Z</time>
      </trkpt>
      <trkpt lat="47.33056" lon="2.72298">
        <ele>282.6</ele>
        <time>2024-08-14T07:41:50Z</time>
      </trkpt>
      <trkpt lat="47.33055" lon="2.72255">
        <ele>282</ele>
        <time>2024-08-14T07:41:54Z</time>
      </trkpt>
      <trkpt lat="47.33052" lon="2.72189">
        <ele>281.6</ele>
        <time>2024-08-14T07:42:00Z</time>
      </trkpt>
      <trkpt lat="47.3305" lon="2.72168">
        <ele>281.4</ele>
        <time>2024-08-14T07:42:02Z</time>
      </trkpt>
      <trkpt lat="47.33036" lon="2.72083">
        <ele>281</ele>
        <time>2024-08-14T07:42:10Z</time>
      </trkpt>
      <trkpt lat="47.33021" lon="2.72022">
        <ele>281</ele>
        <time>2024-08-14T07:42:16Z</time>
      </trkpt>
      <trkpt lat="47.32997" lon="2.71947">
        <ele>280.8</ele>
        <time>2024-08-14T07:42:24Z</time>
      </trkpt>
      <trkpt lat="47.32988" lon="2.71917">
        <ele>280.6</ele>
        <time>2024-08-14T07:42:27Z</time>
      </trkpt>
      <trkpt lat="47.32972" lon="2.71846">
        <ele>280.2</ele>
        <time>2024-08-14T07:42:34Z</time>
      </trkpt>
      <trkpt lat="47.32952" lon="2.71767">
        <ele>280.2</ele>
        <time>2024-08-14T07:42:42Z</time>
      </trkpt>
      <trkpt lat="47.3295" lon="2.71746">
        <ele>280</ele>
        <time>2024-08-14T07:42:44Z</time>
      </trkpt>
      <trkpt lat="47.32949" lon="2.71714">
        <ele>280</ele>
        <time>2024-08-14T07:42:47Z</time>
      </trkpt>
      <trkpt lat="47.32953" lon="2.71635">
        <ele>280</ele>
        <time>2024-08-14T07:42:55Z</time>
      </trkpt>
      <trkpt lat="47.32954" lon="2.71625">
        <ele>280</ele>
        <time>2024-08-14T07:42:56Z</time>
      </trkpt>
      <trkpt lat="47.32955" lon="2.71561">
        <ele>280.6</ele>
        <time>2024-08-14T07:43:03Z</time>
      </trkpt>
      <trkpt lat="47.32952" lon="2.71502">
        <ele>281</ele>
        <time>2024-08-14T07:43:10Z</time>
      </trkpt>
      <trkpt lat="47.32947" lon="2.71444">
        <ele>281.6</ele>
        <time>2024-08-14T07:43:17Z</time>
      </trkpt>
      <trkpt lat="47.32947" lon="2.71428">
        <ele>281.8</ele>
        <time>2024-08-14T07:43:19Z</time>
      </trkpt>
      <trkpt lat="47.32947" lon="2.71382">
        <ele>282.6</ele>
        <time>2024-08-14T07:43:25Z</time>
      </trkpt>
      <trkpt lat="47.32947" lon="2.71374">
        <ele>282.8</ele>
        <time>2024-08-14T07:43:26Z</time>
      </trkpt>
      <trkpt lat="47.32946" lon="2.71319">
        <ele>283.8</ele>
        <time>2024-08-14T07:43:33Z</time>
      </trkpt>
      <trkpt lat="47.32945" lon="2.71294">
        <ele>284.4</ele>
        <time>2024-08-14T07:43:36Z</time>
      </trkpt>
      <trkpt lat="47.32944" lon="2.71251">
        <ele>284.8</ele>
        <time>2024-08-14T07:43:41Z</time>
      </trkpt>
      <trkpt lat="47.32941" lon="2.71236">
        <ele>285</ele>
        <time>2024-08-14T07:43:43Z</time>
      </trkpt>
      <trkpt lat="47.32936" lon="2.71221">
        <ele>285</ele>
        <time>2024-08-14T07:43:45Z</time>
      </trkpt>
      <trkpt lat="47.32928" lon="2.71209">
        <ele>285.2</ele>
        <time>2024-08-14T07:43:47Z</time>
      </trkpt>
      <trkpt lat="47.32906" lon="2.71185">
        <ele>285.4</ele>
        <time>2024-08-14T07:43:52Z</time>
      </trkpt>
      <trkpt lat="47.32868" lon="2.71145">
        <ele>285</ele>
        <time>2024-08-14T07:44:00Z</time>
      </trkpt>
      <trkpt lat="47.32843" lon="2.71115">
        <ele>283.8</ele>
        <time>2024-08-14T07:44:05Z</time>
      </trkpt>
      <trkpt lat="47.32831" lon="2.711">
        <ele>283.6</ele>
        <time>2024-08-14T07:44:07Z</time>
      </trkpt>
      <trkpt lat="47.32813" lon="2.71076">
        <ele>282.8</ele>
        <time>2024-08-14T07:44:10Z</time>
      </trkpt>
      <trkpt lat="47.32793" lon="2.71052">
        <ele>281.8</ele>
        <time>2024-08-14T07:44:13Z</time>
      </trkpt>
      <trkpt lat="47.32787" lon="2.71044">
        <ele>281.2</ele>
        <time>2024-08-14T07:44:14Z</time>
      </trkpt>
      <trkpt lat="47.32775" lon="2.71026">
        <ele>280.4</ele>
        <time>2024-08-14T07:44:16Z</time>
      </trkpt>
      <trkpt lat="47.32762" lon="2.71006">
        <ele>279.4</ele>
        <time>2024-08-14T07:44:18Z</time>
      </trkpt>
      <trkpt lat="47.3275" lon="2.70986">
        <ele>279</ele>
        <time>2024-08-14T07:44:20Z</time>
      </trkpt>
      <trkpt lat="47.32744" lon="2.70976">
        <ele>278.6</ele>
        <time>2024-08-14T07:44:21Z</time>
      </trkpt>
      <trkpt lat="47.32725" lon="2.70946">
        <ele>277.8</ele>
        <time>2024-08-14T07:44:24Z</time>
      </trkpt>
      <trkpt lat="47.32705" lon="2.70917">
        <ele>276.2</ele>
        <time>2024-08-14T07:44:27Z</time>
      </trkpt>
      <trkpt lat="47.32699" lon="2.70908">
        <ele>275.2</ele>
        <time>2024-08-14T07:44:28Z</time>
      </trkpt>
      <trkpt lat="47.32693" lon="2.709">
        <ele>274.8</ele>
        <time>2024-08-14T07:44:29Z</time>
      </trkpt>
      <trkpt lat="47.32687" lon="2.70892">
        <ele>274</ele>
        <time>2024-08-14T07:44:30Z</time>
      </trkpt>
      <trkpt lat="47.32681" lon="2.70876">
        <ele>273.6</ele>
        <time>2024-08-14T07:44:32Z</time>
      </trkpt>
      <trkpt lat="47.32679" lon="2.70867">
        <ele>273</ele>
        <time>2024-08-14T07:44:33Z</time>
      </trkpt>
      <trkpt lat="47.32674" lon="2.70848">
        <ele>272.6</ele>
        <time>2024-08-14T07:44:35Z</time>
      </trkpt>
      <trkpt lat="47.32675" lon="2.7083">
        <ele>271.8</ele>
        <time>2024-08-14T07:44:37Z</time>
      </trkpt>
      <trkpt lat="47.32679" lon="2.70799">
        <ele>270.8</ele>
        <time>2024-08-14T07:44:41Z</time>
      </trkpt>
      <trkpt lat="47.32678" lon="2.70793">
        <ele>270.6</ele>
        <time>2024-08-14T07:44:42Z</time>
      </trkpt>
      <trkpt lat="47.32676" lon="2.70788">
        <ele>270.6</ele>
        <time>2024-08-14T07:44:43Z</time>
      </trkpt>
      <trkpt lat="47.32669" lon="2.70778">
        <ele>270.2</ele>
        <time>2024-08-14T07:44:45Z</time>
      </trkpt>
      <trkpt lat="47.32653" lon="2.70751">
        <ele>269.8</ele>
        <time>2024-08-14T07:44:49Z</time>
      </trkpt>
      <trkpt lat="47.32649" lon="2.70742">
        <ele>269.8</ele>
        <time>2024-08-14T07:44:50Z</time>
      </trkpt>
      <trkpt lat="47.32635" lon="2.70707">
        <ele>268.6</ele>
        <time>2024-08-14T07:44:54Z</time>
      </trkpt>
      <trkpt lat="47.32629" lon="2.70685">
        <ele>268.2</ele>
        <time>2024-08-14T07:44:56Z</time>
      </trkpt>
      <trkpt lat="47.32622" lon="2.70649">
        <ele>267.2</ele>
        <time>2024-08-14T07:44:59Z</time>
      </trkpt>
      <trkpt lat="47.32615" lon="2.70611">
        <ele>266</ele>
        <time>2024-08-14T07:45:02Z</time>
      </trkpt>
      <trkpt lat="47.3261" lon="2.70584">
        <ele>265</ele>
        <time>2024-08-14T07:45:04Z</time>
      </trkpt>
      <trkpt lat="47.32605" lon="2.70557">
        <ele>263.4</ele>
        <time>2024-08-14T07:45:06Z</time>
      </trkpt>
      <trkpt lat="47.32603" lon="2.70542">
        <ele>263</ele>
        <time>2024-08-14T07:45:07Z</time>
      </trkpt>
      <trkpt lat="47.326" lon="2.70512">
        <ele>262.4</ele>
        <time>2024-08-14T07:45:09Z</time>
      </trkpt>
      <trkpt lat="47.32603" lon="2.70483">
        <ele>261.6</ele>
        <time>2024-08-14T07:45:11Z</time>
      </trkpt>
      <trkpt lat="47.32606" lon="2.70468">
        <ele>260.8</ele>
        <time>2024-08-14T07:45:12Z</time>
      </trkpt>
      <trkpt lat="47.32611" lon="2.70441">
        <ele>259.4</ele>
        <time>2024-08-14T07:45:14Z</time>
      </trkpt>
      <trkpt lat="47.32612" lon="2.70428">
        <ele>258.8</ele>
        <time>2024-08-14T07:45:15Z</time>
      </trkpt>
      <trkpt lat="47.32605" lon="2.70404">
        <ele>258.4</ele>
        <time>2024-08-14T07:45:17Z</time>
      </trkpt>
      <trkpt lat="47.3259" lon="2.7039">
        <ele>256.6</ele>
        <time>2024-08-14T07:45:19Z</time>
      </trkpt>
      <trkpt lat="47.32581" lon="2.70389">
        <ele>255.8</ele>
        <time>2024-08-14T07:45:20Z</time>
      </trkpt>
      <trkpt lat="47.32573" lon="2.70393">
        <ele>255.4</ele>
        <time>2024-08-14T07:45:21Z</time>
      </trkpt>
      <trkpt lat="47.32564" lon="2.704">
        <ele>254.8</ele>
        <time>2024-08-14T07:45:22Z</time>
      </trkpt>
      <trkpt lat="47.32548" lon="2.70416">
        <ele>254.2</ele>
        <time>2024-08-14T07:45:24Z</time>
      </trkpt>
      <trkpt lat="47.32531" lon="2.70434">
        <ele>253.4</ele>
        <time>2024-08-14T07:45:26Z</time>
      </trkpt>
      <trkpt lat="47.32523" lon="2.70443">
        <ele>252.6</ele>
        <time>2024-08-14T07:45:27Z</time>
      </trkpt>
      <trkpt lat="47.32506" lon="2.70462">
        <ele>251.4</ele>
        <time>2024-08-14T07:45:29Z</time>
      </trkpt>
      <trkpt lat="47.32498" lon="2.70472">
        <ele>251.2</ele>
        <time>2024-08-14T07:45:30Z</time>
      </trkpt>
      <trkpt lat="47.32491" lon="2.70483">
        <ele>250.4</ele>
        <time>2024-08-14T07:45:31Z</time>
      </trkpt>
      <trkpt lat="47.32483" lon="2.70495">
        <ele>249.6</ele>
        <time>2024-08-14T07:45:32Z</time>
      </trkpt>
      <trkpt lat="47.32476" lon="2.70506">
        <ele>249</ele>
        <time>2024-08-14T07:45:33Z</time>
      </trkpt>
      <trkpt lat="47.32461" lon="2.70531">
        <ele>248</ele>
        <time>2024-08-14T07:45:35Z</time>
      </trkpt>
      <trkpt lat="47.32446" lon="2.70557">
        <ele>246.8</ele>
        <time>2024-08-14T07:45:37Z</time>
      </trkpt>
      <trkpt lat="47.32432" lon="2.70582">
        <ele>245.6</ele>
        <time>2024-08-14T07:45:39Z</time>
      </trkpt>
      <trkpt lat="47.32419" lon="2.70611">
        <ele>244</ele>
        <time>2024-08-14T07:45:41Z</time>
      </trkpt>
      <trkpt lat="47.3241" lon="2.70642">
        <ele>243</ele>
        <time>2024-08-14T07:45:43Z</time>
      </trkpt>
      <trkpt lat="47.32406" lon="2.70658">
        <ele>242.6</ele>
        <time>2024-08-14T07:45:44Z</time>
      </trkpt>
      <trkpt lat="47.32399" lon="2.7069">
        <ele>241.2</ele>
        <time>2024-08-14T07:45:46Z</time>
      </trkpt>
      <trkpt lat="47.32396" lon="2.70705">
        <ele>240.8</ele>
        <time>2024-08-14T07:45:47Z</time>
      </trkpt>
      <trkpt lat="47.32391" lon="2.70717">
        <ele>240</ele>
        <time>2024-08-14T07:45:48Z</time>
      </trkpt>
      <trkpt lat="47.32383" lon="2.70725">
        <ele>239.4</ele>
        <time>2024-08-14T07:45:49Z</time>
      </trkpt>
      <trkpt lat="47.32377" lon="2.70728">
        <ele>238.2</ele>
        <time>2024-08-14T07:45:50Z</time>
      </trkpt>
      <trkpt lat="47.3237" lon="2.70725">
        <ele>237</ele>
        <time>2024-08-14T07:45:51Z</time>
      </trkpt>
      <trkpt lat="47.32364" lon="2.70716">
        <ele>236.8</ele>
        <time>2024-08-14T07:45:52Z</time>
      </trkpt>
      <trkpt lat="47.3236" lon="2.70706">
        <ele>236</ele>
        <time>2024-08-14T07:45:53Z</time>
      </trkpt>
      <trkpt lat="47.32357" lon="2.70694">
        <ele>235.6</ele>
        <time>2024-08-14T07:45:54Z</time>
      </trkpt>
      <trkpt lat="47.32354" lon="2.7067">
        <ele>234.8</ele>
        <time>2024-08-14T07:45:56Z</time>
      </trkpt>
      <trkpt lat="47.32352" lon="2.70658">
        <ele>234.2</ele>
        <time>2024-08-14T07:45:57Z</time>
      </trkpt>
      <trkpt lat="47.32351" lon="2.70615">
        <ele>232.6</ele>
        <time>2024-08-14T07:46:00Z</time>
      </trkpt>
      <trkpt lat="47.32352" lon="2.70568">
        <ele>231.4</ele>
        <time>2024-08-14T07:46:03Z</time>
      </trkpt>
      <trkpt lat="47.32352" lon="2.70538">
        <ele>230.2</ele>
        <time>2024-08-14T07:46:05Z</time>
      </trkpt>
      <trkpt lat="47.32344" lon="2.70508">
        <ele>229</ele>
        <time>2024-08-14T07:46:07Z</time>
      </trkpt>
      <trkpt lat="47.32327" lon="2.70488">
        <ele>228</ele>
        <time>2024-08-14T07:46:09Z</time>
      </trkpt>
      <trkpt lat="47.32319" lon="2.70482">
        <ele>227.8</ele>
        <time>2024-08-14T07:46:10Z</time>
      </trkpt>
      <trkpt lat="47.32306" lon="2.70477">
        <ele>226.8</ele>
        <time>2024-08-14T07:46:11Z</time>
      </trkpt>
      <trkpt lat="47.32296" lon="2.70474">
        <ele>226</ele>
        <time>2024-08-14T07:46:12Z</time>
      </trkpt>
      <trkpt lat="47.32274" lon="2.70468">
        <ele>224.8</ele>
        <time>2024-08-14T07:46:14Z</time>
      </trkpt>
      <trkpt lat="47.32251" lon="2.70462">
        <ele>223.6</ele>
        <time>2024-08-14T07:46:16Z</time>
      </trkpt>
      <trkpt lat="47.32228" lon="2.70456">
        <ele>222.2</ele>
        <time>2024-08-14T07:46:18Z</time>
      </trkpt>
      <trkpt lat="47.32206" lon="2.7045">
        <ele>221</ele>
        <time>2024-08-14T07:46:20Z</time>
      </trkpt>
      <trkpt lat="47.32186" lon="2.70446">
        <ele>219.8</ele>
        <time>2024-08-14T07:46:22Z</time>
      </trkpt>
      <trkpt lat="47.32156" lon="2.70439">
        <ele>218.8</ele>
        <time>2024-08-14T07:46:25Z</time>
      </trkpt>
      <trkpt lat="47.32147" lon="2.70435">
        <ele>218.6</ele>
        <time>2024-08-14T07:46:26Z</time>
      </trkpt>
      <trkpt lat="47.32138" lon="2.70431">
        <ele>218.4</ele>
        <time>2024-08-14T07:46:27Z</time>
      </trkpt>
      <trkpt lat="47.32122" lon="2.70417">
        <ele>218</ele>
        <time>2024-08-14T07:46:29Z</time>
      </trkpt>
      <trkpt lat="47.32115" lon="2.70405">
        <ele>217.8</ele>
        <time>2024-08-14T07:46:30Z</time>
      </trkpt>
      <trkpt lat="47.32112" lon="2.70395">
        <ele>217.8</ele>
        <time>2024-08-14T07:46:31Z</time>
      </trkpt>
      <trkpt lat="47.32109" lon="2.70371">
        <ele>217.6</ele>
        <time>2024-08-14T07:46:33Z</time>
      </trkpt>
      <trkpt lat="47.32109" lon="2.70359">
        <ele>217.6</ele>
        <time>2024-08-14T07:46:34Z</time>
      </trkpt>
      <trkpt lat="47.32109" lon="2.70338">
        <ele>217.6</ele>
        <time>2024-08-14T07:46:36Z</time>
      </trkpt>
      <trkpt lat="47.32109" lon="2.70318">
        <ele>217.6</ele>
        <time>2024-08-14T07:46:38Z</time>
      </trkpt>
      <trkpt lat="47.32112" lon="2.70266">
        <ele>218</ele>
        <time>2024-08-14T07:46:43Z</time>
      </trkpt>
      <trkpt lat="47.3211" lon="2.70254">
        <ele>218</ele>
        <time>2024-08-14T07:46:44Z</time>
      </trkpt>
      <trkpt lat="47.32108" lon="2.70244">
        <ele>218</ele>
        <time>2024-08-14T07:46:45Z</time>
      </trkpt>
      <trkpt lat="47.32099" lon="2.70225">
        <ele>218</ele>
        <time>2024-08-14T07:46:47Z</time>
      </trkpt>
      <trkpt lat="47.32075" lon="2.70199">
        <ele>218</ele>
        <time>2024-08-14T07:46:51Z</time>
      </trkpt>
      <trkpt lat="47.32027" lon="2.70154">
        <ele>217.6</ele>
        <time>2024-08-14T07:46:59Z</time>
      </trkpt>
      <trkpt lat="47.31997" lon="2.70122">
        <ele>217.6</ele>
        <time>2024-08-14T07:47:05Z</time>
      </trkpt>
      <trkpt lat="47.31961" lon="2.70072">
        <ele>218</ele>
        <time>2024-08-14T07:47:13Z</time>
      </trkpt>
      <trkpt lat="47.3192" lon="2.70017">
        <ele>218.4</ele>
        <time>2024-08-14T07:47:22Z</time>
      </trkpt>
      <trkpt lat="47.31887" lon="2.69994">
        <ele>218.8</ele>
        <time>2024-08-14T07:47:28Z</time>
      </trkpt>
      <trkpt lat="47.31881" lon="2.69991">
        <ele>219</ele>
        <time>2024-08-14T07:47:29Z</time>
      </trkpt>
      <trkpt lat="47.3183" lon="2.69966">
        <ele>219.2</ele>
        <time>2024-08-14T07:47:38Z</time>
      </trkpt>
      <trkpt lat="47.31785" lon="2.69942">
        <ele>219.6</ele>
        <time>2024-08-14T07:47:46Z</time>
      </trkpt>
      <trkpt lat="47.31769" lon="2.69929">
        <ele>220</ele>
        <time>2024-08-14T07:47:49Z</time>
      </trkpt>
      <trkpt lat="47.3175" lon="2.6991">
        <ele>220.6</ele>
        <time>2024-08-14T07:47:53Z</time>
      </trkpt>
      <trkpt lat="47.31741" lon="2.699">
        <ele>221</ele>
        <time>2024-08-14T07:47:55Z</time>
      </trkpt>
      <trkpt lat="47.31722" lon="2.69879">
        <ele>221.6</ele>
        <time>2024-08-14T07:47:59Z</time>
      </trkpt>
      <trkpt lat="47.31719" lon="2.69875">
        <ele>221.6</ele>
        <time>2024-08-14T07:48:00Z</time>
      </trkpt>
      <trkpt lat="47.31705" lon="2.69861">
        <ele>221.8</ele>
        <time>2024-08-14T07:48:03Z</time>
      </trkpt>
      <trkpt lat="47.31696" lon="2.69853">
        <ele>222</ele>
        <time>2024-08-14T07:48:05Z</time>
      </trkpt>
      <trkpt lat="47.31686" lon="2.69847">
        <ele>222.4</ele>
        <time>2024-08-14T07:48:07Z</time>
      </trkpt>
      <trkpt lat="47.31656" lon="2.69832">
        <ele>223.2</ele>
        <time>2024-08-14T07:48:13Z</time>
      </trkpt>
      <trkpt lat="47.31651" lon="2.6983">
        <ele>223.4</ele>
        <time>2024-08-14T07:48:14Z</time>
      </trkpt>
      <trkpt lat="47.3162" lon="2.69819">
        <ele>224.2</ele>
        <time>2024-08-14T07:48:20Z</time>
      </trkpt>
      <trkpt lat="47.31615" lon="2.69818">
        <ele>224.4</ele>
        <time>2024-08-14T07:48:21Z</time>
      </trkpt>
      <trkpt lat="47.31589" lon="2.69812">
        <ele>225.6</ele>
        <time>2024-08-14T07:48:26Z</time>
      </trkpt>
      <trkpt lat="47.3157" lon="2.69806">
        <ele>226.2</ele>
        <time>2024-08-14T07:48:30Z</time>
      </trkpt>
      <trkpt lat="47.31561" lon="2.69803">
        <ele>226.6</ele>
        <time>2024-08-14T07:48:32Z</time>
      </trkpt>
      <trkpt lat="47.31532" lon="2.69795">
        <ele>227.8</ele>
        <time>2024-08-14T07:48:38Z</time>
      </trkpt>
      <trkpt lat="47.31527" lon="2.69794">
        <ele>228</ele>
        <time>2024-08-14T07:48:39Z</time>
      </trkpt>
      <trkpt lat="47.31513" lon="2.69792">
        <ele>228.4</ele>
        <time>2024-08-14T07:48:42Z</time>
      </trkpt>
      <trkpt lat="47.31492" lon="2.69786">
        <ele>228.8</ele>
        <time>2024-08-14T07:48:46Z</time>
      </trkpt>
      <trkpt lat="47.3145" lon="2.69784">
        <ele>229</ele>
        <time>2024-08-14T07:48:53Z</time>
      </trkpt>
      <trkpt lat="47.31396" lon="2.69788">
        <ele>228.2</ele>
        <time>2024-08-14T07:49:01Z</time>
      </trkpt>
      <trkpt lat="47.3139" lon="2.69789">
        <ele>228</ele>
        <time>2024-08-14T07:49:02Z</time>
      </trkpt>
      <trkpt lat="47.31377" lon="2.69793">
        <ele>227.6</ele>
        <time>2024-08-14T07:49:04Z</time>
      </trkpt>
      <trkpt lat="47.31364" lon="2.698">
        <ele>227.4</ele>
        <time>2024-08-14T07:49:06Z</time>
      </trkpt>
      <trkpt lat="47.31333" lon="2.69818">
        <ele>227.2</ele>
        <time>2024-08-14T07:49:11Z</time>
      </trkpt>
      <trkpt lat="47.31321" lon="2.69825">
        <ele>227.4</ele>
        <time>2024-08-14T07:49:13Z</time>
      </trkpt>
      <trkpt lat="47.31287" lon="2.69844">
        <ele>227.6</ele>
        <time>2024-08-14T07:49:19Z</time>
      </trkpt>
      <trkpt lat="47.31276" lon="2.69848">
        <ele>227.8</ele>
        <time>2024-08-14T07:49:21Z</time>
      </trkpt>
      <trkpt lat="47.31264" lon="2.69849">
        <ele>227.8</ele>
        <time>2024-08-14T07:49:23Z</time>
      </trkpt>
      <trkpt lat="47.31253" lon="2.69845">
        <ele>228.2</ele>
        <time>2024-08-14T07:49:25Z</time>
      </trkpt>
      <trkpt lat="47.31243" lon="2.69835">
        <ele>228.4</ele>
        <time>2024-08-14T07:49:27Z</time>
      </trkpt>
      <trkpt lat="47.3124" lon="2.69829">
        <ele>228.6</ele>
        <time>2024-08-14T07:49:28Z</time>
      </trkpt>
      <trkpt lat="47.31237" lon="2.69821">
        <ele>228.6</ele>
        <time>2024-08-14T07:49:29Z</time>
      </trkpt>
      <trkpt lat="47.31234" lon="2.69813">
        <ele>228.8</ele>
        <time>2024-08-14T07:49:30Z</time>
      </trkpt>
      <trkpt lat="47.31228" lon="2.69789">
        <ele>229.4</ele>
        <time>2024-08-14T07:49:33Z</time>
      </trkpt>
      <trkpt lat="47.31222" lon="2.69765">
        <ele>229.8</ele>
        <time>2024-08-14T07:49:36Z</time>
      </trkpt>
      <trkpt lat="47.31209" lon="2.69709">
        <ele>230</ele>
        <time>2024-08-14T07:49:43Z</time>
      </trkpt>
      <trkpt lat="47.3119" lon="2.69626">
        <ele>230.6</ele>
        <time>2024-08-14T07:49:53Z</time>
      </trkpt>
      <trkpt lat="47.31188" lon="2.69618">
        <ele>230.8</ele>
        <time>2024-08-14T07:49:54Z</time>
      </trkpt>
      <trkpt lat="47.31173" lon="2.69547">
        <ele>232</ele>
        <time>2024-08-14T07:50:03Z</time>
      </trkpt>
      <trkpt lat="47.31171" lon="2.6954">
        <ele>232</ele>
        <time>2024-08-14T07:50:04Z</time>
      </trkpt>
      <trkpt lat="47.31154" lon="2.6949">
        <ele>233</ele>
        <time>2024-08-14T07:50:11Z</time>
      </trkpt>
      <trkpt lat="47.31151" lon="2.69483">
        <ele>233</ele>
        <time>2024-08-14T07:50:12Z</time>
      </trkpt>
      <trkpt lat="47.31124" lon="2.69433">
        <ele>234</ele>
        <time>2024-08-14T07:50:20Z</time>
      </trkpt>
      <trkpt lat="47.31118" lon="2.69422">
        <ele>234.2</ele>
        <time>2024-08-14T07:50:22Z</time>
      </trkpt>
      <trkpt lat="47.31101" lon="2.6939">
        <ele>234.8</ele>
        <time>2024-08-14T07:50:28Z</time>
      </trkpt>
      <trkpt lat="47.31093" lon="2.69376">
        <ele>235.2</ele>
        <time>2024-08-14T07:50:31Z</time>
      </trkpt>
      <trkpt lat="47.31082" lon="2.69359">
        <ele>235.8</ele>
        <time>2024-08-14T07:50:35Z</time>
      </trkpt>
      <trkpt lat="47.31076" lon="2.6935">
        <ele>236.2</ele>
        <time>2024-08-14T07:50:37Z</time>
      </trkpt>
      <trkpt lat="47.31059" lon="2.69324">
        <ele>237.2</ele>
        <time>2024-08-14T07:50:43Z</time>
      </trkpt>
      <trkpt lat="47.31056" lon="2.6932">
        <ele>237.2</ele>
        <time>2024-08-14T07:50:44Z</time>
      </trkpt>
      <trkpt lat="47.3104" lon="2.69295">
        <ele>238.2</ele>
        <time>2024-08-14T07:50:50Z</time>
      </trkpt>
      <trkpt lat="47.31033" lon="2.69281">
        <ele>238.8</ele>
        <time>2024-08-14T07:50:53Z</time>
      </trkpt>
      <trkpt lat="47.31027" lon="2.69263">
        <ele>239.4</ele>
        <time>2024-08-14T07:50:57Z</time>
      </trkpt>
      <trkpt lat="47.3102" lon="2.69239">
        <ele>240.2</ele>
        <time>2024-08-14T07:51:02Z</time>
      </trkpt>
      <trkpt lat="47.31018" lon="2.6923">
        <ele>240.6</ele>
        <time>2024-08-14T07:51:04Z</time>
      </trkpt>
      <trkpt lat="47.31011" lon="2.69201">
        <ele>241.6</ele>
        <time>2024-08-14T07:51:10Z</time>
      </trkpt>
      <trkpt lat="47.31008" lon="2.69191">
        <ele>242.2</ele>
        <time>2024-08-14T07:51:12Z</time>
      </trkpt>
      <trkpt lat="47.31004" lon="2.69182">
        <ele>242.6</ele>
        <time>2024-08-14T07:51:14Z</time>
      </trkpt>
      <trkpt lat="47.30994" lon="2.69169">
        <ele>243.6</ele>
        <time>2024-08-14T07:51:18Z</time>
      </trkpt>
      <trkpt lat="47.30978" lon="2.69161">
        <ele>244.8</ele>
        <time>2024-08-14T07:51:23Z</time>
      </trkpt>
      <trkpt lat="47.30975" lon="2.6916">
        <ele>245</ele>
        <time>2024-08-14T07:51:24Z</time>
      </trkpt>
      <trkpt lat="47.30957" lon="2.69155">
        <ele>246</ele>
        <time>2024-08-14T07:51:29Z</time>
      </trkpt>
      <trkpt lat="47.30947" lon="2.69153">
        <ele>246.6</ele>
        <time>2024-08-14T07:51:32Z</time>
      </trkpt>
      <trkpt lat="47.3094" lon="2.69151">
        <ele>247</ele>
        <time>2024-08-14T07:51:34Z</time>
      </trkpt>
      <trkpt lat="47.30927" lon="2.69146">
        <ele>248</ele>
        <time>2024-08-14T07:51:38Z</time>
      </trkpt>
      <trkpt lat="47.30921" lon="2.69143">
        <ele>249</ele>
        <time>2024-08-14T07:51:40Z</time>
      </trkpt>
      <trkpt lat="47.30919" lon="2.69142">
        <ele>249</ele>
        <time>2024-08-14T07:51:41Z</time>
      </trkpt>
      <trkpt lat="47.30907" lon="2.69136">
        <ele>250.2</ele>
        <time>2024-08-14T07:51:45Z</time>
      </trkpt>
      <trkpt lat="47.30904" lon="2.69135">
        <ele>250.4</ele>
        <time>2024-08-14T07:51:46Z</time>
      </trkpt>
      <trkpt lat="47.30891" lon="2.69128">
        <ele>251.4</ele>
        <time>2024-08-14T07:51:50Z</time>
      </trkpt>
      <trkpt lat="47.30881" lon="2.69123">
        <ele>252.2</ele>
        <time>2024-08-14T07:51:53Z</time>
      </trkpt>
      <trkpt lat="47.30878" lon="2.69121">
        <ele>252.6</ele>
        <time>2024-08-14T07:51:54Z</time>
      </trkpt>
      <trkpt lat="47.30864" lon="2.69111">
        <ele>253.6</ele>
        <time>2024-08-14T07:51:59Z</time>
      </trkpt>
      <trkpt lat="47.30861" lon="2.69109">
        <ele>253.6</ele>
        <time>2024-08-14T07:52:00Z</time>
      </trkpt>
      <trkpt lat="47.30844" lon="2.69098">
        <ele>254.6</ele>
        <time>2024-08-14T07:52:05Z</time>
      </trkpt>
      <trkpt lat="47.3084" lon="2.69095">
        <ele>254.6</ele>
        <time>2024-08-14T07:52:06Z</time>
      </trkpt>
      <trkpt lat="47.30822" lon="2.69078">
        <ele>255</ele>
        <time>2024-08-14T07:52:11Z</time>
      </trkpt>
      <trkpt lat="47.30803" lon="2.69056">
        <ele>255.8</ele>
        <time>2024-08-14T07:52:16Z</time>
      </trkpt>
      <trkpt lat="47.30793" lon="2.69045">
        <ele>256.2</ele>
        <time>2024-08-14T07:52:19Z</time>
      </trkpt>
      <trkpt lat="47.30767" lon="2.69014">
        <ele>256.4</ele>
        <time>2024-08-14T07:52:26Z</time>
      </trkpt>
      <trkpt lat="47.30742" lon="2.68992">
        <ele>256.2</ele>
        <time>2024-08-14T07:52:31Z</time>
      </trkpt>
      <trkpt lat="47.30701" lon="2.68972">
        <ele>255.8</ele>
        <time>2024-08-14T07:52:37Z</time>
      </trkpt>
      <trkpt lat="47.30669" lon="2.68957">
        <ele>254.2</ele>
        <time>2024-08-14T07:52:41Z</time>
      </trkpt>
      <trkpt lat="47.30652" lon="2.6895">
        <ele>253.6</ele>
        <time>2024-08-14T07:52:43Z</time>
      </trkpt>
      <trkpt lat="47.30636" lon="2.68942">
        <ele>253</ele>
        <time>2024-08-14T07:52:45Z</time>
      </trkpt>
      <trkpt lat="47.30598" lon="2.68925">
        <ele>252</ele>
        <time>2024-08-14T07:52:50Z</time>
      </trkpt>
      <trkpt lat="47.30591" lon="2.68921">
        <ele>251.8</ele>
        <time>2024-08-14T07:52:51Z</time>
      </trkpt>
      <trkpt lat="47.30542" lon="2.68899">
        <ele>251.2</ele>
        <time>2024-08-14T07:52:58Z</time>
      </trkpt>
      <trkpt lat="47.30492" lon="2.68869">
        <ele>251</ele>
        <time>2024-08-14T07:53:05Z</time>
      </trkpt>
      <trkpt lat="47.30485" lon="2.68863">
        <ele>251</ele>
        <time>2024-08-14T07:53:06Z</time>
      </trkpt>
      <trkpt lat="47.30455" lon="2.6884">
        <ele>249.8</ele>
        <time>2024-08-14T07:53:10Z</time>
      </trkpt>
      <trkpt lat="47.30431" lon="2.68821">
        <ele>248.6</ele>
        <time>2024-08-14T07:53:13Z</time>
      </trkpt>
      <trkpt lat="47.30414" lon="2.68808">
        <ele>247.2</ele>
        <time>2024-08-14T07:53:15Z</time>
      </trkpt>
      <trkpt lat="47.304" lon="2.68796">
        <ele>246.2</ele>
        <time>2024-08-14T07:53:17Z</time>
      </trkpt>
      <trkpt lat="47.30386" lon="2.68785">
        <ele>245</ele>
        <time>2024-08-14T07:53:19Z</time>
      </trkpt>
      <trkpt lat="47.30366" lon="2.6877">
        <ele>244.2</ele>
        <time>2024-08-14T07:53:22Z</time>
      </trkpt>
      <trkpt lat="47.30363" lon="2.68766">
        <ele>243.8</ele>
        <time>2024-08-14T07:53:23Z</time>
      </trkpt>
      <trkpt lat="47.3036" lon="2.6876">
        <ele>243.4</ele>
        <time>2024-08-14T07:53:24Z</time>
      </trkpt>
      <trkpt lat="47.30357" lon="2.68745">
        <ele>243</ele>
        <time>2024-08-14T07:53:26Z</time>
      </trkpt>
      <trkpt lat="47.30356" lon="2.68729">
        <ele>242.8</ele>
        <time>2024-08-14T07:53:28Z</time>
      </trkpt>
      <trkpt lat="47.30355" lon="2.68714">
        <ele>242.8</ele>
        <time>2024-08-14T07:53:30Z</time>
      </trkpt>
      <trkpt lat="47.30353" lon="2.68692">
        <ele>242.8</ele>
        <time>2024-08-14T07:53:33Z</time>
      </trkpt>
      <trkpt lat="47.30348" lon="2.68682">
        <ele>243</ele>
        <time>2024-08-14T07:53:35Z</time>
      </trkpt>
      <trkpt lat="47.30345" lon="2.6868">
        <ele>243.2</ele>
        <time>2024-08-14T07:53:36Z</time>
      </trkpt>
      <trkpt lat="47.30337" lon="2.68683">
        <ele>243.6</ele>
        <time>2024-08-14T07:53:38Z</time>
      </trkpt>
      <trkpt lat="47.30327" lon="2.68689">
        <ele>243.8</ele>
        <time>2024-08-14T07:53:40Z</time>
      </trkpt>
      <trkpt lat="47.30296" lon="2.68705">
        <ele>243.4</ele>
        <time>2024-08-14T07:53:45Z</time>
      </trkpt>
      <trkpt lat="47.30242" lon="2.68722">
        <ele>243</ele>
        <time>2024-08-14T07:53:54Z</time>
      </trkpt>
      <trkpt lat="47.30222" lon="2.68728">
        <ele>243.4</ele>
        <time>2024-08-14T07:53:58Z</time>
      </trkpt>
      <trkpt lat="47.30218" lon="2.68727">
        <ele>243.6</ele>
        <time>2024-08-14T07:53:59Z</time>
      </trkpt>
      <trkpt lat="47.30213" lon="2.68727">
        <ele>243.6</ele>
        <time>2024-08-14T07:54:00Z</time>
      </trkpt>
      <trkpt lat="47.30206" lon="2.68734">
        <ele>243.8</ele>
        <time>2024-08-14T07:54:02Z</time>
      </trkpt>
      <trkpt lat="47.30191" lon="2.68761">
        <ele>243.8</ele>
        <time>2024-08-14T07:54:06Z</time>
      </trkpt>
      <trkpt lat="47.30168" lon="2.68802">
        <ele>243.2</ele>
        <time>2024-08-14T07:54:11Z</time>
      </trkpt>
      <trkpt lat="47.30143" lon="2.68847">
        <ele>242.8</ele>
        <time>2024-08-14T07:54:16Z</time>
      </trkpt>
      <trkpt lat="47.30138" lon="2.68857">
        <ele>242.2</ele>
        <time>2024-08-14T07:54:17Z</time>
      </trkpt>
      <trkpt lat="47.30125" lon="2.68887">
        <ele>241.4</ele>
        <time>2024-08-14T07:54:20Z</time>
      </trkpt>
      <trkpt lat="47.30112" lon="2.68921">
        <ele>241</ele>
        <time>2024-08-14T07:54:23Z</time>
      </trkpt>
      <trkpt lat="47.30106" lon="2.68945">
        <ele>240.4</ele>
        <time>2024-08-14T07:54:25Z</time>
      </trkpt>
      <trkpt lat="47.30095" lon="2.68996">
        <ele>239.4</ele>
        <time>2024-08-14T07:54:29Z</time>
      </trkpt>
      <trkpt lat="47.30084" lon="2.69049">
        <ele>238.2</ele>
        <time>2024-08-14T07:54:33Z</time>
      </trkpt>
      <trkpt lat="47.30074" lon="2.69089">
        <ele>237.4</ele>
        <time>2024-08-14T07:54:36Z</time>
      </trkpt>
      <trkpt lat="47.30071" lon="2.69101">
        <ele>237.2</ele>
        <time>2024-08-14T07:54:37Z</time>
      </trkpt>
      <trkpt lat="47.30067" lon="2.69114">
        <ele>236.8</ele>
        <time>2024-08-14T07:54:38Z</time>
      </trkpt>
      <trkpt lat="47.30053" lon="2.6915">
        <ele>236</ele>
        <time>2024-08-14T07:54:41Z</time>
      </trkpt>
      <trkpt lat="47.30038" lon="2.69187">
        <ele>235</ele>
        <time>2024-08-14T07:54:44Z</time>
      </trkpt>
      <trkpt lat="47.30023" lon="2.69225">
        <ele>234</ele>
        <time>2024-08-14T07:54:47Z</time>
      </trkpt>
      <trkpt lat="47.30013" lon="2.69249">
        <ele>233.2</ele>
        <time>2024-08-14T07:54:49Z</time>
      </trkpt>
      <trkpt lat="47.30008" lon="2.69261">
        <ele>232.8</ele>
        <time>2024-08-14T07:54:50Z</time>
      </trkpt>
      <trkpt lat="47.29981" lon="2.69328">
        <ele>231.8</ele>
        <time>2024-08-14T07:54:56Z</time>
      </trkpt>
      <trkpt lat="47.2997" lon="2.69373">
        <ele>231.4</ele>
        <time>2024-08-14T07:55:00Z</time>
      </trkpt>
      <trkpt lat="47.29968" lon="2.69387">
        <ele>231.4</ele>
        <time>2024-08-14T07:55:01Z</time>
      </trkpt>
      <trkpt lat="47.2997" lon="2.69438">
        <ele>231.4</ele>
        <time>2024-08-14T07:55:06Z</time>
      </trkpt>
      <trkpt lat="47.29971" lon="2.69446">
        <ele>231.4</ele>
        <time>2024-08-14T07:55:07Z</time>
      </trkpt>
      <trkpt lat="47.29973" lon="2.6948">
        <ele>231.8</ele>
        <time>2024-08-14T07:55:11Z</time>
      </trkpt>
      <trkpt lat="47.29978" lon="2.69519">
        <ele>233</ele>
        <time>2024-08-14T07:55:16Z</time>
      </trkpt>
      <trkpt lat="47.29981" lon="2.69561">
        <ele>233.8</ele>
        <time>2024-08-14T07:55:22Z</time>
      </trkpt>
      <trkpt lat="47.29982" lon="2.69568">
        <ele>234.2</ele>
        <time>2024-08-14T07:55:23Z</time>
      </trkpt>
      <trkpt lat="47.29982" lon="2.69575">
        <ele>234.6</ele>
        <time>2024-08-14T07:55:24Z</time>
      </trkpt>
      <trkpt lat="47.29984" lon="2.69601">
        <ele>235.6</ele>
        <time>2024-08-14T07:55:28Z</time>
      </trkpt>
      <trkpt lat="47.29984" lon="2.69615">
        <ele>236</ele>
        <time>2024-08-14T07:55:30Z</time>
      </trkpt>
      <trkpt lat="47.29984" lon="2.69634">
        <ele>236.6</ele>
        <time>2024-08-14T07:55:33Z</time>
      </trkpt>
      <trkpt lat="47.29984" lon="2.6964">
        <ele>236.8</ele>
        <time>2024-08-14T07:55:34Z</time>
      </trkpt>
      <trkpt lat="47.29984" lon="2.69647">
        <ele>237</ele>
        <time>2024-08-14T07:55:35Z</time>
      </trkpt>
      <trkpt lat="47.2998" lon="2.69675">
        <ele>237.6</ele>
        <time>2024-08-14T07:55:39Z</time>
      </trkpt>
      <trkpt lat="47.29979" lon="2.69681">
        <ele>238</ele>
        <time>2024-08-14T07:55:40Z</time>
      </trkpt>
      <trkpt lat="47.29977" lon="2.69695">
        <ele>238.4</ele>
        <time>2024-08-14T07:55:42Z</time>
      </trkpt>
      <trkpt lat="47.29973" lon="2.69713">
        <ele>238.6</ele>
        <time>2024-08-14T07:55:45Z</time>
      </trkpt>
      <trkpt lat="47.29967" lon="2.69747">
        <ele>239.6</ele>
        <time>2024-08-14T07:55:50Z</time>
      </trkpt>
      <trkpt lat="47.29965" lon="2.69754">
        <ele>240</ele>
        <time>2024-08-14T07:55:51Z</time>
      </trkpt>
      <trkpt lat="47.29952" lon="2.6981">
        <ele>240.8</ele>
        <time>2024-08-14T07:55:59Z</time>
      </trkpt>
      <trkpt lat="47.29944" lon="2.69835">
        <ele>241</ele>
        <time>2024-08-14T07:56:02Z</time>
      </trkpt>
      <trkpt lat="47.29941" lon="2.69844">
        <ele>241</ele>
        <time>2024-08-14T07:56:03Z</time>
      </trkpt>
      <trkpt lat="47.29938" lon="2.6985">
        <ele>241</ele>
        <time>2024-08-14T07:56:04Z</time>
      </trkpt>
      <trkpt lat="47.29907" lon="2.69909">
        <ele>241</ele>
        <time>2024-08-14T07:56:12Z</time>
      </trkpt>
      <trkpt lat="47.29876" lon="2.69943">
        <ele>240.8</ele>
        <time>2024-08-14T07:56:18Z</time>
      </trkpt>
      <trkpt lat="47.29871" lon="2.69949">
        <ele>240.8</ele>
        <time>2024-08-14T07:56:19Z</time>
      </trkpt>
      <trkpt lat="47.29863" lon="2.69966">
        <ele>240.4</ele>
        <time>2024-08-14T07:56:21Z</time>
      </trkpt>
      <trkpt lat="47.29839" lon="2.70017">
        <ele>239.8</ele>
        <time>2024-08-14T07:56:27Z</time>
      </trkpt>
      <trkpt lat="47.29826" lon="2.70045">
        <ele>239.4</ele>
        <time>2024-08-14T07:56:30Z</time>
      </trkpt>
      <trkpt lat="47.29809" lon="2.70081">
        <ele>238.8</ele>
        <time>2024-08-14T07:56:34Z</time>
      </trkpt>
      <trkpt lat="47.29793" lon="2.70121">
        <ele>238.2</ele>
        <time>2024-08-14T07:56:38Z</time>
      </trkpt>
      <trkpt lat="47.29782" lon="2.70152">
        <ele>237.8</ele>
        <time>2024-08-14T07:56:41Z</time>
      </trkpt>
      <trkpt lat="47.29759" lon="2.70217">
        <ele>236.8</ele>
        <time>2024-08-14T07:56:47Z</time>
      </trkpt>
      <trkpt lat="47.29739" lon="2.70287">
        <ele>235.6</ele>
        <time>2024-08-14T07:56:53Z</time>
      </trkpt>
      <trkpt lat="47.29737" lon="2.70299">
        <ele>235.4</ele>
        <time>2024-08-14T07:56:54Z</time>
      </trkpt>
      <trkpt lat="47.29725" lon="2.70371">
        <ele>234.4</ele>
        <time>2024-08-14T07:57:00Z</time>
      </trkpt>
      <trkpt lat="47.29723" lon="2.70396">
        <ele>234.2</ele>
        <time>2024-08-14T07:57:02Z</time>
      </trkpt>
      <trkpt lat="47.29717" lon="2.70481">
        <ele>233.6</ele>
        <time>2024-08-14T07:57:09Z</time>
      </trkpt>
      <trkpt lat="47.29715" lon="2.70506">
        <ele>233.4</ele>
        <time>2024-08-14T07:57:11Z</time>
      </trkpt>
      <trkpt lat="47.29714" lon="2.70531">
        <ele>233.2</ele>
        <time>2024-08-14T07:57:13Z</time>
      </trkpt>
      <trkpt lat="47.29709" lon="2.70593">
        <ele>233</ele>
        <time>2024-08-14T07:57:18Z</time>
      </trkpt>
      <trkpt lat="47.29704" lon="2.70665">
        <ele>232.2</ele>
        <time>2024-08-14T07:57:24Z</time>
      </trkpt>
      <trkpt lat="47.29703" lon="2.70688">
        <ele>232</ele>
        <time>2024-08-14T07:57:26Z</time>
      </trkpt>
      <trkpt lat="47.29693" lon="2.70773">
        <ele>231.4</ele>
        <time>2024-08-14T07:57:33Z</time>
      </trkpt>
      <trkpt lat="47.29691" lon="2.70784">
        <ele>231.4</ele>
        <time>2024-08-14T07:57:34Z</time>
      </trkpt>
      <trkpt lat="47.29685" lon="2.7081">
        <ele>231.2</ele>
        <time>2024-08-14T07:57:36Z</time>
      </trkpt>
      <trkpt lat="47.29671" lon="2.70853">
        <ele>230.4</ele>
        <time>2024-08-14T07:57:40Z</time>
      </trkpt>
      <trkpt lat="47.29662" lon="2.70874">
        <ele>230.2</ele>
        <time>2024-08-14T07:57:42Z</time>
      </trkpt>
      <trkpt lat="47.2964" lon="2.70915">
        <ele>229.6</ele>
        <time>2024-08-14T07:57:46Z</time>
      </trkpt>
      <trkpt lat="47.29621" lon="2.70942">
        <ele>229</ele>
        <time>2024-08-14T07:57:49Z</time>
      </trkpt>
      <trkpt lat="47.29607" lon="2.70958">
        <ele>228.6</ele>
        <time>2024-08-14T07:57:51Z</time>
      </trkpt>
      <trkpt lat="47.29581" lon="2.70988">
        <ele>228</ele>
        <time>2024-08-14T07:57:55Z</time>
      </trkpt>
      <trkpt lat="47.29554" lon="2.71019">
        <ele>227.6</ele>
        <time>2024-08-14T07:57:59Z</time>
      </trkpt>
      <trkpt lat="47.29514" lon="2.71066">
        <ele>227</ele>
        <time>2024-08-14T07:58:05Z</time>
      </trkpt>
      <trkpt lat="47.29503" lon="2.71078">
        <ele>226.8</ele>
        <time>2024-08-14T07:58:07Z</time>
      </trkpt>
      <trkpt lat="47.29463" lon="2.71126">
        <ele>227</ele>
        <time>2024-08-14T07:58:14Z</time>
      </trkpt>
      <trkpt lat="47.29433" lon="2.71161">
        <ele>228.2</ele>
        <time>2024-08-14T07:58:20Z</time>
      </trkpt>
      <trkpt lat="47.29428" lon="2.71166">
        <ele>228.4</ele>
        <time>2024-08-14T07:58:21Z</time>
      </trkpt>
      <trkpt lat="47.29409" lon="2.71188">
        <ele>229.2</ele>
        <time>2024-08-14T07:58:25Z</time>
      </trkpt>
      <trkpt lat="47.29391" lon="2.71209">
        <ele>229.6</ele>
        <time>2024-08-14T07:58:29Z</time>
      </trkpt>
      <trkpt lat="47.2936" lon="2.71245">
        <ele>230.2</ele>
        <time>2024-08-14T07:58:36Z</time>
      </trkpt>
      <trkpt lat="47.29356" lon="2.7125">
        <ele>230.4</ele>
        <time>2024-08-14T07:58:37Z</time>
      </trkpt>
      <trkpt lat="47.29351" lon="2.71254">
        <ele>230.4</ele>
        <time>2024-08-14T07:58:38Z</time>
      </trkpt>
      <trkpt lat="47.29325" lon="2.71285">
        <ele>231.4</ele>
        <time>2024-08-14T07:58:44Z</time>
      </trkpt>
      <trkpt lat="47.293" lon="2.71316">
        <ele>232</ele>
        <time>2024-08-14T07:58:50Z</time>
      </trkpt>
      <trkpt lat="47.29276" lon="2.71342">
        <ele>232.4</ele>
        <time>2024-08-14T07:58:55Z</time>
      </trkpt>
      <trkpt lat="47.29253" lon="2.71369">
        <ele>232.8</ele>
        <time>2024-08-14T07:59:00Z</time>
      </trkpt>
      <trkpt lat="47.2921" lon="2.7142">
        <ele>233.2</ele>
        <time>2024-08-14T07:59:09Z</time>
      </trkpt>
      <trkpt lat="47.292" lon="2.71432">
        <ele>233.2</ele>
        <time>2024-08-14T07:59:11Z</time>
      </trkpt>
      <trkpt lat="47.29157" lon="2.71482">
        <ele>233.2</ele>
        <time>2024-08-14T07:59:19Z</time>
      </trkpt>
      <trkpt lat="47.29113" lon="2.71533">
        <ele>233</ele>
        <time>2024-08-14T07:59:27Z</time>
      </trkpt>
      <trkpt lat="47.29068" lon="2.71581">
        <ele>233</ele>
        <time>2024-08-14T07:59:35Z</time>
      </trkpt>
      <trkpt lat="47.29051" lon="2.71599">
        <ele>233</ele>
        <time>2024-08-14T07:59:38Z</time>
      </trkpt>
      <trkpt lat="47.29006" lon="2.71645">
        <ele>233.4</ele>
        <time>2024-08-14T07:59:46Z</time>
      </trkpt>
      <trkpt lat="47.29001" lon="2.71651">
        <ele>233.4</ele>
        <time>2024-08-14T07:59:47Z</time>
      </trkpt>
      <trkpt lat="47.28995" lon="2.71656">
        <ele>233.4</ele>
        <time>2024-08-14T07:59:48Z</time>
      </trkpt>
      <trkpt lat="47.28959" lon="2.71693">
        <ele>234.4</ele>
        <time>2024-08-14T07:59:55Z</time>
      </trkpt>
      <trkpt lat="47.28953" lon="2.71698">
        <ele>234.4</ele>
        <time>2024-08-14T07:59:56Z</time>
      </trkpt>
      <trkpt lat="47.28915" lon="2.71728">
        <ele>235.2</ele>
        <time>2024-08-14T08:00:03Z</time>
      </trkpt>
      <trkpt lat="47.28902" lon="2.71737">
        <ele>235.6</ele>
        <time>2024-08-14T08:00:05Z</time>
      </trkpt>
      <trkpt lat="47.28868" lon="2.71761">
        <ele>235.6</ele>
        <time>2024-08-14T08:00:11Z</time>
      </trkpt>
      <trkpt lat="47.28819" lon="2.71795">
        <ele>235.4</ele>
        <time>2024-08-14T08:00:19Z</time>
      </trkpt>
      <trkpt lat="47.28806" lon="2.71804">
        <ele>235.4</ele>
        <time>2024-08-14T08:00:21Z</time>
      </trkpt>
      <trkpt lat="47.28763" lon="2.7184">
        <ele>234.8</ele>
        <time>2024-08-14T08:00:28Z</time>
      </trkpt>
      <trkpt lat="47.28737" lon="2.71876">
        <ele>234.4</ele>
        <time>2024-08-14T08:00:33Z</time>
      </trkpt>
      <trkpt lat="47.28732" lon="2.71884">
        <ele>234.4</ele>
        <time>2024-08-14T08:00:34Z</time>
      </trkpt>
      <trkpt lat="47.28695" lon="2.71948">
        <ele>234</ele>
        <time>2024-08-14T08:00:42Z</time>
      </trkpt>
      <trkpt lat="47.2866" lon="2.72009">
        <ele>234.4</ele>
        <time>2024-08-14T08:00:50Z</time>
      </trkpt>
      <trkpt lat="47.28656" lon="2.72017">
        <ele>234.4</ele>
        <time>2024-08-14T08:00:51Z</time>
      </trkpt>
      <trkpt lat="47.28631" lon="2.7206">
        <ele>235</ele>
        <time>2024-08-14T08:00:57Z</time>
      </trkpt>
      <trkpt lat="47.28612" lon="2.72094">
        <ele>235.6</ele>
        <time>2024-08-14T08:01:02Z</time>
      </trkpt>
      <trkpt lat="47.28602" lon="2.72106">
        <ele>235.8</ele>
        <time>2024-08-14T08:01:04Z</time>
      </trkpt>
      <trkpt lat="47.28571" lon="2.72129">
        <ele>236.4</ele>
        <time>2024-08-14T08:01:10Z</time>
      </trkpt>
      <trkpt lat="47.28566" lon="2.72131">
        <ele>236.6</ele>
        <time>2024-08-14T08:01:11Z</time>
      </trkpt>
      <trkpt lat="47.2856" lon="2.72133">
        <ele>236.6</ele>
        <time>2024-08-14T08:01:12Z</time>
      </trkpt>
      <trkpt lat="47.28549" lon="2.72136">
        <ele>236.6</ele>
        <time>2024-08-14T08:01:14Z</time>
      </trkpt>
      <trkpt lat="47.28543" lon="2.72138">
        <ele>236.8</ele>
        <time>2024-08-14T08:01:15Z</time>
      </trkpt>
      <trkpt lat="47.28485" lon="2.72159">
        <ele>237</ele>
        <time>2024-08-14T08:01:24Z</time>
      </trkpt>
      <trkpt lat="47.28427" lon="2.72181">
        <ele>236.8</ele>
        <time>2024-08-14T08:01:33Z</time>
      </trkpt>
      <trkpt lat="47.28375" lon="2.72201">
        <ele>237</ele>
        <time>2024-08-14T08:01:41Z</time>
      </trkpt>
      <trkpt lat="47.28341" lon="2.72213">
        <ele>237</ele>
        <time>2024-08-14T08:01:47Z</time>
      </trkpt>
      <trkpt lat="47.2833" lon="2.72217">
        <ele>237.4</ele>
        <time>2024-08-14T08:01:49Z</time>
      </trkpt>
      <trkpt lat="47.28324" lon="2.72219">
        <ele>237.4</ele>
        <time>2024-08-14T08:01:50Z</time>
      </trkpt>
      <trkpt lat="47.28297" lon="2.72229">
        <ele>238.4</ele>
        <time>2024-08-14T08:01:56Z</time>
      </trkpt>
      <trkpt lat="47.28293" lon="2.72231">
        <ele>238.6</ele>
        <time>2024-08-14T08:01:57Z</time>
      </trkpt>
      <trkpt lat="47.28279" lon="2.72244">
        <ele>239.8</ele>
        <time>2024-08-14T08:02:01Z</time>
      </trkpt>
      <trkpt lat="47.2826" lon="2.72259">
        <ele>241</ele>
        <time>2024-08-14T08:02:06Z</time>
      </trkpt>
      <trkpt lat="47.28245" lon="2.72275">
        <ele>242</ele>
        <time>2024-08-14T08:02:11Z</time>
      </trkpt>
      <trkpt lat="47.28242" lon="2.72279">
        <ele>242.2</ele>
        <time>2024-08-14T08:02:12Z</time>
      </trkpt>
      <trkpt lat="47.28233" lon="2.72295">
        <ele>243.2</ele>
        <time>2024-08-14T08:02:16Z</time>
      </trkpt>
      <trkpt lat="47.28225" lon="2.72309">
        <ele>244</ele>
        <time>2024-08-14T08:02:19Z</time>
      </trkpt>
      <trkpt lat="47.2822" lon="2.72319">
        <ele>244.4</ele>
        <time>2024-08-14T08:02:21Z</time>
      </trkpt>
      <trkpt lat="47.28205" lon="2.7234">
        <ele>245.6</ele>
        <time>2024-08-14T08:02:26Z</time>
      </trkpt>
      <trkpt lat="47.28202" lon="2.72343">
        <ele>245.6</ele>
        <time>2024-08-14T08:02:27Z</time>
      </trkpt>
      <trkpt lat="47.28189" lon="2.72354">
        <ele>246.6</ele>
        <time>2024-08-14T08:02:31Z</time>
      </trkpt>
      <trkpt lat="47.28178" lon="2.7236">
        <ele>247.4</ele>
        <time>2024-08-14T08:02:34Z</time>
      </trkpt>
      <trkpt lat="47.28174" lon="2.72362">
        <ele>247.8</ele>
        <time>2024-08-14T08:02:35Z</time>
      </trkpt>
      <trkpt lat="47.28153" lon="2.7237">
        <ele>248.8</ele>
        <time>2024-08-14T08:02:40Z</time>
      </trkpt>
      <trkpt lat="47.28148" lon="2.72371">
        <ele>249</ele>
        <time>2024-08-14T08:02:41Z</time>
      </trkpt>
      <trkpt lat="47.28135" lon="2.72372">
        <ele>249.8</ele>
        <time>2024-08-14T08:02:44Z</time>
      </trkpt>
      <trkpt lat="47.28131" lon="2.72372">
        <ele>250.2</ele>
        <time>2024-08-14T08:02:45Z</time>
      </trkpt>
      <trkpt lat="47.28117" lon="2.72369">
        <ele>250.8</ele>
        <time>2024-08-14T08:02:48Z</time>
      </trkpt>
      <trkpt lat="47.28104" lon="2.72364">
        <ele>251.2</ele>
        <time>2024-08-14T08:02:51Z</time>
      </trkpt>
      <trkpt lat="47.28086" lon="2.72353">
        <ele>251.4</ele>
        <time>2024-08-14T08:02:55Z</time>
      </trkpt>
      <trkpt lat="47.28047" lon="2.72327">
        <ele>252.2</ele>
        <time>2024-08-14T08:03:03Z</time>
      </trkpt>
      <trkpt lat="47.28042" lon="2.72324">
        <ele>252.4</ele>
        <time>2024-08-14T08:03:04Z</time>
      </trkpt>
      <trkpt lat="47.28001" lon="2.72296">
        <ele>253.2</ele>
        <time>2024-08-14T08:03:12Z</time>
      </trkpt>
      <trkpt lat="47.27991" lon="2.7229">
        <ele>253.2</ele>
        <time>2024-08-14T08:03:14Z</time>
      </trkpt>
      <trkpt lat="47.2798" lon="2.72286">
        <ele>253.4</ele>
        <time>2024-08-14T08:03:16Z</time>
      </trkpt>
      <trkpt lat="47.27968" lon="2.72285">
        <ele>253.6</ele>
        <time>2024-08-14T08:03:18Z</time>
      </trkpt>
      <trkpt lat="47.27956" lon="2.72286">
        <ele>253.6</ele>
        <time>2024-08-14T08:03:20Z</time>
      </trkpt>
      <trkpt lat="47.27945" lon="2.72291">
        <ele>253.8</ele>
        <time>2024-08-14T08:03:22Z</time>
      </trkpt>
      <trkpt lat="47.2794" lon="2.72295">
        <ele>253.8</ele>
        <time>2024-08-14T08:03:23Z</time>
      </trkpt>
      <trkpt lat="47.27935" lon="2.72299">
        <ele>253.8</ele>
        <time>2024-08-14T08:03:24Z</time>
      </trkpt>
      <trkpt lat="47.27921" lon="2.72315">
        <ele>254.6</ele>
        <time>2024-08-14T08:03:27Z</time>
      </trkpt>
      <trkpt lat="47.27916" lon="2.72321">
        <ele>254.6</ele>
        <time>2024-08-14T08:03:28Z</time>
      </trkpt>
      <trkpt lat="47.27913" lon="2.72328">
        <ele>254.8</ele>
        <time>2024-08-14T08:03:29Z</time>
      </trkpt>
      <trkpt lat="47.27899" lon="2.72356">
        <ele>255.4</ele>
        <time>2024-08-14T08:03:33Z</time>
      </trkpt>
      <trkpt lat="47.27895" lon="2.72363">
        <ele>255.6</ele>
        <time>2024-08-14T08:03:34Z</time>
      </trkpt>
      <trkpt lat="47.27864" lon="2.72416">
        <ele>256.2</ele>
        <time>2024-08-14T08:03:42Z</time>
      </trkpt>
      <trkpt lat="47.27835" lon="2.72449">
        <ele>256.6</ele>
        <time>2024-08-14T08:03:48Z</time>
      </trkpt>
      <trkpt lat="47.27799" lon="2.72468">
        <ele>257</ele>
        <time>2024-08-14T08:03:54Z</time>
      </trkpt>
      <trkpt lat="47.27758" lon="2.72473">
        <ele>257</ele>
        <time>2024-08-14T08:04:00Z</time>
      </trkpt>
      <trkpt lat="47.27728" lon="2.72464">
        <ele>257</ele>
        <time>2024-08-14T08:04:04Z</time>
      </trkpt>
      <trkpt lat="47.2769" lon="2.72442">
        <ele>255.6</ele>
        <time>2024-08-14T08:04:09Z</time>
      </trkpt>
      <trkpt lat="47.2765" lon="2.72416">
        <ele>254.6</ele>
        <time>2024-08-14T08:04:15Z</time>
      </trkpt>
      <trkpt lat="47.27644" lon="2.72412">
        <ele>254.2</ele>
        <time>2024-08-14T08:04:16Z</time>
      </trkpt>
      <trkpt lat="47.27634" lon="2.72404">
        <ele>253.8</ele>
        <time>2024-08-14T08:04:18Z</time>
      </trkpt>
      <trkpt lat="47.27627" lon="2.72399">
        <ele>253.6</ele>
        <time>2024-08-14T08:04:20Z</time>
      </trkpt>
      <trkpt lat="47.2762" lon="2.72403">
        <ele>253.2</ele>
        <time>2024-08-14T08:04:22Z</time>
      </trkpt>
      <trkpt lat="47.27617" lon="2.72409">
        <ele>253.2</ele>
        <time>2024-08-14T08:04:23Z</time>
      </trkpt>
      <trkpt lat="47.27614" lon="2.72416">
        <ele>253.2</ele>
        <time>2024-08-14T08:04:24Z</time>
      </trkpt>
      <trkpt lat="47.27607" lon="2.72434">
        <ele>252.8</ele>
        <time>2024-08-14T08:04:26Z</time>
      </trkpt>
      <trkpt lat="47.27591" lon="2.72474">
        <ele>251.8</ele>
        <time>2024-08-14T08:04:30Z</time>
      </trkpt>
      <trkpt lat="47.27587" lon="2.72485">
        <ele>251.8</ele>
        <time>2024-08-14T08:04:31Z</time>
      </trkpt>
      <trkpt lat="47.27572" lon="2.7252">
        <ele>250.8</ele>
        <time>2024-08-14T08:04:34Z</time>
      </trkpt>
      <trkpt lat="47.27556" lon="2.72558">
        <ele>249.8</ele>
        <time>2024-08-14T08:04:37Z</time>
      </trkpt>
      <trkpt lat="47.27551" lon="2.72571">
        <ele>249.6</ele>
        <time>2024-08-14T08:04:38Z</time>
      </trkpt>
      <trkpt lat="47.27535" lon="2.72609">
        <ele>248</ele>
        <time>2024-08-14T08:04:41Z</time>
      </trkpt>
      <trkpt lat="47.2752" lon="2.72648">
        <ele>247.2</ele>
        <time>2024-08-14T08:04:44Z</time>
      </trkpt>
      <trkpt lat="47.27511" lon="2.72676">
        <ele>247</ele>
        <time>2024-08-14T08:04:46Z</time>
      </trkpt>
      <trkpt lat="47.275" lon="2.72719">
        <ele>245.8</ele>
        <time>2024-08-14T08:04:49Z</time>
      </trkpt>
      <trkpt lat="47.27496" lon="2.72734">
        <ele>245.4</ele>
        <time>2024-08-14T08:04:50Z</time>
      </trkpt>
      <trkpt lat="47.27488" lon="2.72763">
        <ele>244.6</ele>
        <time>2024-08-14T08:04:52Z</time>
      </trkpt>
      <trkpt lat="47.27476" lon="2.72805">
        <ele>243.6</ele>
        <time>2024-08-14T08:04:55Z</time>
      </trkpt>
      <trkpt lat="47.27466" lon="2.72831">
        <ele>242.6</ele>
        <time>2024-08-14T08:04:57Z</time>
      </trkpt>
      <trkpt lat="47.27442" lon="2.72891">
        <ele>241.6</ele>
        <time>2024-08-14T08:05:02Z</time>
      </trkpt>
      <trkpt lat="47.27407" lon="2.7295">
        <ele>241</ele>
        <time>2024-08-14T08:05:08Z</time>
      </trkpt>
      <trkpt lat="47.27367" lon="2.73009">
        <ele>240.8</ele>
        <time>2024-08-14T08:05:15Z</time>
      </trkpt>
      <trkpt lat="47.27322" lon="2.7307">
        <ele>240.8</ele>
        <time>2024-08-14T08:05:23Z</time>
      </trkpt>
      <trkpt lat="47.27316" lon="2.73077">
        <ele>240.8</ele>
        <time>2024-08-14T08:05:24Z</time>
      </trkpt>
      <trkpt lat="47.27271" lon="2.73138">
        <ele>240.6</ele>
        <time>2024-08-14T08:05:32Z</time>
      </trkpt>
      <trkpt lat="47.2726" lon="2.73152">
        <ele>240.6</ele>
        <time>2024-08-14T08:05:34Z</time>
      </trkpt>
      <trkpt lat="47.27223" lon="2.73199">
        <ele>240.8</ele>
        <time>2024-08-14T08:05:41Z</time>
      </trkpt>
      <trkpt lat="47.2718" lon="2.73257">
        <ele>240.8</ele>
        <time>2024-08-14T08:05:49Z</time>
      </trkpt>
      <trkpt lat="47.27174" lon="2.73265">
        <ele>240.6</ele>
        <time>2024-08-14T08:05:50Z</time>
      </trkpt>
      <trkpt lat="47.27169" lon="2.73274">
        <ele>240.4</ele>
        <time>2024-08-14T08:05:51Z</time>
      </trkpt>
      <trkpt lat="47.2716" lon="2.73294">
        <ele>240.4</ele>
        <time>2024-08-14T08:05:53Z</time>
      </trkpt>
      <trkpt lat="47.27157" lon="2.73305">
        <ele>240</ele>
        <time>2024-08-14T08:05:54Z</time>
      </trkpt>
      <trkpt lat="47.27147" lon="2.73339">
        <ele>239.4</ele>
        <time>2024-08-14T08:05:57Z</time>
      </trkpt>
      <trkpt lat="47.27135" lon="2.73385">
        <ele>238.6</ele>
        <time>2024-08-14T08:06:01Z</time>
      </trkpt>
      <trkpt lat="47.2713" lon="2.73408">
        <ele>238</ele>
        <time>2024-08-14T08:06:03Z</time>
      </trkpt>
      <trkpt lat="47.27121" lon="2.73444">
        <ele>237</ele>
        <time>2024-08-14T08:06:06Z</time>
      </trkpt>
      <trkpt lat="47.27118" lon="2.73455">
        <ele>236.8</ele>
        <time>2024-08-14T08:06:07Z</time>
      </trkpt>
      <trkpt lat="47.27108" lon="2.73488">
        <ele>235.6</ele>
        <time>2024-08-14T08:06:10Z</time>
      </trkpt>
      <trkpt lat="47.27105" lon="2.73498">
        <ele>235.4</ele>
        <time>2024-08-14T08:06:11Z</time>
      </trkpt>
      <trkpt lat="47.271" lon="2.73517">
        <ele>234.8</ele>
        <time>2024-08-14T08:06:13Z</time>
      </trkpt>
      <trkpt lat="47.27096" lon="2.73526">
        <ele>234.6</ele>
        <time>2024-08-14T08:06:14Z</time>
      </trkpt>
      <trkpt lat="47.27093" lon="2.73536">
        <ele>234.4</ele>
        <time>2024-08-14T08:06:15Z</time>
      </trkpt>
      <trkpt lat="47.27086" lon="2.73565">
        <ele>233.6</ele>
        <time>2024-08-14T08:06:18Z</time>
      </trkpt>
      <trkpt lat="47.27079" lon="2.73595">
        <ele>233.2</ele>
        <time>2024-08-14T08:06:21Z</time>
      </trkpt>
      <trkpt lat="47.27063" lon="2.73651">
        <ele>232.4</ele>
        <time>2024-08-14T08:06:26Z</time>
      </trkpt>
      <trkpt lat="47.2705" lon="2.73699">
        <ele>231.4</ele>
        <time>2024-08-14T08:06:30Z</time>
      </trkpt>
      <trkpt lat="47.2704" lon="2.73735">
        <ele>230.6</ele>
        <time>2024-08-14T08:06:33Z</time>
      </trkpt>
      <trkpt lat="47.27036" lon="2.73747">
        <ele>230.2</ele>
        <time>2024-08-14T08:06:34Z</time>
      </trkpt>
      <trkpt lat="47.27016" lon="2.73819">
        <ele>229.2</ele>
        <time>2024-08-14T08:06:40Z</time>
      </trkpt>
      <trkpt lat="47.27011" lon="2.73831">
        <ele>228.8</ele>
        <time>2024-08-14T08:06:41Z</time>
      </trkpt>
      <trkpt lat="47.26998" lon="2.7385">
        <ele>228.4</ele>
        <time>2024-08-14T08:06:43Z</time>
      </trkpt>
      <trkpt lat="47.2699" lon="2.73858">
        <ele>227.8</ele>
        <time>2024-08-14T08:06:44Z</time>
      </trkpt>
      <trkpt lat="47.26966" lon="2.73876">
        <ele>227.2</ele>
        <time>2024-08-14T08:06:47Z</time>
      </trkpt>
      <trkpt lat="47.2695" lon="2.73887">
        <ele>226.8</ele>
        <time>2024-08-14T08:06:49Z</time>
      </trkpt>
      <trkpt lat="47.26934" lon="2.73905">
        <ele>226.2</ele>
        <time>2024-08-14T08:06:51Z</time>
      </trkpt>
      <trkpt lat="47.26928" lon="2.73912">
        <ele>225.8</ele>
        <time>2024-08-14T08:06:52Z</time>
      </trkpt>
      <trkpt lat="47.26922" lon="2.73922">
        <ele>225.4</ele>
        <time>2024-08-14T08:06:53Z</time>
      </trkpt>
      <trkpt lat="47.2691" lon="2.73942">
        <ele>225.2</ele>
        <time>2024-08-14T08:06:55Z</time>
      </trkpt>
      <trkpt lat="47.26897" lon="2.73963">
        <ele>224.4</ele>
        <time>2024-08-14T08:06:57Z</time>
      </trkpt>
      <trkpt lat="47.26884" lon="2.73984">
        <ele>223.2</ele>
        <time>2024-08-14T08:06:59Z</time>
      </trkpt>
      <trkpt lat="47.26877" lon="2.73993">
        <ele>222.8</ele>
        <time>2024-08-14T08:07:00Z</time>
      </trkpt>
      <trkpt lat="47.26853" lon="2.74017">
        <ele>222.2</ele>
        <time>2024-08-14T08:07:03Z</time>
      </trkpt>
      <trkpt lat="47.26844" lon="2.74023">
        <ele>221.4</ele>
        <time>2024-08-14T08:07:04Z</time>
      </trkpt>
      <trkpt lat="47.26834" lon="2.74029">
        <ele>220.8</ele>
        <time>2024-08-14T08:07:05Z</time>
      </trkpt>
      <trkpt lat="47.26817" lon="2.74036">
        <ele>220.4</ele>
        <time>2024-08-14T08:07:07Z</time>
      </trkpt>
      <trkpt lat="47.26806" lon="2.74038">
        <ele>220.2</ele>
        <time>2024-08-14T08:07:08Z</time>
      </trkpt>
      <trkpt lat="47.26798" lon="2.74039">
        <ele>219.6</ele>
        <time>2024-08-14T08:07:09Z</time>
      </trkpt>
      <trkpt lat="47.26769" lon="2.7404">
        <ele>218.6</ele>
        <time>2024-08-14T08:07:12Z</time>
      </trkpt>
      <trkpt lat="47.2675" lon="2.74045">
        <ele>218.2</ele>
        <time>2024-08-14T08:07:14Z</time>
      </trkpt>
      <trkpt lat="47.26732" lon="2.74055">
        <ele>217.2</ele>
        <time>2024-08-14T08:07:16Z</time>
      </trkpt>
      <trkpt lat="47.26715" lon="2.7407">
        <ele>216.4</ele>
        <time>2024-08-14T08:07:18Z</time>
      </trkpt>
      <trkpt lat="47.26706" lon="2.74081">
        <ele>216</ele>
        <time>2024-08-14T08:07:19Z</time>
      </trkpt>
      <trkpt lat="47.26677" lon="2.74115">
        <ele>214.8</ele>
        <time>2024-08-14T08:07:23Z</time>
      </trkpt>
      <trkpt lat="47.26662" lon="2.74134">
        <ele>213.6</ele>
        <time>2024-08-14T08:07:25Z</time>
      </trkpt>
      <trkpt lat="47.26654" lon="2.74143">
        <ele>213</ele>
        <time>2024-08-14T08:07:26Z</time>
      </trkpt>
      <trkpt lat="47.26639" lon="2.74159">
        <ele>212</ele>
        <time>2024-08-14T08:07:28Z</time>
      </trkpt>
      <trkpt lat="47.26614" lon="2.74175">
        <ele>211.8</ele>
        <time>2024-08-14T08:07:31Z</time>
      </trkpt>
      <trkpt lat="47.26579" lon="2.74191">
        <ele>211.8</ele>
        <time>2024-08-14T08:07:36Z</time>
      </trkpt>
      <trkpt lat="47.26523" lon="2.74218">
        <ele>212.2</ele>
        <time>2024-08-14T08:07:44Z</time>
      </trkpt>
      <trkpt lat="47.26496" lon="2.74247">
        <ele>212</ele>
        <time>2024-08-14T08:07:48Z</time>
      </trkpt>
      <trkpt lat="47.26478" lon="2.74278">
        <ele>211</ele>
        <time>2024-08-14T08:07:51Z</time>
      </trkpt>
      <trkpt lat="47.26461" lon="2.74306">
        <ele>210</ele>
        <time>2024-08-14T08:07:54Z</time>
      </trkpt>
      <trkpt lat="47.26448" lon="2.74327">
        <ele>209.8</ele>
        <time>2024-08-14T08:07:56Z</time>
      </trkpt>
      <trkpt lat="47.26426" lon="2.74364">
        <ele>208.6</ele>
        <time>2024-08-14T08:08:00Z</time>
      </trkpt>
      <trkpt lat="47.26422" lon="2.74375">
        <ele>208</ele>
        <time>2024-08-14T08:08:01Z</time>
      </trkpt>
      <trkpt lat="47.26414" lon="2.744">
        <ele>207.6</ele>
        <time>2024-08-14T08:08:03Z</time>
      </trkpt>
      <trkpt lat="47.26408" lon="2.74426">
        <ele>207</ele>
        <time>2024-08-14T08:08:05Z</time>
      </trkpt>
      <trkpt lat="47.264" lon="2.74465">
        <ele>206</ele>
        <time>2024-08-14T08:08:08Z</time>
      </trkpt>
      <trkpt lat="47.26396" lon="2.74478">
        <ele>205.6</ele>
        <time>2024-08-14T08:08:09Z</time>
      </trkpt>
      <trkpt lat="47.2639" lon="2.74493">
        <ele>205</ele>
        <time>2024-08-14T08:08:10Z</time>
      </trkpt>
      <trkpt lat="47.26386" lon="2.74502">
        <ele>204.8</ele>
        <time>2024-08-14T08:08:11Z</time>
      </trkpt>
      <trkpt lat="47.26362" lon="2.74546">
        <ele>203.6</ele>
        <time>2024-08-14T08:08:15Z</time>
      </trkpt>
      <trkpt lat="47.26356" lon="2.74557">
        <ele>203.4</ele>
        <time>2024-08-14T08:08:16Z</time>
      </trkpt>
      <trkpt lat="47.26332" lon="2.74598">
        <ele>202.6</ele>
        <time>2024-08-14T08:08:20Z</time>
      </trkpt>
      <trkpt lat="47.26316" lon="2.74633">
        <ele>202</ele>
        <time>2024-08-14T08:08:23Z</time>
      </trkpt>
      <trkpt lat="47.26311" lon="2.74655">
        <ele>201.6</ele>
        <time>2024-08-14T08:08:25Z</time>
      </trkpt>
      <trkpt lat="47.2631" lon="2.74668">
        <ele>201.6</ele>
        <time>2024-08-14T08:08:26Z</time>
      </trkpt>
      <trkpt lat="47.2631" lon="2.74684">
        <ele>201.4</ele>
        <time>2024-08-14T08:08:27Z</time>
      </trkpt>
      <trkpt lat="47.2631" lon="2.74757">
        <ele>201</ele>
        <time>2024-08-14T08:08:33Z</time>
      </trkpt>
      <trkpt lat="47.26308" lon="2.74795">
        <ele>200.8</ele>
        <time>2024-08-14T08:08:36Z</time>
      </trkpt>
      <trkpt lat="47.26304" lon="2.74819">
        <ele>200.8</ele>
        <time>2024-08-14T08:08:38Z</time>
      </trkpt>
      <trkpt lat="47.26288" lon="2.74903">
        <ele>200.6</ele>
        <time>2024-08-14T08:08:45Z</time>
      </trkpt>
      <trkpt lat="47.26285" lon="2.74915">
        <ele>200.4</ele>
        <time>2024-08-14T08:08:46Z</time>
      </trkpt>
      <trkpt lat="47.26282" lon="2.74926">
        <ele>200.4</ele>
        <time>2024-08-14T08:08:47Z</time>
      </trkpt>
      <trkpt lat="47.26258" lon="2.74992">
        <ele>200</ele>
        <time>2024-08-14T08:08:53Z</time>
      </trkpt>
      <trkpt lat="47.26222" lon="2.75058">
        <ele>199.4</ele>
        <time>2024-08-14T08:09:00Z</time>
      </trkpt>
      <trkpt lat="47.2618" lon="2.75114">
        <ele>198.8</ele>
        <time>2024-08-14T08:09:07Z</time>
      </trkpt>
      <trkpt lat="47.26151" lon="2.75154">
        <ele>198.4</ele>
        <time>2024-08-14T08:09:12Z</time>
      </trkpt>
      <trkpt lat="47.26128" lon="2.75185">
        <ele>197.8</ele>
        <time>2024-08-14T08:09:16Z</time>
      </trkpt>
      <trkpt lat="47.26088" lon="2.75241">
        <ele>197.2</ele>
        <time>2024-08-14T08:09:23Z</time>
      </trkpt>
      <trkpt lat="47.26067" lon="2.75275">
        <ele>196.8</ele>
        <time>2024-08-14T08:09:27Z</time>
      </trkpt>
      <trkpt lat="47.2603" lon="2.75333">
        <ele>196.4</ele>
        <time>2024-08-14T08:09:34Z</time>
      </trkpt>
      <trkpt lat="47.26024" lon="2.75343">
        <ele>196.2</ele>
        <time>2024-08-14T08:09:35Z</time>
      </trkpt>
      <trkpt lat="47.26014" lon="2.75358">
        <ele>196</ele>
        <time>2024-08-14T08:09:37Z</time>
      </trkpt>
      <trkpt lat="47.25977" lon="2.75415">
        <ele>195.4</ele>
        <time>2024-08-14T08:09:44Z</time>
      </trkpt>
      <trkpt lat="47.25934" lon="2.75478">
        <ele>195</ele>
        <time>2024-08-14T08:09:52Z</time>
      </trkpt>
      <trkpt lat="47.25928" lon="2.75486">
        <ele>195</ele>
        <time>2024-08-14T08:09:53Z</time>
      </trkpt>
      <trkpt lat="47.25919" lon="2.755">
        <ele>195</ele>
        <time>2024-08-14T08:09:55Z</time>
      </trkpt>
      <trkpt lat="47.25895" lon="2.7554">
        <ele>194.6</ele>
        <time>2024-08-14T08:10:00Z</time>
      </trkpt>
      <trkpt lat="47.25881" lon="2.75567">
        <ele>194.2</ele>
        <time>2024-08-14T08:10:03Z</time>
      </trkpt>
      <trkpt lat="47.25873" lon="2.75586">
        <ele>193.8</ele>
        <time>2024-08-14T08:10:06Z</time>
      </trkpt>
      <trkpt lat="47.25867" lon="2.75597">
        <ele>193.6</ele>
        <time>2024-08-14T08:10:08Z</time>
      </trkpt>
      <trkpt lat="47.25858" lon="2.75613">
        <ele>193</ele>
        <time>2024-08-14T08:10:11Z</time>
      </trkpt>
      <trkpt lat="47.25847" lon="2.75632">
        <ele>192.6</ele>
        <time>2024-08-14T08:10:14Z</time>
      </trkpt>
      <trkpt lat="47.25842" lon="2.75639">
        <ele>192.4</ele>
        <time>2024-08-14T08:10:15Z</time>
      </trkpt>
      <trkpt lat="47.25806" lon="2.75688">
        <ele>191.8</ele>
        <time>2024-08-14T08:10:22Z</time>
      </trkpt>
      <trkpt lat="47.25773" lon="2.75739">
        <ele>191.6</ele>
        <time>2024-08-14T08:10:29Z</time>
      </trkpt>
      <trkpt lat="47.25746" lon="2.75775">
        <ele>192</ele>
        <time>2024-08-14T08:10:35Z</time>
      </trkpt>
      <trkpt lat="47.2573" lon="2.7579">
        <ele>192.6</ele>
        <time>2024-08-14T08:10:39Z</time>
      </trkpt>
      <trkpt lat="47.25721" lon="2.75795">
        <ele>193.2</ele>
        <time>2024-08-14T08:10:41Z</time>
      </trkpt>
      <trkpt lat="47.25711" lon="2.758">
        <ele>193.8</ele>
        <time>2024-08-14T08:10:43Z</time>
      </trkpt>
      <trkpt lat="47.25702" lon="2.75803">
        <ele>195</ele>
        <time>2024-08-14T08:10:45Z</time>
      </trkpt>
      <trkpt lat="47.25689" lon="2.75806">
        <ele>196</ele>
        <time>2024-08-14T08:10:48Z</time>
      </trkpt>
      <trkpt lat="47.25676" lon="2.75811">
        <ele>197.2</ele>
        <time>2024-08-14T08:10:51Z</time>
      </trkpt>
      <trkpt lat="47.25667" lon="2.75815">
        <ele>197.6</ele>
        <time>2024-08-14T08:10:53Z</time>
      </trkpt>
      <trkpt lat="47.2566" lon="2.75817">
        <ele>198</ele>
        <time>2024-08-14T08:10:55Z</time>
      </trkpt>
      <trkpt lat="47.25656" lon="2.75818">
        <ele>198.4</ele>
        <time>2024-08-14T08:10:56Z</time>
      </trkpt>
      <trkpt lat="47.25638" lon="2.75823">
        <ele>199.4</ele>
        <time>2024-08-14T08:11:00Z</time>
      </trkpt>
      <trkpt lat="47.25619" lon="2.75827">
        <ele>200.2</ele>
        <time>2024-08-14T08:11:04Z</time>
      </trkpt>
      <trkpt lat="47.25597" lon="2.75832">
        <ele>200.4</ele>
        <time>2024-08-14T08:11:08Z</time>
      </trkpt>
      <trkpt lat="47.25591" lon="2.75835">
        <ele>200.4</ele>
        <time>2024-08-14T08:11:09Z</time>
      </trkpt>
      <trkpt lat="47.25559" lon="2.75856">
        <ele>199.8</ele>
        <time>2024-08-14T08:11:14Z</time>
      </trkpt>
      <trkpt lat="47.25515" lon="2.75884">
        <ele>198.4</ele>
        <time>2024-08-14T08:11:20Z</time>
      </trkpt>
      <trkpt lat="47.25502" lon="2.75892">
        <ele>198</ele>
        <time>2024-08-14T08:11:22Z</time>
      </trkpt>
      <trkpt lat="47.25471" lon="2.75912">
        <ele>196.8</ele>
        <time>2024-08-14T08:11:26Z</time>
      </trkpt>
      <trkpt lat="47.2545" lon="2.75924">
        <ele>196.2</ele>
        <time>2024-08-14T08:11:29Z</time>
      </trkpt>
      <trkpt lat="47.25428" lon="2.75938">
        <ele>195.6</ele>
        <time>2024-08-14T08:11:32Z</time>
      </trkpt>
      <trkpt lat="47.254" lon="2.75956">
        <ele>195</ele>
        <time>2024-08-14T08:11:36Z</time>
      </trkpt>
      <trkpt lat="47.25353" lon="2.75983">
        <ele>195.2</ele>
        <time>2024-08-14T08:11:43Z</time>
      </trkpt>
      <trkpt lat="47.25339" lon="2.7599">
        <ele>194.8</ele>
        <time>2024-08-14T08:11:45Z</time>
      </trkpt>
      <trkpt lat="47.25313" lon="2.76008">
        <ele>194.8</ele>
        <time>2024-08-14T08:11:49Z</time>
      </trkpt>
      <trkpt lat="47.25295" lon="2.7602">
        <ele>194.6</ele>
        <time>2024-08-14T08:11:52Z</time>
      </trkpt>
      <trkpt lat="47.25281" lon="2.76029">
        <ele>194.6</ele>
        <time>2024-08-14T08:11:54Z</time>
      </trkpt>
      <trkpt lat="47.25275" lon="2.76031">
        <ele>194.8</ele>
        <time>2024-08-14T08:11:55Z</time>
      </trkpt>
      <trkpt lat="47.25241" lon="2.76037">
        <ele>194.8</ele>
        <time>2024-08-14T08:12:00Z</time>
      </trkpt>
      <trkpt lat="47.25228" lon="2.76042">
        <ele>195</ele>
        <time>2024-08-14T08:12:02Z</time>
      </trkpt>
      <trkpt lat="47.25217" lon="2.76051">
        <ele>195</ele>
        <time>2024-08-14T08:12:04Z</time>
      </trkpt>
      <trkpt lat="47.25191" lon="2.7608">
        <ele>195.2</ele>
        <time>2024-08-14T08:12:09Z</time>
      </trkpt>
      <trkpt lat="47.25166" lon="2.76099">
        <ele>195.6</ele>
        <time>2024-08-14T08:12:14Z</time>
      </trkpt>
      <trkpt lat="47.25156" lon="2.76104">
        <ele>196</ele>
        <time>2024-08-14T08:12:16Z</time>
      </trkpt>
      <trkpt lat="47.25143" lon="2.76112">
        <ele>196.4</ele>
        <time>2024-08-14T08:12:19Z</time>
      </trkpt>
      <trkpt lat="47.25132" lon="2.76118">
        <ele>197</ele>
        <time>2024-08-14T08:12:21Z</time>
      </trkpt>
      <trkpt lat="47.25107" lon="2.76137">
        <ele>198</ele>
        <time>2024-08-14T08:12:27Z</time>
      </trkpt>
      <trkpt lat="47.25098" lon="2.76142">
        <ele>198.4</ele>
        <time>2024-08-14T08:12:29Z</time>
      </trkpt>
      <trkpt lat="47.25085" lon="2.76151">
        <ele>199.4</ele>
        <time>2024-08-14T08:12:32Z</time>
      </trkpt>
      <trkpt lat="47.25067" lon="2.76165">
        <ele>200.6</ele>
        <time>2024-08-14T08:12:36Z</time>
      </trkpt>
      <trkpt lat="47.25063" lon="2.76168">
        <ele>200.8</ele>
        <time>2024-08-14T08:12:37Z</time>
      </trkpt>
      <trkpt lat="47.25056" lon="2.76177">
        <ele>201.8</ele>
        <time>2024-08-14T08:12:39Z</time>
      </trkpt>
      <trkpt lat="47.2504" lon="2.76196">
        <ele>202.6</ele>
        <time>2024-08-14T08:12:43Z</time>
      </trkpt>
      <trkpt lat="47.25036" lon="2.76201">
        <ele>202.8</ele>
        <time>2024-08-14T08:12:44Z</time>
      </trkpt>
      <trkpt lat="47.25021" lon="2.76223">
        <ele>203.8</ele>
        <time>2024-08-14T08:12:48Z</time>
      </trkpt>
      <trkpt lat="47.25014" lon="2.76233">
        <ele>204.6</ele>
        <time>2024-08-14T08:12:50Z</time>
      </trkpt>
      <trkpt lat="47.25006" lon="2.76244">
        <ele>205</ele>
        <time>2024-08-14T08:12:52Z</time>
      </trkpt>
      <trkpt lat="47.24989" lon="2.7627">
        <ele>204.8</ele>
        <time>2024-08-14T08:12:56Z</time>
      </trkpt>
      <trkpt lat="47.24954" lon="2.76306">
        <ele>204.2</ele>
        <time>2024-08-14T08:13:02Z</time>
      </trkpt>
      <trkpt lat="47.2494" lon="2.76319">
        <ele>203.8</ele>
        <time>2024-08-14T08:13:04Z</time>
      </trkpt>
      <trkpt lat="47.2492" lon="2.76339">
        <ele>202.6</ele>
        <time>2024-08-14T08:13:07Z</time>
      </trkpt>
      <trkpt lat="47.24907" lon="2.76351">
        <ele>202.4</ele>
        <time>2024-08-14T08:13:09Z</time>
      </trkpt>
      <trkpt lat="47.24873" lon="2.76382">
        <ele>201.8</ele>
        <time>2024-08-14T08:13:14Z</time>
      </trkpt>
      <trkpt lat="47.2484" lon="2.76415">
        <ele>201</ele>
        <time>2024-08-14T08:13:19Z</time>
      </trkpt>
      <trkpt lat="47.24819" lon="2.76435">
        <ele>200.6</ele>
        <time>2024-08-14T08:13:22Z</time>
      </trkpt>
      <trkpt lat="47.24782" lon="2.7647">
        <ele>200.2</ele>
        <time>2024-08-14T08:13:28Z</time>
      </trkpt>
      <trkpt lat="47.24752" lon="2.76501">
        <ele>200.2</ele>
        <time>2024-08-14T08:13:33Z</time>
      </trkpt>
      <trkpt lat="47.2474" lon="2.76515">
        <ele>200.2</ele>
        <time>2024-08-14T08:13:35Z</time>
      </trkpt>
      <trkpt lat="47.24704" lon="2.76571">
        <ele>199.6</ele>
        <time>2024-08-14T08:13:42Z</time>
      </trkpt>
      <trkpt lat="47.24689" lon="2.76593">
        <ele>198.6</ele>
        <time>2024-08-14T08:13:45Z</time>
      </trkpt>
      <trkpt lat="47.24669" lon="2.76622">
        <ele>198.6</ele>
        <time>2024-08-14T08:13:49Z</time>
      </trkpt>
      <trkpt lat="47.24665" lon="2.76629">
        <ele>198.6</ele>
        <time>2024-08-14T08:13:50Z</time>
      </trkpt>
      <trkpt lat="47.24635" lon="2.76675">
        <ele>199.2</ele>
        <time>2024-08-14T08:13:57Z</time>
      </trkpt>
      <trkpt lat="47.24605" lon="2.76726">
        <ele>199.4</ele>
        <time>2024-08-14T08:14:03Z</time>
      </trkpt>
      <trkpt lat="47.24578" lon="2.76771">
        <ele>198.2</ele>
        <time>2024-08-14T08:14:08Z</time>
      </trkpt>
      <trkpt lat="47.24561" lon="2.768">
        <ele>197.6</ele>
        <time>2024-08-14T08:14:11Z</time>
      </trkpt>
      <trkpt lat="47.24539" lon="2.76836">
        <ele>196.4</ele>
        <time>2024-08-14T08:14:15Z</time>
      </trkpt>
      <trkpt lat="47.24533" lon="2.76846">
        <ele>196.2</ele>
        <time>2024-08-14T08:14:16Z</time>
      </trkpt>
      <trkpt lat="47.24526" lon="2.76858">
        <ele>195.8</ele>
        <time>2024-08-14T08:14:17Z</time>
      </trkpt>
      <trkpt lat="47.24509" lon="2.76886">
        <ele>195.2</ele>
        <time>2024-08-14T08:14:20Z</time>
      </trkpt>
      <trkpt lat="47.24479" lon="2.76937">
        <ele>193.8</ele>
        <time>2024-08-14T08:14:25Z</time>
      </trkpt>
      <trkpt lat="47.24454" lon="2.76978">
        <ele>192.6</ele>
        <time>2024-08-14T08:14:29Z</time>
      </trkpt>
      <trkpt lat="47.24424" lon="2.77029">
        <ele>191.4</ele>
        <time>2024-08-14T08:14:34Z</time>
      </trkpt>
      <trkpt lat="47.24407" lon="2.7706">
        <ele>190.6</ele>
        <time>2024-08-14T08:14:37Z</time>
      </trkpt>
      <trkpt lat="47.24394" lon="2.7708">
        <ele>190.2</ele>
        <time>2024-08-14T08:14:38Z</time>
      </trkpt>
      <trkpt lat="47.24353" lon="2.77149">
        <ele>188.6</ele>
        <time>2024-08-14T08:14:45Z</time>
      </trkpt>
      <trkpt lat="47.24353" lon="2.77149">
        <ele>188.2</ele>
        <time>2024-08-14T08:14:46Z</time>
      </trkpt>
      <trkpt lat="47.24325" lon="2.77195">
        <ele>187.6</ele>
        <time>2024-08-14T08:14:50Z</time>
      </trkpt>
      <trkpt lat="47.24287" lon="2.77258">
        <ele>186.8</ele>
        <time>2024-08-14T08:14:57Z</time>
      </trkpt>
      <trkpt lat="47.24276" lon="2.77276">
        <ele>186.6</ele>
        <time>2024-08-14T08:14:59Z</time>
      </trkpt>
      <trkpt lat="47.2424" lon="2.77346">
        <ele>185.6</ele>
        <time>2024-08-14T08:15:06Z</time>
      </trkpt>
      <trkpt lat="47.24235" lon="2.77356">
        <ele>185.4</ele>
        <time>2024-08-14T08:15:07Z</time>
      </trkpt>
      <trkpt lat="47.24204" lon="2.77429">
        <ele>184.2</ele>
        <time>2024-08-14T08:15:14Z</time>
      </trkpt>
      <trkpt lat="47.24192" lon="2.77461">
        <ele>183.6</ele>
        <time>2024-08-14T08:15:18Z</time>
      </trkpt>
      <trkpt lat="47.24172" lon="2.77509">
        <ele>182.8</ele>
        <time>2024-08-14T08:15:21Z</time>
      </trkpt>
      <trkpt lat="47.24151" lon="2.7757">
        <ele>182</ele>
        <time>2024-08-14T08:15:26Z</time>
      </trkpt>
      <trkpt lat="47.24148" lon="2.7758">
        <ele>181.6</ele>
        <time>2024-08-14T08:15:27Z</time>
      </trkpt>
      <trkpt lat="47.24132" lon="2.77629">
        <ele>180.6</ele>
        <time>2024-08-14T08:15:31Z</time>
      </trkpt>
      <trkpt lat="47.24113" lon="2.77676">
        <ele>179.6</ele>
        <time>2024-08-14T08:15:35Z</time>
      </trkpt>
      <trkpt lat="47.24084" lon="2.77731">
        <ele>178.8</ele>
        <time>2024-08-14T08:15:41Z</time>
      </trkpt>
      <trkpt lat="47.24049" lon="2.77792">
        <ele>178.6</ele>
        <time>2024-08-14T08:15:48Z</time>
      </trkpt>
      <trkpt lat="47.24009" lon="2.77852">
        <ele>179</ele>
        <time>2024-08-14T08:15:56Z</time>
      </trkpt>
      <trkpt lat="47.24004" lon="2.77859">
        <ele>179</ele>
        <time>2024-08-14T08:15:57Z</time>
      </trkpt>
      <trkpt lat="47.2396" lon="2.77918">
        <ele>178.8</ele>
        <time>2024-08-14T08:16:05Z</time>
      </trkpt>
      <trkpt lat="47.2395" lon="2.77934">
        <ele>178.4</ele>
        <time>2024-08-14T08:16:07Z</time>
      </trkpt>
      <trkpt lat="47.23913" lon="2.77999">
        <ele>177.6</ele>
        <time>2024-08-14T08:16:15Z</time>
      </trkpt>
      <trkpt lat="47.23874" lon="2.78068">
        <ele>177.6</ele>
        <time>2024-08-14T08:16:23Z</time>
      </trkpt>
      <trkpt lat="47.23869" lon="2.78077">
        <ele>177.4</ele>
        <time>2024-08-14T08:16:25Z</time>
      </trkpt>
      <trkpt lat="47.2385" lon="2.78113">
        <ele>176.8</ele>
        <time>2024-08-14T08:16:28Z</time>
      </trkpt>
      <trkpt lat="47.23839" lon="2.7813">
        <ele>176.2</ele>
        <time>2024-08-14T08:16:30Z</time>
      </trkpt>
      <trkpt lat="47.23805" lon="2.78191">
        <ele>175.4</ele>
        <time>2024-08-14T08:16:37Z</time>
      </trkpt>
      <trkpt lat="47.238" lon="2.78199">
        <ele>175.2</ele>
        <time>2024-08-14T08:16:38Z</time>
      </trkpt>
      <trkpt lat="47.23763" lon="2.78252">
        <ele>174.8</ele>
        <time>2024-08-14T08:16:46Z</time>
      </trkpt>
      <trkpt lat="47.2372" lon="2.78308">
        <ele>174.4</ele>
        <time>2024-08-14T08:16:53Z</time>
      </trkpt>
      <trkpt lat="47.2372" lon="2.78308">
        <ele>174.2</ele>
        <time>2024-08-14T08:16:54Z</time>
      </trkpt>
      <trkpt lat="47.23672" lon="2.78359">
        <ele>173.8</ele>
        <time>2024-08-14T08:17:01Z</time>
      </trkpt>
      <trkpt lat="47.23666" lon="2.78365">
        <ele>173.6</ele>
        <time>2024-08-14T08:17:02Z</time>
      </trkpt>
      <trkpt lat="47.23619" lon="2.78417">
        <ele>173.2</ele>
        <time>2024-08-14T08:17:10Z</time>
      </trkpt>
      <trkpt lat="47.23615" lon="2.78422">
        <ele>173.2</ele>
        <time>2024-08-14T08:17:11Z</time>
      </trkpt>
      <trkpt lat="47.23609" lon="2.7843">
        <ele>173</ele>
        <time>2024-08-14T08:17:12Z</time>
      </trkpt>
      <trkpt lat="47.23594" lon="2.78459">
        <ele>172.2</ele>
        <time>2024-08-14T08:17:15Z</time>
      </trkpt>
      <trkpt lat="47.2359" lon="2.78466">
        <ele>172</ele>
        <time>2024-08-14T08:17:16Z</time>
      </trkpt>
      <trkpt lat="47.23581" lon="2.78482">
        <ele>171.6</ele>
        <time>2024-08-14T08:17:18Z</time>
      </trkpt>
      <trkpt lat="47.23575" lon="2.78493">
        <ele>170.6</ele>
        <time>2024-08-14T08:17:20Z</time>
      </trkpt>
      <trkpt lat="47.23567" lon="2.78507">
        <ele>169.6</ele>
        <time>2024-08-14T08:17:22Z</time>
      </trkpt>
      <trkpt lat="47.23557" lon="2.7852">
        <ele>168.6</ele>
        <time>2024-08-14T08:17:24Z</time>
      </trkpt>
      <trkpt lat="47.23553" lon="2.78525">
        <ele>168.4</ele>
        <time>2024-08-14T08:17:25Z</time>
      </trkpt>
      <trkpt lat="47.23528" lon="2.78556">
        <ele>167.6</ele>
        <time>2024-08-14T08:17:30Z</time>
      </trkpt>
      <trkpt lat="47.23521" lon="2.78563">
        <ele>167.4</ele>
        <time>2024-08-14T08:17:31Z</time>
      </trkpt>
      <trkpt lat="47.23489" lon="2.78596">
        <ele>167.2</ele>
        <time>2024-08-14T08:17:37Z</time>
      </trkpt>
      <trkpt lat="47.23464" lon="2.78613">
        <ele>167.6</ele>
        <time>2024-08-14T08:17:42Z</time>
      </trkpt>
      <trkpt lat="47.2346" lon="2.78615">
        <ele>167.8</ele>
        <time>2024-08-14T08:17:43Z</time>
      </trkpt>
      <trkpt lat="47.2345" lon="2.78621">
        <ele>168.4</ele>
        <time>2024-08-14T08:17:45Z</time>
      </trkpt>
      <trkpt lat="47.23436" lon="2.78628">
        <ele>169.2</ele>
        <time>2024-08-14T08:17:48Z</time>
      </trkpt>
      <trkpt lat="47.23427" lon="2.78632">
        <ele>169.8</ele>
        <time>2024-08-14T08:17:50Z</time>
      </trkpt>
      <trkpt lat="47.23419" lon="2.78635">
        <ele>170.4</ele>
        <time>2024-08-14T08:17:52Z</time>
      </trkpt>
      <trkpt lat="47.23409" lon="2.7864">
        <ele>171</ele>
        <time>2024-08-14T08:17:54Z</time>
      </trkpt>
      <trkpt lat="47.23397" lon="2.78645">
        <ele>172.2</ele>
        <time>2024-08-14T08:17:57Z</time>
      </trkpt>
      <trkpt lat="47.23378" lon="2.78653">
        <ele>173.4</ele>
        <time>2024-08-14T08:18:01Z</time>
      </trkpt>
      <trkpt lat="47.23355" lon="2.78665">
        <ele>174.4</ele>
        <time>2024-08-14T08:18:06Z</time>
      </trkpt>
      <trkpt lat="47.23339" lon="2.78671">
        <ele>175.2</ele>
        <time>2024-08-14T08:18:09Z</time>
      </trkpt>
      <trkpt lat="47.23335" lon="2.78673">
        <ele>175.6</ele>
        <time>2024-08-14T08:18:11Z</time>
      </trkpt>
      <trkpt lat="47.23305" lon="2.78683">
        <ele>176.2</ele>
        <time>2024-08-14T08:18:16Z</time>
      </trkpt>
      <trkpt lat="47.233" lon="2.78685">
        <ele>176.2</ele>
        <time>2024-08-14T08:18:17Z</time>
      </trkpt>
      <trkpt lat="47.23285" lon="2.7869">
        <ele>176.6</ele>
        <time>2024-08-14T08:18:20Z</time>
      </trkpt>
      <trkpt lat="47.23257" lon="2.787">
        <ele>177</ele>
        <time>2024-08-14T08:18:25Z</time>
      </trkpt>
      <trkpt lat="47.23213" lon="2.78715">
        <ele>177.4</ele>
        <time>2024-08-14T08:18:32Z</time>
      </trkpt>
      <trkpt lat="47.23162" lon="2.78732">
        <ele>177.4</ele>
        <time>2024-08-14T08:18:40Z</time>
      </trkpt>
      <trkpt lat="47.23116" lon="2.78748">
        <ele>177.6</ele>
        <time>2024-08-14T08:18:48Z</time>
      </trkpt>
      <trkpt lat="47.2311" lon="2.7875">
        <ele>177.6</ele>
        <time>2024-08-14T08:18:49Z</time>
      </trkpt>
      <trkpt lat="47.23091" lon="2.78757">
        <ele>178.2</ele>
        <time>2024-08-14T08:18:53Z</time>
      </trkpt>
      <trkpt lat="47.23086" lon="2.78759">
        <ele>178.4</ele>
        <time>2024-08-14T08:18:54Z</time>
      </trkpt>
      <trkpt lat="47.23077" lon="2.78763">
        <ele>178.6</ele>
        <time>2024-08-14T08:18:56Z</time>
      </trkpt>
      <trkpt lat="47.23058" lon="2.78768">
        <ele>179.4</ele>
        <time>2024-08-14T08:19:00Z</time>
      </trkpt>
      <trkpt lat="47.23048" lon="2.78772">
        <ele>179.8</ele>
        <time>2024-08-14T08:19:02Z</time>
      </trkpt>
      <trkpt lat="47.2304" lon="2.78773">
        <ele>180.4</ele>
        <time>2024-08-14T08:19:04Z</time>
      </trkpt>
      <trkpt lat="47.23035" lon="2.78775">
        <ele>180.8</ele>
        <time>2024-08-14T08:19:05Z</time>
      </trkpt>
      <trkpt lat="47.23026" lon="2.78778">
        <ele>181.4</ele>
        <time>2024-08-14T08:19:07Z</time>
      </trkpt>
      <trkpt lat="47.23013" lon="2.78782">
        <ele>182</ele>
        <time>2024-08-14T08:19:10Z</time>
      </trkpt>
      <trkpt lat="47.22995" lon="2.78787">
        <ele>182.8</ele>
        <time>2024-08-14T08:19:14Z</time>
      </trkpt>
      <trkpt lat="47.22995" lon="2.78787">
        <ele>183.2</ele>
        <time>2024-08-14T08:19:15Z</time>
      </trkpt>
      <trkpt lat="47.22974" lon="2.78796">
        <ele>184.2</ele>
        <time>2024-08-14T08:19:19Z</time>
      </trkpt>
      <trkpt lat="47.22957" lon="2.78803">
        <ele>185.2</ele>
        <time>2024-08-14T08:19:23Z</time>
      </trkpt>
      <trkpt lat="47.22952" lon="2.78804">
        <ele>185.4</ele>
        <time>2024-08-14T08:19:24Z</time>
      </trkpt>
      <trkpt lat="47.22938" lon="2.7881">
        <ele>186.4</ele>
        <time>2024-08-14T08:19:27Z</time>
      </trkpt>
      <trkpt lat="47.22915" lon="2.78817">
        <ele>187.6</ele>
        <time>2024-08-14T08:19:32Z</time>
      </trkpt>
      <trkpt lat="47.22892" lon="2.78823">
        <ele>188.8</ele>
        <time>2024-08-14T08:19:37Z</time>
      </trkpt>
      <trkpt lat="47.22874" lon="2.78827">
        <ele>189.8</ele>
        <time>2024-08-14T08:19:41Z</time>
      </trkpt>
      <trkpt lat="47.2287" lon="2.78828">
        <ele>190</ele>
        <time>2024-08-14T08:19:42Z</time>
      </trkpt>
      <trkpt lat="47.22829" lon="2.78839">
        <ele>191.2</ele>
        <time>2024-08-14T08:19:51Z</time>
      </trkpt>
      <trkpt lat="47.22824" lon="2.7884">
        <ele>191.2</ele>
        <time>2024-08-14T08:19:52Z</time>
      </trkpt>
      <trkpt lat="47.22787" lon="2.78852">
        <ele>191.8</ele>
        <time>2024-08-14T08:19:59Z</time>
      </trkpt>
      <trkpt lat="47.22773" lon="2.78859">
        <ele>192</ele>
        <time>2024-08-14T08:20:02Z</time>
      </trkpt>
      <trkpt lat="47.2275" lon="2.78873">
        <ele>192</ele>
        <time>2024-08-14T08:20:06Z</time>
      </trkpt>
      <trkpt lat="47.22733" lon="2.78888">
        <ele>192</ele>
        <time>2024-08-14T08:20:09Z</time>
      </trkpt>
      <trkpt lat="47.2272" lon="2.78902">
        <ele>191.8</ele>
        <time>2024-08-14T08:20:11Z</time>
      </trkpt>
      <trkpt lat="47.22693" lon="2.7894">
        <ele>190.8</ele>
        <time>2024-08-14T08:20:16Z</time>
      </trkpt>
      <trkpt lat="47.22676" lon="2.78967">
        <ele>190</ele>
        <time>2024-08-14T08:20:19Z</time>
      </trkpt>
      <trkpt lat="47.22676" lon="2.78967">
        <ele>189.8</ele>
        <time>2024-08-14T08:20:20Z</time>
      </trkpt>
      <trkpt lat="47.22658" lon="2.78995">
        <ele>188.8</ele>
        <time>2024-08-14T08:20:22Z</time>
      </trkpt>
      <trkpt lat="47.22632" lon="2.79036">
        <ele>187.6</ele>
        <time>2024-08-14T08:20:26Z</time>
      </trkpt>
      <trkpt lat="47.22621" lon="2.79054">
        <ele>187</ele>
        <time>2024-08-14T08:20:28Z</time>
      </trkpt>
      <trkpt lat="47.22607" lon="2.79074">
        <ele>186.6</ele>
        <time>2024-08-14T08:20:30Z</time>
      </trkpt>
      <trkpt lat="47.22578" lon="2.7912">
        <ele>185.4</ele>
        <time>2024-08-14T08:20:36Z</time>
      </trkpt>
      <trkpt lat="47.22551" lon="2.7916">
        <ele>184.8</ele>
        <time>2024-08-14T08:20:40Z</time>
      </trkpt>
      <trkpt lat="47.22517" lon="2.79201">
        <ele>184.8</ele>
        <time>2024-08-14T08:20:46Z</time>
      </trkpt>
      <trkpt lat="47.22484" lon="2.79239">
        <ele>185</ele>
        <time>2024-08-14T08:20:52Z</time>
      </trkpt>
      <trkpt lat="47.22475" lon="2.79249">
        <ele>185.6</ele>
        <time>2024-08-14T08:20:54Z</time>
      </trkpt>
      <trkpt lat="47.22453" lon="2.79273">
        <ele>186</ele>
        <time>2024-08-14T08:20:58Z</time>
      </trkpt>
      <trkpt lat="47.22439" lon="2.79289">
        <ele>186.6</ele>
        <time>2024-08-14T08:21:01Z</time>
      </trkpt>
      <trkpt lat="47.22397" lon="2.79328">
        <ele>187.4</ele>
        <time>2024-08-14T08:21:08Z</time>
      </trkpt>
      <trkpt lat="47.22359" lon="2.79348">
        <ele>187.4</ele>
        <time>2024-08-14T08:21:14Z</time>
      </trkpt>
      <trkpt lat="47.22321" lon="2.79358">
        <ele>187.2</ele>
        <time>2024-08-14T08:21:19Z</time>
      </trkpt>
      <trkpt lat="47.22305" lon="2.79369">
        <ele>186.8</ele>
        <time>2024-08-14T08:21:21Z</time>
      </trkpt>
      <trkpt lat="47.22291" lon="2.79383">
        <ele>186.4</ele>
        <time>2024-08-14T08:21:23Z</time>
      </trkpt>
      <trkpt lat="47.22267" lon="2.79412">
        <ele>185.2</ele>
        <time>2024-08-14T08:21:26Z</time>
      </trkpt>
      <trkpt lat="47.22258" lon="2.79421">
        <ele>184.2</ele>
        <time>2024-08-14T08:21:28Z</time>
      </trkpt>
      <trkpt lat="47.22239" lon="2.79438">
        <ele>183.6</ele>
        <time>2024-08-14T08:21:29Z</time>
      </trkpt>
      <trkpt lat="47.22217" lon="2.79456">
        <ele>182</ele>
        <time>2024-08-14T08:21:31Z</time>
      </trkpt>
      <trkpt lat="47.22197" lon="2.79472">
        <ele>180.8</ele>
        <time>2024-08-14T08:21:33Z</time>
      </trkpt>
      <trkpt lat="47.22179" lon="2.79486">
        <ele>179</ele>
        <time>2024-08-14T08:21:35Z</time>
      </trkpt>
      <trkpt lat="47.22169" lon="2.79494">
        <ele>177.6</ele>
        <time>2024-08-14T08:21:36Z</time>
      </trkpt>
      <trkpt lat="47.22137" lon="2.79519">
        <ele>176.2</ele>
        <time>2024-08-14T08:21:39Z</time>
      </trkpt>
      <trkpt lat="47.22137" lon="2.79519">
        <ele>175.8</ele>
        <time>2024-08-14T08:21:40Z</time>
      </trkpt>
      <trkpt lat="47.22119" lon="2.79532">
        <ele>174.6</ele>
        <time>2024-08-14T08:21:41Z</time>
      </trkpt>
      <trkpt lat="47.22082" lon="2.7956">
        <ele>173.4</ele>
        <time>2024-08-14T08:21:45Z</time>
      </trkpt>
      <trkpt lat="47.22064" lon="2.79575">
        <ele>172.8</ele>
        <time>2024-08-14T08:21:47Z</time>
      </trkpt>
      <trkpt lat="47.22039" lon="2.79594">
        <ele>172.4</ele>
        <time>2024-08-14T08:21:50Z</time>
      </trkpt>
      <trkpt lat="47.22022" lon="2.79607">
        <ele>172.2</ele>
        <time>2024-08-14T08:21:52Z</time>
      </trkpt>
      <trkpt lat="47.21982" lon="2.79638">
        <ele>172.2</ele>
        <time>2024-08-14T08:21:58Z</time>
      </trkpt>
      <trkpt lat="47.21939" lon="2.79671">
        <ele>172.8</ele>
        <time>2024-08-14T08:22:05Z</time>
      </trkpt>
      <trkpt lat="47.21914" lon="2.7969">
        <ele>173.2</ele>
        <time>2024-08-14T08:22:09Z</time>
      </trkpt>
      <trkpt lat="47.21896" lon="2.79704">
        <ele>173.4</ele>
        <time>2024-08-14T08:22:12Z</time>
      </trkpt>
      <trkpt lat="47.2189" lon="2.79708">
        <ele>173.4</ele>
        <time>2024-08-14T08:22:13Z</time>
      </trkpt>
      <trkpt lat="47.21855" lon="2.79734">
        <ele>174.4</ele>
        <time>2024-08-14T08:22:19Z</time>
      </trkpt>
      <trkpt lat="47.2185" lon="2.79739">
        <ele>175</ele>
        <time>2024-08-14T08:22:20Z</time>
      </trkpt>
      <trkpt lat="47.21845" lon="2.79743">
        <ele>175.4</ele>
        <time>2024-08-14T08:22:22Z</time>
      </trkpt>
      <trkpt lat="47.21806" lon="2.79771">
        <ele>176.6</ele>
        <time>2024-08-14T08:22:28Z</time>
      </trkpt>
      <trkpt lat="47.218" lon="2.79776">
        <ele>176.6</ele>
        <time>2024-08-14T08:22:29Z</time>
      </trkpt>
      <trkpt lat="47.21767" lon="2.79797">
        <ele>176.8</ele>
        <time>2024-08-14T08:22:34Z</time>
      </trkpt>
      <trkpt lat="47.21719" lon="2.79828">
        <ele>176</ele>
        <time>2024-08-14T08:22:40Z</time>
      </trkpt>
      <trkpt lat="47.2171" lon="2.79834">
        <ele>175.4</ele>
        <time>2024-08-14T08:22:41Z</time>
      </trkpt>
      <trkpt lat="47.21691" lon="2.79845">
        <ele>174.4</ele>
        <time>2024-08-14T08:22:43Z</time>
      </trkpt>
      <trkpt lat="47.21661" lon="2.79865">
        <ele>173</ele>
        <time>2024-08-14T08:22:46Z</time>
      </trkpt>
      <trkpt lat="47.21631" lon="2.79884">
        <ele>171.2</ele>
        <time>2024-08-14T08:22:49Z</time>
      </trkpt>
      <trkpt lat="47.21611" lon="2.79897">
        <ele>170</ele>
        <time>2024-08-14T08:22:51Z</time>
      </trkpt>
      <trkpt lat="47.21592" lon="2.79909">
        <ele>169.2</ele>
        <time>2024-08-14T08:22:54Z</time>
      </trkpt>
      <trkpt lat="47.21573" lon="2.79922">
        <ele>168.8</ele>
        <time>2024-08-14T08:22:55Z</time>
      </trkpt>
      <trkpt lat="47.21529" lon="2.79951">
        <ele>168</ele>
        <time>2024-08-14T08:23:00Z</time>
      </trkpt>
      <trkpt lat="47.2152" lon="2.79956">
        <ele>167.8</ele>
        <time>2024-08-14T08:23:01Z</time>
      </trkpt>
      <trkpt lat="47.21479" lon="2.79982">
        <ele>167.4</ele>
        <time>2024-08-14T08:23:06Z</time>
      </trkpt>
      <trkpt lat="47.21442" lon="2.80006">
        <ele>167.2</ele>
        <time>2024-08-14T08:23:12Z</time>
      </trkpt>
      <trkpt lat="47.21389" lon="2.80039">
        <ele>167.4</ele>
        <time>2024-08-14T08:23:19Z</time>
      </trkpt>
      <trkpt lat="47.21381" lon="2.80044">
        <ele>167.6</ele>
        <time>2024-08-14T08:23:20Z</time>
      </trkpt>
      <trkpt lat="47.21345" lon="2.80067">
        <ele>167.8</ele>
        <time>2024-08-14T08:23:26Z</time>
      </trkpt>
      <trkpt lat="47.21306" lon="2.80093">
        <ele>168.2</ele>
        <time>2024-08-14T08:23:33Z</time>
      </trkpt>
      <trkpt lat="47.2129" lon="2.80105">
        <ele>168.8</ele>
        <time>2024-08-14T08:23:36Z</time>
      </trkpt>
      <trkpt lat="47.21284" lon="2.80108">
        <ele>169</ele>
        <time>2024-08-14T08:23:37Z</time>
      </trkpt>
      <trkpt lat="47.21273" lon="2.80114">
        <ele>169.4</ele>
        <time>2024-08-14T08:23:39Z</time>
      </trkpt>
      <trkpt lat="47.21246" lon="2.80135">
        <ele>170.4</ele>
        <time>2024-08-14T08:23:44Z</time>
      </trkpt>
      <trkpt lat="47.21241" lon="2.80139">
        <ele>170.6</ele>
        <time>2024-08-14T08:23:45Z</time>
      </trkpt>
      <trkpt lat="47.21232" lon="2.80147">
        <ele>170.8</ele>
        <time>2024-08-14T08:23:47Z</time>
      </trkpt>
      <trkpt lat="47.21221" lon="2.80154">
        <ele>170.8</ele>
        <time>2024-08-14T08:23:49Z</time>
      </trkpt>
      <trkpt lat="47.21216" lon="2.80159">
        <ele>170.8</ele>
        <time>2024-08-14T08:23:50Z</time>
      </trkpt>
      <trkpt lat="47.21176" lon="2.80213">
        <ele>171</ele>
        <time>2024-08-14T08:23:59Z</time>
      </trkpt>
      <trkpt lat="47.21158" lon="2.80238">
        <ele>171.4</ele>
        <time>2024-08-14T08:24:03Z</time>
      </trkpt>
      <trkpt lat="47.21141" lon="2.80264">
        <ele>171.8</ele>
        <time>2024-08-14T08:24:07Z</time>
      </trkpt>
      <trkpt lat="47.21108" lon="2.80317">
        <ele>172.2</ele>
        <time>2024-08-14T08:24:15Z</time>
      </trkpt>
      <trkpt lat="47.21078" lon="2.80372">
        <ele>172.2</ele>
        <time>2024-08-14T08:24:22Z</time>
      </trkpt>
      <trkpt lat="47.21056" lon="2.80434">
        <ele>171.4</ele>
        <time>2024-08-14T08:24:28Z</time>
      </trkpt>
      <trkpt lat="47.21046" lon="2.80468">
        <ele>170.4</ele>
        <time>2024-08-14T08:24:31Z</time>
      </trkpt>
      <trkpt lat="47.21034" lon="2.80516">
        <ele>170</ele>
        <time>2024-08-14T08:24:35Z</time>
      </trkpt>
      <trkpt lat="47.21024" lon="2.80553">
        <ele>169.2</ele>
        <time>2024-08-14T08:24:38Z</time>
      </trkpt>
      <trkpt lat="47.21012" lon="2.80599">
        <ele>168.2</ele>
        <time>2024-08-14T08:24:42Z</time>
      </trkpt>
      <trkpt lat="47.21008" lon="2.80612">
        <ele>168</ele>
        <time>2024-08-14T08:24:43Z</time>
      </trkpt>
      <trkpt lat="47.20997" lon="2.80654">
        <ele>167.6</ele>
        <time>2024-08-14T08:24:47Z</time>
      </trkpt>
      <trkpt lat="47.20981" lon="2.80721">
        <ele>167.6</ele>
        <time>2024-08-14T08:24:54Z</time>
      </trkpt>
      <trkpt lat="47.20974" lon="2.80757">
        <ele>168</ele>
        <time>2024-08-14T08:24:58Z</time>
      </trkpt>
      <trkpt lat="47.20974" lon="2.80775">
        <ele>168.2</ele>
        <time>2024-08-14T08:25:00Z</time>
      </trkpt>
      <trkpt lat="47.20972" lon="2.80863">
        <ele>168.4</ele>
        <time>2024-08-14T08:25:09Z</time>
      </trkpt>
      <trkpt lat="47.20972" lon="2.80873">
        <ele>168.4</ele>
        <time>2024-08-14T08:25:10Z</time>
      </trkpt>
      <trkpt lat="47.20968" lon="2.80892">
        <ele>168.2</ele>
        <time>2024-08-14T08:25:12Z</time>
      </trkpt>
      <trkpt lat="47.20964" lon="2.809">
        <ele>168.2</ele>
        <time>2024-08-14T08:25:13Z</time>
      </trkpt>
      <trkpt lat="47.2094" lon="2.80954">
        <ele>167.4</ele>
        <time>2024-08-14T08:25:20Z</time>
      </trkpt>
      <trkpt lat="47.20932" lon="2.80972">
        <ele>167</ele>
        <time>2024-08-14T08:25:23Z</time>
      </trkpt>
      <trkpt lat="47.20928" lon="2.80987">
        <ele>167</ele>
        <time>2024-08-14T08:25:24Z</time>
      </trkpt>
      <trkpt lat="47.20926" lon="2.80996">
        <ele>167</ele>
        <time>2024-08-14T08:25:25Z</time>
      </trkpt>
      <trkpt lat="47.2092" lon="2.81008">
        <ele>166.4</ele>
        <time>2024-08-14T08:25:27Z</time>
      </trkpt>
      <trkpt lat="47.20915" lon="2.81011">
        <ele>166.4</ele>
        <time>2024-08-14T08:25:28Z</time>
      </trkpt>
      <trkpt lat="47.20908" lon="2.81012">
        <ele>166</ele>
        <time>2024-08-14T08:25:29Z</time>
      </trkpt>
      <trkpt lat="47.20902" lon="2.81011">
        <ele>165.8</ele>
        <time>2024-08-14T08:25:30Z</time>
      </trkpt>
      <trkpt lat="47.20894" lon="2.81009">
        <ele>165.4</ele>
        <time>2024-08-14T08:25:31Z</time>
      </trkpt>
      <trkpt lat="47.20879" lon="2.81005">
        <ele>164.6</ele>
        <time>2024-08-14T08:25:33Z</time>
      </trkpt>
      <trkpt lat="47.20854" lon="2.80997">
        <ele>163.6</ele>
        <time>2024-08-14T08:25:36Z</time>
      </trkpt>
      <trkpt lat="47.20845" lon="2.80994">
        <ele>163.2</ele>
        <time>2024-08-14T08:25:37Z</time>
      </trkpt>
      <trkpt lat="47.2081" lon="2.80982">
        <ele>161.8</ele>
        <time>2024-08-14T08:25:41Z</time>
      </trkpt>
      <trkpt lat="47.20792" lon="2.80978">
        <ele>161.2</ele>
        <time>2024-08-14T08:25:43Z</time>
      </trkpt>
      <trkpt lat="47.20784" lon="2.80978">
        <ele>161</ele>
        <time>2024-08-14T08:25:44Z</time>
      </trkpt>
      <trkpt lat="47.20776" lon="2.80978">
        <ele>160.8</ele>
        <time>2024-08-14T08:25:45Z</time>
      </trkpt>
      <trkpt lat="47.20767" lon="2.80979">
        <ele>160.6</ele>
        <time>2024-08-14T08:25:46Z</time>
      </trkpt>
      <trkpt lat="47.20759" lon="2.80982">
        <ele>160.4</ele>
        <time>2024-08-14T08:25:47Z</time>
      </trkpt>
      <trkpt lat="47.20719" lon="2.80997">
        <ele>159.6</ele>
        <time>2024-08-14T08:25:52Z</time>
      </trkpt>
      <trkpt lat="47.20704" lon="2.81004">
        <ele>159.6</ele>
        <time>2024-08-14T08:25:54Z</time>
      </trkpt>
      <trkpt lat="47.20651" lon="2.81029">
        <ele>159.6</ele>
        <time>2024-08-14T08:26:01Z</time>
      </trkpt>
      <trkpt lat="47.20644" lon="2.81032">
        <ele>159.4</ele>
        <time>2024-08-14T08:26:02Z</time>
      </trkpt>
      <trkpt lat="47.20586" lon="2.81059">
        <ele>159.2</ele>
        <time>2024-08-14T08:26:10Z</time>
      </trkpt>
      <trkpt lat="47.20572" lon="2.81066">
        <ele>159.2</ele>
        <time>2024-08-14T08:26:12Z</time>
      </trkpt>
      <trkpt lat="47.20526" lon="2.811">
        <ele>159.2</ele>
        <time>2024-08-14T08:26:19Z</time>
      </trkpt>
      <trkpt lat="47.20477" lon="2.8114">
        <ele>159.2</ele>
        <time>2024-08-14T08:26:27Z</time>
      </trkpt>
      <trkpt lat="47.20465" lon="2.8115">
        <ele>159.4</ele>
        <time>2024-08-14T08:26:29Z</time>
      </trkpt>
      <trkpt lat="47.20423" lon="2.81184">
        <ele>160.2</ele>
        <time>2024-08-14T08:26:36Z</time>
      </trkpt>
      <trkpt lat="47.20397" lon="2.81202">
        <ele>160.8</ele>
        <time>2024-08-14T08:26:41Z</time>
      </trkpt>
      <trkpt lat="47.20388" lon="2.81208">
        <ele>161</ele>
        <time>2024-08-14T08:26:43Z</time>
      </trkpt>
      <trkpt lat="47.2037" lon="2.81219">
        <ele>161.6</ele>
        <time>2024-08-14T08:26:47Z</time>
      </trkpt>
      <trkpt lat="47.20356" lon="2.81225">
        <ele>162</ele>
        <time>2024-08-14T08:26:50Z</time>
      </trkpt>
      <trkpt lat="47.20326" lon="2.81238">
        <ele>162.8</ele>
        <time>2024-08-14T08:26:57Z</time>
      </trkpt>
      <trkpt lat="47.20321" lon="2.81239">
        <ele>163.2</ele>
        <time>2024-08-14T08:26:58Z</time>
      </trkpt>
      <trkpt lat="47.20299" lon="2.81249">
        <ele>164.4</ele>
        <time>2024-08-14T08:27:03Z</time>
      </trkpt>
      <trkpt lat="47.2029" lon="2.81252">
        <ele>164.8</ele>
        <time>2024-08-14T08:27:05Z</time>
      </trkpt>
      <trkpt lat="47.20272" lon="2.81258">
        <ele>165.4</ele>
        <time>2024-08-14T08:27:09Z</time>
      </trkpt>
      <trkpt lat="47.20243" lon="2.81269">
        <ele>166.2</ele>
        <time>2024-08-14T08:27:15Z</time>
      </trkpt>
      <trkpt lat="47.20239" lon="2.81271">
        <ele>166.6</ele>
        <time>2024-08-14T08:27:16Z</time>
      </trkpt>
      <trkpt lat="47.20199" lon="2.81286">
        <ele>167.6</ele>
        <time>2024-08-14T08:27:24Z</time>
      </trkpt>
      <trkpt lat="47.20163" lon="2.81301">
        <ele>168.4</ele>
        <time>2024-08-14T08:27:31Z</time>
      </trkpt>
      <trkpt lat="47.20142" lon="2.81308">
        <ele>168.6</ele>
        <time>2024-08-14T08:27:35Z</time>
      </trkpt>
      <trkpt lat="47.20113" lon="2.81319">
        <ele>169</ele>
        <time>2024-08-14T08:27:40Z</time>
      </trkpt>
      <trkpt lat="47.20062" lon="2.81338">
        <ele>168.8</ele>
        <time>2024-08-14T08:27:49Z</time>
      </trkpt>
      <trkpt lat="47.2001" lon="2.81357">
        <ele>169</ele>
        <time>2024-08-14T08:27:58Z</time>
      </trkpt>
      <trkpt lat="47.20004" lon="2.81359">
        <ele>169</ele>
        <time>2024-08-14T08:27:59Z</time>
      </trkpt>
      <trkpt lat="47.19964" lon="2.81374">
        <ele>169.4</ele>
        <time>2024-08-14T08:28:06Z</time>
      </trkpt>
      <trkpt lat="47.19953" lon="2.81379">
        <ele>169.8</ele>
        <time>2024-08-14T08:28:08Z</time>
      </trkpt>
      <trkpt lat="47.19941" lon="2.81383">
        <ele>170</ele>
        <time>2024-08-14T08:28:10Z</time>
      </trkpt>
      <trkpt lat="47.19883" lon="2.81405">
        <ele>170.4</ele>
        <time>2024-08-14T08:28:20Z</time>
      </trkpt>
      <trkpt lat="47.19872" lon="2.81409">
        <ele>170.4</ele>
        <time>2024-08-14T08:28:22Z</time>
      </trkpt>
      <trkpt lat="47.19842" lon="2.8142">
        <ele>170.8</ele>
        <time>2024-08-14T08:28:27Z</time>
      </trkpt>
      <trkpt lat="47.1983" lon="2.81424">
        <ele>171</ele>
        <time>2024-08-14T08:28:29Z</time>
      </trkpt>
      <trkpt lat="47.19795" lon="2.81438">
        <ele>171.6</ele>
        <time>2024-08-14T08:28:35Z</time>
      </trkpt>
      <trkpt lat="47.19783" lon="2.81443">
        <ele>171.8</ele>
        <time>2024-08-14T08:28:37Z</time>
      </trkpt>
      <trkpt lat="47.1977" lon="2.81447">
        <ele>171.8</ele>
        <time>2024-08-14T08:28:39Z</time>
      </trkpt>
      <trkpt lat="47.19733" lon="2.81461">
        <ele>172.2</ele>
        <time>2024-08-14T08:28:45Z</time>
      </trkpt>
      <trkpt lat="47.19677" lon="2.81483">
        <ele>172.6</ele>
        <time>2024-08-14T08:28:54Z</time>
      </trkpt>
      <trkpt lat="47.19646" lon="2.81494">
        <ele>173</ele>
        <time>2024-08-14T08:28:59Z</time>
      </trkpt>
      <trkpt lat="47.19639" lon="2.81497">
        <ele>173</ele>
        <time>2024-08-14T08:29:00Z</time>
      </trkpt>
      <trkpt lat="47.19585" lon="2.81517">
        <ele>173</ele>
        <time>2024-08-14T08:29:08Z</time>
      </trkpt>
      <trkpt lat="47.19528" lon="2.81538">
        <ele>173</ele>
        <time>2024-08-14T08:29:16Z</time>
      </trkpt>
      <trkpt lat="47.19472" lon="2.81559">
        <ele>173</ele>
        <time>2024-08-14T08:29:24Z</time>
      </trkpt>
      <trkpt lat="47.19458" lon="2.81565">
        <ele>173</ele>
        <time>2024-08-14T08:29:26Z</time>
      </trkpt>
      <trkpt lat="47.19405" lon="2.81584">
        <ele>173.6</ele>
        <time>2024-08-14T08:29:34Z</time>
      </trkpt>
      <trkpt lat="47.19399" lon="2.81586">
        <ele>173.8</ele>
        <time>2024-08-14T08:29:35Z</time>
      </trkpt>
      <trkpt lat="47.19373" lon="2.81596">
        <ele>174.2</ele>
        <time>2024-08-14T08:29:39Z</time>
      </trkpt>
      <trkpt lat="47.19335" lon="2.81611">
        <ele>174.4</ele>
        <time>2024-08-14T08:29:45Z</time>
      </trkpt>
      <trkpt lat="47.19288" lon="2.81629">
        <ele>174.4</ele>
        <time>2024-08-14T08:29:52Z</time>
      </trkpt>
      <trkpt lat="47.19243" lon="2.81645">
        <ele>173.8</ele>
        <time>2024-08-14T08:29:58Z</time>
      </trkpt>
      <trkpt lat="47.19218" lon="2.81655">
        <ele>173.2</ele>
        <time>2024-08-14T08:30:01Z</time>
      </trkpt>
      <trkpt lat="47.19181" lon="2.8167">
        <ele>172.4</ele>
        <time>2024-08-14T08:30:05Z</time>
      </trkpt>
      <trkpt lat="47.19171" lon="2.81673">
        <ele>172</ele>
        <time>2024-08-14T08:30:06Z</time>
      </trkpt>
      <trkpt lat="47.19141" lon="2.81685">
        <ele>170.6</ele>
        <time>2024-08-14T08:30:09Z</time>
      </trkpt>
      <trkpt lat="47.19131" lon="2.81689">
        <ele>169.2</ele>
        <time>2024-08-14T08:30:11Z</time>
      </trkpt>
      <trkpt lat="47.1911" lon="2.81697">
        <ele>169</ele>
        <time>2024-08-14T08:30:12Z</time>
      </trkpt>
      <trkpt lat="47.19089" lon="2.81705">
        <ele>168</ele>
        <time>2024-08-14T08:30:14Z</time>
      </trkpt>
      <trkpt lat="47.19068" lon="2.81713">
        <ele>166.2</ele>
        <time>2024-08-14T08:30:16Z</time>
      </trkpt>
      <trkpt lat="47.19047" lon="2.81721">
        <ele>165.2</ele>
        <time>2024-08-14T08:30:18Z</time>
      </trkpt>
      <trkpt lat="47.19026" lon="2.81729">
        <ele>164</ele>
        <time>2024-08-14T08:30:20Z</time>
      </trkpt>
      <trkpt lat="47.19015" lon="2.81734">
        <ele>163.8</ele>
        <time>2024-08-14T08:30:21Z</time>
      </trkpt>
      <trkpt lat="47.19015" lon="2.81734">
        <ele>163</ele>
        <time>2024-08-14T08:30:22Z</time>
      </trkpt>
      <trkpt lat="47.18985" lon="2.81745">
        <ele>162</ele>
        <time>2024-08-14T08:30:24Z</time>
      </trkpt>
      <trkpt lat="47.18955" lon="2.81756">
        <ele>160.8</ele>
        <time>2024-08-14T08:30:27Z</time>
      </trkpt>
      <trkpt lat="47.18918" lon="2.81773">
        <ele>160</ele>
        <time>2024-08-14T08:30:31Z</time>
      </trkpt>
      <trkpt lat="47.18908" lon="2.81778">
        <ele>159.6</ele>
        <time>2024-08-14T08:30:32Z</time>
      </trkpt>
      <trkpt lat="47.18864" lon="2.81805">
        <ele>158.6</ele>
        <time>2024-08-14T08:30:37Z</time>
      </trkpt>
      <trkpt lat="47.18856" lon="2.81813">
        <ele>158.4</ele>
        <time>2024-08-14T08:30:38Z</time>
      </trkpt>
      <trkpt lat="47.18836" lon="2.81842">
        <ele>158</ele>
        <time>2024-08-14T08:30:41Z</time>
      </trkpt>
      <trkpt lat="47.18811" lon="2.81881">
        <ele>157.4</ele>
        <time>2024-08-14T08:30:45Z</time>
      </trkpt>
      <trkpt lat="47.18795" lon="2.81908">
        <ele>157</ele>
        <time>2024-08-14T08:30:48Z</time>
      </trkpt>
      <trkpt lat="47.18779" lon="2.81932">
        <ele>156.4</ele>
        <time>2024-08-14T08:30:51Z</time>
      </trkpt>
      <trkpt lat="47.18759" lon="2.81964">
        <ele>156.4</ele>
        <time>2024-08-14T08:30:55Z</time>
      </trkpt>
      <trkpt lat="47.18722" lon="2.82021">
        <ele>156.8</ele>
        <time>2024-08-14T08:31:03Z</time>
      </trkpt>
      <trkpt lat="47.18703" lon="2.82052">
        <ele>157.4</ele>
        <time>2024-08-14T08:31:08Z</time>
      </trkpt>
      <trkpt lat="47.18699" lon="2.82058">
        <ele>157.6</ele>
        <time>2024-08-14T08:31:09Z</time>
      </trkpt>
      <trkpt lat="47.18687" lon="2.82072">
        <ele>158.2</ele>
        <time>2024-08-14T08:31:12Z</time>
      </trkpt>
      <trkpt lat="47.18681" lon="2.82084">
        <ele>158.6</ele>
        <time>2024-08-14T08:31:14Z</time>
      </trkpt>
      <trkpt lat="47.18673" lon="2.82112">
        <ele>160</ele>
        <time>2024-08-14T08:31:18Z</time>
      </trkpt>
      <trkpt lat="47.18668" lon="2.82133">
        <ele>160.8</ele>
        <time>2024-08-14T08:31:21Z</time>
      </trkpt>
      <trkpt lat="47.18665" lon="2.82147">
        <ele>161.2</ele>
        <time>2024-08-14T08:31:23Z</time>
      </trkpt>
      <trkpt lat="47.18655" lon="2.82181">
        <ele>162.2</ele>
        <time>2024-08-14T08:31:28Z</time>
      </trkpt>
      <trkpt lat="47.18652" lon="2.82188">
        <ele>162.2</ele>
        <time>2024-08-14T08:31:29Z</time>
      </trkpt>
      <trkpt lat="47.18649" lon="2.82194">
        <ele>162.4</ele>
        <time>2024-08-14T08:31:30Z</time>
      </trkpt>
      <trkpt lat="47.1864" lon="2.822">
        <ele>162.8</ele>
        <time>2024-08-14T08:31:32Z</time>
      </trkpt>
      <trkpt lat="47.1863" lon="2.82197">
        <ele>163</ele>
        <time>2024-08-14T08:31:34Z</time>
      </trkpt>
      <trkpt lat="47.18625" lon="2.82194">
        <ele>163.4</ele>
        <time>2024-08-14T08:31:35Z</time>
      </trkpt>
      <trkpt lat="47.18606" lon="2.82178">
        <ele>164.4</ele>
        <time>2024-08-14T08:31:39Z</time>
      </trkpt>
      <trkpt lat="47.18597" lon="2.82172">
        <ele>164.6</ele>
        <time>2024-08-14T08:31:41Z</time>
      </trkpt>
      <trkpt lat="47.18586" lon="2.82167">
        <ele>164.8</ele>
        <time>2024-08-14T08:31:43Z</time>
      </trkpt>
      <trkpt lat="47.1857" lon="2.82163">
        <ele>165</ele>
        <time>2024-08-14T08:31:46Z</time>
      </trkpt>
      <trkpt lat="47.18559" lon="2.82164">
        <ele>165</ele>
        <time>2024-08-14T08:31:48Z</time>
      </trkpt>
      <trkpt lat="47.18548" lon="2.8217">
        <ele>165.2</ele>
        <time>2024-08-14T08:31:50Z</time>
      </trkpt>
      <trkpt lat="47.18543" lon="2.82175">
        <ele>165.2</ele>
        <time>2024-08-14T08:31:52Z</time>
      </trkpt>
      <trkpt lat="47.18533" lon="2.82184">
        <ele>165.2</ele>
        <time>2024-08-14T08:31:53Z</time>
      </trkpt>
      <trkpt lat="47.18517" lon="2.82208">
        <ele>165.2</ele>
        <time>2024-08-14T08:31:57Z</time>
      </trkpt>
      <trkpt lat="47.18513" lon="2.82214">
        <ele>165.4</ele>
        <time>2024-08-14T08:31:58Z</time>
      </trkpt>
      <trkpt lat="47.18505" lon="2.82226">
        <ele>165.6</ele>
        <time>2024-08-14T08:32:00Z</time>
      </trkpt>
      <trkpt lat="47.18489" lon="2.82249">
        <ele>166.2</ele>
        <time>2024-08-14T08:32:04Z</time>
      </trkpt>
      <trkpt lat="47.18472" lon="2.82277">
        <ele>166.6</ele>
        <time>2024-08-14T08:32:09Z</time>
      </trkpt>
      <trkpt lat="47.18468" lon="2.82283">
        <ele>166.6</ele>
        <time>2024-08-14T08:32:10Z</time>
      </trkpt>
      <trkpt lat="47.18439" lon="2.82327">
        <ele>166.6</ele>
        <time>2024-08-14T08:32:17Z</time>
      </trkpt>
      <trkpt lat="47.18418" lon="2.82359">
        <ele>166.6</ele>
        <time>2024-08-14T08:32:23Z</time>
      </trkpt>
      <trkpt lat="47.18411" lon="2.82361">
        <ele>166.4</ele>
        <time>2024-08-14T08:32:26Z</time>
      </trkpt>
      <trkpt lat="47.1841" lon="2.82359">
        <ele>166.2</ele>
        <time>2024-08-14T08:32:29Z</time>
      </trkpt>
      <trkpt lat="47.18407" lon="2.82366">
        <ele>166</ele>
        <time>2024-08-14T08:37:48Z</time>
      </trkpt>
      <trkpt lat="47.18404" lon="2.82375">
        <ele>166</ele>
        <time>2024-08-14T08:37:50Z</time>
      </trkpt>
      <trkpt lat="47.18402" lon="2.82379">
        <ele>166</ele>
        <time>2024-08-14T08:37:51Z</time>
      </trkpt>
      <trkpt lat="47.18388" lon="2.82403">
        <ele>165.6</ele>
        <time>2024-08-14T08:37:55Z</time>
      </trkpt>
      <trkpt lat="47.18363" lon="2.82437">
        <ele>164.8</ele>
        <time>2024-08-14T08:38:00Z</time>
      </trkpt>
      <trkpt lat="47.18339" lon="2.82459">
        <ele>163.8</ele>
        <time>2024-08-14T08:38:04Z</time>
      </trkpt>
      <trkpt lat="47.18333" lon="2.82463">
        <ele>163.2</ele>
        <time>2024-08-14T08:38:05Z</time>
      </trkpt>
      <trkpt lat="47.18305" lon="2.82479">
        <ele>162.2</ele>
        <time>2024-08-14T08:38:10Z</time>
      </trkpt>
      <trkpt lat="47.18273" lon="2.82496">
        <ele>163</ele>
        <time>2024-08-14T08:38:17Z</time>
      </trkpt>
      <trkpt lat="47.18247" lon="2.8251">
        <ele>164.2</ele>
        <time>2024-08-14T08:38:23Z</time>
      </trkpt>
      <trkpt lat="47.18226" lon="2.82522">
        <ele>165.4</ele>
        <time>2024-08-14T08:38:28Z</time>
      </trkpt>
      <trkpt lat="47.18222" lon="2.82524">
        <ele>165.8</ele>
        <time>2024-08-14T08:38:29Z</time>
      </trkpt>
      <trkpt lat="47.1821" lon="2.82531">
        <ele>166.6</ele>
        <time>2024-08-14T08:38:32Z</time>
      </trkpt>
      <trkpt lat="47.18188" lon="2.82542">
        <ele>167.2</ele>
        <time>2024-08-14T08:38:37Z</time>
      </trkpt>
      <trkpt lat="47.18184" lon="2.82545">
        <ele>167.6</ele>
        <time>2024-08-14T08:38:38Z</time>
      </trkpt>
      <trkpt lat="47.18148" lon="2.82564">
        <ele>168.6</ele>
        <time>2024-08-14T08:38:47Z</time>
      </trkpt>
      <trkpt lat="47.18143" lon="2.82566">
        <ele>168.8</ele>
        <time>2024-08-14T08:38:48Z</time>
      </trkpt>
      <trkpt lat="47.18113" lon="2.82582">
        <ele>169.8</ele>
        <time>2024-08-14T08:38:55Z</time>
      </trkpt>
      <trkpt lat="47.18103" lon="2.82587">
        <ele>170</ele>
        <time>2024-08-14T08:38:57Z</time>
      </trkpt>
      <trkpt lat="47.18068" lon="2.82608">
        <ele>170.8</ele>
        <time>2024-08-14T08:39:05Z</time>
      </trkpt>
      <trkpt lat="47.18058" lon="2.82613">
        <ele>171.2</ele>
        <time>2024-08-14T08:39:07Z</time>
      </trkpt>
      <trkpt lat="47.1803" lon="2.8263">
        <ele>171.8</ele>
        <time>2024-08-14T08:39:13Z</time>
      </trkpt>
      <trkpt lat="47.18015" lon="2.82638">
        <ele>172.2</ele>
        <time>2024-08-14T08:39:16Z</time>
      </trkpt>
      <trkpt lat="47.17985" lon="2.82656">
        <ele>172.4</ele>
        <time>2024-08-14T08:39:22Z</time>
      </trkpt>
      <trkpt lat="47.17959" lon="2.82674">
        <ele>172.6</ele>
        <time>2024-08-14T08:39:27Z</time>
      </trkpt>
      <trkpt lat="47.1794" lon="2.82692">
        <ele>173</ele>
        <time>2024-08-14T08:39:31Z</time>
      </trkpt>
      <trkpt lat="47.17927" lon="2.82708">
        <ele>173.4</ele>
        <time>2024-08-14T08:39:34Z</time>
      </trkpt>
      <trkpt lat="47.17892" lon="2.82753">
        <ele>173.6</ele>
        <time>2024-08-14T08:39:42Z</time>
      </trkpt>
      <trkpt lat="47.17866" lon="2.82786">
        <ele>174.2</ele>
        <time>2024-08-14T08:39:48Z</time>
      </trkpt>
      <trkpt lat="47.17857" lon="2.82797">
        <ele>174.6</ele>
        <time>2024-08-14T08:39:50Z</time>
      </trkpt>
      <trkpt lat="47.17834" lon="2.82823">
        <ele>175.4</ele>
        <time>2024-08-14T08:39:55Z</time>
      </trkpt>
      <trkpt lat="47.17819" lon="2.82836">
        <ele>175.8</ele>
        <time>2024-08-14T08:39:58Z</time>
      </trkpt>
      <trkpt lat="47.17797" lon="2.8285">
        <ele>176.2</ele>
        <time>2024-08-14T08:40:02Z</time>
      </trkpt>
      <trkpt lat="47.17787" lon="2.82856">
        <ele>176.4</ele>
        <time>2024-08-14T08:40:04Z</time>
      </trkpt>
      <trkpt lat="47.17781" lon="2.82859">
        <ele>176.6</ele>
        <time>2024-08-14T08:40:05Z</time>
      </trkpt>
      <trkpt lat="47.17736" lon="2.8288">
        <ele>177.4</ele>
        <time>2024-08-14T08:40:13Z</time>
      </trkpt>
      <trkpt lat="47.17707" lon="2.82893">
        <ele>177.8</ele>
        <time>2024-08-14T08:40:18Z</time>
      </trkpt>
      <trkpt lat="47.17678" lon="2.82907">
        <ele>177.6</ele>
        <time>2024-08-14T08:40:23Z</time>
      </trkpt>
      <trkpt lat="47.17635" lon="2.82934">
        <ele>177.4</ele>
        <time>2024-08-14T08:40:30Z</time>
      </trkpt>
      <trkpt lat="47.17587" lon="2.82966">
        <ele>177</ele>
        <time>2024-08-14T08:40:37Z</time>
      </trkpt>
      <trkpt lat="47.17534" lon="2.82998">
        <ele>176.6</ele>
        <time>2024-08-14T08:40:44Z</time>
      </trkpt>
      <trkpt lat="47.17497" lon="2.83017">
        <ele>176.4</ele>
        <time>2024-08-14T08:40:49Z</time>
      </trkpt>
      <trkpt lat="47.17459" lon="2.83039">
        <ele>176</ele>
        <time>2024-08-14T08:40:54Z</time>
      </trkpt>
      <trkpt lat="47.17408" lon="2.83071">
        <ele>175.6</ele>
        <time>2024-08-14T08:41:01Z</time>
      </trkpt>
      <trkpt lat="47.17379" lon="2.8309">
        <ele>175.2</ele>
        <time>2024-08-14T08:41:05Z</time>
      </trkpt>
      <trkpt lat="47.17329" lon="2.83121">
        <ele>175</ele>
        <time>2024-08-14T08:41:12Z</time>
      </trkpt>
      <trkpt lat="47.17317" lon="2.83128">
        <ele>175.2</ele>
        <time>2024-08-14T08:41:14Z</time>
      </trkpt>
      <trkpt lat="47.17278" lon="2.83159">
        <ele>175.4</ele>
        <time>2024-08-14T08:41:20Z</time>
      </trkpt>
      <trkpt lat="47.17236" lon="2.83199">
        <ele>175.6</ele>
        <time>2024-08-14T08:41:27Z</time>
      </trkpt>
      <trkpt lat="47.17189" lon="2.83247">
        <ele>176</ele>
        <time>2024-08-14T08:41:35Z</time>
      </trkpt>
      <trkpt lat="47.17184" lon="2.83253">
        <ele>176</ele>
        <time>2024-08-14T08:41:36Z</time>
      </trkpt>
      <trkpt lat="47.1715" lon="2.83291">
        <ele>176.6</ele>
        <time>2024-08-14T08:41:42Z</time>
      </trkpt>
      <trkpt lat="47.17133" lon="2.83308">
        <ele>176.6</ele>
        <time>2024-08-14T08:41:45Z</time>
      </trkpt>
      <trkpt lat="47.17106" lon="2.83335">
        <ele>177.2</ele>
        <time>2024-08-14T08:41:50Z</time>
      </trkpt>
      <trkpt lat="47.17079" lon="2.83363">
        <ele>177.6</ele>
        <time>2024-08-14T08:41:55Z</time>
      </trkpt>
      <trkpt lat="47.17056" lon="2.83384">
        <ele>178</ele>
        <time>2024-08-14T08:41:59Z</time>
      </trkpt>
      <trkpt lat="47.17009" lon="2.83424">
        <ele>178.2</ele>
        <time>2024-08-14T08:42:07Z</time>
      </trkpt>
      <trkpt lat="47.16991" lon="2.83438">
        <ele>178.6</ele>
        <time>2024-08-14T08:42:10Z</time>
      </trkpt>
      <trkpt lat="47.16949" lon="2.8347">
        <ele>178.6</ele>
        <time>2024-08-14T08:42:17Z</time>
      </trkpt>
      <trkpt lat="47.16918" lon="2.8349">
        <ele>178.8</ele>
        <time>2024-08-14T08:42:22Z</time>
      </trkpt>
      <trkpt lat="47.169" lon="2.83502">
        <ele>178.8</ele>
        <time>2024-08-14T08:42:25Z</time>
      </trkpt>
      <trkpt lat="47.16843" lon="2.83533">
        <ele>179.6</ele>
        <time>2024-08-14T08:42:34Z</time>
      </trkpt>
      <trkpt lat="47.16837" lon="2.83536">
        <ele>179.8</ele>
        <time>2024-08-14T08:42:35Z</time>
      </trkpt>
      <trkpt lat="47.16798" lon="2.83556">
        <ele>180.2</ele>
        <time>2024-08-14T08:42:41Z</time>
      </trkpt>
      <trkpt lat="47.16744" lon="2.83583">
        <ele>180.2</ele>
        <time>2024-08-14T08:42:49Z</time>
      </trkpt>
      <trkpt lat="47.16689" lon="2.8361">
        <ele>180.2</ele>
        <time>2024-08-14T08:42:57Z</time>
      </trkpt>
      <trkpt lat="47.16682" lon="2.83613">
        <ele>180.2</ele>
        <time>2024-08-14T08:42:58Z</time>
      </trkpt>
      <trkpt lat="47.16629" lon="2.83628">
        <ele>179.8</ele>
        <time>2024-08-14T08:43:05Z</time>
      </trkpt>
      <trkpt lat="47.16621" lon="2.83629">
        <ele>179.8</ele>
        <time>2024-08-14T08:43:06Z</time>
      </trkpt>
      <trkpt lat="47.16572" lon="2.83632">
        <ele>178.6</ele>
        <time>2024-08-14T08:43:12Z</time>
      </trkpt>
      <trkpt lat="47.16564" lon="2.83632">
        <ele>178.4</ele>
        <time>2024-08-14T08:43:13Z</time>
      </trkpt>
      <trkpt lat="47.1651" lon="2.83636">
        <ele>178</ele>
        <time>2024-08-14T08:43:20Z</time>
      </trkpt>
      <trkpt lat="47.16503" lon="2.83637">
        <ele>178</ele>
        <time>2024-08-14T08:43:21Z</time>
      </trkpt>
      <trkpt lat="47.1646" lon="2.83652">
        <ele>178.6</ele>
        <time>2024-08-14T08:43:27Z</time>
      </trkpt>
      <trkpt lat="47.16421" lon="2.83668">
        <ele>179</ele>
        <time>2024-08-14T08:43:33Z</time>
      </trkpt>
      <trkpt lat="47.16377" lon="2.83684">
        <ele>179.8</ele>
        <time>2024-08-14T08:43:40Z</time>
      </trkpt>
      <trkpt lat="47.16371" lon="2.83687">
        <ele>180</ele>
        <time>2024-08-14T08:43:41Z</time>
      </trkpt>
      <trkpt lat="47.16319" lon="2.8371">
        <ele>180.6</ele>
        <time>2024-08-14T08:43:49Z</time>
      </trkpt>
      <trkpt lat="47.1628" lon="2.83735">
        <ele>180</ele>
        <time>2024-08-14T08:43:54Z</time>
      </trkpt>
      <trkpt lat="47.16249" lon="2.83759">
        <ele>178.6</ele>
        <time>2024-08-14T08:43:58Z</time>
      </trkpt>
      <trkpt lat="47.16233" lon="2.83773">
        <ele>178</ele>
        <time>2024-08-14T08:44:00Z</time>
      </trkpt>
      <trkpt lat="47.16216" lon="2.83786">
        <ele>177.4</ele>
        <time>2024-08-14T08:44:02Z</time>
      </trkpt>
      <trkpt lat="47.1619" lon="2.83806">
        <ele>176.4</ele>
        <time>2024-08-14T08:44:05Z</time>
      </trkpt>
      <trkpt lat="47.16174" lon="2.8382">
        <ele>175</ele>
        <time>2024-08-14T08:44:07Z</time>
      </trkpt>
      <trkpt lat="47.16157" lon="2.83833">
        <ele>174</ele>
        <time>2024-08-14T08:44:09Z</time>
      </trkpt>
      <trkpt lat="47.16107" lon="2.83872">
        <ele>173.4</ele>
        <time>2024-08-14T08:44:15Z</time>
      </trkpt>
      <trkpt lat="47.16091" lon="2.83885">
        <ele>173</ele>
        <time>2024-08-14T08:44:17Z</time>
      </trkpt>
      <trkpt lat="47.16074" lon="2.83897">
        <ele>173</ele>
        <time>2024-08-14T08:44:19Z</time>
      </trkpt>
      <trkpt lat="47.16035" lon="2.83931">
        <ele>172.6</ele>
        <time>2024-08-14T08:44:24Z</time>
      </trkpt>
      <trkpt lat="47.16028" lon="2.8394">
        <ele>172.6</ele>
        <time>2024-08-14T08:44:25Z</time>
      </trkpt>
      <trkpt lat="47.1599" lon="2.83995">
        <ele>172</ele>
        <time>2024-08-14T08:44:31Z</time>
      </trkpt>
      <trkpt lat="47.15984" lon="2.84004">
        <ele>171.8</ele>
        <time>2024-08-14T08:44:32Z</time>
      </trkpt>
      <trkpt lat="47.15942" lon="2.84066">
        <ele>171.4</ele>
        <time>2024-08-14T08:44:39Z</time>
      </trkpt>
      <trkpt lat="47.15936" lon="2.84075">
        <ele>171.4</ele>
        <time>2024-08-14T08:44:40Z</time>
      </trkpt>
      <trkpt lat="47.15893" lon="2.84139">
        <ele>171.6</ele>
        <time>2024-08-14T08:44:47Z</time>
      </trkpt>
      <trkpt lat="47.15887" lon="2.84149">
        <ele>171.6</ele>
        <time>2024-08-14T08:44:48Z</time>
      </trkpt>
      <trkpt lat="47.1586" lon="2.84198">
        <ele>170.8</ele>
        <time>2024-08-14T08:44:53Z</time>
      </trkpt>
      <trkpt lat="47.15836" lon="2.84239">
        <ele>170.4</ele>
        <time>2024-08-14T08:44:57Z</time>
      </trkpt>
      <trkpt lat="47.15811" lon="2.84283">
        <ele>169.8</ele>
        <time>2024-08-14T08:45:02Z</time>
      </trkpt>
      <trkpt lat="47.15783" lon="2.84331">
        <ele>169.6</ele>
        <time>2024-08-14T08:45:07Z</time>
      </trkpt>
      <trkpt lat="47.15765" lon="2.84375">
        <ele>170.2</ele>
        <time>2024-08-14T08:45:12Z</time>
      </trkpt>
      <trkpt lat="47.15755" lon="2.84418">
        <ele>171</ele>
        <time>2024-08-14T08:45:17Z</time>
      </trkpt>
      <trkpt lat="47.15742" lon="2.84465">
        <ele>172</ele>
        <time>2024-08-14T08:45:23Z</time>
      </trkpt>
      <trkpt lat="47.15739" lon="2.84471">
        <ele>172.2</ele>
        <time>2024-08-14T08:45:24Z</time>
      </trkpt>
      <trkpt lat="47.15733" lon="2.84484">
        <ele>172.6</ele>
        <time>2024-08-14T08:45:26Z</time>
      </trkpt>
      <trkpt lat="47.15725" lon="2.84496">
        <ele>172.8</ele>
        <time>2024-08-14T08:45:28Z</time>
      </trkpt>
      <trkpt lat="47.15718" lon="2.84508">
        <ele>173.4</ele>
        <time>2024-08-14T08:45:30Z</time>
      </trkpt>
      <trkpt lat="47.15699" lon="2.84534">
        <ele>174.4</ele>
        <time>2024-08-14T08:45:35Z</time>
      </trkpt>
      <trkpt lat="47.15679" lon="2.84558">
        <ele>175.4</ele>
        <time>2024-08-14T08:45:40Z</time>
      </trkpt>
      <trkpt lat="47.15659" lon="2.84585">
        <ele>176.6</ele>
        <time>2024-08-14T08:45:45Z</time>
      </trkpt>
      <trkpt lat="47.15656" lon="2.84589">
        <ele>176.6</ele>
        <time>2024-08-14T08:45:46Z</time>
      </trkpt>
      <trkpt lat="47.15645" lon="2.84608">
        <ele>177.6</ele>
        <time>2024-08-14T08:45:49Z</time>
      </trkpt>
      <trkpt lat="47.1563" lon="2.84641">
        <ele>178.4</ele>
        <time>2024-08-14T08:45:54Z</time>
      </trkpt>
      <trkpt lat="47.15622" lon="2.84661">
        <ele>178.6</ele>
        <time>2024-08-14T08:45:57Z</time>
      </trkpt>
      <trkpt lat="47.15594" lon="2.84731">
        <ele>179.4</ele>
        <time>2024-08-14T08:46:07Z</time>
      </trkpt>
      <trkpt lat="47.15585" lon="2.84751">
        <ele>179.8</ele>
        <time>2024-08-14T08:46:10Z</time>
      </trkpt>
      <trkpt lat="47.1557" lon="2.84786">
        <ele>179.8</ele>
        <time>2024-08-14T08:46:15Z</time>
      </trkpt>
      <trkpt lat="47.1554" lon="2.84861">
        <ele>180</ele>
        <time>2024-08-14T08:46:25Z</time>
      </trkpt>
      <trkpt lat="47.15509" lon="2.84935">
        <ele>180</ele>
        <time>2024-08-14T08:46:34Z</time>
      </trkpt>
      <trkpt lat="47.15505" lon="2.84944">
        <ele>180</ele>
        <time>2024-08-14T08:46:35Z</time>
      </trkpt>
      <trkpt lat="47.15479" lon="2.85008">
        <ele>179.6</ele>
        <time>2024-08-14T08:46:42Z</time>
      </trkpt>
      <trkpt lat="47.15449" lon="2.85081">
        <ele>179</ele>
        <time>2024-08-14T08:46:50Z</time>
      </trkpt>
      <trkpt lat="47.15442" lon="2.85099">
        <ele>179.2</ele>
        <time>2024-08-14T08:46:52Z</time>
      </trkpt>
      <trkpt lat="47.15411" lon="2.85176">
        <ele>179.4</ele>
        <time>2024-08-14T08:47:00Z</time>
      </trkpt>
      <trkpt lat="47.15384" lon="2.85246">
        <ele>178.8</ele>
        <time>2024-08-14T08:47:07Z</time>
      </trkpt>
      <trkpt lat="47.15373" lon="2.85275">
        <ele>178.4</ele>
        <time>2024-08-14T08:47:10Z</time>
      </trkpt>
      <trkpt lat="47.15346" lon="2.85345">
        <ele>178</ele>
        <time>2024-08-14T08:47:17Z</time>
      </trkpt>
      <trkpt lat="47.15334" lon="2.85376">
        <ele>178</ele>
        <time>2024-08-14T08:47:20Z</time>
      </trkpt>
      <trkpt lat="47.15303" lon="2.85451">
        <ele>177.8</ele>
        <time>2024-08-14T08:47:27Z</time>
      </trkpt>
      <trkpt lat="47.1529" lon="2.85484">
        <ele>177.8</ele>
        <time>2024-08-14T08:47:30Z</time>
      </trkpt>
      <trkpt lat="47.15275" lon="2.85518">
        <ele>177.4</ele>
        <time>2024-08-14T08:47:33Z</time>
      </trkpt>
      <trkpt lat="47.15246" lon="2.85588">
        <ele>176.6</ele>
        <time>2024-08-14T08:47:39Z</time>
      </trkpt>
      <trkpt lat="47.15242" lon="2.85599">
        <ele>176.4</ele>
        <time>2024-08-14T08:47:40Z</time>
      </trkpt>
      <trkpt lat="47.15237" lon="2.85611">
        <ele>176.4</ele>
        <time>2024-08-14T08:47:41Z</time>
      </trkpt>
      <trkpt lat="47.15211" lon="2.85684">
        <ele>175.2</ele>
        <time>2024-08-14T08:47:47Z</time>
      </trkpt>
      <trkpt lat="47.15207" lon="2.85696">
        <ele>175.2</ele>
        <time>2024-08-14T08:47:48Z</time>
      </trkpt>
      <trkpt lat="47.15179" lon="2.85776">
        <ele>174.6</ele>
        <time>2024-08-14T08:47:55Z</time>
      </trkpt>
      <trkpt lat="47.15176" lon="2.85788">
        <ele>174.6</ele>
        <time>2024-08-14T08:47:56Z</time>
      </trkpt>
      <trkpt lat="47.15162" lon="2.85846">
        <ele>174.2</ele>
        <time>2024-08-14T08:48:01Z</time>
      </trkpt>
      <trkpt lat="47.1516" lon="2.85857">
        <ele>174.2</ele>
        <time>2024-08-14T08:48:02Z</time>
      </trkpt>
      <trkpt lat="47.15148" lon="2.85935">
        <ele>173.8</ele>
        <time>2024-08-14T08:48:09Z</time>
      </trkpt>
      <trkpt lat="47.15144" lon="2.85958">
        <ele>173.8</ele>
        <time>2024-08-14T08:48:11Z</time>
      </trkpt>
      <trkpt lat="47.15133" lon="2.86039">
        <ele>173.6</ele>
        <time>2024-08-14T08:48:19Z</time>
      </trkpt>
      <trkpt lat="47.15124" lon="2.86124">
        <ele>173.8</ele>
        <time>2024-08-14T08:48:27Z</time>
      </trkpt>
      <trkpt lat="47.15121" lon="2.86156">
        <ele>173.8</ele>
        <time>2024-08-14T08:48:30Z</time>
      </trkpt>
      <trkpt lat="47.15114" lon="2.86212">
        <ele>174.2</ele>
        <time>2024-08-14T08:48:36Z</time>
      </trkpt>
      <trkpt lat="47.15109" lon="2.86252">
        <ele>175.2</ele>
        <time>2024-08-14T08:48:41Z</time>
      </trkpt>
      <trkpt lat="47.15108" lon="2.86259">
        <ele>175.2</ele>
        <time>2024-08-14T08:48:42Z</time>
      </trkpt>
      <trkpt lat="47.15104" lon="2.86288">
        <ele>176.2</ele>
        <time>2024-08-14T08:48:46Z</time>
      </trkpt>
      <trkpt lat="47.15102" lon="2.86302">
        <ele>176.8</ele>
        <time>2024-08-14T08:48:48Z</time>
      </trkpt>
      <trkpt lat="47.15101" lon="2.86316">
        <ele>177.4</ele>
        <time>2024-08-14T08:48:50Z</time>
      </trkpt>
      <trkpt lat="47.15098" lon="2.86349">
        <ele>178.2</ele>
        <time>2024-08-14T08:48:55Z</time>
      </trkpt>
      <trkpt lat="47.15098" lon="2.86356">
        <ele>178.4</ele>
        <time>2024-08-14T08:48:56Z</time>
      </trkpt>
      <trkpt lat="47.15092" lon="2.86399">
        <ele>179.6</ele>
        <time>2024-08-14T08:49:02Z</time>
      </trkpt>
      <trkpt lat="47.1509" lon="2.86413">
        <ele>180.4</ele>
        <time>2024-08-14T08:49:04Z</time>
      </trkpt>
      <trkpt lat="47.15089" lon="2.86427">
        <ele>180.8</ele>
        <time>2024-08-14T08:49:06Z</time>
      </trkpt>
      <trkpt lat="47.15084" lon="2.86467">
        <ele>181.4</ele>
        <time>2024-08-14T08:49:12Z</time>
      </trkpt>
      <trkpt lat="47.1508" lon="2.86479">
        <ele>181.6</ele>
        <time>2024-08-14T08:49:14Z</time>
      </trkpt>
      <trkpt lat="47.15077" lon="2.86485">
        <ele>181.8</ele>
        <time>2024-08-14T08:49:15Z</time>
      </trkpt>
      <trkpt lat="47.15075" lon="2.86491">
        <ele>181.8</ele>
        <time>2024-08-14T08:49:16Z</time>
      </trkpt>
      <trkpt lat="47.15072" lon="2.86513">
        <ele>182.2</ele>
        <time>2024-08-14T08:49:19Z</time>
      </trkpt>
      <trkpt lat="47.15059" lon="2.86556">
        <ele>182.8</ele>
        <time>2024-08-14T08:49:25Z</time>
      </trkpt>
      <trkpt lat="47.15056" lon="2.86564">
        <ele>182.8</ele>
        <time>2024-08-14T08:49:26Z</time>
      </trkpt>
      <trkpt lat="47.15042" lon="2.86606">
        <ele>183</ele>
        <time>2024-08-14T08:49:31Z</time>
      </trkpt>
      <trkpt lat="47.15018" lon="2.86675">
        <ele>182.8</ele>
        <time>2024-08-14T08:49:38Z</time>
      </trkpt>
      <trkpt lat="47.15006" lon="2.86706">
        <ele>182.4</ele>
        <time>2024-08-14T08:49:41Z</time>
      </trkpt>
      <trkpt lat="47.14989" lon="2.86747">
        <ele>181.8</ele>
        <time>2024-08-14T08:49:45Z</time>
      </trkpt>
      <trkpt lat="47.14959" lon="2.86807">
        <ele>180.8</ele>
        <time>2024-08-14T08:49:51Z</time>
      </trkpt>
      <trkpt lat="47.14953" lon="2.86816">
        <ele>180.6</ele>
        <time>2024-08-14T08:49:52Z</time>
      </trkpt>
      <trkpt lat="47.14915" lon="2.86873">
        <ele>180.4</ele>
        <time>2024-08-14T08:49:59Z</time>
      </trkpt>
      <trkpt lat="47.14909" lon="2.8688">
        <ele>180.4</ele>
        <time>2024-08-14T08:50:00Z</time>
      </trkpt>
      <trkpt lat="47.14867" lon="2.86939">
        <ele>180.6</ele>
        <time>2024-08-14T08:50:08Z</time>
      </trkpt>
      <trkpt lat="47.14862" lon="2.86945">
        <ele>180.6</ele>
        <time>2024-08-14T08:50:09Z</time>
      </trkpt>
      <trkpt lat="47.14819" lon="2.8699">
        <ele>181.6</ele>
        <time>2024-08-14T08:50:17Z</time>
      </trkpt>
      <trkpt lat="47.14804" lon="2.87007">
        <ele>182</ele>
        <time>2024-08-14T08:50:20Z</time>
      </trkpt>
      <trkpt lat="47.1478" lon="2.87036">
        <ele>182.6</ele>
        <time>2024-08-14T08:50:25Z</time>
      </trkpt>
      <trkpt lat="47.14763" lon="2.8706">
        <ele>183.2</ele>
        <time>2024-08-14T08:50:29Z</time>
      </trkpt>
      <trkpt lat="47.14752" lon="2.8708">
        <ele>183.6</ele>
        <time>2024-08-14T08:50:32Z</time>
      </trkpt>
      <trkpt lat="47.14739" lon="2.87109">
        <ele>184.2</ele>
        <time>2024-08-14T08:50:36Z</time>
      </trkpt>
      <trkpt lat="47.14727" lon="2.87139">
        <ele>184.6</ele>
        <time>2024-08-14T08:50:40Z</time>
      </trkpt>
      <trkpt lat="47.14717" lon="2.87162">
        <ele>185.4</ele>
        <time>2024-08-14T08:50:43Z</time>
      </trkpt>
      <trkpt lat="47.147" lon="2.87198">
        <ele>186.4</ele>
        <time>2024-08-14T08:50:48Z</time>
      </trkpt>
      <trkpt lat="47.14685" lon="2.87218">
        <ele>186.6</ele>
        <time>2024-08-14T08:50:51Z</time>
      </trkpt>
      <trkpt lat="47.14673" lon="2.87228">
        <ele>186.6</ele>
        <time>2024-08-14T08:50:53Z</time>
      </trkpt>
      <trkpt lat="47.14632" lon="2.87261">
        <ele>185.8</ele>
        <time>2024-08-14T08:50:59Z</time>
      </trkpt>
      <trkpt lat="47.14604" lon="2.87281">
        <ele>185.4</ele>
        <time>2024-08-14T08:51:03Z</time>
      </trkpt>
      <trkpt lat="47.14574" lon="2.87299">
        <ele>185</ele>
        <time>2024-08-14T08:51:07Z</time>
      </trkpt>
      <trkpt lat="47.14531" lon="2.8732">
        <ele>184.4</ele>
        <time>2024-08-14T08:51:13Z</time>
      </trkpt>
      <trkpt lat="47.14524" lon="2.87324">
        <ele>184.2</ele>
        <time>2024-08-14T08:51:14Z</time>
      </trkpt>
      <trkpt lat="47.14501" lon="2.87337">
        <ele>183.4</ele>
        <time>2024-08-14T08:51:18Z</time>
      </trkpt>
      <trkpt lat="47.14497" lon="2.87339">
        <ele>183.4</ele>
        <time>2024-08-14T08:51:19Z</time>
      </trkpt>
      <trkpt lat="47.14491" lon="2.8734">
        <ele>183.2</ele>
        <time>2024-08-14T08:51:21Z</time>
      </trkpt>
      <trkpt lat="47.14479" lon="2.8734">
        <ele>182.6</ele>
        <time>2024-08-14T08:51:24Z</time>
      </trkpt>
      <trkpt lat="47.1447" lon="2.87336">
        <ele>182.4</ele>
        <time>2024-08-14T08:51:26Z</time>
      </trkpt>
      <trkpt lat="47.14465" lon="2.87333">
        <ele>182.2</ele>
        <time>2024-08-14T08:51:27Z</time>
      </trkpt>
      <trkpt lat="47.14446" lon="2.87323">
        <ele>182</ele>
        <time>2024-08-14T08:51:30Z</time>
      </trkpt>
      <trkpt lat="47.14422" lon="2.87309">
        <ele>181.4</ele>
        <time>2024-08-14T08:51:33Z</time>
      </trkpt>
      <trkpt lat="47.14415" lon="2.87307">
        <ele>181</ele>
        <time>2024-08-14T08:51:34Z</time>
      </trkpt>
      <trkpt lat="47.14407" lon="2.87306">
        <ele>180.8</ele>
        <time>2024-08-14T08:51:35Z</time>
      </trkpt>
      <trkpt lat="47.14391" lon="2.8731">
        <ele>180.2</ele>
        <time>2024-08-14T08:51:37Z</time>
      </trkpt>
      <trkpt lat="47.14383" lon="2.87315">
        <ele>179.8</ele>
        <time>2024-08-14T08:51:38Z</time>
      </trkpt>
      <trkpt lat="47.14362" lon="2.87332">
        <ele>178.8</ele>
        <time>2024-08-14T08:51:41Z</time>
      </trkpt>
      <trkpt lat="47.14355" lon="2.87338">
        <ele>178.6</ele>
        <time>2024-08-14T08:51:42Z</time>
      </trkpt>
      <trkpt lat="47.14309" lon="2.87376">
        <ele>178</ele>
        <time>2024-08-14T08:51:49Z</time>
      </trkpt>
      <trkpt lat="47.14281" lon="2.87403">
        <ele>178.2</ele>
        <time>2024-08-14T08:51:54Z</time>
      </trkpt>
      <trkpt lat="47.14244" lon="2.87433">
        <ele>179.8</ele>
        <time>2024-08-14T08:52:01Z</time>
      </trkpt>
      <trkpt lat="47.14238" lon="2.87437">
        <ele>180.2</ele>
        <time>2024-08-14T08:52:02Z</time>
      </trkpt>
      <trkpt lat="47.14228" lon="2.87444">
        <ele>181</ele>
        <time>2024-08-14T08:52:04Z</time>
      </trkpt>
      <trkpt lat="47.14208" lon="2.87459">
        <ele>182.2</ele>
        <time>2024-08-14T08:52:08Z</time>
      </trkpt>
      <trkpt lat="47.14193" lon="2.8747">
        <ele>182.8</ele>
        <time>2024-08-14T08:52:11Z</time>
      </trkpt>
      <trkpt lat="47.14177" lon="2.87481">
        <ele>183.2</ele>
        <time>2024-08-14T08:52:14Z</time>
      </trkpt>
      <trkpt lat="47.14144" lon="2.87497">
        <ele>184.4</ele>
        <time>2024-08-14T08:52:20Z</time>
      </trkpt>
      <trkpt lat="47.14115" lon="2.87506">
        <ele>185.4</ele>
        <time>2024-08-14T08:52:25Z</time>
      </trkpt>
      <trkpt lat="47.14102" lon="2.87509">
        <ele>185.6</ele>
        <time>2024-08-14T08:52:27Z</time>
      </trkpt>
      <trkpt lat="47.14049" lon="2.87519">
        <ele>186.2</ele>
        <time>2024-08-14T08:52:36Z</time>
      </trkpt>
      <trkpt lat="47.13991" lon="2.87529">
        <ele>186</ele>
        <time>2024-08-14T08:52:45Z</time>
      </trkpt>
      <trkpt lat="47.13977" lon="2.8753">
        <ele>185.8</ele>
        <time>2024-08-14T08:52:47Z</time>
      </trkpt>
      <trkpt lat="47.13923" lon="2.87532">
        <ele>185</ele>
        <time>2024-08-14T08:52:54Z</time>
      </trkpt>
      <trkpt lat="47.1389" lon="2.87535">
        <ele>184.4</ele>
        <time>2024-08-14T08:52:58Z</time>
      </trkpt>
      <trkpt lat="47.13867" lon="2.87538">
        <ele>183.6</ele>
        <time>2024-08-14T08:53:01Z</time>
      </trkpt>
      <trkpt lat="47.13822" lon="2.87537">
        <ele>183.2</ele>
        <time>2024-08-14T08:53:07Z</time>
      </trkpt>
      <trkpt lat="47.13816" lon="2.87536">
        <ele>183.2</ele>
        <time>2024-08-14T08:53:08Z</time>
      </trkpt>
      <trkpt lat="47.13808" lon="2.87534">
        <ele>183.2</ele>
        <time>2024-08-14T08:53:09Z</time>
      </trkpt>
      <trkpt lat="47.13785" lon="2.87526">
        <ele>183.4</ele>
        <time>2024-08-14T08:53:13Z</time>
      </trkpt>
      <trkpt lat="47.13771" lon="2.8752">
        <ele>183.4</ele>
        <time>2024-08-14T08:53:15Z</time>
      </trkpt>
      <trkpt lat="47.13749" lon="2.87508">
        <ele>184.2</ele>
        <time>2024-08-14T08:53:19Z</time>
      </trkpt>
      <trkpt lat="47.13744" lon="2.87505">
        <ele>184.8</ele>
        <time>2024-08-14T08:53:20Z</time>
      </trkpt>
      <trkpt lat="47.13707" lon="2.87492">
        <ele>185.6</ele>
        <time>2024-08-14T08:53:26Z</time>
      </trkpt>
      <trkpt lat="47.13676" lon="2.8749">
        <ele>185.8</ele>
        <time>2024-08-14T08:53:31Z</time>
      </trkpt>
      <trkpt lat="47.13664" lon="2.87491">
        <ele>185.8</ele>
        <time>2024-08-14T08:53:33Z</time>
      </trkpt>
      <trkpt lat="47.13627" lon="2.87504">
        <ele>186.4</ele>
        <time>2024-08-14T08:53:39Z</time>
      </trkpt>
      <trkpt lat="47.13602" lon="2.87517">
        <ele>186.8</ele>
        <time>2024-08-14T08:53:43Z</time>
      </trkpt>
      <trkpt lat="47.13562" lon="2.87538">
        <ele>186.8</ele>
        <time>2024-08-14T08:53:49Z</time>
      </trkpt>
      <trkpt lat="47.13511" lon="2.87564">
        <ele>187</ele>
        <time>2024-08-14T08:53:57Z</time>
      </trkpt>
      <trkpt lat="47.13485" lon="2.87576">
        <ele>187</ele>
        <time>2024-08-14T08:54:01Z</time>
      </trkpt>
      <trkpt lat="47.13428" lon="2.87596">
        <ele>187.8</ele>
        <time>2024-08-14T08:54:09Z</time>
      </trkpt>
      <trkpt lat="47.13421" lon="2.87597">
        <ele>187.8</ele>
        <time>2024-08-14T08:54:10Z</time>
      </trkpt>
      <trkpt lat="47.13421" lon="2.87597">
        <ele>187.8</ele>
        <time>2024-08-14T08:54:11Z</time>
      </trkpt>
      <trkpt lat="47.1336" lon="2.8761">
        <ele>188</ele>
        <time>2024-08-14T08:54:18Z</time>
      </trkpt>
      <trkpt lat="47.13345" lon="2.87613">
        <ele>187.8</ele>
        <time>2024-08-14T08:54:20Z</time>
      </trkpt>
      <trkpt lat="47.13288" lon="2.8763">
        <ele>187.4</ele>
        <time>2024-08-14T08:54:27Z</time>
      </trkpt>
      <trkpt lat="47.13254" lon="2.87641">
        <ele>186.8</ele>
        <time>2024-08-14T08:54:31Z</time>
      </trkpt>
      <trkpt lat="47.13226" lon="2.8765">
        <ele>185.8</ele>
        <time>2024-08-14T08:54:34Z</time>
      </trkpt>
      <trkpt lat="47.13207" lon="2.87657">
        <ele>185.6</ele>
        <time>2024-08-14T08:54:36Z</time>
      </trkpt>
      <trkpt lat="47.13165" lon="2.8767">
        <ele>184.6</ele>
        <time>2024-08-14T08:54:40Z</time>
      </trkpt>
      <trkpt lat="47.13154" lon="2.87674">
        <ele>184</ele>
        <time>2024-08-14T08:54:41Z</time>
      </trkpt>
      <trkpt lat="47.13132" lon="2.87682">
        <ele>182.8</ele>
        <time>2024-08-14T08:54:43Z</time>
      </trkpt>
      <trkpt lat="47.13108" lon="2.8769">
        <ele>181.6</ele>
        <time>2024-08-14T08:54:45Z</time>
      </trkpt>
      <trkpt lat="47.13097" lon="2.87693">
        <ele>180.8</ele>
        <time>2024-08-14T08:54:46Z</time>
      </trkpt>
      <trkpt lat="47.13074" lon="2.877">
        <ele>180</ele>
        <time>2024-08-14T08:54:48Z</time>
      </trkpt>
      <trkpt lat="47.13042" lon="2.87711">
        <ele>178.6</ele>
        <time>2024-08-14T08:54:51Z</time>
      </trkpt>
      <trkpt lat="47.13021" lon="2.87717">
        <ele>177.4</ele>
        <time>2024-08-14T08:54:53Z</time>
      </trkpt>
      <trkpt lat="47.13011" lon="2.87721">
        <ele>177.2</ele>
        <time>2024-08-14T08:54:54Z</time>
      </trkpt>
      <trkpt lat="47.12954" lon="2.8774">
        <ele>176.6</ele>
        <time>2024-08-14T08:55:00Z</time>
      </trkpt>
      <trkpt lat="47.12945" lon="2.87743">
        <ele>176.6</ele>
        <time>2024-08-14T08:55:01Z</time>
      </trkpt>
      <trkpt lat="47.12936" lon="2.87746">
        <ele>176.4</ele>
        <time>2024-08-14T08:55:02Z</time>
      </trkpt>
      <trkpt lat="47.12879" lon="2.87765">
        <ele>175.8</ele>
        <time>2024-08-14T08:55:08Z</time>
      </trkpt>
      <trkpt lat="47.12859" lon="2.87772">
        <ele>175</ele>
        <time>2024-08-14T08:55:10Z</time>
      </trkpt>
      <trkpt lat="47.12828" lon="2.87782">
        <ele>173.8</ele>
        <time>2024-08-14T08:55:13Z</time>
      </trkpt>
      <trkpt lat="47.12795" lon="2.87794">
        <ele>172.6</ele>
        <time>2024-08-14T08:55:16Z</time>
      </trkpt>
      <trkpt lat="47.12783" lon="2.87797">
        <ele>172.4</ele>
        <time>2024-08-14T08:55:17Z</time>
      </trkpt>
      <trkpt lat="47.12772" lon="2.87801">
        <ele>171.6</ele>
        <time>2024-08-14T08:55:18Z</time>
      </trkpt>
      <trkpt lat="47.12749" lon="2.87809">
        <ele>170.2</ele>
        <time>2024-08-14T08:55:20Z</time>
      </trkpt>
      <trkpt lat="47.12738" lon="2.87813">
        <ele>169.2</ele>
        <time>2024-08-14T08:55:21Z</time>
      </trkpt>
      <trkpt lat="47.12716" lon="2.8782">
        <ele>168</ele>
        <time>2024-08-14T08:55:23Z</time>
      </trkpt>
      <trkpt lat="47.12694" lon="2.87828">
        <ele>166.6</ele>
        <time>2024-08-14T08:55:25Z</time>
      </trkpt>
      <trkpt lat="47.12653" lon="2.87841">
        <ele>165.4</ele>
        <time>2024-08-14T08:55:29Z</time>
      </trkpt>
      <trkpt lat="47.12643" lon="2.87844">
        <ele>165</ele>
        <time>2024-08-14T08:55:30Z</time>
      </trkpt>
      <trkpt lat="47.12586" lon="2.87863">
        <ele>164.2</ele>
        <time>2024-08-14T08:55:36Z</time>
      </trkpt>
      <trkpt lat="47.12568" lon="2.87869">
        <ele>164.2</ele>
        <time>2024-08-14T08:55:38Z</time>
      </trkpt>
      <trkpt lat="47.12507" lon="2.87889">
        <ele>163.4</ele>
        <time>2024-08-14T08:55:45Z</time>
      </trkpt>
      <trkpt lat="47.12499" lon="2.87891">
        <ele>163.4</ele>
        <time>2024-08-14T08:55:46Z</time>
      </trkpt>
      <trkpt lat="47.12458" lon="2.87906">
        <ele>162.8</ele>
        <time>2024-08-14T08:55:51Z</time>
      </trkpt>
      <trkpt lat="47.12417" lon="2.87923">
        <ele>162.4</ele>
        <time>2024-08-14T08:55:56Z</time>
      </trkpt>
      <trkpt lat="47.12385" lon="2.87936">
        <ele>161.8</ele>
        <time>2024-08-14T08:56:00Z</time>
      </trkpt>
      <trkpt lat="47.12346" lon="2.87955">
        <ele>161.4</ele>
        <time>2024-08-14T08:56:05Z</time>
      </trkpt>
      <trkpt lat="47.12338" lon="2.8796">
        <ele>161.2</ele>
        <time>2024-08-14T08:56:06Z</time>
      </trkpt>
      <trkpt lat="47.12286" lon="2.87989">
        <ele>161</ele>
        <time>2024-08-14T08:56:13Z</time>
      </trkpt>
      <trkpt lat="47.12279" lon="2.87994">
        <ele>160.8</ele>
        <time>2024-08-14T08:56:14Z</time>
      </trkpt>
      <trkpt lat="47.12228" lon="2.88029">
        <ele>160.4</ele>
        <time>2024-08-14T08:56:21Z</time>
      </trkpt>
      <trkpt lat="47.12206" lon="2.88045">
        <ele>160.4</ele>
        <time>2024-08-14T08:56:24Z</time>
      </trkpt>
      <trkpt lat="47.12178" lon="2.88066">
        <ele>160.4</ele>
        <time>2024-08-14T08:56:28Z</time>
      </trkpt>
      <trkpt lat="47.12138" lon="2.881">
        <ele>160.2</ele>
        <time>2024-08-14T08:56:34Z</time>
      </trkpt>
      <trkpt lat="47.12086" lon="2.88149">
        <ele>160.2</ele>
        <time>2024-08-14T08:56:42Z</time>
      </trkpt>
      <trkpt lat="47.12073" lon="2.88161">
        <ele>160</ele>
        <time>2024-08-14T08:56:44Z</time>
      </trkpt>
      <trkpt lat="47.1203" lon="2.88209">
        <ele>159.8</ele>
        <time>2024-08-14T08:56:51Z</time>
      </trkpt>
      <trkpt lat="47.12018" lon="2.88224">
        <ele>159.8</ele>
        <time>2024-08-14T08:56:53Z</time>
      </trkpt>
      <trkpt lat="47.11971" lon="2.88279">
        <ele>160</ele>
        <time>2024-08-14T08:57:01Z</time>
      </trkpt>
      <trkpt lat="47.1196" lon="2.88294">
        <ele>160.2</ele>
        <time>2024-08-14T08:57:03Z</time>
      </trkpt>
      <trkpt lat="47.11917" lon="2.88352">
        <ele>160.2</ele>
        <time>2024-08-14T08:57:11Z</time>
      </trkpt>
      <trkpt lat="47.11912" lon="2.8836">
        <ele>160.2</ele>
        <time>2024-08-14T08:57:12Z</time>
      </trkpt>
      <trkpt lat="47.11872" lon="2.88421">
        <ele>160.6</ele>
        <time>2024-08-14T08:57:20Z</time>
      </trkpt>
      <trkpt lat="47.11858" lon="2.88446">
        <ele>160.8</ele>
        <time>2024-08-14T08:57:23Z</time>
      </trkpt>
      <trkpt lat="47.11822" lon="2.88511">
        <ele>161</ele>
        <time>2024-08-14T08:57:31Z</time>
      </trkpt>
      <trkpt lat="47.11788" lon="2.88578">
        <ele>161.4</ele>
        <time>2024-08-14T08:57:39Z</time>
      </trkpt>
      <trkpt lat="47.1178" lon="2.88595">
        <ele>161.4</ele>
        <time>2024-08-14T08:57:41Z</time>
      </trkpt>
      <trkpt lat="47.11748" lon="2.88665">
        <ele>162.2</ele>
        <time>2024-08-14T08:57:49Z</time>
      </trkpt>
      <trkpt lat="47.1174" lon="2.88683">
        <ele>162.2</ele>
        <time>2024-08-14T08:57:51Z</time>
      </trkpt>
      <trkpt lat="47.11733" lon="2.887">
        <ele>162.4</ele>
        <time>2024-08-14T08:57:53Z</time>
      </trkpt>
      <trkpt lat="47.11718" lon="2.88734">
        <ele>162.6</ele>
        <time>2024-08-14T08:57:57Z</time>
      </trkpt>
      <trkpt lat="47.11713" lon="2.8874">
        <ele>162.8</ele>
        <time>2024-08-14T08:57:58Z</time>
      </trkpt>
      <trkpt lat="47.11663" lon="2.88782">
        <ele>163</ele>
        <time>2024-08-14T08:58:06Z</time>
      </trkpt>
      <trkpt lat="47.1161" lon="2.88825">
        <ele>162.8</ele>
        <time>2024-08-14T08:58:14Z</time>
      </trkpt>
      <trkpt lat="47.11604" lon="2.8883">
        <ele>162.8</ele>
        <time>2024-08-14T08:58:15Z</time>
      </trkpt>
      <trkpt lat="47.11551" lon="2.88873">
        <ele>162.4</ele>
        <time>2024-08-14T08:58:23Z</time>
      </trkpt>
      <trkpt lat="47.11532" lon="2.88889">
        <ele>162.6</ele>
        <time>2024-08-14T08:58:26Z</time>
      </trkpt>
      <trkpt lat="47.11482" lon="2.88929">
        <ele>163</ele>
        <time>2024-08-14T08:58:34Z</time>
      </trkpt>
      <trkpt lat="47.11469" lon="2.8894">
        <ele>163.2</ele>
        <time>2024-08-14T08:58:36Z</time>
      </trkpt>
      <trkpt lat="47.11455" lon="2.88951">
        <ele>163.4</ele>
        <time>2024-08-14T08:58:38Z</time>
      </trkpt>
      <trkpt lat="47.11402" lon="2.88994">
        <ele>163.4</ele>
        <time>2024-08-14T08:58:46Z</time>
      </trkpt>
      <trkpt lat="47.1135" lon="2.89037">
        <ele>163</ele>
        <time>2024-08-14T08:58:54Z</time>
      </trkpt>
      <trkpt lat="47.1133" lon="2.89053">
        <ele>163</ele>
        <time>2024-08-14T08:58:57Z</time>
      </trkpt>
      <trkpt lat="47.11279" lon="2.89099">
        <ele>162.8</ele>
        <time>2024-08-14T08:59:05Z</time>
      </trkpt>
      <trkpt lat="47.11237" lon="2.89147">
        <ele>162.4</ele>
        <time>2024-08-14T08:59:12Z</time>
      </trkpt>
      <trkpt lat="47.11225" lon="2.89161">
        <ele>162.2</ele>
        <time>2024-08-14T08:59:14Z</time>
      </trkpt>
      <trkpt lat="47.11185" lon="2.8921">
        <ele>161.8</ele>
        <time>2024-08-14T08:59:21Z</time>
      </trkpt>
      <trkpt lat="47.11156" lon="2.89256">
        <ele>161.4</ele>
        <time>2024-08-14T08:59:27Z</time>
      </trkpt>
      <trkpt lat="47.11152" lon="2.89264">
        <ele>161.6</ele>
        <time>2024-08-14T08:59:28Z</time>
      </trkpt>
      <trkpt lat="47.11136" lon="2.89296">
        <ele>161.8</ele>
        <time>2024-08-14T08:59:32Z</time>
      </trkpt>
      <trkpt lat="47.11124" lon="2.8932">
        <ele>161.8</ele>
        <time>2024-08-14T08:59:35Z</time>
      </trkpt>
      <trkpt lat="47.11119" lon="2.89328">
        <ele>161.8</ele>
        <time>2024-08-14T08:59:36Z</time>
      </trkpt>
      <trkpt lat="47.111" lon="2.89361">
        <ele>161.4</ele>
        <time>2024-08-14T08:59:40Z</time>
      </trkpt>
      <trkpt lat="47.11096" lon="2.8937">
        <ele>161.2</ele>
        <time>2024-08-14T08:59:41Z</time>
      </trkpt>
      <trkpt lat="47.1109" lon="2.8939">
        <ele>161</ele>
        <time>2024-08-14T08:59:43Z</time>
      </trkpt>
      <trkpt lat="47.11087" lon="2.89399">
        <ele>160.8</ele>
        <time>2024-08-14T08:59:44Z</time>
      </trkpt>
      <trkpt lat="47.11078" lon="2.8941">
        <ele>160.4</ele>
        <time>2024-08-14T08:59:46Z</time>
      </trkpt>
      <trkpt lat="47.11072" lon="2.89412">
        <ele>160</ele>
        <time>2024-08-14T08:59:47Z</time>
      </trkpt>
      <trkpt lat="47.1106" lon="2.89415">
        <ele>159</ele>
        <time>2024-08-14T08:59:49Z</time>
      </trkpt>
      <trkpt lat="47.11054" lon="2.89417">
        <ele>158.8</ele>
        <time>2024-08-14T08:59:50Z</time>
      </trkpt>
      <trkpt lat="47.10998" lon="2.89437">
        <ele>158</ele>
        <time>2024-08-14T08:59:58Z</time>
      </trkpt>
      <trkpt lat="47.10984" lon="2.8944">
        <ele>158</ele>
        <time>2024-08-14T09:00:00Z</time>
      </trkpt>
      <trkpt lat="47.10956" lon="2.89439">
        <ele>158.2</ele>
        <time>2024-08-14T09:00:04Z</time>
      </trkpt>
      <trkpt lat="47.10925" lon="2.89433">
        <ele>158.6</ele>
        <time>2024-08-14T09:00:09Z</time>
      </trkpt>
      <trkpt lat="47.10908" lon="2.8943">
        <ele>159</ele>
        <time>2024-08-14T09:00:12Z</time>
      </trkpt>
      <trkpt lat="47.10887" lon="2.89427">
        <ele>159.6</ele>
        <time>2024-08-14T09:00:16Z</time>
      </trkpt>
      <trkpt lat="47.10876" lon="2.89425">
        <ele>160.4</ele>
        <time>2024-08-14T09:00:18Z</time>
      </trkpt>
      <trkpt lat="47.10848" lon="2.89419">
        <ele>161.4</ele>
        <time>2024-08-14T09:00:23Z</time>
      </trkpt>
      <trkpt lat="47.10837" lon="2.89417">
        <ele>162</ele>
        <time>2024-08-14T09:00:25Z</time>
      </trkpt>
      <trkpt lat="47.10813" lon="2.89412">
        <ele>162.4</ele>
        <time>2024-08-14T09:00:29Z</time>
      </trkpt>
      <trkpt lat="47.10788" lon="2.89406">
        <ele>163.2</ele>
        <time>2024-08-14T09:00:33Z</time>
      </trkpt>
      <trkpt lat="47.1077" lon="2.89402">
        <ele>163.6</ele>
        <time>2024-08-14T09:00:36Z</time>
      </trkpt>
      <trkpt lat="47.10714" lon="2.89389">
        <ele>164.2</ele>
        <time>2024-08-14T09:00:45Z</time>
      </trkpt>
      <trkpt lat="47.10688" lon="2.89383">
        <ele>164.8</ele>
        <time>2024-08-14T09:00:49Z</time>
      </trkpt>
      <trkpt lat="47.10669" lon="2.89379">
        <ele>165.2</ele>
        <time>2024-08-14T09:00:52Z</time>
      </trkpt>
      <trkpt lat="47.10614" lon="2.89366">
        <ele>165.8</ele>
        <time>2024-08-14T09:01:01Z</time>
      </trkpt>
      <trkpt lat="47.10573" lon="2.89357">
        <ele>167</ele>
        <time>2024-08-14T09:01:08Z</time>
      </trkpt>
      <trkpt lat="47.10562" lon="2.89354">
        <ele>167.2</ele>
        <time>2024-08-14T09:01:10Z</time>
      </trkpt>
      <trkpt lat="47.10515" lon="2.89342">
        <ele>167.8</ele>
        <time>2024-08-14T09:01:18Z</time>
      </trkpt>
      <trkpt lat="47.10509" lon="2.89341">
        <ele>168</ele>
        <time>2024-08-14T09:01:19Z</time>
      </trkpt>
      <trkpt lat="47.10486" lon="2.89336">
        <ele>169.2</ele>
        <time>2024-08-14T09:01:23Z</time>
      </trkpt>
      <trkpt lat="47.1044" lon="2.89325">
        <ele>169.8</ele>
        <time>2024-08-14T09:01:31Z</time>
      </trkpt>
      <trkpt lat="47.10434" lon="2.89324">
        <ele>170</ele>
        <time>2024-08-14T09:01:32Z</time>
      </trkpt>
      <trkpt lat="47.10387" lon="2.89314">
        <ele>170.8</ele>
        <time>2024-08-14T09:01:40Z</time>
      </trkpt>
      <trkpt lat="47.10375" lon="2.89311">
        <ele>171.2</ele>
        <time>2024-08-14T09:01:42Z</time>
      </trkpt>
      <trkpt lat="47.10339" lon="2.89301">
        <ele>172.2</ele>
        <time>2024-08-14T09:01:48Z</time>
      </trkpt>
      <trkpt lat="47.1032" lon="2.89297">
        <ele>172.4</ele>
        <time>2024-08-14T09:01:51Z</time>
      </trkpt>
      <trkpt lat="47.10264" lon="2.89284">
        <ele>173.2</ele>
        <time>2024-08-14T09:02:00Z</time>
      </trkpt>
      <trkpt lat="47.10251" lon="2.8928">
        <ele>173.4</ele>
        <time>2024-08-14T09:02:02Z</time>
      </trkpt>
      <trkpt lat="47.10206" lon="2.89269">
        <ele>174.4</ele>
        <time>2024-08-14T09:02:09Z</time>
      </trkpt>
      <trkpt lat="47.10149" lon="2.89256">
        <ele>174.2</ele>
        <time>2024-08-14T09:02:18Z</time>
      </trkpt>
      <trkpt lat="47.10136" lon="2.89253">
        <ele>174.6</ele>
        <time>2024-08-14T09:02:20Z</time>
      </trkpt>
      <trkpt lat="47.10129" lon="2.89251">
        <ele>174.6</ele>
        <time>2024-08-14T09:02:21Z</time>
      </trkpt>
      <trkpt lat="47.1007" lon="2.89238">
        <ele>174.4</ele>
        <time>2024-08-14T09:02:30Z</time>
      </trkpt>
      <trkpt lat="47.10065" lon="2.89236">
        <ele>174.4</ele>
        <time>2024-08-14T09:02:32Z</time>
      </trkpt>
      <trkpt lat="47.10007" lon="2.89223">
        <ele>174.8</ele>
        <time>2024-08-14T09:02:40Z</time>
      </trkpt>
      <trkpt lat="47.09995" lon="2.8922">
        <ele>174.8</ele>
        <time>2024-08-14T09:02:42Z</time>
      </trkpt>
      <trkpt lat="47.09941" lon="2.89208">
        <ele>175.2</ele>
        <time>2024-08-14T09:02:51Z</time>
      </trkpt>
      <trkpt lat="47.09935" lon="2.89207">
        <ele>175.2</ele>
        <time>2024-08-14T09:02:52Z</time>
      </trkpt>
      <trkpt lat="47.099" lon="2.89198">
        <ele>175.8</ele>
        <time>2024-08-14T09:02:58Z</time>
      </trkpt>
      <trkpt lat="47.09871" lon="2.89191">
        <ele>176.6</ele>
        <time>2024-08-14T09:03:03Z</time>
      </trkpt>
      <trkpt lat="47.09835" lon="2.89183">
        <ele>177</ele>
        <time>2024-08-14T09:03:09Z</time>
      </trkpt>
      <trkpt lat="47.09818" lon="2.89179">
        <ele>177.2</ele>
        <time>2024-08-14T09:03:12Z</time>
      </trkpt>
      <trkpt lat="47.09765" lon="2.89167">
        <ele>177.6</ele>
        <time>2024-08-14T09:03:21Z</time>
      </trkpt>
      <trkpt lat="47.09742" lon="2.89161">
        <ele>178</ele>
        <time>2024-08-14T09:03:25Z</time>
      </trkpt>
      <trkpt lat="47.09696" lon="2.8915">
        <ele>178.8</ele>
        <time>2024-08-14T09:03:33Z</time>
      </trkpt>
      <trkpt lat="47.09646" lon="2.89139">
        <ele>179.2</ele>
        <time>2024-08-14T09:03:41Z</time>
      </trkpt>
      <trkpt lat="47.0964" lon="2.89137">
        <ele>179.2</ele>
        <time>2024-08-14T09:03:42Z</time>
      </trkpt>
      <trkpt lat="47.09584" lon="2.89123">
        <ele>179</ele>
        <time>2024-08-14T09:03:50Z</time>
      </trkpt>
      <trkpt lat="47.09577" lon="2.89122">
        <ele>179</ele>
        <time>2024-08-14T09:03:51Z</time>
      </trkpt>
      <trkpt lat="47.0952" lon="2.89108">
        <ele>179.2</ele>
        <time>2024-08-14T09:03:59Z</time>
      </trkpt>
      <trkpt lat="47.095" lon="2.89104">
        <ele>179.2</ele>
        <time>2024-08-14T09:04:02Z</time>
      </trkpt>
      <trkpt lat="47.09443" lon="2.8909">
        <ele>179.6</ele>
        <time>2024-08-14T09:04:11Z</time>
      </trkpt>
      <trkpt lat="47.09424" lon="2.89085">
        <ele>180.2</ele>
        <time>2024-08-14T09:04:14Z</time>
      </trkpt>
      <trkpt lat="47.09387" lon="2.89076">
        <ele>180.4</ele>
        <time>2024-08-14T09:04:20Z</time>
      </trkpt>
      <trkpt lat="47.0933" lon="2.89063">
        <ele>180.8</ele>
        <time>2024-08-14T09:04:29Z</time>
      </trkpt>
      <trkpt lat="47.09324" lon="2.89062">
        <ele>181</ele>
        <time>2024-08-14T09:04:30Z</time>
      </trkpt>
      <trkpt lat="47.09272" lon="2.89048">
        <ele>181.2</ele>
        <time>2024-08-14T09:04:38Z</time>
      </trkpt>
      <trkpt lat="47.09259" lon="2.89046">
        <ele>181.4</ele>
        <time>2024-08-14T09:04:40Z</time>
      </trkpt>
      <trkpt lat="47.09201" lon="2.89031">
        <ele>181.8</ele>
        <time>2024-08-14T09:04:49Z</time>
      </trkpt>
      <trkpt lat="47.09188" lon="2.89028">
        <ele>181.8</ele>
        <time>2024-08-14T09:04:51Z</time>
      </trkpt>
      <trkpt lat="47.09129" lon="2.89013">
        <ele>182.2</ele>
        <time>2024-08-14T09:05:00Z</time>
      </trkpt>
      <trkpt lat="47.09122" lon="2.89011">
        <ele>182.2</ele>
        <time>2024-08-14T09:05:01Z</time>
      </trkpt>
      <trkpt lat="47.09115" lon="2.89009">
        <ele>182.2</ele>
        <time>2024-08-14T09:05:02Z</time>
      </trkpt>
      <trkpt lat="47.09081" lon="2.89001">
        <ele>182.2</ele>
        <time>2024-08-14T09:05:07Z</time>
      </trkpt>
      <trkpt lat="47.09024" lon="2.88988">
        <ele>181.6</ele>
        <time>2024-08-14T09:05:15Z</time>
      </trkpt>
      <trkpt lat="47.0901" lon="2.88985">
        <ele>181.6</ele>
        <time>2024-08-14T09:05:17Z</time>
      </trkpt>
      <trkpt lat="47.08982" lon="2.88979">
        <ele>181</ele>
        <time>2024-08-14T09:05:21Z</time>
      </trkpt>
      <trkpt lat="47.08953" lon="2.88968">
        <ele>180.4</ele>
        <time>2024-08-14T09:05:25Z</time>
      </trkpt>
      <trkpt lat="47.08931" lon="2.88957">
        <ele>180</ele>
        <time>2024-08-14T09:05:28Z</time>
      </trkpt>
      <trkpt lat="47.08916" lon="2.88957">
        <ele>179.6</ele>
        <time>2024-08-14T09:05:30Z</time>
      </trkpt>
      <trkpt lat="47.08903" lon="2.88965">
        <ele>179.2</ele>
        <time>2024-08-14T09:05:32Z</time>
      </trkpt>
      <trkpt lat="47.08891" lon="2.88975">
        <ele>178.8</ele>
        <time>2024-08-14T09:05:34Z</time>
      </trkpt>
      <trkpt lat="47.08851" lon="2.89009">
        <ele>178.6</ele>
        <time>2024-08-14T09:05:41Z</time>
      </trkpt>
      <trkpt lat="47.08815" lon="2.89035">
        <ele>179.2</ele>
        <time>2024-08-14T09:05:47Z</time>
      </trkpt>
      <trkpt lat="47.08808" lon="2.89038">
        <ele>179.2</ele>
        <time>2024-08-14T09:05:48Z</time>
      </trkpt>
      <trkpt lat="47.08762" lon="2.89052">
        <ele>178.6</ele>
        <time>2024-08-14T09:05:55Z</time>
      </trkpt>
      <trkpt lat="47.08755" lon="2.89055">
        <ele>177.8</ele>
        <time>2024-08-14T09:05:57Z</time>
      </trkpt>
      <trkpt lat="47.08752" lon="2.89055">
        <ele>177.4</ele>
        <time>2024-08-14T09:05:58Z</time>
      </trkpt>
      <trkpt lat="47.08744" lon="2.89058">
        <ele>177.2</ele>
        <time>2024-08-14T09:06:00Z</time>
      </trkpt>
      <trkpt lat="47.08735" lon="2.89065">
        <ele>177</ele>
        <time>2024-08-14T09:06:02Z</time>
      </trkpt>
      <trkpt lat="47.08725" lon="2.89072">
        <ele>176.8</ele>
        <time>2024-08-14T09:06:04Z</time>
      </trkpt>
      <trkpt lat="47.08709" lon="2.89082">
        <ele>176.6</ele>
        <time>2024-08-14T09:06:07Z</time>
      </trkpt>
      <trkpt lat="47.08679" lon="2.89102">
        <ele>176.6</ele>
        <time>2024-08-14T09:06:12Z</time>
      </trkpt>
      <trkpt lat="47.08631" lon="2.89134">
        <ele>176.4</ele>
        <time>2024-08-14T09:06:19Z</time>
      </trkpt>
      <trkpt lat="47.08585" lon="2.89165">
        <ele>176.2</ele>
        <time>2024-08-14T09:06:26Z</time>
      </trkpt>
      <trkpt lat="47.08547" lon="2.89186">
        <ele>176.4</ele>
        <time>2024-08-14T09:06:32Z</time>
      </trkpt>
      <trkpt lat="47.085" lon="2.89198">
        <ele>176.8</ele>
        <time>2024-08-14T09:06:39Z</time>
      </trkpt>
      <trkpt lat="47.08455" lon="2.89205">
        <ele>178</ele>
        <time>2024-08-14T09:06:46Z</time>
      </trkpt>
      <trkpt lat="47.08436" lon="2.89207">
        <ele>178.4</ele>
        <time>2024-08-14T09:06:49Z</time>
      </trkpt>
      <trkpt lat="47.08397" lon="2.89212">
        <ele>179.2</ele>
        <time>2024-08-14T09:06:55Z</time>
      </trkpt>
      <trkpt lat="47.08384" lon="2.89214">
        <ele>179.4</ele>
        <time>2024-08-14T09:06:57Z</time>
      </trkpt>
      <trkpt lat="47.08324" lon="2.89224">
        <ele>179.6</ele>
        <time>2024-08-14T09:07:06Z</time>
      </trkpt>
      <trkpt lat="47.0831" lon="2.89226">
        <ele>179.8</ele>
        <time>2024-08-14T09:07:08Z</time>
      </trkpt>
      <trkpt lat="47.08253" lon="2.89236">
        <ele>179.8</ele>
        <time>2024-08-14T09:07:16Z</time>
      </trkpt>
      <trkpt lat="47.08212" lon="2.89249">
        <ele>179.8</ele>
        <time>2024-08-14T09:07:22Z</time>
      </trkpt>
      <trkpt lat="47.08173" lon="2.89266">
        <ele>180.2</ele>
        <time>2024-08-14T09:07:28Z</time>
      </trkpt>
      <trkpt lat="47.08168" lon="2.89268">
        <ele>180.2</ele>
        <time>2024-08-14T09:07:29Z</time>
      </trkpt>
      <trkpt lat="47.08123" lon="2.89287">
        <ele>181</ele>
        <time>2024-08-14T09:07:36Z</time>
      </trkpt>
      <trkpt lat="47.0811" lon="2.89292">
        <ele>181.2</ele>
        <time>2024-08-14T09:07:38Z</time>
      </trkpt>
      <trkpt lat="47.08055" lon="2.89315">
        <ele>181.2</ele>
        <time>2024-08-14T09:07:46Z</time>
      </trkpt>
      <trkpt lat="47.08002" lon="2.8934">
        <ele>181</ele>
        <time>2024-08-14T09:07:53Z</time>
      </trkpt>
      <trkpt lat="47.0795" lon="2.89374">
        <ele>180.4</ele>
        <time>2024-08-14T09:08:00Z</time>
      </trkpt>
      <trkpt lat="47.07903" lon="2.89402">
        <ele>180.4</ele>
        <time>2024-08-14T09:08:07Z</time>
      </trkpt>
      <trkpt lat="47.07853" lon="2.89434">
        <ele>180.2</ele>
        <time>2024-08-14T09:08:15Z</time>
      </trkpt>
      <trkpt lat="47.07804" lon="2.89464">
        <ele>180.8</ele>
        <time>2024-08-14T09:08:23Z</time>
      </trkpt>
      <trkpt lat="47.07762" lon="2.89485">
        <ele>181.8</ele>
        <time>2024-08-14T09:08:30Z</time>
      </trkpt>
      <trkpt lat="47.07722" lon="2.89504">
        <ele>182.4</ele>
        <time>2024-08-14T09:08:37Z</time>
      </trkpt>
      <trkpt lat="47.07704" lon="2.89512">
        <ele>182.6</ele>
        <time>2024-08-14T09:08:40Z</time>
      </trkpt>
      <trkpt lat="47.07659" lon="2.89534">
        <ele>183</ele>
        <time>2024-08-14T09:08:48Z</time>
      </trkpt>
      <trkpt lat="47.07623" lon="2.8955">
        <ele>183.4</ele>
        <time>2024-08-14T09:08:54Z</time>
      </trkpt>
      <trkpt lat="47.07611" lon="2.89556">
        <ele>183.4</ele>
        <time>2024-08-14T09:08:56Z</time>
      </trkpt>
      <trkpt lat="47.07599" lon="2.89561">
        <ele>183.6</ele>
        <time>2024-08-14T09:08:58Z</time>
      </trkpt>
      <trkpt lat="47.0755" lon="2.89583">
        <ele>184.2</ele>
        <time>2024-08-14T09:09:06Z</time>
      </trkpt>
      <trkpt lat="47.07525" lon="2.89593">
        <ele>184.4</ele>
        <time>2024-08-14T09:09:10Z</time>
      </trkpt>
      <trkpt lat="47.07507" lon="2.89601">
        <ele>184.6</ele>
        <time>2024-08-14T09:09:13Z</time>
      </trkpt>
      <trkpt lat="47.07462" lon="2.89612">
        <ele>184.8</ele>
        <time>2024-08-14T09:09:20Z</time>
      </trkpt>
      <trkpt lat="47.07418" lon="2.89622">
        <ele>185</ele>
        <time>2024-08-14T09:09:26Z</time>
      </trkpt>
      <trkpt lat="47.07368" lon="2.89633">
        <ele>184</ele>
        <time>2024-08-14T09:09:32Z</time>
      </trkpt>
      <trkpt lat="47.07326" lon="2.89641">
        <ele>183.4</ele>
        <time>2024-08-14T09:09:37Z</time>
      </trkpt>
      <trkpt lat="47.07309" lon="2.89644">
        <ele>183.2</ele>
        <time>2024-08-14T09:09:39Z</time>
      </trkpt>
      <trkpt lat="47.07291" lon="2.89648">
        <ele>183.2</ele>
        <time>2024-08-14T09:09:41Z</time>
      </trkpt>
      <trkpt lat="47.07238" lon="2.8966">
        <ele>183.2</ele>
        <time>2024-08-14T09:09:48Z</time>
      </trkpt>
      <trkpt lat="47.07222" lon="2.89663">
        <ele>183.2</ele>
        <time>2024-08-14T09:09:50Z</time>
      </trkpt>
      <trkpt lat="47.07163" lon="2.89676">
        <ele>183</ele>
        <time>2024-08-14T09:09:58Z</time>
      </trkpt>
      <trkpt lat="47.07149" lon="2.89679">
        <ele>183</ele>
        <time>2024-08-14T09:10:00Z</time>
      </trkpt>
      <trkpt lat="47.07095" lon="2.89691">
        <ele>182.8</ele>
        <time>2024-08-14T09:10:08Z</time>
      </trkpt>
      <trkpt lat="47.07081" lon="2.89694">
        <ele>182.6</ele>
        <time>2024-08-14T09:10:10Z</time>
      </trkpt>
      <trkpt lat="47.07047" lon="2.89702">
        <ele>182.4</ele>
        <time>2024-08-14T09:10:15Z</time>
      </trkpt>
      <trkpt lat="47.07026" lon="2.89706">
        <ele>182.4</ele>
        <time>2024-08-14T09:10:18Z</time>
      </trkpt>
      <trkpt lat="47.07007" lon="2.89709">
        <ele>182.4</ele>
        <time>2024-08-14T09:10:21Z</time>
      </trkpt>
      <trkpt lat="47.06979" lon="2.89712">
        <ele>182.2</ele>
        <time>2024-08-14T09:10:25Z</time>
      </trkpt>
      <trkpt lat="47.06926" lon="2.89717">
        <ele>182.2</ele>
        <time>2024-08-14T09:10:33Z</time>
      </trkpt>
      <trkpt lat="47.069" lon="2.89719">
        <ele>182.2</ele>
        <time>2024-08-14T09:10:37Z</time>
      </trkpt>
      <trkpt lat="47.06841" lon="2.89724">
        <ele>182.4</ele>
        <time>2024-08-14T09:10:46Z</time>
      </trkpt>
      <trkpt lat="47.06821" lon="2.89725">
        <ele>182.2</ele>
        <time>2024-08-14T09:10:49Z</time>
      </trkpt>
      <trkpt lat="47.06768" lon="2.89728">
        <ele>182.6</ele>
        <time>2024-08-14T09:10:57Z</time>
      </trkpt>
      <trkpt lat="47.06754" lon="2.89727">
        <ele>182.8</ele>
        <time>2024-08-14T09:10:59Z</time>
      </trkpt>
      <trkpt lat="47.06737" lon="2.8972">
        <ele>183</ele>
        <time>2024-08-14T09:11:02Z</time>
      </trkpt>
      <trkpt lat="47.06687" lon="2.8969">
        <ele>183.4</ele>
        <time>2024-08-14T09:11:10Z</time>
      </trkpt>
      <trkpt lat="47.06682" lon="2.89687">
        <ele>183.4</ele>
        <time>2024-08-14T09:11:11Z</time>
      </trkpt>
      <trkpt lat="47.06628" lon="2.89654">
        <ele>183</ele>
        <time>2024-08-14T09:11:19Z</time>
      </trkpt>
      <trkpt lat="47.06622" lon="2.8965">
        <ele>182.8</ele>
        <time>2024-08-14T09:11:20Z</time>
      </trkpt>
      <trkpt lat="47.06579" lon="2.89624">
        <ele>181.8</ele>
        <time>2024-08-14T09:11:26Z</time>
      </trkpt>
      <trkpt lat="47.06562" lon="2.89614">
        <ele>181.4</ele>
        <time>2024-08-14T09:11:28Z</time>
      </trkpt>
      <trkpt lat="47.06538" lon="2.89604">
        <ele>180.6</ele>
        <time>2024-08-14T09:11:31Z</time>
      </trkpt>
      <trkpt lat="47.06523" lon="2.896">
        <ele>180.2</ele>
        <time>2024-08-14T09:11:33Z</time>
      </trkpt>
      <trkpt lat="47.06482" lon="2.89589">
        <ele>179.2</ele>
        <time>2024-08-14T09:11:38Z</time>
      </trkpt>
      <trkpt lat="47.06448" lon="2.89581">
        <ele>178.2</ele>
        <time>2024-08-14T09:11:42Z</time>
      </trkpt>
      <trkpt lat="47.06441" lon="2.89579">
        <ele>178.2</ele>
        <time>2024-08-14T09:11:43Z</time>
      </trkpt>
      <trkpt lat="47.06394" lon="2.89555">
        <ele>177.4</ele>
        <time>2024-08-14T09:11:49Z</time>
      </trkpt>
      <trkpt lat="47.06375" lon="2.89541">
        <ele>177</ele>
        <time>2024-08-14T09:11:52Z</time>
      </trkpt>
      <trkpt lat="47.06339" lon="2.89514">
        <ele>176.6</ele>
        <time>2024-08-14T09:11:57Z</time>
      </trkpt>
      <trkpt lat="47.06308" lon="2.89491">
        <ele>176</ele>
        <time>2024-08-14T09:12:01Z</time>
      </trkpt>
      <trkpt lat="47.06291" lon="2.89475">
        <ele>175.6</ele>
        <time>2024-08-14T09:12:03Z</time>
      </trkpt>
      <trkpt lat="47.06272" lon="2.89453">
        <ele>174.8</ele>
        <time>2024-08-14T09:12:06Z</time>
      </trkpt>
      <trkpt lat="47.06264" lon="2.89448">
        <ele>174.6</ele>
        <time>2024-08-14T09:12:07Z</time>
      </trkpt>
      <trkpt lat="47.06254" lon="2.89443">
        <ele>174.2</ele>
        <time>2024-08-14T09:12:08Z</time>
      </trkpt>
      <trkpt lat="47.06232" lon="2.89434">
        <ele>173.6</ele>
        <time>2024-08-14T09:12:11Z</time>
      </trkpt>
      <trkpt lat="47.06214" lon="2.89428">
        <ele>173.2</ele>
        <time>2024-08-14T09:12:13Z</time>
      </trkpt>
      <trkpt lat="47.06183" lon="2.89415">
        <ele>172.4</ele>
        <time>2024-08-14T09:12:17Z</time>
      </trkpt>
      <trkpt lat="47.06161" lon="2.89406">
        <ele>172.2</ele>
        <time>2024-08-14T09:12:20Z</time>
      </trkpt>
      <trkpt lat="47.06135" lon="2.89395">
        <ele>171.6</ele>
        <time>2024-08-14T09:12:23Z</time>
      </trkpt>
      <trkpt lat="47.06128" lon="2.89389">
        <ele>171.2</ele>
        <time>2024-08-14T09:12:24Z</time>
      </trkpt>
      <trkpt lat="47.06123" lon="2.89382">
        <ele>171.4</ele>
        <time>2024-08-14T09:12:25Z</time>
      </trkpt>
      <trkpt lat="47.06111" lon="2.89361">
        <ele>170.8</ele>
        <time>2024-08-14T09:12:27Z</time>
      </trkpt>
      <trkpt lat="47.06108" lon="2.8935">
        <ele>170.8</ele>
        <time>2024-08-14T09:12:28Z</time>
      </trkpt>
      <trkpt lat="47.06096" lon="2.89303">
        <ele>170.4</ele>
        <time>2024-08-14T09:12:32Z</time>
      </trkpt>
      <trkpt lat="47.06092" lon="2.89291">
        <ele>170.4</ele>
        <time>2024-08-14T09:12:33Z</time>
      </trkpt>
      <trkpt lat="47.0609" lon="2.89282">
        <ele>170.2</ele>
        <time>2024-08-14T09:12:34Z</time>
      </trkpt>
      <trkpt lat="47.06077" lon="2.89225">
        <ele>169.4</ele>
        <time>2024-08-14T09:12:39Z</time>
      </trkpt>
      <trkpt lat="47.06073" lon="2.89213">
        <ele>169.2</ele>
        <time>2024-08-14T09:12:40Z</time>
      </trkpt>
      <trkpt lat="47.0607" lon="2.89204">
        <ele>169.2</ele>
        <time>2024-08-14T09:12:41Z</time>
      </trkpt>
      <trkpt lat="47.06055" lon="2.89183">
        <ele>169</ele>
        <time>2024-08-14T09:12:44Z</time>
      </trkpt>
      <trkpt lat="47.06049" lon="2.89175">
        <ele>169.2</ele>
        <time>2024-08-14T09:12:45Z</time>
      </trkpt>
      <trkpt lat="47.06024" lon="2.89157">
        <ele>169.2</ele>
        <time>2024-08-14T09:12:49Z</time>
      </trkpt>
      <trkpt lat="47.05979" lon="2.89135">
        <ele>169.2</ele>
        <time>2024-08-14T09:12:56Z</time>
      </trkpt>
      <trkpt lat="47.05974" lon="2.89132">
        <ele>169.4</ele>
        <time>2024-08-14T09:12:57Z</time>
      </trkpt>
      <trkpt lat="47.05967" lon="2.89129">
        <ele>169.4</ele>
        <time>2024-08-14T09:12:58Z</time>
      </trkpt>
      <trkpt lat="47.05946" lon="2.8912">
        <ele>169.4</ele>
        <time>2024-08-14T09:13:02Z</time>
      </trkpt>
      <trkpt lat="47.05929" lon="2.89114">
        <ele>169.6</ele>
        <time>2024-08-14T09:13:05Z</time>
      </trkpt>
      <trkpt lat="47.05912" lon="2.89106">
        <ele>170</ele>
        <time>2024-08-14T09:13:08Z</time>
      </trkpt>
      <trkpt lat="47.05884" lon="2.89092">
        <ele>170.2</ele>
        <time>2024-08-14T09:13:13Z</time>
      </trkpt>
      <trkpt lat="47.05878" lon="2.89087">
        <ele>170.4</ele>
        <time>2024-08-14T09:13:14Z</time>
      </trkpt>
      <trkpt lat="47.05857" lon="2.89063">
        <ele>170.8</ele>
        <time>2024-08-14T09:13:18Z</time>
      </trkpt>
      <trkpt lat="47.05849" lon="2.8905">
        <ele>171.2</ele>
        <time>2024-08-14T09:13:20Z</time>
      </trkpt>
      <trkpt lat="47.05818" lon="2.88982">
        <ele>171.8</ele>
        <time>2024-08-14T09:13:28Z</time>
      </trkpt>
      <trkpt lat="47.0579" lon="2.88922">
        <ele>172.4</ele>
        <time>2024-08-14T09:13:36Z</time>
      </trkpt>
      <trkpt lat="47.05787" lon="2.88915">
        <ele>172.4</ele>
        <time>2024-08-14T09:13:37Z</time>
      </trkpt>
      <trkpt lat="47.05774" lon="2.88888">
        <ele>173.4</ele>
        <time>2024-08-14T09:13:41Z</time>
      </trkpt>
      <trkpt lat="47.05769" lon="2.88875">
        <ele>173.6</ele>
        <time>2024-08-14T09:13:43Z</time>
      </trkpt>
      <trkpt lat="47.05762" lon="2.88861">
        <ele>174</ele>
        <time>2024-08-14T09:13:45Z</time>
      </trkpt>
      <trkpt lat="47.0575" lon="2.88835">
        <ele>174.6</ele>
        <time>2024-08-14T09:13:49Z</time>
      </trkpt>
      <trkpt lat="47.05727" lon="2.88789">
        <ele>175.8</ele>
        <time>2024-08-14T09:13:56Z</time>
      </trkpt>
      <trkpt lat="47.05716" lon="2.88769">
        <ele>176.2</ele>
        <time>2024-08-14T09:13:59Z</time>
      </trkpt>
      <trkpt lat="47.05694" lon="2.88728">
        <ele>176.6</ele>
        <time>2024-08-14T09:14:05Z</time>
      </trkpt>
      <trkpt lat="47.05668" lon="2.88677">
        <ele>176.8</ele>
        <time>2024-08-14T09:14:13Z</time>
      </trkpt>
      <trkpt lat="47.05664" lon="2.88665">
        <ele>177.2</ele>
        <time>2024-08-14T09:14:15Z</time>
      </trkpt>
      <trkpt lat="47.05651" lon="2.88641">
        <ele>177.8</ele>
        <time>2024-08-14T09:14:19Z</time>
      </trkpt>
      <trkpt lat="47.05647" lon="2.88638">
        <ele>178.2</ele>
        <time>2024-08-14T09:14:20Z</time>
      </trkpt>
      <trkpt lat="47.05643" lon="2.88635">
        <ele>178.2</ele>
        <time>2024-08-14T09:14:21Z</time>
      </trkpt>
      <trkpt lat="47.05631" lon="2.88633">
        <ele>178.6</ele>
        <time>2024-08-14T09:14:23Z</time>
      </trkpt>
      <trkpt lat="47.05621" lon="2.88635">
        <ele>178.8</ele>
        <time>2024-08-14T09:14:25Z</time>
      </trkpt>
      <trkpt lat="47.05596" lon="2.88638">
        <ele>179</ele>
        <time>2024-08-14T09:14:29Z</time>
      </trkpt>
      <trkpt lat="47.05545" lon="2.88644">
        <ele>178.2</ele>
        <time>2024-08-14T09:14:36Z</time>
      </trkpt>
      <trkpt lat="47.05529" lon="2.88643">
        <ele>177.8</ele>
        <time>2024-08-14T09:14:38Z</time>
      </trkpt>
      <trkpt lat="47.05506" lon="2.88637">
        <ele>177</ele>
        <time>2024-08-14T09:14:41Z</time>
      </trkpt>
      <trkpt lat="47.05492" lon="2.88632">
        <ele>176.6</ele>
        <time>2024-08-14T09:14:43Z</time>
      </trkpt>
      <trkpt lat="47.05459" lon="2.88621">
        <ele>176.2</ele>
        <time>2024-08-14T09:14:48Z</time>
      </trkpt>
      <trkpt lat="47.05407" lon="2.88603">
        <ele>176.2</ele>
        <time>2024-08-14T09:14:56Z</time>
      </trkpt>
      <trkpt lat="47.05374" lon="2.88589">
        <ele>177</ele>
        <time>2024-08-14T09:15:02Z</time>
      </trkpt>
      <trkpt lat="47.05338" lon="2.88574">
        <ele>177.6</ele>
        <time>2024-08-14T09:15:09Z</time>
      </trkpt>
      <trkpt lat="47.05334" lon="2.88572">
        <ele>177.8</ele>
        <time>2024-08-14T09:15:10Z</time>
      </trkpt>
      <trkpt lat="47.05324" lon="2.88569">
        <ele>178.2</ele>
        <time>2024-08-14T09:15:12Z</time>
      </trkpt>
      <trkpt lat="47.05313" lon="2.88568">
        <ele>178.6</ele>
        <time>2024-08-14T09:15:14Z</time>
      </trkpt>
      <trkpt lat="47.05307" lon="2.88568">
        <ele>179</ele>
        <time>2024-08-14T09:15:15Z</time>
      </trkpt>
      <trkpt lat="47.05282" lon="2.88573">
        <ele>179.6</ele>
        <time>2024-08-14T09:15:19Z</time>
      </trkpt>
      <trkpt lat="47.05244" lon="2.88584">
        <ele>179.6</ele>
        <time>2024-08-14T09:15:25Z</time>
      </trkpt>
      <trkpt lat="47.05185" lon="2.88602">
        <ele>179.6</ele>
        <time>2024-08-14T09:15:34Z</time>
      </trkpt>
      <trkpt lat="47.05179" lon="2.88603">
        <ele>179.6</ele>
        <time>2024-08-14T09:15:35Z</time>
      </trkpt>
      <trkpt lat="47.05134" lon="2.88612">
        <ele>179.8</ele>
        <time>2024-08-14T09:15:42Z</time>
      </trkpt>
      <trkpt lat="47.05118" lon="2.88615">
        <ele>180</ele>
        <time>2024-08-14T09:15:45Z</time>
      </trkpt>
      <trkpt lat="47.05107" lon="2.88617">
        <ele>180</ele>
        <time>2024-08-14T09:15:47Z</time>
      </trkpt>
      <trkpt lat="47.05078" lon="2.88623">
        <ele>181</ele>
        <time>2024-08-14T09:15:53Z</time>
      </trkpt>
      <trkpt lat="47.05041" lon="2.88635">
        <ele>182.2</ele>
        <time>2024-08-14T09:16:00Z</time>
      </trkpt>
      <trkpt lat="47.05025" lon="2.8864">
        <ele>182.8</ele>
        <time>2024-08-14T09:16:03Z</time>
      </trkpt>
      <trkpt lat="47.0501" lon="2.88645">
        <ele>183.4</ele>
        <time>2024-08-14T09:16:06Z</time>
      </trkpt>
      <trkpt lat="47.04975" lon="2.88657">
        <ele>184.4</ele>
        <time>2024-08-14T09:16:13Z</time>
      </trkpt>
      <trkpt lat="47.04954" lon="2.88666">
        <ele>185.4</ele>
        <time>2024-08-14T09:16:18Z</time>
      </trkpt>
      <trkpt lat="47.04942" lon="2.8867">
        <ele>186</ele>
        <time>2024-08-14T09:16:21Z</time>
      </trkpt>
      <trkpt lat="47.04934" lon="2.88672">
        <ele>187.2</ele>
        <time>2024-08-14T09:16:23Z</time>
      </trkpt>
      <trkpt lat="47.04926" lon="2.88675">
        <ele>188</ele>
        <time>2024-08-14T09:16:26Z</time>
      </trkpt>
      <trkpt lat="47.04923" lon="2.88678">
        <ele>188.6</ele>
        <time>2024-08-14T09:16:27Z</time>
      </trkpt>
      <trkpt lat="47.04912" lon="2.88692">
        <ele>189.4</ele>
        <time>2024-08-14T09:16:31Z</time>
      </trkpt>
      <trkpt lat="47.04907" lon="2.88696">
        <ele>189.6</ele>
        <time>2024-08-14T09:16:32Z</time>
      </trkpt>
      <trkpt lat="47.04901" lon="2.88702">
        <ele>190</ele>
        <time>2024-08-14T09:16:34Z</time>
      </trkpt>
      <trkpt lat="47.04891" lon="2.88713">
        <ele>190.2</ele>
        <time>2024-08-14T09:16:37Z</time>
      </trkpt>
      <trkpt lat="47.04864" lon="2.88738">
        <ele>190.4</ele>
        <time>2024-08-14T09:16:43Z</time>
      </trkpt>
      <trkpt lat="47.04835" lon="2.88766">
        <ele>190.4</ele>
        <time>2024-08-14T09:16:49Z</time>
      </trkpt>
      <trkpt lat="47.04796" lon="2.88799">
        <ele>190.4</ele>
        <time>2024-08-14T09:16:56Z</time>
      </trkpt>
      <trkpt lat="47.04791" lon="2.88801">
        <ele>190.4</ele>
        <time>2024-08-14T09:16:57Z</time>
      </trkpt>
      <trkpt lat="47.04767" lon="2.88815">
        <ele>190.2</ele>
        <time>2024-08-14T09:17:01Z</time>
      </trkpt>
      <trkpt lat="47.04713" lon="2.88842">
        <ele>189.8</ele>
        <time>2024-08-14T09:17:10Z</time>
      </trkpt>
      <trkpt lat="47.04679" lon="2.88857">
        <ele>190.4</ele>
        <time>2024-08-14T09:17:16Z</time>
      </trkpt>
      <trkpt lat="47.04654" lon="2.88859">
        <ele>190.6</ele>
        <time>2024-08-14T09:17:20Z</time>
      </trkpt>
      <trkpt lat="47.04641" lon="2.88858">
        <ele>190.6</ele>
        <time>2024-08-14T09:17:22Z</time>
      </trkpt>
      <trkpt lat="47.04587" lon="2.88851">
        <ele>190.6</ele>
        <time>2024-08-14T09:17:30Z</time>
      </trkpt>
      <trkpt lat="47.04549" lon="2.88848">
        <ele>191</ele>
        <time>2024-08-14T09:17:36Z</time>
      </trkpt>
      <trkpt lat="47.04543" lon="2.88849">
        <ele>191.2</ele>
        <time>2024-08-14T09:17:37Z</time>
      </trkpt>
      <trkpt lat="47.04537" lon="2.88849">
        <ele>191.4</ele>
        <time>2024-08-14T09:17:38Z</time>
      </trkpt>
      <trkpt lat="47.04527" lon="2.88852">
        <ele>191.6</ele>
        <time>2024-08-14T09:17:40Z</time>
      </trkpt>
      <trkpt lat="47.04515" lon="2.88855">
        <ele>192</ele>
        <time>2024-08-14T09:17:42Z</time>
      </trkpt>
      <trkpt lat="47.045" lon="2.88863">
        <ele>192.8</ele>
        <time>2024-08-14T09:17:45Z</time>
      </trkpt>
      <trkpt lat="47.04478" lon="2.88875">
        <ele>193.4</ele>
        <time>2024-08-14T09:17:49Z</time>
      </trkpt>
      <trkpt lat="47.04457" lon="2.88886">
        <ele>193.6</ele>
        <time>2024-08-14T09:17:53Z</time>
      </trkpt>
      <trkpt lat="47.04435" lon="2.88897">
        <ele>193.8</ele>
        <time>2024-08-14T09:17:57Z</time>
      </trkpt>
      <trkpt lat="47.04399" lon="2.88917">
        <ele>194.6</ele>
        <time>2024-08-14T09:18:04Z</time>
      </trkpt>
      <trkpt lat="47.04394" lon="2.88919">
        <ele>194.8</ele>
        <time>2024-08-14T09:18:05Z</time>
      </trkpt>
      <trkpt lat="47.04354" lon="2.88941">
        <ele>195.8</ele>
        <time>2024-08-14T09:18:13Z</time>
      </trkpt>
      <trkpt lat="47.04348" lon="2.88944">
        <ele>195.8</ele>
        <time>2024-08-14T09:18:14Z</time>
      </trkpt>
      <trkpt lat="47.04296" lon="2.88973">
        <ele>196.6</ele>
        <time>2024-08-14T09:18:24Z</time>
      </trkpt>
      <trkpt lat="47.04292" lon="2.88975">
        <ele>196.6</ele>
        <time>2024-08-14T09:18:25Z</time>
      </trkpt>
      <trkpt lat="47.04282" lon="2.88981">
        <ele>196.8</ele>
        <time>2024-08-14T09:18:27Z</time>
      </trkpt>
      <trkpt lat="47.04257" lon="2.88995">
        <ele>197.2</ele>
        <time>2024-08-14T09:18:32Z</time>
      </trkpt>
      <trkpt lat="47.04217" lon="2.89018">
        <ele>197.8</ele>
        <time>2024-08-14T09:18:40Z</time>
      </trkpt>
      <trkpt lat="47.04212" lon="2.89023">
        <ele>197.8</ele>
        <time>2024-08-14T09:18:41Z</time>
      </trkpt>
      <trkpt lat="47.04208" lon="2.89028">
        <ele>197.8</ele>
        <time>2024-08-14T09:18:42Z</time>
      </trkpt>
      <trkpt lat="47.04164" lon="2.89081">
        <ele>198</ele>
        <time>2024-08-14T09:18:51Z</time>
      </trkpt>
      <trkpt lat="47.04131" lon="2.89122">
        <ele>198</ele>
        <time>2024-08-14T09:18:58Z</time>
      </trkpt>
      <trkpt lat="47.04124" lon="2.89139">
        <ele>198</ele>
        <time>2024-08-14T09:19:00Z</time>
      </trkpt>
      <trkpt lat="47.04123" lon="2.89146">
        <ele>198</ele>
        <time>2024-08-14T09:19:01Z</time>
      </trkpt>
      <trkpt lat="47.04123" lon="2.89156">
        <ele>198</ele>
        <time>2024-08-14T09:19:02Z</time>
      </trkpt>
      <trkpt lat="47.04124" lon="2.89175">
        <ele>198</ele>
        <time>2024-08-14T09:19:04Z</time>
      </trkpt>
      <trkpt lat="47.04126" lon="2.89186">
        <ele>198</ele>
        <time>2024-08-14T09:19:05Z</time>
      </trkpt>
      <trkpt lat="47.04145" lon="2.89242">
        <ele>197.8</ele>
        <time>2024-08-14T09:19:11Z</time>
      </trkpt>
      <trkpt lat="47.0416" lon="2.89285">
        <ele>196.8</ele>
        <time>2024-08-14T09:19:15Z</time>
      </trkpt>
      <trkpt lat="47.04164" lon="2.89296">
        <ele>196.4</ele>
        <time>2024-08-14T09:19:16Z</time>
      </trkpt>
      <trkpt lat="47.04167" lon="2.89308">
        <ele>196.2</ele>
        <time>2024-08-14T09:19:17Z</time>
      </trkpt>
      <trkpt lat="47.04168" lon="2.8932">
        <ele>196</ele>
        <time>2024-08-14T09:19:18Z</time>
      </trkpt>
      <trkpt lat="47.04165" lon="2.89346">
        <ele>195.4</ele>
        <time>2024-08-14T09:19:20Z</time>
      </trkpt>
      <trkpt lat="47.04157" lon="2.89385">
        <ele>194.4</ele>
        <time>2024-08-14T09:19:23Z</time>
      </trkpt>
      <trkpt lat="47.0415" lon="2.89423">
        <ele>193.2</ele>
        <time>2024-08-14T09:19:26Z</time>
      </trkpt>
      <trkpt lat="47.04142" lon="2.89461">
        <ele>192.8</ele>
        <time>2024-08-14T09:19:29Z</time>
      </trkpt>
      <trkpt lat="47.04138" lon="2.89473">
        <ele>192.4</ele>
        <time>2024-08-14T09:19:30Z</time>
      </trkpt>
      <trkpt lat="47.04127" lon="2.89494">
        <ele>192</ele>
        <time>2024-08-14T09:19:32Z</time>
      </trkpt>
      <trkpt lat="47.04111" lon="2.89507">
        <ele>191.6</ele>
        <time>2024-08-14T09:19:34Z</time>
      </trkpt>
      <trkpt lat="47.04102" lon="2.8951">
        <ele>191.4</ele>
        <time>2024-08-14T09:19:35Z</time>
      </trkpt>
      <trkpt lat="47.04093" lon="2.89511">
        <ele>191.2</ele>
        <time>2024-08-14T09:19:36Z</time>
      </trkpt>
      <trkpt lat="47.04082" lon="2.8951">
        <ele>190.8</ele>
        <time>2024-08-14T09:19:37Z</time>
      </trkpt>
      <trkpt lat="47.04065" lon="2.89509">
        <ele>190.4</ele>
        <time>2024-08-14T09:19:39Z</time>
      </trkpt>
      <trkpt lat="47.04032" lon="2.8951">
        <ele>189.6</ele>
        <time>2024-08-14T09:19:43Z</time>
      </trkpt>
      <trkpt lat="47.04024" lon="2.89511">
        <ele>189.2</ele>
        <time>2024-08-14T09:19:44Z</time>
      </trkpt>
      <trkpt lat="47.03971" lon="2.89515">
        <ele>188.8</ele>
        <time>2024-08-14T09:19:51Z</time>
      </trkpt>
      <trkpt lat="47.03931" lon="2.89518">
        <ele>189</ele>
        <time>2024-08-14T09:19:57Z</time>
      </trkpt>
      <trkpt lat="47.03893" lon="2.89523">
        <ele>189.2</ele>
        <time>2024-08-14T09:20:03Z</time>
      </trkpt>
      <trkpt lat="47.03851" lon="2.89527">
        <ele>190.4</ele>
        <time>2024-08-14T09:20:11Z</time>
      </trkpt>
      <trkpt lat="47.0384" lon="2.89528">
        <ele>190.8</ele>
        <time>2024-08-14T09:20:13Z</time>
      </trkpt>
      <trkpt lat="47.0382" lon="2.8953">
        <ele>191.8</ele>
        <time>2024-08-14T09:20:17Z</time>
      </trkpt>
      <trkpt lat="47.03808" lon="2.89532">
        <ele>192.2</ele>
        <time>2024-08-14T09:20:19Z</time>
      </trkpt>
      <trkpt lat="47.03768" lon="2.89548">
        <ele>192.6</ele>
        <time>2024-08-14T09:20:26Z</time>
      </trkpt>
      <trkpt lat="47.03731" lon="2.89575">
        <ele>192.4</ele>
        <time>2024-08-14T09:20:32Z</time>
      </trkpt>
      <trkpt lat="47.03696" lon="2.89604">
        <ele>191.8</ele>
        <time>2024-08-14T09:20:37Z</time>
      </trkpt>
      <trkpt lat="47.03673" lon="2.89624">
        <ele>190.8</ele>
        <time>2024-08-14T09:20:40Z</time>
      </trkpt>
      <trkpt lat="47.03656" lon="2.89637">
        <ele>189.4</ele>
        <time>2024-08-14T09:20:42Z</time>
      </trkpt>
      <trkpt lat="47.03631" lon="2.89657">
        <ele>188.8</ele>
        <time>2024-08-14T09:20:45Z</time>
      </trkpt>
      <trkpt lat="47.03614" lon="2.89671">
        <ele>188.2</ele>
        <time>2024-08-14T09:20:47Z</time>
      </trkpt>
      <trkpt lat="47.03582" lon="2.89697">
        <ele>187.2</ele>
        <time>2024-08-14T09:20:51Z</time>
      </trkpt>
      <trkpt lat="47.0356" lon="2.89714">
        <ele>187</ele>
        <time>2024-08-14T09:20:54Z</time>
      </trkpt>
      <trkpt lat="47.03505" lon="2.89758">
        <ele>186.4</ele>
        <time>2024-08-14T09:21:01Z</time>
      </trkpt>
      <trkpt lat="47.03497" lon="2.89765">
        <ele>186.2</ele>
        <time>2024-08-14T09:21:02Z</time>
      </trkpt>
      <trkpt lat="47.03472" lon="2.89785">
        <ele>185.8</ele>
        <time>2024-08-14T09:21:05Z</time>
      </trkpt>
      <trkpt lat="47.03423" lon="2.89811">
        <ele>185.4</ele>
        <time>2024-08-14T09:21:11Z</time>
      </trkpt>
      <trkpt lat="47.03414" lon="2.89813">
        <ele>185.2</ele>
        <time>2024-08-14T09:21:12Z</time>
      </trkpt>
      <trkpt lat="47.03361" lon="2.89822">
        <ele>184.6</ele>
        <time>2024-08-14T09:21:18Z</time>
      </trkpt>
      <trkpt lat="47.0332" lon="2.89818">
        <ele>184.4</ele>
        <time>2024-08-14T09:21:23Z</time>
      </trkpt>
      <trkpt lat="47.03286" lon="2.89806">
        <ele>184.8</ele>
        <time>2024-08-14T09:21:28Z</time>
      </trkpt>
      <trkpt lat="47.03267" lon="2.89803">
        <ele>185.2</ele>
        <time>2024-08-14T09:21:31Z</time>
      </trkpt>
      <trkpt lat="47.03255" lon="2.89804">
        <ele>185.6</ele>
        <time>2024-08-14T09:21:33Z</time>
      </trkpt>
      <trkpt lat="47.03218" lon="2.89817">
        <ele>186.2</ele>
        <time>2024-08-14T09:21:39Z</time>
      </trkpt>
      <trkpt lat="47.03191" lon="2.89829">
        <ele>186.2</ele>
        <time>2024-08-14T09:21:44Z</time>
      </trkpt>
      <trkpt lat="47.03181" lon="2.89834">
        <ele>186.6</ele>
        <time>2024-08-14T09:21:46Z</time>
      </trkpt>
      <trkpt lat="47.03169" lon="2.89841">
        <ele>187.2</ele>
        <time>2024-08-14T09:21:49Z</time>
      </trkpt>
      <trkpt lat="47.03157" lon="2.89846">
        <ele>187.6</ele>
        <time>2024-08-14T09:21:52Z</time>
      </trkpt>
      <trkpt lat="47.03141" lon="2.89852">
        <ele>188.4</ele>
        <time>2024-08-14T09:21:56Z</time>
      </trkpt>
      <trkpt lat="47.0312" lon="2.89862">
        <ele>189.4</ele>
        <time>2024-08-14T09:22:01Z</time>
      </trkpt>
      <trkpt lat="47.03091" lon="2.89874">
        <ele>190.4</ele>
        <time>2024-08-14T09:22:08Z</time>
      </trkpt>
      <trkpt lat="47.03079" lon="2.8988">
        <ele>190.8</ele>
        <time>2024-08-14T09:22:11Z</time>
      </trkpt>
      <trkpt lat="47.03064" lon="2.89887">
        <ele>191.6</ele>
        <time>2024-08-14T09:22:15Z</time>
      </trkpt>
      <trkpt lat="47.0304" lon="2.89897">
        <ele>192.4</ele>
        <time>2024-08-14T09:22:21Z</time>
      </trkpt>
      <trkpt lat="47.03037" lon="2.89898">
        <ele>192.6</ele>
        <time>2024-08-14T09:22:22Z</time>
      </trkpt>
      <trkpt lat="47.03014" lon="2.8991">
        <ele>193.6</ele>
        <time>2024-08-14T09:22:28Z</time>
      </trkpt>
      <trkpt lat="47.0301" lon="2.89911">
        <ele>193.8</ele>
        <time>2024-08-14T09:22:29Z</time>
      </trkpt>
      <trkpt lat="47.02974" lon="2.89928">
        <ele>194.8</ele>
        <time>2024-08-14T09:22:38Z</time>
      </trkpt>
      <trkpt lat="47.02969" lon="2.8993">
        <ele>194.8</ele>
        <time>2024-08-14T09:22:39Z</time>
      </trkpt>
      <trkpt lat="47.02927" lon="2.89949">
        <ele>195.6</ele>
        <time>2024-08-14T09:22:48Z</time>
      </trkpt>
      <trkpt lat="47.02912" lon="2.89955">
        <ele>195.8</ele>
        <time>2024-08-14T09:22:51Z</time>
      </trkpt>
      <trkpt lat="47.02882" lon="2.89969">
        <ele>196.2</ele>
        <time>2024-08-14T09:22:57Z</time>
      </trkpt>
      <trkpt lat="47.02847" lon="2.89983">
        <ele>196.8</ele>
        <time>2024-08-14T09:23:04Z</time>
      </trkpt>
      <trkpt lat="47.02842" lon="2.89985">
        <ele>197</ele>
        <time>2024-08-14T09:23:05Z</time>
      </trkpt>
      <trkpt lat="47.028" lon="2.90003">
        <ele>197.6</ele>
        <time>2024-08-14T09:23:14Z</time>
      </trkpt>
      <trkpt lat="47.02787" lon="2.90008">
        <ele>198</ele>
        <time>2024-08-14T09:23:17Z</time>
      </trkpt>
      <trkpt lat="47.02769" lon="2.90016">
        <ele>198.4</ele>
        <time>2024-08-14T09:23:21Z</time>
      </trkpt>
      <trkpt lat="47.02754" lon="2.90024">
        <ele>199</ele>
        <time>2024-08-14T09:23:25Z</time>
      </trkpt>
      <trkpt lat="47.02738" lon="2.90032">
        <ele>199.6</ele>
        <time>2024-08-14T09:23:29Z</time>
      </trkpt>
      <trkpt lat="47.02718" lon="2.90039">
        <ele>200</ele>
        <time>2024-08-14T09:23:34Z</time>
      </trkpt>
      <trkpt lat="47.02702" lon="2.90046">
        <ele>201</ele>
        <time>2024-08-14T09:23:38Z</time>
      </trkpt>
      <trkpt lat="47.02698" lon="2.90047">
        <ele>201.2</ele>
        <time>2024-08-14T09:23:39Z</time>
      </trkpt>
      <trkpt lat="47.02682" lon="2.90054">
        <ele>202.2</ele>
        <time>2024-08-14T09:23:43Z</time>
      </trkpt>
      <trkpt lat="47.02671" lon="2.90059">
        <ele>203</ele>
        <time>2024-08-14T09:23:46Z</time>
      </trkpt>
      <trkpt lat="47.02667" lon="2.90061">
        <ele>203.4</ele>
        <time>2024-08-14T09:23:47Z</time>
      </trkpt>
      <trkpt lat="47.02636" lon="2.90074">
        <ele>204.4</ele>
        <time>2024-08-14T09:23:55Z</time>
      </trkpt>
      <trkpt lat="47.02605" lon="2.90091">
        <ele>205.4</ele>
        <time>2024-08-14T09:24:03Z</time>
      </trkpt>
      <trkpt lat="47.02593" lon="2.90097">
        <ele>205.8</ele>
        <time>2024-08-14T09:24:06Z</time>
      </trkpt>
      <trkpt lat="47.02561" lon="2.90117">
        <ele>206.4</ele>
        <time>2024-08-14T09:24:14Z</time>
      </trkpt>
      <trkpt lat="47.02557" lon="2.9012">
        <ele>206.6</ele>
        <time>2024-08-14T09:24:15Z</time>
      </trkpt>
      <trkpt lat="47.02527" lon="2.90138">
        <ele>207.6</ele>
        <time>2024-08-14T09:24:22Z</time>
      </trkpt>
      <trkpt lat="47.02508" lon="2.90153">
        <ele>208</ele>
        <time>2024-08-14T09:24:26Z</time>
      </trkpt>
      <trkpt lat="47.02503" lon="2.90159">
        <ele>208</ele>
        <time>2024-08-14T09:24:27Z</time>
      </trkpt>
      <trkpt lat="47.02479" lon="2.90195">
        <ele>207.8</ele>
        <time>2024-08-14T09:24:32Z</time>
      </trkpt>
      <trkpt lat="47.02471" lon="2.90212">
        <ele>207.4</ele>
        <time>2024-08-14T09:24:34Z</time>
      </trkpt>
      <trkpt lat="47.02461" lon="2.90242">
        <ele>206.6</ele>
        <time>2024-08-14T09:24:37Z</time>
      </trkpt>
      <trkpt lat="47.02457" lon="2.90253">
        <ele>206.4</ele>
        <time>2024-08-14T09:24:38Z</time>
      </trkpt>
      <trkpt lat="47.02443" lon="2.903">
        <ele>205.2</ele>
        <time>2024-08-14T09:24:42Z</time>
      </trkpt>
      <trkpt lat="47.0244" lon="2.90312">
        <ele>205</ele>
        <time>2024-08-14T09:24:43Z</time>
      </trkpt>
      <trkpt lat="47.02431" lon="2.90338">
        <ele>204</ele>
        <time>2024-08-14T09:24:45Z</time>
      </trkpt>
      <trkpt lat="47.02416" lon="2.9037">
        <ele>203.2</ele>
        <time>2024-08-14T09:24:48Z</time>
      </trkpt>
      <trkpt lat="47.02411" lon="2.9038">
        <ele>203</ele>
        <time>2024-08-14T09:24:49Z</time>
      </trkpt>
      <trkpt lat="47.02399" lon="2.90397">
        <ele>202.8</ele>
        <time>2024-08-14T09:24:51Z</time>
      </trkpt>
      <trkpt lat="47.02387" lon="2.90412">
        <ele>202.8</ele>
        <time>2024-08-14T09:24:53Z</time>
      </trkpt>
      <trkpt lat="47.02349" lon="2.9046">
        <ele>202.6</ele>
        <time>2024-08-14T09:25:00Z</time>
      </trkpt>
      <trkpt lat="47.02307" lon="2.90511">
        <ele>203.8</ele>
        <time>2024-08-14T09:25:08Z</time>
      </trkpt>
      <trkpt lat="47.02297" lon="2.90524">
        <ele>204</ele>
        <time>2024-08-14T09:25:10Z</time>
      </trkpt>
      <trkpt lat="47.02268" lon="2.90561">
        <ele>204.4</ele>
        <time>2024-08-14T09:25:16Z</time>
      </trkpt>
      <trkpt lat="47.02228" lon="2.9061">
        <ele>204.4</ele>
        <time>2024-08-14T09:25:24Z</time>
      </trkpt>
      <trkpt lat="47.02185" lon="2.90664">
        <ele>203.8</ele>
        <time>2024-08-14T09:25:32Z</time>
      </trkpt>
      <trkpt lat="47.02179" lon="2.90671">
        <ele>203.4</ele>
        <time>2024-08-14T09:25:33Z</time>
      </trkpt>
      <trkpt lat="47.02167" lon="2.90686">
        <ele>202.6</ele>
        <time>2024-08-14T09:25:35Z</time>
      </trkpt>
      <trkpt lat="47.02145" lon="2.90721">
        <ele>202</ele>
        <time>2024-08-14T09:25:39Z</time>
      </trkpt>
      <trkpt lat="47.0214" lon="2.90732">
        <ele>201.8</ele>
        <time>2024-08-14T09:25:40Z</time>
      </trkpt>
      <trkpt lat="47.02133" lon="2.90756">
        <ele>201.2</ele>
        <time>2024-08-14T09:25:42Z</time>
      </trkpt>
      <trkpt lat="47.02129" lon="2.90784">
        <ele>200.4</ele>
        <time>2024-08-14T09:25:44Z</time>
      </trkpt>
      <trkpt lat="47.02129" lon="2.908">
        <ele>200</ele>
        <time>2024-08-14T09:25:45Z</time>
      </trkpt>
      <trkpt lat="47.02133" lon="2.90846">
        <ele>199.2</ele>
        <time>2024-08-14T09:25:48Z</time>
      </trkpt>
      <trkpt lat="47.02132" lon="2.90862">
        <ele>198.6</ele>
        <time>2024-08-14T09:25:49Z</time>
      </trkpt>
      <trkpt lat="47.02129" lon="2.90877">
        <ele>198</ele>
        <time>2024-08-14T09:25:50Z</time>
      </trkpt>
      <trkpt lat="47.02123" lon="2.90891">
        <ele>197.4</ele>
        <time>2024-08-14T09:25:51Z</time>
      </trkpt>
      <trkpt lat="47.02115" lon="2.90903">
        <ele>197</ele>
        <time>2024-08-14T09:25:52Z</time>
      </trkpt>
      <trkpt lat="47.02105" lon="2.90911">
        <ele>196.4</ele>
        <time>2024-08-14T09:25:53Z</time>
      </trkpt>
      <trkpt lat="47.02093" lon="2.90914">
        <ele>195.4</ele>
        <time>2024-08-14T09:25:54Z</time>
      </trkpt>
      <trkpt lat="47.02083" lon="2.90912">
        <ele>195.2</ele>
        <time>2024-08-14T09:25:55Z</time>
      </trkpt>
      <trkpt lat="47.02071" lon="2.90907">
        <ele>194.4</ele>
        <time>2024-08-14T09:25:56Z</time>
      </trkpt>
      <trkpt lat="47.0206" lon="2.90901">
        <ele>194.2</ele>
        <time>2024-08-14T09:25:57Z</time>
      </trkpt>
      <trkpt lat="47.02046" lon="2.90894">
        <ele>193.6</ele>
        <time>2024-08-14T09:25:58Z</time>
      </trkpt>
      <trkpt lat="47.02026" lon="2.90882">
        <ele>192.4</ele>
        <time>2024-08-14T09:26:00Z</time>
      </trkpt>
      <trkpt lat="47.01988" lon="2.90866">
        <ele>191.2</ele>
        <time>2024-08-14T09:26:03Z</time>
      </trkpt>
      <trkpt lat="47.01976" lon="2.90864">
        <ele>190.6</ele>
        <time>2024-08-14T09:26:04Z</time>
      </trkpt>
      <trkpt lat="47.01964" lon="2.90865">
        <ele>189.4</ele>
        <time>2024-08-14T09:26:05Z</time>
      </trkpt>
      <trkpt lat="47.01941" lon="2.90873">
        <ele>188.4</ele>
        <time>2024-08-14T09:26:07Z</time>
      </trkpt>
      <trkpt lat="47.01919" lon="2.90883">
        <ele>187</ele>
        <time>2024-08-14T09:26:09Z</time>
      </trkpt>
      <trkpt lat="47.01909" lon="2.90887">
        <ele>186.6</ele>
        <time>2024-08-14T09:26:10Z</time>
      </trkpt>
      <trkpt lat="47.01899" lon="2.90889">
        <ele>186.4</ele>
        <time>2024-08-14T09:26:11Z</time>
      </trkpt>
      <trkpt lat="47.01889" lon="2.90887">
        <ele>185.8</ele>
        <time>2024-08-14T09:26:12Z</time>
      </trkpt>
      <trkpt lat="47.0188" lon="2.90882">
        <ele>185.6</ele>
        <time>2024-08-14T09:26:13Z</time>
      </trkpt>
      <trkpt lat="47.01873" lon="2.90874">
        <ele>185.4</ele>
        <time>2024-08-14T09:26:14Z</time>
      </trkpt>
      <trkpt lat="47.01868" lon="2.90865">
        <ele>185.4</ele>
        <time>2024-08-14T09:26:15Z</time>
      </trkpt>
      <trkpt lat="47.01854" lon="2.90832">
        <ele>185.6</ele>
        <time>2024-08-14T09:26:19Z</time>
      </trkpt>
      <trkpt lat="47.01846" lon="2.90821">
        <ele>186.2</ele>
        <time>2024-08-14T09:26:21Z</time>
      </trkpt>
      <trkpt lat="47.01837" lon="2.90813">
        <ele>187.2</ele>
        <time>2024-08-14T09:26:23Z</time>
      </trkpt>
      <trkpt lat="47.01824" lon="2.90805">
        <ele>188.6</ele>
        <time>2024-08-14T09:26:26Z</time>
      </trkpt>
      <trkpt lat="47.01816" lon="2.90804">
        <ele>189.6</ele>
        <time>2024-08-14T09:26:28Z</time>
      </trkpt>
      <trkpt lat="47.01804" lon="2.90804">
        <ele>190.6</ele>
        <time>2024-08-14T09:26:31Z</time>
      </trkpt>
      <trkpt lat="47.01788" lon="2.90807">
        <ele>191.6</ele>
        <time>2024-08-14T09:26:35Z</time>
      </trkpt>
      <trkpt lat="47.01784" lon="2.90808">
        <ele>191.6</ele>
        <time>2024-08-14T09:26:36Z</time>
      </trkpt>
      <trkpt lat="47.01762" lon="2.90813">
        <ele>192.8</ele>
        <time>2024-08-14T09:26:42Z</time>
      </trkpt>
      <trkpt lat="47.01747" lon="2.90816">
        <ele>193.6</ele>
        <time>2024-08-14T09:26:46Z</time>
      </trkpt>
      <trkpt lat="47.01743" lon="2.90817">
        <ele>194</ele>
        <time>2024-08-14T09:26:47Z</time>
      </trkpt>
      <trkpt lat="47.01727" lon="2.90817">
        <ele>195.2</ele>
        <time>2024-08-14T09:26:51Z</time>
      </trkpt>
      <trkpt lat="47.01714" lon="2.90816">
        <ele>195.8</ele>
        <time>2024-08-14T09:26:54Z</time>
      </trkpt>
      <trkpt lat="47.01706" lon="2.90815">
        <ele>196.2</ele>
        <time>2024-08-14T09:26:56Z</time>
      </trkpt>
      <trkpt lat="47.01681" lon="2.90813">
        <ele>197.2</ele>
        <time>2024-08-14T09:27:02Z</time>
      </trkpt>
      <trkpt lat="47.01656" lon="2.90812">
        <ele>198.2</ele>
        <time>2024-08-14T09:27:08Z</time>
      </trkpt>
      <trkpt lat="47.01639" lon="2.90811">
        <ele>198.8</ele>
        <time>2024-08-14T09:27:12Z</time>
      </trkpt>
      <trkpt lat="47.0162" lon="2.9081">
        <ele>199.2</ele>
        <time>2024-08-14T09:27:16Z</time>
      </trkpt>
      <trkpt lat="47.01605" lon="2.90809">
        <ele>199.2</ele>
        <time>2024-08-14T09:27:19Z</time>
      </trkpt>
      <trkpt lat="47.0156" lon="2.90805">
        <ele>199.6</ele>
        <time>2024-08-14T09:27:28Z</time>
      </trkpt>
      <trkpt lat="47.0155" lon="2.90805">
        <ele>199.8</ele>
        <time>2024-08-14T09:27:30Z</time>
      </trkpt>
      <trkpt lat="47.01538" lon="2.90808">
        <ele>199.8</ele>
        <time>2024-08-14T09:27:33Z</time>
      </trkpt>
      <trkpt lat="47.01524" lon="2.90812">
        <ele>200</ele>
        <time>2024-08-14T09:27:37Z</time>
      </trkpt>
      <trkpt lat="47.01496" lon="2.90821">
        <ele>200.2</ele>
        <time>2024-08-14T09:27:43Z</time>
      </trkpt>
      <trkpt lat="47.01479" lon="2.90826">
        <ele>200.2</ele>
        <time>2024-08-14T09:27:46Z</time>
      </trkpt>
      <trkpt lat="47.01458" lon="2.90833">
        <ele>201</ele>
        <time>2024-08-14T09:27:50Z</time>
      </trkpt>
      <trkpt lat="47.01448" lon="2.90835">
        <ele>201.4</ele>
        <time>2024-08-14T09:27:52Z</time>
      </trkpt>
      <trkpt lat="47.01423" lon="2.90842">
        <ele>202.2</ele>
        <time>2024-08-14T09:27:57Z</time>
      </trkpt>
      <trkpt lat="47.01418" lon="2.90843">
        <ele>202.6</ele>
        <time>2024-08-14T09:27:58Z</time>
      </trkpt>
      <trkpt lat="47.01384" lon="2.90849">
        <ele>203.6</ele>
        <time>2024-08-14T09:28:05Z</time>
      </trkpt>
      <trkpt lat="47.01374" lon="2.90851">
        <ele>204</ele>
        <time>2024-08-14T09:28:07Z</time>
      </trkpt>
      <trkpt lat="47.01341" lon="2.90865">
        <ele>204.2</ele>
        <time>2024-08-14T09:28:13Z</time>
      </trkpt>
      <trkpt lat="47.01312" lon="2.90885">
        <ele>204</ele>
        <time>2024-08-14T09:28:18Z</time>
      </trkpt>
      <trkpt lat="47.01276" lon="2.90925">
        <ele>203.2</ele>
        <time>2024-08-14T09:28:24Z</time>
      </trkpt>
      <trkpt lat="47.01251" lon="2.90957">
        <ele>202.2</ele>
        <time>2024-08-14T09:28:28Z</time>
      </trkpt>
      <trkpt lat="47.01239" lon="2.90975">
        <ele>201.8</ele>
        <time>2024-08-14T09:28:30Z</time>
      </trkpt>
      <trkpt lat="47.01221" lon="2.91001">
        <ele>201</ele>
        <time>2024-08-14T09:28:33Z</time>
      </trkpt>
      <trkpt lat="47.01187" lon="2.91049">
        <ele>200.2</ele>
        <time>2024-08-14T09:28:39Z</time>
      </trkpt>
      <trkpt lat="47.01172" lon="2.91072">
        <ele>200</ele>
        <time>2024-08-14T09:28:42Z</time>
      </trkpt>
      <trkpt lat="47.01157" lon="2.91092">
        <ele>200</ele>
        <time>2024-08-14T09:28:45Z</time>
      </trkpt>
      <trkpt lat="47.0113" lon="2.91132">
        <ele>200.6</ele>
        <time>2024-08-14T09:28:51Z</time>
      </trkpt>
      <trkpt lat="47.01089" lon="2.91189">
        <ele>200.8</ele>
        <time>2024-08-14T09:28:59Z</time>
      </trkpt>
      <trkpt lat="47.01072" lon="2.91211">
        <ele>200.8</ele>
        <time>2024-08-14T09:29:02Z</time>
      </trkpt>
      <trkpt lat="47.01059" lon="2.91224">
        <ele>200.8</ele>
        <time>2024-08-14T09:29:04Z</time>
      </trkpt>
      <trkpt lat="47.01043" lon="2.91234">
        <ele>200.6</ele>
        <time>2024-08-14T09:29:06Z</time>
      </trkpt>
      <trkpt lat="47.01026" lon="2.91239">
        <ele>200.4</ele>
        <time>2024-08-14T09:29:08Z</time>
      </trkpt>
      <trkpt lat="47.01008" lon="2.91239">
        <ele>199.8</ele>
        <time>2024-08-14T09:29:10Z</time>
      </trkpt>
      <trkpt lat="47.0099" lon="2.91234">
        <ele>199.4</ele>
        <time>2024-08-14T09:29:12Z</time>
      </trkpt>
      <trkpt lat="47.00962" lon="2.91225">
        <ele>199</ele>
        <time>2024-08-14T09:29:15Z</time>
      </trkpt>
      <trkpt lat="47.00923" lon="2.91211">
        <ele>198.4</ele>
        <time>2024-08-14T09:29:19Z</time>
      </trkpt>
      <trkpt lat="47.00903" lon="2.91204">
        <ele>197.6</ele>
        <time>2024-08-14T09:29:21Z</time>
      </trkpt>
      <trkpt lat="47.00873" lon="2.91199">
        <ele>196.8</ele>
        <time>2024-08-14T09:29:24Z</time>
      </trkpt>
      <trkpt lat="47.00862" lon="2.91198">
        <ele>196.6</ele>
        <time>2024-08-14T09:29:25Z</time>
      </trkpt>
      <trkpt lat="47.0083" lon="2.91203">
        <ele>195.6</ele>
        <time>2024-08-14T09:29:28Z</time>
      </trkpt>
      <trkpt lat="47.0082" lon="2.91207">
        <ele>195.4</ele>
        <time>2024-08-14T09:29:29Z</time>
      </trkpt>
      <trkpt lat="47.00788" lon="2.9122">
        <ele>194</ele>
        <time>2024-08-14T09:29:32Z</time>
      </trkpt>
      <trkpt lat="47.00778" lon="2.91226">
        <ele>193.2</ele>
        <time>2024-08-14T09:29:33Z</time>
      </trkpt>
      <trkpt lat="47.00767" lon="2.91231">
        <ele>192.8</ele>
        <time>2024-08-14T09:29:34Z</time>
      </trkpt>
      <trkpt lat="47.00747" lon="2.91242">
        <ele>191.6</ele>
        <time>2024-08-14T09:29:36Z</time>
      </trkpt>
      <trkpt lat="47.00716" lon="2.91257">
        <ele>190.4</ele>
        <time>2024-08-14T09:29:39Z</time>
      </trkpt>
      <trkpt lat="47.00685" lon="2.91272">
        <ele>190</ele>
        <time>2024-08-14T09:29:42Z</time>
      </trkpt>
      <trkpt lat="47.00666" lon="2.91282">
        <ele>189.2</ele>
        <time>2024-08-14T09:29:44Z</time>
      </trkpt>
      <trkpt lat="47.0064" lon="2.91295">
        <ele>188.6</ele>
        <time>2024-08-14T09:29:47Z</time>
      </trkpt>
      <trkpt lat="47.00595" lon="2.91319">
        <ele>188.6</ele>
        <time>2024-08-14T09:29:53Z</time>
      </trkpt>
      <trkpt lat="47.00543" lon="2.91345">
        <ele>189.2</ele>
        <time>2024-08-14T09:30:00Z</time>
      </trkpt>
      <trkpt lat="47.00535" lon="2.91349">
        <ele>189.2</ele>
        <time>2024-08-14T09:30:01Z</time>
      </trkpt>
      <trkpt lat="47.0048" lon="2.91375">
        <ele>188.8</ele>
        <time>2024-08-14T09:30:08Z</time>
      </trkpt>
      <trkpt lat="47.00463" lon="2.91383">
        <ele>188.4</ele>
        <time>2024-08-14T09:30:10Z</time>
      </trkpt>
      <trkpt lat="47.00455" lon="2.91388">
        <ele>188.2</ele>
        <time>2024-08-14T09:30:11Z</time>
      </trkpt>
      <trkpt lat="47.00429" lon="2.914">
        <ele>187</ele>
        <time>2024-08-14T09:30:14Z</time>
      </trkpt>
      <trkpt lat="47.00402" lon="2.91408">
        <ele>186</ele>
        <time>2024-08-14T09:30:17Z</time>
      </trkpt>
      <trkpt lat="47.00393" lon="2.91409">
        <ele>185.6</ele>
        <time>2024-08-14T09:30:18Z</time>
      </trkpt>
      <trkpt lat="47.00373" lon="2.91405">
        <ele>185.2</ele>
        <time>2024-08-14T09:30:20Z</time>
      </trkpt>
      <trkpt lat="47.00343" lon="2.91387">
        <ele>184.2</ele>
        <time>2024-08-14T09:30:23Z</time>
      </trkpt>
      <trkpt lat="47.00335" lon="2.9138">
        <ele>183.8</ele>
        <time>2024-08-14T09:30:24Z</time>
      </trkpt>
      <trkpt lat="47.00326" lon="2.91372">
        <ele>183.2</ele>
        <time>2024-08-14T09:30:25Z</time>
      </trkpt>
      <trkpt lat="47.0031" lon="2.91357">
        <ele>181.8</ele>
        <time>2024-08-14T09:30:27Z</time>
      </trkpt>
      <trkpt lat="47.00287" lon="2.91334">
        <ele>181</ele>
        <time>2024-08-14T09:30:30Z</time>
      </trkpt>
      <trkpt lat="47.00273" lon="2.9132">
        <ele>180.8</ele>
        <time>2024-08-14T09:30:32Z</time>
      </trkpt>
      <trkpt lat="47.00256" lon="2.91296">
        <ele>180.6</ele>
        <time>2024-08-14T09:30:35Z</time>
      </trkpt>
      <trkpt lat="47.00233" lon="2.91258">
        <ele>181</ele>
        <time>2024-08-14T09:30:40Z</time>
      </trkpt>
      <trkpt lat="47.00229" lon="2.91253">
        <ele>181.2</ele>
        <time>2024-08-14T09:30:41Z</time>
      </trkpt>
      <trkpt lat="47.00213" lon="2.91233">
        <ele>181.8</ele>
        <time>2024-08-14T09:30:45Z</time>
      </trkpt>
      <trkpt lat="47.00205" lon="2.91223">
        <ele>182.4</ele>
        <time>2024-08-14T09:30:47Z</time>
      </trkpt>
      <trkpt lat="47.00196" lon="2.91215">
        <ele>183</ele>
        <time>2024-08-14T09:30:49Z</time>
      </trkpt>
      <trkpt lat="47.00178" lon="2.91201">
        <ele>183.8</ele>
        <time>2024-08-14T09:30:53Z</time>
      </trkpt>
      <trkpt lat="47.00174" lon="2.91198">
        <ele>184</ele>
        <time>2024-08-14T09:30:54Z</time>
      </trkpt>
      <trkpt lat="47.00156" lon="2.91186">
        <ele>185.4</ele>
        <time>2024-08-14T09:30:58Z</time>
      </trkpt>
      <trkpt lat="47.00141" lon="2.91177">
        <ele>185.8</ele>
        <time>2024-08-14T09:31:01Z</time>
      </trkpt>
      <trkpt lat="47.00097" lon="2.9115">
        <ele>185.8</ele>
        <time>2024-08-14T09:31:09Z</time>
      </trkpt>
      <trkpt lat="47.00053" lon="2.91124">
        <ele>185.2</ele>
        <time>2024-08-14T09:31:16Z</time>
      </trkpt>
      <trkpt lat="47.00002" lon="2.91093">
        <ele>184.8</ele>
        <time>2024-08-14T09:31:24Z</time>
      </trkpt>
      <trkpt lat="46.9996" lon="2.91074">
        <ele>184.6</ele>
        <time>2024-08-14T09:31:30Z</time>
      </trkpt>
      <trkpt lat="46.99945" lon="2.91076">
        <ele>184.2</ele>
        <time>2024-08-14T09:31:32Z</time>
      </trkpt>
      <trkpt lat="46.99927" lon="2.91083">
        <ele>184.2</ele>
        <time>2024-08-14T09:31:34Z</time>
      </trkpt>
      <trkpt lat="46.99922" lon="2.91088">
        <ele>184</ele>
        <time>2024-08-14T09:31:35Z</time>
      </trkpt>
      <trkpt lat="46.99894" lon="2.91114">
        <ele>182.8</ele>
        <time>2024-08-14T09:31:39Z</time>
      </trkpt>
      <trkpt lat="46.99887" lon="2.9112">
        <ele>182.6</ele>
        <time>2024-08-14T09:31:40Z</time>
      </trkpt>
      <trkpt lat="46.99867" lon="2.91139">
        <ele>181.8</ele>
        <time>2024-08-14T09:31:43Z</time>
      </trkpt>
      <trkpt lat="46.99835" lon="2.91168">
        <ele>181.2</ele>
        <time>2024-08-14T09:31:48Z</time>
      </trkpt>
      <trkpt lat="46.99798" lon="2.9119">
        <ele>181.6</ele>
        <time>2024-08-14T09:31:54Z</time>
      </trkpt>
      <trkpt lat="46.99754" lon="2.91201">
        <ele>182.2</ele>
        <time>2024-08-14T09:32:01Z</time>
      </trkpt>
      <trkpt lat="46.99716" lon="2.91208">
        <ele>183</ele>
        <time>2024-08-14T09:32:07Z</time>
      </trkpt>
      <trkpt lat="46.99699" lon="2.91211">
        <ele>183.6</ele>
        <time>2024-08-14T09:32:10Z</time>
      </trkpt>
      <trkpt lat="46.99675" lon="2.91216">
        <ele>184</ele>
        <time>2024-08-14T09:32:14Z</time>
      </trkpt>
      <trkpt lat="46.99646" lon="2.91222">
        <ele>184.6</ele>
        <time>2024-08-14T09:32:19Z</time>
      </trkpt>
      <trkpt lat="46.99624" lon="2.91226">
        <ele>185.2</ele>
        <time>2024-08-14T09:32:23Z</time>
      </trkpt>
      <trkpt lat="46.99595" lon="2.91231">
        <ele>185.6</ele>
        <time>2024-08-14T09:32:28Z</time>
      </trkpt>
      <trkpt lat="46.99554" lon="2.91238">
        <ele>186</ele>
        <time>2024-08-14T09:32:35Z</time>
      </trkpt>
      <trkpt lat="46.99508" lon="2.91247">
        <ele>185.8</ele>
        <time>2024-08-14T09:32:42Z</time>
      </trkpt>
      <trkpt lat="46.99462" lon="2.91258">
        <ele>184.6</ele>
        <time>2024-08-14T09:32:48Z</time>
      </trkpt>
      <trkpt lat="46.99436" lon="2.91263">
        <ele>184</ele>
        <time>2024-08-14T09:32:51Z</time>
      </trkpt>
      <trkpt lat="46.99409" lon="2.91268">
        <ele>183.2</ele>
        <time>2024-08-14T09:32:54Z</time>
      </trkpt>
      <trkpt lat="46.994" lon="2.9127">
        <ele>182.8</ele>
        <time>2024-08-14T09:32:55Z</time>
      </trkpt>
      <trkpt lat="46.99354" lon="2.9128">
        <ele>181.6</ele>
        <time>2024-08-14T09:33:00Z</time>
      </trkpt>
      <trkpt lat="46.99326" lon="2.91286">
        <ele>180.6</ele>
        <time>2024-08-14T09:33:03Z</time>
      </trkpt>
      <trkpt lat="46.9929" lon="2.91299">
        <ele>179.4</ele>
        <time>2024-08-14T09:33:07Z</time>
      </trkpt>
      <trkpt lat="46.99254" lon="2.91314">
        <ele>178.2</ele>
        <time>2024-08-14T09:33:11Z</time>
      </trkpt>
      <trkpt lat="46.99211" lon="2.91332">
        <ele>176.8</ele>
        <time>2024-08-14T09:33:16Z</time>
      </trkpt>
      <trkpt lat="46.99186" lon="2.91344">
        <ele>176.2</ele>
        <time>2024-08-14T09:33:19Z</time>
      </trkpt>
      <trkpt lat="46.9915" lon="2.91359">
        <ele>175.8</ele>
        <time>2024-08-14T09:33:24Z</time>
      </trkpt>
      <trkpt lat="46.99116" lon="2.91373">
        <ele>176</ele>
        <time>2024-08-14T09:33:29Z</time>
      </trkpt>
      <trkpt lat="46.99081" lon="2.91388">
        <ele>176.2</ele>
        <time>2024-08-14T09:33:35Z</time>
      </trkpt>
      <trkpt lat="46.9904" lon="2.91406">
        <ele>176.8</ele>
        <time>2024-08-14T09:33:42Z</time>
      </trkpt>
      <trkpt lat="46.99005" lon="2.91423">
        <ele>177.2</ele>
        <time>2024-08-14T09:33:48Z</time>
      </trkpt>
      <trkpt lat="46.98964" lon="2.91442">
        <ele>177.4</ele>
        <time>2024-08-14T09:33:55Z</time>
      </trkpt>
      <trkpt lat="46.98927" lon="2.91457">
        <ele>177</ele>
        <time>2024-08-14T09:34:00Z</time>
      </trkpt>
      <trkpt lat="46.98877" lon="2.91481">
        <ele>176.2</ele>
        <time>2024-08-14T09:34:07Z</time>
      </trkpt>
      <trkpt lat="46.9887" lon="2.91485">
        <ele>176</ele>
        <time>2024-08-14T09:34:08Z</time>
      </trkpt>
      <trkpt lat="46.98862" lon="2.91489">
        <ele>175.6</ele>
        <time>2024-08-14T09:34:09Z</time>
      </trkpt>
      <trkpt lat="46.98829" lon="2.91508">
        <ele>174.8</ele>
        <time>2024-08-14T09:34:13Z</time>
      </trkpt>
      <trkpt lat="46.9882" lon="2.91513">
        <ele>174.4</ele>
        <time>2024-08-14T09:34:14Z</time>
      </trkpt>
      <trkpt lat="46.98786" lon="2.91538">
        <ele>173.4</ele>
        <time>2024-08-14T09:34:18Z</time>
      </trkpt>
      <trkpt lat="46.98778" lon="2.91544">
        <ele>172.8</ele>
        <time>2024-08-14T09:34:19Z</time>
      </trkpt>
      <trkpt lat="46.98753" lon="2.91566">
        <ele>171.8</ele>
        <time>2024-08-14T09:34:22Z</time>
      </trkpt>
      <trkpt lat="46.98728" lon="2.91589">
        <ele>170.2</ele>
        <time>2024-08-14T09:34:25Z</time>
      </trkpt>
      <trkpt lat="46.9872" lon="2.91597">
        <ele>169.4</ele>
        <time>2024-08-14T09:34:26Z</time>
      </trkpt>
      <trkpt lat="46.98712" lon="2.91606">
        <ele>169</ele>
        <time>2024-08-14T09:34:27Z</time>
      </trkpt>
      <trkpt lat="46.98686" lon="2.91637">
        <ele>168</ele>
        <time>2024-08-14T09:34:31Z</time>
      </trkpt>
      <trkpt lat="46.98666" lon="2.91664">
        <ele>168</ele>
        <time>2024-08-14T09:34:35Z</time>
      </trkpt>
      <trkpt lat="46.98643" lon="2.91699">
        <ele>169.2</ele>
        <time>2024-08-14T09:34:41Z</time>
      </trkpt>
      <trkpt lat="46.98628" lon="2.91719">
        <ele>170.2</ele>
        <time>2024-08-14T09:34:45Z</time>
      </trkpt>
      <trkpt lat="46.98614" lon="2.91741">
        <ele>171.2</ele>
        <time>2024-08-14T09:34:49Z</time>
      </trkpt>
      <trkpt lat="46.98611" lon="2.91746">
        <ele>171.4</ele>
        <time>2024-08-14T09:34:50Z</time>
      </trkpt>
      <trkpt lat="46.98587" lon="2.91787">
        <ele>172.4</ele>
        <time>2024-08-14T09:34:57Z</time>
      </trkpt>
      <trkpt lat="46.98584" lon="2.91793">
        <ele>172.4</ele>
        <time>2024-08-14T09:34:58Z</time>
      </trkpt>
      <trkpt lat="46.98552" lon="2.91848">
        <ele>172.4</ele>
        <time>2024-08-14T09:35:06Z</time>
      </trkpt>
      <trkpt lat="46.9852" lon="2.91902">
        <ele>171.4</ele>
        <time>2024-08-14T09:35:13Z</time>
      </trkpt>
      <trkpt lat="46.9851" lon="2.91919">
        <ele>171.2</ele>
        <time>2024-08-14T09:35:15Z</time>
      </trkpt>
      <trkpt lat="46.98484" lon="2.91965">
        <ele>170</ele>
        <time>2024-08-14T09:35:20Z</time>
      </trkpt>
      <trkpt lat="46.9848" lon="2.91976">
        <ele>170.2</ele>
        <time>2024-08-14T09:35:21Z</time>
      </trkpt>
      <trkpt lat="46.98477" lon="2.91987">
        <ele>170</ele>
        <time>2024-08-14T09:35:22Z</time>
      </trkpt>
      <trkpt lat="46.98473" lon="2.9201">
        <ele>169.2</ele>
        <time>2024-08-14T09:35:24Z</time>
      </trkpt>
      <trkpt lat="46.98472" lon="2.92023">
        <ele>168.8</ele>
        <time>2024-08-14T09:35:25Z</time>
      </trkpt>
      <trkpt lat="46.98471" lon="2.92095">
        <ele>167.8</ele>
        <time>2024-08-14T09:35:31Z</time>
      </trkpt>
      <trkpt lat="46.98469" lon="2.92175">
        <ele>167.2</ele>
        <time>2024-08-14T09:35:38Z</time>
      </trkpt>
      <trkpt lat="46.98468" lon="2.92197">
        <ele>167.2</ele>
        <time>2024-08-14T09:35:40Z</time>
      </trkpt>
      <trkpt lat="46.98462" lon="2.92265">
        <ele>167</ele>
        <time>2024-08-14T09:35:46Z</time>
      </trkpt>
      <trkpt lat="46.98455" lon="2.92299">
        <ele>166.6</ele>
        <time>2024-08-14T09:35:49Z</time>
      </trkpt>
      <trkpt lat="46.98444" lon="2.92354">
        <ele>166.2</ele>
        <time>2024-08-14T09:35:54Z</time>
      </trkpt>
      <trkpt lat="46.98428" lon="2.92437">
        <ele>165.6</ele>
        <time>2024-08-14T09:36:02Z</time>
      </trkpt>
      <trkpt lat="46.98411" lon="2.92518">
        <ele>165.4</ele>
        <time>2024-08-14T09:36:10Z</time>
      </trkpt>
      <trkpt lat="46.98405" lon="2.92548">
        <ele>165.4</ele>
        <time>2024-08-14T09:36:13Z</time>
      </trkpt>
      <trkpt lat="46.98387" lon="2.92625">
        <ele>165.4</ele>
        <time>2024-08-14T09:36:21Z</time>
      </trkpt>
      <trkpt lat="46.9837" lon="2.92677">
        <ele>166.2</ele>
        <time>2024-08-14T09:36:27Z</time>
      </trkpt>
      <trkpt lat="46.98355" lon="2.92721">
        <ele>166.6</ele>
        <time>2024-08-14T09:36:32Z</time>
      </trkpt>
      <trkpt lat="46.98346" lon="2.92749">
        <ele>166.6</ele>
        <time>2024-08-14T09:36:35Z</time>
      </trkpt>
      <trkpt lat="46.98323" lon="2.92817">
        <ele>166.6</ele>
        <time>2024-08-14T09:36:43Z</time>
      </trkpt>
      <trkpt lat="46.98302" lon="2.92879">
        <ele>167.4</ele>
        <time>2024-08-14T09:36:51Z</time>
      </trkpt>
      <trkpt lat="46.98297" lon="2.92894">
        <ele>168</ele>
        <time>2024-08-14T09:36:53Z</time>
      </trkpt>
      <trkpt lat="46.98275" lon="2.92959">
        <ele>168.4</ele>
        <time>2024-08-14T09:37:01Z</time>
      </trkpt>
      <trkpt lat="46.98251" lon="2.93034">
        <ele>168.2</ele>
        <time>2024-08-14T09:37:10Z</time>
      </trkpt>
      <trkpt lat="46.98231" lon="2.93097">
        <ele>168.4</ele>
        <time>2024-08-14T09:37:18Z</time>
      </trkpt>
      <trkpt lat="46.98215" lon="2.93143">
        <ele>168.8</ele>
        <time>2024-08-14T09:37:24Z</time>
      </trkpt>
      <trkpt lat="46.98213" lon="2.93151">
        <ele>169</ele>
        <time>2024-08-14T09:37:25Z</time>
      </trkpt>
      <trkpt lat="46.98205" lon="2.93175">
        <ele>169.2</ele>
        <time>2024-08-14T09:37:28Z</time>
      </trkpt>
      <trkpt lat="46.98188" lon="2.93228">
        <ele>170</ele>
        <time>2024-08-14T09:37:35Z</time>
      </trkpt>
      <trkpt lat="46.98186" lon="2.93236">
        <ele>170.2</ele>
        <time>2024-08-14T09:37:36Z</time>
      </trkpt>
      <trkpt lat="46.9818" lon="2.93252">
        <ele>170.6</ele>
        <time>2024-08-14T09:37:38Z</time>
      </trkpt>
      <trkpt lat="46.98173" lon="2.93266">
        <ele>171</ele>
        <time>2024-08-14T09:37:40Z</time>
      </trkpt>
      <trkpt lat="46.98169" lon="2.93273">
        <ele>171</ele>
        <time>2024-08-14T09:37:41Z</time>
      </trkpt>
      <trkpt lat="46.9816" lon="2.93283">
        <ele>171.2</ele>
        <time>2024-08-14T09:37:43Z</time>
      </trkpt>
      <trkpt lat="46.98151" lon="2.93289">
        <ele>171.6</ele>
        <time>2024-08-14T09:37:45Z</time>
      </trkpt>
      <trkpt lat="46.98141" lon="2.93292">
        <ele>172</ele>
        <time>2024-08-14T09:37:47Z</time>
      </trkpt>
      <trkpt lat="46.98137" lon="2.93293">
        <ele>172.4</ele>
        <time>2024-08-14T09:37:48Z</time>
      </trkpt>
      <trkpt lat="46.98132" lon="2.93293">
        <ele>172.6</ele>
        <time>2024-08-14T09:37:49Z</time>
      </trkpt>
      <trkpt lat="46.98124" lon="2.93293">
        <ele>173.4</ele>
        <time>2024-08-14T09:37:51Z</time>
      </trkpt>
      <trkpt lat="46.9812" lon="2.93294">
        <ele>173.6</ele>
        <time>2024-08-14T09:37:52Z</time>
      </trkpt>
      <trkpt lat="46.98109" lon="2.93297">
        <ele>174.2</ele>
        <time>2024-08-14T09:37:55Z</time>
      </trkpt>
      <trkpt lat="46.98102" lon="2.93301">
        <ele>175</ele>
        <time>2024-08-14T09:37:57Z</time>
      </trkpt>
      <trkpt lat="46.98092" lon="2.93309">
        <ele>176.2</ele>
        <time>2024-08-14T09:38:00Z</time>
      </trkpt>
      <trkpt lat="46.98089" lon="2.93311">
        <ele>176.4</ele>
        <time>2024-08-14T09:38:01Z</time>
      </trkpt>
      <trkpt lat="46.98083" lon="2.93314">
        <ele>177</ele>
        <time>2024-08-14T09:38:03Z</time>
      </trkpt>
      <trkpt lat="46.98078" lon="2.93317">
        <ele>177.6</ele>
        <time>2024-08-14T09:38:04Z</time>
      </trkpt>
      <trkpt lat="46.98066" lon="2.93324">
        <ele>178.6</ele>
        <time>2024-08-14T09:38:07Z</time>
      </trkpt>
      <trkpt lat="46.98059" lon="2.93329">
        <ele>179.4</ele>
        <time>2024-08-14T09:38:09Z</time>
      </trkpt>
      <trkpt lat="46.98055" lon="2.93332">
        <ele>179.6</ele>
        <time>2024-08-14T09:38:10Z</time>
      </trkpt>
      <trkpt lat="46.98043" lon="2.93341">
        <ele>180.8</ele>
        <time>2024-08-14T09:38:13Z</time>
      </trkpt>
      <trkpt lat="46.98038" lon="2.93343">
        <ele>181</ele>
        <time>2024-08-14T09:38:14Z</time>
      </trkpt>
      <trkpt lat="46.98026" lon="2.93349">
        <ele>181.4</ele>
        <time>2024-08-14T09:38:16Z</time>
      </trkpt>
      <trkpt lat="46.98007" lon="2.9336">
        <ele>181.6</ele>
        <time>2024-08-14T09:38:19Z</time>
      </trkpt>
      <trkpt lat="46.98003" lon="2.93363">
        <ele>181.6</ele>
        <time>2024-08-14T09:38:20Z</time>
      </trkpt>
      <trkpt lat="46.97986" lon="2.93375">
        <ele>181.6</ele>
        <time>2024-08-14T09:38:23Z</time>
      </trkpt>
      <trkpt lat="46.97946" lon="2.93402">
        <ele>181</ele>
        <time>2024-08-14T09:38:29Z</time>
      </trkpt>
      <trkpt lat="46.97941" lon="2.93408">
        <ele>181</ele>
        <time>2024-08-14T09:38:30Z</time>
      </trkpt>
      <trkpt lat="46.97926" lon="2.93427">
        <ele>180.8</ele>
        <time>2024-08-14T09:38:33Z</time>
      </trkpt>
      <trkpt lat="46.97919" lon="2.93441">
        <ele>180.6</ele>
        <time>2024-08-14T09:38:35Z</time>
      </trkpt>
      <trkpt lat="46.97912" lon="2.93452">
        <ele>180.4</ele>
        <time>2024-08-14T09:38:37Z</time>
      </trkpt>
      <trkpt lat="46.97907" lon="2.93469">
        <ele>180.4</ele>
        <time>2024-08-14T09:38:39Z</time>
      </trkpt>
      <trkpt lat="46.97904" lon="2.93478">
        <ele>180.4</ele>
        <time>2024-08-14T09:38:40Z</time>
      </trkpt>
      <trkpt lat="46.97902" lon="2.93498">
        <ele>180.4</ele>
        <time>2024-08-14T09:38:42Z</time>
      </trkpt>
      <trkpt lat="46.97899" lon="2.93515">
        <ele>180.4</ele>
        <time>2024-08-14T09:38:44Z</time>
      </trkpt>
      <trkpt lat="46.97898" lon="2.93524">
        <ele>180.4</ele>
        <time>2024-08-14T09:38:45Z</time>
      </trkpt>
      <trkpt lat="46.97889" lon="2.93582">
        <ele>180.8</ele>
        <time>2024-08-14T09:38:51Z</time>
      </trkpt>
      <trkpt lat="46.97877" lon="2.93653">
        <ele>181.2</ele>
        <time>2024-08-14T09:38:59Z</time>
      </trkpt>
      <trkpt lat="46.97874" lon="2.93677">
        <ele>181.4</ele>
        <time>2024-08-14T09:39:02Z</time>
      </trkpt>
      <trkpt lat="46.9787" lon="2.93694">
        <ele>181.6</ele>
        <time>2024-08-14T09:39:04Z</time>
      </trkpt>
      <trkpt lat="46.97866" lon="2.9371">
        <ele>182</ele>
        <time>2024-08-14T09:39:06Z</time>
      </trkpt>
      <trkpt lat="46.97864" lon="2.93717">
        <ele>182</ele>
        <time>2024-08-14T09:39:07Z</time>
      </trkpt>
      <trkpt lat="46.97846" lon="2.93758">
        <ele>182.8</ele>
        <time>2024-08-14T09:39:13Z</time>
      </trkpt>
      <trkpt lat="46.97839" lon="2.93771">
        <ele>183.2</ele>
        <time>2024-08-14T09:39:15Z</time>
      </trkpt>
      <trkpt lat="46.97815" lon="2.93818">
        <ele>183.8</ele>
        <time>2024-08-14T09:39:22Z</time>
      </trkpt>
      <trkpt lat="46.97808" lon="2.93831">
        <ele>184.2</ele>
        <time>2024-08-14T09:39:24Z</time>
      </trkpt>
      <trkpt lat="46.97784" lon="2.93878">
        <ele>184.6</ele>
        <time>2024-08-14T09:39:31Z</time>
      </trkpt>
      <trkpt lat="46.97763" lon="2.93924">
        <ele>184.8</ele>
        <time>2024-08-14T09:39:37Z</time>
      </trkpt>
      <trkpt lat="46.97756" lon="2.93942">
        <ele>184.8</ele>
        <time>2024-08-14T09:39:39Z</time>
      </trkpt>
      <trkpt lat="46.97728" lon="2.94005">
        <ele>184.6</ele>
        <time>2024-08-14T09:39:46Z</time>
      </trkpt>
      <trkpt lat="46.97691" lon="2.94062">
        <ele>183.6</ele>
        <time>2024-08-14T09:39:53Z</time>
      </trkpt>
      <trkpt lat="46.97658" lon="2.94124">
        <ele>183.2</ele>
        <time>2024-08-14T09:40:00Z</time>
      </trkpt>
      <trkpt lat="46.97633" lon="2.94201">
        <ele>182.4</ele>
        <time>2024-08-14T09:40:07Z</time>
      </trkpt>
      <trkpt lat="46.97624" lon="2.94223">
        <ele>182</ele>
        <time>2024-08-14T09:40:09Z</time>
      </trkpt>
      <trkpt lat="46.97618" lon="2.94233">
        <ele>181.6</ele>
        <time>2024-08-14T09:40:10Z</time>
      </trkpt>
      <trkpt lat="46.97612" lon="2.94244">
        <ele>181.2</ele>
        <time>2024-08-14T09:40:11Z</time>
      </trkpt>
      <trkpt lat="46.97606" lon="2.94254">
        <ele>181</ele>
        <time>2024-08-14T09:40:12Z</time>
      </trkpt>
      <trkpt lat="46.97591" lon="2.94271">
        <ele>180</ele>
        <time>2024-08-14T09:40:14Z</time>
      </trkpt>
      <trkpt lat="46.97568" lon="2.94295">
        <ele>178.6</ele>
        <time>2024-08-14T09:40:17Z</time>
      </trkpt>
      <trkpt lat="46.97546" lon="2.94319">
        <ele>177.2</ele>
        <time>2024-08-14T09:40:20Z</time>
      </trkpt>
      <trkpt lat="46.97525" lon="2.94341">
        <ele>176</ele>
        <time>2024-08-14T09:40:23Z</time>
      </trkpt>
      <trkpt lat="46.97503" lon="2.94365">
        <ele>175.4</ele>
        <time>2024-08-14T09:40:26Z</time>
      </trkpt>
      <trkpt lat="46.9749" lon="2.94382">
        <ele>175</ele>
        <time>2024-08-14T09:40:28Z</time>
      </trkpt>
      <trkpt lat="46.97466" lon="2.94415">
        <ele>174</ele>
        <time>2024-08-14T09:40:32Z</time>
      </trkpt>
      <trkpt lat="46.9746" lon="2.94423">
        <ele>173.8</ele>
        <time>2024-08-14T09:40:33Z</time>
      </trkpt>
      <trkpt lat="46.97433" lon="2.94448">
        <ele>173.2</ele>
        <time>2024-08-14T09:40:37Z</time>
      </trkpt>
      <trkpt lat="46.97405" lon="2.94472">
        <ele>172.6</ele>
        <time>2024-08-14T09:40:41Z</time>
      </trkpt>
      <trkpt lat="46.97389" lon="2.94481">
        <ele>172.4</ele>
        <time>2024-08-14T09:40:43Z</time>
      </trkpt>
      <trkpt lat="46.9738" lon="2.94484">
        <ele>171.8</ele>
        <time>2024-08-14T09:40:44Z</time>
      </trkpt>
      <trkpt lat="46.97372" lon="2.94487">
        <ele>171.4</ele>
        <time>2024-08-14T09:40:45Z</time>
      </trkpt>
      <trkpt lat="46.97345" lon="2.94493">
        <ele>170.4</ele>
        <time>2024-08-14T09:40:48Z</time>
      </trkpt>
      <trkpt lat="46.97319" lon="2.94501">
        <ele>169.6</ele>
        <time>2024-08-14T09:40:51Z</time>
      </trkpt>
      <trkpt lat="46.97301" lon="2.94506">
        <ele>169</ele>
        <time>2024-08-14T09:40:53Z</time>
      </trkpt>
      <trkpt lat="46.97264" lon="2.94513">
        <ele>167.6</ele>
        <time>2024-08-14T09:40:57Z</time>
      </trkpt>
      <trkpt lat="46.97255" lon="2.94514">
        <ele>167.4</ele>
        <time>2024-08-14T09:40:58Z</time>
      </trkpt>
      <trkpt lat="46.97217" lon="2.94515">
        <ele>166.6</ele>
        <time>2024-08-14T09:41:02Z</time>
      </trkpt>
      <trkpt lat="46.97198" lon="2.94513">
        <ele>166</ele>
        <time>2024-08-14T09:41:04Z</time>
      </trkpt>
      <trkpt lat="46.9718" lon="2.94511">
        <ele>165.4</ele>
        <time>2024-08-14T09:41:06Z</time>
      </trkpt>
      <trkpt lat="46.9715" lon="2.94509">
        <ele>164.4</ele>
        <time>2024-08-14T09:41:09Z</time>
      </trkpt>
      <trkpt lat="46.97111" lon="2.94505">
        <ele>163.2</ele>
        <time>2024-08-14T09:41:13Z</time>
      </trkpt>
      <trkpt lat="46.97084" lon="2.94503">
        <ele>161.8</ele>
        <time>2024-08-14T09:41:16Z</time>
      </trkpt>
      <trkpt lat="46.97051" lon="2.94499">
        <ele>161.2</ele>
        <time>2024-08-14T09:41:20Z</time>
      </trkpt>
      <trkpt lat="46.97019" lon="2.94486">
        <ele>161.6</ele>
        <time>2024-08-14T09:41:25Z</time>
      </trkpt>
      <trkpt lat="46.97003" lon="2.9448">
        <ele>162</ele>
        <time>2024-08-14T09:41:28Z</time>
      </trkpt>
      <trkpt lat="46.96992" lon="2.94478">
        <ele>162.4</ele>
        <time>2024-08-14T09:41:30Z</time>
      </trkpt>
      <trkpt lat="46.9697" lon="2.9448">
        <ele>163</ele>
        <time>2024-08-14T09:41:35Z</time>
      </trkpt>
      <trkpt lat="46.96965" lon="2.94481">
        <ele>163.2</ele>
        <time>2024-08-14T09:41:36Z</time>
      </trkpt>
      <trkpt lat="46.96956" lon="2.94483">
        <ele>163.8</ele>
        <time>2024-08-14T09:41:38Z</time>
      </trkpt>
      <trkpt lat="46.96951" lon="2.94485">
        <ele>164.4</ele>
        <time>2024-08-14T09:41:39Z</time>
      </trkpt>
      <trkpt lat="46.96947" lon="2.94486">
        <ele>164.6</ele>
        <time>2024-08-14T09:41:40Z</time>
      </trkpt>
      <trkpt lat="46.96939" lon="2.9449">
        <ele>165</ele>
        <time>2024-08-14T09:41:42Z</time>
      </trkpt>
      <trkpt lat="46.96935" lon="2.94493">
        <ele>165.6</ele>
        <time>2024-08-14T09:41:43Z</time>
      </trkpt>
      <trkpt lat="46.96932" lon="2.94494">
        <ele>166</ele>
        <time>2024-08-14T09:41:44Z</time>
      </trkpt>
      <trkpt lat="46.96918" lon="2.94501">
        <ele>166.8</ele>
        <time>2024-08-14T09:41:47Z</time>
      </trkpt>
      <trkpt lat="46.96913" lon="2.94504">
        <ele>167.2</ele>
        <time>2024-08-14T09:41:48Z</time>
      </trkpt>
      <trkpt lat="46.969" lon="2.94512">
        <ele>167.8</ele>
        <time>2024-08-14T09:41:51Z</time>
      </trkpt>
      <trkpt lat="46.96891" lon="2.94518">
        <ele>168.2</ele>
        <time>2024-08-14T09:41:53Z</time>
      </trkpt>
      <trkpt lat="46.96877" lon="2.94528">
        <ele>168.6</ele>
        <time>2024-08-14T09:41:56Z</time>
      </trkpt>
      <trkpt lat="46.96864" lon="2.94538">
        <ele>168.8</ele>
        <time>2024-08-14T09:41:59Z</time>
      </trkpt>
      <trkpt lat="46.96842" lon="2.94555">
        <ele>169.8</ele>
        <time>2024-08-14T09:42:04Z</time>
      </trkpt>
      <trkpt lat="46.96802" lon="2.94576">
        <ele>170.6</ele>
        <time>2024-08-14T09:42:12Z</time>
      </trkpt>
      <trkpt lat="46.96797" lon="2.94578">
        <ele>171</ele>
        <time>2024-08-14T09:42:13Z</time>
      </trkpt>
      <trkpt lat="46.96764" lon="2.94585">
        <ele>171.2</ele>
        <time>2024-08-14T09:42:19Z</time>
      </trkpt>
      <trkpt lat="46.96716" lon="2.94589">
        <ele>171.8</ele>
        <time>2024-08-14T09:42:27Z</time>
      </trkpt>
      <trkpt lat="46.96705" lon="2.94586">
        <ele>172</ele>
        <time>2024-08-14T09:42:29Z</time>
      </trkpt>
      <trkpt lat="46.9667" lon="2.94579">
        <ele>172.2</ele>
        <time>2024-08-14T09:42:35Z</time>
      </trkpt>
      <trkpt lat="46.96664" lon="2.94577">
        <ele>172.2</ele>
        <time>2024-08-14T09:42:36Z</time>
      </trkpt>
      <trkpt lat="46.96614" lon="2.94568">
        <ele>172.4</ele>
        <time>2024-08-14T09:42:44Z</time>
      </trkpt>
      <trkpt lat="46.96575" lon="2.94569">
        <ele>172</ele>
        <time>2024-08-14T09:42:50Z</time>
      </trkpt>
      <trkpt lat="46.96527" lon="2.9458">
        <ele>171</ele>
        <time>2024-08-14T09:42:57Z</time>
      </trkpt>
      <trkpt lat="46.96473" lon="2.94604">
        <ele>170.8</ele>
        <time>2024-08-14T09:43:05Z</time>
      </trkpt>
      <trkpt lat="46.96427" lon="2.94621">
        <ele>170.4</ele>
        <time>2024-08-14T09:43:11Z</time>
      </trkpt>
      <trkpt lat="46.96402" lon="2.94626">
        <ele>169.6</ele>
        <time>2024-08-14T09:43:14Z</time>
      </trkpt>
      <trkpt lat="46.96375" lon="2.9463">
        <ele>169</ele>
        <time>2024-08-14T09:43:17Z</time>
      </trkpt>
      <trkpt lat="46.96365" lon="2.94632">
        <ele>168.6</ele>
        <time>2024-08-14T09:43:18Z</time>
      </trkpt>
      <trkpt lat="46.96337" lon="2.94636">
        <ele>167.2</ele>
        <time>2024-08-14T09:43:21Z</time>
      </trkpt>
      <trkpt lat="46.96327" lon="2.94638">
        <ele>167</ele>
        <time>2024-08-14T09:43:22Z</time>
      </trkpt>
      <trkpt lat="46.96318" lon="2.94639">
        <ele>166.2</ele>
        <time>2024-08-14T09:43:23Z</time>
      </trkpt>
      <trkpt lat="46.96269" lon="2.94645">
        <ele>165.6</ele>
        <time>2024-08-14T09:43:29Z</time>
      </trkpt>
      <trkpt lat="46.96238" lon="2.94651">
        <ele>166</ele>
        <time>2024-08-14T09:43:34Z</time>
      </trkpt>
      <trkpt lat="46.96217" lon="2.94654">
        <ele>167.6</ele>
        <time>2024-08-14T09:43:38Z</time>
      </trkpt>
      <trkpt lat="46.96207" lon="2.94656">
        <ele>168</ele>
        <time>2024-08-14T09:43:40Z</time>
      </trkpt>
      <trkpt lat="46.96176" lon="2.94666">
        <ele>168.4</ele>
        <time>2024-08-14T09:43:45Z</time>
      </trkpt>
      <trkpt lat="46.9617" lon="2.94667">
        <ele>168.6</ele>
        <time>2024-08-14T09:43:46Z</time>
      </trkpt>
      <trkpt lat="46.9613" lon="2.94677">
        <ele>168.8</ele>
        <time>2024-08-14T09:43:52Z</time>
      </trkpt>
      <trkpt lat="46.96076" lon="2.94686">
        <ele>168.6</ele>
        <time>2024-08-14T09:44:00Z</time>
      </trkpt>
      <trkpt lat="46.96069" lon="2.94686">
        <ele>168.4</ele>
        <time>2024-08-14T09:44:01Z</time>
      </trkpt>
      <trkpt lat="46.96016" lon="2.94681">
        <ele>168.2</ele>
        <time>2024-08-14T09:44:09Z</time>
      </trkpt>
      <trkpt lat="46.9597" lon="2.9467">
        <ele>168</ele>
        <time>2024-08-14T09:44:15Z</time>
      </trkpt>
      <trkpt lat="46.95945" lon="2.94664">
        <ele>167.6</ele>
        <time>2024-08-14T09:44:18Z</time>
      </trkpt>
      <trkpt lat="46.9591" lon="2.94657">
        <ele>166.4</ele>
        <time>2024-08-14T09:44:22Z</time>
      </trkpt>
      <trkpt lat="46.95902" lon="2.94655">
        <ele>165.8</ele>
        <time>2024-08-14T09:44:23Z</time>
      </trkpt>
      <trkpt lat="46.95886" lon="2.94651">
        <ele>165.2</ele>
        <time>2024-08-14T09:44:25Z</time>
      </trkpt>
      <trkpt lat="46.95857" lon="2.94638">
        <ele>165</ele>
        <time>2024-08-14T09:44:29Z</time>
      </trkpt>
      <trkpt lat="46.95828" lon="2.94619">
        <ele>165.2</ele>
        <time>2024-08-14T09:44:34Z</time>
      </trkpt>
      <trkpt lat="46.95801" lon="2.94602">
        <ele>166.6</ele>
        <time>2024-08-14T09:44:40Z</time>
      </trkpt>
      <trkpt lat="46.9577" lon="2.94584">
        <ele>167.6</ele>
        <time>2024-08-14T09:44:46Z</time>
      </trkpt>
      <trkpt lat="46.95764" lon="2.9458">
        <ele>167.8</ele>
        <time>2024-08-14T09:44:47Z</time>
      </trkpt>
      <trkpt lat="46.95715" lon="2.94548">
        <ele>167</ele>
        <time>2024-08-14T09:44:55Z</time>
      </trkpt>
      <trkpt lat="46.95703" lon="2.94541">
        <ele>166.6</ele>
        <time>2024-08-14T09:44:57Z</time>
      </trkpt>
      <trkpt lat="46.9567" lon="2.94519">
        <ele>165.2</ele>
        <time>2024-08-14T09:45:02Z</time>
      </trkpt>
      <trkpt lat="46.95663" lon="2.94514">
        <ele>165</ele>
        <time>2024-08-14T09:45:03Z</time>
      </trkpt>
      <trkpt lat="46.95628" lon="2.94491">
        <ele>164</ele>
        <time>2024-08-14T09:45:08Z</time>
      </trkpt>
      <trkpt lat="46.95607" lon="2.94475">
        <ele>163.4</ele>
        <time>2024-08-14T09:45:11Z</time>
      </trkpt>
      <trkpt lat="46.95591" lon="2.94463">
        <ele>162.8</ele>
        <time>2024-08-14T09:45:13Z</time>
      </trkpt>
      <trkpt lat="46.95558" lon="2.94433">
        <ele>161.8</ele>
        <time>2024-08-14T09:45:18Z</time>
      </trkpt>
      <trkpt lat="46.95551" lon="2.94427">
        <ele>161.6</ele>
        <time>2024-08-14T09:45:19Z</time>
      </trkpt>
      <trkpt lat="46.95519" lon="2.94396">
        <ele>160.6</ele>
        <time>2024-08-14T09:45:24Z</time>
      </trkpt>
      <trkpt lat="46.95507" lon="2.94386">
        <ele>160.4</ele>
        <time>2024-08-14T09:45:26Z</time>
      </trkpt>
      <trkpt lat="46.9546" lon="2.94347">
        <ele>159.8</ele>
        <time>2024-08-14T09:45:34Z</time>
      </trkpt>
      <trkpt lat="46.95419" lon="2.94317">
        <ele>159.8</ele>
        <time>2024-08-14T09:45:41Z</time>
      </trkpt>
      <trkpt lat="46.95394" lon="2.94304">
        <ele>159.6</ele>
        <time>2024-08-14T09:45:45Z</time>
      </trkpt>
      <trkpt lat="46.95374" lon="2.94297">
        <ele>159.4</ele>
        <time>2024-08-14T09:45:48Z</time>
      </trkpt>
      <trkpt lat="46.95359" lon="2.943">
        <ele>159</ele>
        <time>2024-08-14T09:45:50Z</time>
      </trkpt>
      <trkpt lat="46.95353" lon="2.94304">
        <ele>158.8</ele>
        <time>2024-08-14T09:45:51Z</time>
      </trkpt>
      <trkpt lat="46.95333" lon="2.9432">
        <ele>158.2</ele>
        <time>2024-08-14T09:45:54Z</time>
      </trkpt>
      <trkpt lat="46.95322" lon="2.94333">
        <ele>158</ele>
        <time>2024-08-14T09:45:56Z</time>
      </trkpt>
      <trkpt lat="46.95317" lon="2.94341">
        <ele>157.8</ele>
        <time>2024-08-14T09:45:57Z</time>
      </trkpt>
      <trkpt lat="46.95305" lon="2.94356">
        <ele>157.4</ele>
        <time>2024-08-14T09:45:59Z</time>
      </trkpt>
      <trkpt lat="46.95301" lon="2.94362">
        <ele>157.2</ele>
        <time>2024-08-14T09:46:00Z</time>
      </trkpt>
      <trkpt lat="46.95288" lon="2.94384">
        <ele>156.8</ele>
        <time>2024-08-14T09:46:03Z</time>
      </trkpt>
      <trkpt lat="46.9525" lon="2.94439">
        <ele>156.6</ele>
        <time>2024-08-14T09:46:11Z</time>
      </trkpt>
      <trkpt lat="46.95215" lon="2.9449">
        <ele>156.6</ele>
        <time>2024-08-14T09:46:19Z</time>
      </trkpt>
      <trkpt lat="46.95201" lon="2.94508">
        <ele>156.6</ele>
        <time>2024-08-14T09:46:22Z</time>
      </trkpt>
      <trkpt lat="46.95196" lon="2.9451">
        <ele>156.6</ele>
        <time>2024-08-14T09:46:23Z</time>
      </trkpt>
      <trkpt lat="46.9519" lon="2.94509">
        <ele>156.6</ele>
        <time>2024-08-14T09:46:24Z</time>
      </trkpt>
      <trkpt lat="46.9518" lon="2.945">
        <ele>156.4</ele>
        <time>2024-08-14T09:46:26Z</time>
      </trkpt>
      <trkpt lat="46.95145" lon="2.94463">
        <ele>156.2</ele>
        <time>2024-08-14T09:46:33Z</time>
      </trkpt>
      <trkpt lat="46.95111" lon="2.94433">
        <ele>156.2</ele>
        <time>2024-08-14T09:46:39Z</time>
      </trkpt>
      <trkpt lat="46.95105" lon="2.94429">
        <ele>156.2</ele>
        <time>2024-08-14T09:46:40Z</time>
      </trkpt>
      <trkpt lat="46.95098" lon="2.94426">
        <ele>156.4</ele>
        <time>2024-08-14T09:46:41Z</time>
      </trkpt>
      <trkpt lat="46.95073" lon="2.9442">
        <ele>156.8</ele>
        <time>2024-08-14T09:46:45Z</time>
      </trkpt>
      <trkpt lat="46.95057" lon="2.94415">
        <ele>156.8</ele>
        <time>2024-08-14T09:46:48Z</time>
      </trkpt>
      <trkpt lat="46.95044" lon="2.94407">
        <ele>156.6</ele>
        <time>2024-08-14T09:46:50Z</time>
      </trkpt>
      <trkpt lat="46.95011" lon="2.94376">
        <ele>156.4</ele>
        <time>2024-08-14T09:46:57Z</time>
      </trkpt>
      <trkpt lat="46.95003" lon="2.9437">
        <ele>156.4</ele>
        <time>2024-08-14T09:46:59Z</time>
      </trkpt>
      <trkpt lat="46.95001" lon="2.94368">
        <ele>156.4</ele>
        <time>2024-08-14T09:47:01Z</time>
      </trkpt>
      <trkpt lat="46.95001" lon="2.94368">
        <ele>156.4</ele>
        <time>2024-08-14T09:47:03Z</time>
      </trkpt>
      <trkpt lat="46.94998" lon="2.94367">
        <ele>156.4</ele>
        <time>2024-08-14T09:47:11Z</time>
      </trkpt>
      <trkpt lat="46.94996" lon="2.94369">
        <ele>156.4</ele>
        <time>2024-08-14T09:47:12Z</time>
      </trkpt>
      <trkpt lat="46.94987" lon="2.94386">
        <ele>156.2</ele>
        <time>2024-08-14T09:47:16Z</time>
      </trkpt>
      <trkpt lat="46.94978" lon="2.94406">
        <ele>156</ele>
        <time>2024-08-14T09:47:19Z</time>
      </trkpt>
      <trkpt lat="46.94972" lon="2.9442">
        <ele>156</ele>
        <time>2024-08-14T09:47:21Z</time>
      </trkpt>
      <trkpt lat="46.94954" lon="2.94461">
        <ele>155.8</ele>
        <time>2024-08-14T09:47:28Z</time>
      </trkpt>
      <trkpt lat="46.94948" lon="2.94473">
        <ele>155.8</ele>
        <time>2024-08-14T09:47:32Z</time>
      </trkpt>
      <trkpt lat="46.94941" lon="2.94489">
        <ele>155.8</ele>
        <time>2024-08-14T09:47:39Z</time>
      </trkpt>
      <trkpt lat="46.9494" lon="2.94491">
        <ele>155.8</ele>
        <time>2024-08-14T09:47:40Z</time>
      </trkpt>
      <trkpt lat="46.9494" lon="2.94491">
        <ele>155.6</ele>
        <time>2024-08-14T09:47:43Z</time>
      </trkpt>
      <trkpt lat="46.94939" lon="2.94494">
        <ele>155.6</ele>
        <time>2024-08-14T09:48:22Z</time>
      </trkpt>
      <trkpt lat="46.94928" lon="2.94517">
        <ele>155.6</ele>
        <time>2024-08-14T09:48:27Z</time>
      </trkpt>
      <trkpt lat="46.94915" lon="2.94538">
        <ele>156</ele>
        <time>2024-08-14T09:48:32Z</time>
      </trkpt>
      <trkpt lat="46.94911" lon="2.94537">
        <ele>156</ele>
        <time>2024-08-14T09:48:33Z</time>
      </trkpt>
      <trkpt lat="46.94903" lon="2.94534">
        <ele>156.2</ele>
        <time>2024-08-14T09:48:35Z</time>
      </trkpt>
      <trkpt lat="46.94899" lon="2.94531">
        <ele>156.4</ele>
        <time>2024-08-14T09:48:36Z</time>
      </trkpt>
      <trkpt lat="46.94878" lon="2.9452">
        <ele>156.8</ele>
        <time>2024-08-14T09:48:40Z</time>
      </trkpt>
      <trkpt lat="46.94873" lon="2.94517">
        <ele>157</ele>
        <time>2024-08-14T09:48:41Z</time>
      </trkpt>
      <trkpt lat="46.94837" lon="2.94499">
        <ele>158</ele>
        <time>2024-08-14T09:48:47Z</time>
      </trkpt>
      <trkpt lat="46.94831" lon="2.94496">
        <ele>158</ele>
        <time>2024-08-14T09:48:48Z</time>
      </trkpt>
      <trkpt lat="46.94783" lon="2.94473">
        <ele>158.4</ele>
        <time>2024-08-14T09:48:55Z</time>
      </trkpt>
      <trkpt lat="46.94738" lon="2.94449">
        <ele>158.2</ele>
        <time>2024-08-14T09:49:02Z</time>
      </trkpt>
      <trkpt lat="46.94691" lon="2.94428">
        <ele>158.2</ele>
        <time>2024-08-14T09:49:09Z</time>
      </trkpt>
      <trkpt lat="46.94647" lon="2.94406">
        <ele>158.4</ele>
        <time>2024-08-14T09:49:16Z</time>
      </trkpt>
      <trkpt lat="46.94617" lon="2.94388">
        <ele>158.8</ele>
        <time>2024-08-14T09:49:21Z</time>
      </trkpt>
      <trkpt lat="46.94605" lon="2.94382">
        <ele>158.8</ele>
        <time>2024-08-14T09:49:23Z</time>
      </trkpt>
      <trkpt lat="46.94557" lon="2.94357">
        <ele>158.6</ele>
        <time>2024-08-14T09:49:31Z</time>
      </trkpt>
      <trkpt lat="46.94515" lon="2.94337">
        <ele>158.6</ele>
        <time>2024-08-14T09:49:38Z</time>
      </trkpt>
      <trkpt lat="46.94478" lon="2.94318">
        <ele>158.6</ele>
        <time>2024-08-14T09:49:44Z</time>
      </trkpt>
      <trkpt lat="46.94435" lon="2.94296">
        <ele>158.6</ele>
        <time>2024-08-14T09:49:51Z</time>
      </trkpt>
      <trkpt lat="46.94397" lon="2.94279">
        <ele>158.8</ele>
        <time>2024-08-14T09:49:57Z</time>
      </trkpt>
      <trkpt lat="46.9438" lon="2.94269">
        <ele>159</ele>
        <time>2024-08-14T09:50:00Z</time>
      </trkpt>
      <trkpt lat="46.94336" lon="2.94245">
        <ele>159.2</ele>
        <time>2024-08-14T09:50:07Z</time>
      </trkpt>
      <trkpt lat="46.94279" lon="2.94218">
        <ele>159.4</ele>
        <time>2024-08-14T09:50:16Z</time>
      </trkpt>
      <trkpt lat="46.94266" lon="2.94211">
        <ele>159.4</ele>
        <time>2024-08-14T09:50:18Z</time>
      </trkpt>
      <trkpt lat="46.94241" lon="2.94199">
        <ele>159.6</ele>
        <time>2024-08-14T09:50:22Z</time>
      </trkpt>
      <trkpt lat="46.94215" lon="2.94187">
        <ele>159.6</ele>
        <time>2024-08-14T09:50:26Z</time>
      </trkpt>
      <trkpt lat="46.94208" lon="2.94183">
        <ele>159.6</ele>
        <time>2024-08-14T09:50:27Z</time>
      </trkpt>
      <trkpt lat="46.94168" lon="2.94166">
        <ele>159.8</ele>
        <time>2024-08-14T09:50:33Z</time>
      </trkpt>
      <trkpt lat="46.94118" lon="2.94138">
        <ele>159.8</ele>
        <time>2024-08-14T09:50:41Z</time>
      </trkpt>
      <trkpt lat="46.94105" lon="2.94131">
        <ele>159.8</ele>
        <time>2024-08-14T09:50:43Z</time>
      </trkpt>
      <trkpt lat="46.94088" lon="2.94122">
        <ele>159.8</ele>
        <time>2024-08-14T09:50:46Z</time>
      </trkpt>
      <trkpt lat="46.94034" lon="2.94095">
        <ele>160.2</ele>
        <time>2024-08-14T09:50:55Z</time>
      </trkpt>
      <trkpt lat="46.93979" lon="2.94068">
        <ele>160.2</ele>
        <time>2024-08-14T09:51:04Z</time>
      </trkpt>
      <trkpt lat="46.93973" lon="2.94065">
        <ele>160.2</ele>
        <time>2024-08-14T09:51:05Z</time>
      </trkpt>
      <trkpt lat="46.93924" lon="2.94043">
        <ele>160.2</ele>
        <time>2024-08-14T09:51:13Z</time>
      </trkpt>
      <trkpt lat="46.93897" lon="2.94035">
        <ele>160.6</ele>
        <time>2024-08-14T09:51:18Z</time>
      </trkpt>
      <trkpt lat="46.93891" lon="2.94033">
        <ele>160.6</ele>
        <time>2024-08-14T09:51:19Z</time>
      </trkpt>
      <trkpt lat="46.93861" lon="2.94025">
        <ele>161.4</ele>
        <time>2024-08-14T09:51:24Z</time>
      </trkpt>
      <trkpt lat="46.93849" lon="2.94021">
        <ele>161.6</ele>
        <time>2024-08-14T09:51:26Z</time>
      </trkpt>
      <trkpt lat="46.93837" lon="2.94018">
        <ele>161.8</ele>
        <time>2024-08-14T09:51:28Z</time>
      </trkpt>
      <trkpt lat="46.93801" lon="2.94011">
        <ele>162.4</ele>
        <time>2024-08-14T09:51:34Z</time>
      </trkpt>
      <trkpt lat="46.93784" lon="2.94008">
        <ele>162.6</ele>
        <time>2024-08-14T09:51:37Z</time>
      </trkpt>
      <trkpt lat="46.93762" lon="2.94004">
        <ele>163</ele>
        <time>2024-08-14T09:51:41Z</time>
      </trkpt>
      <trkpt lat="46.93715" lon="2.93997">
        <ele>163.2</ele>
        <time>2024-08-14T09:51:49Z</time>
      </trkpt>
      <trkpt lat="46.93666" lon="2.93987">
        <ele>163.2</ele>
        <time>2024-08-14T09:51:57Z</time>
      </trkpt>
      <trkpt lat="46.9361" lon="2.93977">
        <ele>163.2</ele>
        <time>2024-08-14T09:52:06Z</time>
      </trkpt>
      <trkpt lat="46.93604" lon="2.93975">
        <ele>163.2</ele>
        <time>2024-08-14T09:52:07Z</time>
      </trkpt>
      <trkpt lat="46.93549" lon="2.93966">
        <ele>163.4</ele>
        <time>2024-08-14T09:52:16Z</time>
      </trkpt>
      <trkpt lat="46.93531" lon="2.93962">
        <ele>163.4</ele>
        <time>2024-08-14T09:52:19Z</time>
      </trkpt>
      <trkpt lat="46.9348" lon="2.93954">
        <ele>163</ele>
        <time>2024-08-14T09:52:27Z</time>
      </trkpt>
      <trkpt lat="46.93442" lon="2.93947">
        <ele>162.8</ele>
        <time>2024-08-14T09:52:32Z</time>
      </trkpt>
      <trkpt lat="46.93392" lon="2.93938">
        <ele>161.4</ele>
        <time>2024-08-14T09:52:38Z</time>
      </trkpt>
      <trkpt lat="46.93384" lon="2.93936">
        <ele>161.2</ele>
        <time>2024-08-14T09:52:39Z</time>
      </trkpt>
      <trkpt lat="46.93343" lon="2.93931">
        <ele>160.4</ele>
        <time>2024-08-14T09:52:44Z</time>
      </trkpt>
      <trkpt lat="46.93328" lon="2.93931">
        <ele>160</ele>
        <time>2024-08-14T09:52:46Z</time>
      </trkpt>
      <trkpt lat="46.93286" lon="2.93939">
        <ele>159.6</ele>
        <time>2024-08-14T09:52:52Z</time>
      </trkpt>
      <trkpt lat="46.9325" lon="2.93956">
        <ele>159.6</ele>
        <time>2024-08-14T09:52:58Z</time>
      </trkpt>
      <trkpt lat="46.93234" lon="2.93965">
        <ele>159.8</ele>
        <time>2024-08-14T09:53:01Z</time>
      </trkpt>
      <trkpt lat="46.93222" lon="2.93965">
        <ele>159.8</ele>
        <time>2024-08-14T09:53:03Z</time>
      </trkpt>
      <trkpt lat="46.93212" lon="2.93958">
        <ele>160</ele>
        <time>2024-08-14T09:53:05Z</time>
      </trkpt>
      <trkpt lat="46.93207" lon="2.93953">
        <ele>160</ele>
        <time>2024-08-14T09:53:06Z</time>
      </trkpt>
      <trkpt lat="46.93177" lon="2.93918">
        <ele>161.2</ele>
        <time>2024-08-14T09:53:12Z</time>
      </trkpt>
      <trkpt lat="46.93173" lon="2.93912">
        <ele>161.4</ele>
        <time>2024-08-14T09:53:13Z</time>
      </trkpt>
      <trkpt lat="46.93137" lon="2.93863">
        <ele>162</ele>
        <time>2024-08-14T09:53:20Z</time>
      </trkpt>
      <trkpt lat="46.931" lon="2.9381">
        <ele>161.6</ele>
        <time>2024-08-14T09:53:27Z</time>
      </trkpt>
      <trkpt lat="46.93073" lon="2.93758">
        <ele>161.4</ele>
        <time>2024-08-14T09:53:33Z</time>
      </trkpt>
      <trkpt lat="46.93056" lon="2.93703">
        <ele>160.6</ele>
        <time>2024-08-14T09:53:38Z</time>
      </trkpt>
      <trkpt lat="46.93051" lon="2.93681">
        <ele>160.2</ele>
        <time>2024-08-14T09:53:40Z</time>
      </trkpt>
      <trkpt lat="46.93033" lon="2.93605">
        <ele>159.6</ele>
        <time>2024-08-14T09:53:47Z</time>
      </trkpt>
      <trkpt lat="46.93026" lon="2.93574">
        <ele>159.2</ele>
        <time>2024-08-14T09:53:50Z</time>
      </trkpt>
      <trkpt lat="46.93015" lon="2.93526">
        <ele>159</ele>
        <time>2024-08-14T09:53:55Z</time>
      </trkpt>
      <trkpt lat="46.93001" lon="2.93468">
        <ele>159.2</ele>
        <time>2024-08-14T09:54:02Z</time>
      </trkpt>
      <trkpt lat="46.92996" lon="2.93445">
        <ele>160.2</ele>
        <time>2024-08-14T09:54:05Z</time>
      </trkpt>
      <trkpt lat="46.92987" lon="2.93409">
        <ele>161.2</ele>
        <time>2024-08-14T09:54:10Z</time>
      </trkpt>
      <trkpt lat="46.92985" lon="2.93402">
        <ele>161.2</ele>
        <time>2024-08-14T09:54:11Z</time>
      </trkpt>
      <trkpt lat="46.92975" lon="2.93368">
        <ele>162.2</ele>
        <time>2024-08-14T09:54:16Z</time>
      </trkpt>
      <trkpt lat="46.92972" lon="2.93355">
        <ele>162.6</ele>
        <time>2024-08-14T09:54:18Z</time>
      </trkpt>
      <trkpt lat="46.92962" lon="2.93311">
        <ele>163.2</ele>
        <time>2024-08-14T09:54:24Z</time>
      </trkpt>
      <trkpt lat="46.92955" lon="2.93281">
        <ele>164.2</ele>
        <time>2024-08-14T09:54:28Z</time>
      </trkpt>
      <trkpt lat="46.92935" lon="2.93202">
        <ele>165.2</ele>
        <time>2024-08-14T09:54:38Z</time>
      </trkpt>
      <trkpt lat="46.92933" lon="2.93193">
        <ele>165.4</ele>
        <time>2024-08-14T09:54:39Z</time>
      </trkpt>
      <trkpt lat="46.92922" lon="2.93147">
        <ele>165.2</ele>
        <time>2024-08-14T09:54:44Z</time>
      </trkpt>
      <trkpt lat="46.92906" lon="2.93077">
        <ele>164.6</ele>
        <time>2024-08-14T09:54:51Z</time>
      </trkpt>
      <trkpt lat="46.92895" lon="2.93035">
        <ele>164</ele>
        <time>2024-08-14T09:54:55Z</time>
      </trkpt>
      <trkpt lat="46.92884" lon="2.92985">
        <ele>163.2</ele>
        <time>2024-08-14T09:55:00Z</time>
      </trkpt>
      <trkpt lat="46.92879" lon="2.92964">
        <ele>162.8</ele>
        <time>2024-08-14T09:55:02Z</time>
      </trkpt>
      <trkpt lat="46.92861" lon="2.92888">
        <ele>161.8</ele>
        <time>2024-08-14T09:55:09Z</time>
      </trkpt>
      <trkpt lat="46.92859" lon="2.92879">
        <ele>161.8</ele>
        <time>2024-08-14T09:55:10Z</time>
      </trkpt>
      <trkpt lat="46.92841" lon="2.92804">
        <ele>161.2</ele>
        <time>2024-08-14T09:55:17Z</time>
      </trkpt>
      <trkpt lat="46.92833" lon="2.92772">
        <ele>161</ele>
        <time>2024-08-14T09:55:20Z</time>
      </trkpt>
      <trkpt lat="46.92815" lon="2.92693">
        <ele>160.8</ele>
        <time>2024-08-14T09:55:28Z</time>
      </trkpt>
      <trkpt lat="46.9281" lon="2.92674">
        <ele>160.8</ele>
        <time>2024-08-14T09:55:30Z</time>
      </trkpt>
      <trkpt lat="46.92793" lon="2.92604">
        <ele>160.8</ele>
        <time>2024-08-14T09:55:38Z</time>
      </trkpt>
      <trkpt lat="46.92789" lon="2.92587">
        <ele>161</ele>
        <time>2024-08-14T09:55:40Z</time>
      </trkpt>
      <trkpt lat="46.92776" lon="2.92529">
        <ele>161.2</ele>
        <time>2024-08-14T09:55:47Z</time>
      </trkpt>
      <trkpt lat="46.92759" lon="2.92448">
        <ele>162.2</ele>
        <time>2024-08-14T09:55:57Z</time>
      </trkpt>
      <trkpt lat="46.9275" lon="2.924">
        <ele>162.4</ele>
        <time>2024-08-14T09:56:03Z</time>
      </trkpt>
      <trkpt lat="46.92746" lon="2.92377">
        <ele>162.8</ele>
        <time>2024-08-14T09:56:06Z</time>
      </trkpt>
      <trkpt lat="46.92742" lon="2.92352">
        <ele>163</ele>
        <time>2024-08-14T09:56:09Z</time>
      </trkpt>
      <trkpt lat="46.92741" lon="2.92346">
        <ele>163</ele>
        <time>2024-08-14T09:56:10Z</time>
      </trkpt>
      <trkpt lat="46.92732" lon="2.92293">
        <ele>163.8</ele>
        <time>2024-08-14T09:56:17Z</time>
      </trkpt>
      <trkpt lat="46.92728" lon="2.92272">
        <ele>163.8</ele>
        <time>2024-08-14T09:56:20Z</time>
      </trkpt>
      <trkpt lat="46.92715" lon="2.92197">
        <ele>164.4</ele>
        <time>2024-08-14T09:56:30Z</time>
      </trkpt>
      <trkpt lat="46.9271" lon="2.92168">
        <ele>164.8</ele>
        <time>2024-08-14T09:56:34Z</time>
      </trkpt>
      <trkpt lat="46.92706" lon="2.92146">
        <ele>164.8</ele>
        <time>2024-08-14T09:56:37Z</time>
      </trkpt>
      <trkpt lat="46.92704" lon="2.92132">
        <ele>165.6</ele>
        <time>2024-08-14T09:56:39Z</time>
      </trkpt>
      <trkpt lat="46.92695" lon="2.92087">
        <ele>166.6</ele>
        <time>2024-08-14T09:56:45Z</time>
      </trkpt>
      <trkpt lat="46.92693" lon="2.9208">
        <ele>166.8</ele>
        <time>2024-08-14T09:56:46Z</time>
      </trkpt>
      <trkpt lat="46.92683" lon="2.92019">
        <ele>167.8</ele>
        <time>2024-08-14T09:56:54Z</time>
      </trkpt>
      <trkpt lat="46.92682" lon="2.92009">
        <ele>167.8</ele>
        <time>2024-08-14T09:56:55Z</time>
      </trkpt>
      <trkpt lat="46.92671" lon="2.91947">
        <ele>168</ele>
        <time>2024-08-14T09:57:02Z</time>
      </trkpt>
      <trkpt lat="46.92658" lon="2.9188">
        <ele>167.6</ele>
        <time>2024-08-14T09:57:09Z</time>
      </trkpt>
      <trkpt lat="46.92648" lon="2.9183">
        <ele>166.6</ele>
        <time>2024-08-14T09:57:14Z</time>
      </trkpt>
      <trkpt lat="46.92643" lon="2.91799">
        <ele>166</ele>
        <time>2024-08-14T09:57:17Z</time>
      </trkpt>
      <trkpt lat="46.92638" lon="2.91769">
        <ele>165.6</ele>
        <time>2024-08-14T09:57:20Z</time>
      </trkpt>
      <trkpt lat="46.9263" lon="2.91729">
        <ele>165.2</ele>
        <time>2024-08-14T09:57:24Z</time>
      </trkpt>
      <trkpt lat="46.92626" lon="2.91708">
        <ele>164.6</ele>
        <time>2024-08-14T09:57:26Z</time>
      </trkpt>
      <trkpt lat="46.92613" lon="2.91636">
        <ele>164.4</ele>
        <time>2024-08-14T09:57:33Z</time>
      </trkpt>
      <trkpt lat="46.92603" lon="2.91579">
        <ele>164.2</ele>
        <time>2024-08-14T09:57:39Z</time>
      </trkpt>
      <trkpt lat="46.92589" lon="2.91501">
        <ele>164</ele>
        <time>2024-08-14T09:57:47Z</time>
      </trkpt>
      <trkpt lat="46.92586" lon="2.91482">
        <ele>164.2</ele>
        <time>2024-08-14T09:57:49Z</time>
      </trkpt>
      <trkpt lat="46.92572" lon="2.91397">
        <ele>164.6</ele>
        <time>2024-08-14T09:57:58Z</time>
      </trkpt>
      <trkpt lat="46.92562" lon="2.9135">
        <ele>165.6</ele>
        <time>2024-08-14T09:58:04Z</time>
      </trkpt>
      <trkpt lat="46.9256" lon="2.91343">
        <ele>165.8</ele>
        <time>2024-08-14T09:58:05Z</time>
      </trkpt>
      <trkpt lat="46.92551" lon="2.91325">
        <ele>166.4</ele>
        <time>2024-08-14T09:58:08Z</time>
      </trkpt>
      <trkpt lat="46.92547" lon="2.91319">
        <ele>166.8</ele>
        <time>2024-08-14T09:58:09Z</time>
      </trkpt>
      <trkpt lat="46.92534" lon="2.91297">
        <ele>167.2</ele>
        <time>2024-08-14T09:58:13Z</time>
      </trkpt>
      <trkpt lat="46.92532" lon="2.91291">
        <ele>167.2</ele>
        <time>2024-08-14T09:58:14Z</time>
      </trkpt>
      <trkpt lat="46.92527" lon="2.91278">
        <ele>168</ele>
        <time>2024-08-14T09:58:16Z</time>
      </trkpt>
      <trkpt lat="46.92517" lon="2.91242">
        <ele>169</ele>
        <time>2024-08-14T09:58:22Z</time>
      </trkpt>
      <trkpt lat="46.92511" lon="2.91209">
        <ele>170</ele>
        <time>2024-08-14T09:58:27Z</time>
      </trkpt>
      <trkpt lat="46.92507" lon="2.91189">
        <ele>170.8</ele>
        <time>2024-08-14T09:58:30Z</time>
      </trkpt>
      <trkpt lat="46.92506" lon="2.91183">
        <ele>171.2</ele>
        <time>2024-08-14T09:58:31Z</time>
      </trkpt>
      <trkpt lat="46.92502" lon="2.9114">
        <ele>172.2</ele>
        <time>2024-08-14T09:58:37Z</time>
      </trkpt>
      <trkpt lat="46.925" lon="2.91124">
        <ele>172.4</ele>
        <time>2024-08-14T09:58:39Z</time>
      </trkpt>
      <trkpt lat="46.92492" lon="2.91075">
        <ele>172.6</ele>
        <time>2024-08-14T09:58:45Z</time>
      </trkpt>
      <trkpt lat="46.92491" lon="2.91066">
        <ele>172.8</ele>
        <time>2024-08-14T09:58:46Z</time>
      </trkpt>
      <trkpt lat="46.92483" lon="2.91003">
        <ele>172.8</ele>
        <time>2024-08-14T09:58:53Z</time>
      </trkpt>
      <trkpt lat="46.92479" lon="2.90975">
        <ele>172.8</ele>
        <time>2024-08-14T09:58:56Z</time>
      </trkpt>
      <trkpt lat="46.92474" lon="2.90947">
        <ele>172.6</ele>
        <time>2024-08-14T09:58:59Z</time>
      </trkpt>
      <trkpt lat="46.92473" lon="2.90938">
        <ele>172.6</ele>
        <time>2024-08-14T09:59:00Z</time>
      </trkpt>
      <trkpt lat="46.92468" lon="2.90909">
        <ele>172.4</ele>
        <time>2024-08-14T09:59:03Z</time>
      </trkpt>
      <trkpt lat="46.92465" lon="2.9089">
        <ele>172.4</ele>
        <time>2024-08-14T09:59:05Z</time>
      </trkpt>
      <trkpt lat="46.9246" lon="2.90828">
        <ele>172.6</ele>
        <time>2024-08-14T09:59:12Z</time>
      </trkpt>
      <trkpt lat="46.92453" lon="2.90769">
        <ele>173.2</ele>
        <time>2024-08-14T09:59:19Z</time>
      </trkpt>
      <trkpt lat="46.92452" lon="2.90761">
        <ele>173.2</ele>
        <time>2024-08-14T09:59:20Z</time>
      </trkpt>
      <trkpt lat="46.92445" lon="2.90695">
        <ele>174.2</ele>
        <time>2024-08-14T09:59:28Z</time>
      </trkpt>
      <trkpt lat="46.92442" lon="2.90678">
        <ele>174.4</ele>
        <time>2024-08-14T09:59:30Z</time>
      </trkpt>
      <trkpt lat="46.92439" lon="2.9066">
        <ele>174.4</ele>
        <time>2024-08-14T09:59:32Z</time>
      </trkpt>
      <trkpt lat="46.92431" lon="2.90623">
        <ele>174.4</ele>
        <time>2024-08-14T09:59:36Z</time>
      </trkpt>
      <trkpt lat="46.92406" lon="2.90551">
        <ele>174</ele>
        <time>2024-08-14T09:59:44Z</time>
      </trkpt>
      <trkpt lat="46.92383" lon="2.90494">
        <ele>173.2</ele>
        <time>2024-08-14T09:59:50Z</time>
      </trkpt>
      <trkpt lat="46.92374" lon="2.90474">
        <ele>172.8</ele>
        <time>2024-08-14T09:59:52Z</time>
      </trkpt>
      <trkpt lat="46.92362" lon="2.90445">
        <ele>172</ele>
        <time>2024-08-14T09:59:55Z</time>
      </trkpt>
      <trkpt lat="46.92343" lon="2.904">
        <ele>171.4</ele>
        <time>2024-08-14T10:00:00Z</time>
      </trkpt>
      <trkpt lat="46.9232" lon="2.90345">
        <ele>172.2</ele>
        <time>2024-08-14T10:00:07Z</time>
      </trkpt>
      <trkpt lat="46.92299" lon="2.90295">
        <ele>173.2</ele>
        <time>2024-08-14T10:00:13Z</time>
      </trkpt>
      <trkpt lat="46.92289" lon="2.90271">
        <ele>173.2</ele>
        <time>2024-08-14T10:00:16Z</time>
      </trkpt>
      <trkpt lat="46.92262" lon="2.90206">
        <ele>173</ele>
        <time>2024-08-14T10:00:24Z</time>
      </trkpt>
      <trkpt lat="46.92231" lon="2.90133">
        <ele>172.2</ele>
        <time>2024-08-14T10:00:32Z</time>
      </trkpt>
      <trkpt lat="46.92223" lon="2.90115">
        <ele>171.8</ele>
        <time>2024-08-14T10:00:34Z</time>
      </trkpt>
      <trkpt lat="46.92204" lon="2.90069">
        <ele>170.6</ele>
        <time>2024-08-14T10:00:39Z</time>
      </trkpt>
      <trkpt lat="46.92195" lon="2.9005">
        <ele>170.2</ele>
        <time>2024-08-14T10:00:41Z</time>
      </trkpt>
      <trkpt lat="46.92165" lon="2.89996">
        <ele>169.6</ele>
        <time>2024-08-14T10:00:47Z</time>
      </trkpt>
      <trkpt lat="46.92159" lon="2.89988">
        <ele>169.4</ele>
        <time>2024-08-14T10:00:48Z</time>
      </trkpt>
      <trkpt lat="46.92147" lon="2.89973">
        <ele>169.2</ele>
        <time>2024-08-14T10:00:50Z</time>
      </trkpt>
      <trkpt lat="46.92129" lon="2.89953">
        <ele>168.4</ele>
        <time>2024-08-14T10:00:53Z</time>
      </trkpt>
      <trkpt lat="46.92117" lon="2.89941">
        <ele>168.4</ele>
        <time>2024-08-14T10:00:55Z</time>
      </trkpt>
      <trkpt lat="46.92098" lon="2.89926">
        <ele>167.6</ele>
        <time>2024-08-14T10:00:58Z</time>
      </trkpt>
      <trkpt lat="46.92072" lon="2.8991">
        <ele>167.4</ele>
        <time>2024-08-14T10:01:02Z</time>
      </trkpt>
      <trkpt lat="46.92059" lon="2.89902">
        <ele>167.2</ele>
        <time>2024-08-14T10:01:04Z</time>
      </trkpt>
      <trkpt lat="46.9201" lon="2.89879">
        <ele>166.4</ele>
        <time>2024-08-14T10:01:11Z</time>
      </trkpt>
      <trkpt lat="46.92003" lon="2.89876">
        <ele>166.2</ele>
        <time>2024-08-14T10:01:12Z</time>
      </trkpt>
      <trkpt lat="46.91954" lon="2.89853">
        <ele>165.6</ele>
        <time>2024-08-14T10:01:19Z</time>
      </trkpt>
      <trkpt lat="46.91927" lon="2.89841">
        <ele>165.2</ele>
        <time>2024-08-14T10:01:23Z</time>
      </trkpt>
      <trkpt lat="46.91909" lon="2.89832">
        <ele>165.2</ele>
        <time>2024-08-14T10:01:26Z</time>
      </trkpt>
      <trkpt lat="46.91897" lon="2.89827">
        <ele>165.2</ele>
        <time>2024-08-14T10:01:28Z</time>
      </trkpt>
      <trkpt lat="46.9188" lon="2.89818">
        <ele>165.4</ele>
        <time>2024-08-14T10:01:31Z</time>
      </trkpt>
      <trkpt lat="46.91863" lon="2.89809">
        <ele>165.6</ele>
        <time>2024-08-14T10:01:34Z</time>
      </trkpt>
      <trkpt lat="46.91851" lon="2.89803">
        <ele>165.8</ele>
        <time>2024-08-14T10:01:36Z</time>
      </trkpt>
      <trkpt lat="46.91826" lon="2.89781">
        <ele>166.2</ele>
        <time>2024-08-14T10:01:41Z</time>
      </trkpt>
      <trkpt lat="46.9182" lon="2.89777">
        <ele>166.4</ele>
        <time>2024-08-14T10:01:42Z</time>
      </trkpt>
      <trkpt lat="46.918" lon="2.89763">
        <ele>166.8</ele>
        <time>2024-08-14T10:01:46Z</time>
      </trkpt>
      <trkpt lat="46.91789" lon="2.89757">
        <ele>166.8</ele>
        <time>2024-08-14T10:01:48Z</time>
      </trkpt>
      <trkpt lat="46.91762" lon="2.89742">
        <ele>166.8</ele>
        <time>2024-08-14T10:01:53Z</time>
      </trkpt>
      <trkpt lat="46.91757" lon="2.89738">
        <ele>166.6</ele>
        <time>2024-08-14T10:01:54Z</time>
      </trkpt>
      <trkpt lat="46.91706" lon="2.89708">
        <ele>166.6</ele>
        <time>2024-08-14T10:02:03Z</time>
      </trkpt>
      <trkpt lat="46.91679" lon="2.89686">
        <ele>166.4</ele>
        <time>2024-08-14T10:02:08Z</time>
      </trkpt>
      <trkpt lat="46.91668" lon="2.89677">
        <ele>166.4</ele>
        <time>2024-08-14T10:02:10Z</time>
      </trkpt>
      <trkpt lat="46.91627" lon="2.89647">
        <ele>166.2</ele>
        <time>2024-08-14T10:02:17Z</time>
      </trkpt>
      <trkpt lat="46.91589" lon="2.89613">
        <ele>165.8</ele>
        <time>2024-08-14T10:02:24Z</time>
      </trkpt>
      <trkpt lat="46.91549" lon="2.89577">
        <ele>165.4</ele>
        <time>2024-08-14T10:02:31Z</time>
      </trkpt>
      <trkpt lat="46.91503" lon="2.89534">
        <ele>165</ele>
        <time>2024-08-14T10:02:39Z</time>
      </trkpt>
      <trkpt lat="46.91497" lon="2.89529">
        <ele>165</ele>
        <time>2024-08-14T10:02:40Z</time>
      </trkpt>
      <trkpt lat="46.91463" lon="2.895">
        <ele>165</ele>
        <time>2024-08-14T10:02:46Z</time>
      </trkpt>
      <trkpt lat="46.91415" lon="2.89472">
        <ele>165.2</ele>
        <time>2024-08-14T10:02:54Z</time>
      </trkpt>
      <trkpt lat="46.91373" lon="2.89458">
        <ele>165.6</ele>
        <time>2024-08-14T10:03:01Z</time>
      </trkpt>
      <trkpt lat="46.91337" lon="2.89446">
        <ele>165.8</ele>
        <time>2024-08-14T10:03:07Z</time>
      </trkpt>
      <trkpt lat="46.91281" lon="2.89427">
        <ele>165.8</ele>
        <time>2024-08-14T10:03:16Z</time>
      </trkpt>
      <trkpt lat="46.91256" lon="2.89419">
        <ele>166</ele>
        <time>2024-08-14T10:03:20Z</time>
      </trkpt>
      <trkpt lat="46.9123" lon="2.89411">
        <ele>166.2</ele>
        <time>2024-08-14T10:03:24Z</time>
      </trkpt>
      <trkpt lat="46.91178" lon="2.89395">
        <ele>166.4</ele>
        <time>2024-08-14T10:03:32Z</time>
      </trkpt>
      <trkpt lat="46.91122" lon="2.89383">
        <ele>166.4</ele>
        <time>2024-08-14T10:03:40Z</time>
      </trkpt>
      <trkpt lat="46.91066" lon="2.89379">
        <ele>166.4</ele>
        <time>2024-08-14T10:03:48Z</time>
      </trkpt>
      <trkpt lat="46.91059" lon="2.8938">
        <ele>166.4</ele>
        <time>2024-08-14T10:03:49Z</time>
      </trkpt>
      <trkpt lat="46.91038" lon="2.8938">
        <ele>166.4</ele>
        <time>2024-08-14T10:03:52Z</time>
      </trkpt>
      <trkpt lat="46.90981" lon="2.89382">
        <ele>166.6</ele>
        <time>2024-08-14T10:04:00Z</time>
      </trkpt>
      <trkpt lat="46.90967" lon="2.89382">
        <ele>166.6</ele>
        <time>2024-08-14T10:04:02Z</time>
      </trkpt>
      <trkpt lat="46.90913" lon="2.89384">
        <ele>167</ele>
        <time>2024-08-14T10:04:10Z</time>
      </trkpt>
      <trkpt lat="46.90901" lon="2.89384">
        <ele>167</ele>
        <time>2024-08-14T10:04:12Z</time>
      </trkpt>
      <trkpt lat="46.90845" lon="2.89386">
        <ele>167.6</ele>
        <time>2024-08-14T10:04:21Z</time>
      </trkpt>
      <trkpt lat="46.9079" lon="2.89387">
        <ele>167.8</ele>
        <time>2024-08-14T10:04:30Z</time>
      </trkpt>
      <trkpt lat="46.90778" lon="2.89387">
        <ele>168</ele>
        <time>2024-08-14T10:04:32Z</time>
      </trkpt>
      <trkpt lat="46.90727" lon="2.89388">
        <ele>168</ele>
        <time>2024-08-14T10:04:40Z</time>
      </trkpt>
      <trkpt lat="46.90677" lon="2.89391">
        <ele>167.8</ele>
        <time>2024-08-14T10:04:48Z</time>
      </trkpt>
      <trkpt lat="46.90632" lon="2.89397">
        <ele>167.8</ele>
        <time>2024-08-14T10:04:55Z</time>
      </trkpt>
      <trkpt lat="46.90613" lon="2.89401">
        <ele>167.8</ele>
        <time>2024-08-14T10:04:58Z</time>
      </trkpt>
      <trkpt lat="46.90588" lon="2.89405">
        <ele>167.8</ele>
        <time>2024-08-14T10:05:02Z</time>
      </trkpt>
      <trkpt lat="46.90535" lon="2.89416">
        <ele>168.4</ele>
        <time>2024-08-14T10:05:11Z</time>
      </trkpt>
      <trkpt lat="46.90476" lon="2.89427">
        <ele>169</ele>
        <time>2024-08-14T10:05:21Z</time>
      </trkpt>
      <trkpt lat="46.90463" lon="2.89428">
        <ele>169.2</ele>
        <time>2024-08-14T10:05:23Z</time>
      </trkpt>
      <trkpt lat="46.9043" lon="2.89426">
        <ele>169.4</ele>
        <time>2024-08-14T10:05:28Z</time>
      </trkpt>
      <trkpt lat="46.90367" lon="2.89421">
        <ele>170</ele>
        <time>2024-08-14T10:05:38Z</time>
      </trkpt>
      <trkpt lat="46.9036" lon="2.8942">
        <ele>170.2</ele>
        <time>2024-08-14T10:05:39Z</time>
      </trkpt>
      <trkpt lat="46.90354" lon="2.8942">
        <ele>170.2</ele>
        <time>2024-08-14T10:05:40Z</time>
      </trkpt>
      <trkpt lat="46.90299" lon="2.89413">
        <ele>170.4</ele>
        <time>2024-08-14T10:05:48Z</time>
      </trkpt>
      <trkpt lat="46.90287" lon="2.89412">
        <ele>170.2</ele>
        <time>2024-08-14T10:05:50Z</time>
      </trkpt>
      <trkpt lat="46.90231" lon="2.89406">
        <ele>170.6</ele>
        <time>2024-08-14T10:05:58Z</time>
      </trkpt>
      <trkpt lat="46.90212" lon="2.89404">
        <ele>170.6</ele>
        <time>2024-08-14T10:06:01Z</time>
      </trkpt>
      <trkpt lat="46.90156" lon="2.89398">
        <ele>170.4</ele>
        <time>2024-08-14T10:06:09Z</time>
      </trkpt>
      <trkpt lat="46.90144" lon="2.89397">
        <ele>170.4</ele>
        <time>2024-08-14T10:06:11Z</time>
      </trkpt>
      <trkpt lat="46.90086" lon="2.89391">
        <ele>170.6</ele>
        <time>2024-08-14T10:06:20Z</time>
      </trkpt>
      <trkpt lat="46.90075" lon="2.8939">
        <ele>170.6</ele>
        <time>2024-08-14T10:06:22Z</time>
      </trkpt>
      <trkpt lat="46.90026" lon="2.89385">
        <ele>170.6</ele>
        <time>2024-08-14T10:06:30Z</time>
      </trkpt>
      <trkpt lat="46.89987" lon="2.89381">
        <ele>170.8</ele>
        <time>2024-08-14T10:06:37Z</time>
      </trkpt>
      <trkpt lat="46.89976" lon="2.89381">
        <ele>171</ele>
        <time>2024-08-14T10:06:39Z</time>
      </trkpt>
      <trkpt lat="46.89954" lon="2.89377">
        <ele>171.4</ele>
        <time>2024-08-14T10:06:43Z</time>
      </trkpt>
      <trkpt lat="46.89932" lon="2.89375">
        <ele>172</ele>
        <time>2024-08-14T10:06:47Z</time>
      </trkpt>
      <trkpt lat="46.89905" lon="2.89371">
        <ele>172.6</ele>
        <time>2024-08-14T10:06:52Z</time>
      </trkpt>
      <trkpt lat="46.89864" lon="2.89365">
        <ele>173</ele>
        <time>2024-08-14T10:07:00Z</time>
      </trkpt>
      <trkpt lat="46.89859" lon="2.89364">
        <ele>173.2</ele>
        <time>2024-08-14T10:07:01Z</time>
      </trkpt>
      <trkpt lat="46.89823" lon="2.89356">
        <ele>174</ele>
        <time>2024-08-14T10:07:08Z</time>
      </trkpt>
      <trkpt lat="46.89811" lon="2.89352">
        <ele>174.4</ele>
        <time>2024-08-14T10:07:10Z</time>
      </trkpt>
      <trkpt lat="46.89794" lon="2.8935">
        <ele>174.4</ele>
        <time>2024-08-14T10:07:13Z</time>
      </trkpt>
      <trkpt lat="46.89778" lon="2.89349">
        <ele>174.8</ele>
        <time>2024-08-14T10:07:16Z</time>
      </trkpt>
      <trkpt lat="46.89773" lon="2.89348">
        <ele>175</ele>
        <time>2024-08-14T10:07:17Z</time>
      </trkpt>
      <trkpt lat="46.89726" lon="2.89339">
        <ele>175.4</ele>
        <time>2024-08-14T10:07:25Z</time>
      </trkpt>
      <trkpt lat="46.89691" lon="2.89333">
        <ele>176</ele>
        <time>2024-08-14T10:07:31Z</time>
      </trkpt>
      <trkpt lat="46.8968" lon="2.89331">
        <ele>176</ele>
        <time>2024-08-14T10:07:33Z</time>
      </trkpt>
      <trkpt lat="46.89625" lon="2.89319">
        <ele>176.2</ele>
        <time>2024-08-14T10:07:42Z</time>
      </trkpt>
      <trkpt lat="46.8959" lon="2.89302">
        <ele>176</ele>
        <time>2024-08-14T10:07:48Z</time>
      </trkpt>
      <trkpt lat="46.89552" lon="2.89278">
        <ele>176.2</ele>
        <time>2024-08-14T10:07:55Z</time>
      </trkpt>
      <trkpt lat="46.89541" lon="2.8927">
        <ele>176.2</ele>
        <time>2024-08-14T10:07:57Z</time>
      </trkpt>
      <trkpt lat="46.89502" lon="2.89248">
        <ele>176.6</ele>
        <time>2024-08-14T10:08:04Z</time>
      </trkpt>
      <trkpt lat="46.89459" lon="2.89223">
        <ele>177</ele>
        <time>2024-08-14T10:08:12Z</time>
      </trkpt>
      <trkpt lat="46.89448" lon="2.89217">
        <ele>177.2</ele>
        <time>2024-08-14T10:08:14Z</time>
      </trkpt>
      <trkpt lat="46.894" lon="2.89189">
        <ele>177.8</ele>
        <time>2024-08-14T10:08:23Z</time>
      </trkpt>
      <trkpt lat="46.89394" lon="2.89186">
        <ele>178</ele>
        <time>2024-08-14T10:08:24Z</time>
      </trkpt>
      <trkpt lat="46.89341" lon="2.89166">
        <ele>178.8</ele>
        <time>2024-08-14T10:08:33Z</time>
      </trkpt>
      <trkpt lat="46.89317" lon="2.89159">
        <ele>179</ele>
        <time>2024-08-14T10:08:37Z</time>
      </trkpt>
      <trkpt lat="46.89274" lon="2.89147">
        <ele>179.4</ele>
        <time>2024-08-14T10:08:44Z</time>
      </trkpt>
      <trkpt lat="46.89219" lon="2.89131">
        <ele>179.8</ele>
        <time>2024-08-14T10:08:53Z</time>
      </trkpt>
      <trkpt lat="46.89213" lon="2.89129">
        <ele>179.8</ele>
        <time>2024-08-14T10:08:54Z</time>
      </trkpt>
      <trkpt lat="46.89164" lon="2.89114">
        <ele>179.8</ele>
        <time>2024-08-14T10:09:02Z</time>
      </trkpt>
      <trkpt lat="46.89116" lon="2.89094">
        <ele>180</ele>
        <time>2024-08-14T10:09:10Z</time>
      </trkpt>
      <trkpt lat="46.8911" lon="2.89092">
        <ele>180</ele>
        <time>2024-08-14T10:09:11Z</time>
      </trkpt>
      <trkpt lat="46.89056" lon="2.89066">
        <ele>180.4</ele>
        <time>2024-08-14T10:09:20Z</time>
      </trkpt>
      <trkpt lat="46.89051" lon="2.89063">
        <ele>180.4</ele>
        <time>2024-08-14T10:09:21Z</time>
      </trkpt>
      <trkpt lat="46.89006" lon="2.89029">
        <ele>181.2</ele>
        <time>2024-08-14T10:09:29Z</time>
      </trkpt>
      <trkpt lat="46.89001" lon="2.89024">
        <ele>181.2</ele>
        <time>2024-08-14T10:09:30Z</time>
      </trkpt>
      <trkpt lat="46.8897" lon="2.88989">
        <ele>181.4</ele>
        <time>2024-08-14T10:09:36Z</time>
      </trkpt>
      <trkpt lat="46.88924" lon="2.88934">
        <ele>181.2</ele>
        <time>2024-08-14T10:09:45Z</time>
      </trkpt>
      <trkpt lat="46.88893" lon="2.88908">
        <ele>181.6</ele>
        <time>2024-08-14T10:09:51Z</time>
      </trkpt>
      <trkpt lat="46.88887" lon="2.88905">
        <ele>181.8</ele>
        <time>2024-08-14T10:09:52Z</time>
      </trkpt>
      <trkpt lat="46.88882" lon="2.88902">
        <ele>182</ele>
        <time>2024-08-14T10:09:53Z</time>
      </trkpt>
      <trkpt lat="46.88866" lon="2.88894">
        <ele>182.2</ele>
        <time>2024-08-14T10:09:56Z</time>
      </trkpt>
      <trkpt lat="46.8885" lon="2.88885">
        <ele>183</ele>
        <time>2024-08-14T10:09:59Z</time>
      </trkpt>
      <trkpt lat="46.88839" lon="2.8888">
        <ele>183.4</ele>
        <time>2024-08-14T10:10:01Z</time>
      </trkpt>
      <trkpt lat="46.88815" lon="2.88866">
        <ele>184.4</ele>
        <time>2024-08-14T10:10:06Z</time>
      </trkpt>
      <trkpt lat="46.88768" lon="2.88839">
        <ele>185.4</ele>
        <time>2024-08-14T10:10:16Z</time>
      </trkpt>
      <trkpt lat="46.88763" lon="2.88836">
        <ele>185.6</ele>
        <time>2024-08-14T10:10:17Z</time>
      </trkpt>
      <trkpt lat="46.88715" lon="2.88807">
        <ele>186.8</ele>
        <time>2024-08-14T10:10:27Z</time>
      </trkpt>
      <trkpt lat="46.88681" lon="2.88786">
        <ele>188</ele>
        <time>2024-08-14T10:10:34Z</time>
      </trkpt>
      <trkpt lat="46.88676" lon="2.88783">
        <ele>188</ele>
        <time>2024-08-14T10:10:35Z</time>
      </trkpt>
      <trkpt lat="46.88633" lon="2.88751">
        <ele>188.8</ele>
        <time>2024-08-14T10:10:44Z</time>
      </trkpt>
      <trkpt lat="46.88629" lon="2.88746">
        <ele>189</ele>
        <time>2024-08-14T10:10:45Z</time>
      </trkpt>
      <trkpt lat="46.88593" lon="2.88712">
        <ele>190</ele>
        <time>2024-08-14T10:10:53Z</time>
      </trkpt>
      <trkpt lat="46.88585" lon="2.88704">
        <ele>190.4</ele>
        <time>2024-08-14T10:10:55Z</time>
      </trkpt>
      <trkpt lat="46.88573" lon="2.88691">
        <ele>191.2</ele>
        <time>2024-08-14T10:10:58Z</time>
      </trkpt>
      <trkpt lat="46.88569" lon="2.88686">
        <ele>191.4</ele>
        <time>2024-08-14T10:10:59Z</time>
      </trkpt>
      <trkpt lat="46.88539" lon="2.88656">
        <ele>192.6</ele>
        <time>2024-08-14T10:11:06Z</time>
      </trkpt>
      <trkpt lat="46.88535" lon="2.88652">
        <ele>192.8</ele>
        <time>2024-08-14T10:11:07Z</time>
      </trkpt>
      <trkpt lat="46.88509" lon="2.88623">
        <ele>193.6</ele>
        <time>2024-08-14T10:11:13Z</time>
      </trkpt>
      <trkpt lat="46.88505" lon="2.88617">
        <ele>193.8</ele>
        <time>2024-08-14T10:11:14Z</time>
      </trkpt>
      <trkpt lat="46.88472" lon="2.88582">
        <ele>194.2</ele>
        <time>2024-08-14T10:11:21Z</time>
      </trkpt>
      <trkpt lat="46.88431" lon="2.88536">
        <ele>194.4</ele>
        <time>2024-08-14T10:11:30Z</time>
      </trkpt>
      <trkpt lat="46.88426" lon="2.88531">
        <ele>194.8</ele>
        <time>2024-08-14T10:11:31Z</time>
      </trkpt>
      <trkpt lat="46.88387" lon="2.88487">
        <ele>194.8</ele>
        <time>2024-08-14T10:11:40Z</time>
      </trkpt>
      <trkpt lat="46.88348" lon="2.88445">
        <ele>195.2</ele>
        <time>2024-08-14T10:11:49Z</time>
      </trkpt>
      <trkpt lat="46.88331" lon="2.88426">
        <ele>195.6</ele>
        <time>2024-08-14T10:11:53Z</time>
      </trkpt>
      <trkpt lat="46.88309" lon="2.88402">
        <ele>196</ele>
        <time>2024-08-14T10:11:58Z</time>
      </trkpt>
      <trkpt lat="46.88265" lon="2.88352">
        <ele>196.6</ele>
        <time>2024-08-14T10:12:08Z</time>
      </trkpt>
      <trkpt lat="46.88241" lon="2.88322">
        <ele>197.2</ele>
        <time>2024-08-14T10:12:14Z</time>
      </trkpt>
      <trkpt lat="46.88228" lon="2.88308">
        <ele>197.4</ele>
        <time>2024-08-14T10:12:17Z</time>
      </trkpt>
      <trkpt lat="46.88212" lon="2.88288">
        <ele>197.6</ele>
        <time>2024-08-14T10:12:21Z</time>
      </trkpt>
      <trkpt lat="46.88204" lon="2.88277">
        <ele>197.8</ele>
        <time>2024-08-14T10:12:23Z</time>
      </trkpt>
      <trkpt lat="46.88175" lon="2.88242">
        <ele>199</ele>
        <time>2024-08-14T10:12:30Z</time>
      </trkpt>
      <trkpt lat="46.8817" lon="2.88237">
        <ele>199.2</ele>
        <time>2024-08-14T10:12:31Z</time>
      </trkpt>
      <trkpt lat="46.88153" lon="2.88217">
        <ele>199.4</ele>
        <time>2024-08-14T10:12:35Z</time>
      </trkpt>
      <trkpt lat="46.88127" lon="2.88185">
        <ele>199.6</ele>
        <time>2024-08-14T10:12:41Z</time>
      </trkpt>
      <trkpt lat="46.88094" lon="2.88146">
        <ele>199.6</ele>
        <time>2024-08-14T10:12:48Z</time>
      </trkpt>
      <trkpt lat="46.8806" lon="2.88103">
        <ele>199.2</ele>
        <time>2024-08-14T10:12:55Z</time>
      </trkpt>
      <trkpt lat="46.88056" lon="2.88096">
        <ele>199.2</ele>
        <time>2024-08-14T10:12:56Z</time>
      </trkpt>
      <trkpt lat="46.88051" lon="2.8807">
        <ele>198.8</ele>
        <time>2024-08-14T10:12:59Z</time>
      </trkpt>
      <trkpt lat="46.88055" lon="2.88026">
        <ele>198.4</ele>
        <time>2024-08-14T10:13:04Z</time>
      </trkpt>
      <trkpt lat="46.88062" lon="2.87945">
        <ele>198</ele>
        <time>2024-08-14T10:13:13Z</time>
      </trkpt>
      <trkpt lat="46.88057" lon="2.87929">
        <ele>198</ele>
        <time>2024-08-14T10:13:15Z</time>
      </trkpt>
      <trkpt lat="46.88053" lon="2.87923">
        <ele>197.8</ele>
        <time>2024-08-14T10:13:16Z</time>
      </trkpt>
      <trkpt lat="46.88048" lon="2.87918">
        <ele>197.8</ele>
        <time>2024-08-14T10:13:17Z</time>
      </trkpt>
      <trkpt lat="46.88031" lon="2.87906">
        <ele>197.6</ele>
        <time>2024-08-14T10:13:20Z</time>
      </trkpt>
      <trkpt lat="46.87984" lon="2.87879">
        <ele>197.4</ele>
        <time>2024-08-14T10:13:28Z</time>
      </trkpt>
      <trkpt lat="46.87959" lon="2.87866">
        <ele>196.8</ele>
        <time>2024-08-14T10:13:32Z</time>
      </trkpt>
      <trkpt lat="46.87933" lon="2.87852">
        <ele>195.8</ele>
        <time>2024-08-14T10:13:36Z</time>
      </trkpt>
      <trkpt lat="46.8792" lon="2.87845">
        <ele>195.2</ele>
        <time>2024-08-14T10:13:38Z</time>
      </trkpt>
      <trkpt lat="46.87913" lon="2.87842">
        <ele>194.6</ele>
        <time>2024-08-14T10:13:39Z</time>
      </trkpt>
      <trkpt lat="46.87888" lon="2.87828">
        <ele>193.6</ele>
        <time>2024-08-14T10:13:43Z</time>
      </trkpt>
      <trkpt lat="46.87866" lon="2.87816">
        <ele>192.6</ele>
        <time>2024-08-14T10:13:46Z</time>
      </trkpt>
      <trkpt lat="46.8785" lon="2.87809">
        <ele>192.4</ele>
        <time>2024-08-14T10:13:48Z</time>
      </trkpt>
      <trkpt lat="46.87835" lon="2.87803">
        <ele>191.2</ele>
        <time>2024-08-14T10:13:51Z</time>
      </trkpt>
      <trkpt lat="46.87818" lon="2.87799">
        <ele>190.8</ele>
        <time>2024-08-14T10:13:52Z</time>
      </trkpt>
      <trkpt lat="46.87801" lon="2.87798">
        <ele>190</ele>
        <time>2024-08-14T10:13:54Z</time>
      </trkpt>
      <trkpt lat="46.87784" lon="2.87799">
        <ele>189.4</ele>
        <time>2024-08-14T10:13:56Z</time>
      </trkpt>
      <trkpt lat="46.87776" lon="2.87801">
        <ele>189.2</ele>
        <time>2024-08-14T10:13:57Z</time>
      </trkpt>
      <trkpt lat="46.87768" lon="2.87802">
        <ele>188.8</ele>
        <time>2024-08-14T10:13:58Z</time>
      </trkpt>
      <trkpt lat="46.8776" lon="2.87805">
        <ele>188.4</ele>
        <time>2024-08-14T10:13:59Z</time>
      </trkpt>
      <trkpt lat="46.87753" lon="2.87809">
        <ele>187.8</ele>
        <time>2024-08-14T10:14:00Z</time>
      </trkpt>
      <trkpt lat="46.87738" lon="2.87818">
        <ele>187</ele>
        <time>2024-08-14T10:14:02Z</time>
      </trkpt>
      <trkpt lat="46.87725" lon="2.87828">
        <ele>186.6</ele>
        <time>2024-08-14T10:14:04Z</time>
      </trkpt>
      <trkpt lat="46.87713" lon="2.87841">
        <ele>186.4</ele>
        <time>2024-08-14T10:14:06Z</time>
      </trkpt>
      <trkpt lat="46.87691" lon="2.8787">
        <ele>186</ele>
        <time>2024-08-14T10:14:10Z</time>
      </trkpt>
      <trkpt lat="46.87676" lon="2.87893">
        <ele>185.8</ele>
        <time>2024-08-14T10:14:13Z</time>
      </trkpt>
      <trkpt lat="46.87636" lon="2.87952">
        <ele>186</ele>
        <time>2024-08-14T10:14:21Z</time>
      </trkpt>
      <trkpt lat="46.87631" lon="2.87959">
        <ele>186</ele>
        <time>2024-08-14T10:14:22Z</time>
      </trkpt>
      <trkpt lat="46.87608" lon="2.87995">
        <ele>186</ele>
        <time>2024-08-14T10:14:27Z</time>
      </trkpt>
      <trkpt lat="46.876" lon="2.88011">
        <ele>186</ele>
        <time>2024-08-14T10:14:29Z</time>
      </trkpt>
      <trkpt lat="46.87592" lon="2.88028">
        <ele>185.8</ele>
        <time>2024-08-14T10:14:31Z</time>
      </trkpt>
      <trkpt lat="46.87583" lon="2.88056">
        <ele>185.8</ele>
        <time>2024-08-14T10:14:34Z</time>
      </trkpt>
      <trkpt lat="46.87564" lon="2.88122">
        <ele>186.6</ele>
        <time>2024-08-14T10:14:41Z</time>
      </trkpt>
      <trkpt lat="46.87553" lon="2.88161">
        <ele>186.8</ele>
        <time>2024-08-14T10:14:45Z</time>
      </trkpt>
      <trkpt lat="46.87545" lon="2.88178">
        <ele>186.6</ele>
        <time>2024-08-14T10:14:47Z</time>
      </trkpt>
      <trkpt lat="46.87533" lon="2.8819">
        <ele>186.6</ele>
        <time>2024-08-14T10:14:49Z</time>
      </trkpt>
      <trkpt lat="46.87526" lon="2.88193">
        <ele>186.6</ele>
        <time>2024-08-14T10:14:50Z</time>
      </trkpt>
      <trkpt lat="46.87472" lon="2.88213">
        <ele>186.4</ele>
        <time>2024-08-14T10:14:58Z</time>
      </trkpt>
      <trkpt lat="46.87431" lon="2.88228">
        <ele>187</ele>
        <time>2024-08-14T10:15:05Z</time>
      </trkpt>
      <trkpt lat="46.87404" lon="2.8824">
        <ele>187.8</ele>
        <time>2024-08-14T10:15:10Z</time>
      </trkpt>
      <trkpt lat="46.87372" lon="2.88251">
        <ele>188.4</ele>
        <time>2024-08-14T10:15:16Z</time>
      </trkpt>
      <trkpt lat="46.87362" lon="2.88254">
        <ele>188.8</ele>
        <time>2024-08-14T10:15:18Z</time>
      </trkpt>
      <trkpt lat="46.87331" lon="2.88264">
        <ele>190.2</ele>
        <time>2024-08-14T10:15:24Z</time>
      </trkpt>
      <trkpt lat="46.87316" lon="2.8827">
        <ele>190.8</ele>
        <time>2024-08-14T10:15:27Z</time>
      </trkpt>
      <trkpt lat="46.873" lon="2.88276">
        <ele>191.6</ele>
        <time>2024-08-14T10:15:30Z</time>
      </trkpt>
      <trkpt lat="46.87283" lon="2.88281">
        <ele>191.8</ele>
        <time>2024-08-14T10:15:33Z</time>
      </trkpt>
      <trkpt lat="46.87278" lon="2.88283">
        <ele>192</ele>
        <time>2024-08-14T10:15:34Z</time>
      </trkpt>
      <trkpt lat="46.87255" lon="2.8829">
        <ele>192.6</ele>
        <time>2024-08-14T10:15:38Z</time>
      </trkpt>
      <trkpt lat="46.87228" lon="2.88298">
        <ele>193.4</ele>
        <time>2024-08-14T10:15:43Z</time>
      </trkpt>
      <trkpt lat="46.87212" lon="2.88303">
        <ele>193.6</ele>
        <time>2024-08-14T10:15:46Z</time>
      </trkpt>
      <trkpt lat="46.87173" lon="2.88315">
        <ele>194</ele>
        <time>2024-08-14T10:15:53Z</time>
      </trkpt>
      <trkpt lat="46.87144" lon="2.88325">
        <ele>194.6</ele>
        <time>2024-08-14T10:15:58Z</time>
      </trkpt>
      <trkpt lat="46.8711" lon="2.88336">
        <ele>195.2</ele>
        <time>2024-08-14T10:16:04Z</time>
      </trkpt>
      <trkpt lat="46.87094" lon="2.88344">
        <ele>195.6</ele>
        <time>2024-08-14T10:16:07Z</time>
      </trkpt>
      <trkpt lat="46.87073" lon="2.8836">
        <ele>196</ele>
        <time>2024-08-14T10:16:11Z</time>
      </trkpt>
      <trkpt lat="46.87023" lon="2.88405">
        <ele>196</ele>
        <time>2024-08-14T10:16:20Z</time>
      </trkpt>
      <trkpt lat="46.87017" lon="2.88411">
        <ele>195.8</ele>
        <time>2024-08-14T10:16:21Z</time>
      </trkpt>
      <trkpt lat="46.86968" lon="2.88454">
        <ele>195</ele>
        <time>2024-08-14T10:16:29Z</time>
      </trkpt>
      <trkpt lat="46.8693" lon="2.88489">
        <ele>194.2</ele>
        <time>2024-08-14T10:16:35Z</time>
      </trkpt>
      <trkpt lat="46.8691" lon="2.88507">
        <ele>194</ele>
        <time>2024-08-14T10:16:38Z</time>
      </trkpt>
      <trkpt lat="46.8686" lon="2.88551">
        <ele>193.2</ele>
        <time>2024-08-14T10:16:45Z</time>
      </trkpt>
      <trkpt lat="46.86853" lon="2.88557">
        <ele>193.2</ele>
        <time>2024-08-14T10:16:46Z</time>
      </trkpt>
      <trkpt lat="46.86815" lon="2.88592">
        <ele>192.2</ele>
        <time>2024-08-14T10:16:51Z</time>
      </trkpt>
      <trkpt lat="46.86801" lon="2.88606">
        <ele>191.6</ele>
        <time>2024-08-14T10:16:53Z</time>
      </trkpt>
      <trkpt lat="46.8678" lon="2.88631">
        <ele>190.8</ele>
        <time>2024-08-14T10:16:56Z</time>
      </trkpt>
      <trkpt lat="46.86749" lon="2.88673">
        <ele>190.2</ele>
        <time>2024-08-14T10:17:01Z</time>
      </trkpt>
      <trkpt lat="46.86725" lon="2.88706">
        <ele>189.8</ele>
        <time>2024-08-14T10:17:05Z</time>
      </trkpt>
      <trkpt lat="46.86693" lon="2.8875">
        <ele>189.4</ele>
        <time>2024-08-14T10:17:10Z</time>
      </trkpt>
      <trkpt lat="46.86659" lon="2.88798">
        <ele>188.4</ele>
        <time>2024-08-14T10:17:15Z</time>
      </trkpt>
      <trkpt lat="46.86645" lon="2.88817">
        <ele>188</ele>
        <time>2024-08-14T10:17:17Z</time>
      </trkpt>
      <trkpt lat="46.86619" lon="2.88852">
        <ele>187.4</ele>
        <time>2024-08-14T10:17:21Z</time>
      </trkpt>
      <trkpt lat="46.86601" lon="2.88877">
        <ele>187.6</ele>
        <time>2024-08-14T10:17:24Z</time>
      </trkpt>
      <trkpt lat="46.86576" lon="2.88912">
        <ele>188.8</ele>
        <time>2024-08-14T10:17:29Z</time>
      </trkpt>
      <trkpt lat="46.86547" lon="2.88959">
        <ele>189.8</ele>
        <time>2024-08-14T10:17:36Z</time>
      </trkpt>
      <trkpt lat="46.8654" lon="2.88976">
        <ele>190</ele>
        <time>2024-08-14T10:17:38Z</time>
      </trkpt>
      <trkpt lat="46.8653" lon="2.89006">
        <ele>190</ele>
        <time>2024-08-14T10:17:41Z</time>
      </trkpt>
      <trkpt lat="46.86515" lon="2.89066">
        <ele>189.2</ele>
        <time>2024-08-14T10:17:46Z</time>
      </trkpt>
      <trkpt lat="46.86512" lon="2.89079">
        <ele>188.6</ele>
        <time>2024-08-14T10:17:47Z</time>
      </trkpt>
      <trkpt lat="46.86502" lon="2.8912">
        <ele>187.6</ele>
        <time>2024-08-14T10:17:50Z</time>
      </trkpt>
      <trkpt lat="46.86494" lon="2.89148">
        <ele>186.2</ele>
        <time>2024-08-14T10:17:52Z</time>
      </trkpt>
      <trkpt lat="46.86491" lon="2.89162">
        <ele>186</ele>
        <time>2024-08-14T10:17:53Z</time>
      </trkpt>
      <trkpt lat="46.86483" lon="2.89191">
        <ele>185.2</ele>
        <time>2024-08-14T10:17:55Z</time>
      </trkpt>
      <trkpt lat="46.86466" lon="2.89246">
        <ele>184</ele>
        <time>2024-08-14T10:17:59Z</time>
      </trkpt>
      <trkpt lat="46.86461" lon="2.89258">
        <ele>183.8</ele>
        <time>2024-08-14T10:18:00Z</time>
      </trkpt>
      <trkpt lat="46.86444" lon="2.89296">
        <ele>182.8</ele>
        <time>2024-08-14T10:18:03Z</time>
      </trkpt>
      <trkpt lat="46.86428" lon="2.89333">
        <ele>182.4</ele>
        <time>2024-08-14T10:18:06Z</time>
      </trkpt>
      <trkpt lat="46.86408" lon="2.89379">
        <ele>181.8</ele>
        <time>2024-08-14T10:18:10Z</time>
      </trkpt>
      <trkpt lat="46.86393" lon="2.89411">
        <ele>181.8</ele>
        <time>2024-08-14T10:18:13Z</time>
      </trkpt>
      <trkpt lat="46.86363" lon="2.89478">
        <ele>182.6</ele>
        <time>2024-08-14T10:18:20Z</time>
      </trkpt>
      <trkpt lat="46.86359" lon="2.89488">
        <ele>182.6</ele>
        <time>2024-08-14T10:18:21Z</time>
      </trkpt>
      <trkpt lat="46.86329" lon="2.89554">
        <ele>182.8</ele>
        <time>2024-08-14T10:18:28Z</time>
      </trkpt>
      <trkpt lat="46.86321" lon="2.89574">
        <ele>182.6</ele>
        <time>2024-08-14T10:18:30Z</time>
      </trkpt>
      <trkpt lat="46.86289" lon="2.8965">
        <ele>182.2</ele>
        <time>2024-08-14T10:18:38Z</time>
      </trkpt>
      <trkpt lat="46.8626" lon="2.89724">
        <ele>182.4</ele>
        <time>2024-08-14T10:18:46Z</time>
      </trkpt>
      <trkpt lat="46.86257" lon="2.89733">
        <ele>182.4</ele>
        <time>2024-08-14T10:18:47Z</time>
      </trkpt>
      <trkpt lat="46.86238" lon="2.89793">
        <ele>182.8</ele>
        <time>2024-08-14T10:18:54Z</time>
      </trkpt>
      <trkpt lat="46.86235" lon="2.89803">
        <ele>182.8</ele>
        <time>2024-08-14T10:18:55Z</time>
      </trkpt>
      <trkpt lat="46.86223" lon="2.89848">
        <ele>183.6</ele>
        <time>2024-08-14T10:19:00Z</time>
      </trkpt>
      <trkpt lat="46.86213" lon="2.89894">
        <ele>184</ele>
        <time>2024-08-14T10:19:05Z</time>
      </trkpt>
      <trkpt lat="46.86205" lon="2.89934">
        <ele>183.8</ele>
        <time>2024-08-14T10:19:09Z</time>
      </trkpt>
      <trkpt lat="46.86187" lon="2.90015">
        <ele>183.2</ele>
        <time>2024-08-14T10:19:17Z</time>
      </trkpt>
      <trkpt lat="46.86184" lon="2.90025">
        <ele>183</ele>
        <time>2024-08-14T10:19:18Z</time>
      </trkpt>
      <trkpt lat="46.86174" lon="2.90053">
        <ele>182.6</ele>
        <time>2024-08-14T10:19:21Z</time>
      </trkpt>
      <trkpt lat="46.86156" lon="2.901">
        <ele>182.4</ele>
        <time>2024-08-14T10:19:26Z</time>
      </trkpt>
      <trkpt lat="46.86129" lon="2.9015">
        <ele>182</ele>
        <time>2024-08-14T10:19:32Z</time>
      </trkpt>
      <trkpt lat="46.86107" lon="2.9018">
        <ele>181.6</ele>
        <time>2024-08-14T10:19:36Z</time>
      </trkpt>
      <trkpt lat="46.86094" lon="2.90195">
        <ele>181.6</ele>
        <time>2024-08-14T10:19:38Z</time>
      </trkpt>
      <trkpt lat="46.86046" lon="2.90241">
        <ele>182</ele>
        <time>2024-08-14T10:19:46Z</time>
      </trkpt>
      <trkpt lat="46.85999" lon="2.90284">
        <ele>182.4</ele>
        <time>2024-08-14T10:19:54Z</time>
      </trkpt>
      <trkpt lat="46.85992" lon="2.90291">
        <ele>182.4</ele>
        <time>2024-08-14T10:19:55Z</time>
      </trkpt>
      <trkpt lat="46.85981" lon="2.90302">
        <ele>182.6</ele>
        <time>2024-08-14T10:19:57Z</time>
      </trkpt>
      <trkpt lat="46.85963" lon="2.90318">
        <ele>183</ele>
        <time>2024-08-14T10:20:00Z</time>
      </trkpt>
      <trkpt lat="46.85945" lon="2.90335">
        <ele>183.2</ele>
        <time>2024-08-14T10:20:03Z</time>
      </trkpt>
      <trkpt lat="46.85895" lon="2.90384">
        <ele>183.8</ele>
        <time>2024-08-14T10:20:12Z</time>
      </trkpt>
      <trkpt lat="46.85847" lon="2.90429">
        <ele>184.8</ele>
        <time>2024-08-14T10:20:21Z</time>
      </trkpt>
      <trkpt lat="46.85837" lon="2.90439">
        <ele>185</ele>
        <time>2024-08-14T10:20:23Z</time>
      </trkpt>
      <trkpt lat="46.85807" lon="2.90468">
        <ele>185.6</ele>
        <time>2024-08-14T10:20:29Z</time>
      </trkpt>
      <trkpt lat="46.85797" lon="2.90479">
        <ele>185.8</ele>
        <time>2024-08-14T10:20:31Z</time>
      </trkpt>
      <trkpt lat="46.85761" lon="2.90513">
        <ele>186.6</ele>
        <time>2024-08-14T10:20:38Z</time>
      </trkpt>
      <trkpt lat="46.85737" lon="2.90539">
        <ele>186.8</ele>
        <time>2024-08-14T10:20:43Z</time>
      </trkpt>
      <trkpt lat="46.85717" lon="2.90558">
        <ele>187.4</ele>
        <time>2024-08-14T10:20:47Z</time>
      </trkpt>
      <trkpt lat="46.85694" lon="2.90584">
        <ele>187.8</ele>
        <time>2024-08-14T10:20:52Z</time>
      </trkpt>
      <trkpt lat="46.85685" lon="2.90594">
        <ele>188.2</ele>
        <time>2024-08-14T10:20:54Z</time>
      </trkpt>
      <trkpt lat="46.85636" lon="2.9064">
        <ele>188.8</ele>
        <time>2024-08-14T10:21:03Z</time>
      </trkpt>
      <trkpt lat="46.85627" lon="2.90649">
        <ele>188.8</ele>
        <time>2024-08-14T10:21:05Z</time>
      </trkpt>
      <trkpt lat="46.85606" lon="2.90668">
        <ele>189</ele>
        <time>2024-08-14T10:21:09Z</time>
      </trkpt>
      <trkpt lat="46.85572" lon="2.90702">
        <ele>189.4</ele>
        <time>2024-08-14T10:21:16Z</time>
      </trkpt>
      <trkpt lat="46.85553" lon="2.90719">
        <ele>190</ele>
        <time>2024-08-14T10:21:20Z</time>
      </trkpt>
      <trkpt lat="46.85539" lon="2.90732">
        <ele>190.4</ele>
        <time>2024-08-14T10:21:23Z</time>
      </trkpt>
      <trkpt lat="46.85522" lon="2.90749">
        <ele>190.8</ele>
        <time>2024-08-14T10:21:27Z</time>
      </trkpt>
      <trkpt lat="46.8551" lon="2.90759">
        <ele>191</ele>
        <time>2024-08-14T10:21:30Z</time>
      </trkpt>
      <trkpt lat="46.85494" lon="2.90773">
        <ele>191.6</ele>
        <time>2024-08-14T10:21:34Z</time>
      </trkpt>
      <trkpt lat="46.85489" lon="2.90776">
        <ele>191.8</ele>
        <time>2024-08-14T10:21:35Z</time>
      </trkpt>
      <trkpt lat="46.85463" lon="2.90801">
        <ele>192.8</ele>
        <time>2024-08-14T10:21:41Z</time>
      </trkpt>
      <trkpt lat="46.85458" lon="2.90804">
        <ele>192.8</ele>
        <time>2024-08-14T10:21:42Z</time>
      </trkpt>
      <trkpt lat="46.85454" lon="2.90809">
        <ele>192.8</ele>
        <time>2024-08-14T10:21:43Z</time>
      </trkpt>
      <trkpt lat="46.85443" lon="2.90816">
        <ele>193</ele>
        <time>2024-08-14T10:21:46Z</time>
      </trkpt>
      <trkpt lat="46.85425" lon="2.90831">
        <ele>194</ele>
        <time>2024-08-14T10:21:50Z</time>
      </trkpt>
      <trkpt lat="46.85421" lon="2.90835">
        <ele>194</ele>
        <time>2024-08-14T10:21:51Z</time>
      </trkpt>
      <trkpt lat="46.85399" lon="2.90856">
        <ele>194.8</ele>
        <time>2024-08-14T10:21:56Z</time>
      </trkpt>
      <trkpt lat="46.85389" lon="2.90865">
        <ele>195</ele>
        <time>2024-08-14T10:21:58Z</time>
      </trkpt>
      <trkpt lat="46.85373" lon="2.90879">
        <ele>195.8</ele>
        <time>2024-08-14T10:22:02Z</time>
      </trkpt>
      <trkpt lat="46.8537" lon="2.90883">
        <ele>196.2</ele>
        <time>2024-08-14T10:22:03Z</time>
      </trkpt>
      <trkpt lat="46.85351" lon="2.909">
        <ele>197.2</ele>
        <time>2024-08-14T10:22:08Z</time>
      </trkpt>
      <trkpt lat="46.85347" lon="2.90903">
        <ele>197.4</ele>
        <time>2024-08-14T10:22:09Z</time>
      </trkpt>
      <trkpt lat="46.85338" lon="2.90911">
        <ele>197.6</ele>
        <time>2024-08-14T10:22:11Z</time>
      </trkpt>
      <trkpt lat="46.85326" lon="2.90923">
        <ele>198.2</ele>
        <time>2024-08-14T10:22:14Z</time>
      </trkpt>
      <trkpt lat="46.85321" lon="2.90928">
        <ele>198.4</ele>
        <time>2024-08-14T10:22:15Z</time>
      </trkpt>
      <trkpt lat="46.85287" lon="2.90959">
        <ele>199</ele>
        <time>2024-08-14T10:22:22Z</time>
      </trkpt>
      <trkpt lat="46.85244" lon="2.90998">
        <ele>199</ele>
        <time>2024-08-14T10:22:30Z</time>
      </trkpt>
      <trkpt lat="46.85203" lon="2.91033">
        <ele>198.6</ele>
        <time>2024-08-14T10:22:37Z</time>
      </trkpt>
      <trkpt lat="46.85196" lon="2.91037">
        <ele>198.6</ele>
        <time>2024-08-14T10:22:38Z</time>
      </trkpt>
      <trkpt lat="46.85153" lon="2.91054">
        <ele>198</ele>
        <time>2024-08-14T10:22:44Z</time>
      </trkpt>
      <trkpt lat="46.85115" lon="2.91056">
        <ele>197.4</ele>
        <time>2024-08-14T10:22:49Z</time>
      </trkpt>
      <trkpt lat="46.85106" lon="2.91056">
        <ele>197</ele>
        <time>2024-08-14T10:22:50Z</time>
      </trkpt>
      <trkpt lat="46.85049" lon="2.91049">
        <ele>196.2</ele>
        <time>2024-08-14T10:22:58Z</time>
      </trkpt>
      <trkpt lat="46.85021" lon="2.91046">
        <ele>196</ele>
        <time>2024-08-14T10:23:02Z</time>
      </trkpt>
      <trkpt lat="46.85008" lon="2.91045">
        <ele>195.8</ele>
        <time>2024-08-14T10:23:04Z</time>
      </trkpt>
      <trkpt lat="46.84976" lon="2.91049">
        <ele>195.6</ele>
        <time>2024-08-14T10:23:09Z</time>
      </trkpt>
      <trkpt lat="46.84969" lon="2.91052">
        <ele>195.6</ele>
        <time>2024-08-14T10:23:10Z</time>
      </trkpt>
      <trkpt lat="46.84928" lon="2.91069">
        <ele>195.2</ele>
        <time>2024-08-14T10:23:16Z</time>
      </trkpt>
      <trkpt lat="46.84915" lon="2.91074">
        <ele>195</ele>
        <time>2024-08-14T10:23:18Z</time>
      </trkpt>
      <trkpt lat="46.84885" lon="2.91087">
        <ele>194.4</ele>
        <time>2024-08-14T10:23:22Z</time>
      </trkpt>
      <trkpt lat="46.84831" lon="2.91109">
        <ele>194.2</ele>
        <time>2024-08-14T10:23:30Z</time>
      </trkpt>
      <trkpt lat="46.8481" lon="2.91118">
        <ele>194</ele>
        <time>2024-08-14T10:23:33Z</time>
      </trkpt>
      <trkpt lat="46.84789" lon="2.91126">
        <ele>194</ele>
        <time>2024-08-14T10:23:36Z</time>
      </trkpt>
      <trkpt lat="46.8476" lon="2.91138">
        <ele>193.8</ele>
        <time>2024-08-14T10:23:40Z</time>
      </trkpt>
      <trkpt lat="46.84705" lon="2.91161">
        <ele>193.6</ele>
        <time>2024-08-14T10:23:48Z</time>
      </trkpt>
      <trkpt lat="46.84646" lon="2.91176">
        <ele>194.4</ele>
        <time>2024-08-14T10:23:57Z</time>
      </trkpt>
      <trkpt lat="46.84592" lon="2.91188">
        <ele>194.4</ele>
        <time>2024-08-14T10:24:05Z</time>
      </trkpt>
      <trkpt lat="46.84585" lon="2.9119">
        <ele>194.4</ele>
        <time>2024-08-14T10:24:06Z</time>
      </trkpt>
      <trkpt lat="46.84531" lon="2.91201">
        <ele>194.8</ele>
        <time>2024-08-14T10:24:14Z</time>
      </trkpt>
      <trkpt lat="46.84518" lon="2.91203">
        <ele>194.8</ele>
        <time>2024-08-14T10:24:16Z</time>
      </trkpt>
      <trkpt lat="46.84464" lon="2.91215">
        <ele>194.8</ele>
        <time>2024-08-14T10:24:24Z</time>
      </trkpt>
      <trkpt lat="46.8445" lon="2.91218">
        <ele>195</ele>
        <time>2024-08-14T10:24:26Z</time>
      </trkpt>
      <trkpt lat="46.84431" lon="2.91223">
        <ele>195</ele>
        <time>2024-08-14T10:24:29Z</time>
      </trkpt>
      <trkpt lat="46.84412" lon="2.91227">
        <ele>195.2</ele>
        <time>2024-08-14T10:24:32Z</time>
      </trkpt>
      <trkpt lat="46.84359" lon="2.91239">
        <ele>195.4</ele>
        <time>2024-08-14T10:24:40Z</time>
      </trkpt>
      <trkpt lat="46.84309" lon="2.91248">
        <ele>195.4</ele>
        <time>2024-08-14T10:24:47Z</time>
      </trkpt>
      <trkpt lat="46.84261" lon="2.91261">
        <ele>194.4</ele>
        <time>2024-08-14T10:24:53Z</time>
      </trkpt>
      <trkpt lat="46.84245" lon="2.91268">
        <ele>193.6</ele>
        <time>2024-08-14T10:24:55Z</time>
      </trkpt>
      <trkpt lat="46.84221" lon="2.9128">
        <ele>192.6</ele>
        <time>2024-08-14T10:24:58Z</time>
      </trkpt>
      <trkpt lat="46.84213" lon="2.91285">
        <ele>192.4</ele>
        <time>2024-08-14T10:24:59Z</time>
      </trkpt>
      <trkpt lat="46.84183" lon="2.91305">
        <ele>191.6</ele>
        <time>2024-08-14T10:25:03Z</time>
      </trkpt>
      <trkpt lat="46.84175" lon="2.9131">
        <ele>191.6</ele>
        <time>2024-08-14T10:25:04Z</time>
      </trkpt>
      <trkpt lat="46.84138" lon="2.91336">
        <ele>191.2</ele>
        <time>2024-08-14T10:25:09Z</time>
      </trkpt>
      <trkpt lat="46.84079" lon="2.91375">
        <ele>190.8</ele>
        <time>2024-08-14T10:25:17Z</time>
      </trkpt>
      <trkpt lat="46.84072" lon="2.91379">
        <ele>190.6</ele>
        <time>2024-08-14T10:25:18Z</time>
      </trkpt>
      <trkpt lat="46.84064" lon="2.91384">
        <ele>190.6</ele>
        <time>2024-08-14T10:25:19Z</time>
      </trkpt>
      <trkpt lat="46.84014" lon="2.91419">
        <ele>189.6</ele>
        <time>2024-08-14T10:25:26Z</time>
      </trkpt>
      <trkpt lat="46.84006" lon="2.91424">
        <ele>189.6</ele>
        <time>2024-08-14T10:25:27Z</time>
      </trkpt>
      <trkpt lat="46.83984" lon="2.91437">
        <ele>189.4</ele>
        <time>2024-08-14T10:25:30Z</time>
      </trkpt>
      <trkpt lat="46.83931" lon="2.91458">
        <ele>189</ele>
        <time>2024-08-14T10:25:37Z</time>
      </trkpt>
      <trkpt lat="46.83878" lon="2.91458">
        <ele>188.8</ele>
        <time>2024-08-14T10:25:44Z</time>
      </trkpt>
      <trkpt lat="46.8387" lon="2.91457">
        <ele>188.8</ele>
        <time>2024-08-14T10:25:45Z</time>
      </trkpt>
      <trkpt lat="46.83833" lon="2.91458">
        <ele>188.4</ele>
        <time>2024-08-14T10:25:50Z</time>
      </trkpt>
      <trkpt lat="46.838" lon="2.91471">
        <ele>188.4</ele>
        <time>2024-08-14T10:25:55Z</time>
      </trkpt>
      <trkpt lat="46.8377" lon="2.91498">
        <ele>187.6</ele>
        <time>2024-08-14T10:26:00Z</time>
      </trkpt>
      <trkpt lat="46.83766" lon="2.91502">
        <ele>187.4</ele>
        <time>2024-08-14T10:26:01Z</time>
      </trkpt>
      <trkpt lat="46.83763" lon="2.91504">
        <ele>187</ele>
        <time>2024-08-14T10:26:02Z</time>
      </trkpt>
      <trkpt lat="46.83761" lon="2.91504">
        <ele>186.8</ele>
        <time>2024-08-14T10:26:03Z</time>
      </trkpt>
      <trkpt lat="46.8376" lon="2.91504">
        <ele>186.2</ele>
        <time>2024-08-14T10:26:04Z</time>
      </trkpt>
      <trkpt lat="46.83756" lon="2.91501">
        <ele>185.4</ele>
        <time>2024-08-14T10:26:06Z</time>
      </trkpt>
      <trkpt lat="46.83752" lon="2.91499">
        <ele>184.8</ele>
        <time>2024-08-14T10:26:07Z</time>
      </trkpt>
      <trkpt lat="46.83749" lon="2.91495">
        <ele>184.6</ele>
        <time>2024-08-14T10:26:08Z</time>
      </trkpt>
      <trkpt lat="46.83745" lon="2.91489">
        <ele>184</ele>
        <time>2024-08-14T10:26:09Z</time>
      </trkpt>
      <trkpt lat="46.83736" lon="2.91477">
        <ele>183.6</ele>
        <time>2024-08-14T10:26:11Z</time>
      </trkpt>
      <trkpt lat="46.83721" lon="2.91455">
        <ele>183</ele>
        <time>2024-08-14T10:26:14Z</time>
      </trkpt>
      <trkpt lat="46.83693" lon="2.91405">
        <ele>182.8</ele>
        <time>2024-08-14T10:26:20Z</time>
      </trkpt>
      <trkpt lat="46.83672" lon="2.9135">
        <ele>182.6</ele>
        <time>2024-08-14T10:26:26Z</time>
      </trkpt>
      <trkpt lat="46.83671" lon="2.91332">
        <ele>182.4</ele>
        <time>2024-08-14T10:26:28Z</time>
      </trkpt>
      <trkpt lat="46.83672" lon="2.91323">
        <ele>182.4</ele>
        <time>2024-08-14T10:26:29Z</time>
      </trkpt>
      <trkpt lat="46.83673" lon="2.91314">
        <ele>182.4</ele>
        <time>2024-08-14T10:26:30Z</time>
      </trkpt>
      <trkpt lat="46.8367" lon="2.91294">
        <ele>182.4</ele>
        <time>2024-08-14T10:26:32Z</time>
      </trkpt>
      <trkpt lat="46.83661" lon="2.9128">
        <ele>182.4</ele>
        <time>2024-08-14T10:26:34Z</time>
      </trkpt>
      <trkpt lat="46.83646" lon="2.91279">
        <ele>182.4</ele>
        <time>2024-08-14T10:26:36Z</time>
      </trkpt>
      <trkpt lat="46.83635" lon="2.91294">
        <ele>182.6</ele>
        <time>2024-08-14T10:26:38Z</time>
      </trkpt>
      <trkpt lat="46.83628" lon="2.91316">
        <ele>182.6</ele>
        <time>2024-08-14T10:26:40Z</time>
      </trkpt>
      <trkpt lat="46.83623" lon="2.91325">
        <ele>182.6</ele>
        <time>2024-08-14T10:26:41Z</time>
      </trkpt>
      <trkpt lat="46.8359" lon="2.9137">
        <ele>182.2</ele>
        <time>2024-08-14T10:26:46Z</time>
      </trkpt>
      <trkpt lat="46.83577" lon="2.91385">
        <ele>181.8</ele>
        <time>2024-08-14T10:26:48Z</time>
      </trkpt>
      <trkpt lat="46.83561" lon="2.914">
        <ele>181</ele>
        <time>2024-08-14T10:26:50Z</time>
      </trkpt>
      <trkpt lat="46.83553" lon="2.91408">
        <ele>180.2</ele>
        <time>2024-08-14T10:26:51Z</time>
      </trkpt>
      <trkpt lat="46.83544" lon="2.91419">
        <ele>179.8</ele>
        <time>2024-08-14T10:26:52Z</time>
      </trkpt>
      <trkpt lat="46.83531" lon="2.91436">
        <ele>179.2</ele>
        <time>2024-08-14T10:26:54Z</time>
      </trkpt>
      <trkpt lat="46.83523" lon="2.91445">
        <ele>178.6</ele>
        <time>2024-08-14T10:26:55Z</time>
      </trkpt>
      <trkpt lat="46.83501" lon="2.91471">
        <ele>177</ele>
        <time>2024-08-14T10:26:58Z</time>
      </trkpt>
      <trkpt lat="46.83485" lon="2.91488">
        <ele>176.4</ele>
        <time>2024-08-14T10:27:00Z</time>
      </trkpt>
      <trkpt lat="46.83468" lon="2.91509">
        <ele>176</ele>
        <time>2024-08-14T10:27:03Z</time>
      </trkpt>
      <trkpt lat="46.83449" lon="2.91529">
        <ele>175.8</ele>
        <time>2024-08-14T10:27:06Z</time>
      </trkpt>
      <trkpt lat="46.8342" lon="2.91559">
        <ele>176</ele>
        <time>2024-08-14T10:27:11Z</time>
      </trkpt>
      <trkpt lat="46.83381" lon="2.91603">
        <ele>176.4</ele>
        <time>2024-08-14T10:27:18Z</time>
      </trkpt>
      <trkpt lat="46.83344" lon="2.91641">
        <ele>176.8</ele>
        <time>2024-08-14T10:27:25Z</time>
      </trkpt>
      <trkpt lat="46.83327" lon="2.91658">
        <ele>177</ele>
        <time>2024-08-14T10:27:28Z</time>
      </trkpt>
      <trkpt lat="46.83315" lon="2.91672">
        <ele>177.2</ele>
        <time>2024-08-14T10:27:31Z</time>
      </trkpt>
      <trkpt lat="46.83298" lon="2.91689">
        <ele>177.8</ele>
        <time>2024-08-14T10:27:35Z</time>
      </trkpt>
      <trkpt lat="46.83294" lon="2.91694">
        <ele>177.8</ele>
        <time>2024-08-14T10:27:36Z</time>
      </trkpt>
      <trkpt lat="46.83289" lon="2.917">
        <ele>178</ele>
        <time>2024-08-14T10:27:37Z</time>
      </trkpt>
      <trkpt lat="46.83275" lon="2.91719">
        <ele>179.2</ele>
        <time>2024-08-14T10:27:41Z</time>
      </trkpt>
      <trkpt lat="46.83264" lon="2.91734">
        <ele>180</ele>
        <time>2024-08-14T10:27:44Z</time>
      </trkpt>
      <trkpt lat="46.83261" lon="2.91737">
        <ele>180.2</ele>
        <time>2024-08-14T10:27:45Z</time>
      </trkpt>
      <trkpt lat="46.83257" lon="2.91743">
        <ele>180.4</ele>
        <time>2024-08-14T10:27:46Z</time>
      </trkpt>
      <trkpt lat="46.83243" lon="2.91765">
        <ele>181.8</ele>
        <time>2024-08-14T10:27:50Z</time>
      </trkpt>
      <trkpt lat="46.83237" lon="2.91773">
        <ele>182</ele>
        <time>2024-08-14T10:27:52Z</time>
      </trkpt>
      <trkpt lat="46.83221" lon="2.91799">
        <ele>182.8</ele>
        <time>2024-08-14T10:27:57Z</time>
      </trkpt>
      <trkpt lat="46.83215" lon="2.91808">
        <ele>183</ele>
        <time>2024-08-14T10:27:59Z</time>
      </trkpt>
      <trkpt lat="46.83208" lon="2.91823">
        <ele>183</ele>
        <time>2024-08-14T10:28:02Z</time>
      </trkpt>
      <trkpt lat="46.83206" lon="2.91827">
        <ele>183</ele>
        <time>2024-08-14T10:28:03Z</time>
      </trkpt>
      <trkpt lat="46.832" lon="2.91845">
        <ele>183</ele>
        <time>2024-08-14T10:28:07Z</time>
      </trkpt>
      <trkpt lat="46.83189" lon="2.91864">
        <ele>183</ele>
        <time>2024-08-14T10:28:12Z</time>
      </trkpt>
      <trkpt lat="46.83178" lon="2.91899">
        <ele>182.8</ele>
        <time>2024-08-14T10:28:18Z</time>
      </trkpt>
      <trkpt lat="46.83162" lon="2.9194">
        <ele>182.2</ele>
        <time>2024-08-14T10:28:25Z</time>
      </trkpt>
      <trkpt lat="46.83143" lon="2.91986">
        <ele>182.2</ele>
        <time>2024-08-14T10:28:33Z</time>
      </trkpt>
      <trkpt lat="46.83133" lon="2.92003">
        <ele>181.8</ele>
        <time>2024-08-14T10:28:37Z</time>
      </trkpt>
      <trkpt lat="46.83129" lon="2.92006">
        <ele>181.8</ele>
        <time>2024-08-14T10:28:38Z</time>
      </trkpt>
      <trkpt lat="46.83125" lon="2.92008">
        <ele>181.8</ele>
        <time>2024-08-14T10:28:39Z</time>
      </trkpt>
      <trkpt lat="46.83122" lon="2.92012">
        <ele>181.6</ele>
        <time>2024-08-14T10:28:40Z</time>
      </trkpt>
      <trkpt lat="46.83118" lon="2.92022">
        <ele>181.6</ele>
        <time>2024-08-14T10:28:42Z</time>
      </trkpt>
      <trkpt lat="46.83115" lon="2.92034">
        <ele>181.6</ele>
        <time>2024-08-14T10:28:44Z</time>
      </trkpt>
      <trkpt lat="46.83112" lon="2.92049">
        <ele>181.6</ele>
        <time>2024-08-14T10:28:46Z</time>
      </trkpt>
      <trkpt lat="46.8311" lon="2.92063">
        <ele>181.6</ele>
        <time>2024-08-14T10:28:48Z</time>
      </trkpt>
      <trkpt lat="46.83105" lon="2.92079">
        <ele>181.8</ele>
        <time>2024-08-14T10:28:50Z</time>
      </trkpt>
      <trkpt lat="46.83104" lon="2.92085">
        <ele>182</ele>
        <time>2024-08-14T10:28:51Z</time>
      </trkpt>
      <trkpt lat="46.83093" lon="2.92144">
        <ele>182.4</ele>
        <time>2024-08-14T10:28:58Z</time>
      </trkpt>
      <trkpt lat="46.83081" lon="2.92202">
        <ele>182.2</ele>
        <time>2024-08-14T10:29:05Z</time>
      </trkpt>
      <trkpt lat="46.83076" lon="2.92227">
        <ele>182.2</ele>
        <time>2024-08-14T10:29:08Z</time>
      </trkpt>
      <trkpt lat="46.83072" lon="2.92245">
        <ele>182.2</ele>
        <time>2024-08-14T10:29:10Z</time>
      </trkpt>
      <trkpt lat="46.83071" lon="2.92256">
        <ele>182</ele>
        <time>2024-08-14T10:29:11Z</time>
      </trkpt>
      <trkpt lat="46.8306" lon="2.92309">
        <ele>181.8</ele>
        <time>2024-08-14T10:29:17Z</time>
      </trkpt>
      <trkpt lat="46.83058" lon="2.9232">
        <ele>181.8</ele>
        <time>2024-08-14T10:29:18Z</time>
      </trkpt>
      <trkpt lat="46.83045" lon="2.92393">
        <ele>181.4</ele>
        <time>2024-08-14T10:29:26Z</time>
      </trkpt>
      <trkpt lat="46.83035" lon="2.92449">
        <ele>181.4</ele>
        <time>2024-08-14T10:29:32Z</time>
      </trkpt>
      <trkpt lat="46.83023" lon="2.92511">
        <ele>181</ele>
        <time>2024-08-14T10:29:39Z</time>
      </trkpt>
      <trkpt lat="46.83011" lon="2.92566">
        <ele>181.2</ele>
        <time>2024-08-14T10:29:45Z</time>
      </trkpt>
      <trkpt lat="46.83002" lon="2.92615">
        <ele>181.8</ele>
        <time>2024-08-14T10:29:51Z</time>
      </trkpt>
      <trkpt lat="46.82988" lon="2.92681">
        <ele>182</ele>
        <time>2024-08-14T10:29:59Z</time>
      </trkpt>
      <trkpt lat="46.82974" lon="2.92757">
        <ele>183</ele>
        <time>2024-08-14T10:30:08Z</time>
      </trkpt>
      <trkpt lat="46.82971" lon="2.92776">
        <ele>183.2</ele>
        <time>2024-08-14T10:30:10Z</time>
      </trkpt>
      <trkpt lat="46.82962" lon="2.92814">
        <ele>184</ele>
        <time>2024-08-14T10:30:15Z</time>
      </trkpt>
      <trkpt lat="46.82958" lon="2.92822">
        <ele>184</ele>
        <time>2024-08-14T10:30:16Z</time>
      </trkpt>
      <trkpt lat="46.82952" lon="2.92838">
        <ele>184</ele>
        <time>2024-08-14T10:30:18Z</time>
      </trkpt>
      <trkpt lat="46.82924" lon="2.9291">
        <ele>184</ele>
        <time>2024-08-14T10:30:27Z</time>
      </trkpt>
      <trkpt lat="46.82921" lon="2.92918">
        <ele>184</ele>
        <time>2024-08-14T10:30:28Z</time>
      </trkpt>
      <trkpt lat="46.82893" lon="2.92978">
        <ele>183.8</ele>
        <time>2024-08-14T10:30:36Z</time>
      </trkpt>
      <trkpt lat="46.8288" lon="2.93001">
        <ele>183.8</ele>
        <time>2024-08-14T10:30:39Z</time>
      </trkpt>
      <trkpt lat="46.82865" lon="2.9303">
        <ele>183.6</ele>
        <time>2024-08-14T10:30:43Z</time>
      </trkpt>
      <trkpt lat="46.82829" lon="2.93088">
        <ele>183.8</ele>
        <time>2024-08-14T10:30:51Z</time>
      </trkpt>
      <trkpt lat="46.82792" lon="2.93149">
        <ele>183.2</ele>
        <time>2024-08-14T10:30:59Z</time>
      </trkpt>
      <trkpt lat="46.82787" lon="2.93158">
        <ele>183.2</ele>
        <time>2024-08-14T10:31:00Z</time>
      </trkpt>
      <trkpt lat="46.82764" lon="2.93204">
        <ele>183.2</ele>
        <time>2024-08-14T10:31:06Z</time>
      </trkpt>
      <trkpt lat="46.82733" lon="2.9327">
        <ele>183</ele>
        <time>2024-08-14T10:31:14Z</time>
      </trkpt>
      <trkpt lat="46.82729" lon="2.93278">
        <ele>182.8</ele>
        <time>2024-08-14T10:31:15Z</time>
      </trkpt>
      <trkpt lat="46.82722" lon="2.93295">
        <ele>182.8</ele>
        <time>2024-08-14T10:31:17Z</time>
      </trkpt>
      <trkpt lat="46.82693" lon="2.93358">
        <ele>182.4</ele>
        <time>2024-08-14T10:31:24Z</time>
      </trkpt>
      <trkpt lat="46.82662" lon="2.93426">
        <ele>181.8</ele>
        <time>2024-08-14T10:31:32Z</time>
      </trkpt>
      <trkpt lat="46.82627" lon="2.9348">
        <ele>181.8</ele>
        <time>2024-08-14T10:31:39Z</time>
      </trkpt>
      <trkpt lat="46.82612" lon="2.93502">
        <ele>181.8</ele>
        <time>2024-08-14T10:31:42Z</time>
      </trkpt>
      <trkpt lat="46.82607" lon="2.9351">
        <ele>181.8</ele>
        <time>2024-08-14T10:31:43Z</time>
      </trkpt>
      <trkpt lat="46.82582" lon="2.93547">
        <ele>181.8</ele>
        <time>2024-08-14T10:31:48Z</time>
      </trkpt>
      <trkpt lat="46.82543" lon="2.93607">
        <ele>182</ele>
        <time>2024-08-14T10:31:56Z</time>
      </trkpt>
      <trkpt lat="46.82538" lon="2.93616">
        <ele>182</ele>
        <time>2024-08-14T10:31:57Z</time>
      </trkpt>
      <trkpt lat="46.82499" lon="2.9368">
        <ele>182</ele>
        <time>2024-08-14T10:32:05Z</time>
      </trkpt>
      <trkpt lat="46.82468" lon="2.9373">
        <ele>181.4</ele>
        <time>2024-08-14T10:32:11Z</time>
      </trkpt>
      <trkpt lat="46.82458" lon="2.93747">
        <ele>181.2</ele>
        <time>2024-08-14T10:32:13Z</time>
      </trkpt>
      <trkpt lat="46.82424" lon="2.93806">
        <ele>180.8</ele>
        <time>2024-08-14T10:32:20Z</time>
      </trkpt>
      <trkpt lat="46.82419" lon="2.93813">
        <ele>180.6</ele>
        <time>2024-08-14T10:32:21Z</time>
      </trkpt>
      <trkpt lat="46.8238" lon="2.93876">
        <ele>180.6</ele>
        <time>2024-08-14T10:32:29Z</time>
      </trkpt>
      <trkpt lat="46.82371" lon="2.93891">
        <ele>180.6</ele>
        <time>2024-08-14T10:32:31Z</time>
      </trkpt>
      <trkpt lat="46.82343" lon="2.93935">
        <ele>181</ele>
        <time>2024-08-14T10:32:37Z</time>
      </trkpt>
      <trkpt lat="46.82323" lon="2.93965">
        <ele>180.8</ele>
        <time>2024-08-14T10:32:41Z</time>
      </trkpt>
      <trkpt lat="46.82293" lon="2.94013">
        <ele>180.8</ele>
        <time>2024-08-14T10:32:47Z</time>
      </trkpt>
      <trkpt lat="46.82255" lon="2.94073">
        <ele>180.4</ele>
        <time>2024-08-14T10:32:54Z</time>
      </trkpt>
      <trkpt lat="46.8225" lon="2.94082">
        <ele>180.4</ele>
        <time>2024-08-14T10:32:55Z</time>
      </trkpt>
      <trkpt lat="46.82214" lon="2.94142">
        <ele>180</ele>
        <time>2024-08-14T10:33:02Z</time>
      </trkpt>
      <trkpt lat="46.82209" lon="2.94151">
        <ele>180</ele>
        <time>2024-08-14T10:33:03Z</time>
      </trkpt>
      <trkpt lat="46.82172" lon="2.9421">
        <ele>179.8</ele>
        <time>2024-08-14T10:33:10Z</time>
      </trkpt>
      <trkpt lat="46.82161" lon="2.94225">
        <ele>179.8</ele>
        <time>2024-08-14T10:33:12Z</time>
      </trkpt>
      <trkpt lat="46.82128" lon="2.94267">
        <ele>179.8</ele>
        <time>2024-08-14T10:33:18Z</time>
      </trkpt>
      <trkpt lat="46.82116" lon="2.94282">
        <ele>179.8</ele>
        <time>2024-08-14T10:33:20Z</time>
      </trkpt>
      <trkpt lat="46.82079" lon="2.94329">
        <ele>180</ele>
        <time>2024-08-14T10:33:27Z</time>
      </trkpt>
      <trkpt lat="46.82042" lon="2.94377">
        <ele>181</ele>
        <time>2024-08-14T10:33:34Z</time>
      </trkpt>
      <trkpt lat="46.82032" lon="2.94392">
        <ele>181</ele>
        <time>2024-08-14T10:33:36Z</time>
      </trkpt>
      <trkpt lat="46.81995" lon="2.94449">
        <ele>180.2</ele>
        <time>2024-08-14T10:33:43Z</time>
      </trkpt>
      <trkpt lat="46.81974" lon="2.94483">
        <ele>179.6</ele>
        <time>2024-08-14T10:33:47Z</time>
      </trkpt>
      <trkpt lat="46.81956" lon="2.94512">
        <ele>179.6</ele>
        <time>2024-08-14T10:33:51Z</time>
      </trkpt>
      <trkpt lat="46.81932" lon="2.94544">
        <ele>179.8</ele>
        <time>2024-08-14T10:33:56Z</time>
      </trkpt>
      <trkpt lat="46.81926" lon="2.94549">
        <ele>179.8</ele>
        <time>2024-08-14T10:33:57Z</time>
      </trkpt>
      <trkpt lat="46.81909" lon="2.94561">
        <ele>180.2</ele>
        <time>2024-08-14T10:34:00Z</time>
      </trkpt>
      <trkpt lat="46.81861" lon="2.94583">
        <ele>180.8</ele>
        <time>2024-08-14T10:34:08Z</time>
      </trkpt>
      <trkpt lat="46.81855" lon="2.94586">
        <ele>180.8</ele>
        <time>2024-08-14T10:34:09Z</time>
      </trkpt>
      <trkpt lat="46.81817" lon="2.94602">
        <ele>181.2</ele>
        <time>2024-08-14T10:34:15Z</time>
      </trkpt>
      <trkpt lat="46.81786" lon="2.94613">
        <ele>181.4</ele>
        <time>2024-08-14T10:34:20Z</time>
      </trkpt>
      <trkpt lat="46.81768" lon="2.94616">
        <ele>181.6</ele>
        <time>2024-08-14T10:34:23Z</time>
      </trkpt>
      <trkpt lat="46.81731" lon="2.94617">
        <ele>182</ele>
        <time>2024-08-14T10:34:29Z</time>
      </trkpt>
      <trkpt lat="46.81681" lon="2.9461">
        <ele>182.2</ele>
        <time>2024-08-14T10:34:37Z</time>
      </trkpt>
      <trkpt lat="46.81623" lon="2.94606">
        <ele>182.6</ele>
        <time>2024-08-14T10:34:46Z</time>
      </trkpt>
      <trkpt lat="46.81598" lon="2.94607">
        <ele>182.6</ele>
        <time>2024-08-14T10:34:50Z</time>
      </trkpt>
      <trkpt lat="46.81578" lon="2.94612">
        <ele>182.6</ele>
        <time>2024-08-14T10:34:53Z</time>
      </trkpt>
      <trkpt lat="46.81538" lon="2.94633">
        <ele>182.6</ele>
        <time>2024-08-14T10:35:00Z</time>
      </trkpt>
      <trkpt lat="46.81492" lon="2.94664">
        <ele>183</ele>
        <time>2024-08-14T10:35:08Z</time>
      </trkpt>
      <trkpt lat="46.8148" lon="2.94672">
        <ele>183</ele>
        <time>2024-08-14T10:35:10Z</time>
      </trkpt>
      <trkpt lat="46.81428" lon="2.94704">
        <ele>183.2</ele>
        <time>2024-08-14T10:35:19Z</time>
      </trkpt>
      <trkpt lat="46.81422" lon="2.94708">
        <ele>183.2</ele>
        <time>2024-08-14T10:35:20Z</time>
      </trkpt>
      <trkpt lat="46.8138" lon="2.94732">
        <ele>183.4</ele>
        <time>2024-08-14T10:35:27Z</time>
      </trkpt>
      <trkpt lat="46.81327" lon="2.94762">
        <ele>183.4</ele>
        <time>2024-08-14T10:35:36Z</time>
      </trkpt>
      <trkpt lat="46.81302" lon="2.94776">
        <ele>183.2</ele>
        <time>2024-08-14T10:35:40Z</time>
      </trkpt>
      <trkpt lat="46.81251" lon="2.94802">
        <ele>182.8</ele>
        <time>2024-08-14T10:35:48Z</time>
      </trkpt>
      <trkpt lat="46.81246" lon="2.94803">
        <ele>182.8</ele>
        <time>2024-08-14T10:35:49Z</time>
      </trkpt>
      <trkpt lat="46.81234" lon="2.948">
        <ele>182.6</ele>
        <time>2024-08-14T10:35:51Z</time>
      </trkpt>
      <trkpt lat="46.81229" lon="2.94795">
        <ele>182.6</ele>
        <time>2024-08-14T10:35:52Z</time>
      </trkpt>
      <trkpt lat="46.812" lon="2.94768">
        <ele>182.4</ele>
        <time>2024-08-14T10:35:58Z</time>
      </trkpt>
      <trkpt lat="46.81168" lon="2.94742">
        <ele>183</ele>
        <time>2024-08-14T10:36:04Z</time>
      </trkpt>
      <trkpt lat="46.81123" lon="2.94708">
        <ele>183.2</ele>
        <time>2024-08-14T10:36:12Z</time>
      </trkpt>
      <trkpt lat="46.8111" lon="2.94699">
        <ele>183</ele>
        <time>2024-08-14T10:36:14Z</time>
      </trkpt>
      <trkpt lat="46.8106" lon="2.94661">
        <ele>183.2</ele>
        <time>2024-08-14T10:36:23Z</time>
      </trkpt>
      <trkpt lat="46.8102" lon="2.94633">
        <ele>183.6</ele>
        <time>2024-08-14T10:36:30Z</time>
      </trkpt>
      <trkpt lat="46.81008" lon="2.94624">
        <ele>183.8</ele>
        <time>2024-08-14T10:36:32Z</time>
      </trkpt>
      <trkpt lat="46.80966" lon="2.94594">
        <ele>184</ele>
        <time>2024-08-14T10:36:39Z</time>
      </trkpt>
      <trkpt lat="46.80937" lon="2.94573">
        <ele>183.8</ele>
        <time>2024-08-14T10:36:44Z</time>
      </trkpt>
      <trkpt lat="46.80919" lon="2.94559">
        <ele>183.6</ele>
        <time>2024-08-14T10:36:47Z</time>
      </trkpt>
      <trkpt lat="46.80879" lon="2.9453">
        <ele>183.8</ele>
        <time>2024-08-14T10:36:54Z</time>
      </trkpt>
      <trkpt lat="46.80839" lon="2.94501">
        <ele>184</ele>
        <time>2024-08-14T10:37:01Z</time>
      </trkpt>
      <trkpt lat="46.80811" lon="2.94484">
        <ele>184</ele>
        <time>2024-08-14T10:37:06Z</time>
      </trkpt>
      <trkpt lat="46.80805" lon="2.94483">
        <ele>184</ele>
        <time>2024-08-14T10:37:07Z</time>
      </trkpt>
      <trkpt lat="46.8076" lon="2.94481">
        <ele>184</ele>
        <time>2024-08-14T10:37:14Z</time>
      </trkpt>
      <trkpt lat="46.8073" lon="2.94481">
        <ele>184.2</ele>
        <time>2024-08-14T10:37:19Z</time>
      </trkpt>
      <trkpt lat="46.8069" lon="2.94481">
        <ele>184.4</ele>
        <time>2024-08-14T10:37:25Z</time>
      </trkpt>
      <trkpt lat="46.80636" lon="2.9448">
        <ele>184.4</ele>
        <time>2024-08-14T10:37:33Z</time>
      </trkpt>
      <trkpt lat="46.80624" lon="2.9448">
        <ele>184.4</ele>
        <time>2024-08-14T10:37:35Z</time>
      </trkpt>
      <trkpt lat="46.80572" lon="2.94492">
        <ele>184.4</ele>
        <time>2024-08-14T10:37:43Z</time>
      </trkpt>
      <trkpt lat="46.80516" lon="2.94517">
        <ele>184.6</ele>
        <time>2024-08-14T10:37:52Z</time>
      </trkpt>
      <trkpt lat="46.8051" lon="2.94519">
        <ele>184.6</ele>
        <time>2024-08-14T10:37:53Z</time>
      </trkpt>
      <trkpt lat="46.8049" lon="2.94524">
        <ele>184.8</ele>
        <time>2024-08-14T10:37:56Z</time>
      </trkpt>
      <trkpt lat="46.80476" lon="2.94527">
        <ele>185</ele>
        <time>2024-08-14T10:37:58Z</time>
      </trkpt>
      <trkpt lat="46.80471" lon="2.94527">
        <ele>185.2</ele>
        <time>2024-08-14T10:37:59Z</time>
      </trkpt>
      <trkpt lat="46.80433" lon="2.94522">
        <ele>185.6</ele>
        <time>2024-08-14T10:38:05Z</time>
      </trkpt>
      <trkpt lat="46.80408" lon="2.94511">
        <ele>185.8</ele>
        <time>2024-08-14T10:38:09Z</time>
      </trkpt>
      <trkpt lat="46.8039" lon="2.945">
        <ele>186</ele>
        <time>2024-08-14T10:38:12Z</time>
      </trkpt>
      <trkpt lat="46.80355" lon="2.94481">
        <ele>186.8</ele>
        <time>2024-08-14T10:38:18Z</time>
      </trkpt>
      <trkpt lat="46.80337" lon="2.94471">
        <ele>187.2</ele>
        <time>2024-08-14T10:38:21Z</time>
      </trkpt>
      <trkpt lat="46.80285" lon="2.94448">
        <ele>187.6</ele>
        <time>2024-08-14T10:38:30Z</time>
      </trkpt>
      <trkpt lat="46.80279" lon="2.94445">
        <ele>187.8</ele>
        <time>2024-08-14T10:38:31Z</time>
      </trkpt>
      <trkpt lat="46.80273" lon="2.94442">
        <ele>187.8</ele>
        <time>2024-08-14T10:38:32Z</time>
      </trkpt>
      <trkpt lat="46.8026" lon="2.94438">
        <ele>188</ele>
        <time>2024-08-14T10:38:34Z</time>
      </trkpt>
      <trkpt lat="46.8023" lon="2.94428">
        <ele>188.4</ele>
        <time>2024-08-14T10:38:39Z</time>
      </trkpt>
      <trkpt lat="46.80193" lon="2.94421">
        <ele>189</ele>
        <time>2024-08-14T10:38:45Z</time>
      </trkpt>
      <trkpt lat="46.80187" lon="2.9442">
        <ele>189.2</ele>
        <time>2024-08-14T10:38:46Z</time>
      </trkpt>
      <trkpt lat="46.80139" lon="2.94422">
        <ele>189.8</ele>
        <time>2024-08-14T10:38:54Z</time>
      </trkpt>
      <trkpt lat="46.80133" lon="2.94421">
        <ele>190</ele>
        <time>2024-08-14T10:38:55Z</time>
      </trkpt>
      <trkpt lat="46.80127" lon="2.94421">
        <ele>190.2</ele>
        <time>2024-08-14T10:38:56Z</time>
      </trkpt>
      <trkpt lat="46.80102" lon="2.94423">
        <ele>190.8</ele>
        <time>2024-08-14T10:39:00Z</time>
      </trkpt>
      <trkpt lat="46.80075" lon="2.94432">
        <ele>191</ele>
        <time>2024-08-14T10:39:05Z</time>
      </trkpt>
      <trkpt lat="46.80063" lon="2.94432">
        <ele>191.2</ele>
        <time>2024-08-14T10:39:07Z</time>
      </trkpt>
      <trkpt lat="46.80024" lon="2.9442">
        <ele>191.8</ele>
        <time>2024-08-14T10:39:14Z</time>
      </trkpt>
      <trkpt lat="46.8" lon="2.94413">
        <ele>192.2</ele>
        <time>2024-08-14T10:39:18Z</time>
      </trkpt>
      <trkpt lat="46.79963" lon="2.94403">
        <ele>192.6</ele>
        <time>2024-08-14T10:39:24Z</time>
      </trkpt>
      <trkpt lat="46.79931" lon="2.94395">
        <ele>192.6</ele>
        <time>2024-08-14T10:39:29Z</time>
      </trkpt>
      <trkpt lat="46.79897" lon="2.94385">
        <ele>192.6</ele>
        <time>2024-08-14T10:39:34Z</time>
      </trkpt>
      <trkpt lat="46.79844" lon="2.94371">
        <ele>192.2</ele>
        <time>2024-08-14T10:39:42Z</time>
      </trkpt>
      <trkpt lat="46.79838" lon="2.94369">
        <ele>192.2</ele>
        <time>2024-08-14T10:39:43Z</time>
      </trkpt>
      <trkpt lat="46.79788" lon="2.94356">
        <ele>192.6</ele>
        <time>2024-08-14T10:39:51Z</time>
      </trkpt>
      <trkpt lat="46.79738" lon="2.94344">
        <ele>192.8</ele>
        <time>2024-08-14T10:39:59Z</time>
      </trkpt>
      <trkpt lat="46.79726" lon="2.9434">
        <ele>193</ele>
        <time>2024-08-14T10:40:01Z</time>
      </trkpt>
      <trkpt lat="46.79701" lon="2.94325">
        <ele>193.2</ele>
        <time>2024-08-14T10:40:05Z</time>
      </trkpt>
      <trkpt lat="46.79692" lon="2.94317">
        <ele>193.4</ele>
        <time>2024-08-14T10:40:07Z</time>
      </trkpt>
      <trkpt lat="46.79688" lon="2.94313">
        <ele>193.2</ele>
        <time>2024-08-14T10:40:08Z</time>
      </trkpt>
      <trkpt lat="46.79685" lon="2.9431">
        <ele>193.4</ele>
        <time>2024-08-14T10:40:09Z</time>
      </trkpt>
      <trkpt lat="46.79682" lon="2.94308">
        <ele>193.2</ele>
        <time>2024-08-14T10:40:10Z</time>
      </trkpt>
      <trkpt lat="46.79666" lon="2.94298">
        <ele>193.4</ele>
        <time>2024-08-14T10:40:15Z</time>
      </trkpt>
      <trkpt lat="46.79644" lon="2.9428">
        <ele>193.4</ele>
        <time>2024-08-14T10:40:20Z</time>
      </trkpt>
      <trkpt lat="46.79611" lon="2.94253">
        <ele>193.8</ele>
        <time>2024-08-14T10:40:27Z</time>
      </trkpt>
      <trkpt lat="46.79596" lon="2.94239">
        <ele>194.4</ele>
        <time>2024-08-14T10:40:30Z</time>
      </trkpt>
      <trkpt lat="46.79576" lon="2.94218">
        <ele>194.8</ele>
        <time>2024-08-14T10:40:34Z</time>
      </trkpt>
      <trkpt lat="46.79562" lon="2.94201">
        <ele>195.4</ele>
        <time>2024-08-14T10:40:37Z</time>
      </trkpt>
      <trkpt lat="46.79543" lon="2.94179">
        <ele>195.8</ele>
        <time>2024-08-14T10:40:41Z</time>
      </trkpt>
      <trkpt lat="46.79523" lon="2.94156">
        <ele>195.8</ele>
        <time>2024-08-14T10:40:45Z</time>
      </trkpt>
      <trkpt lat="46.79499" lon="2.94129">
        <ele>195.8</ele>
        <time>2024-08-14T10:40:50Z</time>
      </trkpt>
      <trkpt lat="46.79494" lon="2.94123">
        <ele>195.8</ele>
        <time>2024-08-14T10:40:51Z</time>
      </trkpt>
      <trkpt lat="46.79458" lon="2.9409">
        <ele>196.4</ele>
        <time>2024-08-14T10:40:58Z</time>
      </trkpt>
      <trkpt lat="46.79413" lon="2.9406">
        <ele>196.8</ele>
        <time>2024-08-14T10:41:06Z</time>
      </trkpt>
      <trkpt lat="46.79361" lon="2.94028">
        <ele>197</ele>
        <time>2024-08-14T10:41:15Z</time>
      </trkpt>
      <trkpt lat="46.79349" lon="2.9402">
        <ele>197.2</ele>
        <time>2024-08-14T10:41:17Z</time>
      </trkpt>
      <trkpt lat="46.79344" lon="2.94016">
        <ele>197.4</ele>
        <time>2024-08-14T10:41:18Z</time>
      </trkpt>
      <trkpt lat="46.79327" lon="2.94004">
        <ele>197.6</ele>
        <time>2024-08-14T10:41:21Z</time>
      </trkpt>
      <trkpt lat="46.79316" lon="2.93993">
        <ele>197.8</ele>
        <time>2024-08-14T10:41:23Z</time>
      </trkpt>
      <trkpt lat="46.79305" lon="2.9398">
        <ele>197.8</ele>
        <time>2024-08-14T10:41:25Z</time>
      </trkpt>
      <trkpt lat="46.79276" lon="2.93944">
        <ele>197.4</ele>
        <time>2024-08-14T10:41:31Z</time>
      </trkpt>
      <trkpt lat="46.7924" lon="2.93906">
        <ele>197.4</ele>
        <time>2024-08-14T10:41:38Z</time>
      </trkpt>
      <trkpt lat="46.79235" lon="2.93902">
        <ele>197.4</ele>
        <time>2024-08-14T10:41:39Z</time>
      </trkpt>
      <trkpt lat="46.79207" lon="2.93887">
        <ele>197.4</ele>
        <time>2024-08-14T10:41:44Z</time>
      </trkpt>
      <trkpt lat="46.79161" lon="2.93868">
        <ele>198</ele>
        <time>2024-08-14T10:41:52Z</time>
      </trkpt>
      <trkpt lat="46.79127" lon="2.93853">
        <ele>197.8</ele>
        <time>2024-08-14T10:41:57Z</time>
      </trkpt>
      <trkpt lat="46.79078" lon="2.93825">
        <ele>197</ele>
        <time>2024-08-14T10:42:04Z</time>
      </trkpt>
      <trkpt lat="46.79051" lon="2.93806">
        <ele>196.2</ele>
        <time>2024-08-14T10:42:08Z</time>
      </trkpt>
      <trkpt lat="46.79018" lon="2.93784">
        <ele>196</ele>
        <time>2024-08-14T10:42:13Z</time>
      </trkpt>
      <trkpt lat="46.78979" lon="2.93755">
        <ele>195.6</ele>
        <time>2024-08-14T10:42:19Z</time>
      </trkpt>
      <trkpt lat="46.78973" lon="2.9375">
        <ele>195.8</ele>
        <time>2024-08-14T10:42:20Z</time>
      </trkpt>
      <trkpt lat="46.7894" lon="2.93718">
        <ele>195.8</ele>
        <time>2024-08-14T10:42:26Z</time>
      </trkpt>
      <trkpt lat="46.78936" lon="2.93713">
        <ele>195.8</ele>
        <time>2024-08-14T10:42:27Z</time>
      </trkpt>
      <trkpt lat="46.78926" lon="2.93697">
        <ele>196</ele>
        <time>2024-08-14T10:42:29Z</time>
      </trkpt>
      <trkpt lat="46.78922" lon="2.9369">
        <ele>196</ele>
        <time>2024-08-14T10:42:30Z</time>
      </trkpt>
      <trkpt lat="46.78918" lon="2.93682">
        <ele>196</ele>
        <time>2024-08-14T10:42:31Z</time>
      </trkpt>
      <trkpt lat="46.78895" lon="2.93631">
        <ele>196</ele>
        <time>2024-08-14T10:42:37Z</time>
      </trkpt>
      <trkpt lat="46.78875" lon="2.93585">
        <ele>196.2</ele>
        <time>2024-08-14T10:42:43Z</time>
      </trkpt>
      <trkpt lat="46.78856" lon="2.93539">
        <ele>196.4</ele>
        <time>2024-08-14T10:42:50Z</time>
      </trkpt>
      <trkpt lat="46.78842" lon="2.93501">
        <ele>197</ele>
        <time>2024-08-14T10:42:55Z</time>
      </trkpt>
      <trkpt lat="46.78827" lon="2.93457">
        <ele>198.2</ele>
        <time>2024-08-14T10:43:01Z</time>
      </trkpt>
      <trkpt lat="46.78824" lon="2.93449">
        <ele>198.4</ele>
        <time>2024-08-14T10:43:02Z</time>
      </trkpt>
      <trkpt lat="46.78802" lon="2.93408">
        <ele>199.2</ele>
        <time>2024-08-14T10:43:09Z</time>
      </trkpt>
      <trkpt lat="46.78799" lon="2.93402">
        <ele>199.2</ele>
        <time>2024-08-14T10:43:10Z</time>
      </trkpt>
      <trkpt lat="46.78767" lon="2.93342">
        <ele>200.2</ele>
        <time>2024-08-14T10:43:20Z</time>
      </trkpt>
      <trkpt lat="46.78743" lon="2.93298">
        <ele>201.2</ele>
        <time>2024-08-14T10:43:28Z</time>
      </trkpt>
      <trkpt lat="46.78739" lon="2.93292">
        <ele>201.6</ele>
        <time>2024-08-14T10:43:29Z</time>
      </trkpt>
      <trkpt lat="46.78724" lon="2.93265">
        <ele>202.4</ele>
        <time>2024-08-14T10:43:34Z</time>
      </trkpt>
      <trkpt lat="46.7872" lon="2.93258">
        <ele>202.6</ele>
        <time>2024-08-14T10:43:35Z</time>
      </trkpt>
      <trkpt lat="46.78707" lon="2.93237">
        <ele>203</ele>
        <time>2024-08-14T10:43:39Z</time>
      </trkpt>
      <trkpt lat="46.787" lon="2.93228">
        <ele>203.2</ele>
        <time>2024-08-14T10:43:41Z</time>
      </trkpt>
      <trkpt lat="46.78673" lon="2.93192">
        <ele>203.8</ele>
        <time>2024-08-14T10:43:48Z</time>
      </trkpt>
      <trkpt lat="46.78668" lon="2.93186">
        <ele>203.8</ele>
        <time>2024-08-14T10:43:49Z</time>
      </trkpt>
      <trkpt lat="46.78645" lon="2.93156">
        <ele>204.4</ele>
        <time>2024-08-14T10:43:55Z</time>
      </trkpt>
      <trkpt lat="46.78611" lon="2.93122">
        <ele>204.4</ele>
        <time>2024-08-14T10:44:02Z</time>
      </trkpt>
      <trkpt lat="46.78559" lon="2.93086">
        <ele>204.6</ele>
        <time>2024-08-14T10:44:12Z</time>
      </trkpt>
      <trkpt lat="46.78548" lon="2.93081">
        <ele>204.6</ele>
        <time>2024-08-14T10:44:14Z</time>
      </trkpt>
      <trkpt lat="46.78526" lon="2.93072">
        <ele>204.8</ele>
        <time>2024-08-14T10:44:18Z</time>
      </trkpt>
      <trkpt lat="46.7852" lon="2.93072">
        <ele>204.8</ele>
        <time>2024-08-14T10:44:19Z</time>
      </trkpt>
      <trkpt lat="46.78483" lon="2.93071">
        <ele>205</ele>
        <time>2024-08-14T10:44:25Z</time>
      </trkpt>
      <trkpt lat="46.78472" lon="2.93071">
        <ele>205</ele>
        <time>2024-08-14T10:44:27Z</time>
      </trkpt>
      <trkpt lat="46.7846" lon="2.93066">
        <ele>205</ele>
        <time>2024-08-14T10:44:29Z</time>
      </trkpt>
      <trkpt lat="46.78453" lon="2.93059">
        <ele>204.8</ele>
        <time>2024-08-14T10:44:30Z</time>
      </trkpt>
      <trkpt lat="46.78448" lon="2.93051">
        <ele>204.8</ele>
        <time>2024-08-14T10:44:31Z</time>
      </trkpt>
      <trkpt lat="46.78437" lon="2.93025">
        <ele>204.2</ele>
        <time>2024-08-14T10:44:34Z</time>
      </trkpt>
      <trkpt lat="46.78431" lon="2.93015">
        <ele>204</ele>
        <time>2024-08-14T10:44:35Z</time>
      </trkpt>
      <trkpt lat="46.78419" lon="2.93003">
        <ele>203.6</ele>
        <time>2024-08-14T10:44:37Z</time>
      </trkpt>
      <trkpt lat="46.78392" lon="2.92984">
        <ele>202.6</ele>
        <time>2024-08-14T10:44:41Z</time>
      </trkpt>
      <trkpt lat="46.78373" lon="2.92972">
        <ele>202.2</ele>
        <time>2024-08-14T10:44:44Z</time>
      </trkpt>
      <trkpt lat="46.78332" lon="2.92953">
        <ele>201.8</ele>
        <time>2024-08-14T10:44:50Z</time>
      </trkpt>
      <trkpt lat="46.78291" lon="2.92928">
        <ele>201.6</ele>
        <time>2024-08-14T10:44:56Z</time>
      </trkpt>
      <trkpt lat="46.7826" lon="2.92907">
        <ele>201.4</ele>
        <time>2024-08-14T10:45:01Z</time>
      </trkpt>
      <trkpt lat="46.78246" lon="2.92897">
        <ele>201.4</ele>
        <time>2024-08-14T10:45:03Z</time>
      </trkpt>
      <trkpt lat="46.78209" lon="2.92872">
        <ele>201.4</ele>
        <time>2024-08-14T10:45:09Z</time>
      </trkpt>
      <trkpt lat="46.78178" lon="2.92854">
        <ele>201.4</ele>
        <time>2024-08-14T10:45:14Z</time>
      </trkpt>
      <trkpt lat="46.7816" lon="2.92844">
        <ele>201.4</ele>
        <time>2024-08-14T10:45:17Z</time>
      </trkpt>
      <trkpt lat="46.78124" lon="2.92826">
        <ele>201.8</ele>
        <time>2024-08-14T10:45:24Z</time>
      </trkpt>
      <trkpt lat="46.781" lon="2.92812">
        <ele>202.6</ele>
        <time>2024-08-14T10:45:29Z</time>
      </trkpt>
      <trkpt lat="46.78081" lon="2.92801">
        <ele>202.8</ele>
        <time>2024-08-14T10:45:33Z</time>
      </trkpt>
      <trkpt lat="46.78076" lon="2.92798">
        <ele>202.8</ele>
        <time>2024-08-14T10:45:34Z</time>
      </trkpt>
      <trkpt lat="46.78064" lon="2.92792">
        <ele>203</ele>
        <time>2024-08-14T10:45:37Z</time>
      </trkpt>
      <trkpt lat="46.78061" lon="2.92791">
        <ele>203.2</ele>
        <time>2024-08-14T10:45:38Z</time>
      </trkpt>
      <trkpt lat="46.78056" lon="2.92796">
        <ele>203.4</ele>
        <time>2024-08-14T10:45:40Z</time>
      </trkpt>
      <trkpt lat="46.78051" lon="2.92808">
        <ele>203.6</ele>
        <time>2024-08-14T10:45:42Z</time>
      </trkpt>
      <trkpt lat="46.78049" lon="2.9282">
        <ele>203.8</ele>
        <time>2024-08-14T10:45:44Z</time>
      </trkpt>
      <trkpt lat="46.78043" lon="2.92864">
        <ele>204.4</ele>
        <time>2024-08-14T10:45:50Z</time>
      </trkpt>
      <trkpt lat="46.78039" lon="2.92905">
        <ele>204.4</ele>
        <time>2024-08-14T10:45:55Z</time>
      </trkpt>
      <trkpt lat="46.78034" lon="2.92925">
        <ele>204.6</ele>
        <time>2024-08-14T10:45:58Z</time>
      </trkpt>
      <trkpt lat="46.78033" lon="2.92931">
        <ele>204.8</ele>
        <time>2024-08-14T10:45:59Z</time>
      </trkpt>
      <trkpt lat="46.78018" lon="2.92977">
        <ele>204.8</ele>
        <time>2024-08-14T10:46:05Z</time>
      </trkpt>
      <trkpt lat="46.77996" lon="2.9304">
        <ele>204.6</ele>
        <time>2024-08-14T10:46:13Z</time>
      </trkpt>
      <trkpt lat="46.77991" lon="2.93058">
        <ele>204.6</ele>
        <time>2024-08-14T10:46:15Z</time>
      </trkpt>
      <trkpt lat="46.77971" lon="2.93114">
        <ele>204.4</ele>
        <time>2024-08-14T10:46:22Z</time>
      </trkpt>
      <trkpt lat="46.77948" lon="2.93183">
        <ele>204.2</ele>
        <time>2024-08-14T10:46:31Z</time>
      </trkpt>
      <trkpt lat="46.77947" lon="2.9319">
        <ele>204.2</ele>
        <time>2024-08-14T10:46:33Z</time>
      </trkpt>
      <trkpt lat="46.77949" lon="2.93195">
        <ele>203.8</ele>
        <time>2024-08-14T10:46:38Z</time>
      </trkpt>
      <trkpt lat="46.77944" lon="2.93201">
        <ele>205.2</ele>
        <time>2024-08-14T10:54:18Z</time>
      </trkpt>
      <trkpt lat="46.77941" lon="2.93209">
        <ele>205.2</ele>
        <time>2024-08-14T10:54:21Z</time>
      </trkpt>
      <trkpt lat="46.77932" lon="2.93232">
        <ele>205.4</ele>
        <time>2024-08-14T10:54:26Z</time>
      </trkpt>
      <trkpt lat="46.77925" lon="2.93262">
        <ele>205.2</ele>
        <time>2024-08-14T10:54:31Z</time>
      </trkpt>
      <trkpt lat="46.77923" lon="2.93272">
        <ele>205</ele>
        <time>2024-08-14T10:54:32Z</time>
      </trkpt>
      <trkpt lat="46.77909" lon="2.93325">
        <ele>205</ele>
        <time>2024-08-14T10:54:38Z</time>
      </trkpt>
      <trkpt lat="46.77891" lon="2.93386">
        <ele>205</ele>
        <time>2024-08-14T10:54:45Z</time>
      </trkpt>
      <trkpt lat="46.77886" lon="2.93395">
        <ele>205</ele>
        <time>2024-08-14T10:54:46Z</time>
      </trkpt>
      <trkpt lat="46.77872" lon="2.93413">
        <ele>204.8</ele>
        <time>2024-08-14T10:54:49Z</time>
      </trkpt>
      <trkpt lat="46.77828" lon="2.93464">
        <ele>204.4</ele>
        <time>2024-08-14T10:54:57Z</time>
      </trkpt>
      <trkpt lat="46.77824" lon="2.9347">
        <ele>204.2</ele>
        <time>2024-08-14T10:54:58Z</time>
      </trkpt>
      <trkpt lat="46.77819" lon="2.93476">
        <ele>204.2</ele>
        <time>2024-08-14T10:54:59Z</time>
      </trkpt>
      <trkpt lat="46.77774" lon="2.93525">
        <ele>203.6</ele>
        <time>2024-08-14T10:55:07Z</time>
      </trkpt>
      <trkpt lat="46.7774" lon="2.93566">
        <ele>203.2</ele>
        <time>2024-08-14T10:55:13Z</time>
      </trkpt>
      <trkpt lat="46.77729" lon="2.93579">
        <ele>203</ele>
        <time>2024-08-14T10:55:15Z</time>
      </trkpt>
      <trkpt lat="46.77686" lon="2.9363">
        <ele>202.6</ele>
        <time>2024-08-14T10:55:23Z</time>
      </trkpt>
      <trkpt lat="46.77677" lon="2.9364">
        <ele>202.6</ele>
        <time>2024-08-14T10:55:25Z</time>
      </trkpt>
      <trkpt lat="46.77642" lon="2.93681">
        <ele>202.8</ele>
        <time>2024-08-14T10:55:32Z</time>
      </trkpt>
      <trkpt lat="46.77602" lon="2.93728">
        <ele>203</ele>
        <time>2024-08-14T10:55:40Z</time>
      </trkpt>
      <trkpt lat="46.77596" lon="2.93736">
        <ele>203</ele>
        <time>2024-08-14T10:55:41Z</time>
      </trkpt>
      <trkpt lat="46.7756" lon="2.93776">
        <ele>203</ele>
        <time>2024-08-14T10:55:48Z</time>
      </trkpt>
      <trkpt lat="46.77514" lon="2.93825">
        <ele>202.8</ele>
        <time>2024-08-14T10:55:56Z</time>
      </trkpt>
      <trkpt lat="46.77509" lon="2.93831">
        <ele>202.8</ele>
        <time>2024-08-14T10:55:57Z</time>
      </trkpt>
      <trkpt lat="46.77464" lon="2.93882">
        <ele>202.6</ele>
        <time>2024-08-14T10:56:05Z</time>
      </trkpt>
      <trkpt lat="46.77428" lon="2.9393">
        <ele>202.2</ele>
        <time>2024-08-14T10:56:12Z</time>
      </trkpt>
      <trkpt lat="46.77417" lon="2.93946">
        <ele>202.2</ele>
        <time>2024-08-14T10:56:14Z</time>
      </trkpt>
      <trkpt lat="46.77375" lon="2.94002">
        <ele>202</ele>
        <time>2024-08-14T10:56:22Z</time>
      </trkpt>
      <trkpt lat="46.7737" lon="2.94009">
        <ele>202</ele>
        <time>2024-08-14T10:56:23Z</time>
      </trkpt>
      <trkpt lat="46.77327" lon="2.94065">
        <ele>201.8</ele>
        <time>2024-08-14T10:56:31Z</time>
      </trkpt>
      <trkpt lat="46.77316" lon="2.94079">
        <ele>201.8</ele>
        <time>2024-08-14T10:56:33Z</time>
      </trkpt>
      <trkpt lat="46.77278" lon="2.94131">
        <ele>201.8</ele>
        <time>2024-08-14T10:56:40Z</time>
      </trkpt>
      <trkpt lat="46.77237" lon="2.94185">
        <ele>201.2</ele>
        <time>2024-08-14T10:56:47Z</time>
      </trkpt>
      <trkpt lat="46.77221" lon="2.94208">
        <ele>201</ele>
        <time>2024-08-14T10:56:50Z</time>
      </trkpt>
      <trkpt lat="46.77209" lon="2.94232">
        <ele>200.8</ele>
        <time>2024-08-14T10:56:53Z</time>
      </trkpt>
      <trkpt lat="46.77181" lon="2.9429">
        <ele>200.6</ele>
        <time>2024-08-14T10:57:00Z</time>
      </trkpt>
      <trkpt lat="46.7716" lon="2.94332">
        <ele>200.6</ele>
        <time>2024-08-14T10:57:06Z</time>
      </trkpt>
      <trkpt lat="46.77129" lon="2.94397">
        <ele>201.6</ele>
        <time>2024-08-14T10:57:14Z</time>
      </trkpt>
      <trkpt lat="46.77122" lon="2.94411">
        <ele>202</ele>
        <time>2024-08-14T10:57:16Z</time>
      </trkpt>
      <trkpt lat="46.77118" lon="2.9442">
        <ele>202.2</ele>
        <time>2024-08-14T10:57:17Z</time>
      </trkpt>
      <trkpt lat="46.77093" lon="2.94474">
        <ele>202.2</ele>
        <time>2024-08-14T10:57:24Z</time>
      </trkpt>
      <trkpt lat="46.77059" lon="2.94546">
        <ele>202.4</ele>
        <time>2024-08-14T10:57:33Z</time>
      </trkpt>
      <trkpt lat="46.77048" lon="2.9457">
        <ele>202.4</ele>
        <time>2024-08-14T10:57:36Z</time>
      </trkpt>
      <trkpt lat="46.77018" lon="2.94632">
        <ele>202.2</ele>
        <time>2024-08-14T10:57:44Z</time>
      </trkpt>
      <trkpt lat="46.76986" lon="2.94698">
        <ele>202</ele>
        <time>2024-08-14T10:57:52Z</time>
      </trkpt>
      <trkpt lat="46.76983" lon="2.94704">
        <ele>202</ele>
        <time>2024-08-14T10:57:53Z</time>
      </trkpt>
      <trkpt lat="46.76971" lon="2.9473">
        <ele>202</ele>
        <time>2024-08-14T10:57:56Z</time>
      </trkpt>
      <trkpt lat="46.76941" lon="2.94795">
        <ele>202</ele>
        <time>2024-08-14T10:58:04Z</time>
      </trkpt>
      <trkpt lat="46.76914" lon="2.94851">
        <ele>201.8</ele>
        <time>2024-08-14T10:58:11Z</time>
      </trkpt>
      <trkpt lat="46.76881" lon="2.94919">
        <ele>201.6</ele>
        <time>2024-08-14T10:58:19Z</time>
      </trkpt>
      <trkpt lat="46.76847" lon="2.94991">
        <ele>201.8</ele>
        <time>2024-08-14T10:58:28Z</time>
      </trkpt>
      <trkpt lat="46.7684" lon="2.95006">
        <ele>202</ele>
        <time>2024-08-14T10:58:30Z</time>
      </trkpt>
      <trkpt lat="46.76836" lon="2.95015">
        <ele>202</ele>
        <time>2024-08-14T10:58:31Z</time>
      </trkpt>
      <trkpt lat="46.76812" lon="2.95064">
        <ele>202.2</ele>
        <time>2024-08-14T10:58:37Z</time>
      </trkpt>
      <trkpt lat="46.76779" lon="2.95128">
        <ele>202.2</ele>
        <time>2024-08-14T10:58:45Z</time>
      </trkpt>
      <trkpt lat="46.76775" lon="2.95136">
        <ele>202.2</ele>
        <time>2024-08-14T10:58:46Z</time>
      </trkpt>
      <trkpt lat="46.76741" lon="2.95198">
        <ele>202.6</ele>
        <time>2024-08-14T10:58:54Z</time>
      </trkpt>
      <trkpt lat="46.76732" lon="2.95213">
        <ele>202.8</ele>
        <time>2024-08-14T10:58:56Z</time>
      </trkpt>
      <trkpt lat="46.76699" lon="2.95272">
        <ele>203.2</ele>
        <time>2024-08-14T10:59:04Z</time>
      </trkpt>
      <trkpt lat="46.76681" lon="2.95304">
        <ele>203</ele>
        <time>2024-08-14T10:59:09Z</time>
      </trkpt>
      <trkpt lat="46.76679" lon="2.95317">
        <ele>203</ele>
        <time>2024-08-14T10:59:11Z</time>
      </trkpt>
      <trkpt lat="46.76679" lon="2.95327">
        <ele>203</ele>
        <time>2024-08-14T10:59:12Z</time>
      </trkpt>
      <trkpt lat="46.76685" lon="2.95378">
        <ele>203</ele>
        <time>2024-08-14T10:59:18Z</time>
      </trkpt>
      <trkpt lat="46.76692" lon="2.95463">
        <ele>203</ele>
        <time>2024-08-14T10:59:27Z</time>
      </trkpt>
      <trkpt lat="46.76695" lon="2.95501">
        <ele>203.2</ele>
        <time>2024-08-14T10:59:31Z</time>
      </trkpt>
      <trkpt lat="46.76696" lon="2.95528">
        <ele>203.4</ele>
        <time>2024-08-14T10:59:34Z</time>
      </trkpt>
      <trkpt lat="46.76701" lon="2.95604">
        <ele>204</ele>
        <time>2024-08-14T10:59:42Z</time>
      </trkpt>
      <trkpt lat="46.76702" lon="2.95632">
        <ele>204.4</ele>
        <time>2024-08-14T10:59:45Z</time>
      </trkpt>
      <trkpt lat="46.76705" lon="2.95678">
        <ele>204.8</ele>
        <time>2024-08-14T10:59:50Z</time>
      </trkpt>
      <trkpt lat="46.76713" lon="2.95761">
        <ele>205.2</ele>
        <time>2024-08-14T10:59:59Z</time>
      </trkpt>
      <trkpt lat="46.76715" lon="2.95779">
        <ele>205.2</ele>
        <time>2024-08-14T11:00:01Z</time>
      </trkpt>
      <trkpt lat="46.76723" lon="2.95842">
        <ele>205.4</ele>
        <time>2024-08-14T11:00:08Z</time>
      </trkpt>
      <trkpt lat="46.76724" lon="2.9585">
        <ele>205.4</ele>
        <time>2024-08-14T11:00:09Z</time>
      </trkpt>
      <trkpt lat="46.76736" lon="2.95933">
        <ele>205.4</ele>
        <time>2024-08-14T11:00:18Z</time>
      </trkpt>
      <trkpt lat="46.76737" lon="2.95943">
        <ele>205.4</ele>
        <time>2024-08-14T11:00:19Z</time>
      </trkpt>
      <trkpt lat="46.76748" lon="2.96022">
        <ele>205.2</ele>
        <time>2024-08-14T11:00:27Z</time>
      </trkpt>
      <trkpt lat="46.76756" lon="2.96112">
        <ele>204.8</ele>
        <time>2024-08-14T11:00:36Z</time>
      </trkpt>
      <trkpt lat="46.76756" lon="2.96122">
        <ele>204.8</ele>
        <time>2024-08-14T11:00:37Z</time>
      </trkpt>
      <trkpt lat="46.76762" lon="2.96204">
        <ele>204.8</ele>
        <time>2024-08-14T11:00:45Z</time>
      </trkpt>
      <trkpt lat="46.76767" lon="2.96283">
        <ele>205</ele>
        <time>2024-08-14T11:00:53Z</time>
      </trkpt>
      <trkpt lat="46.76768" lon="2.96305">
        <ele>205</ele>
        <time>2024-08-14T11:00:55Z</time>
      </trkpt>
      <trkpt lat="46.76771" lon="2.96392">
        <ele>205.2</ele>
        <time>2024-08-14T11:01:04Z</time>
      </trkpt>
      <trkpt lat="46.76773" lon="2.96411">
        <ele>205.2</ele>
        <time>2024-08-14T11:01:06Z</time>
      </trkpt>
      <trkpt lat="46.76774" lon="2.96456">
        <ele>205.4</ele>
        <time>2024-08-14T11:01:11Z</time>
      </trkpt>
      <trkpt lat="46.76775" lon="2.96524">
        <ele>206</ele>
        <time>2024-08-14T11:01:18Z</time>
      </trkpt>
      <trkpt lat="46.76774" lon="2.96533">
        <ele>206.2</ele>
        <time>2024-08-14T11:01:19Z</time>
      </trkpt>
      <trkpt lat="46.76776" lon="2.9658">
        <ele>206.4</ele>
        <time>2024-08-14T11:01:24Z</time>
      </trkpt>
      <trkpt lat="46.76775" lon="2.9665">
        <ele>206.6</ele>
        <time>2024-08-14T11:01:31Z</time>
      </trkpt>
      <trkpt lat="46.76775" lon="2.96659">
        <ele>206.6</ele>
        <time>2024-08-14T11:01:32Z</time>
      </trkpt>
      <trkpt lat="46.76777" lon="2.96727">
        <ele>206.6</ele>
        <time>2024-08-14T11:01:39Z</time>
      </trkpt>
      <trkpt lat="46.76777" lon="2.96797">
        <ele>206.8</ele>
        <time>2024-08-14T11:01:46Z</time>
      </trkpt>
      <trkpt lat="46.76778" lon="2.96878">
        <ele>206.8</ele>
        <time>2024-08-14T11:01:54Z</time>
      </trkpt>
      <trkpt lat="46.76778" lon="2.96898">
        <ele>206.8</ele>
        <time>2024-08-14T11:01:56Z</time>
      </trkpt>
      <trkpt lat="46.76778" lon="2.96906">
        <ele>206.8</ele>
        <time>2024-08-14T11:01:57Z</time>
      </trkpt>
      <trkpt lat="46.7678" lon="2.96947">
        <ele>206.6</ele>
        <time>2024-08-14T11:02:01Z</time>
      </trkpt>
      <trkpt lat="46.7678" lon="2.97029">
        <ele>206.6</ele>
        <time>2024-08-14T11:02:09Z</time>
      </trkpt>
      <trkpt lat="46.7678" lon="2.97038">
        <ele>206.8</ele>
        <time>2024-08-14T11:02:10Z</time>
      </trkpt>
      <trkpt lat="46.76782" lon="2.97122">
        <ele>207</ele>
        <time>2024-08-14T11:02:18Z</time>
      </trkpt>
      <trkpt lat="46.76783" lon="2.97207">
        <ele>206.4</ele>
        <time>2024-08-14T11:02:26Z</time>
      </trkpt>
      <trkpt lat="46.76783" lon="2.97217">
        <ele>206.4</ele>
        <time>2024-08-14T11:02:27Z</time>
      </trkpt>
      <trkpt lat="46.76784" lon="2.97302">
        <ele>206.4</ele>
        <time>2024-08-14T11:02:35Z</time>
      </trkpt>
      <trkpt lat="46.76785" lon="2.97385">
        <ele>206</ele>
        <time>2024-08-14T11:02:43Z</time>
      </trkpt>
      <trkpt lat="46.76786" lon="2.97408">
        <ele>205.8</ele>
        <time>2024-08-14T11:02:45Z</time>
      </trkpt>
      <trkpt lat="46.76787" lon="2.97491">
        <ele>205.6</ele>
        <time>2024-08-14T11:02:53Z</time>
      </trkpt>
      <trkpt lat="46.76787" lon="2.97503">
        <ele>205.6</ele>
        <time>2024-08-14T11:02:54Z</time>
      </trkpt>
      <trkpt lat="46.76788" lon="2.97567">
        <ele>205.4</ele>
        <time>2024-08-14T11:03:00Z</time>
      </trkpt>
      <trkpt lat="46.76789" lon="2.97578">
        <ele>205.4</ele>
        <time>2024-08-14T11:03:01Z</time>
      </trkpt>
      <trkpt lat="46.7679" lon="2.97656">
        <ele>204.8</ele>
        <time>2024-08-14T11:03:08Z</time>
      </trkpt>
      <trkpt lat="46.7679" lon="2.97667">
        <ele>204.6</ele>
        <time>2024-08-14T11:03:09Z</time>
      </trkpt>
      <trkpt lat="46.76791" lon="2.97759">
        <ele>204.4</ele>
        <time>2024-08-14T11:03:17Z</time>
      </trkpt>
      <trkpt lat="46.76791" lon="2.97841">
        <ele>203.6</ele>
        <time>2024-08-14T11:03:24Z</time>
      </trkpt>
      <trkpt lat="46.76791" lon="2.97851">
        <ele>203.6</ele>
        <time>2024-08-14T11:03:25Z</time>
      </trkpt>
      <trkpt lat="46.76792" lon="2.97876">
        <ele>203.6</ele>
        <time>2024-08-14T11:03:27Z</time>
      </trkpt>
      <trkpt lat="46.76793" lon="2.97955">
        <ele>203.2</ele>
        <time>2024-08-14T11:03:34Z</time>
      </trkpt>
      <trkpt lat="46.76793" lon="2.9797">
        <ele>203.2</ele>
        <time>2024-08-14T11:03:35Z</time>
      </trkpt>
      <trkpt lat="46.76793" lon="2.97981">
        <ele>203.2</ele>
        <time>2024-08-14T11:03:36Z</time>
      </trkpt>
      <trkpt lat="46.76795" lon="2.98051">
        <ele>202.8</ele>
        <time>2024-08-14T11:03:42Z</time>
      </trkpt>
      <trkpt lat="46.76796" lon="2.98084">
        <ele>202.6</ele>
        <time>2024-08-14T11:03:45Z</time>
      </trkpt>
      <trkpt lat="46.76796" lon="2.9816">
        <ele>201.6</ele>
        <time>2024-08-14T11:03:52Z</time>
      </trkpt>
      <trkpt lat="46.76798" lon="2.98195">
        <ele>201.6</ele>
        <time>2024-08-14T11:03:55Z</time>
      </trkpt>
      <trkpt lat="46.76798" lon="2.98228">
        <ele>201.4</ele>
        <time>2024-08-14T11:03:58Z</time>
      </trkpt>
      <trkpt lat="46.76798" lon="2.98312">
        <ele>201</ele>
        <time>2024-08-14T11:04:05Z</time>
      </trkpt>
      <trkpt lat="46.76797" lon="2.98332">
        <ele>200.8</ele>
        <time>2024-08-14T11:04:07Z</time>
      </trkpt>
      <trkpt lat="46.76797" lon="2.98415">
        <ele>200.6</ele>
        <time>2024-08-14T11:04:14Z</time>
      </trkpt>
      <trkpt lat="46.76798" lon="2.98423">
        <ele>200.6</ele>
        <time>2024-08-14T11:04:15Z</time>
      </trkpt>
      <trkpt lat="46.76799" lon="2.98463">
        <ele>200.4</ele>
        <time>2024-08-14T11:04:19Z</time>
      </trkpt>
      <trkpt lat="46.76798" lon="2.9847">
        <ele>200.4</ele>
        <time>2024-08-14T11:04:20Z</time>
      </trkpt>
      <trkpt lat="46.76793" lon="2.98537">
        <ele>200.4</ele>
        <time>2024-08-14T11:04:27Z</time>
      </trkpt>
      <trkpt lat="46.76787" lon="2.98593">
        <ele>200.4</ele>
        <time>2024-08-14T11:04:33Z</time>
      </trkpt>
      <trkpt lat="46.76786" lon="2.98601">
        <ele>200.2</ele>
        <time>2024-08-14T11:04:34Z</time>
      </trkpt>
      <trkpt lat="46.7678" lon="2.98656">
        <ele>199.8</ele>
        <time>2024-08-14T11:04:39Z</time>
      </trkpt>
      <trkpt lat="46.76772" lon="2.98725">
        <ele>199.2</ele>
        <time>2024-08-14T11:04:45Z</time>
      </trkpt>
      <trkpt lat="46.76769" lon="2.98747">
        <ele>199</ele>
        <time>2024-08-14T11:04:47Z</time>
      </trkpt>
      <trkpt lat="46.76762" lon="2.9882">
        <ele>198.2</ele>
        <time>2024-08-14T11:04:54Z</time>
      </trkpt>
      <trkpt lat="46.76753" lon="2.98902">
        <ele>197.6</ele>
        <time>2024-08-14T11:05:02Z</time>
      </trkpt>
      <trkpt lat="46.7675" lon="2.98959">
        <ele>197</ele>
        <time>2024-08-14T11:05:07Z</time>
      </trkpt>
      <trkpt lat="46.76749" lon="2.98984">
        <ele>196.8</ele>
        <time>2024-08-14T11:05:09Z</time>
      </trkpt>
      <trkpt lat="46.76747" lon="2.99071">
        <ele>196</ele>
        <time>2024-08-14T11:05:17Z</time>
      </trkpt>
      <trkpt lat="46.76747" lon="2.99094">
        <ele>196</ele>
        <time>2024-08-14T11:05:19Z</time>
      </trkpt>
      <trkpt lat="46.76745" lon="2.99182">
        <ele>195.2</ele>
        <time>2024-08-14T11:05:27Z</time>
      </trkpt>
      <trkpt lat="46.76745" lon="2.99204">
        <ele>195.4</ele>
        <time>2024-08-14T11:05:29Z</time>
      </trkpt>
      <trkpt lat="46.76743" lon="2.99281">
        <ele>195.2</ele>
        <time>2024-08-14T11:05:36Z</time>
      </trkpt>
      <trkpt lat="46.76743" lon="2.99302">
        <ele>195</ele>
        <time>2024-08-14T11:05:38Z</time>
      </trkpt>
      <trkpt lat="46.76742" lon="2.99345">
        <ele>194.4</ele>
        <time>2024-08-14T11:05:42Z</time>
      </trkpt>
      <trkpt lat="46.7674" lon="2.99385">
        <ele>194</ele>
        <time>2024-08-14T11:05:46Z</time>
      </trkpt>
      <trkpt lat="46.7674" lon="2.99395">
        <ele>193.6</ele>
        <time>2024-08-14T11:05:47Z</time>
      </trkpt>
      <trkpt lat="46.76741" lon="2.99415">
        <ele>192.4</ele>
        <time>2024-08-14T11:05:50Z</time>
      </trkpt>
      <trkpt lat="46.76741" lon="2.99423">
        <ele>192.2</ele>
        <time>2024-08-14T11:05:52Z</time>
      </trkpt>
      <trkpt lat="46.76739" lon="2.99429">
        <ele>192</ele>
        <time>2024-08-14T11:05:54Z</time>
      </trkpt>
      <trkpt lat="46.76739" lon="2.99447">
        <ele>192</ele>
        <time>2024-08-14T11:05:57Z</time>
      </trkpt>
      <trkpt lat="46.7674" lon="2.99453">
        <ele>192</ele>
        <time>2024-08-14T11:05:58Z</time>
      </trkpt>
      <trkpt lat="46.76742" lon="2.99499">
        <ele>192.2</ele>
        <time>2024-08-14T11:06:04Z</time>
      </trkpt>
      <trkpt lat="46.76745" lon="2.99552">
        <ele>192.4</ele>
        <time>2024-08-14T11:06:10Z</time>
      </trkpt>
      <trkpt lat="46.76745" lon="2.99561">
        <ele>192.6</ele>
        <time>2024-08-14T11:06:11Z</time>
      </trkpt>
      <trkpt lat="46.76744" lon="2.99613">
        <ele>192.4</ele>
        <time>2024-08-14T11:06:17Z</time>
      </trkpt>
      <trkpt lat="46.76738" lon="2.99686">
        <ele>192.4</ele>
        <time>2024-08-14T11:06:24Z</time>
      </trkpt>
      <trkpt lat="46.76731" lon="2.99775">
        <ele>191</ele>
        <time>2024-08-14T11:06:32Z</time>
      </trkpt>
      <trkpt lat="46.76736" lon="2.99852">
        <ele>190.8</ele>
        <time>2024-08-14T11:06:39Z</time>
      </trkpt>
      <trkpt lat="46.76739" lon="2.999">
        <ele>191</ele>
        <time>2024-08-14T11:06:44Z</time>
      </trkpt>
      <trkpt lat="46.76745" lon="2.99956">
        <ele>192.4</ele>
        <time>2024-08-14T11:06:51Z</time>
      </trkpt>
      <trkpt lat="46.76747" lon="3">
        <ele>193.4</ele>
        <time>2024-08-14T11:06:57Z</time>
      </trkpt>
      <trkpt lat="46.76753" lon="3.00059">
        <ele>194</ele>
        <time>2024-08-14T11:07:04Z</time>
      </trkpt>
      <trkpt lat="46.76758" lon="3.00117">
        <ele>193.8</ele>
        <time>2024-08-14T11:07:10Z</time>
      </trkpt>
      <trkpt lat="46.76759" lon="3.00125">
        <ele>193.6</ele>
        <time>2024-08-14T11:07:11Z</time>
      </trkpt>
      <trkpt lat="46.76764" lon="3.00182">
        <ele>193</ele>
        <time>2024-08-14T11:07:16Z</time>
      </trkpt>
      <trkpt lat="46.7677" lon="3.00249">
        <ele>192.4</ele>
        <time>2024-08-14T11:07:22Z</time>
      </trkpt>
      <trkpt lat="46.76774" lon="3.00296">
        <ele>191.6</ele>
        <time>2024-08-14T11:07:26Z</time>
      </trkpt>
      <trkpt lat="46.76775" lon="3.00307">
        <ele>191.2</ele>
        <time>2024-08-14T11:07:27Z</time>
      </trkpt>
      <trkpt lat="46.76779" lon="3.00367">
        <ele>190</ele>
        <time>2024-08-14T11:07:32Z</time>
      </trkpt>
      <trkpt lat="46.76781" lon="3.00392">
        <ele>189.2</ele>
        <time>2024-08-14T11:07:34Z</time>
      </trkpt>
      <trkpt lat="46.76784" lon="3.0043">
        <ele>188.6</ele>
        <time>2024-08-14T11:07:37Z</time>
      </trkpt>
      <trkpt lat="46.76786" lon="3.00476">
        <ele>187.8</ele>
        <time>2024-08-14T11:07:41Z</time>
      </trkpt>
      <trkpt lat="46.76788" lon="3.00536">
        <ele>188.2</ele>
        <time>2024-08-14T11:07:47Z</time>
      </trkpt>
      <trkpt lat="46.76791" lon="3.00588">
        <ele>189.2</ele>
        <time>2024-08-14T11:07:53Z</time>
      </trkpt>
      <trkpt lat="46.76795" lon="3.00665">
        <ele>189.6</ele>
        <time>2024-08-14T11:08:01Z</time>
      </trkpt>
      <trkpt lat="46.76797" lon="3.00704">
        <ele>189.8</ele>
        <time>2024-08-14T11:08:05Z</time>
      </trkpt>
      <trkpt lat="46.76798" lon="3.00722">
        <ele>189.8</ele>
        <time>2024-08-14T11:08:07Z</time>
      </trkpt>
      <trkpt lat="46.76801" lon="3.00801">
        <ele>189.2</ele>
        <time>2024-08-14T11:08:14Z</time>
      </trkpt>
      <trkpt lat="46.76801" lon="3.00809">
        <ele>188.8</ele>
        <time>2024-08-14T11:08:15Z</time>
      </trkpt>
      <trkpt lat="46.76802" lon="3.00894">
        <ele>188</ele>
        <time>2024-08-14T11:08:23Z</time>
      </trkpt>
      <trkpt lat="46.76801" lon="3.00913">
        <ele>187.6</ele>
        <time>2024-08-14T11:08:25Z</time>
      </trkpt>
      <trkpt lat="46.76798" lon="3.00998">
        <ele>187.2</ele>
        <time>2024-08-14T11:08:33Z</time>
      </trkpt>
      <trkpt lat="46.76791" lon="3.01078">
        <ele>187.2</ele>
        <time>2024-08-14T11:08:41Z</time>
      </trkpt>
      <trkpt lat="46.7679" lon="3.01098">
        <ele>187.2</ele>
        <time>2024-08-14T11:08:43Z</time>
      </trkpt>
      <trkpt lat="46.7679" lon="3.0116">
        <ele>187.4</ele>
        <time>2024-08-14T11:08:49Z</time>
      </trkpt>
      <trkpt lat="46.768" lon="3.01239">
        <ele>187.4</ele>
        <time>2024-08-14T11:08:57Z</time>
      </trkpt>
      <trkpt lat="46.768" lon="3.01252">
        <ele>187.2</ele>
        <time>2024-08-14T11:08:58Z</time>
      </trkpt>
      <trkpt lat="46.76798" lon="3.01283">
        <ele>187</ele>
        <time>2024-08-14T11:09:01Z</time>
      </trkpt>
      <trkpt lat="46.76788" lon="3.01362">
        <ele>186.8</ele>
        <time>2024-08-14T11:09:09Z</time>
      </trkpt>
      <trkpt lat="46.7678" lon="3.01434">
        <ele>186.6</ele>
        <time>2024-08-14T11:09:16Z</time>
      </trkpt>
      <trkpt lat="46.76778" lon="3.01462">
        <ele>186.4</ele>
        <time>2024-08-14T11:09:19Z</time>
      </trkpt>
      <trkpt lat="46.76777" lon="3.01515">
        <ele>186.8</ele>
        <time>2024-08-14T11:09:25Z</time>
      </trkpt>
      <trkpt lat="46.76774" lon="3.01598">
        <ele>187</ele>
        <time>2024-08-14T11:09:34Z</time>
      </trkpt>
      <trkpt lat="46.76769" lon="3.01642">
        <ele>187</ele>
        <time>2024-08-14T11:09:39Z</time>
      </trkpt>
      <trkpt lat="46.76768" lon="3.01652">
        <ele>187</ele>
        <time>2024-08-14T11:09:40Z</time>
      </trkpt>
      <trkpt lat="46.76762" lon="3.01694">
        <ele>187.6</ele>
        <time>2024-08-14T11:09:45Z</time>
      </trkpt>
      <trkpt lat="46.76761" lon="3.01702">
        <ele>187.8</ele>
        <time>2024-08-14T11:09:46Z</time>
      </trkpt>
      <trkpt lat="46.76754" lon="3.01742">
        <ele>188</ele>
        <time>2024-08-14T11:09:51Z</time>
      </trkpt>
      <trkpt lat="46.76754" lon="3.0175">
        <ele>188</ele>
        <time>2024-08-14T11:09:52Z</time>
      </trkpt>
      <trkpt lat="46.76748" lon="3.01784">
        <ele>188.6</ele>
        <time>2024-08-14T11:09:56Z</time>
      </trkpt>
      <trkpt lat="46.76744" lon="3.01819">
        <ele>189.2</ele>
        <time>2024-08-14T11:10:00Z</time>
      </trkpt>
      <trkpt lat="46.76737" lon="3.01875">
        <ele>189.4</ele>
        <time>2024-08-14T11:10:07Z</time>
      </trkpt>
      <trkpt lat="46.76735" lon="3.01886">
        <ele>189.4</ele>
        <time>2024-08-14T11:10:08Z</time>
      </trkpt>
      <trkpt lat="46.76734" lon="3.01903">
        <ele>189.8</ele>
        <time>2024-08-14T11:10:10Z</time>
      </trkpt>
      <trkpt lat="46.76731" lon="3.01928">
        <ele>190.2</ele>
        <time>2024-08-14T11:10:13Z</time>
      </trkpt>
      <trkpt lat="46.76727" lon="3.01986">
        <ele>191</ele>
        <time>2024-08-14T11:10:20Z</time>
      </trkpt>
      <trkpt lat="46.76724" lon="3.02011">
        <ele>191.2</ele>
        <time>2024-08-14T11:10:23Z</time>
      </trkpt>
      <trkpt lat="46.76715" lon="3.02079">
        <ele>191.6</ele>
        <time>2024-08-14T11:10:31Z</time>
      </trkpt>
      <trkpt lat="46.76698" lon="3.02137">
        <ele>191.6</ele>
        <time>2024-08-14T11:10:38Z</time>
      </trkpt>
      <trkpt lat="46.76674" lon="3.02215">
        <ele>191.6</ele>
        <time>2024-08-14T11:10:47Z</time>
      </trkpt>
      <trkpt lat="46.76675" lon="3.02232">
        <ele>191.6</ele>
        <time>2024-08-14T11:10:49Z</time>
      </trkpt>
      <trkpt lat="46.76678" lon="3.0224">
        <ele>191.6</ele>
        <time>2024-08-14T11:10:50Z</time>
      </trkpt>
      <trkpt lat="46.76683" lon="3.02246">
        <ele>191.6</ele>
        <time>2024-08-14T11:10:51Z</time>
      </trkpt>
      <trkpt lat="46.76703" lon="3.02271">
        <ele>191.4</ele>
        <time>2024-08-14T11:10:55Z</time>
      </trkpt>
      <trkpt lat="46.76746" lon="3.0232">
        <ele>191.2</ele>
        <time>2024-08-14T11:11:03Z</time>
      </trkpt>
      <trkpt lat="46.76752" lon="3.02325">
        <ele>191.2</ele>
        <time>2024-08-14T11:11:04Z</time>
      </trkpt>
      <trkpt lat="46.76771" lon="3.02342">
        <ele>190.8</ele>
        <time>2024-08-14T11:11:07Z</time>
      </trkpt>
      <trkpt lat="46.76804" lon="3.02371">
        <ele>190</ele>
        <time>2024-08-14T11:11:12Z</time>
      </trkpt>
      <trkpt lat="46.76811" lon="3.02378">
        <ele>190</ele>
        <time>2024-08-14T11:11:13Z</time>
      </trkpt>
      <trkpt lat="46.76846" lon="3.02413">
        <ele>188.8</ele>
        <time>2024-08-14T11:11:18Z</time>
      </trkpt>
      <trkpt lat="46.7686" lon="3.02427">
        <ele>188.2</ele>
        <time>2024-08-14T11:11:20Z</time>
      </trkpt>
      <trkpt lat="46.76868" lon="3.02432">
        <ele>187.6</ele>
        <time>2024-08-14T11:11:21Z</time>
      </trkpt>
      <trkpt lat="46.7689" lon="3.02444">
        <ele>186.8</ele>
        <time>2024-08-14T11:11:24Z</time>
      </trkpt>
      <trkpt lat="46.76904" lon="3.0245">
        <ele>186.6</ele>
        <time>2024-08-14T11:11:26Z</time>
      </trkpt>
      <trkpt lat="46.76922" lon="3.02459">
        <ele>186.6</ele>
        <time>2024-08-14T11:11:29Z</time>
      </trkpt>
      <trkpt lat="46.76953" lon="3.02486">
        <ele>187.8</ele>
        <time>2024-08-14T11:11:35Z</time>
      </trkpt>
      <trkpt lat="46.76968" lon="3.02503">
        <ele>188.4</ele>
        <time>2024-08-14T11:11:39Z</time>
      </trkpt>
      <trkpt lat="46.7697" lon="3.02508">
        <ele>188.6</ele>
        <time>2024-08-14T11:11:40Z</time>
      </trkpt>
      <trkpt lat="46.7697" lon="3.02519">
        <ele>188.6</ele>
        <time>2024-08-14T11:11:42Z</time>
      </trkpt>
      <trkpt lat="46.76968" lon="3.02524">
        <ele>188.8</ele>
        <time>2024-08-14T11:11:43Z</time>
      </trkpt>
      <trkpt lat="46.76957" lon="3.02539">
        <ele>188.8</ele>
        <time>2024-08-14T11:11:46Z</time>
      </trkpt>
      <trkpt lat="46.76952" lon="3.02545">
        <ele>188.8</ele>
        <time>2024-08-14T11:11:47Z</time>
      </trkpt>
      <trkpt lat="46.76919" lon="3.02582">
        <ele>188.4</ele>
        <time>2024-08-14T11:11:53Z</time>
      </trkpt>
      <trkpt lat="46.76882" lon="3.02614">
        <ele>188.2</ele>
        <time>2024-08-14T11:11:59Z</time>
      </trkpt>
      <trkpt lat="46.76836" lon="3.02637">
        <ele>188.4</ele>
        <time>2024-08-14T11:12:06Z</time>
      </trkpt>
      <trkpt lat="46.768" lon="3.02649">
        <ele>188.8</ele>
        <time>2024-08-14T11:12:12Z</time>
      </trkpt>
      <trkpt lat="46.76764" lon="3.02651">
        <ele>189.4</ele>
        <time>2024-08-14T11:12:18Z</time>
      </trkpt>
      <trkpt lat="46.76745" lon="3.02652">
        <ele>189.8</ele>
        <time>2024-08-14T11:12:21Z</time>
      </trkpt>
      <trkpt lat="46.76733" lon="3.02655">
        <ele>189.8</ele>
        <time>2024-08-14T11:12:23Z</time>
      </trkpt>
      <trkpt lat="46.76722" lon="3.02661">
        <ele>190</ele>
        <time>2024-08-14T11:12:25Z</time>
      </trkpt>
      <trkpt lat="46.76687" lon="3.02689">
        <ele>190</ele>
        <time>2024-08-14T11:12:31Z</time>
      </trkpt>
      <trkpt lat="46.76643" lon="3.02726">
        <ele>190</ele>
        <time>2024-08-14T11:12:39Z</time>
      </trkpt>
      <trkpt lat="46.76638" lon="3.02731">
        <ele>190</ele>
        <time>2024-08-14T11:12:40Z</time>
      </trkpt>
      <trkpt lat="46.76612" lon="3.02754">
        <ele>190.2</ele>
        <time>2024-08-14T11:12:45Z</time>
      </trkpt>
      <trkpt lat="46.76608" lon="3.0276">
        <ele>190.2</ele>
        <time>2024-08-14T11:12:46Z</time>
      </trkpt>
      <trkpt lat="46.76604" lon="3.02766">
        <ele>190.4</ele>
        <time>2024-08-14T11:12:47Z</time>
      </trkpt>
      <trkpt lat="46.76594" lon="3.02788">
        <ele>190.6</ele>
        <time>2024-08-14T11:12:50Z</time>
      </trkpt>
      <trkpt lat="46.76587" lon="3.02811">
        <ele>190.8</ele>
        <time>2024-08-14T11:12:53Z</time>
      </trkpt>
      <trkpt lat="46.76581" lon="3.02833">
        <ele>191.2</ele>
        <time>2024-08-14T11:12:56Z</time>
      </trkpt>
      <trkpt lat="46.76571" lon="3.0288">
        <ele>191.8</ele>
        <time>2024-08-14T11:13:02Z</time>
      </trkpt>
      <trkpt lat="46.76557" lon="3.02941">
        <ele>191.8</ele>
        <time>2024-08-14T11:13:09Z</time>
      </trkpt>
      <trkpt lat="46.76552" lon="3.02965">
        <ele>191.6</ele>
        <time>2024-08-14T11:13:11Z</time>
      </trkpt>
      <trkpt lat="46.76551" lon="3.02978">
        <ele>191.2</ele>
        <time>2024-08-14T11:13:12Z</time>
      </trkpt>
      <trkpt lat="46.76549" lon="3.03019">
        <ele>189.8</ele>
        <time>2024-08-14T11:13:15Z</time>
      </trkpt>
      <trkpt lat="46.76547" lon="3.0305">
        <ele>188.4</ele>
        <time>2024-08-14T11:13:17Z</time>
      </trkpt>
      <trkpt lat="46.76544" lon="3.03065">
        <ele>187.4</ele>
        <time>2024-08-14T11:13:18Z</time>
      </trkpt>
      <trkpt lat="46.76539" lon="3.03077">
        <ele>186.2</ele>
        <time>2024-08-14T11:13:19Z</time>
      </trkpt>
      <trkpt lat="46.76531" lon="3.03088">
        <ele>185.8</ele>
        <time>2024-08-14T11:13:20Z</time>
      </trkpt>
      <trkpt lat="46.76522" lon="3.03097">
        <ele>184.8</ele>
        <time>2024-08-14T11:13:21Z</time>
      </trkpt>
      <trkpt lat="46.76501" lon="3.03107">
        <ele>182.6</ele>
        <time>2024-08-14T11:13:23Z</time>
      </trkpt>
      <trkpt lat="46.76479" lon="3.03106">
        <ele>180.6</ele>
        <time>2024-08-14T11:13:25Z</time>
      </trkpt>
      <trkpt lat="46.76469" lon="3.03103">
        <ele>179.8</ele>
        <time>2024-08-14T11:13:26Z</time>
      </trkpt>
      <trkpt lat="46.76459" lon="3.03099">
        <ele>178.6</ele>
        <time>2024-08-14T11:13:27Z</time>
      </trkpt>
      <trkpt lat="46.76448" lon="3.03096">
        <ele>177.4</ele>
        <time>2024-08-14T11:13:28Z</time>
      </trkpt>
      <trkpt lat="46.76417" lon="3.03083">
        <ele>175.8</ele>
        <time>2024-08-14T11:13:31Z</time>
      </trkpt>
      <trkpt lat="46.76406" lon="3.03078">
        <ele>174.8</ele>
        <time>2024-08-14T11:13:32Z</time>
      </trkpt>
      <trkpt lat="46.76398" lon="3.03075">
        <ele>174.4</ele>
        <time>2024-08-14T11:13:33Z</time>
      </trkpt>
      <trkpt lat="46.76385" lon="3.03071">
        <ele>173.2</ele>
        <time>2024-08-14T11:13:34Z</time>
      </trkpt>
      <trkpt lat="46.76365" lon="3.03065">
        <ele>171.6</ele>
        <time>2024-08-14T11:13:36Z</time>
      </trkpt>
      <trkpt lat="46.76357" lon="3.03062">
        <ele>170.6</ele>
        <time>2024-08-14T11:13:37Z</time>
      </trkpt>
      <trkpt lat="46.7635" lon="3.03059">
        <ele>170</ele>
        <time>2024-08-14T11:13:38Z</time>
      </trkpt>
      <trkpt lat="46.76343" lon="3.03057">
        <ele>169.4</ele>
        <time>2024-08-14T11:13:39Z</time>
      </trkpt>
      <trkpt lat="46.76338" lon="3.03056">
        <ele>169.2</ele>
        <time>2024-08-14T11:13:40Z</time>
      </trkpt>
      <trkpt lat="46.76333" lon="3.03055">
        <ele>169</ele>
        <time>2024-08-14T11:13:41Z</time>
      </trkpt>
      <trkpt lat="46.76322" lon="3.03061">
        <ele>168.6</ele>
        <time>2024-08-14T11:13:43Z</time>
      </trkpt>
      <trkpt lat="46.76311" lon="3.03083">
        <ele>168.4</ele>
        <time>2024-08-14T11:13:46Z</time>
      </trkpt>
      <trkpt lat="46.76302" lon="3.03097">
        <ele>168.2</ele>
        <time>2024-08-14T11:13:48Z</time>
      </trkpt>
      <trkpt lat="46.7629" lon="3.03107">
        <ele>168.2</ele>
        <time>2024-08-14T11:13:50Z</time>
      </trkpt>
      <trkpt lat="46.76253" lon="3.03127">
        <ele>168.2</ele>
        <time>2024-08-14T11:13:56Z</time>
      </trkpt>
      <trkpt lat="46.76198" lon="3.03154">
        <ele>168</ele>
        <time>2024-08-14T11:14:04Z</time>
      </trkpt>
      <trkpt lat="46.76184" lon="3.03161">
        <ele>168</ele>
        <time>2024-08-14T11:14:06Z</time>
      </trkpt>
      <trkpt lat="46.76135" lon="3.03194">
        <ele>168.4</ele>
        <time>2024-08-14T11:14:14Z</time>
      </trkpt>
      <trkpt lat="46.76084" lon="3.03232">
        <ele>168.8</ele>
        <time>2024-08-14T11:14:22Z</time>
      </trkpt>
      <trkpt lat="46.7604" lon="3.03267">
        <ele>168.4</ele>
        <time>2024-08-14T11:14:29Z</time>
      </trkpt>
      <trkpt lat="46.76028" lon="3.03279">
        <ele>168.2</ele>
        <time>2024-08-14T11:14:31Z</time>
      </trkpt>
      <trkpt lat="46.76011" lon="3.03301">
        <ele>168</ele>
        <time>2024-08-14T11:14:34Z</time>
      </trkpt>
      <trkpt lat="46.75981" lon="3.03349">
        <ele>167.6</ele>
        <time>2024-08-14T11:14:40Z</time>
      </trkpt>
      <trkpt lat="46.75977" lon="3.03357">
        <ele>167.2</ele>
        <time>2024-08-14T11:14:41Z</time>
      </trkpt>
      <trkpt lat="46.75949" lon="3.03404">
        <ele>166.6</ele>
        <time>2024-08-14T11:14:47Z</time>
      </trkpt>
      <trkpt lat="46.7593" lon="3.03436">
        <ele>166.2</ele>
        <time>2024-08-14T11:14:51Z</time>
      </trkpt>
      <trkpt lat="46.75892" lon="3.03498">
        <ele>166</ele>
        <time>2024-08-14T11:14:59Z</time>
      </trkpt>
      <trkpt lat="46.75884" lon="3.03514">
        <ele>166</ele>
        <time>2024-08-14T11:15:01Z</time>
      </trkpt>
      <trkpt lat="46.75867" lon="3.03543">
        <ele>166.2</ele>
        <time>2024-08-14T11:15:05Z</time>
      </trkpt>
      <trkpt lat="46.75835" lon="3.03592">
        <ele>166.4</ele>
        <time>2024-08-14T11:15:12Z</time>
      </trkpt>
      <trkpt lat="46.75806" lon="3.03641">
        <ele>166.6</ele>
        <time>2024-08-14T11:15:19Z</time>
      </trkpt>
      <trkpt lat="46.75775" lon="3.03693">
        <ele>166.6</ele>
        <time>2024-08-14T11:15:26Z</time>
      </trkpt>
      <trkpt lat="46.75752" lon="3.03739">
        <ele>166.8</ele>
        <time>2024-08-14T11:15:32Z</time>
      </trkpt>
      <trkpt lat="46.75729" lon="3.03787">
        <ele>167</ele>
        <time>2024-08-14T11:15:38Z</time>
      </trkpt>
      <trkpt lat="46.75725" lon="3.03795">
        <ele>167</ele>
        <time>2024-08-14T11:15:39Z</time>
      </trkpt>
      <trkpt lat="46.75695" lon="3.03855">
        <ele>167</ele>
        <time>2024-08-14T11:15:47Z</time>
      </trkpt>
      <trkpt lat="46.75673" lon="3.03906">
        <ele>167.2</ele>
        <time>2024-08-14T11:15:54Z</time>
      </trkpt>
      <trkpt lat="46.75665" lon="3.03936">
        <ele>167.6</ele>
        <time>2024-08-14T11:15:58Z</time>
      </trkpt>
      <trkpt lat="46.75663" lon="3.03942">
        <ele>167.6</ele>
        <time>2024-08-14T11:15:59Z</time>
      </trkpt>
      <trkpt lat="46.7566" lon="3.03949">
        <ele>167.6</ele>
        <time>2024-08-14T11:16:00Z</time>
      </trkpt>
      <trkpt lat="46.75656" lon="3.03954">
        <ele>167.8</ele>
        <time>2024-08-14T11:16:01Z</time>
      </trkpt>
      <trkpt lat="46.75641" lon="3.03973">
        <ele>168.2</ele>
        <time>2024-08-14T11:16:05Z</time>
      </trkpt>
      <trkpt lat="46.75634" lon="3.03984">
        <ele>168.4</ele>
        <time>2024-08-14T11:16:07Z</time>
      </trkpt>
      <trkpt lat="46.7563" lon="3.03997">
        <ele>168.6</ele>
        <time>2024-08-14T11:16:09Z</time>
      </trkpt>
      <trkpt lat="46.7563" lon="3.04005">
        <ele>168.6</ele>
        <time>2024-08-14T11:16:10Z</time>
      </trkpt>
      <trkpt lat="46.75628" lon="3.04044">
        <ele>168.8</ele>
        <time>2024-08-14T11:16:15Z</time>
      </trkpt>
      <trkpt lat="46.75628" lon="3.04052">
        <ele>168.8</ele>
        <time>2024-08-14T11:16:16Z</time>
      </trkpt>
      <trkpt lat="46.7563" lon="3.0406">
        <ele>168.8</ele>
        <time>2024-08-14T11:16:17Z</time>
      </trkpt>
      <trkpt lat="46.75633" lon="3.04076">
        <ele>168.6</ele>
        <time>2024-08-14T11:16:19Z</time>
      </trkpt>
      <trkpt lat="46.75634" lon="3.04083">
        <ele>168.6</ele>
        <time>2024-08-14T11:16:20Z</time>
      </trkpt>
      <trkpt lat="46.75638" lon="3.0415">
        <ele>168.2</ele>
        <time>2024-08-14T11:16:28Z</time>
      </trkpt>
      <trkpt lat="46.75638" lon="3.04159">
        <ele>168</ele>
        <time>2024-08-14T11:16:29Z</time>
      </trkpt>
      <trkpt lat="46.75636" lon="3.04191">
        <ele>168</ele>
        <time>2024-08-14T11:16:33Z</time>
      </trkpt>
      <trkpt lat="46.75627" lon="3.04256">
        <ele>167.8</ele>
        <time>2024-08-14T11:16:40Z</time>
      </trkpt>
      <trkpt lat="46.75624" lon="3.04284">
        <ele>168</ele>
        <time>2024-08-14T11:16:42Z</time>
      </trkpt>
      <trkpt lat="46.75625" lon="3.04312">
        <ele>168</ele>
        <time>2024-08-14T11:16:45Z</time>
      </trkpt>
      <trkpt lat="46.75642" lon="3.04354">
        <ele>167.6</ele>
        <time>2024-08-14T11:16:50Z</time>
      </trkpt>
      <trkpt lat="46.75646" lon="3.04361">
        <ele>167.4</ele>
        <time>2024-08-14T11:16:51Z</time>
      </trkpt>
      <trkpt lat="46.75669" lon="3.04404">
        <ele>166.8</ele>
        <time>2024-08-14T11:16:56Z</time>
      </trkpt>
      <trkpt lat="46.75678" lon="3.04446">
        <ele>166.2</ele>
        <time>2024-08-14T11:17:00Z</time>
      </trkpt>
      <trkpt lat="46.75678" lon="3.04468">
        <ele>166</ele>
        <time>2024-08-14T11:17:02Z</time>
      </trkpt>
      <trkpt lat="46.75677" lon="3.04489">
        <ele>165.8</ele>
        <time>2024-08-14T11:17:04Z</time>
      </trkpt>
      <trkpt lat="46.75675" lon="3.045">
        <ele>165.6</ele>
        <time>2024-08-14T11:17:05Z</time>
      </trkpt>
      <trkpt lat="46.75667" lon="3.04528">
        <ele>165.2</ele>
        <time>2024-08-14T11:17:08Z</time>
      </trkpt>
      <trkpt lat="46.75664" lon="3.04537">
        <ele>165</ele>
        <time>2024-08-14T11:17:09Z</time>
      </trkpt>
      <trkpt lat="46.75656" lon="3.04576">
        <ele>164.8</ele>
        <time>2024-08-14T11:17:13Z</time>
      </trkpt>
      <trkpt lat="46.75655" lon="3.04586">
        <ele>164.8</ele>
        <time>2024-08-14T11:17:14Z</time>
      </trkpt>
      <trkpt lat="46.75655" lon="3.04606">
        <ele>164.8</ele>
        <time>2024-08-14T11:17:16Z</time>
      </trkpt>
      <trkpt lat="46.75657" lon="3.04638">
        <ele>165</ele>
        <time>2024-08-14T11:17:19Z</time>
      </trkpt>
      <trkpt lat="46.75664" lon="3.04678">
        <ele>165</ele>
        <time>2024-08-14T11:17:23Z</time>
      </trkpt>
      <trkpt lat="46.75666" lon="3.04687">
        <ele>165.2</ele>
        <time>2024-08-14T11:17:25Z</time>
      </trkpt>
      <trkpt lat="46.75672" lon="3.04703">
        <ele>165.2</ele>
        <time>2024-08-14T11:17:26Z</time>
      </trkpt>
      <trkpt lat="46.75683" lon="3.04724">
        <ele>165.6</ele>
        <time>2024-08-14T11:17:29Z</time>
      </trkpt>
      <trkpt lat="46.75703" lon="3.04761">
        <ele>166.4</ele>
        <time>2024-08-14T11:17:35Z</time>
      </trkpt>
      <trkpt lat="46.75709" lon="3.04774">
        <ele>166.8</ele>
        <time>2024-08-14T11:17:37Z</time>
      </trkpt>
      <trkpt lat="46.75719" lon="3.04793">
        <ele>167.2</ele>
        <time>2024-08-14T11:17:40Z</time>
      </trkpt>
      <trkpt lat="46.75723" lon="3.04798">
        <ele>167.4</ele>
        <time>2024-08-14T11:17:41Z</time>
      </trkpt>
      <trkpt lat="46.75731" lon="3.04809">
        <ele>167.6</ele>
        <time>2024-08-14T11:17:43Z</time>
      </trkpt>
      <trkpt lat="46.75746" lon="3.0483">
        <ele>168.4</ele>
        <time>2024-08-14T11:17:47Z</time>
      </trkpt>
      <trkpt lat="46.75767" lon="3.04856">
        <ele>169.6</ele>
        <time>2024-08-14T11:17:52Z</time>
      </trkpt>
      <trkpt lat="46.7579" lon="3.0489">
        <ele>171</ele>
        <time>2024-08-14T11:17:58Z</time>
      </trkpt>
      <trkpt lat="46.75803" lon="3.04906">
        <ele>171.8</ele>
        <time>2024-08-14T11:18:01Z</time>
      </trkpt>
      <trkpt lat="46.75803" lon="3.04906">
        <ele>172</ele>
        <time>2024-08-14T11:18:02Z</time>
      </trkpt>
      <trkpt lat="46.75843" lon="3.04958">
        <ele>172.8</ele>
        <time>2024-08-14T11:18:10Z</time>
      </trkpt>
      <trkpt lat="46.75883" lon="3.05009">
        <ele>172.4</ele>
        <time>2024-08-14T11:18:18Z</time>
      </trkpt>
      <trkpt lat="46.75898" lon="3.05025">
        <ele>172</ele>
        <time>2024-08-14T11:18:21Z</time>
      </trkpt>
      <trkpt lat="46.75903" lon="3.05026">
        <ele>171.8</ele>
        <time>2024-08-14T11:18:22Z</time>
      </trkpt>
      <trkpt lat="46.75908" lon="3.05024">
        <ele>171.6</ele>
        <time>2024-08-14T11:18:23Z</time>
      </trkpt>
      <trkpt lat="46.75917" lon="3.05012">
        <ele>171</ele>
        <time>2024-08-14T11:18:25Z</time>
      </trkpt>
      <trkpt lat="46.75936" lon="3.0498">
        <ele>170</ele>
        <time>2024-08-14T11:18:29Z</time>
      </trkpt>
      <trkpt lat="46.75948" lon="3.04963">
        <ele>169.6</ele>
        <time>2024-08-14T11:18:31Z</time>
      </trkpt>
      <trkpt lat="46.75961" lon="3.04948">
        <ele>168.6</ele>
        <time>2024-08-14T11:18:33Z</time>
      </trkpt>
      <trkpt lat="46.75975" lon="3.04934">
        <ele>167.6</ele>
        <time>2024-08-14T11:18:35Z</time>
      </trkpt>
      <trkpt lat="46.75982" lon="3.04929">
        <ele>167.2</ele>
        <time>2024-08-14T11:18:36Z</time>
      </trkpt>
      <trkpt lat="46.75982" lon="3.04929">
        <ele>166.2</ele>
        <time>2024-08-14T11:18:37Z</time>
      </trkpt>
      <trkpt lat="46.76002" lon="3.04913">
        <ele>165.6</ele>
        <time>2024-08-14T11:18:39Z</time>
      </trkpt>
      <trkpt lat="46.76015" lon="3.04904">
        <ele>165</ele>
        <time>2024-08-14T11:18:41Z</time>
      </trkpt>
      <trkpt lat="46.76021" lon="3.04899">
        <ele>164.8</ele>
        <time>2024-08-14T11:18:42Z</time>
      </trkpt>
      <trkpt lat="46.76061" lon="3.0486">
        <ele>165</ele>
        <time>2024-08-14T11:18:49Z</time>
      </trkpt>
      <trkpt lat="46.76088" lon="3.04831">
        <ele>165</ele>
        <time>2024-08-14T11:18:54Z</time>
      </trkpt>
      <trkpt lat="46.76098" lon="3.0482">
        <ele>165</ele>
        <time>2024-08-14T11:18:56Z</time>
      </trkpt>
      <trkpt lat="46.7612" lon="3.04795">
        <ele>165.2</ele>
        <time>2024-08-14T11:19:00Z</time>
      </trkpt>
      <trkpt lat="46.76125" lon="3.04789">
        <ele>165.4</ele>
        <time>2024-08-14T11:19:01Z</time>
      </trkpt>
      <trkpt lat="46.76131" lon="3.04784">
        <ele>165.2</ele>
        <time>2024-08-14T11:19:02Z</time>
      </trkpt>
      <trkpt lat="46.76172" lon="3.04744">
        <ele>165</ele>
        <time>2024-08-14T11:19:09Z</time>
      </trkpt>
      <trkpt lat="46.76218" lon="3.04697">
        <ele>164.2</ele>
        <time>2024-08-14T11:19:17Z</time>
      </trkpt>
      <trkpt lat="46.76269" lon="3.04662">
        <ele>164.2</ele>
        <time>2024-08-14T11:19:25Z</time>
      </trkpt>
      <trkpt lat="46.76282" lon="3.04654">
        <ele>164.2</ele>
        <time>2024-08-14T11:19:27Z</time>
      </trkpt>
      <trkpt lat="46.76339" lon="3.04621">
        <ele>164.2</ele>
        <time>2024-08-14T11:19:36Z</time>
      </trkpt>
      <trkpt lat="46.76345" lon="3.04618">
        <ele>164.2</ele>
        <time>2024-08-14T11:19:38Z</time>
      </trkpt>
      <trkpt lat="46.76397" lon="3.04592">
        <ele>164.2</ele>
        <time>2024-08-14T11:19:45Z</time>
      </trkpt>
      <trkpt lat="46.76404" lon="3.04589">
        <ele>164.2</ele>
        <time>2024-08-14T11:19:46Z</time>
      </trkpt>
      <trkpt lat="46.76417" lon="3.04583">
        <ele>164.2</ele>
        <time>2024-08-14T11:19:48Z</time>
      </trkpt>
      <trkpt lat="46.76436" lon="3.04576">
        <ele>164</ele>
        <time>2024-08-14T11:19:51Z</time>
      </trkpt>
      <trkpt lat="46.76455" lon="3.04569">
        <ele>164</ele>
        <time>2024-08-14T11:19:54Z</time>
      </trkpt>
      <trkpt lat="46.76514" lon="3.04556">
        <ele>164</ele>
        <time>2024-08-14T11:20:03Z</time>
      </trkpt>
      <trkpt lat="46.76574" lon="3.04549">
        <ele>164.2</ele>
        <time>2024-08-14T11:20:12Z</time>
      </trkpt>
      <trkpt lat="46.76586" lon="3.0455">
        <ele>164.2</ele>
        <time>2024-08-14T11:20:14Z</time>
      </trkpt>
      <trkpt lat="46.76632" lon="3.04561">
        <ele>164.2</ele>
        <time>2024-08-14T11:20:21Z</time>
      </trkpt>
      <trkpt lat="46.76682" lon="3.04572">
        <ele>164.4</ele>
        <time>2024-08-14T11:20:29Z</time>
      </trkpt>
      <trkpt lat="46.76726" lon="3.04573">
        <ele>164.8</ele>
        <time>2024-08-14T11:20:35Z</time>
      </trkpt>
      <trkpt lat="46.76784" lon="3.04575">
        <ele>164.2</ele>
        <time>2024-08-14T11:20:43Z</time>
      </trkpt>
      <trkpt lat="46.76791" lon="3.04575">
        <ele>164.2</ele>
        <time>2024-08-14T11:20:44Z</time>
      </trkpt>
      <trkpt lat="46.7684" lon="3.0458">
        <ele>164</ele>
        <time>2024-08-14T11:20:51Z</time>
      </trkpt>
      <trkpt lat="46.76897" lon="3.04588">
        <ele>163.2</ele>
        <time>2024-08-14T11:20:59Z</time>
      </trkpt>
      <trkpt lat="46.76918" lon="3.04592">
        <ele>163</ele>
        <time>2024-08-14T11:21:02Z</time>
      </trkpt>
      <trkpt lat="46.76954" lon="3.04601">
        <ele>163</ele>
        <time>2024-08-14T11:21:07Z</time>
      </trkpt>
      <trkpt lat="46.76996" lon="3.04616">
        <ele>163</ele>
        <time>2024-08-14T11:21:13Z</time>
      </trkpt>
      <trkpt lat="46.77052" lon="3.04638">
        <ele>162.6</ele>
        <time>2024-08-14T11:21:21Z</time>
      </trkpt>
      <trkpt lat="46.77101" lon="3.04649">
        <ele>162.6</ele>
        <time>2024-08-14T11:21:28Z</time>
      </trkpt>
      <trkpt lat="46.77156" lon="3.04656">
        <ele>162.6</ele>
        <time>2024-08-14T11:21:36Z</time>
      </trkpt>
      <trkpt lat="46.77165" lon="3.0466">
        <ele>162.6</ele>
        <time>2024-08-14T11:21:37Z</time>
      </trkpt>
      <trkpt lat="46.77216" lon="3.04687">
        <ele>162.4</ele>
        <time>2024-08-14T11:21:45Z</time>
      </trkpt>
      <trkpt lat="46.77273" lon="3.04716">
        <ele>162.4</ele>
        <time>2024-08-14T11:21:53Z</time>
      </trkpt>
      <trkpt lat="46.77293" lon="3.04727">
        <ele>162.4</ele>
        <time>2024-08-14T11:21:56Z</time>
      </trkpt>
      <trkpt lat="46.77345" lon="3.04761">
        <ele>162.2</ele>
        <time>2024-08-14T11:22:04Z</time>
      </trkpt>
      <trkpt lat="46.77363" lon="3.04775">
        <ele>162</ele>
        <time>2024-08-14T11:22:07Z</time>
      </trkpt>
      <trkpt lat="46.77417" lon="3.04814">
        <ele>161.8</ele>
        <time>2024-08-14T11:22:15Z</time>
      </trkpt>
      <trkpt lat="46.77471" lon="3.04854">
        <ele>161.6</ele>
        <time>2024-08-14T11:22:23Z</time>
      </trkpt>
      <trkpt lat="46.77477" lon="3.04859">
        <ele>161.6</ele>
        <time>2024-08-14T11:22:24Z</time>
      </trkpt>
      <trkpt lat="46.77531" lon="3.04897">
        <ele>161.8</ele>
        <time>2024-08-14T11:22:32Z</time>
      </trkpt>
      <trkpt lat="46.77537" lon="3.04902">
        <ele>161.8</ele>
        <time>2024-08-14T11:22:33Z</time>
      </trkpt>
      <trkpt lat="46.7755" lon="3.04911">
        <ele>161.8</ele>
        <time>2024-08-14T11:22:35Z</time>
      </trkpt>
      <trkpt lat="46.77602" lon="3.04947">
        <ele>162.2</ele>
        <time>2024-08-14T11:22:43Z</time>
      </trkpt>
      <trkpt lat="46.77653" lon="3.04984">
        <ele>162.4</ele>
        <time>2024-08-14T11:22:51Z</time>
      </trkpt>
      <trkpt lat="46.77699" lon="3.05017">
        <ele>162.6</ele>
        <time>2024-08-14T11:22:58Z</time>
      </trkpt>
      <trkpt lat="46.77736" lon="3.05045">
        <ele>162.8</ele>
        <time>2024-08-14T11:23:04Z</time>
      </trkpt>
      <trkpt lat="46.77748" lon="3.05056">
        <ele>162.6</ele>
        <time>2024-08-14T11:23:06Z</time>
      </trkpt>
      <trkpt lat="46.77792" lon="3.05102">
        <ele>163.2</ele>
        <time>2024-08-14T11:23:14Z</time>
      </trkpt>
      <trkpt lat="46.77802" lon="3.05114">
        <ele>162.8</ele>
        <time>2024-08-14T11:23:16Z</time>
      </trkpt>
      <trkpt lat="46.77841" lon="3.05157">
        <ele>163.2</ele>
        <time>2024-08-14T11:23:23Z</time>
      </trkpt>
      <trkpt lat="46.77852" lon="3.05168">
        <ele>163.2</ele>
        <time>2024-08-14T11:23:25Z</time>
      </trkpt>
      <trkpt lat="46.77891" lon="3.05205">
        <ele>163.6</ele>
        <time>2024-08-14T11:23:32Z</time>
      </trkpt>
      <trkpt lat="46.77914" lon="3.05226">
        <ele>164</ele>
        <time>2024-08-14T11:23:36Z</time>
      </trkpt>
      <trkpt lat="46.77938" lon="3.05246">
        <ele>164</ele>
        <time>2024-08-14T11:23:41Z</time>
      </trkpt>
      <trkpt lat="46.77995" lon="3.05278">
        <ele>163.6</ele>
        <time>2024-08-14T11:23:49Z</time>
      </trkpt>
      <trkpt lat="46.77995" lon="3.05278">
        <ele>163.6</ele>
        <time>2024-08-14T11:23:50Z</time>
      </trkpt>
      <trkpt lat="46.78051" lon="3.05307">
        <ele>163.4</ele>
        <time>2024-08-14T11:23:58Z</time>
      </trkpt>
      <trkpt lat="46.78059" lon="3.05311">
        <ele>163.4</ele>
        <time>2024-08-14T11:23:59Z</time>
      </trkpt>
      <trkpt lat="46.78111" lon="3.05339">
        <ele>163.4</ele>
        <time>2024-08-14T11:24:07Z</time>
      </trkpt>
      <trkpt lat="46.78131" lon="3.0535">
        <ele>163.4</ele>
        <time>2024-08-14T11:24:10Z</time>
      </trkpt>
      <trkpt lat="46.78165" lon="3.05366">
        <ele>163.6</ele>
        <time>2024-08-14T11:24:15Z</time>
      </trkpt>
      <trkpt lat="46.78186" lon="3.05374">
        <ele>163.6</ele>
        <time>2024-08-14T11:24:18Z</time>
      </trkpt>
      <trkpt lat="46.78244" lon="3.05393">
        <ele>163.2</ele>
        <time>2024-08-14T11:24:26Z</time>
      </trkpt>
      <trkpt lat="46.78258" lon="3.05398">
        <ele>163.2</ele>
        <time>2024-08-14T11:24:28Z</time>
      </trkpt>
      <trkpt lat="46.78313" lon="3.05426">
        <ele>163.2</ele>
        <time>2024-08-14T11:24:36Z</time>
      </trkpt>
      <trkpt lat="46.78342" lon="3.05456">
        <ele>163.4</ele>
        <time>2024-08-14T11:24:42Z</time>
      </trkpt>
      <trkpt lat="46.78387" lon="3.05504">
        <ele>163.6</ele>
        <time>2024-08-14T11:24:49Z</time>
      </trkpt>
      <trkpt lat="46.78411" lon="3.05524">
        <ele>163.6</ele>
        <time>2024-08-14T11:24:53Z</time>
      </trkpt>
      <trkpt lat="46.78425" lon="3.05532">
        <ele>163.8</ele>
        <time>2024-08-14T11:24:55Z</time>
      </trkpt>
      <trkpt lat="46.78444" lon="3.05541">
        <ele>163.8</ele>
        <time>2024-08-14T11:24:58Z</time>
      </trkpt>
      <trkpt lat="46.78481" lon="3.05559">
        <ele>163.8</ele>
        <time>2024-08-14T11:25:04Z</time>
      </trkpt>
      <trkpt lat="46.78511" lon="3.05574">
        <ele>164.4</ele>
        <time>2024-08-14T11:25:09Z</time>
      </trkpt>
      <trkpt lat="46.78534" lon="3.05585">
        <ele>165</ele>
        <time>2024-08-14T11:25:13Z</time>
      </trkpt>
      <trkpt lat="46.78551" lon="3.05592">
        <ele>165.2</ele>
        <time>2024-08-14T11:25:16Z</time>
      </trkpt>
      <trkpt lat="46.78572" lon="3.05601">
        <ele>165.6</ele>
        <time>2024-08-14T11:25:20Z</time>
      </trkpt>
      <trkpt lat="46.78578" lon="3.05604">
        <ele>165.6</ele>
        <time>2024-08-14T11:25:21Z</time>
      </trkpt>
      <trkpt lat="46.78594" lon="3.05606">
        <ele>166</ele>
        <time>2024-08-14T11:25:24Z</time>
      </trkpt>
      <trkpt lat="46.786" lon="3.05606">
        <ele>166</ele>
        <time>2024-08-14T11:25:25Z</time>
      </trkpt>
      <trkpt lat="46.78638" lon="3.05605">
        <ele>166.4</ele>
        <time>2024-08-14T11:25:31Z</time>
      </trkpt>
      <trkpt lat="46.78644" lon="3.05605">
        <ele>166.6</ele>
        <time>2024-08-14T11:25:32Z</time>
      </trkpt>
      <trkpt lat="46.787" lon="3.056">
        <ele>166.6</ele>
        <time>2024-08-14T11:25:40Z</time>
      </trkpt>
      <trkpt lat="46.78749" lon="3.05598">
        <ele>166.4</ele>
        <time>2024-08-14T11:25:47Z</time>
      </trkpt>
      <trkpt lat="46.7881" lon="3.05593">
        <ele>166.8</ele>
        <time>2024-08-14T11:25:56Z</time>
      </trkpt>
      <trkpt lat="46.78864" lon="3.05587">
        <ele>167</ele>
        <time>2024-08-14T11:26:04Z</time>
      </trkpt>
      <trkpt lat="46.7887" lon="3.05586">
        <ele>167</ele>
        <time>2024-08-14T11:26:05Z</time>
      </trkpt>
      <trkpt lat="46.78922" lon="3.05574">
        <ele>167.6</ele>
        <time>2024-08-14T11:26:13Z</time>
      </trkpt>
      <trkpt lat="46.78928" lon="3.05572">
        <ele>167.6</ele>
        <time>2024-08-14T11:26:14Z</time>
      </trkpt>
      <trkpt lat="46.78987" lon="3.05558">
        <ele>168.2</ele>
        <time>2024-08-14T11:26:23Z</time>
      </trkpt>
      <trkpt lat="46.79006" lon="3.05553">
        <ele>168.4</ele>
        <time>2024-08-14T11:26:26Z</time>
      </trkpt>
      <trkpt lat="46.7903" lon="3.05546">
        <ele>168.6</ele>
        <time>2024-08-14T11:26:30Z</time>
      </trkpt>
      <trkpt lat="46.79077" lon="3.05536">
        <ele>169.4</ele>
        <time>2024-08-14T11:26:37Z</time>
      </trkpt>
      <trkpt lat="46.79123" lon="3.05532">
        <ele>169.6</ele>
        <time>2024-08-14T11:26:44Z</time>
      </trkpt>
      <trkpt lat="46.79178" lon="3.05541">
        <ele>169.8</ele>
        <time>2024-08-14T11:26:52Z</time>
      </trkpt>
      <trkpt lat="46.79184" lon="3.05542">
        <ele>169.8</ele>
        <time>2024-08-14T11:26:53Z</time>
      </trkpt>
      <trkpt lat="46.79197" lon="3.05546">
        <ele>169.8</ele>
        <time>2024-08-14T11:26:55Z</time>
      </trkpt>
      <trkpt lat="46.79222" lon="3.05554">
        <ele>169.8</ele>
        <time>2024-08-14T11:26:59Z</time>
      </trkpt>
      <trkpt lat="46.79261" lon="3.05563">
        <ele>170.2</ele>
        <time>2024-08-14T11:27:05Z</time>
      </trkpt>
      <trkpt lat="46.79312" lon="3.0558">
        <ele>171</ele>
        <time>2024-08-14T11:27:13Z</time>
      </trkpt>
      <trkpt lat="46.79317" lon="3.05581">
        <ele>171</ele>
        <time>2024-08-14T11:27:14Z</time>
      </trkpt>
      <trkpt lat="46.79377" lon="3.056">
        <ele>171</ele>
        <time>2024-08-14T11:27:23Z</time>
      </trkpt>
      <trkpt lat="46.79383" lon="3.05602">
        <ele>170.8</ele>
        <time>2024-08-14T11:27:24Z</time>
      </trkpt>
      <trkpt lat="46.79436" lon="3.05617">
        <ele>170.8</ele>
        <time>2024-08-14T11:27:32Z</time>
      </trkpt>
      <trkpt lat="46.79455" lon="3.05623">
        <ele>170.8</ele>
        <time>2024-08-14T11:27:35Z</time>
      </trkpt>
      <trkpt lat="46.79511" lon="3.05636">
        <ele>170.6</ele>
        <time>2024-08-14T11:27:43Z</time>
      </trkpt>
      <trkpt lat="46.79569" lon="3.05648">
        <ele>170.6</ele>
        <time>2024-08-14T11:27:51Z</time>
      </trkpt>
      <trkpt lat="46.79576" lon="3.05648">
        <ele>170.6</ele>
        <time>2024-08-14T11:27:52Z</time>
      </trkpt>
      <trkpt lat="46.79633" lon="3.05653">
        <ele>170</ele>
        <time>2024-08-14T11:28:00Z</time>
      </trkpt>
      <trkpt lat="46.79643" lon="3.05654">
        <ele>170</ele>
        <time>2024-08-14T11:28:01Z</time>
      </trkpt>
      <trkpt lat="46.79673" lon="3.05655">
        <ele>169.8</ele>
        <time>2024-08-14T11:28:05Z</time>
      </trkpt>
      <trkpt lat="46.79712" lon="3.05657">
        <ele>169.4</ele>
        <time>2024-08-14T11:28:10Z</time>
      </trkpt>
      <trkpt lat="46.79734" lon="3.05658">
        <ele>168.8</ele>
        <time>2024-08-14T11:28:13Z</time>
      </trkpt>
      <trkpt lat="46.79775" lon="3.05661">
        <ele>168</ele>
        <time>2024-08-14T11:28:18Z</time>
      </trkpt>
      <trkpt lat="46.79784" lon="3.05661">
        <ele>167.8</ele>
        <time>2024-08-14T11:28:19Z</time>
      </trkpt>
      <trkpt lat="46.79817" lon="3.05663">
        <ele>166.8</ele>
        <time>2024-08-14T11:28:23Z</time>
      </trkpt>
      <trkpt lat="46.79849" lon="3.05665">
        <ele>165.8</ele>
        <time>2024-08-14T11:28:27Z</time>
      </trkpt>
      <trkpt lat="46.79865" lon="3.05669">
        <ele>165.4</ele>
        <time>2024-08-14T11:28:29Z</time>
      </trkpt>
      <trkpt lat="46.79895" lon="3.05683">
        <ele>165</ele>
        <time>2024-08-14T11:28:33Z</time>
      </trkpt>
      <trkpt lat="46.79901" lon="3.05688">
        <ele>164.8</ele>
        <time>2024-08-14T11:28:34Z</time>
      </trkpt>
      <trkpt lat="46.79914" lon="3.05699">
        <ele>164.4</ele>
        <time>2024-08-14T11:28:36Z</time>
      </trkpt>
      <trkpt lat="46.7994" lon="3.05723">
        <ele>163.6</ele>
        <time>2024-08-14T11:28:40Z</time>
      </trkpt>
      <trkpt lat="46.79958" lon="3.0574">
        <ele>163.4</ele>
        <time>2024-08-14T11:28:43Z</time>
      </trkpt>
      <trkpt lat="46.79995" lon="3.05777">
        <ele>163.2</ele>
        <time>2024-08-14T11:28:49Z</time>
      </trkpt>
      <trkpt lat="46.80045" lon="3.05825">
        <ele>163.2</ele>
        <time>2024-08-14T11:28:57Z</time>
      </trkpt>
      <trkpt lat="46.80056" lon="3.05835">
        <ele>163</ele>
        <time>2024-08-14T11:28:59Z</time>
      </trkpt>
      <trkpt lat="46.80104" lon="3.05883">
        <ele>163</ele>
        <time>2024-08-14T11:29:07Z</time>
      </trkpt>
      <trkpt lat="46.80136" lon="3.05914">
        <ele>163</ele>
        <time>2024-08-14T11:29:12Z</time>
      </trkpt>
      <trkpt lat="46.80189" lon="3.05966">
        <ele>162.6</ele>
        <time>2024-08-14T11:29:21Z</time>
      </trkpt>
      <trkpt lat="46.80214" lon="3.05991">
        <ele>162.4</ele>
        <time>2024-08-14T11:29:25Z</time>
      </trkpt>
      <trkpt lat="46.80243" lon="3.06019">
        <ele>162.4</ele>
        <time>2024-08-14T11:29:30Z</time>
      </trkpt>
      <trkpt lat="46.80259" lon="3.06035">
        <ele>162.2</ele>
        <time>2024-08-14T11:29:33Z</time>
      </trkpt>
      <trkpt lat="46.80288" lon="3.06065">
        <ele>162.4</ele>
        <time>2024-08-14T11:29:38Z</time>
      </trkpt>
      <trkpt lat="46.80301" lon="3.06085">
        <ele>162.6</ele>
        <time>2024-08-14T11:29:41Z</time>
      </trkpt>
      <trkpt lat="46.80312" lon="3.06123">
        <ele>162.6</ele>
        <time>2024-08-14T11:29:45Z</time>
      </trkpt>
      <trkpt lat="46.80323" lon="3.06182">
        <ele>162.6</ele>
        <time>2024-08-14T11:29:51Z</time>
      </trkpt>
      <trkpt lat="46.80329" lon="3.06199">
        <ele>162.6</ele>
        <time>2024-08-14T11:29:53Z</time>
      </trkpt>
      <trkpt lat="46.80335" lon="3.06217">
        <ele>162.6</ele>
        <time>2024-08-14T11:29:55Z</time>
      </trkpt>
      <trkpt lat="46.80351" lon="3.06248">
        <ele>162.8</ele>
        <time>2024-08-14T11:29:59Z</time>
      </trkpt>
      <trkpt lat="46.80381" lon="3.06304">
        <ele>163.4</ele>
        <time>2024-08-14T11:30:06Z</time>
      </trkpt>
      <trkpt lat="46.80395" lon="3.06329">
        <ele>163.2</ele>
        <time>2024-08-14T11:30:09Z</time>
      </trkpt>
      <trkpt lat="46.80431" lon="3.06396">
        <ele>163.2</ele>
        <time>2024-08-14T11:30:17Z</time>
      </trkpt>
      <trkpt lat="46.80442" lon="3.06415">
        <ele>163.2</ele>
        <time>2024-08-14T11:30:19Z</time>
      </trkpt>
      <trkpt lat="46.80472" lon="3.06489">
        <ele>163.2</ele>
        <time>2024-08-14T11:30:27Z</time>
      </trkpt>
      <trkpt lat="46.80476" lon="3.06499">
        <ele>163.2</ele>
        <time>2024-08-14T11:30:28Z</time>
      </trkpt>
      <trkpt lat="46.80506" lon="3.06576">
        <ele>163.2</ele>
        <time>2024-08-14T11:30:36Z</time>
      </trkpt>
      <trkpt lat="46.80536" lon="3.06654">
        <ele>163</ele>
        <time>2024-08-14T11:30:44Z</time>
      </trkpt>
      <trkpt lat="46.80542" lon="3.0667">
        <ele>163.2</ele>
        <time>2024-08-14T11:30:46Z</time>
      </trkpt>
      <trkpt lat="46.8057" lon="3.06745">
        <ele>163.2</ele>
        <time>2024-08-14T11:30:54Z</time>
      </trkpt>
      <trkpt lat="46.80577" lon="3.06764">
        <ele>163.2</ele>
        <time>2024-08-14T11:30:56Z</time>
      </trkpt>
      <trkpt lat="46.80587" lon="3.06782">
        <ele>163.2</ele>
        <time>2024-08-14T11:30:58Z</time>
      </trkpt>
      <trkpt lat="46.80598" lon="3.06794">
        <ele>163.2</ele>
        <time>2024-08-14T11:31:00Z</time>
      </trkpt>
      <trkpt lat="46.80638" lon="3.06825">
        <ele>163.2</ele>
        <time>2024-08-14T11:31:06Z</time>
      </trkpt>
      <trkpt lat="46.80644" lon="3.0683">
        <ele>163.2</ele>
        <time>2024-08-14T11:31:07Z</time>
      </trkpt>
      <trkpt lat="46.80695" lon="3.0687">
        <ele>163</ele>
        <time>2024-08-14T11:31:15Z</time>
      </trkpt>
      <trkpt lat="46.8072" lon="3.06888">
        <ele>163</ele>
        <time>2024-08-14T11:31:19Z</time>
      </trkpt>
      <trkpt lat="46.80763" lon="3.06921">
        <ele>163</ele>
        <time>2024-08-14T11:31:26Z</time>
      </trkpt>
      <trkpt lat="46.80787" lon="3.06946">
        <ele>163</ele>
        <time>2024-08-14T11:31:30Z</time>
      </trkpt>
      <trkpt lat="46.80795" lon="3.06959">
        <ele>163</ele>
        <time>2024-08-14T11:31:32Z</time>
      </trkpt>
      <trkpt lat="46.80817" lon="3.06996">
        <ele>162.8</ele>
        <time>2024-08-14T11:31:37Z</time>
      </trkpt>
      <trkpt lat="46.80823" lon="3.07003">
        <ele>162.8</ele>
        <time>2024-08-14T11:31:38Z</time>
      </trkpt>
      <trkpt lat="46.80833" lon="3.07015">
        <ele>162.6</ele>
        <time>2024-08-14T11:31:41Z</time>
      </trkpt>
      <trkpt lat="46.80838" lon="3.07021">
        <ele>162.4</ele>
        <time>2024-08-14T11:31:43Z</time>
      </trkpt>
      <trkpt lat="46.80843" lon="3.07033">
        <ele>162.4</ele>
        <time>2024-08-14T11:31:47Z</time>
      </trkpt>
      <trkpt lat="46.8085" lon="3.07038">
        <ele>162.4</ele>
        <time>2024-08-14T11:31:49Z</time>
      </trkpt>
      <trkpt lat="46.80859" lon="3.07039">
        <ele>162.4</ele>
        <time>2024-08-14T11:31:51Z</time>
      </trkpt>
      <trkpt lat="46.80866" lon="3.07041">
        <ele>162.4</ele>
        <time>2024-08-14T11:31:52Z</time>
      </trkpt>
      <trkpt lat="46.80883" lon="3.07051">
        <ele>162.4</ele>
        <time>2024-08-14T11:31:55Z</time>
      </trkpt>
      <trkpt lat="46.80895" lon="3.07061">
        <ele>162.4</ele>
        <time>2024-08-14T11:31:57Z</time>
      </trkpt>
      <trkpt lat="46.80913" lon="3.07078">
        <ele>162</ele>
        <time>2024-08-14T11:32:00Z</time>
      </trkpt>
      <trkpt lat="46.80954" lon="3.07118">
        <ele>161.8</ele>
        <time>2024-08-14T11:32:07Z</time>
      </trkpt>
      <trkpt lat="46.8098" lon="3.07134">
        <ele>161.8</ele>
        <time>2024-08-14T11:32:11Z</time>
      </trkpt>
      <trkpt lat="46.80999" lon="3.07145">
        <ele>162</ele>
        <time>2024-08-14T11:32:14Z</time>
      </trkpt>
      <trkpt lat="46.81054" lon="3.07173">
        <ele>162.6</ele>
        <time>2024-08-14T11:32:22Z</time>
      </trkpt>
      <trkpt lat="46.81108" lon="3.07203">
        <ele>163.4</ele>
        <time>2024-08-14T11:32:30Z</time>
      </trkpt>
      <trkpt lat="46.81127" lon="3.07213">
        <ele>163.6</ele>
        <time>2024-08-14T11:32:33Z</time>
      </trkpt>
      <trkpt lat="46.81134" lon="3.07216">
        <ele>163.6</ele>
        <time>2024-08-14T11:32:34Z</time>
      </trkpt>
      <trkpt lat="46.81189" lon="3.07245">
        <ele>163.8</ele>
        <time>2024-08-14T11:32:42Z</time>
      </trkpt>
      <trkpt lat="46.81203" lon="3.07252">
        <ele>163.8</ele>
        <time>2024-08-14T11:32:44Z</time>
      </trkpt>
      <trkpt lat="46.81259" lon="3.07278">
        <ele>164</ele>
        <time>2024-08-14T11:32:52Z</time>
      </trkpt>
      <trkpt lat="46.81268" lon="3.07282">
        <ele>164</ele>
        <time>2024-08-14T11:32:53Z</time>
      </trkpt>
      <trkpt lat="46.81331" lon="3.07308">
        <ele>163.8</ele>
        <time>2024-08-14T11:33:02Z</time>
      </trkpt>
      <trkpt lat="46.81339" lon="3.07311">
        <ele>163.8</ele>
        <time>2024-08-14T11:33:03Z</time>
      </trkpt>
      <trkpt lat="46.81395" lon="3.07334">
        <ele>163.6</ele>
        <time>2024-08-14T11:33:11Z</time>
      </trkpt>
      <trkpt lat="46.81424" lon="3.07347">
        <ele>163.6</ele>
        <time>2024-08-14T11:33:15Z</time>
      </trkpt>
      <trkpt lat="46.81466" lon="3.07365">
        <ele>163.4</ele>
        <time>2024-08-14T11:33:21Z</time>
      </trkpt>
      <trkpt lat="46.81532" lon="3.0739">
        <ele>163</ele>
        <time>2024-08-14T11:33:30Z</time>
      </trkpt>
      <trkpt lat="46.81548" lon="3.0739">
        <ele>163</ele>
        <time>2024-08-14T11:33:32Z</time>
      </trkpt>
      <trkpt lat="46.81563" lon="3.07385">
        <ele>162.8</ele>
        <time>2024-08-14T11:33:34Z</time>
      </trkpt>
      <trkpt lat="46.81605" lon="3.07365">
        <ele>162.8</ele>
        <time>2024-08-14T11:33:40Z</time>
      </trkpt>
      <trkpt lat="46.81643" lon="3.07349">
        <ele>162.8</ele>
        <time>2024-08-14T11:33:45Z</time>
      </trkpt>
      <trkpt lat="46.81678" lon="3.07338">
        <ele>162.4</ele>
        <time>2024-08-14T11:33:50Z</time>
      </trkpt>
      <trkpt lat="46.81699" lon="3.07332">
        <ele>162.4</ele>
        <time>2024-08-14T11:33:53Z</time>
      </trkpt>
      <trkpt lat="46.81729" lon="3.07324">
        <ele>162.4</ele>
        <time>2024-08-14T11:33:57Z</time>
      </trkpt>
      <trkpt lat="46.81785" lon="3.07311">
        <ele>162.2</ele>
        <time>2024-08-14T11:34:05Z</time>
      </trkpt>
      <trkpt lat="46.8183" lon="3.07302">
        <ele>162</ele>
        <time>2024-08-14T11:34:11Z</time>
      </trkpt>
      <trkpt lat="46.81852" lon="3.07298">
        <ele>161.8</ele>
        <time>2024-08-14T11:34:14Z</time>
      </trkpt>
      <trkpt lat="46.81906" lon="3.07289">
        <ele>161.6</ele>
        <time>2024-08-14T11:34:21Z</time>
      </trkpt>
      <trkpt lat="46.81942" lon="3.07293">
        <ele>161.6</ele>
        <time>2024-08-14T11:34:26Z</time>
      </trkpt>
      <trkpt lat="46.8195" lon="3.07296">
        <ele>161.6</ele>
        <time>2024-08-14T11:34:27Z</time>
      </trkpt>
      <trkpt lat="46.81985" lon="3.07311">
        <ele>161.6</ele>
        <time>2024-08-14T11:34:32Z</time>
      </trkpt>
      <trkpt lat="46.82043" lon="3.0734">
        <ele>161.2</ele>
        <time>2024-08-14T11:34:40Z</time>
      </trkpt>
      <trkpt lat="46.82099" lon="3.07366">
        <ele>161</ele>
        <time>2024-08-14T11:34:48Z</time>
      </trkpt>
      <trkpt lat="46.82106" lon="3.07369">
        <ele>161</ele>
        <time>2024-08-14T11:34:49Z</time>
      </trkpt>
      <trkpt lat="46.82162" lon="3.07397">
        <ele>161.2</ele>
        <time>2024-08-14T11:34:57Z</time>
      </trkpt>
      <trkpt lat="46.82175" lon="3.07406">
        <ele>161.2</ele>
        <time>2024-08-14T11:34:59Z</time>
      </trkpt>
      <trkpt lat="46.82228" lon="3.07438">
        <ele>161.2</ele>
        <time>2024-08-14T11:35:07Z</time>
      </trkpt>
      <trkpt lat="46.82284" lon="3.07468">
        <ele>161.2</ele>
        <time>2024-08-14T11:35:15Z</time>
      </trkpt>
      <trkpt lat="46.82298" lon="3.07475">
        <ele>161.2</ele>
        <time>2024-08-14T11:35:17Z</time>
      </trkpt>
      <trkpt lat="46.82356" lon="3.07499">
        <ele>161.4</ele>
        <time>2024-08-14T11:35:25Z</time>
      </trkpt>
      <trkpt lat="46.8237" lon="3.07506">
        <ele>161.2</ele>
        <time>2024-08-14T11:35:27Z</time>
      </trkpt>
      <trkpt lat="46.82427" lon="3.0753">
        <ele>161</ele>
        <time>2024-08-14T11:35:35Z</time>
      </trkpt>
      <trkpt lat="46.82455" lon="3.07542">
        <ele>161</ele>
        <time>2024-08-14T11:35:39Z</time>
      </trkpt>
      <trkpt lat="46.82505" lon="3.07566">
        <ele>161</ele>
        <time>2024-08-14T11:35:46Z</time>
      </trkpt>
      <trkpt lat="46.82512" lon="3.07569">
        <ele>161</ele>
        <time>2024-08-14T11:35:47Z</time>
      </trkpt>
      <trkpt lat="46.82534" lon="3.0758">
        <ele>160.8</ele>
        <time>2024-08-14T11:35:50Z</time>
      </trkpt>
      <trkpt lat="46.82577" lon="3.07601">
        <ele>160.8</ele>
        <time>2024-08-14T11:35:56Z</time>
      </trkpt>
      <trkpt lat="46.82637" lon="3.07627">
        <ele>160.8</ele>
        <time>2024-08-14T11:36:04Z</time>
      </trkpt>
      <trkpt lat="46.82644" lon="3.07631">
        <ele>160.8</ele>
        <time>2024-08-14T11:36:05Z</time>
      </trkpt>
      <trkpt lat="46.82694" lon="3.07658">
        <ele>161</ele>
        <time>2024-08-14T11:36:12Z</time>
      </trkpt>
      <trkpt lat="46.82745" lon="3.0769">
        <ele>160.8</ele>
        <time>2024-08-14T11:36:19Z</time>
      </trkpt>
      <trkpt lat="46.82758" lon="3.07698">
        <ele>160.8</ele>
        <time>2024-08-14T11:36:21Z</time>
      </trkpt>
      <trkpt lat="46.82812" lon="3.07733">
        <ele>160.6</ele>
        <time>2024-08-14T11:36:29Z</time>
      </trkpt>
      <trkpt lat="46.82834" lon="3.07746">
        <ele>160.6</ele>
        <time>2024-08-14T11:36:32Z</time>
      </trkpt>
      <trkpt lat="46.82889" lon="3.07782">
        <ele>161</ele>
        <time>2024-08-14T11:36:40Z</time>
      </trkpt>
      <trkpt lat="46.82897" lon="3.07788">
        <ele>160.8</ele>
        <time>2024-08-14T11:36:41Z</time>
      </trkpt>
      <trkpt lat="46.82949" lon="3.07829">
        <ele>160.6</ele>
        <time>2024-08-14T11:36:49Z</time>
      </trkpt>
      <trkpt lat="46.82981" lon="3.07858">
        <ele>160.6</ele>
        <time>2024-08-14T11:36:54Z</time>
      </trkpt>
      <trkpt lat="46.82989" lon="3.07864">
        <ele>160.6</ele>
        <time>2024-08-14T11:36:55Z</time>
      </trkpt>
      <trkpt lat="46.83042" lon="3.07898">
        <ele>160.6</ele>
        <time>2024-08-14T11:37:03Z</time>
      </trkpt>
      <trkpt lat="46.83093" lon="3.07921">
        <ele>160.6</ele>
        <time>2024-08-14T11:37:10Z</time>
      </trkpt>
      <trkpt lat="46.8315" lon="3.07942">
        <ele>160.6</ele>
        <time>2024-08-14T11:37:18Z</time>
      </trkpt>
      <trkpt lat="46.83185" lon="3.07954">
        <ele>160.6</ele>
        <time>2024-08-14T11:37:23Z</time>
      </trkpt>
      <trkpt lat="46.83243" lon="3.07972">
        <ele>160.6</ele>
        <time>2024-08-14T11:37:31Z</time>
      </trkpt>
      <trkpt lat="46.83258" lon="3.07977">
        <ele>160.6</ele>
        <time>2024-08-14T11:37:33Z</time>
      </trkpt>
      <trkpt lat="46.83315" lon="3.07994">
        <ele>160.2</ele>
        <time>2024-08-14T11:37:41Z</time>
      </trkpt>
      <trkpt lat="46.83337" lon="3.08">
        <ele>160</ele>
        <time>2024-08-14T11:37:44Z</time>
      </trkpt>
      <trkpt lat="46.83346" lon="3.08003">
        <ele>160</ele>
        <time>2024-08-14T11:37:45Z</time>
      </trkpt>
      <trkpt lat="46.83404" lon="3.08021">
        <ele>160</ele>
        <time>2024-08-14T11:37:53Z</time>
      </trkpt>
      <trkpt lat="46.83413" lon="3.08024">
        <ele>160</ele>
        <time>2024-08-14T11:37:54Z</time>
      </trkpt>
      <trkpt lat="46.8347" lon="3.08043">
        <ele>160</ele>
        <time>2024-08-14T11:38:02Z</time>
      </trkpt>
      <trkpt lat="46.83493" lon="3.0805">
        <ele>160</ele>
        <time>2024-08-14T11:38:05Z</time>
      </trkpt>
      <trkpt lat="46.83549" lon="3.08068">
        <ele>160.2</ele>
        <time>2024-08-14T11:38:13Z</time>
      </trkpt>
      <trkpt lat="46.83571" lon="3.08075">
        <ele>160</ele>
        <time>2024-08-14T11:38:16Z</time>
      </trkpt>
      <trkpt lat="46.83631" lon="3.08094">
        <ele>160.2</ele>
        <time>2024-08-14T11:38:24Z</time>
      </trkpt>
      <trkpt lat="46.83637" lon="3.08095">
        <ele>160.2</ele>
        <time>2024-08-14T11:38:25Z</time>
      </trkpt>
      <trkpt lat="46.8369" lon="3.08095">
        <ele>160.2</ele>
        <time>2024-08-14T11:38:32Z</time>
      </trkpt>
      <trkpt lat="46.83749" lon="3.08083">
        <ele>159.8</ele>
        <time>2024-08-14T11:38:40Z</time>
      </trkpt>
      <trkpt lat="46.83758" lon="3.08081">
        <ele>159.8</ele>
        <time>2024-08-14T11:38:41Z</time>
      </trkpt>
      <trkpt lat="46.83815" lon="3.08068">
        <ele>159.8</ele>
        <time>2024-08-14T11:38:49Z</time>
      </trkpt>
      <trkpt lat="46.83831" lon="3.08064">
        <ele>159.8</ele>
        <time>2024-08-14T11:38:51Z</time>
      </trkpt>
      <trkpt lat="46.83889" lon="3.08052">
        <ele>160</ele>
        <time>2024-08-14T11:38:59Z</time>
      </trkpt>
      <trkpt lat="46.83904" lon="3.0805">
        <ele>160</ele>
        <time>2024-08-14T11:39:01Z</time>
      </trkpt>
      <trkpt lat="46.83962" lon="3.08045">
        <ele>159.8</ele>
        <time>2024-08-14T11:39:09Z</time>
      </trkpt>
      <trkpt lat="46.83975" lon="3.08044">
        <ele>159.8</ele>
        <time>2024-08-14T11:39:11Z</time>
      </trkpt>
      <trkpt lat="46.84035" lon="3.08042">
        <ele>159.8</ele>
        <time>2024-08-14T11:39:19Z</time>
      </trkpt>
      <trkpt lat="46.84064" lon="3.0804">
        <ele>159.8</ele>
        <time>2024-08-14T11:39:23Z</time>
      </trkpt>
      <trkpt lat="46.84124" lon="3.08044">
        <ele>159.6</ele>
        <time>2024-08-14T11:39:31Z</time>
      </trkpt>
      <trkpt lat="46.84131" lon="3.08045">
        <ele>159.6</ele>
        <time>2024-08-14T11:39:32Z</time>
      </trkpt>
      <trkpt lat="46.8418" lon="3.08061">
        <ele>159.6</ele>
        <time>2024-08-14T11:39:39Z</time>
      </trkpt>
      <trkpt lat="46.84239" lon="3.08086">
        <ele>160</ele>
        <time>2024-08-14T11:39:47Z</time>
      </trkpt>
      <trkpt lat="46.84244" lon="3.08089">
        <ele>160</ele>
        <time>2024-08-14T11:39:48Z</time>
      </trkpt>
      <trkpt lat="46.84302" lon="3.08115">
        <ele>159.8</ele>
        <time>2024-08-14T11:39:56Z</time>
      </trkpt>
      <trkpt lat="46.84307" lon="3.08118">
        <ele>159.8</ele>
        <time>2024-08-14T11:39:57Z</time>
      </trkpt>
      <trkpt lat="46.84362" lon="3.08157">
        <ele>160</ele>
        <time>2024-08-14T11:40:05Z</time>
      </trkpt>
      <trkpt lat="46.84415" lon="3.08194">
        <ele>160</ele>
        <time>2024-08-14T11:40:13Z</time>
      </trkpt>
      <trkpt lat="46.84431" lon="3.08203">
        <ele>159.8</ele>
        <time>2024-08-14T11:40:15Z</time>
      </trkpt>
      <trkpt lat="46.84487" lon="3.08234">
        <ele>160</ele>
        <time>2024-08-14T11:40:23Z</time>
      </trkpt>
      <trkpt lat="46.845" lon="3.08241">
        <ele>160</ele>
        <time>2024-08-14T11:40:25Z</time>
      </trkpt>
      <trkpt lat="46.8455" lon="3.08274">
        <ele>159.8</ele>
        <time>2024-08-14T11:40:32Z</time>
      </trkpt>
      <trkpt lat="46.84598" lon="3.08311">
        <ele>159.8</ele>
        <time>2024-08-14T11:40:39Z</time>
      </trkpt>
      <trkpt lat="46.84649" lon="3.08342">
        <ele>159.6</ele>
        <time>2024-08-14T11:40:46Z</time>
      </trkpt>
      <trkpt lat="46.84701" lon="3.08367">
        <ele>159.6</ele>
        <time>2024-08-14T11:40:53Z</time>
      </trkpt>
      <trkpt lat="46.84717" lon="3.08376">
        <ele>159.6</ele>
        <time>2024-08-14T11:40:55Z</time>
      </trkpt>
      <trkpt lat="46.84774" lon="3.08404">
        <ele>159.6</ele>
        <time>2024-08-14T11:41:03Z</time>
      </trkpt>
      <trkpt lat="46.84828" lon="3.08416">
        <ele>159.8</ele>
        <time>2024-08-14T11:41:10Z</time>
      </trkpt>
      <trkpt lat="46.84828" lon="3.08416">
        <ele>159.8</ele>
        <time>2024-08-14T11:41:11Z</time>
      </trkpt>
      <trkpt lat="46.84882" lon="3.08423">
        <ele>159.8</ele>
        <time>2024-08-14T11:41:17Z</time>
      </trkpt>
      <trkpt lat="46.84905" lon="3.08426">
        <ele>159.8</ele>
        <time>2024-08-14T11:41:20Z</time>
      </trkpt>
      <trkpt lat="46.84961" lon="3.08432">
        <ele>159.6</ele>
        <time>2024-08-14T11:41:27Z</time>
      </trkpt>
      <trkpt lat="46.84977" lon="3.08433">
        <ele>159.4</ele>
        <time>2024-08-14T11:41:29Z</time>
      </trkpt>
      <trkpt lat="46.85006" lon="3.08434">
        <ele>159.2</ele>
        <time>2024-08-14T11:41:33Z</time>
      </trkpt>
      <trkpt lat="46.85044" lon="3.08437">
        <ele>159</ele>
        <time>2024-08-14T11:41:38Z</time>
      </trkpt>
      <trkpt lat="46.85097" lon="3.08452">
        <ele>158.8</ele>
        <time>2024-08-14T11:41:45Z</time>
      </trkpt>
      <trkpt lat="46.85157" lon="3.08471">
        <ele>159</ele>
        <time>2024-08-14T11:41:53Z</time>
      </trkpt>
      <trkpt lat="46.85164" lon="3.08474">
        <ele>159</ele>
        <time>2024-08-14T11:41:54Z</time>
      </trkpt>
      <trkpt lat="46.85204" lon="3.08502">
        <ele>159</ele>
        <time>2024-08-14T11:42:00Z</time>
      </trkpt>
      <trkpt lat="46.8521" lon="3.08506">
        <ele>159</ele>
        <time>2024-08-14T11:42:01Z</time>
      </trkpt>
      <trkpt lat="46.85243" lon="3.08529">
        <ele>159.4</ele>
        <time>2024-08-14T11:42:06Z</time>
      </trkpt>
      <trkpt lat="46.85292" lon="3.08553">
        <ele>159.6</ele>
        <time>2024-08-14T11:42:13Z</time>
      </trkpt>
      <trkpt lat="46.85321" lon="3.08567">
        <ele>159.6</ele>
        <time>2024-08-14T11:42:17Z</time>
      </trkpt>
      <trkpt lat="46.85335" lon="3.08574">
        <ele>159.6</ele>
        <time>2024-08-14T11:42:19Z</time>
      </trkpt>
      <trkpt lat="46.85388" lon="3.08594">
        <ele>159.2</ele>
        <time>2024-08-14T11:42:26Z</time>
      </trkpt>
      <trkpt lat="46.85432" lon="3.08596">
        <ele>159</ele>
        <time>2024-08-14T11:42:32Z</time>
      </trkpt>
      <trkpt lat="46.85491" lon="3.08592">
        <ele>158.6</ele>
        <time>2024-08-14T11:42:40Z</time>
      </trkpt>
      <trkpt lat="46.85498" lon="3.08593">
        <ele>158.4</ele>
        <time>2024-08-14T11:42:41Z</time>
      </trkpt>
      <trkpt lat="46.85549" lon="3.08592">
        <ele>158.2</ele>
        <time>2024-08-14T11:42:48Z</time>
      </trkpt>
      <trkpt lat="46.85577" lon="3.08593">
        <ele>158.2</ele>
        <time>2024-08-14T11:42:52Z</time>
      </trkpt>
      <trkpt lat="46.85609" lon="3.0859">
        <ele>158</ele>
        <time>2024-08-14T11:42:57Z</time>
      </trkpt>
      <trkpt lat="46.85634" lon="3.08588">
        <ele>158</ele>
        <time>2024-08-14T11:43:01Z</time>
      </trkpt>
      <trkpt lat="46.85647" lon="3.0859">
        <ele>158</ele>
        <time>2024-08-14T11:43:03Z</time>
      </trkpt>
      <trkpt lat="46.85694" lon="3.08601">
        <ele>158</ele>
        <time>2024-08-14T11:43:10Z</time>
      </trkpt>
      <trkpt lat="46.85751" lon="3.08606">
        <ele>158</ele>
        <time>2024-08-14T11:43:18Z</time>
      </trkpt>
      <trkpt lat="46.85766" lon="3.08607">
        <ele>158</ele>
        <time>2024-08-14T11:43:20Z</time>
      </trkpt>
      <trkpt lat="46.85824" lon="3.08612">
        <ele>158.8</ele>
        <time>2024-08-14T11:43:28Z</time>
      </trkpt>
      <trkpt lat="46.85839" lon="3.08615">
        <ele>158.8</ele>
        <time>2024-08-14T11:43:30Z</time>
      </trkpt>
      <trkpt lat="46.85898" lon="3.08629">
        <ele>159</ele>
        <time>2024-08-14T11:43:38Z</time>
      </trkpt>
      <trkpt lat="46.85957" lon="3.08643">
        <ele>159</ele>
        <time>2024-08-14T11:43:46Z</time>
      </trkpt>
      <trkpt lat="46.85972" lon="3.08647">
        <ele>159</ele>
        <time>2024-08-14T11:43:48Z</time>
      </trkpt>
      <trkpt lat="46.86026" lon="3.08659">
        <ele>158.6</ele>
        <time>2024-08-14T11:43:55Z</time>
      </trkpt>
      <trkpt lat="46.8608" lon="3.08666">
        <ele>158.4</ele>
        <time>2024-08-14T11:44:02Z</time>
      </trkpt>
      <trkpt lat="46.86134" lon="3.08672">
        <ele>158.2</ele>
        <time>2024-08-14T11:44:09Z</time>
      </trkpt>
      <trkpt lat="46.86143" lon="3.08673">
        <ele>158</ele>
        <time>2024-08-14T11:44:10Z</time>
      </trkpt>
      <trkpt lat="46.86203" lon="3.08682">
        <ele>158.2</ele>
        <time>2024-08-14T11:44:18Z</time>
      </trkpt>
      <trkpt lat="46.86257" lon="3.08689">
        <ele>158.2</ele>
        <time>2024-08-14T11:44:25Z</time>
      </trkpt>
      <trkpt lat="46.86267" lon="3.08689">
        <ele>158</ele>
        <time>2024-08-14T11:44:26Z</time>
      </trkpt>
      <trkpt lat="46.86321" lon="3.0869">
        <ele>157.8</ele>
        <time>2024-08-14T11:44:33Z</time>
      </trkpt>
      <trkpt lat="46.86336" lon="3.0869">
        <ele>157.6</ele>
        <time>2024-08-14T11:44:35Z</time>
      </trkpt>
      <trkpt lat="46.86391" lon="3.08692">
        <ele>157.4</ele>
        <time>2024-08-14T11:44:42Z</time>
      </trkpt>
      <trkpt lat="46.86404" lon="3.08694">
        <ele>157.4</ele>
        <time>2024-08-14T11:44:44Z</time>
      </trkpt>
      <trkpt lat="46.86466" lon="3.0871">
        <ele>157.6</ele>
        <time>2024-08-14T11:44:52Z</time>
      </trkpt>
      <trkpt lat="46.8648" lon="3.08714">
        <ele>157.6</ele>
        <time>2024-08-14T11:44:54Z</time>
      </trkpt>
      <trkpt lat="46.86537" lon="3.08724">
        <ele>157.8</ele>
        <time>2024-08-14T11:45:02Z</time>
      </trkpt>
      <trkpt lat="46.86598" lon="3.08717">
        <ele>157.8</ele>
        <time>2024-08-14T11:45:10Z</time>
      </trkpt>
      <trkpt lat="46.86653" lon="3.08705">
        <ele>157.6</ele>
        <time>2024-08-14T11:45:17Z</time>
      </trkpt>
      <trkpt lat="46.86683" lon="3.08697">
        <ele>157.6</ele>
        <time>2024-08-14T11:45:21Z</time>
      </trkpt>
      <trkpt lat="46.86739" lon="3.08682">
        <ele>158.2</ele>
        <time>2024-08-14T11:45:29Z</time>
      </trkpt>
      <trkpt lat="46.86796" lon="3.0867">
        <ele>158.4</ele>
        <time>2024-08-14T11:45:37Z</time>
      </trkpt>
      <trkpt lat="46.86854" lon="3.08658">
        <ele>158.4</ele>
        <time>2024-08-14T11:45:45Z</time>
      </trkpt>
      <trkpt lat="46.86862" lon="3.08656">
        <ele>158.4</ele>
        <time>2024-08-14T11:45:46Z</time>
      </trkpt>
      <trkpt lat="46.86922" lon="3.08644">
        <ele>158.4</ele>
        <time>2024-08-14T11:45:54Z</time>
      </trkpt>
      <trkpt lat="46.86935" lon="3.08641">
        <ele>158.4</ele>
        <time>2024-08-14T11:45:56Z</time>
      </trkpt>
      <trkpt lat="46.86989" lon="3.08632">
        <ele>158.4</ele>
        <time>2024-08-14T11:46:03Z</time>
      </trkpt>
      <trkpt lat="46.87011" lon="3.08629">
        <ele>158.2</ele>
        <time>2024-08-14T11:46:06Z</time>
      </trkpt>
      <trkpt lat="46.87071" lon="3.08625">
        <ele>157.8</ele>
        <time>2024-08-14T11:46:14Z</time>
      </trkpt>
      <trkpt lat="46.87094" lon="3.08625">
        <ele>157.8</ele>
        <time>2024-08-14T11:46:17Z</time>
      </trkpt>
      <trkpt lat="46.87153" lon="3.0863">
        <ele>158</ele>
        <time>2024-08-14T11:46:25Z</time>
      </trkpt>
      <trkpt lat="46.87213" lon="3.08651">
        <ele>157.8</ele>
        <time>2024-08-14T11:46:33Z</time>
      </trkpt>
      <trkpt lat="46.87267" lon="3.08666">
        <ele>157.6</ele>
        <time>2024-08-14T11:46:40Z</time>
      </trkpt>
      <trkpt lat="46.87273" lon="3.08668">
        <ele>157.6</ele>
        <time>2024-08-14T11:46:41Z</time>
      </trkpt>
      <trkpt lat="46.87304" lon="3.08675">
        <ele>157.6</ele>
        <time>2024-08-14T11:46:45Z</time>
      </trkpt>
      <trkpt lat="46.87342" lon="3.08687">
        <ele>157.2</ele>
        <time>2024-08-14T11:46:50Z</time>
      </trkpt>
      <trkpt lat="46.87401" lon="3.08706">
        <ele>157</ele>
        <time>2024-08-14T11:46:58Z</time>
      </trkpt>
      <trkpt lat="46.87458" lon="3.08726">
        <ele>157.4</ele>
        <time>2024-08-14T11:47:06Z</time>
      </trkpt>
      <trkpt lat="46.87516" lon="3.08747">
        <ele>157.8</ele>
        <time>2024-08-14T11:47:14Z</time>
      </trkpt>
      <trkpt lat="46.8753" lon="3.08751">
        <ele>157.8</ele>
        <time>2024-08-14T11:47:16Z</time>
      </trkpt>
      <trkpt lat="46.87589" lon="3.08771">
        <ele>157.8</ele>
        <time>2024-08-14T11:47:24Z</time>
      </trkpt>
      <trkpt lat="46.8762" lon="3.0878">
        <ele>157.6</ele>
        <time>2024-08-14T11:47:28Z</time>
      </trkpt>
      <trkpt lat="46.87673" lon="3.08791">
        <ele>157.4</ele>
        <time>2024-08-14T11:47:35Z</time>
      </trkpt>
      <trkpt lat="46.87728" lon="3.08799">
        <ele>157.4</ele>
        <time>2024-08-14T11:47:42Z</time>
      </trkpt>
      <trkpt lat="46.87736" lon="3.088">
        <ele>157.2</ele>
        <time>2024-08-14T11:47:43Z</time>
      </trkpt>
      <trkpt lat="46.87797" lon="3.08808">
        <ele>156.8</ele>
        <time>2024-08-14T11:47:51Z</time>
      </trkpt>
      <trkpt lat="46.8782" lon="3.08811">
        <ele>157</ele>
        <time>2024-08-14T11:47:54Z</time>
      </trkpt>
      <trkpt lat="46.87874" lon="3.08815">
        <ele>157</ele>
        <time>2024-08-14T11:48:01Z</time>
      </trkpt>
      <trkpt lat="46.87927" lon="3.08807">
        <ele>157.2</ele>
        <time>2024-08-14T11:48:08Z</time>
      </trkpt>
      <trkpt lat="46.87984" lon="3.08792">
        <ele>157</ele>
        <time>2024-08-14T11:48:16Z</time>
      </trkpt>
      <trkpt lat="46.87998" lon="3.08787">
        <ele>157</ele>
        <time>2024-08-14T11:48:18Z</time>
      </trkpt>
      <trkpt lat="46.88018" lon="3.0878">
        <ele>157</ele>
        <time>2024-08-14T11:48:21Z</time>
      </trkpt>
      <trkpt lat="46.88031" lon="3.08783">
        <ele>156.8</ele>
        <time>2024-08-14T11:48:23Z</time>
      </trkpt>
      <trkpt lat="46.8804" lon="3.08799">
        <ele>156.8</ele>
        <time>2024-08-14T11:48:25Z</time>
      </trkpt>
      <trkpt lat="46.88049" lon="3.08851">
        <ele>156.8</ele>
        <time>2024-08-14T11:48:30Z</time>
      </trkpt>
      <trkpt lat="46.88068" lon="3.08932">
        <ele>157.2</ele>
        <time>2024-08-14T11:48:38Z</time>
      </trkpt>
      <trkpt lat="46.88071" lon="3.08942">
        <ele>157.2</ele>
        <time>2024-08-14T11:48:39Z</time>
      </trkpt>
      <trkpt lat="46.88087" lon="3.09022">
        <ele>157.4</ele>
        <time>2024-08-14T11:48:47Z</time>
      </trkpt>
      <trkpt lat="46.88091" lon="3.09041">
        <ele>157.4</ele>
        <time>2024-08-14T11:48:49Z</time>
      </trkpt>
      <trkpt lat="46.88098" lon="3.09069">
        <ele>157.6</ele>
        <time>2024-08-14T11:48:52Z</time>
      </trkpt>
      <trkpt lat="46.88103" lon="3.09087">
        <ele>157.8</ele>
        <time>2024-08-14T11:48:54Z</time>
      </trkpt>
      <trkpt lat="46.88101" lon="3.09106">
        <ele>158</ele>
        <time>2024-08-14T11:48:56Z</time>
      </trkpt>
      <trkpt lat="46.88097" lon="3.09114">
        <ele>158</ele>
        <time>2024-08-14T11:48:57Z</time>
      </trkpt>
      <trkpt lat="46.88069" lon="3.09167">
        <ele>158.2</ele>
        <time>2024-08-14T11:49:04Z</time>
      </trkpt>
      <trkpt lat="46.88048" lon="3.09204">
        <ele>158.8</ele>
        <time>2024-08-14T11:49:09Z</time>
      </trkpt>
      <trkpt lat="46.88025" lon="3.09249">
        <ele>159.4</ele>
        <time>2024-08-14T11:49:15Z</time>
      </trkpt>
      <trkpt lat="46.88001" lon="3.09293">
        <ele>160</ele>
        <time>2024-08-14T11:49:21Z</time>
      </trkpt>
      <trkpt lat="46.87985" lon="3.09322">
        <ele>160.4</ele>
        <time>2024-08-14T11:49:25Z</time>
      </trkpt>
      <trkpt lat="46.87959" lon="3.09372">
        <ele>161.2</ele>
        <time>2024-08-14T11:49:32Z</time>
      </trkpt>
      <trkpt lat="46.87925" lon="3.09435">
        <ele>162.4</ele>
        <time>2024-08-14T11:49:41Z</time>
      </trkpt>
      <trkpt lat="46.87921" lon="3.09441">
        <ele>162.4</ele>
        <time>2024-08-14T11:49:42Z</time>
      </trkpt>
      <trkpt lat="46.87918" lon="3.09448">
        <ele>162.6</ele>
        <time>2024-08-14T11:49:43Z</time>
      </trkpt>
      <trkpt lat="46.87884" lon="3.09511">
        <ele>163.6</ele>
        <time>2024-08-14T11:49:52Z</time>
      </trkpt>
      <trkpt lat="46.87858" lon="3.0956">
        <ele>164.4</ele>
        <time>2024-08-14T11:49:59Z</time>
      </trkpt>
      <trkpt lat="46.8785" lon="3.09575">
        <ele>164.8</ele>
        <time>2024-08-14T11:50:01Z</time>
      </trkpt>
      <trkpt lat="46.87828" lon="3.0962">
        <ele>165.8</ele>
        <time>2024-08-14T11:50:07Z</time>
      </trkpt>
      <trkpt lat="46.87818" lon="3.09644">
        <ele>166.4</ele>
        <time>2024-08-14T11:50:10Z</time>
      </trkpt>
      <trkpt lat="46.87801" lon="3.09685">
        <ele>167</ele>
        <time>2024-08-14T11:50:15Z</time>
      </trkpt>
      <trkpt lat="46.87786" lon="3.09726">
        <ele>167.6</ele>
        <time>2024-08-14T11:50:20Z</time>
      </trkpt>
      <trkpt lat="46.8778" lon="3.09741">
        <ele>168</ele>
        <time>2024-08-14T11:50:22Z</time>
      </trkpt>
      <trkpt lat="46.8777" lon="3.09768">
        <ele>168.6</ele>
        <time>2024-08-14T11:50:26Z</time>
      </trkpt>
      <trkpt lat="46.87765" lon="3.09784">
        <ele>169</ele>
        <time>2024-08-14T11:50:29Z</time>
      </trkpt>
      <trkpt lat="46.87764" lon="3.09787">
        <ele>169</ele>
        <time>2024-08-14T11:50:30Z</time>
      </trkpt>
      <trkpt lat="46.87767" lon="3.09792">
        <ele>169.2</ele>
        <time>2024-08-14T11:50:33Z</time>
      </trkpt>
      <trkpt lat="46.87768" lon="3.09792">
        <ele>169.2</ele>
        <time>2024-08-14T11:50:34Z</time>
      </trkpt>
      <trkpt lat="46.87768" lon="3.09793">
        <ele>169.2</ele>
        <time>2024-08-14T11:50:36Z</time>
      </trkpt>
    </trkseg>
  </trk>
</gpx>